<?xml version='1.0' encoding='UTF-8'?><gpx version="1.1" creator="JPX - https://github.com/jenetics/jpx" xmlns="http://www.topografix.com/GPX/1/1"><trk><trkseg><trkpt lat="41.15104744992043" lon="15.380352034029936"><ele>736.0</ele><time>2026-04-19T08:00:20.999Z</time></trkpt><trkpt lat="41.15113144342547" lon="15.380420478653933"><ele>736.0</ele><time>2026-04-19T08:00:22.999Z</time></trkpt><trkpt lat="41.15119302355719" lon="15.380505319028178"><ele>736.0</ele><time>2026-04-19T08:00:52.999Z</time></trkpt><trkpt lat="41.151278513447025" lon="15.380583061861692"><ele>736.0</ele><time>2026-04-19T08:00:54.999Z</time></trkpt><trkpt lat="41.151361531915775" lon="15.380695688141524"><ele>736.0</ele><time>2026-04-19T08:00:56.999Z</time></trkpt><trkpt lat="41.15142250644706" lon="15.380791460045401"><ele>731.1666666666667</ele><time>2026-04-19T08:00:57.999Z</time></trkpt><trkpt lat="41.151467592839715" lon="15.380875902320675"><ele>726.3333333333334</ele><time>2026-04-19T08:00:58.999Z</time></trkpt><trkpt lat="41.151482656842454" lon="15.380963598004136"><ele>721.5</ele><time>2026-04-19T08:00:59.999Z</time></trkpt><trkpt lat="41.15148323800977" lon="15.381054392033972"><ele>716.6666666666666</ele><time>2026-04-19T08:01:00.999Z</time></trkpt><trkpt lat="41.15150037854579" lon="15.38113833561608"><ele>711.8333333333333</ele><time>2026-04-19T08:01:01.999Z</time></trkpt><trkpt lat="41.151504233724566" lon="15.381226787030894"><ele>707.0</ele><time>2026-04-19T08:01:02.999Z</time></trkpt><trkpt lat="41.151400938200844" lon="15.381346593211074"><ele>709.4000000000001</ele><time>2026-04-19T08:01:03.999Z</time></trkpt><trkpt lat="41.15148608872624" lon="15.38151257113019"><ele>711.8000000000001</ele><time>2026-04-19T08:01:05.999Z</time></trkpt><trkpt lat="41.15155976815925" lon="15.381601279121416"><ele>714.2</ele><time>2026-04-19T08:01:06.999Z</time></trkpt><trkpt lat="41.15161802440153" lon="15.381666945562097"><ele>716.6</ele><time>2026-04-19T08:01:07.999Z</time></trkpt><trkpt lat="41.15170489891622" lon="15.381751240246613"><ele>719.0</ele><time>2026-04-19T08:01:09.999Z</time></trkpt><trkpt lat="41.15182809209447" lon="15.381800909321376"><ele>719.0</ele><time>2026-04-19T08:01:11.999Z</time></trkpt><trkpt lat="41.15192349709701" lon="15.381790117489027"><ele>719.0</ele><time>2026-04-19T08:01:13.999Z</time></trkpt><trkpt lat="41.15198490562237" lon="15.381771081103034"><ele>719.0</ele><time>2026-04-19T08:01:14.999Z</time></trkpt><trkpt lat="41.15206192808158" lon="15.381758979105213"><ele>719.0</ele><time>2026-04-19T08:01:15.999Z</time></trkpt><trkpt lat="41.152130633412064" lon="15.381679719631261"><ele>719.0</ele><time>2026-04-19T08:01:16.999Z</time></trkpt><trkpt lat="41.15219589504989" lon="15.38162755529233"><ele>719.0</ele><time>2026-04-19T08:01:17.999Z</time></trkpt><trkpt lat="41.15224491844328" lon="15.381553436562909"><ele>719.0</ele><time>2026-04-19T08:01:18.999Z</time></trkpt><trkpt lat="41.15230353494907" lon="15.381476589993007"><ele>719.0</ele><time>2026-04-19T08:01:19.999Z</time></trkpt><trkpt lat="41.152390756272624" lon="15.381363870661977"><ele>719.0</ele><time>2026-04-19T08:01:20.999Z</time></trkpt><trkpt lat="41.152489244885544" lon="15.381260337212103"><ele>719.0</ele><time>2026-04-19T08:01:21.999Z</time></trkpt><trkpt lat="41.15255499668414" lon="15.38117751648875"><ele>719.0</ele><time>2026-04-19T08:01:22.999Z</time></trkpt><trkpt lat="41.152616364492204" lon="15.381102632482316"><ele>721.4000000000001</ele><time>2026-04-19T08:01:23.999Z</time></trkpt><trkpt lat="41.152673473681155" lon="15.381038423781176"><ele>723.8</ele><time>2026-04-19T08:01:24.999Z</time></trkpt><trkpt lat="41.15274360254672" lon="15.38096362898029"><ele>726.2</ele><time>2026-04-19T08:01:25.999Z</time></trkpt><trkpt lat="41.152847891572584" lon="15.380862463522012"><ele>728.5999999999999</ele><time>2026-04-19T08:01:26.999Z</time></trkpt><trkpt lat="41.15296628105676" lon="15.38075237188594"><ele>731.0</ele><time>2026-04-19T08:01:27.999Z</time></trkpt><trkpt lat="41.153064126397226" lon="15.380652447015322"><ele>731.0</ele><time>2026-04-19T08:01:28.999Z</time></trkpt><trkpt lat="41.15314552147275" lon="15.380556812922771"><ele>731.0</ele><time>2026-04-19T08:01:29.999Z</time></trkpt><trkpt lat="41.1532099849253" lon="15.38046290849235"><ele>731.0</ele><time>2026-04-19T08:01:30.999Z</time></trkpt><trkpt lat="41.15326273607492" lon="15.380345763767696"><ele>731.0</ele><time>2026-04-19T08:01:31.999Z</time></trkpt><trkpt lat="41.15332060403924" lon="15.3801740583722"><ele>731.0</ele><time>2026-04-19T08:01:32.999Z</time></trkpt><trkpt lat="41.15338081759768" lon="15.38001975042225"><ele>732.8</ele><time>2026-04-19T08:01:33.999Z</time></trkpt><trkpt lat="41.15345447865155" lon="15.379902731113027"><ele>734.5999999999999</ele><time>2026-04-19T08:01:34.999Z</time></trkpt><trkpt lat="41.153549514592875" lon="15.379826924767215"><ele>736.4</ele><time>2026-04-19T08:01:35.999Z</time></trkpt><trkpt lat="41.15364216869119" lon="15.379730194535705"><ele>738.2</ele><time>2026-04-19T08:01:36.999Z</time></trkpt><trkpt lat="41.15371564973641" lon="15.379658393920423"><ele>740.0</ele><time>2026-04-19T08:01:37.999Z</time></trkpt><trkpt lat="41.15380136279607" lon="15.379588829406094"><ele>735.25</ele><time>2026-04-19T08:01:39.999Z</time></trkpt><trkpt lat="41.153775922074786" lon="15.37970450080002"><ele>730.5</ele><time>2026-04-19T08:01:43.999Z</time></trkpt><trkpt lat="41.153691161758346" lon="15.379783424032306"><ele>725.75</ele><time>2026-04-19T08:01:44.999Z</time></trkpt><trkpt lat="41.15359552019456" lon="15.379907711049336"><ele>721.0</ele><time>2026-04-19T08:01:45.999Z</time></trkpt><trkpt lat="41.1535081896869" lon="15.3800268572185"><ele>721.0</ele><time>2026-04-19T08:01:46.999Z</time></trkpt><trkpt lat="41.15344133719719" lon="15.380163549440125"><ele>721.0</ele><time>2026-04-19T08:01:47.999Z</time></trkpt><trkpt lat="41.15338793804766" lon="15.380336490350288"><ele>721.0</ele><time>2026-04-19T08:01:48.999Z</time></trkpt><trkpt lat="41.15333932173927" lon="15.380526367589628"><ele>721.0</ele><time>2026-04-19T08:01:49.999Z</time></trkpt><trkpt lat="41.153270268208686" lon="15.380661937817317"><ele>723.5</ele><time>2026-04-19T08:01:50.999Z</time></trkpt><trkpt lat="41.15318871089948" lon="15.380774310584602"><ele>726.0</ele><time>2026-04-19T08:01:51.999Z</time></trkpt><trkpt lat="41.15309643760883" lon="15.380894674096139"><ele>728.5</ele><time>2026-04-19T08:01:52.999Z</time></trkpt><trkpt lat="41.152990803280474" lon="15.381032965146044"><ele>731.0</ele><time>2026-04-19T08:01:53.999Z</time></trkpt><trkpt lat="41.15289318563307" lon="15.381176461221038"><ele>731.0</ele><time>2026-04-19T08:01:54.999Z</time></trkpt><trkpt lat="41.152805574600215" lon="15.381316427230223"><ele>731.0</ele><time>2026-04-19T08:01:55.999Z</time></trkpt><trkpt lat="41.15272936712252" lon="15.381458330573627"><ele>731.0</ele><time>2026-04-19T08:01:56.999Z</time></trkpt><trkpt lat="41.1526681148369" lon="15.381598607150297"><ele>731.0</ele><time>2026-04-19T08:01:58Z</time></trkpt><trkpt lat="41.15261401340185" lon="15.381718537871897"><ele>728.5999999999999</ele><time>2026-04-19T08:01:59Z</time></trkpt><trkpt lat="41.15257041671478" lon="15.38183142485268"><ele>726.2</ele><time>2026-04-19T08:02:00Z</time></trkpt><trkpt lat="41.152514549596155" lon="15.381928209466443"><ele>723.8</ele><time>2026-04-19T08:02:01Z</time></trkpt><trkpt lat="41.15243418065729" lon="15.382036483177954"><ele>721.4000000000001</ele><time>2026-04-19T08:02:02Z</time></trkpt><trkpt lat="41.15231829893033" lon="15.382145205603205"><ele>719.0</ele><time>2026-04-19T08:02:03Z</time></trkpt><trkpt lat="41.152214552933444" lon="15.38225002244727"><ele>711.0</ele><time>2026-04-19T08:02:04Z</time></trkpt><trkpt lat="41.15211710347179" lon="15.382338329140142"><ele>703.0</ele><time>2026-04-19T08:02:05Z</time></trkpt><trkpt lat="41.152020781523454" lon="15.382405913606895"><ele>695.0</ele><time>2026-04-19T08:02:06Z</time></trkpt><trkpt lat="41.15191732241248" lon="15.382459202466793"><ele>687.0</ele><time>2026-04-19T08:02:07Z</time></trkpt><trkpt lat="41.15180960178825" lon="15.382508933389065"><ele>687.0</ele><time>2026-04-19T08:02:08Z</time></trkpt><trkpt lat="41.151698333476226" lon="15.382481257964757"><ele>687.0</ele><time>2026-04-19T08:02:09Z</time></trkpt><trkpt lat="41.15157707748214" lon="15.382490215783488"><ele>687.0</ele><time>2026-04-19T08:02:10Z</time></trkpt><trkpt lat="41.151447427148085" lon="15.38248176598899"><ele>687.0</ele><time>2026-04-19T08:02:11Z</time></trkpt><trkpt lat="41.15134067822165" lon="15.382476504976458"><ele>683.2</ele><time>2026-04-19T08:02:12Z</time></trkpt><trkpt lat="41.151239064508204" lon="15.38241849460688"><ele>679.4000000000001</ele><time>2026-04-19T08:02:13Z</time></trkpt><trkpt lat="41.15115063437759" lon="15.382392904504396"><ele>675.5999999999999</ele><time>2026-04-19T08:02:14Z</time></trkpt><trkpt lat="41.15109475796116" lon="15.382332485789636"><ele>671.8</ele><time>2026-04-19T08:02:15Z</time></trkpt><trkpt lat="41.150983874189926" lon="15.382270620615822"><ele>668.0</ele><time>2026-04-19T08:02:17Z</time></trkpt><trkpt lat="41.150909324173675" lon="15.382188652890692"><ele>668.0</ele><time>2026-04-19T08:02:19Z</time></trkpt><trkpt lat="41.15082933832619" lon="15.38222354958642"><ele>668.0</ele><time>2026-04-19T08:02:22Z</time></trkpt><trkpt lat="41.15090046329509" lon="15.382367239875173"><ele>668.0</ele><time>2026-04-19T08:02:24Z</time></trkpt><trkpt lat="41.15100785035189" lon="15.38242488642909"><ele>668.0</ele><time>2026-04-19T08:02:25Z</time></trkpt><trkpt lat="41.151133647035174" lon="15.38250849403631"><ele>668.0</ele><time>2026-04-19T08:02:26Z</time></trkpt><trkpt lat="41.15126598550007" lon="15.382591015005124"><ele>668.0</ele><time>2026-04-19T08:02:27Z</time></trkpt><trkpt lat="41.15137742371189" lon="15.38265190049697"><ele>668.0</ele><time>2026-04-19T08:02:28Z</time></trkpt><trkpt lat="41.15147929393447" lon="15.382707984166546"><ele>668.0</ele><time>2026-04-19T08:02:29Z</time></trkpt><trkpt lat="41.151625681481576" lon="15.382752575846096"><ele>671.8</ele><time>2026-04-19T08:02:30Z</time></trkpt><trkpt lat="41.15174328186379" lon="15.382780460145458"><ele>675.5999999999999</ele><time>2026-04-19T08:02:31Z</time></trkpt><trkpt lat="41.15184297111589" lon="15.382813105314032"><ele>679.4000000000001</ele><time>2026-04-19T08:02:32Z</time></trkpt><trkpt lat="41.15191519406633" lon="15.382839242779031"><ele>683.2</ele><time>2026-04-19T08:02:33Z</time></trkpt><trkpt lat="41.151932731962034" lon="15.382964536290118"><ele>687.0</ele><time>2026-04-19T08:02:35Z</time></trkpt><trkpt lat="41.15186304728125" lon="15.38300215478249"><ele>687.0</ele><time>2026-04-19T08:02:36Z</time></trkpt><trkpt lat="41.151767906767084" lon="15.382938583723732"><ele>687.0</ele><time>2026-04-19T08:02:37Z</time></trkpt><trkpt lat="41.151649757940994" lon="15.382912657180764"><ele>687.0</ele><time>2026-04-19T08:02:38Z</time></trkpt><trkpt lat="41.1514805766351" lon="15.382894486834369"><ele>687.0</ele><time>2026-04-19T08:02:39Z</time></trkpt><trkpt lat="41.15127909360177" lon="15.38285778907494"><ele>680.6666666666666</ele><time>2026-04-19T08:02:40Z</time></trkpt><trkpt lat="41.151103732721005" lon="15.382789365674093"><ele>674.3333333333333</ele><time>2026-04-19T08:02:41Z</time></trkpt><trkpt lat="41.150952557601315" lon="15.382717898673441"><ele>668.0</ele><time>2026-04-19T08:02:42Z</time></trkpt><trkpt lat="41.1507824158085" lon="15.382630202574278"><ele>662.4</ele><time>2026-04-19T08:02:43Z</time></trkpt><trkpt lat="41.15062740195401" lon="15.382551799219735"><ele>656.8</ele><time>2026-04-19T08:02:44Z</time></trkpt><trkpt lat="41.150528156621895" lon="15.382496770326462"><ele>651.2</ele><time>2026-04-19T08:02:45Z</time></trkpt><trkpt lat="41.15045240544324" lon="15.38244102295178"><ele>645.6</ele><time>2026-04-19T08:02:46Z</time></trkpt><trkpt lat="41.15038611846631" lon="15.382370123128785"><ele>640.0</ele><time>2026-04-19T08:02:47Z</time></trkpt><trkpt lat="41.1503176977701" lon="15.3822902259601"><ele>640.0</ele><time>2026-04-19T08:02:48Z</time></trkpt><trkpt lat="41.15025001850772" lon="15.382235976063273"><ele>640.0</ele><time>2026-04-19T08:02:49Z</time></trkpt><trkpt lat="41.15017900666292" lon="15.382177176712602"><ele>640.0</ele><time>2026-04-19T08:02:51Z</time></trkpt><trkpt lat="41.15013371563542" lon="15.38228758617952"><ele>640.0</ele><time>2026-04-19T08:02:53Z</time></trkpt><trkpt lat="41.15020502890373" lon="15.382457506104487"><ele>640.0</ele><time>2026-04-19T08:02:55Z</time></trkpt><trkpt lat="41.150297100916056" lon="15.382552667632382"><ele>640.0</ele><time>2026-04-19T08:02:56Z</time></trkpt><trkpt lat="41.15040447477222" lon="15.382658965188947"><ele>640.0</ele><time>2026-04-19T08:02:57Z</time></trkpt><trkpt lat="41.150499967434804" lon="15.3827512753134"><ele>640.0</ele><time>2026-04-19T08:02:58Z</time></trkpt><trkpt lat="41.150586554744066" lon="15.38283688036312"><ele>640.0</ele><time>2026-04-19T08:02:59Z</time></trkpt><trkpt lat="41.150669775806655" lon="15.382909164381083"><ele>639.6</ele><time>2026-04-19T08:03:00Z</time></trkpt><trkpt lat="41.15073011690416" lon="15.382962020544737"><ele>639.2</ele><time>2026-04-19T08:03:01Z</time></trkpt><trkpt lat="41.15080873525087" lon="15.383034653723017"><ele>638.8</ele><time>2026-04-19T08:03:03Z</time></trkpt><trkpt lat="41.15092575073567" lon="15.383122779240876"><ele>638.4</ele><time>2026-04-19T08:03:05Z</time></trkpt><trkpt lat="41.15102847595715" lon="15.383202969563719"><ele>638.0</ele><time>2026-04-19T08:03:07Z</time></trkpt><trkpt lat="41.151095723513635" lon="15.383256423851286"><ele>638.0</ele><time>2026-04-19T08:03:08Z</time></trkpt><trkpt lat="41.15119642962708" lon="15.383336474270733"><ele>638.0</ele><time>2026-04-19T08:03:10Z</time></trkpt><trkpt lat="41.151266159008664" lon="15.3833913167942"><ele>638.0</ele><time>2026-04-19T08:03:11Z</time></trkpt><trkpt lat="41.15138082038188" lon="15.38347979254994"><ele>638.0</ele><time>2026-04-19T08:03:13Z</time></trkpt><trkpt lat="41.1514541754689" lon="15.383536395247726"><ele>638.0</ele><time>2026-04-19T08:03:14Z</time></trkpt><trkpt lat="41.15153296270078" lon="15.383594208754426"><ele>636.8</ele><time>2026-04-19T08:03:15Z</time></trkpt><trkpt lat="41.15161814465973" lon="15.383655715381275"><ele>635.5999999999999</ele><time>2026-04-19T08:03:16Z</time></trkpt><trkpt lat="41.15168382939247" lon="15.38369916888066"><ele>634.4000000000001</ele><time>2026-04-19T08:03:18Z</time></trkpt><trkpt lat="41.1517445896084" lon="15.383736501546363"><ele>633.2</ele><time>2026-04-19T08:03:20Z</time></trkpt><trkpt lat="41.151808288661286" lon="15.383786946254396"><ele>632.0</ele><time>2026-04-19T08:03:22Z</time></trkpt><trkpt lat="41.15171423260109" lon="15.38429569235989"><ele>632.0</ele><time>2026-04-19T08:03:24Z</time></trkpt><trkpt lat="41.15172074149" lon="15.384395893109094"><ele>632.0</ele><time>2026-04-19T08:03:26Z</time></trkpt><trkpt lat="41.15185623887176" lon="15.384388718834542"><ele>632.0</ele><time>2026-04-19T08:03:28Z</time></trkpt><trkpt lat="41.15187453903114" lon="15.384237504095072"><ele>632.0</ele><time>2026-04-19T08:03:29Z</time></trkpt><trkpt lat="41.15194470515683" lon="15.38418567799084"><ele>632.0</ele><time>2026-04-19T08:03:30Z</time></trkpt><trkpt lat="41.152038420458766" lon="15.38418015522857"><ele>632.0</ele><time>2026-04-19T08:03:31Z</time></trkpt><trkpt lat="41.15216819439162" lon="15.38418220643786"><ele>632.0</ele><time>2026-04-19T08:03:32Z</time></trkpt><trkpt lat="41.15231581723599" lon="15.384184537241886"><ele>632.0</ele><time>2026-04-19T08:03:33Z</time></trkpt><trkpt lat="41.152448725669466" lon="15.384175849572312"><ele>632.0</ele><time>2026-04-19T08:03:34Z</time></trkpt><trkpt lat="41.152574335597585" lon="15.384170434598786"><ele>630.0</ele><time>2026-04-19T08:03:35Z</time></trkpt><trkpt lat="41.152692155708365" lon="15.384170236385673"><ele>628.0</ele><time>2026-04-19T08:03:36Z</time></trkpt><trkpt lat="41.15279864937364" lon="15.384173613580097"><ele>626.0</ele><time>2026-04-19T08:03:37Z</time></trkpt><trkpt lat="41.152897491474945" lon="15.38417671167094"><ele>624.0</ele><time>2026-04-19T08:03:38Z</time></trkpt><trkpt lat="41.152991691447575" lon="15.384179636402676"><ele>622.0</ele><time>2026-04-19T08:03:39Z</time></trkpt><trkpt lat="41.153077731406164" lon="15.384179636407962"><ele>622.0</ele><time>2026-04-19T08:03:40Z</time></trkpt><trkpt lat="41.15317361513891" lon="15.384175692264218"><ele>622.0</ele><time>2026-04-19T08:03:41Z</time></trkpt><trkpt lat="41.15325894221879" lon="15.38416642918417"><ele>622.0</ele><time>2026-04-19T08:03:42Z</time></trkpt><trkpt lat="41.15334275704101" lon="15.384146136822343"><ele>622.0</ele><time>2026-04-19T08:03:43Z</time></trkpt><trkpt lat="41.1534029573379" lon="15.384076008881662"><ele>622.0</ele><time>2026-04-19T08:03:44Z</time></trkpt><trkpt lat="41.15348195728043" lon="15.384015588664012"><ele>622.0</ele><time>2026-04-19T08:03:46Z</time></trkpt><trkpt lat="41.153543815704914" lon="15.383980447678411"><ele>616.3333333333334</ele><time>2026-04-19T08:03:48Z</time></trkpt><trkpt lat="41.15375279320609" lon="15.38420899211907"><ele>610.6666666666666</ele><time>2026-04-19T08:03:50Z</time></trkpt><trkpt lat="41.153837762751586" lon="15.384211906529625"><ele>605.0</ele><time>2026-04-19T08:03:51Z</time></trkpt><trkpt lat="41.153941343460296" lon="15.38419872251143"><ele>602.8</ele><time>2026-04-19T08:03:52Z</time></trkpt><trkpt lat="41.154040039661886" lon="15.384161879896025"><ele>600.6</ele><time>2026-04-19T08:03:53Z</time></trkpt><trkpt lat="41.15413186619029" lon="15.384130546372544"><ele>598.4</ele><time>2026-04-19T08:03:54Z</time></trkpt><trkpt lat="41.15422900968094" lon="15.384103353339311"><ele>596.2</ele><time>2026-04-19T08:03:55Z</time></trkpt><trkpt lat="41.15435110593282" lon="15.384076964858902"><ele>594.0</ele><time>2026-04-19T08:03:56Z</time></trkpt><trkpt lat="41.15448773796213" lon="15.38407739750276"><ele>594.0</ele><time>2026-04-19T08:03:57Z</time></trkpt><trkpt lat="41.15461638651032" lon="15.384093628250163"><ele>594.0</ele><time>2026-04-19T08:03:58Z</time></trkpt><trkpt lat="41.15473072392015" lon="15.384101676268042"><ele>594.0</ele><time>2026-04-19T08:03:59Z</time></trkpt><trkpt lat="41.154837578558464" lon="15.384088851370745"><ele>594.0</ele><time>2026-04-19T08:04:00Z</time></trkpt><trkpt lat="41.154939357338996" lon="15.384090121112958"><ele>590.0</ele><time>2026-04-19T08:04:01Z</time></trkpt><trkpt lat="41.155041343137654" lon="15.38410311344912"><ele>586.0</ele><time>2026-04-19T08:04:02Z</time></trkpt><trkpt lat="41.15513718193755" lon="15.384136451617808"><ele>582.0</ele><time>2026-04-19T08:04:03Z</time></trkpt><trkpt lat="41.15523244518708" lon="15.38418028709575"><ele>578.0</ele><time>2026-04-19T08:04:04Z</time></trkpt><trkpt lat="41.15531315501655" lon="15.38423106559613"><ele>574.0</ele><time>2026-04-19T08:04:05Z</time></trkpt><trkpt lat="41.15538449443729" lon="15.384274228906968"><ele>574.0</ele><time>2026-04-19T08:04:06Z</time></trkpt><trkpt lat="41.15545444635418" lon="15.38429940547524"><ele>574.0</ele><time>2026-04-19T08:04:07Z</time></trkpt><trkpt lat="41.15552443991856" lon="15.384321331226793"><ele>574.0</ele><time>2026-04-19T08:04:08Z</time></trkpt><trkpt lat="41.15561737778016" lon="15.384357871068055"><ele>574.0</ele><time>2026-04-19T08:04:10Z</time></trkpt><trkpt lat="41.15568608212813" lon="15.384327928150391"><ele>574.0</ele><time>2026-04-19T08:04:12Z</time></trkpt><trkpt lat="41.15568277510956" lon="15.384239875243672"><ele>574.0</ele><time>2026-04-19T08:04:14Z</time></trkpt><trkpt lat="41.155668182750155" lon="15.384158112941034"><ele>574.0</ele><time>2026-04-19T08:04:18Z</time></trkpt><trkpt lat="41.155683399596" lon="15.384068291295705"><ele>574.0</ele><time>2026-04-19T08:04:49Z</time></trkpt><trkpt lat="41.15566609817699" lon="15.383987419263953"><ele>574.0</ele><time>2026-04-19T08:04:51Z</time></trkpt><trkpt lat="41.15574774076719" lon="15.383883007186364"><ele>574.0</ele><time>2026-04-19T08:04:52Z</time></trkpt><trkpt lat="41.1557728696661" lon="15.383963315281791"><ele>574.0</ele><time>2026-04-19T08:04:58Z</time></trkpt><trkpt lat="41.155595940905656" lon="15.384119858673802"><ele>574.0</ele><time>2026-04-19T08:05:14Z</time></trkpt><trkpt lat="41.15553480121697" lon="15.384145172769433"><ele>574.0</ele><time>2026-04-19T08:05:15Z</time></trkpt><trkpt lat="41.1554995081666" lon="15.384002958437366"><ele>574.0</ele><time>2026-04-19T08:05:19Z</time></trkpt><trkpt lat="41.15543506262945" lon="15.383951482091344"><ele>574.0</ele><time>2026-04-19T08:05:20Z</time></trkpt><trkpt lat="41.15539537624957" lon="15.383877132679807"><ele>574.0</ele><time>2026-04-19T08:05:23Z</time></trkpt><trkpt lat="41.15542264182291" lon="15.383732102688615"><ele>574.0</ele><time>2026-04-19T08:05:26Z</time></trkpt><trkpt lat="41.15535970998829" lon="15.383702412038351"><ele>572.1666666666667</ele><time>2026-04-19T08:05:35Z</time></trkpt><trkpt lat="41.15529651486086" lon="15.383660689320694"><ele>570.3333333333334</ele><time>2026-04-19T08:05:38Z</time></trkpt><trkpt lat="41.15525534805997" lon="15.383570060090344"><ele>568.5</ele><time>2026-04-19T08:05:40Z</time></trkpt><trkpt lat="41.1551875419052" lon="15.383574292688344"><ele>566.6666666666666</ele><time>2026-04-19T08:05:46Z</time></trkpt><trkpt lat="41.15511992682419" lon="15.38360420480705"><ele>564.8333333333333</ele><time>2026-04-19T08:05:48Z</time></trkpt><trkpt lat="41.15499250417136" lon="15.38357062436929"><ele>563.0</ele><time>2026-04-19T08:05:50Z</time></trkpt><trkpt lat="41.15508652820125" lon="15.383592636106057"><ele>563.0</ele><time>2026-04-19T08:05:51Z</time></trkpt><trkpt lat="41.15502056981963" lon="15.383591763491005"><ele>563.0</ele><time>2026-04-19T08:05:54Z</time></trkpt><trkpt lat="41.15496431771028" lon="15.38344163817886"><ele>563.0</ele><time>2026-04-19T08:05:56Z</time></trkpt><trkpt lat="41.154925382664764" lon="15.383296972642729"><ele>563.0</ele><time>2026-04-19T08:05:57Z</time></trkpt><trkpt lat="41.1549055478741" lon="15.38316028937528"><ele>563.0</ele><time>2026-04-19T08:05:58Z</time></trkpt><trkpt lat="41.154946696470844" lon="15.383057995030615"><ele>563.0</ele><time>2026-04-19T08:06:00Z</time></trkpt><trkpt lat="41.1550205840175" lon="15.383047055635574"><ele>563.0</ele><time>2026-04-19T08:06:01Z</time></trkpt><trkpt lat="41.155101776964635" lon="15.383101754087946"><ele>563.0</ele><time>2026-04-19T08:06:03Z</time></trkpt><trkpt lat="41.15518453699039" lon="15.382963920471589"><ele>563.0</ele><time>2026-04-19T08:06:05Z</time></trkpt><trkpt lat="41.155238338036106" lon="15.382892957037757"><ele>563.0</ele><time>2026-04-19T08:06:06Z</time></trkpt><trkpt lat="41.155315960175926" lon="15.382817431322849"><ele>566.0</ele><time>2026-04-19T08:06:08Z</time></trkpt><trkpt lat="41.15537309549568" lon="15.382727023100509"><ele>569.0</ele><time>2026-04-19T08:06:10Z</time></trkpt><trkpt lat="41.15547791010095" lon="15.38265693543698"><ele>572.0</ele><time>2026-04-19T08:06:12Z</time></trkpt><trkpt lat="41.15552379722723" lon="15.38258783487691"><ele>575.0</ele><time>2026-04-19T08:06:14Z</time></trkpt><trkpt lat="41.15545860075279" lon="15.382523451708831"><ele>578.0</ele><time>2026-04-19T08:06:26Z</time></trkpt><trkpt lat="41.155442433500184" lon="15.382401679673118"><ele>578.0</ele><time>2026-04-19T08:06:30Z</time></trkpt><trkpt lat="41.15545908304069" lon="15.38231482545321"><ele>578.0</ele><time>2026-04-19T08:06:33Z</time></trkpt><trkpt lat="41.155527086804625" lon="15.382233558673855"><ele>578.0</ele><time>2026-04-19T08:06:35Z</time></trkpt><trkpt lat="41.15563947881305" lon="15.382178084734939"><ele>578.0</ele><time>2026-04-19T08:06:37Z</time></trkpt><trkpt lat="41.155738150097335" lon="15.382137196770032"><ele>578.0</ele><time>2026-04-19T08:06:39Z</time></trkpt><trkpt lat="41.155804617336116" lon="15.382187351772407"><ele>577.25</ele><time>2026-04-19T08:06:43Z</time></trkpt><trkpt lat="41.15586690857471" lon="15.382154821070618"><ele>576.5</ele><time>2026-04-19T08:06:46Z</time></trkpt><trkpt lat="41.15599608755632" lon="15.382258839907122"><ele>575.75</ele><time>2026-04-19T08:06:47Z</time></trkpt><trkpt lat="41.155953233723814" lon="15.381996617009262"><ele>575.0</ele><time>2026-04-19T08:06:52Z</time></trkpt><trkpt lat="41.155951023782855" lon="15.381887504375905"><ele>575.0</ele><time>2026-04-19T08:06:54Z</time></trkpt><trkpt lat="41.15595225822188" lon="15.381796376617666"><ele>575.0</ele><time>2026-04-19T08:06:57Z</time></trkpt><trkpt lat="41.155948311624854" lon="15.381662149148415"><ele>575.0</ele><time>2026-04-19T08:06:59Z</time></trkpt><trkpt lat="41.15602011873317" lon="15.381626801953201"><ele>575.0</ele><time>2026-04-19T08:07:02Z</time></trkpt><trkpt lat="41.15605576965705" lon="15.381537450096177"><ele>575.0</ele><time>2026-04-19T08:07:05Z</time></trkpt><trkpt lat="41.156071112328014" lon="15.3814481781273"><ele>575.0</ele><time>2026-04-19T08:07:09Z</time></trkpt><trkpt lat="41.15605467070258" lon="15.381363498209833"><ele>579.8333333333333</ele><time>2026-04-19T08:07:13Z</time></trkpt><trkpt lat="41.15608434829797" lon="15.381286810804083"><ele>584.6666666666666</ele><time>2026-04-19T08:07:15Z</time></trkpt><trkpt lat="41.15606532757862" lon="15.381194950043588"><ele>589.5</ele><time>2026-04-19T08:07:18Z</time></trkpt><trkpt lat="41.15606096520073" lon="15.381096072021332"><ele>594.3333333333334</ele><time>2026-04-19T08:07:21Z</time></trkpt><trkpt lat="41.156129559839755" lon="15.381033972327023"><ele>599.1666666666667</ele><time>2026-04-19T08:07:24Z</time></trkpt><trkpt lat="41.156194780449" lon="15.380942877098487"><ele>604.0</ele><time>2026-04-19T08:07:26Z</time></trkpt><trkpt lat="41.156206305308565" lon="15.380818105832939"><ele>604.0</ele><time>2026-04-19T08:07:29Z</time></trkpt><trkpt lat="41.15624607989407" lon="15.380724671681996"><ele>604.0</ele><time>2026-04-19T08:07:31Z</time></trkpt><trkpt lat="41.156331098257105" lon="15.38070201447965"><ele>604.0</ele><time>2026-04-19T08:07:35Z</time></trkpt><trkpt lat="41.15643643798867" lon="15.380672814703992"><ele>604.0</ele><time>2026-04-19T08:07:37Z</time></trkpt><trkpt lat="41.15647877179967" lon="15.380583344810812"><ele>604.0</ele><time>2026-04-19T08:07:39Z</time></trkpt><trkpt lat="41.156551392499445" lon="15.380540509330494"><ele>604.0</ele><time>2026-04-19T08:07:41Z</time></trkpt><trkpt lat="41.15661016790499" lon="15.380451520278006"><ele>606.0</ele><time>2026-04-19T08:07:43Z</time></trkpt><trkpt lat="41.15657859549706" lon="15.380318847077964"><ele>608.0</ele><time>2026-04-19T08:07:45Z</time></trkpt><trkpt lat="41.156532872520195" lon="15.380188663417954"><ele>610.0</ele><time>2026-04-19T08:07:47Z</time></trkpt><trkpt lat="41.1564910252007" lon="15.380091005286268"><ele>612.0</ele><time>2026-04-19T08:07:48Z</time></trkpt><trkpt lat="41.15654255076591" lon="15.379984972479111"><ele>614.0</ele><time>2026-04-19T08:07:51Z</time></trkpt><trkpt lat="41.156599838366084" lon="15.379939308748893"><ele>614.0</ele><time>2026-04-19T08:07:52Z</time></trkpt><trkpt lat="41.15663612480176" lon="15.379815956987414"><ele>614.0</ele><time>2026-04-19T08:07:54Z</time></trkpt><trkpt lat="41.15656097375412" lon="15.379797317868803"><ele>614.0</ele><time>2026-04-19T08:07:56Z</time></trkpt><trkpt lat="41.1564767642704" lon="15.379861131624525"><ele>614.0</ele><time>2026-04-19T08:07:58Z</time></trkpt><trkpt lat="41.1564023107715" lon="15.379875637792884"><ele>614.0</ele><time>2026-04-19T08:07:59Z</time></trkpt><trkpt lat="41.156322109526975" lon="15.379895486826896"><ele>614.0</ele><time>2026-04-19T08:08:00Z</time></trkpt><trkpt lat="41.15624203145879" lon="15.379890054082082"><ele>617.6666666666666</ele><time>2026-04-19T08:08:01Z</time></trkpt><trkpt lat="41.156168204479286" lon="15.379883046667413"><ele>621.3333333333333</ele><time>2026-04-19T08:08:02Z</time></trkpt><trkpt lat="41.15609471194842" lon="15.379928225589195"><ele>625.0</ele><time>2026-04-19T08:08:03Z</time></trkpt><trkpt lat="41.15600452275521" lon="15.37994786859974"><ele>628.6666666666666</ele><time>2026-04-19T08:08:04Z</time></trkpt><trkpt lat="41.15591816671639" lon="15.379976525556081"><ele>632.3333333333334</ele><time>2026-04-19T08:08:05Z</time></trkpt><trkpt lat="41.155851868349934" lon="15.380003742412725"><ele>636.0</ele><time>2026-04-19T08:08:06Z</time></trkpt><trkpt lat="41.1557675145899" lon="15.380017225425316"><ele>641.4</ele><time>2026-04-19T08:08:07Z</time></trkpt><trkpt lat="41.155659167472756" lon="15.380016601431494"><ele>646.8</ele><time>2026-04-19T08:08:08Z</time></trkpt><trkpt lat="41.155535552559215" lon="15.380034807383536"><ele>652.1999999999999</ele><time>2026-04-19T08:08:09Z</time></trkpt><trkpt lat="41.15544485609217" lon="15.380037116477581"><ele>657.6</ele><time>2026-04-19T08:08:10Z</time></trkpt><trkpt lat="41.15535757758932" lon="15.38002690054344"><ele>663.0</ele><time>2026-04-19T08:08:11Z</time></trkpt><trkpt lat="41.15529728778562" lon="15.379983408678479"><ele>663.0</ele><time>2026-04-19T08:08:13Z</time></trkpt><trkpt lat="41.15539506901785" lon="15.379901430260416"><ele>663.0</ele><time>2026-04-19T08:08:15Z</time></trkpt><trkpt lat="41.15545291230507" lon="15.379838733523387"><ele>663.0</ele><time>2026-04-19T08:08:16Z</time></trkpt><trkpt lat="41.15552908022297" lon="15.379731066677177"><ele>663.0</ele><time>2026-04-19T08:08:17Z</time></trkpt><trkpt lat="41.1556084857716" lon="15.37960679855071"><ele>663.0</ele><time>2026-04-19T08:08:18Z</time></trkpt><trkpt lat="41.15569588544434" lon="15.37949345472083"><ele>664.2</ele><time>2026-04-19T08:08:19Z</time></trkpt><trkpt lat="41.15575698698913" lon="15.379416469791552"><ele>665.4</ele><time>2026-04-19T08:08:20Z</time></trkpt><trkpt lat="41.15581935145009" lon="15.37934251624043"><ele>666.6</ele><time>2026-04-19T08:08:21Z</time></trkpt><trkpt lat="41.1559070018716" lon="15.379215193523754"><ele>667.8000000000001</ele><time>2026-04-19T08:08:23Z</time></trkpt><trkpt lat="41.155948515627955" lon="15.379149104550402"><ele>669.0</ele><time>2026-04-19T08:08:24Z</time></trkpt><trkpt lat="41.15603073648169" lon="15.379048207180332"><ele>669.0</ele><time>2026-04-19T08:08:26Z</time></trkpt><trkpt lat="41.15612857385419" lon="15.378910190477253"><ele>669.0</ele><time>2026-04-19T08:08:28Z</time></trkpt><trkpt lat="41.15618469698004" lon="15.378860846299597"><ele>669.0</ele><time>2026-04-19T08:08:29Z</time></trkpt><trkpt lat="41.15623912206484" lon="15.378814727818149"><ele>669.0</ele><time>2026-04-19T08:08:30Z</time></trkpt><trkpt lat="41.15631945439978" lon="15.378722136417586"><ele>669.0</ele><time>2026-04-19T08:08:32Z</time></trkpt><trkpt lat="41.156370863165066" lon="15.37859896987049"><ele>671.8000000000001</ele><time>2026-04-19T08:08:34Z</time></trkpt><trkpt lat="41.156286215041426" lon="15.37854913995598"><ele>674.6</ele><time>2026-04-19T08:08:36Z</time></trkpt><trkpt lat="41.15632267248653" lon="15.378467608334349"><ele>677.4</ele><time>2026-04-19T08:08:41Z</time></trkpt><trkpt lat="41.15642719284069" lon="15.378414319434574"><ele>680.2</ele><time>2026-04-19T08:08:43Z</time></trkpt><trkpt lat="41.15646094765045" lon="15.378301424071044"><ele>683.0</ele><time>2026-04-19T08:08:45Z</time></trkpt><trkpt lat="41.15644895250396" lon="15.37814687942741"><ele>683.0</ele><time>2026-04-19T08:08:47Z</time></trkpt><trkpt lat="41.15644340772225" lon="15.378026236964622"><ele>683.0</ele><time>2026-04-19T08:08:49Z</time></trkpt><trkpt lat="41.15637248207926" lon="15.377924002109106"><ele>683.0</ele><time>2026-04-19T08:08:51Z</time></trkpt><trkpt lat="41.15627790964779" lon="15.377819881975459"><ele>683.0</ele><time>2026-04-19T08:08:53Z</time></trkpt><trkpt lat="41.156197652396116" lon="15.377753934259674"><ele>683.0</ele><time>2026-04-19T08:08:55Z</time></trkpt><trkpt lat="41.156109445610326" lon="15.377685195089812"><ele>680.0</ele><time>2026-04-19T08:08:57Z</time></trkpt><trkpt lat="41.15603213298089" lon="15.377641794479485"><ele>677.0</ele><time>2026-04-19T08:08:58Z</time></trkpt><trkpt lat="41.15591933208112" lon="15.377579060800121"><ele>674.0</ele><time>2026-04-19T08:08:59Z</time></trkpt><trkpt lat="41.155831198037156" lon="15.377490536851019"><ele>671.0</ele><time>2026-04-19T08:09:00Z</time></trkpt><trkpt lat="41.15573985776538" lon="15.377420683205289"><ele>668.0</ele><time>2026-04-19T08:09:01Z</time></trkpt><trkpt lat="41.1556374110078" lon="15.37735244750795"><ele>668.0</ele><time>2026-04-19T08:09:02Z</time></trkpt><trkpt lat="41.155569962644556" lon="15.377299235223132"><ele>668.0</ele><time>2026-04-19T08:09:03Z</time></trkpt><trkpt lat="41.15551163937623" lon="15.377267282053836"><ele>668.0</ele><time>2026-04-19T08:09:04Z</time></trkpt><trkpt lat="41.15541366350921" lon="15.377195714039793"><ele>668.0</ele><time>2026-04-19T08:09:06Z</time></trkpt><trkpt lat="41.15534000063002" lon="15.377148030913721"><ele>668.0</ele><time>2026-04-19T08:09:07Z</time></trkpt><trkpt lat="41.15523443818131" lon="15.377081894668981"><ele>662.0</ele><time>2026-04-19T08:09:09Z</time></trkpt><trkpt lat="41.15515647839515" lon="15.37699890383655"><ele>656.0</ele><time>2026-04-19T08:09:11Z</time></trkpt><trkpt lat="41.15507803231296" lon="15.376872467238634"><ele>650.0</ele><time>2026-04-19T08:09:13Z</time></trkpt><trkpt lat="41.15504060408356" lon="15.376792810827759"><ele>644.0</ele><time>2026-04-19T08:09:14Z</time></trkpt><trkpt lat="41.1549847484381" lon="15.37667929402595"><ele>638.0</ele><time>2026-04-19T08:09:16Z</time></trkpt><trkpt lat="41.154954776793794" lon="15.376591324715251"><ele>638.0</ele><time>2026-04-19T08:09:18Z</time></trkpt><trkpt lat="41.154971723113945" lon="15.376470591615533"><ele>638.0</ele><time>2026-04-19T08:09:20Z</time></trkpt><trkpt lat="41.15501581758078" lon="15.376319676585991"><ele>638.0</ele><time>2026-04-19T08:09:22Z</time></trkpt><trkpt lat="41.15506304712885" lon="15.376215721313947"><ele>638.0</ele><time>2026-04-19T08:09:24Z</time></trkpt><trkpt lat="41.155236865857844" lon="15.376096470011262"><ele>636.0</ele><time>2026-04-19T08:09:35Z</time></trkpt><trkpt lat="41.15528668751393" lon="15.37599376484253"><ele>634.0</ele><time>2026-04-19T08:09:37Z</time></trkpt><trkpt lat="41.15531813794929" lon="15.375913883469627"><ele>632.0</ele><time>2026-04-19T08:09:39Z</time></trkpt><trkpt lat="41.155355945597236" lon="15.375822558835555"><ele>630.0</ele><time>2026-04-19T08:09:48Z</time></trkpt><trkpt lat="41.155364146888594" lon="15.375688426170349"><ele>628.0</ele><time>2026-04-19T08:09:50Z</time></trkpt><trkpt lat="41.155370535145934" lon="15.375595474771446"><ele>626.0</ele><time>2026-04-19T08:09:52Z</time></trkpt><trkpt lat="41.15535801196037" lon="15.375464693068709"><ele>624.4</ele><time>2026-04-19T08:09:54Z</time></trkpt><trkpt lat="41.15533440278151" lon="15.375345118682308"><ele>622.8</ele><time>2026-04-19T08:09:56Z</time></trkpt><trkpt lat="41.155323789758754" lon="15.375214794470269"><ele>621.1999999999999</ele><time>2026-04-19T08:09:58Z</time></trkpt><trkpt lat="41.155399923364" lon="15.375107563648152"><ele>619.6</ele><time>2026-04-19T08:10:00Z</time></trkpt><trkpt lat="41.15548165279129" lon="15.37496404276118"><ele>618.0</ele><time>2026-04-19T08:10:02Z</time></trkpt><trkpt lat="41.15553982744178" lon="15.37488978284507"><ele>618.0</ele><time>2026-04-19T08:10:03Z</time></trkpt><trkpt lat="41.15559968759514" lon="15.374844519999042"><ele>618.0</ele><time>2026-04-19T08:10:04Z</time></trkpt><trkpt lat="41.155677364707884" lon="15.374732586138787"><ele>618.0</ele><time>2026-04-19T08:10:06Z</time></trkpt><trkpt lat="41.15577031751373" lon="15.374622869750645"><ele>618.0</ele><time>2026-04-19T08:10:08Z</time></trkpt><trkpt lat="41.155819274154865" lon="15.37456588374254"><ele>618.0</ele><time>2026-04-19T08:10:09Z</time></trkpt><trkpt lat="41.155878591364655" lon="15.374514067730233"><ele>618.0</ele><time>2026-04-19T08:10:10Z</time></trkpt><trkpt lat="41.15592722397301" lon="15.374450357814966"><ele>614.6666666666666</ele><time>2026-04-19T08:10:11Z</time></trkpt><trkpt lat="41.15596053336304" lon="15.37437159748707"><ele>611.3333333333334</ele><time>2026-04-19T08:10:12Z</time></trkpt><trkpt lat="41.15601939180716" lon="15.374316533658996"><ele>608.0</ele><time>2026-04-19T08:10:13Z</time></trkpt><trkpt lat="41.15607004175832" lon="15.374235363980674"><ele>604.6666666666667</ele><time>2026-04-19T08:10:14Z</time></trkpt><trkpt lat="41.15611339693019" lon="15.374165884814538"><ele>601.3333333333334</ele><time>2026-04-19T08:10:15Z</time></trkpt><trkpt lat="41.15619813542383" lon="15.374030086061094"><ele>598.0</ele><time>2026-04-19T08:10:17Z</time></trkpt><trkpt lat="41.156245344335474" lon="15.373971204822528"><ele>598.0</ele><time>2026-04-19T08:10:18Z</time></trkpt><trkpt lat="41.15628909117305" lon="15.373904873802324"><ele>598.0</ele><time>2026-04-19T08:10:19Z</time></trkpt><trkpt lat="41.15632143978202" lon="15.373828774016392"><ele>598.0</ele><time>2026-04-19T08:10:20Z</time></trkpt><trkpt lat="41.15632632812306" lon="15.373732365272561"><ele>598.0</ele><time>2026-04-19T08:10:21Z</time></trkpt><trkpt lat="41.156330094712104" lon="15.373637532709026"><ele>598.0</ele><time>2026-04-19T08:10:22Z</time></trkpt><trkpt lat="41.15630945936289" lon="15.373513400851463"><ele>598.0</ele><time>2026-04-19T08:10:23Z</time></trkpt><trkpt lat="41.15627394511008" lon="15.373378059158192"><ele>596.6</ele><time>2026-04-19T08:10:24Z</time></trkpt><trkpt lat="41.156235857998354" lon="15.373261410672105"><ele>595.1999999999999</ele><time>2026-04-19T08:10:25Z</time></trkpt><trkpt lat="41.15622087776133" lon="15.373095547973472"><ele>593.8</ele><time>2026-04-19T08:10:26Z</time></trkpt><trkpt lat="41.156211153263264" lon="15.37291719313514"><ele>592.4</ele><time>2026-04-19T08:10:27Z</time></trkpt><trkpt lat="41.156191285733186" lon="15.37279724909871"><ele>591.0</ele><time>2026-04-19T08:10:28Z</time></trkpt><trkpt lat="41.15614274597253" lon="15.372650330590968"><ele>590.0</ele><time>2026-04-19T08:10:30Z</time></trkpt><trkpt lat="41.156131652181216" lon="15.37251960850743"><ele>589.0</ele><time>2026-04-19T08:10:32Z</time></trkpt><trkpt lat="41.15624630786104" lon="15.372452830515524"><ele>588.0</ele><time>2026-04-19T08:10:34Z</time></trkpt><trkpt lat="41.156369428327515" lon="15.372390272317615"><ele>587.0</ele><time>2026-04-19T08:10:36Z</time></trkpt><trkpt lat="41.15643205631261" lon="15.372372847515368"><ele>586.0</ele><time>2026-04-19T08:10:37Z</time></trkpt><trkpt lat="41.15652077969065" lon="15.37237212466604"><ele>582.6</ele><time>2026-04-19T08:10:39Z</time></trkpt><trkpt lat="41.15660366621944" lon="15.372353953799479"><ele>579.2</ele><time>2026-04-19T08:10:41Z</time></trkpt><trkpt lat="41.156674467985326" lon="15.37233565465161"><ele>575.8</ele><time>2026-04-19T08:10:43Z</time></trkpt><trkpt lat="41.156719246877266" lon="15.372191770960727"><ele>572.4</ele><time>2026-04-19T08:10:45Z</time></trkpt><trkpt lat="41.15671428333651" lon="15.37205269379213"><ele>569.0</ele><time>2026-04-19T08:10:47Z</time></trkpt><trkpt lat="41.1567063340602" lon="15.371894826139577"><ele>567.2</ele><time>2026-04-19T08:10:49Z</time></trkpt><trkpt lat="41.15670151365981" lon="15.371775731969311"><ele>565.4</ele><time>2026-04-19T08:10:51Z</time></trkpt><trkpt lat="41.15672879310278" lon="15.371631009313733"><ele>563.6</ele><time>2026-04-19T08:10:53Z</time></trkpt><trkpt lat="41.15682832430525" lon="15.37159475081939"><ele>561.8</ele><time>2026-04-19T08:10:55Z</time></trkpt><trkpt lat="41.15689910422125" lon="15.371602144553316"><ele>560.0</ele><time>2026-04-19T08:10:56Z</time></trkpt><trkpt lat="41.15701883802937" lon="15.371616370221346"><ele>560.0</ele><time>2026-04-19T08:10:58Z</time></trkpt><trkpt lat="41.157165715070974" lon="15.371619839035379"><ele>560.0</ele><time>2026-04-19T08:11:00Z</time></trkpt><trkpt lat="41.15726661472161" lon="15.371617010041716"><ele>560.0</ele><time>2026-04-19T08:11:01Z</time></trkpt><trkpt lat="41.157340688352555" lon="15.371636184141462"><ele>560.0</ele><time>2026-04-19T08:11:02Z</time></trkpt><trkpt lat="41.157405954213324" lon="15.371685204207946"><ele>560.0</ele><time>2026-04-19T08:11:03Z</time></trkpt><trkpt lat="41.15747202051067" lon="15.371700055132074"><ele>556.8</ele><time>2026-04-19T08:11:04Z</time></trkpt><trkpt lat="41.15758825805349" lon="15.371694664538818"><ele>553.6</ele><time>2026-04-19T08:11:06Z</time></trkpt><trkpt lat="41.15766484365885" lon="15.371686059056092"><ele>550.4</ele><time>2026-04-19T08:11:08Z</time></trkpt><trkpt lat="41.15776660859502" lon="15.37167136229462"><ele>547.2</ele><time>2026-04-19T08:11:10Z</time></trkpt><trkpt lat="41.15783676733275" lon="15.37166583840645"><ele>544.0</ele><time>2026-04-19T08:11:11Z</time></trkpt><trkpt lat="41.15794835281739" lon="15.371643183669558"><ele>544.0</ele><time>2026-04-19T08:11:13Z</time></trkpt><trkpt lat="41.158019475949516" lon="15.371617393734905"><ele>544.0</ele><time>2026-04-19T08:11:15Z</time></trkpt><trkpt lat="41.15809454699955" lon="15.37158627595363"><ele>544.0</ele><time>2026-04-19T08:11:17Z</time></trkpt><trkpt lat="41.15817391460059" lon="15.371585786228414"><ele>544.0</ele><time>2026-04-19T08:11:19Z</time></trkpt><trkpt lat="41.15824171668609" lon="15.371565390104287"><ele>544.0</ele><time>2026-04-19T08:11:21Z</time></trkpt><trkpt lat="41.15822577142856" lon="15.371428245882269"><ele>544.0</ele><time>2026-04-19T08:11:23Z</time></trkpt><trkpt lat="41.15819825924136" lon="15.371350005800723"><ele>542.2</ele><time>2026-04-19T08:11:24Z</time></trkpt><trkpt lat="41.158146652794656" lon="15.371245098490252"><ele>540.4</ele><time>2026-04-19T08:11:25Z</time></trkpt><trkpt lat="41.15809199275549" lon="15.371186246067731"><ele>538.6</ele><time>2026-04-19T08:11:26Z</time></trkpt><trkpt lat="41.15803985385012" lon="15.371119874851162"><ele>536.8</ele><time>2026-04-19T08:11:28Z</time></trkpt><trkpt lat="41.15791572386596" lon="15.371083314703498"><ele>535.0</ele><time>2026-04-19T08:11:30Z</time></trkpt><trkpt lat="41.15781004034532" lon="15.371054295892602"><ele>535.0</ele><time>2026-04-19T08:11:31Z</time></trkpt><trkpt lat="41.15767138430528" lon="15.37099351210081"><ele>535.0</ele><time>2026-04-19T08:11:32Z</time></trkpt><trkpt lat="41.15753213446968" lon="15.370928963806646"><ele>535.0</ele><time>2026-04-19T08:11:33Z</time></trkpt><trkpt lat="41.157385131103815" lon="15.370857212048268"><ele>538.25</ele><time>2026-04-19T08:11:34Z</time></trkpt><trkpt lat="41.15723062537083" lon="15.370784626752332"><ele>541.5</ele><time>2026-04-19T08:11:35Z</time></trkpt><trkpt lat="41.15708021253153" lon="15.370710348438513"><ele>544.75</ele><time>2026-04-19T08:11:36Z</time></trkpt><trkpt lat="41.156968929522684" lon="15.370639584927124"><ele>548.0</ele><time>2026-04-19T08:11:37Z</time></trkpt><trkpt lat="41.156895234298986" lon="15.370557579292907"><ele>546.8</ele><time>2026-04-19T08:11:38Z</time></trkpt><trkpt lat="41.15684052814112" lon="15.370477012530332"><ele>545.5999999999999</ele><time>2026-04-19T08:11:39Z</time></trkpt><trkpt lat="41.15677617043105" lon="15.370451391905753"><ele>544.4000000000001</ele><time>2026-04-19T08:11:40Z</time></trkpt><trkpt lat="41.15667157297747" lon="15.370441347956259"><ele>543.2</ele><time>2026-04-19T08:11:41Z</time></trkpt><trkpt lat="41.15654975384158" lon="15.370448180880722"><ele>542.0</ele><time>2026-04-19T08:11:42Z</time></trkpt><trkpt lat="41.15640807738834" lon="15.370452222949194"><ele>546.6666666666666</ele><time>2026-04-19T08:11:43Z</time></trkpt><trkpt lat="41.15623180309179" lon="15.370454990197244"><ele>551.3333333333334</ele><time>2026-04-19T08:11:44Z</time></trkpt><trkpt lat="41.15604952033847" lon="15.370474420762156"><ele>556.0</ele><time>2026-04-19T08:11:45Z</time></trkpt><trkpt lat="41.15590287413054" lon="15.370506769965768"><ele>556.0</ele><time>2026-04-19T08:11:46Z</time></trkpt><trkpt lat="41.155781732284574" lon="15.37052199959741"><ele>556.0</ele><time>2026-04-19T08:11:47Z</time></trkpt><trkpt lat="41.155718663573424" lon="15.370512854400705"><ele>556.0</ele><time>2026-04-19T08:11:48Z</time></trkpt><trkpt lat="41.1557339855612" lon="15.37036163566397"><ele>556.0</ele><time>2026-04-19T08:11:51Z</time></trkpt><trkpt lat="41.15574162653145" lon="15.370254937041892"><ele>556.0</ele><time>2026-04-19T08:11:52Z</time></trkpt><trkpt lat="41.155731646905345" lon="15.370141015354397"><ele>556.0</ele><time>2026-04-19T08:11:53Z</time></trkpt><trkpt lat="41.15572704264793" lon="15.370017591654658"><ele>556.0</ele><time>2026-04-19T08:11:54Z</time></trkpt><trkpt lat="41.155799565511565" lon="15.369917571150168"><ele>556.0</ele><time>2026-04-19T08:11:56Z</time></trkpt><trkpt lat="41.155872500627716" lon="15.369876940812693"><ele>556.0</ele><time>2026-04-19T08:11:57Z</time></trkpt><trkpt lat="41.15599365305902" lon="15.36980117291528"><ele>556.0</ele><time>2026-04-19T08:11:58Z</time></trkpt><trkpt lat="41.15615156663681" lon="15.369716603132279"><ele>556.25</ele><time>2026-04-19T08:11:59Z</time></trkpt><trkpt lat="41.15627567172635" lon="15.369602379264593"><ele>556.5</ele><time>2026-04-19T08:12:00Z</time></trkpt><trkpt lat="41.15638261274634" lon="15.369515825333803"><ele>556.75</ele><time>2026-04-19T08:12:01Z</time></trkpt><trkpt lat="41.15648130462146" lon="15.369459878742749"><ele>557.0</ele><time>2026-04-19T08:12:02Z</time></trkpt><trkpt lat="41.15659266868912" lon="15.36944467228477"><ele>554.2</ele><time>2026-04-19T08:12:03Z</time></trkpt><trkpt lat="41.15671982155023" lon="15.369434517771824"><ele>551.4000000000001</ele><time>2026-04-19T08:12:04Z</time></trkpt><trkpt lat="41.15682241148459" lon="15.369412564558763"><ele>548.5999999999999</ele><time>2026-04-19T08:12:05Z</time></trkpt><trkpt lat="41.15691330155549" lon="15.369400472698546"><ele>545.8</ele><time>2026-04-19T08:12:06Z</time></trkpt><trkpt lat="41.15698095916066" lon="15.369399274222502"><ele>543.0</ele><time>2026-04-19T08:12:07Z</time></trkpt><trkpt lat="41.15711024663747" lon="15.369483076153855"><ele>543.0</ele><time>2026-04-19T08:12:09Z</time></trkpt><trkpt lat="41.157218711141475" lon="15.36952634714083"><ele>543.0</ele><time>2026-04-19T08:12:10Z</time></trkpt><trkpt lat="41.15729501695706" lon="15.36955177581888"><ele>543.0</ele><time>2026-04-19T08:12:11Z</time></trkpt><trkpt lat="41.15738321385522" lon="15.369508581086277"><ele>543.0</ele><time>2026-04-19T08:12:13Z</time></trkpt><trkpt lat="41.15745078051442" lon="15.369355918947166"><ele>543.0</ele><time>2026-04-19T08:12:15Z</time></trkpt><trkpt lat="41.157557705983834" lon="15.36924511586905"><ele>540.1999999999999</ele><time>2026-04-19T08:12:16Z</time></trkpt><trkpt lat="41.157662458067726" lon="15.36915553824206"><ele>537.4</ele><time>2026-04-19T08:12:17Z</time></trkpt><trkpt lat="41.157742335008074" lon="15.369095093648548"><ele>534.5999999999999</ele><time>2026-04-19T08:12:18Z</time></trkpt><trkpt lat="41.157809991304575" lon="15.369062376952682"><ele>531.8</ele><time>2026-04-19T08:12:19Z</time></trkpt><trkpt lat="41.157896422703814" lon="15.369008092111796"><ele>529.0</ele><time>2026-04-19T08:12:21Z</time></trkpt><trkpt lat="41.15795610680331" lon="15.368946766393742"><ele>527.8</ele><time>2026-04-19T08:12:23Z</time></trkpt><trkpt lat="41.15803189165201" lon="15.368792646240236"><ele>526.5999999999999</ele><time>2026-04-19T08:12:25Z</time></trkpt><trkpt lat="41.158109953091056" lon="15.368817488539623"><ele>525.4</ele><time>2026-04-19T08:12:30Z</time></trkpt><trkpt lat="41.158181650136314" lon="15.368756738639426"><ele>524.1999999999999</ele><time>2026-04-19T08:12:32Z</time></trkpt><trkpt lat="41.15823854161917" lon="15.368685865437362"><ele>523.0</ele><time>2026-04-19T08:12:33Z</time></trkpt><trkpt lat="41.15830665911257" lon="15.368616954534636"><ele>523.0</ele><time>2026-04-19T08:12:34Z</time></trkpt><trkpt lat="41.15838495079528" lon="15.3685327289014"><ele>523.0</ele><time>2026-04-19T08:12:35Z</time></trkpt><trkpt lat="41.158464258303056" lon="15.368454435568804"><ele>523.0</ele><time>2026-04-19T08:12:36Z</time></trkpt><trkpt lat="41.15852397026684" lon="15.368388860161957"><ele>523.0</ele><time>2026-04-19T08:12:37Z</time></trkpt><trkpt lat="41.15858619093098" lon="15.368308133349586"><ele>523.0</ele><time>2026-04-19T08:12:38Z</time></trkpt><trkpt lat="41.15866303174149" lon="15.368195232716916"><ele>523.0</ele><time>2026-04-19T08:12:39Z</time></trkpt><trkpt lat="41.15872591354116" lon="15.368088053916418"><ele>523.0</ele><time>2026-04-19T08:12:40Z</time></trkpt><trkpt lat="41.15878245550117" lon="15.367970677231824"><ele>523.0</ele><time>2026-04-19T08:12:41Z</time></trkpt><trkpt lat="41.15883622271744" lon="15.367871625976345"><ele>523.0</ele><time>2026-04-19T08:12:42Z</time></trkpt><trkpt lat="41.158878273317974" lon="15.367805422207317"><ele>523.0</ele><time>2026-04-19T08:12:43Z</time></trkpt><trkpt lat="41.15892980776602" lon="15.367741639816963"><ele>523.0</ele><time>2026-04-19T08:12:45Z</time></trkpt><trkpt lat="41.1589982875688" lon="15.367665562840488"><ele>521.6</ele><time>2026-04-19T08:12:47Z</time></trkpt><trkpt lat="41.159085636036345" lon="15.36757943604686"><ele>520.1999999999999</ele><time>2026-04-19T08:12:49Z</time></trkpt><trkpt lat="41.15917757876445" lon="15.367468582726145"><ele>518.8</ele><time>2026-04-19T08:12:51Z</time></trkpt><trkpt lat="41.15923138393399" lon="15.367418852216888"><ele>517.4</ele><time>2026-04-19T08:12:52Z</time></trkpt><trkpt lat="41.159298580910324" lon="15.367293927842878"><ele>516.0</ele><time>2026-04-19T08:12:54Z</time></trkpt><trkpt lat="41.15934361719809" lon="15.367227005129134"><ele>518.3333333333334</ele><time>2026-04-19T08:12:55Z</time></trkpt><trkpt lat="41.159404363312724" lon="15.367159596496741"><ele>520.6666666666666</ele><time>2026-04-19T08:12:56Z</time></trkpt><trkpt lat="41.1594923032644" lon="15.367060052004478"><ele>523.0</ele><time>2026-04-19T08:12:58Z</time></trkpt><trkpt lat="41.159560782525205" lon="15.367031519859381"><ele>525.3333333333333</ele><time>2026-04-19T08:12:59Z</time></trkpt><trkpt lat="41.15963914122858" lon="15.366999872726376"><ele>527.6666666666666</ele><time>2026-04-19T08:13:00Z</time></trkpt><trkpt lat="41.15970777423139" lon="15.3669517551746"><ele>530.0</ele><time>2026-04-19T08:13:01Z</time></trkpt><trkpt lat="41.15974932596716" lon="15.366883679297437"><ele>530.0</ele><time>2026-04-19T08:13:02Z</time></trkpt><trkpt lat="41.15978906794263" lon="15.366813359506144"><ele>530.0</ele><time>2026-04-19T08:13:03Z</time></trkpt><trkpt lat="41.15984921976644" lon="15.366724448489922"><ele>530.0</ele><time>2026-04-19T08:13:04Z</time></trkpt><trkpt lat="41.15991631561675" lon="15.36662729504644"><ele>530.0</ele><time>2026-04-19T08:13:05Z</time></trkpt><trkpt lat="41.15997461128963" lon="15.36651379701018"><ele>530.0</ele><time>2026-04-19T08:13:06Z</time></trkpt><trkpt lat="41.16001402596985" lon="15.36641622268806"><ele>530.0</ele><time>2026-04-19T08:13:07Z</time></trkpt><trkpt lat="41.16004839374978" lon="15.366311287494232"><ele>528.0</ele><time>2026-04-19T08:13:08Z</time></trkpt><trkpt lat="41.1600915809549" lon="15.366163323552174"><ele>526.0</ele><time>2026-04-19T08:13:09Z</time></trkpt><trkpt lat="41.16014845768713" lon="15.366014940032306"><ele>524.0</ele><time>2026-04-19T08:13:10Z</time></trkpt><trkpt lat="41.16019864447704" lon="15.365900999475981"><ele>522.0</ele><time>2026-04-19T08:13:11Z</time></trkpt><trkpt lat="41.16025414447382" lon="15.365813071339439"><ele>520.0</ele><time>2026-04-19T08:13:12Z</time></trkpt><trkpt lat="41.16030787190837" lon="15.365732996551998"><ele>520.0</ele><time>2026-04-19T08:13:13Z</time></trkpt><trkpt lat="41.16035355617431" lon="15.365644528915958"><ele>520.0</ele><time>2026-04-19T08:13:14Z</time></trkpt><trkpt lat="41.1603956846021" lon="15.365547906303803"><ele>520.0</ele><time>2026-04-19T08:13:15Z</time></trkpt><trkpt lat="41.160423107735845" lon="15.365450716006903"><ele>520.0</ele><time>2026-04-19T08:13:16Z</time></trkpt><trkpt lat="41.160430103519786" lon="15.365336248448559"><ele>520.0</ele><time>2026-04-19T08:13:17Z</time></trkpt><trkpt lat="41.16042629768126" lon="15.365233108823013"><ele>520.0</ele><time>2026-04-19T08:13:18Z</time></trkpt><trkpt lat="41.160395303676815" lon="15.365151554268401"><ele>520.6666666666667</ele><time>2026-04-19T08:13:19Z</time></trkpt><trkpt lat="41.16035659203797" lon="15.365044564860186"><ele>521.3333333333334</ele><time>2026-04-19T08:13:20Z</time></trkpt><trkpt lat="41.16033343357978" lon="15.364957588675813"><ele>522.0</ele><time>2026-04-19T08:13:21Z</time></trkpt><trkpt lat="41.16033717707455" lon="15.364864003826037"><ele>522.6666666666666</ele><time>2026-04-19T08:13:22Z</time></trkpt><trkpt lat="41.160343198950926" lon="15.364770737804022"><ele>523.3333333333333</ele><time>2026-04-19T08:13:23Z</time></trkpt><trkpt lat="41.16032948690969" lon="15.364683920175318"><ele>524.0</ele><time>2026-04-19T08:13:24Z</time></trkpt><trkpt lat="41.160302912084674" lon="15.364557616185731"><ele>524.5</ele><time>2026-04-19T08:13:25Z</time></trkpt><trkpt lat="41.1602993354123" lon="15.364449492979544"><ele>525.0</ele><time>2026-04-19T08:13:26Z</time></trkpt><trkpt lat="41.160324838484264" lon="15.364345546566936"><ele>525.5</ele><time>2026-04-19T08:13:27Z</time></trkpt><trkpt lat="41.16033912339293" lon="15.364242385372163"><ele>526.0</ele><time>2026-04-19T08:13:29Z</time></trkpt><trkpt lat="41.160263964765434" lon="15.364180575415741"><ele>526.5</ele><time>2026-04-19T08:13:31Z</time></trkpt><trkpt lat="41.16018251647244" lon="15.364167912984726"><ele>527.0</ele><time>2026-04-19T08:13:32Z</time></trkpt><trkpt lat="41.16011482875298" lon="15.364134940115076"><ele>527.0</ele><time>2026-04-19T08:13:33Z</time></trkpt><trkpt lat="41.16006547489831" lon="15.364042411100762"><ele>527.0</ele><time>2026-04-19T08:13:43Z</time></trkpt><trkpt lat="41.15997081471438" lon="15.363971581877731"><ele>527.0</ele><time>2026-04-19T08:13:45Z</time></trkpt><trkpt lat="41.159944802358375" lon="15.363885662444032"><ele>527.0</ele><time>2026-04-19T08:13:46Z</time></trkpt><trkpt lat="41.15988279873779" lon="15.363768903388104"><ele>527.0</ele><time>2026-04-19T08:13:49Z</time></trkpt><trkpt lat="41.159857501629375" lon="15.363688109530742"><ele>527.0</ele><time>2026-04-19T08:13:52Z</time></trkpt><trkpt lat="41.15983746370981" lon="15.363607343605922"><ele>528.6666666666666</ele><time>2026-04-19T08:14:16Z</time></trkpt><trkpt lat="41.159857758370826" lon="15.36351122750137"><ele>530.3333333333333</ele><time>2026-04-19T08:14:19Z</time></trkpt><trkpt lat="41.15989441869489" lon="15.36342713020018"><ele>532.0</ele><time>2026-04-19T08:14:33Z</time></trkpt><trkpt lat="41.1598604040596" lon="15.363342077944083"><ele>533.6666666666666</ele><time>2026-04-19T08:14:36Z</time></trkpt><trkpt lat="41.15977184808302" lon="15.363319780955571"><ele>535.3333333333334</ele><time>2026-04-19T08:14:55Z</time></trkpt><trkpt lat="41.159714539282525" lon="15.363247949783778"><ele>537.0</ele><time>2026-04-19T08:14:57Z</time></trkpt><trkpt lat="41.15966718690289" lon="15.363178396644056"><ele>541.2</ele><time>2026-04-19T08:14:59Z</time></trkpt><trkpt lat="41.15958988028439" lon="15.363178237248226"><ele>545.4000000000001</ele><time>2026-04-19T08:15:02Z</time></trkpt><trkpt lat="41.159519555835104" lon="15.363200018099219"><ele>549.5999999999999</ele><time>2026-04-19T08:15:12Z</time></trkpt><trkpt lat="41.15941255555684" lon="15.363139239960592"><ele>553.8</ele><time>2026-04-19T08:15:15Z</time></trkpt><trkpt lat="41.15935286358972" lon="15.363077855123908"><ele>558.0</ele><time>2026-04-19T08:15:16Z</time></trkpt><trkpt lat="41.159294620591275" lon="15.362922464224358"><ele>560.0</ele><time>2026-04-19T08:15:18Z</time></trkpt><trkpt lat="41.159261708885644" lon="15.362823182958017"><ele>562.0</ele><time>2026-04-19T08:15:19Z</time></trkpt><trkpt lat="41.159215599138776" lon="15.362761123333499"><ele>564.0</ele><time>2026-04-19T08:15:20Z</time></trkpt><trkpt lat="41.15916904523633" lon="15.362592218175307"><ele>566.0</ele><time>2026-04-19T08:15:22Z</time></trkpt><trkpt lat="41.15915076949636" lon="15.362479826737978"><ele>568.0</ele><time>2026-04-19T08:15:23Z</time></trkpt><trkpt lat="41.15909632725494" lon="15.362424166145729"><ele>570.0</ele><time>2026-04-19T08:15:24Z</time></trkpt><trkpt lat="41.15900066237597" lon="15.362370314464275"><ele>573.2</ele><time>2026-04-19T08:15:25Z</time></trkpt><trkpt lat="41.15895272047593" lon="15.362290993296265"><ele>576.4</ele><time>2026-04-19T08:15:26Z</time></trkpt><trkpt lat="41.158919914804834" lon="15.362130451349966"><ele>579.6</ele><time>2026-04-19T08:15:28Z</time></trkpt><trkpt lat="41.15885253294106" lon="15.362005356431172"><ele>582.8</ele><time>2026-04-19T08:15:29Z</time></trkpt><trkpt lat="41.15875206972121" lon="15.361905220888804"><ele>586.0</ele><time>2026-04-19T08:15:30Z</time></trkpt><trkpt lat="41.1586707303395" lon="15.361836501402639"><ele>587.6666666666667</ele><time>2026-04-19T08:15:31Z</time></trkpt><trkpt lat="41.15872208177965" lon="15.361752799423499"><ele>589.3333333333334</ele><time>2026-04-19T08:15:34Z</time></trkpt><trkpt lat="41.158778207597" lon="15.361698528401545"><ele>591.0</ele><time>2026-04-19T08:15:35Z</time></trkpt><trkpt lat="41.15881876383272" lon="15.361605835262564"><ele>592.6666666666666</ele><time>2026-04-19T08:15:36Z</time></trkpt><trkpt lat="41.158827055106286" lon="15.361509635256956"><ele>594.3333333333333</ele><time>2026-04-19T08:15:37Z</time></trkpt><trkpt lat="41.15880578658931" lon="15.361402145205362"><ele>596.0</ele><time>2026-04-19T08:15:38Z</time></trkpt><trkpt lat="41.15879197029359" lon="15.361318459557335"><ele>596.0</ele><time>2026-04-19T08:15:39Z</time></trkpt><trkpt lat="41.158696984193845" lon="15.361306452995914"><ele>596.0</ele><time>2026-04-19T08:15:41Z</time></trkpt><trkpt lat="41.15861003664574" lon="15.361322310628198"><ele>596.0</ele><time>2026-04-19T08:15:42Z</time></trkpt><trkpt lat="41.15852780589613" lon="15.361319725395571"><ele>596.0</ele><time>2026-04-19T08:15:43Z</time></trkpt><trkpt lat="41.15846735757651" lon="15.36122043389135"><ele>596.0</ele><time>2026-04-19T08:15:45Z</time></trkpt><trkpt lat="41.15841477255523" lon="15.361115421478397"><ele>596.0</ele><time>2026-04-19T08:15:46Z</time></trkpt><trkpt lat="41.15835197802171" lon="15.361015781947904"><ele>596.0</ele><time>2026-04-19T08:15:47Z</time></trkpt><trkpt lat="41.15827653634863" lon="15.360940265465786"><ele>596.0</ele><time>2026-04-19T08:15:49Z</time></trkpt><trkpt lat="41.15830133224378" lon="15.36085371647311"><ele>596.0</ele><time>2026-04-19T08:15:52Z</time></trkpt><trkpt lat="41.158432193592276" lon="15.360845559900747"><ele>596.0</ele><time>2026-04-19T08:15:54Z</time></trkpt><trkpt lat="41.15854028337547" lon="15.360799510514404"><ele>596.0</ele><time>2026-04-19T08:15:55Z</time></trkpt><trkpt lat="41.158626704682575" lon="15.360748048150814"><ele>596.0</ele><time>2026-04-19T08:15:56Z</time></trkpt><trkpt lat="41.15868875666724" lon="15.36072631984219"><ele>596.0</ele><time>2026-04-19T08:15:57Z</time></trkpt><trkpt lat="41.15876105172192" lon="15.360744495306177"><ele>596.0</ele><time>2026-04-19T08:15:58Z</time></trkpt><trkpt lat="41.15882730135662" lon="15.360767945892958"><ele>596.0</ele><time>2026-04-19T08:15:59Z</time></trkpt><trkpt lat="41.158937444397914" lon="15.360740265869122"><ele>596.0</ele><time>2026-04-19T08:16:01Z</time></trkpt><trkpt lat="41.158997519670294" lon="15.360652658425897"><ele>594.5</ele><time>2026-04-19T08:16:02Z</time></trkpt><trkpt lat="41.15906510658016" lon="15.360579588036513"><ele>593.0</ele><time>2026-04-19T08:16:03Z</time></trkpt><trkpt lat="41.1591428650846" lon="15.360539638602637"><ele>591.5</ele><time>2026-04-19T08:16:04Z</time></trkpt><trkpt lat="41.15922163968884" lon="15.360500797427083"><ele>590.0</ele><time>2026-04-19T08:16:05Z</time></trkpt><trkpt lat="41.159279670799094" lon="15.360462633138285"><ele>588.5</ele><time>2026-04-19T08:16:06Z</time></trkpt><trkpt lat="41.159345716260326" lon="15.360407457198205"><ele>587.0</ele><time>2026-04-19T08:16:07Z</time></trkpt><trkpt lat="41.15942184095639" lon="15.360386161594898"><ele>586.0</ele><time>2026-04-19T08:16:08Z</time></trkpt><trkpt lat="41.15950232889518" lon="15.360357106267506"><ele>585.0</ele><time>2026-04-19T08:16:09Z</time></trkpt><trkpt lat="41.15963142830886" lon="15.360292988868217"><ele>584.0</ele><time>2026-04-19T08:16:10Z</time></trkpt><trkpt lat="41.15974316124692" lon="15.360231091325668"><ele>583.0</ele><time>2026-04-19T08:16:11Z</time></trkpt><trkpt lat="41.159825729476786" lon="15.360188872380888"><ele>582.0</ele><time>2026-04-19T08:16:12Z</time></trkpt><trkpt lat="41.1598957112186" lon="15.360140215284707"><ele>579.4</ele><time>2026-04-19T08:16:13Z</time></trkpt><trkpt lat="41.159961934315845" lon="15.360078113672333"><ele>576.8000000000001</ele><time>2026-04-19T08:16:14Z</time></trkpt><trkpt lat="41.1600201622921" lon="15.359996021383234"><ele>574.2</ele><time>2026-04-19T08:16:15Z</time></trkpt><trkpt lat="41.16008847000116" lon="15.35989409410456"><ele>571.6</ele><time>2026-04-19T08:16:16Z</time></trkpt><trkpt lat="41.16014611443215" lon="15.359844038928154"><ele>569.0</ele><time>2026-04-19T08:16:17Z</time></trkpt><trkpt lat="41.160312565942476" lon="15.359809511598293"><ele>569.0</ele><time>2026-04-19T08:16:19Z</time></trkpt><trkpt lat="41.16040979140381" lon="15.35977714758269"><ele>569.0</ele><time>2026-04-19T08:16:20Z</time></trkpt><trkpt lat="41.16048811522597" lon="15.359716006641847"><ele>569.0</ele><time>2026-04-19T08:16:21Z</time></trkpt><trkpt lat="41.16053648242374" lon="15.35963981841924"><ele>569.0</ele><time>2026-04-19T08:16:22Z</time></trkpt><trkpt lat="41.16060578579001" lon="15.359536401542025"><ele>569.0</ele><time>2026-04-19T08:16:23Z</time></trkpt><trkpt lat="41.16068237652686" lon="15.359431327040742"><ele>564.4</ele><time>2026-04-19T08:16:24Z</time></trkpt><trkpt lat="41.16076135534251" lon="15.359340098063011"><ele>559.8</ele><time>2026-04-19T08:16:25Z</time></trkpt><trkpt lat="41.160836348150376" lon="15.359258721594902"><ele>555.2</ele><time>2026-04-19T08:16:26Z</time></trkpt><trkpt lat="41.16092528824644" lon="15.359186786428246"><ele>550.6</ele><time>2026-04-19T08:16:27Z</time></trkpt><trkpt lat="41.161019989568395" lon="15.359122101030994"><ele>546.0</ele><time>2026-04-19T08:16:28Z</time></trkpt><trkpt lat="41.16109801324453" lon="15.359066832806295"><ele>546.0</ele><time>2026-04-19T08:16:29Z</time></trkpt><trkpt lat="41.161151068658256" lon="15.358923720441107"><ele>546.0</ele><time>2026-04-19T08:16:31Z</time></trkpt><trkpt lat="41.16116468071287" lon="15.358776107789952"><ele>546.0</ele><time>2026-04-19T08:16:32Z</time></trkpt><trkpt lat="41.16117809539782" lon="15.358667912643806"><ele>546.0</ele><time>2026-04-19T08:16:33Z</time></trkpt><trkpt lat="41.161200124536684" lon="15.35856285927987"><ele>546.0</ele><time>2026-04-19T08:16:35Z</time></trkpt><trkpt lat="41.16118893690348" lon="15.358449026748335"><ele>543.8571428571429</ele><time>2026-04-19T08:16:37Z</time></trkpt><trkpt lat="41.16123941144689" lon="15.358398167153988"><ele>541.7142857142858</ele><time>2026-04-19T08:16:38Z</time></trkpt><trkpt lat="41.16122771493881" lon="15.358314110029129"><ele>539.5714285714286</ele><time>2026-04-19T08:16:41Z</time></trkpt><trkpt lat="41.16120559284052" lon="15.358229854788119"><ele>537.4285714285714</ele><time>2026-04-19T08:16:42Z</time></trkpt><trkpt lat="41.16119119691651" lon="15.358137174931127"><ele>535.2857142857143</ele><time>2026-04-19T08:16:43Z</time></trkpt><trkpt lat="41.16117882502591" lon="15.358052128909643"><ele>533.1428571428571</ele><time>2026-04-19T08:16:44Z</time></trkpt><trkpt lat="41.161168314145094" lon="15.357907352684835"><ele>531.0</ele><time>2026-04-19T08:16:46Z</time></trkpt><trkpt lat="41.16117495613698" lon="15.357815280238531"><ele>529.8333333333334</ele><time>2026-04-19T08:16:47Z</time></trkpt><trkpt lat="41.16119947393705" lon="15.357721446158827"><ele>528.6666666666666</ele><time>2026-04-19T08:16:48Z</time></trkpt><trkpt lat="41.161226740720785" lon="15.35763719969934"><ele>527.5</ele><time>2026-04-19T08:16:49Z</time></trkpt><trkpt lat="41.16125536613111" lon="15.357526419427446"><ele>526.3333333333333</ele><time>2026-04-19T08:16:50Z</time></trkpt><trkpt lat="41.16125102218106" lon="15.357416939654298"><ele>525.1666666666666</ele><time>2026-04-19T08:16:51Z</time></trkpt><trkpt lat="41.16125213310537" lon="15.357324896948187"><ele>524.0</ele><time>2026-04-19T08:16:52Z</time></trkpt><trkpt lat="41.16126733425866" lon="15.357166039657704"><ele>524.0</ele><time>2026-04-19T08:16:54Z</time></trkpt><trkpt lat="41.161296146727935" lon="15.357070351987016"><ele>524.0</ele><time>2026-04-19T08:16:56Z</time></trkpt><trkpt lat="41.16131133096972" lon="15.356930358425883"><ele>524.0</ele><time>2026-04-19T08:16:58Z</time></trkpt><trkpt lat="41.16129418778209" lon="15.356768948037843"><ele>524.0</ele><time>2026-04-19T08:17:00Z</time></trkpt><trkpt lat="41.161225023311005" lon="15.356596121055421"><ele>524.0</ele><time>2026-04-19T08:17:02Z</time></trkpt><trkpt lat="41.161183683307684" lon="15.356465269087527"><ele>524.0</ele><time>2026-04-19T08:17:03Z</time></trkpt><trkpt lat="41.16115441211074" lon="15.356363087085548"><ele>524.0</ele><time>2026-04-19T08:17:04Z</time></trkpt><trkpt lat="41.16110360823705" lon="15.35620198322045"><ele>524.0</ele><time>2026-04-19T08:17:06Z</time></trkpt><trkpt lat="41.161049021258115" lon="15.356054344498196"><ele>524.0</ele><time>2026-04-19T08:17:08Z</time></trkpt><trkpt lat="41.16100989374833" lon="15.355966253732483"><ele>524.0</ele><time>2026-04-19T08:17:09Z</time></trkpt><trkpt lat="41.16094338081957" lon="15.35587819308738"><ele>524.0</ele><time>2026-04-19T08:17:10Z</time></trkpt><trkpt lat="41.16088660811662" lon="15.355811424207197"><ele>524.0</ele><time>2026-04-19T08:17:11Z</time></trkpt><trkpt lat="41.16082953392384" lon="15.355739599426045"><ele>524.0</ele><time>2026-04-19T08:17:12Z</time></trkpt><trkpt lat="41.16077691227206" lon="15.3556793332712"><ele>524.0</ele><time>2026-04-19T08:17:13Z</time></trkpt><trkpt lat="41.16069753701727" lon="15.35568339859075"><ele>524.0</ele><time>2026-04-19T08:17:15Z</time></trkpt><trkpt lat="41.16062130173517" lon="15.355842083839484"><ele>527.0</ele><time>2026-04-19T08:17:17Z</time></trkpt><trkpt lat="41.16057966359636" lon="15.35595356287005"><ele>530.0</ele><time>2026-04-19T08:17:18Z</time></trkpt><trkpt lat="41.1605304203135" lon="15.356026503172234"><ele>533.0</ele><time>2026-04-19T08:17:19Z</time></trkpt><trkpt lat="41.160435637343035" lon="15.356016330585282"><ele>536.0</ele><time>2026-04-19T08:17:21Z</time></trkpt><trkpt lat="41.160405747044116" lon="15.355877194433415"><ele>539.0</ele><time>2026-04-19T08:17:23Z</time></trkpt><trkpt lat="41.16037148618855" lon="15.355798158151716"><ele>542.0</ele><time>2026-04-19T08:17:24Z</time></trkpt><trkpt lat="41.16032307874095" lon="15.355714328810597"><ele>542.0</ele><time>2026-04-19T08:17:25Z</time></trkpt><trkpt lat="41.16027671949257" lon="15.355633018744683"><ele>542.0</ele><time>2026-04-19T08:17:26Z</time></trkpt><trkpt lat="41.16023654112285" lon="15.355566761716496"><ele>542.0</ele><time>2026-04-19T08:17:27Z</time></trkpt><trkpt lat="41.16018572878672" lon="15.355490473477076"><ele>542.0</ele><time>2026-04-19T08:17:28Z</time></trkpt><trkpt lat="41.16015204467547" lon="15.355413644714297"><ele>542.0</ele><time>2026-04-19T08:17:29Z</time></trkpt><trkpt lat="41.16011432665807" lon="15.355276450386325"><ele>542.0</ele><time>2026-04-19T08:17:31Z</time></trkpt><trkpt lat="41.16005187945571" lon="15.35524373491335"><ele>542.0</ele><time>2026-04-19T08:17:35Z</time></trkpt><trkpt lat="41.159989978001164" lon="15.355225381340649"><ele>542.0</ele><time>2026-04-19T08:17:36Z</time></trkpt><trkpt lat="41.159951427608114" lon="15.355085066045103"><ele>542.0</ele><time>2026-04-19T08:17:38Z</time></trkpt><trkpt lat="41.159936809055964" lon="15.354982034000034"><ele>542.0</ele><time>2026-04-19T08:17:39Z</time></trkpt><trkpt lat="41.15992160907445" lon="15.35489670586684"><ele>542.0</ele><time>2026-04-19T08:17:40Z</time></trkpt><trkpt lat="41.15988090122405" lon="15.354788552969291"><ele>542.0</ele><time>2026-04-19T08:17:42Z</time></trkpt><trkpt lat="41.15975986909775" lon="15.354717488536503"><ele>543.2</ele><time>2026-04-19T08:17:44Z</time></trkpt><trkpt lat="41.15969784144482" lon="15.354686238530391"><ele>544.4000000000001</ele><time>2026-04-19T08:17:45Z</time></trkpt><trkpt lat="41.15963003021507" lon="15.354639135109517"><ele>545.5999999999999</ele><time>2026-04-19T08:17:46Z</time></trkpt><trkpt lat="41.15956613354701" lon="15.354575440681659"><ele>546.8</ele><time>2026-04-19T08:17:47Z</time></trkpt><trkpt lat="41.15946596585088" lon="15.354507965088361"><ele>548.0</ele><time>2026-04-19T08:17:48Z</time></trkpt><trkpt lat="41.159349045616864" lon="15.354425154330366"><ele>548.0</ele><time>2026-04-19T08:17:49Z</time></trkpt><trkpt lat="41.15930261687863" lon="15.354367563722032"><ele>548.0</ele><time>2026-04-19T08:17:50Z</time></trkpt><trkpt lat="41.15926984748855" lon="15.354235803954435"><ele>548.0</ele><time>2026-04-19T08:17:53Z</time></trkpt><trkpt lat="41.15923062590825" lon="15.354154448472825"><ele>548.0</ele><time>2026-04-19T08:17:55Z</time></trkpt><trkpt lat="41.159150265758036" lon="15.354017471323449"><ele>548.0</ele><time>2026-04-19T08:17:57Z</time></trkpt><trkpt lat="41.159071174198495" lon="15.353912736331592"><ele>549.3333333333333</ele><time>2026-04-19T08:17:59Z</time></trkpt><trkpt lat="41.158989173418696" lon="15.353874936080329"><ele>550.6666666666666</ele><time>2026-04-19T08:18:01Z</time></trkpt><trkpt lat="41.15891227068537" lon="15.353818423101274"><ele>552.0</ele><time>2026-04-19T08:18:03Z</time></trkpt><trkpt lat="41.158874183806034" lon="15.35374629628357"><ele>553.3333333333334</ele><time>2026-04-19T08:18:04Z</time></trkpt><trkpt lat="41.158787352696805" lon="15.35364621545463"><ele>554.6666666666667</ele><time>2026-04-19T08:18:06Z</time></trkpt><trkpt lat="41.15871337558021" lon="15.353625538227208"><ele>556.0</ele><time>2026-04-19T08:18:07Z</time></trkpt><trkpt lat="41.15875094063485" lon="15.353503980395553"><ele>556.0</ele><time>2026-04-19T08:18:10Z</time></trkpt><trkpt lat="41.15873951435736" lon="15.353383699297131"><ele>556.0</ele><time>2026-04-19T08:18:11Z</time></trkpt><trkpt lat="41.158732958429475" lon="15.353249502016212"><ele>556.0</ele><time>2026-04-19T08:18:12Z</time></trkpt><trkpt lat="41.15872894702025" lon="15.353135738452398"><ele>556.0</ele><time>2026-04-19T08:18:13Z</time></trkpt><trkpt lat="41.158759729817675" lon="15.353046155330656"><ele>556.0</ele><time>2026-04-19T08:18:14Z</time></trkpt><trkpt lat="41.15876128676487" lon="15.352952685351596"><ele>556.0</ele><time>2026-04-19T08:18:15Z</time></trkpt><trkpt lat="41.158784615352566" lon="15.352850086230536"><ele>556.0</ele><time>2026-04-19T08:18:16Z</time></trkpt><trkpt lat="41.158804304400704" lon="15.352750907748396"><ele>556.0</ele><time>2026-04-19T08:18:17Z</time></trkpt><trkpt lat="41.15884013212567" lon="15.35261108651379"><ele>556.0</ele><time>2026-04-19T08:18:19Z</time></trkpt><trkpt lat="41.158870593855" lon="15.35247983875066"><ele>556.0</ele><time>2026-04-19T08:18:21Z</time></trkpt><trkpt lat="41.158899273211496" lon="15.352379076533303"><ele>556.0</ele><time>2026-04-19T08:18:23Z</time></trkpt><trkpt lat="41.15892117340485" lon="15.352270941365322"><ele>555.5714285714286</ele><time>2026-04-19T08:18:26Z</time></trkpt><trkpt lat="41.15894631679012" lon="15.352171344930493"><ele>555.1428571428571</ele><time>2026-04-19T08:18:28Z</time></trkpt><trkpt lat="41.158980187046254" lon="15.35209208334515"><ele>554.7142857142858</ele><time>2026-04-19T08:18:29Z</time></trkpt><trkpt lat="41.15900120592419" lon="15.35200704458945"><ele>554.2857142857142</ele><time>2026-04-19T08:18:30Z</time></trkpt><trkpt lat="41.159027799038256" lon="15.351900782218054"><ele>553.8571428571429</ele><time>2026-04-19T08:18:32Z</time></trkpt><trkpt lat="41.15905159650699" lon="15.35180858280598"><ele>553.4285714285714</ele><time>2026-04-19T08:18:34Z</time></trkpt><trkpt lat="41.1590743225769" lon="15.351720533915529"><ele>553.0</ele><time>2026-04-19T08:18:37Z</time></trkpt><trkpt lat="41.15891902289002" lon="15.351637875726404"><ele>553.0</ele><time>2026-04-19T08:18:45Z</time></trkpt><trkpt lat="41.158837117143584" lon="15.351575801708567"><ele>553.0</ele><time>2026-04-19T08:18:46Z</time></trkpt><trkpt lat="41.15872788173103" lon="15.351509325553742"><ele>553.0</ele><time>2026-04-19T08:18:47Z</time></trkpt><trkpt lat="41.15861140966104" lon="15.351469762427797"><ele>553.0</ele><time>2026-04-19T08:18:48Z</time></trkpt><trkpt lat="41.15848990660372" lon="15.351439419129358"><ele>553.0</ele><time>2026-04-19T08:18:49Z</time></trkpt><trkpt lat="41.158401078358324" lon="15.351410287544915"><ele>553.0</ele><time>2026-04-19T08:18:50Z</time></trkpt><trkpt lat="41.15832467278417" lon="15.351422885726416"><ele>553.0</ele><time>2026-04-19T08:18:50.999Z</time></trkpt><trkpt lat="41.158222663180624" lon="15.351473224024424"><ele>553.0</ele><time>2026-04-19T08:18:51.999Z</time></trkpt><trkpt lat="41.15813467779988" lon="15.351539786905565"><ele>553.0</ele><time>2026-04-19T08:18:52.999Z</time></trkpt><trkpt lat="41.158037984364235" lon="15.351572046210439"><ele>556.5</ele><time>2026-04-19T08:18:53.999Z</time></trkpt><trkpt lat="41.15791160385387" lon="15.351592909952258"><ele>560.0</ele><time>2026-04-19T08:18:54.999Z</time></trkpt><trkpt lat="41.15780163898957" lon="15.35160868381564"><ele>563.5</ele><time>2026-04-19T08:18:55.999Z</time></trkpt><trkpt lat="41.157714923067815" lon="15.351656457878894"><ele>567.0</ele><time>2026-04-19T08:18:56.999Z</time></trkpt><trkpt lat="41.15759320092311" lon="15.351723002267475"><ele>567.0</ele><time>2026-04-19T08:18:57.999Z</time></trkpt><trkpt lat="41.15747841721724" lon="15.351787830672274"><ele>567.0</ele><time>2026-04-19T08:18:58.999Z</time></trkpt><trkpt lat="41.157407968173686" lon="15.35183532806057"><ele>567.0</ele><time>2026-04-19T08:19:00Z</time></trkpt><trkpt lat="41.157345059502624" lon="15.351863620934553"><ele>567.0</ele><time>2026-04-19T08:19:01Z</time></trkpt><trkpt lat="41.15727835779272" lon="15.351901326929703"><ele>567.0</ele><time>2026-04-19T08:19:02Z</time></trkpt><trkpt lat="41.157190986728935" lon="15.351955991238292"><ele>567.0</ele><time>2026-04-19T08:19:03Z</time></trkpt><trkpt lat="41.1570730509573" lon="15.352032611227326"><ele>568.2</ele><time>2026-04-19T08:19:04Z</time></trkpt><trkpt lat="41.15698235962809" lon="15.352093711487436"><ele>569.4000000000001</ele><time>2026-04-19T08:19:05Z</time></trkpt><trkpt lat="41.15689555413165" lon="15.3521561787439"><ele>570.5999999999999</ele><time>2026-04-19T08:19:06Z</time></trkpt><trkpt lat="41.156805814133214" lon="15.352234267415568"><ele>571.8</ele><time>2026-04-19T08:19:07Z</time></trkpt><trkpt lat="41.15671747639225" lon="15.352312957591877"><ele>573.0</ele><time>2026-04-19T08:19:08Z</time></trkpt><trkpt lat="41.15660355040873" lon="15.35240188364706"><ele>582.0</ele><time>2026-04-19T08:19:09Z</time></trkpt><trkpt lat="41.156464564840206" lon="15.352517822039328"><ele>591.0</ele><time>2026-04-19T08:19:10Z</time></trkpt><trkpt lat="41.15634179029688" lon="15.352641895091471"><ele>600.0</ele><time>2026-04-19T08:19:11Z</time></trkpt><trkpt lat="41.15623527465101" lon="15.352761458406025"><ele>600.0</ele><time>2026-04-19T08:19:12Z</time></trkpt><trkpt lat="41.156128245669144" lon="15.352858686060214"><ele>600.0</ele><time>2026-04-19T08:19:13Z</time></trkpt><trkpt lat="41.15601955318278" lon="15.352929217477252"><ele>600.0</ele><time>2026-04-19T08:19:14Z</time></trkpt><trkpt lat="41.15592017872309" lon="15.35297847676141"><ele>600.0</ele><time>2026-04-19T08:19:15Z</time></trkpt><trkpt lat="41.15583339192989" lon="15.352992028769677"><ele>600.0</ele><time>2026-04-19T08:19:16Z</time></trkpt><trkpt lat="41.155759344944144" lon="15.352993722428575"><ele>601.4</ele><time>2026-04-19T08:19:17Z</time></trkpt><trkpt lat="41.15566420397766" lon="15.353008251083693"><ele>602.8</ele><time>2026-04-19T08:19:18Z</time></trkpt><trkpt lat="41.15556340105584" lon="15.353053323208153"><ele>604.2</ele><time>2026-04-19T08:19:19Z</time></trkpt><trkpt lat="41.155481972571735" lon="15.353130426375785"><ele>605.6</ele><time>2026-04-19T08:19:20Z</time></trkpt><trkpt lat="41.15541358523089" lon="15.353250498330514"><ele>607.0</ele><time>2026-04-19T08:19:21Z</time></trkpt><trkpt lat="41.15533423685838" lon="15.353378886306675"><ele>608.8000000000001</ele><time>2026-04-19T08:19:22Z</time></trkpt><trkpt lat="41.15527054973176" lon="15.353444567948644"><ele>610.6</ele><time>2026-04-19T08:19:23Z</time></trkpt><trkpt lat="41.15519566030902" lon="15.353480058403257"><ele>612.4000000000001</ele><time>2026-04-19T08:19:24Z</time></trkpt><trkpt lat="41.15509397320641" lon="15.353552566971102"><ele>614.2</ele><time>2026-04-19T08:19:25Z</time></trkpt><trkpt lat="41.15497729598188" lon="15.35365520320511"><ele>616.0</ele><time>2026-04-19T08:19:26Z</time></trkpt><trkpt lat="41.15485539638375" lon="15.35374167869389"><ele>616.3333333333334</ele><time>2026-04-19T08:19:27Z</time></trkpt><trkpt lat="41.154752572598596" lon="15.353804610528988"><ele>616.6666666666667</ele><time>2026-04-19T08:19:28Z</time></trkpt><trkpt lat="41.15466270469422" lon="15.353848336796048"><ele>617.0</ele><time>2026-04-19T08:19:29Z</time></trkpt><trkpt lat="41.15459519337244" lon="15.353900932982029"><ele>617.3333333333334</ele><time>2026-04-19T08:19:30Z</time></trkpt><trkpt lat="41.154548827888206" lon="15.353961152043032"><ele>617.6666666666666</ele><time>2026-04-19T08:19:31Z</time></trkpt><trkpt lat="41.15448874168653" lon="15.354024988392236"><ele>618.0</ele><time>2026-04-19T08:19:32Z</time></trkpt><trkpt lat="41.1543995173469" lon="15.354065543417619"><ele>619.1666666666666</ele><time>2026-04-19T08:19:34Z</time></trkpt><trkpt lat="41.154330982497655" lon="15.35409375236849"><ele>620.3333333333334</ele><time>2026-04-19T08:19:35Z</time></trkpt><trkpt lat="41.15425578553706" lon="15.35413487448517"><ele>621.5</ele><time>2026-04-19T08:19:36Z</time></trkpt><trkpt lat="41.15417144959499" lon="15.354179923979391"><ele>622.6666666666667</ele><time>2026-04-19T08:19:37Z</time></trkpt><trkpt lat="41.154086291949845" lon="15.354233094544222"><ele>623.8333333333334</ele><time>2026-04-19T08:19:38Z</time></trkpt><trkpt lat="41.15400029235161" lon="15.354294066328267"><ele>625.0</ele><time>2026-04-19T08:19:39Z</time></trkpt><trkpt lat="41.15388976066837" lon="15.354362151201217"><ele>626.75</ele><time>2026-04-19T08:19:40Z</time></trkpt><trkpt lat="41.15377133529568" lon="15.354430227719316"><ele>628.5</ele><time>2026-04-19T08:19:41Z</time></trkpt><trkpt lat="41.15366027112967" lon="15.354496967859008"><ele>630.25</ele><time>2026-04-19T08:19:42Z</time></trkpt><trkpt lat="41.153558810054" lon="15.35456711456167"><ele>632.0</ele><time>2026-04-19T08:19:43Z</time></trkpt><trkpt lat="41.15346110305746" lon="15.35464374986452"><ele>634.5</ele><time>2026-04-19T08:19:44Z</time></trkpt><trkpt lat="41.15335807983883" lon="15.354712401966948"><ele>637.0</ele><time>2026-04-19T08:19:45Z</time></trkpt><trkpt lat="41.15324952310387" lon="15.35479577300435"><ele>639.5</ele><time>2026-04-19T08:19:46Z</time></trkpt><trkpt lat="41.153115670632076" lon="15.354902859532066"><ele>642.0</ele><time>2026-04-19T08:19:47Z</time></trkpt><trkpt lat="41.15297916445269" lon="15.355017196260484"><ele>643.4000000000001</ele><time>2026-04-19T08:19:48Z</time></trkpt><trkpt lat="41.15288182319045" lon="15.355089591162043"><ele>644.8000000000001</ele><time>2026-04-19T08:19:49Z</time></trkpt><trkpt lat="41.15280361989154" lon="15.355124541893211"><ele>646.2</ele><time>2026-04-19T08:19:50Z</time></trkpt><trkpt lat="41.15271530742596" lon="15.355152779455809"><ele>647.6</ele><time>2026-04-19T08:19:51Z</time></trkpt><trkpt lat="41.15261107739466" lon="15.355167109433502"><ele>649.0</ele><time>2026-04-19T08:19:52Z</time></trkpt><trkpt lat="41.15254378017774" lon="15.355159695133047"><ele>649.0</ele><time>2026-04-19T08:19:53Z</time></trkpt><trkpt lat="41.152465078853865" lon="15.355218950655198"><ele>649.0</ele><time>2026-04-19T08:19:54Z</time></trkpt><trkpt lat="41.15236265788294" lon="15.355293412203793"><ele>649.0</ele><time>2026-04-19T08:19:55Z</time></trkpt><trkpt lat="41.1522389175253" lon="15.3553467573448"><ele>649.0</ele><time>2026-04-19T08:19:56Z</time></trkpt><trkpt lat="41.15211467692513" lon="15.355371611173348"><ele>649.6</ele><time>2026-04-19T08:19:57Z</time></trkpt><trkpt lat="41.15198153584817" lon="15.355397063279792"><ele>650.2</ele><time>2026-04-19T08:19:58Z</time></trkpt><trkpt lat="41.151874002883694" lon="15.355430180494835"><ele>650.8000000000001</ele><time>2026-04-19T08:19:59Z</time></trkpt><trkpt lat="41.15178405797576" lon="15.355448743193831"><ele>651.4000000000001</ele><time>2026-04-19T08:20:00Z</time></trkpt><trkpt lat="41.15170834258356" lon="15.3554861311117"><ele>652.0</ele><time>2026-04-19T08:20:01Z</time></trkpt><trkpt lat="41.15162504775828" lon="15.35553971463532"><ele>655.5</ele><time>2026-04-19T08:20:02Z</time></trkpt><trkpt lat="41.15152739716606" lon="15.35564141041257"><ele>659.0</ele><time>2026-04-19T08:20:03Z</time></trkpt><trkpt lat="41.15143456596364" lon="15.355747176565819"><ele>662.5</ele><time>2026-04-19T08:20:04Z</time></trkpt><trkpt lat="41.15133218544925" lon="15.35583820349875"><ele>666.0</ele><time>2026-04-19T08:20:05Z</time></trkpt><trkpt lat="41.1512325430493" lon="15.355922406698634"><ele>666.0</ele><time>2026-04-19T08:20:06Z</time></trkpt><trkpt lat="41.15113407289417" lon="15.356007300502657"><ele>666.0</ele><time>2026-04-19T08:20:07Z</time></trkpt><trkpt lat="41.15105729924944" lon="15.35608617963941"><ele>666.0</ele><time>2026-04-19T08:20:08Z</time></trkpt><trkpt lat="41.1509645088331" lon="15.35615142971056"><ele>666.0</ele><time>2026-04-19T08:20:09Z</time></trkpt><trkpt lat="41.15087476351188" lon="15.356201925964555"><ele>666.0</ele><time>2026-04-19T08:20:10Z</time></trkpt><trkpt lat="41.150798138697915" lon="15.356269211683147"><ele>666.0</ele><time>2026-04-19T08:20:11Z</time></trkpt><trkpt lat="41.15074058972155" lon="15.35635392579592"><ele>666.0</ele><time>2026-04-19T08:20:12Z</time></trkpt><trkpt lat="41.15069947642188" lon="15.3564222154289"><ele>666.0</ele><time>2026-04-19T08:20:13Z</time></trkpt><trkpt lat="41.150598689843726" lon="15.356443284989819"><ele>666.0</ele><time>2026-04-19T08:20:15Z</time></trkpt><trkpt lat="41.15051792702526" lon="15.356457173584063"><ele>666.0</ele><time>2026-04-19T08:20:18Z</time></trkpt><trkpt lat="41.150520819428905" lon="15.356604191031334"><ele>666.0</ele><time>2026-04-19T08:20:21Z</time></trkpt><trkpt lat="41.150579339731244" lon="15.356710185978294"><ele>665.4</ele><time>2026-04-19T08:20:22Z</time></trkpt><trkpt lat="41.15062498848109" lon="15.35681421429517"><ele>664.8</ele><time>2026-04-19T08:20:23Z</time></trkpt><trkpt lat="41.15064638524558" lon="15.356915205708868"><ele>664.1999999999999</ele><time>2026-04-19T08:20:24Z</time></trkpt><trkpt lat="41.15066263460815" lon="15.357026799382576"><ele>663.5999999999999</ele><time>2026-04-19T08:20:25Z</time></trkpt><trkpt lat="41.15067901860232" lon="15.357172554859424"><ele>663.0</ele><time>2026-04-19T08:20:26Z</time></trkpt><trkpt lat="41.150676014281565" lon="15.357350576368912"><ele>665.0</ele><time>2026-04-19T08:20:27Z</time></trkpt><trkpt lat="41.15064390477522" lon="15.35754440138299"><ele>667.0</ele><time>2026-04-19T08:20:28Z</time></trkpt><trkpt lat="41.15058555066736" lon="15.357760830531316"><ele>669.0</ele><time>2026-04-19T08:20:29Z</time></trkpt><trkpt lat="41.15050488845838" lon="15.357954245870099"><ele>669.6666666666666</ele><time>2026-04-19T08:20:30Z</time></trkpt><trkpt lat="41.150418140714585" lon="15.35810083170372"><ele>670.3333333333333</ele><time>2026-04-19T08:20:31Z</time></trkpt><trkpt lat="41.15030029707922" lon="15.358224924647985"><ele>671.0</ele><time>2026-04-19T08:20:32Z</time></trkpt><trkpt lat="41.15015418886067" lon="15.358364857021387"><ele>671.0</ele><time>2026-04-19T08:20:33Z</time></trkpt><trkpt lat="41.1500319644588" lon="15.35849872310673"><ele>671.0</ele><time>2026-04-19T08:20:34Z</time></trkpt><trkpt lat="41.14993481846784" lon="15.358627018869129"><ele>671.0</ele><time>2026-04-19T08:20:35Z</time></trkpt><trkpt lat="41.14987824249973" lon="15.358756582097453"><ele>671.0</ele><time>2026-04-19T08:20:36Z</time></trkpt><trkpt lat="41.14983597336317" lon="15.358906781225622"><ele>671.4</ele><time>2026-04-19T08:20:37Z</time></trkpt><trkpt lat="41.14980836322281" lon="15.359066840745985"><ele>671.8</ele><time>2026-04-19T08:20:38Z</time></trkpt><trkpt lat="41.1498076721279" lon="15.359198207879418"><ele>672.1999999999999</ele><time>2026-04-19T08:20:39Z</time></trkpt><trkpt lat="41.14981923462635" lon="15.359320266978273"><ele>672.5999999999999</ele><time>2026-04-19T08:20:40Z</time></trkpt><trkpt lat="41.14986328590212" lon="15.359462089096569"><ele>673.0</ele><time>2026-04-19T08:20:41Z</time></trkpt><trkpt lat="41.14992393555768" lon="15.359624165755626"><ele>672.75</ele><time>2026-04-19T08:20:42Z</time></trkpt><trkpt lat="41.14994882240056" lon="15.359770456210022"><ele>672.5</ele><time>2026-04-19T08:20:43Z</time></trkpt><trkpt lat="41.14992472810423" lon="15.359934667788833"><ele>672.25</ele><time>2026-04-19T08:20:43.999Z</time></trkpt><trkpt lat="41.14987002504278" lon="15.36008006130069"><ele>672.0</ele><time>2026-04-19T08:20:44.999Z</time></trkpt><trkpt lat="41.149814188254545" lon="15.360192265277622"><ele>671.3333333333334</ele><time>2026-04-19T08:20:45.999Z</time></trkpt><trkpt lat="41.14977861337657" lon="15.360288992042843"><ele>670.6666666666666</ele><time>2026-04-19T08:20:46.999Z</time></trkpt><trkpt lat="41.14975755004095" lon="15.360383261859948"><ele>670.0</ele><time>2026-04-19T08:20:47.999Z</time></trkpt><trkpt lat="41.149736439822725" lon="15.360509140760241"><ele>669.3333333333333</ele><time>2026-04-19T08:20:48.999Z</time></trkpt><trkpt lat="41.149718463983824" lon="15.360650497289265"><ele>668.6666666666666</ele><time>2026-04-19T08:20:49.999Z</time></trkpt><trkpt lat="41.14971402966383" lon="15.360738161220876"><ele>668.0</ele><time>2026-04-19T08:20:50.999Z</time></trkpt><trkpt lat="41.14983365239806" lon="15.36085324212336"><ele>669.4</ele><time>2026-04-19T08:20:52.999Z</time></trkpt><trkpt lat="41.14992601493374" lon="15.360915928436587"><ele>670.8</ele><time>2026-04-19T08:20:53.999Z</time></trkpt><trkpt lat="41.14996601080068" lon="15.360993218086039"><ele>672.2</ele><time>2026-04-19T08:20:54.999Z</time></trkpt><trkpt lat="41.14996999317123" lon="15.361126859010428"><ele>673.6</ele><time>2026-04-19T08:20:55.999Z</time></trkpt><trkpt lat="41.149980611302084" lon="15.36129390828424"><ele>675.0</ele><time>2026-04-19T08:20:56.999Z</time></trkpt><trkpt lat="41.149976243158726" lon="15.361492858493854"><ele>676.25</ele><time>2026-04-19T08:20:57.999Z</time></trkpt><trkpt lat="41.14996820885037" lon="15.361659475531448"><ele>677.5</ele><time>2026-04-19T08:20:58.999Z</time></trkpt><trkpt lat="41.14997963811462" lon="15.361778993184862"><ele>678.75</ele><time>2026-04-19T08:20:59.999Z</time></trkpt><trkpt lat="41.15002471729336" lon="15.36193690723661"><ele>680.0</ele><time>2026-04-19T08:21:00.999Z</time></trkpt><trkpt lat="41.150101109511866" lon="15.362171692917867"><ele>682.6666666666666</ele><time>2026-04-19T08:21:01.999Z</time></trkpt><trkpt lat="41.15017974234832" lon="15.362418233861039"><ele>685.3333333333334</ele><time>2026-04-19T08:21:02.999Z</time></trkpt><trkpt lat="41.15024342826315" lon="15.362603402194026"><ele>688.0</ele><time>2026-04-19T08:21:03.999Z</time></trkpt><trkpt lat="41.15028365489778" lon="15.362723840360147"><ele>688.0</ele><time>2026-04-19T08:21:05Z</time></trkpt><trkpt lat="41.150215183270355" lon="15.362771305534176"><ele>688.0</ele><time>2026-04-19T08:21:14Z</time></trkpt><trkpt lat="41.150124875732956" lon="15.36277889095616"><ele>688.0</ele><time>2026-04-19T08:21:15Z</time></trkpt><trkpt lat="41.15001374507249" lon="15.362770910117586"><ele>688.0</ele><time>2026-04-19T08:21:16Z</time></trkpt><trkpt lat="41.149897992559225" lon="15.362743820172444"><ele>688.0</ele><time>2026-04-19T08:21:17Z</time></trkpt><trkpt lat="41.14978882067581" lon="15.36271542747798"><ele>685.75</ele><time>2026-04-19T08:21:18Z</time></trkpt><trkpt lat="41.149663519312526" lon="15.362687533696398"><ele>683.5</ele><time>2026-04-19T08:21:19Z</time></trkpt><trkpt lat="41.149519234471065" lon="15.362704115510708"><ele>681.25</ele><time>2026-04-19T08:21:20Z</time></trkpt><trkpt lat="41.14938555770324" lon="15.362733483949894"><ele>679.0</ele><time>2026-04-19T08:21:21Z</time></trkpt><trkpt lat="41.149251948500535" lon="15.362737636955163"><ele>679.0</ele><time>2026-04-19T08:21:22Z</time></trkpt><trkpt lat="41.14911355495183" lon="15.362734238744197"><ele>679.0</ele><time>2026-04-19T08:21:23Z</time></trkpt><trkpt lat="41.1489803621168" lon="15.362737985402541"><ele>679.0</ele><time>2026-04-19T08:21:24Z</time></trkpt><trkpt lat="41.14884951766331" lon="15.362760244187507"><ele>679.0</ele><time>2026-04-19T08:21:25Z</time></trkpt><trkpt lat="41.14871412501206" lon="15.362786949871305"><ele>675.8000000000001</ele><time>2026-04-19T08:21:26Z</time></trkpt><trkpt lat="41.148597680165786" lon="15.36279307705802"><ele>672.6</ele><time>2026-04-19T08:21:27Z</time></trkpt><trkpt lat="41.14848898228809" lon="15.362803938898175"><ele>669.4</ele><time>2026-04-19T08:21:28Z</time></trkpt><trkpt lat="41.14838715937961" lon="15.362815317358889"><ele>666.2</ele><time>2026-04-19T08:21:29Z</time></trkpt><trkpt lat="41.14828127651364" lon="15.362807797025917"><ele>663.0</ele><time>2026-04-19T08:21:30Z</time></trkpt><trkpt lat="41.1481693605109" lon="15.362805027749381"><ele>658.5</ele><time>2026-04-19T08:21:31Z</time></trkpt><trkpt lat="41.148059545703724" lon="15.362804175005778"><ele>654.0</ele><time>2026-04-19T08:21:32Z</time></trkpt><trkpt lat="41.14795281034248" lon="15.36280541796793"><ele>649.5</ele><time>2026-04-19T08:21:33Z</time></trkpt><trkpt lat="41.14783667351607" lon="15.362804168900654"><ele>645.0</ele><time>2026-04-19T08:21:34Z</time></trkpt><trkpt lat="41.14770413619831" lon="15.362760730107064"><ele>645.0</ele><time>2026-04-19T08:21:35Z</time></trkpt><trkpt lat="41.147528906877554" lon="15.362672740026738"><ele>645.0</ele><time>2026-04-19T08:21:36Z</time></trkpt><trkpt lat="41.1473883556922" lon="15.362624059613594"><ele>645.0</ele><time>2026-04-19T08:21:37Z</time></trkpt><trkpt lat="41.14727145031097" lon="15.362583205512653"><ele>641.25</ele><time>2026-04-19T08:21:38Z</time></trkpt><trkpt lat="41.147164749709134" lon="15.362542532675693"><ele>637.5</ele><time>2026-04-19T08:21:39Z</time></trkpt><trkpt lat="41.147044658449545" lon="15.362495682274787"><ele>633.75</ele><time>2026-04-19T08:21:40Z</time></trkpt><trkpt lat="41.146906550150646" lon="15.362443270106379"><ele>630.0</ele><time>2026-04-19T08:21:41Z</time></trkpt><trkpt lat="41.14675814065648" lon="15.362385676332051"><ele>630.0</ele><time>2026-04-19T08:21:42Z</time></trkpt><trkpt lat="41.14659646815248" lon="15.362365041214364"><ele>630.0</ele><time>2026-04-19T08:21:43Z</time></trkpt><trkpt lat="41.146475296048244" lon="15.362333852734467"><ele>630.0</ele><time>2026-04-19T08:21:44Z</time></trkpt><trkpt lat="41.146390654575974" lon="15.36230309571897"><ele>630.0</ele><time>2026-04-19T08:21:45Z</time></trkpt><trkpt lat="41.14629379222085" lon="15.362279600654048"><ele>625.25</ele><time>2026-04-19T08:21:47Z</time></trkpt><trkpt lat="41.14621710334985" lon="15.362464677645784"><ele>620.5</ele><time>2026-04-19T08:21:49Z</time></trkpt><trkpt lat="41.14617239499135" lon="15.362625542761746"><ele>615.75</ele><time>2026-04-19T08:21:50Z</time></trkpt><trkpt lat="41.146128139630456" lon="15.362784938283095"><ele>611.0</ele><time>2026-04-19T08:21:51Z</time></trkpt><trkpt lat="41.14608998998946" lon="15.362922243024581"><ele>610.4</ele><time>2026-04-19T08:21:52Z</time></trkpt><trkpt lat="41.146075854856946" lon="15.363047598478145"><ele>609.8</ele><time>2026-04-19T08:21:53Z</time></trkpt><trkpt lat="41.1460774841361" lon="15.363203078711914"><ele>609.1999999999999</ele><time>2026-04-19T08:21:54Z</time></trkpt><trkpt lat="41.14608709688368" lon="15.363362124996591"><ele>608.6</ele><time>2026-04-19T08:21:55Z</time></trkpt><trkpt lat="41.14608977688577" lon="15.363503607582885"><ele>608.0</ele><time>2026-04-19T08:21:56Z</time></trkpt><trkpt lat="41.14607108492249" lon="15.363608501435754"><ele>608.0</ele><time>2026-04-19T08:21:57Z</time></trkpt><trkpt lat="41.146056456035325" lon="15.363695675246873"><ele>608.0</ele><time>2026-04-19T08:21:58Z</time></trkpt><trkpt lat="41.14602744844754" lon="15.363791847329205"><ele>608.0</ele><time>2026-04-19T08:22:00Z</time></trkpt><trkpt lat="41.14594736541593" lon="15.363707835126439"><ele>608.0</ele><time>2026-04-19T08:22:03Z</time></trkpt><trkpt lat="41.145890700680326" lon="15.363594834581342"><ele>608.0</ele><time>2026-04-19T08:22:04Z</time></trkpt><trkpt lat="41.14582057128619" lon="15.363457459293114"><ele>608.0</ele><time>2026-04-19T08:22:05Z</time></trkpt><trkpt lat="41.14576682889816" lon="15.363350510248866"><ele>608.0</ele><time>2026-04-19T08:22:06Z</time></trkpt><trkpt lat="41.14574132140621" lon="15.363231030400051"><ele>608.0</ele><time>2026-04-19T08:22:07Z</time></trkpt><trkpt lat="41.145736786262695" lon="15.363103321081182"><ele>608.0</ele><time>2026-04-19T08:22:08Z</time></trkpt><trkpt lat="41.14568875910128" lon="15.363015863857148"><ele>608.0</ele><time>2026-04-19T08:22:09Z</time></trkpt><trkpt lat="41.14561893641831" lon="15.362893645201181"><ele>601.6</ele><time>2026-04-19T08:22:10Z</time></trkpt><trkpt lat="41.145570276254894" lon="15.36278125050792"><ele>595.1999999999999</ele><time>2026-04-19T08:22:11Z</time></trkpt><trkpt lat="41.145531357234155" lon="15.362641947108775"><ele>588.8</ele><time>2026-04-19T08:22:12Z</time></trkpt><trkpt lat="41.14549987518578" lon="15.36249242854917"><ele>582.4</ele><time>2026-04-19T08:22:13Z</time></trkpt><trkpt lat="41.145472632342035" lon="15.36234358080196"><ele>576.0</ele><time>2026-04-19T08:22:14Z</time></trkpt><trkpt lat="41.14543778820639" lon="15.362171002448845"><ele>576.0</ele><time>2026-04-19T08:22:15Z</time></trkpt><trkpt lat="41.14539630213504" lon="15.362023312583002"><ele>576.0</ele><time>2026-04-19T08:22:16Z</time></trkpt><trkpt lat="41.145351643352114" lon="15.361906983736407"><ele>576.0</ele><time>2026-04-19T08:22:17Z</time></trkpt><trkpt lat="41.1453462311946" lon="15.361746084513674"><ele>576.0</ele><time>2026-04-19T08:22:18Z</time></trkpt><trkpt lat="41.14531104592751" lon="15.361602426529842"><ele>576.0</ele><time>2026-04-19T08:22:19Z</time></trkpt><trkpt lat="41.14527855623341" lon="15.361497353448978"><ele>576.0</ele><time>2026-04-19T08:22:20Z</time></trkpt><trkpt lat="41.145216397265784" lon="15.361408328118307"><ele>576.0</ele><time>2026-04-19T08:22:21Z</time></trkpt><trkpt lat="41.14518680802748" lon="15.361260794702664"><ele>576.0</ele><time>2026-04-19T08:22:22Z</time></trkpt><trkpt lat="41.14515217427807" lon="15.36113282216769"><ele>576.0</ele><time>2026-04-19T08:22:23Z</time></trkpt><trkpt lat="41.145112623840866" lon="15.360979388172737"><ele>575.5</ele><time>2026-04-19T08:22:24Z</time></trkpt><trkpt lat="41.145077724532044" lon="15.360838833840917"><ele>575.0</ele><time>2026-04-19T08:22:25Z</time></trkpt><trkpt lat="41.14504001359682" lon="15.36068594722721"><ele>574.5</ele><time>2026-04-19T08:22:26Z</time></trkpt><trkpt lat="41.14499618341616" lon="15.36053164867616"><ele>574.0</ele><time>2026-04-19T08:22:27Z</time></trkpt><trkpt lat="41.144944312123236" lon="15.360380089726034"><ele>571.6</ele><time>2026-04-19T08:22:28Z</time></trkpt><trkpt lat="41.14489239959223" lon="15.360250807673872"><ele>569.2</ele><time>2026-04-19T08:22:29Z</time></trkpt><trkpt lat="41.1448404236918" lon="15.360124325291975"><ele>566.8000000000001</ele><time>2026-04-19T08:22:30Z</time></trkpt><trkpt lat="41.1447847995466" lon="15.360007316273634"><ele>564.4</ele><time>2026-04-19T08:22:31Z</time></trkpt><trkpt lat="41.14473232854259" lon="15.35992386126369"><ele>562.0</ele><time>2026-04-19T08:22:32Z</time></trkpt><trkpt lat="41.14466920670235" lon="15.359870473061257"><ele>558.5</ele><time>2026-04-19T08:22:33Z</time></trkpt><trkpt lat="41.14455028658865" lon="15.359822291757462"><ele>555.0</ele><time>2026-04-19T08:22:34Z</time></trkpt><trkpt lat="41.14442501711942" lon="15.359783422120795"><ele>551.5</ele><time>2026-04-19T08:22:35Z</time></trkpt><trkpt lat="41.144311285247475" lon="15.359732973448748"><ele>548.0</ele><time>2026-04-19T08:22:36Z</time></trkpt><trkpt lat="41.14419391864806" lon="15.359680912504643"><ele>544.75</ele><time>2026-04-19T08:22:37Z</time></trkpt><trkpt lat="41.14404250570961" lon="15.35961374944326"><ele>541.5</ele><time>2026-04-19T08:22:38Z</time></trkpt><trkpt lat="41.14390102296046" lon="15.359552969735237"><ele>538.25</ele><time>2026-04-19T08:22:39Z</time></trkpt><trkpt lat="41.14380768316658" lon="15.359518225771183"><ele>535.0</ele><time>2026-04-19T08:22:40Z</time></trkpt><trkpt lat="41.14370009352915" lon="15.359483281289835"><ele>535.0</ele><time>2026-04-19T08:22:41Z</time></trkpt><trkpt lat="41.14359936211099" lon="15.359448189466699"><ele>535.0</ele><time>2026-04-19T08:22:42Z</time></trkpt><trkpt lat="41.143518627376565" lon="15.359415103346098"><ele>535.0</ele><time>2026-04-19T08:22:43Z</time></trkpt><trkpt lat="41.143430425034936" lon="15.359373635247787"><ele>535.0</ele><time>2026-04-19T08:22:44Z</time></trkpt><trkpt lat="41.14335109309728" lon="15.359314299166552"><ele>535.0</ele><time>2026-04-19T08:22:45Z</time></trkpt><trkpt lat="41.1432606827845" lon="15.35924067108396"><ele>533.8333333333334</ele><time>2026-04-19T08:22:45.999Z</time></trkpt><trkpt lat="41.14316567690126" lon="15.359168713957795"><ele>532.6666666666667</ele><time>2026-04-19T08:22:46.999Z</time></trkpt><trkpt lat="41.1430986789993" lon="15.359117626374744"><ele>531.5</ele><time>2026-04-19T08:22:47.999Z</time></trkpt><trkpt lat="41.14301719621636" lon="15.359054031436136"><ele>530.3333333333334</ele><time>2026-04-19T08:22:49.999Z</time></trkpt><trkpt lat="41.14294496234486" lon="15.358995116670554"><ele>529.1666666666666</ele><time>2026-04-19T08:22:50.999Z</time></trkpt><trkpt lat="41.14288282245257" lon="15.358925010468203"><ele>528.0</ele><time>2026-04-19T08:22:51.999Z</time></trkpt><trkpt lat="41.142823205947685" lon="15.358818588733843"><ele>528.0</ele><time>2026-04-19T08:22:53.999Z</time></trkpt><trkpt lat="41.14278006781265" lon="15.358735172554145"><ele>528.0</ele><time>2026-04-19T08:22:54.999Z</time></trkpt><trkpt lat="41.14271961416932" lon="15.358628681884417"><ele>528.0</ele><time>2026-04-19T08:22:55.999Z</time></trkpt><trkpt lat="41.14268336846735" lon="15.358476519893172"><ele>528.0</ele><time>2026-04-19T08:22:56.999Z</time></trkpt><trkpt lat="41.142586231747714" lon="15.35835728112426"><ele>528.0</ele><time>2026-04-19T08:22:57.999Z</time></trkpt><trkpt lat="41.14252272864671" lon="15.358268841167595"><ele>528.0</ele><time>2026-04-19T08:22:58.999Z</time></trkpt><trkpt lat="41.14244738804656" lon="15.35821532857245"><ele>528.0</ele><time>2026-04-19T08:22:59.999Z</time></trkpt><trkpt lat="41.14239325699901" lon="15.358139920465486"><ele>528.0</ele><time>2026-04-19T08:23:00.999Z</time></trkpt><trkpt lat="41.1423236505903" lon="15.358066885158104"><ele>528.0</ele><time>2026-04-19T08:23:02.999Z</time></trkpt><trkpt lat="41.14228472894961" lon="15.357999554763685"><ele>528.0</ele><time>2026-04-19T08:23:03.999Z</time></trkpt><trkpt lat="41.142253302969195" lon="15.357826348396364"><ele>531.0</ele><time>2026-04-19T08:23:05.999Z</time></trkpt><trkpt lat="41.14213987669206" lon="15.357740064564494"><ele>534.0</ele><time>2026-04-19T08:23:07.999Z</time></trkpt><trkpt lat="41.142059253262836" lon="15.35776190422"><ele>537.0</ele><time>2026-04-19T08:23:08.999Z</time></trkpt><trkpt lat="41.14195489161416" lon="15.357781328305668"><ele>540.0</ele><time>2026-04-19T08:23:09.999Z</time></trkpt><trkpt lat="41.141843993742604" lon="15.357799721181191"><ele>543.0</ele><time>2026-04-19T08:23:11Z</time></trkpt><trkpt lat="41.141762653998626" lon="15.357801064918652"><ele>543.0</ele><time>2026-04-19T08:23:12Z</time></trkpt><trkpt lat="41.14168145854917" lon="15.357792118138578"><ele>543.0</ele><time>2026-04-19T08:23:13Z</time></trkpt><trkpt lat="41.14158521888146" lon="15.357771045620433"><ele>543.0</ele><time>2026-04-19T08:23:14Z</time></trkpt><trkpt lat="41.14148368232308" lon="15.35773707001128"><ele>543.0</ele><time>2026-04-19T08:23:15Z</time></trkpt><trkpt lat="41.141380233433416" lon="15.35768791182677"><ele>543.0</ele><time>2026-04-19T08:23:16Z</time></trkpt><trkpt lat="41.14125917242785" lon="15.357631421413933"><ele>541.25</ele><time>2026-04-19T08:23:17Z</time></trkpt><trkpt lat="41.14114801259016" lon="15.357599743554795"><ele>539.5</ele><time>2026-04-19T08:23:18Z</time></trkpt><trkpt lat="41.1410446695299" lon="15.357537424016366"><ele>537.75</ele><time>2026-04-19T08:23:19Z</time></trkpt><trkpt lat="41.14094331995457" lon="15.3574624814789"><ele>536.0</ele><time>2026-04-19T08:23:20Z</time></trkpt><trkpt lat="41.140839941531134" lon="15.357362270882632"><ele>536.0</ele><time>2026-04-19T08:23:21Z</time></trkpt><trkpt lat="41.14075482217684" lon="15.35723013145102"><ele>536.0</ele><time>2026-04-19T08:23:22Z</time></trkpt><trkpt lat="41.14067585602156" lon="15.357102729159198"><ele>536.0</ele><time>2026-04-19T08:23:23Z</time></trkpt><trkpt lat="41.14061561383316" lon="15.356985211147236"><ele>536.0</ele><time>2026-04-19T08:23:24Z</time></trkpt><trkpt lat="41.140557439583866" lon="15.356864683063161"><ele>534.0</ele><time>2026-04-19T08:23:25Z</time></trkpt><trkpt lat="41.140484924466946" lon="15.356773509703448"><ele>532.0</ele><time>2026-04-19T08:23:26Z</time></trkpt><trkpt lat="41.14041739906894" lon="15.356710081850466"><ele>530.0</ele><time>2026-04-19T08:23:27Z</time></trkpt><trkpt lat="41.14036103920747" lon="15.356648105775763"><ele>528.0</ele><time>2026-04-19T08:23:28Z</time></trkpt><trkpt lat="41.14028759687378" lon="15.35653091611716"><ele>526.0</ele><time>2026-04-19T08:23:29Z</time></trkpt><trkpt lat="41.140210439803596" lon="15.356402023243628"><ele>527.8333333333334</ele><time>2026-04-19T08:23:30Z</time></trkpt><trkpt lat="41.14015412578069" lon="15.356302857094347"><ele>529.6666666666667</ele><time>2026-04-19T08:23:31Z</time></trkpt><trkpt lat="41.14011163513916" lon="15.356230510886355"><ele>531.5</ele><time>2026-04-19T08:23:32Z</time></trkpt><trkpt lat="41.14005983042573" lon="15.356150560149304"><ele>533.3333333333334</ele><time>2026-04-19T08:23:33Z</time></trkpt><trkpt lat="41.14002295233042" lon="15.356063166903764"><ele>535.1666666666666</ele><time>2026-04-19T08:23:34Z</time></trkpt><trkpt lat="41.13999344096517" lon="15.355939666636552"><ele>537.0</ele><time>2026-04-19T08:23:35Z</time></trkpt><trkpt lat="41.13996502279082" lon="15.355795908540056"><ele>537.0</ele><time>2026-04-19T08:23:36Z</time></trkpt><trkpt lat="41.13991547807964" lon="15.355672993332973"><ele>537.0</ele><time>2026-04-19T08:23:37Z</time></trkpt><trkpt lat="41.13984799173991" lon="15.355601495551289"><ele>537.0</ele><time>2026-04-19T08:23:38Z</time></trkpt><trkpt lat="41.139768899500716" lon="15.355545616081741"><ele>537.0</ele><time>2026-04-19T08:23:39Z</time></trkpt><trkpt lat="41.13970638420049" lon="15.3555092005449"><ele>537.0</ele><time>2026-04-19T08:23:40Z</time></trkpt><trkpt lat="41.13960904476785" lon="15.355447451346476"><ele>537.8000000000001</ele><time>2026-04-19T08:23:42Z</time></trkpt><trkpt lat="41.13954358711218" lon="15.355407360064119"><ele>538.6</ele><time>2026-04-19T08:23:44Z</time></trkpt><trkpt lat="41.13944263476289" lon="15.35535088535002"><ele>539.4000000000001</ele><time>2026-04-19T08:23:46Z</time></trkpt><trkpt lat="41.13936190862667" lon="15.355307302186127"><ele>540.2</ele><time>2026-04-19T08:23:47Z</time></trkpt><trkpt lat="41.139267343014524" lon="15.355286834784442"><ele>541.0</ele><time>2026-04-19T08:23:48Z</time></trkpt><trkpt lat="41.139178303778124" lon="15.355276788185714"><ele>541.0</ele><time>2026-04-19T08:23:49Z</time></trkpt><trkpt lat="41.13910751302386" lon="15.355264070184417"><ele>541.0</ele><time>2026-04-19T08:23:50Z</time></trkpt><trkpt lat="41.13903459283589" lon="15.355240686599195"><ele>541.0</ele><time>2026-04-19T08:23:51Z</time></trkpt><trkpt lat="41.138942459758056" lon="15.355217675824724"><ele>541.0</ele><time>2026-04-19T08:23:52Z</time></trkpt><trkpt lat="41.13884293063768" lon="15.355194842324105"><ele>541.0</ele><time>2026-04-19T08:23:53Z</time></trkpt><trkpt lat="41.13874101339818" lon="15.355170621225852"><ele>541.0</ele><time>2026-04-19T08:23:55Z</time></trkpt><trkpt lat="41.138663536388954" lon="15.355123426798981"><ele>540.5</ele><time>2026-04-19T08:23:56Z</time></trkpt><trkpt lat="41.138575155878094" lon="15.355050389226335"><ele>540.0</ele><time>2026-04-19T08:23:57Z</time></trkpt><trkpt lat="41.13848543883205" lon="15.35496389754872"><ele>539.5</ele><time>2026-04-19T08:23:58Z</time></trkpt><trkpt lat="41.13838999153301" lon="15.354826154362085"><ele>539.0</ele><time>2026-04-19T08:23:59Z</time></trkpt><trkpt lat="41.138281452075624" lon="15.354642357614907"><ele>534.3333333333333</ele><time>2026-04-19T08:24:00Z</time></trkpt><trkpt lat="41.13817363440514" lon="15.354448708756706"><ele>529.6666666666666</ele><time>2026-04-19T08:24:01Z</time></trkpt><trkpt lat="41.13807802453832" lon="15.3542781229715"><ele>525.0</ele><time>2026-04-19T08:24:02Z</time></trkpt><trkpt lat="41.137998032840706" lon="15.354146969106205"><ele>525.0</ele><time>2026-04-19T08:24:03Z</time></trkpt><trkpt lat="41.13790663041458" lon="15.354003954490953"><ele>525.0</ele><time>2026-04-19T08:24:04Z</time></trkpt><trkpt lat="41.137854062803456" lon="15.353923662959069"><ele>525.0</ele><time>2026-04-19T08:24:05Z</time></trkpt><trkpt lat="41.13781091090182" lon="15.353844445525677"><ele>525.0</ele><time>2026-04-19T08:24:06Z</time></trkpt><trkpt lat="41.137775550200764" lon="15.353760931774898"><ele>525.0</ele><time>2026-04-19T08:24:07Z</time></trkpt><trkpt lat="41.13774312805304" lon="15.353657479194684"><ele>526.0</ele><time>2026-04-19T08:24:08Z</time></trkpt><trkpt lat="41.13771012273732" lon="15.353548197324963"><ele>527.0</ele><time>2026-04-19T08:24:09Z</time></trkpt><trkpt lat="41.1376645789823" lon="15.353434415658603"><ele>528.0</ele><time>2026-04-19T08:24:10Z</time></trkpt><trkpt lat="41.137610636835106" lon="15.35336260959643"><ele>529.0</ele><time>2026-04-19T08:24:11Z</time></trkpt><trkpt lat="41.13754361678209" lon="15.353256662260733"><ele>530.0</ele><time>2026-04-19T08:24:12Z</time></trkpt><trkpt lat="41.13748845398563" lon="15.35313179635393"><ele>531.6</ele><time>2026-04-19T08:24:13Z</time></trkpt><trkpt lat="41.13743102751089" lon="15.352996885768539"><ele>533.2</ele><time>2026-04-19T08:24:14Z</time></trkpt><trkpt lat="41.13737799107311" lon="15.352900435452623"><ele>534.8</ele><time>2026-04-19T08:24:15Z</time></trkpt><trkpt lat="41.137322468326936" lon="15.352808077695437"><ele>536.4</ele><time>2026-04-19T08:24:16Z</time></trkpt><trkpt lat="41.13724141762959" lon="15.352667490657945"><ele>538.0</ele><time>2026-04-19T08:24:18Z</time></trkpt><trkpt lat="41.1372036383849" lon="15.35259985603703"><ele>535.4</ele><time>2026-04-19T08:24:19Z</time></trkpt><trkpt lat="41.13712057126999" lon="15.352468149014543"><ele>532.8</ele><time>2026-04-19T08:24:21Z</time></trkpt><trkpt lat="41.13707346646957" lon="15.352387338951093"><ele>530.2</ele><time>2026-04-19T08:24:22Z</time></trkpt><trkpt lat="41.13701273210597" lon="15.352333959167982"><ele>527.6</ele><time>2026-04-19T08:24:23Z</time></trkpt><trkpt lat="41.136939736921256" lon="15.352271631088293"><ele>525.0</ele><time>2026-04-19T08:24:24Z</time></trkpt><trkpt lat="41.13684099536328" lon="15.352187303794299"><ele>525.0</ele><time>2026-04-19T08:24:26Z</time></trkpt><trkpt lat="41.13674687138484" lon="15.352045810940204"><ele>525.0</ele><time>2026-04-19T08:24:28Z</time></trkpt><trkpt lat="41.13668670646172" lon="15.35195735628859"><ele>525.0</ele><time>2026-04-19T08:24:29Z</time></trkpt><trkpt lat="41.1366172428173" lon="15.35186364584094"><ele>525.0</ele><time>2026-04-19T08:24:30Z</time></trkpt><trkpt lat="41.13653576645628" lon="15.351764472270245"><ele>525.0</ele><time>2026-04-19T08:24:31Z</time></trkpt><trkpt lat="41.13647243059132" lon="15.35170201053816"><ele>523.1666666666666</ele><time>2026-04-19T08:24:32Z</time></trkpt><trkpt lat="41.13638797117109" lon="15.35159351531311"><ele>521.3333333333334</ele><time>2026-04-19T08:24:34Z</time></trkpt><trkpt lat="41.13633688057163" lon="15.35150829591282"><ele>519.5</ele><time>2026-04-19T08:24:35Z</time></trkpt><trkpt lat="41.136294499215204" lon="15.351433381906398"><ele>517.6666666666667</ele><time>2026-04-19T08:24:36Z</time></trkpt><trkpt lat="41.13624074808153" lon="15.351347417938563"><ele>515.8333333333334</ele><time>2026-04-19T08:24:37Z</time></trkpt><trkpt lat="41.1361789507289" lon="15.351272131573154"><ele>514.0</ele><time>2026-04-19T08:24:38Z</time></trkpt><trkpt lat="41.136118787960754" lon="15.351189631425667"><ele>514.0</ele><time>2026-04-19T08:24:40Z</time></trkpt><trkpt lat="41.13609161902057" lon="15.351111598127659"><ele>514.0</ele><time>2026-04-19T08:24:41Z</time></trkpt><trkpt lat="41.136038866591676" lon="15.350977439865371"><ele>514.0</ele><time>2026-04-19T08:24:41.999Z</time></trkpt><trkpt lat="41.135981072888505" lon="15.350860953836749"><ele>514.0</ele><time>2026-04-19T08:24:42.999Z</time></trkpt><trkpt lat="41.13592243910222" lon="15.350770251982235"><ele>514.0</ele><time>2026-04-19T08:24:43.999Z</time></trkpt><trkpt lat="41.135852279430274" lon="15.35066133999741"><ele>514.0</ele><time>2026-04-19T08:24:44.999Z</time></trkpt><trkpt lat="41.135791989439234" lon="15.350545000404237"><ele>514.0</ele><time>2026-04-19T08:24:45.999Z</time></trkpt><trkpt lat="41.13573374025652" lon="15.350442967275185"><ele>514.0</ele><time>2026-04-19T08:24:46.999Z</time></trkpt><trkpt lat="41.13566403394364" lon="15.350322650368865"><ele>514.0</ele><time>2026-04-19T08:24:47.999Z</time></trkpt><trkpt lat="41.1355859022307" lon="15.350184014778675"><ele>514.0</ele><time>2026-04-19T08:24:48.999Z</time></trkpt><trkpt lat="41.13552546104271" lon="15.350083088151356"><ele>512.8</ele><time>2026-04-19T08:24:49.999Z</time></trkpt><trkpt lat="41.13545510573374" lon="15.350007752068835"><ele>511.59999999999997</ele><time>2026-04-19T08:24:50.999Z</time></trkpt><trkpt lat="41.13537454738644" lon="15.34992161081641"><ele>510.4</ele><time>2026-04-19T08:24:51.999Z</time></trkpt><trkpt lat="41.13529339950379" lon="15.349860641184298"><ele>509.2</ele><time>2026-04-19T08:24:52.999Z</time></trkpt><trkpt lat="41.135192743302895" lon="15.349763915510687"><ele>508.0</ele><time>2026-04-19T08:24:54.999Z</time></trkpt><trkpt lat="41.13512210630638" lon="15.349700488920469"><ele>509.59999999999997</ele><time>2026-04-19T08:24:55.999Z</time></trkpt><trkpt lat="41.13504293920944" lon="15.349647563664881"><ele>511.19999999999993</ele><time>2026-04-19T08:24:56.999Z</time></trkpt><trkpt lat="41.13494428537319" lon="15.349620381561255"><ele>512.8</ele><time>2026-04-19T08:24:57.999Z</time></trkpt><trkpt lat="41.13484946506592" lon="15.349617308904385"><ele>514.4</ele><time>2026-04-19T08:24:58.999Z</time></trkpt><trkpt lat="41.13477325935146" lon="15.349606051609667"><ele>516.0</ele><time>2026-04-19T08:24:59.999Z</time></trkpt><trkpt lat="41.13463965907" lon="15.349600725771973"><ele>516.0</ele><time>2026-04-19T08:25:01.999Z</time></trkpt><trkpt lat="41.13455634532398" lon="15.349568816326643"><ele>516.0</ele><time>2026-04-19T08:25:02.999Z</time></trkpt><trkpt lat="41.1344834956746" lon="15.349528342034857"><ele>516.0</ele><time>2026-04-19T08:25:03.999Z</time></trkpt><trkpt lat="41.134418826580955" lon="15.349460342651822"><ele>516.0</ele><time>2026-04-19T08:25:04.999Z</time></trkpt><trkpt lat="41.134342753110985" lon="15.34938341690465"><ele>516.0</ele><time>2026-04-19T08:25:05.999Z</time></trkpt><trkpt lat="41.13428947353784" lon="15.349331641552494"><ele>516.0</ele><time>2026-04-19T08:25:06.999Z</time></trkpt><trkpt lat="41.13416905180286" lon="15.349250992914117"><ele>516.0</ele><time>2026-04-19T08:25:09.999Z</time></trkpt><trkpt lat="41.13409933478215" lon="15.34923397338071"><ele>516.0</ele><time>2026-04-19T08:25:10.999Z</time></trkpt><trkpt lat="41.134110572345925" lon="15.349117765191542"><ele>516.0</ele><time>2026-04-19T08:25:14.999Z</time></trkpt><trkpt lat="41.13421325552633" lon="15.349107997819335"><ele>516.0</ele><time>2026-04-19T08:25:17Z</time></trkpt><trkpt lat="41.13428472168506" lon="15.34904967076132"><ele>516.0</ele><time>2026-04-19T08:25:19Z</time></trkpt><trkpt lat="41.13431222008489" lon="15.348971824840689"><ele>516.0</ele><time>2026-04-19T08:25:20Z</time></trkpt><trkpt lat="41.13434158230068" lon="15.34888639511131"><ele>517.5</ele><time>2026-04-19T08:25:21Z</time></trkpt><trkpt lat="41.13438009457836" lon="15.348794265023967"><ele>519.0</ele><time>2026-04-19T08:25:22Z</time></trkpt><trkpt lat="41.134439948684765" lon="15.348748015517149"><ele>520.5</ele><time>2026-04-19T08:25:23Z</time></trkpt><trkpt lat="41.13453247001964" lon="15.34868619281515"><ele>522.0</ele><time>2026-04-19T08:25:25Z</time></trkpt><trkpt lat="41.13450919970194" lon="15.348590236081177"><ele>523.5</ele><time>2026-04-19T08:25:28Z</time></trkpt><trkpt lat="41.134486782322256" lon="15.348507316269417"><ele>525.0</ele><time>2026-04-19T08:25:29Z</time></trkpt><trkpt lat="41.134528474856936" lon="15.348359656601916"><ele>525.0</ele><time>2026-04-19T08:25:31Z</time></trkpt><trkpt lat="41.13457501389344" lon="15.348297035422164"><ele>525.0</ele><time>2026-04-19T08:25:32Z</time></trkpt><trkpt lat="41.13462676927677" lon="15.348206825179332"><ele>525.0</ele><time>2026-04-19T08:25:33Z</time></trkpt><trkpt lat="41.13467265100634" lon="15.348096686751571"><ele>525.0</ele><time>2026-04-19T08:25:34Z</time></trkpt><trkpt lat="41.134691769473555" lon="15.347981846513905"><ele>525.0</ele><time>2026-04-19T08:25:35Z</time></trkpt><trkpt lat="41.13467235757503" lon="15.347844731922855"><ele>525.0</ele><time>2026-04-19T08:25:37Z</time></trkpt><trkpt lat="41.134717679718264" lon="15.347707668831243"><ele>526.0</ele><time>2026-04-19T08:25:39Z</time></trkpt><trkpt lat="41.13470112421939" lon="15.347552830715816"><ele>527.0</ele><time>2026-04-19T08:25:41Z</time></trkpt><trkpt lat="41.13475843225641" lon="15.34745460736366"><ele>528.0</ele><time>2026-04-19T08:25:43Z</time></trkpt><trkpt lat="41.13485380112574" lon="15.347400939890255"><ele>529.0</ele><time>2026-04-19T08:25:45Z</time></trkpt><trkpt lat="41.13490046322267" lon="15.34733180638968"><ele>530.0</ele><time>2026-04-19T08:25:47Z</time></trkpt><trkpt lat="41.134940400570684" lon="15.347448185143008"><ele>534.3333333333333</ele><time>2026-04-19T08:25:58Z</time></trkpt><trkpt lat="41.13492717912369" lon="15.34754205373493"><ele>538.6666666666666</ele><time>2026-04-19T08:26:00Z</time></trkpt><trkpt lat="41.134961799774295" lon="15.347627849872037"><ele>543.0</ele><time>2026-04-19T08:26:11Z</time></trkpt><trkpt lat="41.13508657204876" lon="15.347672114756241"><ele>547.3333333333334</ele><time>2026-04-19T08:26:13Z</time></trkpt><trkpt lat="41.13514404024625" lon="15.347730547492613"><ele>551.6666666666667</ele><time>2026-04-19T08:26:14Z</time></trkpt><trkpt lat="41.13519936359037" lon="15.347833877483952"><ele>556.0</ele><time>2026-04-19T08:26:16Z</time></trkpt><trkpt lat="41.135257031609854" lon="15.347883334759826"><ele>556.0</ele><time>2026-04-19T08:26:17Z</time></trkpt><trkpt lat="41.13530708364011" lon="15.347945329469795"><ele>556.0</ele><time>2026-04-19T08:26:18Z</time></trkpt><trkpt lat="41.13539813345772" lon="15.347947545885399"><ele>556.0</ele><time>2026-04-19T08:26:20Z</time></trkpt><trkpt lat="41.135479689305335" lon="15.347934863728412"><ele>556.0</ele><time>2026-04-19T08:26:22Z</time></trkpt><trkpt lat="41.135578208135286" lon="15.347990818522804"><ele>556.0</ele><time>2026-04-19T08:26:24Z</time></trkpt><trkpt lat="41.13563329602205" lon="15.348078064210108"><ele>556.0</ele><time>2026-04-19T08:26:26Z</time></trkpt><trkpt lat="41.13573756217524" lon="15.348130740025052"><ele>559.3333333333334</ele><time>2026-04-19T08:26:29Z</time></trkpt><trkpt lat="41.135847765862124" lon="15.348066770866938"><ele>562.6666666666667</ele><time>2026-04-19T08:26:31Z</time></trkpt><trkpt lat="41.135879722819794" lon="15.347961677042411"><ele>566.0</ele><time>2026-04-19T08:26:33Z</time></trkpt><trkpt lat="41.13595298452771" lon="15.347970109405557"><ele>569.3333333333334</ele><time>2026-04-19T08:26:36Z</time></trkpt><trkpt lat="41.13601601543553" lon="15.347932321864329"><ele>572.6666666666666</ele><time>2026-04-19T08:26:37Z</time></trkpt><trkpt lat="41.1360793107023" lon="15.347890556442945"><ele>576.0</ele><time>2026-04-19T08:26:38Z</time></trkpt><trkpt lat="41.13614729335308" lon="15.347844002460654"><ele>577.1666666666666</ele><time>2026-04-19T08:26:39Z</time></trkpt><trkpt lat="41.13619747396032" lon="15.347787594034441"><ele>578.3333333333334</ele><time>2026-04-19T08:26:40Z</time></trkpt><trkpt lat="41.13631686943914" lon="15.347761185719014"><ele>579.5</ele><time>2026-04-19T08:26:41.999Z</time></trkpt><trkpt lat="41.13634988630845" lon="15.347684295822333"><ele>580.6666666666667</ele><time>2026-04-19T08:26:44.999Z</time></trkpt><trkpt lat="41.13642419358731" lon="15.347676177036313"><ele>581.8333333333334</ele><time>2026-04-19T08:26:46.999Z</time></trkpt><trkpt lat="41.136476978710405" lon="15.347725382435634"><ele>583.0</ele><time>2026-04-19T08:26:47.999Z</time></trkpt><trkpt lat="41.13660597206567" lon="15.34773018456099"><ele>587.0</ele><time>2026-04-19T08:26:49.999Z</time></trkpt><trkpt lat="41.13669170819111" lon="15.347776967620002"><ele>591.0</ele><time>2026-04-19T08:26:50.999Z</time></trkpt><trkpt lat="41.13678420714264" lon="15.347798800277763"><ele>595.0</ele><time>2026-04-19T08:26:51.999Z</time></trkpt><trkpt lat="41.13688451719125" lon="15.347828687259694"><ele>599.0</ele><time>2026-04-19T08:26:52.999Z</time></trkpt><trkpt lat="41.13699730259736" lon="15.347840700775787"><ele>603.0</ele><time>2026-04-19T08:26:53.999Z</time></trkpt><trkpt lat="41.137101478023" lon="15.347866953054464"><ele>603.0</ele><time>2026-04-19T08:26:54.999Z</time></trkpt><trkpt lat="41.13720026213578" lon="15.347882305570629"><ele>603.0</ele><time>2026-04-19T08:26:55.999Z</time></trkpt><trkpt lat="41.13729125786616" lon="15.347910216426646"><ele>603.0</ele><time>2026-04-19T08:26:56.999Z</time></trkpt><trkpt lat="41.137397289388396" lon="15.347946135607673"><ele>603.0</ele><time>2026-04-19T08:26:57.999Z</time></trkpt><trkpt lat="41.13750260870681" lon="15.347984894358817"><ele>603.0</ele><time>2026-04-19T08:26:58.999Z</time></trkpt><trkpt lat="41.137613694805594" lon="15.348037319820651"><ele>606.6</ele><time>2026-04-19T08:26:59.999Z</time></trkpt><trkpt lat="41.13770364756285" lon="15.3480779687427"><ele>610.1999999999999</ele><time>2026-04-19T08:27:00.999Z</time></trkpt><trkpt lat="41.13777959343958" lon="15.348122579237211"><ele>613.8</ele><time>2026-04-19T08:27:01.999Z</time></trkpt><trkpt lat="41.13782610300891" lon="15.34818838097822"><ele>617.4</ele><time>2026-04-19T08:27:02.999Z</time></trkpt><trkpt lat="41.13784323356313" lon="15.348286984273177"><ele>621.0</ele><time>2026-04-19T08:27:03.999Z</time></trkpt><trkpt lat="41.13778849989547" lon="15.348441926126696"><ele>621.0</ele><time>2026-04-19T08:27:04.999Z</time></trkpt><trkpt lat="41.137801921762104" lon="15.348528924594516"><ele>621.0</ele><time>2026-04-19T08:27:05.999Z</time></trkpt><trkpt lat="41.13783557812655" lon="15.348603492248555"><ele>621.0</ele><time>2026-04-19T08:27:06.999Z</time></trkpt><trkpt lat="41.137945042651964" lon="15.348642193781128"><ele>621.0</ele><time>2026-04-19T08:27:08.999Z</time></trkpt><trkpt lat="41.138013582360024" lon="15.348697469772524"><ele>621.0</ele><time>2026-04-19T08:27:09.999Z</time></trkpt><trkpt lat="41.138076197300194" lon="15.348777204132391"><ele>621.0</ele><time>2026-04-19T08:27:10.999Z</time></trkpt><trkpt lat="41.13815446178815" lon="15.34883794238182"><ele>626.0</ele><time>2026-04-19T08:27:11.999Z</time></trkpt><trkpt lat="41.13823481925366" lon="15.348946487533553"><ele>631.0</ele><time>2026-04-19T08:27:12.999Z</time></trkpt><trkpt lat="41.13832104380894" lon="15.349033014373342"><ele>636.0</ele><time>2026-04-19T08:27:13.999Z</time></trkpt><trkpt lat="41.13842760198081" lon="15.349118573626185"><ele>641.0</ele><time>2026-04-19T08:27:14.999Z</time></trkpt><trkpt lat="41.13852166021799" lon="15.34919767280958"><ele>641.0</ele><time>2026-04-19T08:27:15.999Z</time></trkpt><trkpt lat="41.1386000035339" lon="15.34924684782421"><ele>641.0</ele><time>2026-04-19T08:27:16.999Z</time></trkpt><trkpt lat="41.138670339178596" lon="15.349280270224575"><ele>641.0</ele><time>2026-04-19T08:27:17.999Z</time></trkpt><trkpt lat="41.138758212494835" lon="15.349331394019112"><ele>641.0</ele><time>2026-04-19T08:27:18.999Z</time></trkpt><trkpt lat="41.13883554934185" lon="15.349415025256796"><ele>641.0</ele><time>2026-04-19T08:27:19.999Z</time></trkpt><trkpt lat="41.13890157948748" lon="15.349501481143058"><ele>641.0</ele><time>2026-04-19T08:27:21Z</time></trkpt><trkpt lat="41.13896812229587" lon="15.349546298807299"><ele>641.0</ele><time>2026-04-19T08:27:22Z</time></trkpt><trkpt lat="41.13903164970046" lon="15.349550274086788"><ele>641.0</ele><time>2026-04-19T08:27:49Z</time></trkpt><trkpt lat="41.13908637005024" lon="15.349592064578573"><ele>641.0</ele><time>2026-04-19T08:28:54.999Z</time></trkpt><trkpt lat="41.13903486285308" lon="15.349537084325055"><ele>641.0</ele><time>2026-04-19T08:30:40Z</time></trkpt><trkpt lat="41.13911084752793" lon="15.349417090676926"><ele>641.0</ele><time>2026-04-19T08:35:52Z</time></trkpt><trkpt lat="41.13918022491726" lon="15.349385618881561"><ele>645.5999999999999</ele><time>2026-04-19T08:35:53Z</time></trkpt><trkpt lat="41.139286130739336" lon="15.349349534897593"><ele>650.2</ele><time>2026-04-19T08:35:54Z</time></trkpt><trkpt lat="41.139389463482814" lon="15.349318467328676"><ele>654.8</ele><time>2026-04-19T08:35:55Z</time></trkpt><trkpt lat="41.139483085478844" lon="15.349273390788513"><ele>659.4000000000001</ele><time>2026-04-19T08:35:56Z</time></trkpt><trkpt lat="41.1395727714382" lon="15.349225165133959"><ele>664.0</ele><time>2026-04-19T08:35:57Z</time></trkpt><trkpt lat="41.13965397983162" lon="15.349190974655842"><ele>664.0</ele><time>2026-04-19T08:35:58Z</time></trkpt><trkpt lat="41.139634592542514" lon="15.34908911342501"><ele>664.0</ele><time>2026-04-19T08:36:09Z</time></trkpt><trkpt lat="41.1397053478744" lon="15.349112823416466"><ele>664.0</ele><time>2026-04-19T08:36:35Z</time></trkpt><trkpt lat="41.13977004101229" lon="15.34909587976314"><ele>664.0</ele><time>2026-04-19T08:38:11Z</time></trkpt><trkpt lat="41.139835735352136" lon="15.349141868476247"><ele>664.0</ele><time>2026-04-19T08:38:15Z</time></trkpt><trkpt lat="41.13993944357176" lon="15.349165106397928"><ele>664.0</ele><time>2026-04-19T08:38:18Z</time></trkpt><trkpt lat="41.14003181164837" lon="15.349166071999555"><ele>669.2</ele><time>2026-04-19T08:38:20Z</time></trkpt><trkpt lat="41.14012533695523" lon="15.349204609321347"><ele>674.4000000000001</ele><time>2026-04-19T08:38:22Z</time></trkpt><trkpt lat="41.14019050716754" lon="15.349213239016956"><ele>679.6</ele><time>2026-04-19T08:38:23Z</time></trkpt><trkpt lat="41.14028524309972" lon="15.349183462123833"><ele>684.8</ele><time>2026-04-19T08:38:25Z</time></trkpt><trkpt lat="41.14033062279476" lon="15.349032553202411"><ele>690.0</ele><time>2026-04-19T08:38:27Z</time></trkpt><trkpt lat="41.140400025991305" lon="15.34907265642652"><ele>690.0</ele><time>2026-04-19T08:38:29Z</time></trkpt><trkpt lat="41.14046738582892" lon="15.349152294615688"><ele>690.0</ele><time>2026-04-19T08:38:30Z</time></trkpt><trkpt lat="41.14060283711455" lon="15.349129655257498"><ele>690.0</ele><time>2026-04-19T08:38:32Z</time></trkpt><trkpt lat="41.14073622936319" lon="15.349184846324698"><ele>690.0</ele><time>2026-04-19T08:38:34Z</time></trkpt><trkpt lat="41.14079710444726" lon="15.349209052474334"><ele>690.0</ele><time>2026-04-19T08:38:36Z</time></trkpt><trkpt lat="41.140914818369794" lon="15.349235049536343"><ele>694.3333333333334</ele><time>2026-04-19T08:38:45Z</time></trkpt><trkpt lat="41.14099398267542" lon="15.34924702710231"><ele>698.6666666666666</ele><time>2026-04-19T08:38:46Z</time></trkpt><trkpt lat="41.14108380327793" lon="15.34926896251285"><ele>703.0</ele><time>2026-04-19T08:38:47Z</time></trkpt><trkpt lat="41.14117446635346" lon="15.349273455919368"><ele>707.3333333333333</ele><time>2026-04-19T08:38:48Z</time></trkpt><trkpt lat="41.14126521568828" lon="15.34928083142217"><ele>711.6666666666666</ele><time>2026-04-19T08:38:49Z</time></trkpt><trkpt lat="41.14133812280953" lon="15.349285977095363"><ele>716.0</ele><time>2026-04-19T08:38:50Z</time></trkpt><trkpt lat="41.141411656378644" lon="15.34929006083595"><ele>716.0</ele><time>2026-04-19T08:38:51Z</time></trkpt><trkpt lat="41.141500227816884" lon="15.349345970563432"><ele>716.0</ele><time>2026-04-19T08:38:52.999Z</time></trkpt><trkpt lat="41.14155404645971" lon="15.349412662056276"><ele>716.0</ele><time>2026-04-19T08:38:54.999Z</time></trkpt><trkpt lat="41.141678230087436" lon="15.349472141406464"><ele>716.0</ele><time>2026-04-19T08:38:56.999Z</time></trkpt><trkpt lat="41.14177000909085" lon="15.349475983679786"><ele>716.0</ele><time>2026-04-19T08:38:57.999Z</time></trkpt><trkpt lat="41.14183881021435" lon="15.349484016058383"><ele>719.8333333333333</ele><time>2026-04-19T08:38:58.999Z</time></trkpt><trkpt lat="41.14190959108018" lon="15.349501550153759"><ele>723.6666666666666</ele><time>2026-04-19T08:38:59.999Z</time></trkpt><trkpt lat="41.141975259222235" lon="15.349514616156304"><ele>727.5</ele><time>2026-04-19T08:39:00.999Z</time></trkpt><trkpt lat="41.14205502564752" lon="15.349512740680717"><ele>731.3333333333334</ele><time>2026-04-19T08:39:01.999Z</time></trkpt><trkpt lat="41.14215020242988" lon="15.349507293531031"><ele>735.1666666666667</ele><time>2026-04-19T08:39:02.999Z</time></trkpt><trkpt lat="41.14223748469507" lon="15.349488702374416"><ele>739.0</ele><time>2026-04-19T08:39:03.999Z</time></trkpt><trkpt lat="41.14230514255387" lon="15.349456104787775"><ele>739.0</ele><time>2026-04-19T08:39:04.999Z</time></trkpt><trkpt lat="41.142364236655816" lon="15.349408976286643"><ele>739.0</ele><time>2026-04-19T08:39:05.999Z</time></trkpt><trkpt lat="41.142450821563806" lon="15.349319147017715"><ele>739.0</ele><time>2026-04-19T08:39:07.999Z</time></trkpt><trkpt lat="41.1424793703544" lon="15.349171049609316"><ele>739.0</ele><time>2026-04-19T08:39:09.999Z</time></trkpt><trkpt lat="41.14247085748046" lon="15.349071375389313"><ele>739.0</ele><time>2026-04-19T08:39:10.999Z</time></trkpt><trkpt lat="41.142455802726616" lon="15.348959512906113"><ele>744.6666666666667</ele><time>2026-04-19T08:39:11.999Z</time></trkpt><trkpt lat="41.14244262223101" lon="15.348862804212459"><ele>750.3333333333334</ele><time>2026-04-19T08:39:12.999Z</time></trkpt><trkpt lat="41.142459768261794" lon="15.348781368801356"><ele>756.0</ele><time>2026-04-19T08:39:14.999Z</time></trkpt><trkpt lat="41.14252554707665" lon="15.348800439474667"><ele>761.6666666666667</ele><time>2026-04-19T08:40:35Z</time></trkpt><trkpt lat="41.1425973816061" lon="15.348781432205431"><ele>767.3333333333334</ele><time>2026-04-19T08:40:37Z</time></trkpt><trkpt lat="41.142681106982586" lon="15.348747140799416"><ele>773.0</ele><time>2026-04-19T08:40:40Z</time></trkpt><trkpt lat="41.142760687165" lon="15.348821271119935"><ele>773.0</ele><time>2026-04-19T08:40:43Z</time></trkpt><trkpt lat="41.142839843182536" lon="15.348832657935908"><ele>773.0</ele><time>2026-04-19T08:40:45Z</time></trkpt><trkpt lat="41.142948087068596" lon="15.34883471286309"><ele>773.0</ele><time>2026-04-19T08:40:47Z</time></trkpt><trkpt lat="41.14303483971937" lon="15.34884984234472"><ele>773.0</ele><time>2026-04-19T08:40:48Z</time></trkpt><trkpt lat="41.1431367845045" lon="15.348857095058099"><ele>773.0</ele><time>2026-04-19T08:40:50Z</time></trkpt><trkpt lat="41.143234282147596" lon="15.348837710664817"><ele>770.1666666666667</ele><time>2026-04-19T08:40:52Z</time></trkpt><trkpt lat="41.14330840498952" lon="15.348835605656625"><ele>767.3333333333334</ele><time>2026-04-19T08:40:52.999Z</time></trkpt><trkpt lat="41.14340187782943" lon="15.348824326975082"><ele>764.5</ele><time>2026-04-19T08:40:53.999Z</time></trkpt><trkpt lat="41.1434831137809" lon="15.348830480783505"><ele>761.6666666666667</ele><time>2026-04-19T08:40:54.999Z</time></trkpt><trkpt lat="41.14359021222885" lon="15.348809397628347"><ele>758.8333333333334</ele><time>2026-04-19T08:40:56.999Z</time></trkpt><trkpt lat="41.14365791838103" lon="15.348790559839427"><ele>756.0</ele><time>2026-04-19T08:40:57.999Z</time></trkpt><trkpt lat="41.143722987872344" lon="15.348753060893696"><ele>756.0</ele><time>2026-04-19T08:40:58.999Z</time></trkpt><trkpt lat="41.14379239655499" lon="15.348740824778735"><ele>756.0</ele><time>2026-04-19T08:40:59.999Z</time></trkpt><trkpt lat="41.14386122954019" lon="15.348768956899745"><ele>756.0</ele><time>2026-04-19T08:41:00.999Z</time></trkpt><trkpt lat="41.143953877531565" lon="15.348809922811803"><ele>756.0</ele><time>2026-04-19T08:41:01.999Z</time></trkpt><trkpt lat="41.14403961613683" lon="15.34882638689729"><ele>756.0</ele><time>2026-04-19T08:41:02.999Z</time></trkpt><trkpt lat="41.14416874929382" lon="15.348821550234083"><ele>755.1999999999999</ele><time>2026-04-19T08:41:04.999Z</time></trkpt><trkpt lat="41.144247003393595" lon="15.348861607111637"><ele>754.4</ele><time>2026-04-19T08:41:05.999Z</time></trkpt><trkpt lat="41.14435013062205" lon="15.348875342171784"><ele>753.6</ele><time>2026-04-19T08:41:07.999Z</time></trkpt><trkpt lat="41.144372631473274" lon="15.348753490376765"><ele>752.8</ele><time>2026-04-19T08:41:09.999Z</time></trkpt><trkpt lat="41.144453664361244" lon="15.348674543032953"><ele>752.0</ele><time>2026-04-19T08:41:11.999Z</time></trkpt><trkpt lat="41.1445499995464" lon="15.348611601734392"><ele>752.0</ele><time>2026-04-19T08:41:13.999Z</time></trkpt><trkpt lat="41.144619987738956" lon="15.348659049628823"><ele>752.0</ele><time>2026-04-19T08:41:16.999Z</time></trkpt><trkpt lat="41.14464468624565" lon="15.348531798681455"><ele>752.0</ele><time>2026-04-19T08:41:19.999Z</time></trkpt><trkpt lat="41.144644509727314" lon="15.34837290149215"><ele>752.0</ele><time>2026-04-19T08:41:21.999Z</time></trkpt><trkpt lat="41.14474069128156" lon="15.348266067702543"><ele>752.0</ele><time>2026-04-19T08:41:23.999Z</time></trkpt><trkpt lat="41.14479073859053" lon="15.348175301289276"><ele>752.0</ele><time>2026-04-19T08:41:25.999Z</time></trkpt><trkpt lat="41.1448446510678" lon="15.348122424283098"><ele>752.0</ele><time>2026-04-19T08:41:32.999Z</time></trkpt><trkpt lat="41.14488892165839" lon="15.348021198196538"><ele>752.0</ele><time>2026-04-19T08:41:34.999Z</time></trkpt><trkpt lat="41.144962275301374" lon="15.347949454465136"><ele>752.0</ele><time>2026-04-19T08:41:36.999Z</time></trkpt><trkpt lat="41.14505197786307" lon="15.347878485503793"><ele>752.0</ele><time>2026-04-19T08:41:40.999Z</time></trkpt><trkpt lat="41.14507750523468" lon="15.347799301924084"><ele>752.0</ele><time>2026-04-19T08:41:42.999Z</time></trkpt><trkpt lat="41.145098572455176" lon="15.347702940758547"><ele>755.8333333333333</ele><time>2026-04-19T08:46:25Z</time></trkpt><trkpt lat="41.14516293090518" lon="15.34768418116495"><ele>759.6666666666666</ele><time>2026-04-19T08:57:59.999Z</time></trkpt><trkpt lat="41.145227634661815" lon="15.347677334062475"><ele>763.5</ele><time>2026-04-19T08:58:16.999Z</time></trkpt><trkpt lat="41.14529292605196" lon="15.347624146563687"><ele>767.3333333333333</ele><time>2026-04-19T08:58:25.999Z</time></trkpt><trkpt lat="41.145356374915984" lon="15.347506072179986"><ele>771.1666666666666</ele><time>2026-04-19T08:58:27.999Z</time></trkpt><trkpt lat="41.14542116385891" lon="15.347499370408466"><ele>775.0</ele><time>2026-04-19T08:59:02Z</time></trkpt><trkpt lat="41.14547960866409" lon="15.34756043214554"><ele>774.9999999999999</ele><time>2026-04-19T08:59:32Z</time></trkpt><trkpt lat="41.14553690947884" lon="15.347511744714073"><ele>775.0</ele><time>2026-04-19T08:59:37.999Z</time></trkpt><trkpt lat="41.1456022018917" lon="15.347459397958001"><ele>775.0</ele><time>2026-04-19T08:59:41.999Z</time></trkpt><trkpt lat="41.14564763328704" lon="15.347388709094824"><ele>775.0</ele><time>2026-04-19T08:59:43.999Z</time></trkpt><trkpt lat="41.14569724075989" lon="15.347315130333294"><ele>775.0</ele><time>2026-04-19T08:59:45.999Z</time></trkpt><trkpt lat="41.14575476850848" lon="15.347277092992242"><ele>774.9999999999999</ele><time>2026-04-19T08:59:47.999Z</time></trkpt><trkpt lat="41.14580481386541" lon="15.347221605070116"><ele>775.0</ele><time>2026-04-19T08:59:49.999Z</time></trkpt><trkpt lat="41.14585037043237" lon="15.34710051806731"><ele>776.8333333333333</ele><time>2026-04-19T08:59:51.999Z</time></trkpt><trkpt lat="41.145906187161394" lon="15.346971861201476"><ele>778.6666666666666</ele><time>2026-04-19T08:59:53.999Z</time></trkpt><trkpt lat="41.14598612438353" lon="15.346937145590882"><ele>780.5</ele><time>2026-04-19T09:00:11.999Z</time></trkpt><trkpt lat="41.14604906398018" lon="15.346941906750853"><ele>782.3333333333333</ele><time>2026-04-19T09:00:13.999Z</time></trkpt><trkpt lat="41.146125928747516" lon="15.346946718820005"><ele>784.1666666666666</ele><time>2026-04-19T09:00:15.999Z</time></trkpt><trkpt lat="41.146201018536324" lon="15.34695180498796"><ele>786.0</ele><time>2026-04-19T09:00:16.999Z</time></trkpt><trkpt lat="41.14628376598216" lon="15.346948793096297"><ele>786.0</ele><time>2026-04-19T09:00:17.999Z</time></trkpt><trkpt lat="41.146367747469824" lon="15.346940353082156"><ele>786.0</ele><time>2026-04-19T09:00:18.999Z</time></trkpt><trkpt lat="41.146453888654335" lon="15.346929588601567"><ele>786.0</ele><time>2026-04-19T09:00:19.999Z</time></trkpt><trkpt lat="41.146529481607516" lon="15.346918008028224"><ele>786.0</ele><time>2026-04-19T09:00:20.999Z</time></trkpt><trkpt lat="41.14660102675569" lon="15.346915668786808"><ele>786.0</ele><time>2026-04-19T09:00:21.999Z</time></trkpt><trkpt lat="41.14663891315487" lon="15.34699724984515"><ele>786.0</ele><time>2026-04-19T09:00:24.999Z</time></trkpt><trkpt lat="41.1465594454405" lon="15.347080384814177"><ele>786.0</ele><time>2026-04-19T09:00:26.999Z</time></trkpt><trkpt lat="41.14649417470111" lon="15.347142865951442"><ele>786.0</ele><time>2026-04-19T09:00:27.999Z</time></trkpt><trkpt lat="41.14643141795156" lon="15.347238733921898"><ele>786.0</ele><time>2026-04-19T09:00:28.999Z</time></trkpt><trkpt lat="41.14639313776035" lon="15.347345543822598"><ele>786.0</ele><time>2026-04-19T09:00:29.999Z</time></trkpt><trkpt lat="41.14636103313508" lon="15.347452267088196"><ele>786.0</ele><time>2026-04-19T09:00:30.999Z</time></trkpt><trkpt lat="41.146322038412386" lon="15.34756119077103"><ele>786.0</ele><time>2026-04-19T09:00:31.999Z</time></trkpt><trkpt lat="41.14628242626067" lon="15.347684402020965"><ele>784.1999999999999</ele><time>2026-04-19T09:00:32.999Z</time></trkpt><trkpt lat="41.14625434130804" lon="15.347801215281665"><ele>782.4</ele><time>2026-04-19T09:00:33.999Z</time></trkpt><trkpt lat="41.14622558666127" lon="15.347906820042523"><ele>780.6</ele><time>2026-04-19T09:00:34.999Z</time></trkpt><trkpt lat="41.14620079074293" lon="15.34802393972952"><ele>778.8</ele><time>2026-04-19T09:00:35.999Z</time></trkpt><trkpt lat="41.14617187538609" lon="15.348161649736062"><ele>777.0</ele><time>2026-04-19T09:00:36.999Z</time></trkpt><trkpt lat="41.146108561466214" lon="15.348318555503099"><ele>770.5</ele><time>2026-04-19T09:00:37.999Z</time></trkpt><trkpt lat="41.14604161898616" lon="15.34846742909594"><ele>764.0</ele><time>2026-04-19T09:00:38.999Z</time></trkpt><trkpt lat="41.14598863309742" lon="15.348639714859571"><ele>757.5</ele><time>2026-04-19T09:00:39.999Z</time></trkpt><trkpt lat="41.14594041207988" lon="15.348816262626519"><ele>751.0</ele><time>2026-04-19T09:00:40.999Z</time></trkpt><trkpt lat="41.14589857651821" lon="15.34898673574853"><ele>744.0</ele><time>2026-04-19T09:00:41.999Z</time></trkpt><trkpt lat="41.14586747522955" lon="15.349132570448091"><ele>737.0</ele><time>2026-04-19T09:00:42.999Z</time></trkpt><trkpt lat="41.14582927086917" lon="15.349258171974855"><ele>730.0</ele><time>2026-04-19T09:00:43.999Z</time></trkpt><trkpt lat="41.14578576731424" lon="15.349401212920414"><ele>723.0</ele><time>2026-04-19T09:00:44.999Z</time></trkpt><trkpt lat="41.145742148364135" lon="15.349546854789917"><ele>723.0</ele><time>2026-04-19T09:00:45.999Z</time></trkpt><trkpt lat="41.1456957403359" lon="15.349693771205548"><ele>723.0</ele><time>2026-04-19T09:00:46.999Z</time></trkpt><trkpt lat="41.145647673190965" lon="15.349824727469244"><ele>723.0</ele><time>2026-04-19T09:00:47.999Z</time></trkpt><trkpt lat="41.14561085337125" lon="15.3499201249777"><ele>723.0</ele><time>2026-04-19T09:00:48.999Z</time></trkpt><trkpt lat="41.145597258167356" lon="15.350019456452625"><ele>723.0</ele><time>2026-04-19T09:00:49.999Z</time></trkpt><trkpt lat="41.1455714841561" lon="15.350156769113154"><ele>718.4</ele><time>2026-04-19T09:00:51.999Z</time></trkpt><trkpt lat="41.145638243191435" lon="15.350213611812267"><ele>713.8</ele><time>2026-04-19T09:00:55Z</time></trkpt><trkpt lat="41.1457316339509" lon="15.350233751125847"><ele>709.2</ele><time>2026-04-19T09:00:56Z</time></trkpt><trkpt lat="41.14583580995639" lon="15.350268818428113"><ele>704.6</ele><time>2026-04-19T09:00:57Z</time></trkpt><trkpt lat="41.1459116044978" lon="15.350318275564378"><ele>700.0</ele><time>2026-04-19T09:00:58Z</time></trkpt><trkpt lat="41.14593305823715" lon="15.35044753438633"><ele>700.0</ele><time>2026-04-19T09:00:59Z</time></trkpt><trkpt lat="41.14604544213743" lon="15.350460134678697"><ele>700.0</ele><time>2026-04-19T09:01:01Z</time></trkpt><trkpt lat="41.14612163442965" lon="15.35045137620623"><ele>700.0</ele><time>2026-04-19T09:01:03Z</time></trkpt><trkpt lat="41.14616420521463" lon="15.349980630865906"><ele>700.0</ele><time>2026-04-19T09:01:04Z</time></trkpt><trkpt lat="41.14620708688049" lon="15.349853094428179"><ele>700.0</ele><time>2026-04-19T09:01:05Z</time></trkpt><trkpt lat="41.14625538240939" lon="15.349708772842666"><ele>700.0</ele><time>2026-04-19T09:01:06Z</time></trkpt><trkpt lat="41.14631333540507" lon="15.349592216723828"><ele>700.0</ele><time>2026-04-19T09:01:07Z</time></trkpt><trkpt lat="41.14644562464922" lon="15.349550027459685"><ele>704.6</ele><time>2026-04-19T09:01:09Z</time></trkpt><trkpt lat="41.146512765642754" lon="15.349518016102202"><ele>709.2</ele><time>2026-04-19T09:01:10Z</time></trkpt><trkpt lat="41.14666704031299" lon="15.349461510481397"><ele>713.8</ele><time>2026-04-19T09:01:11Z</time></trkpt><trkpt lat="41.146747022119385" lon="15.349387439878466"><ele>718.4</ele><time>2026-04-19T09:01:12Z</time></trkpt><trkpt lat="41.146834823599185" lon="15.3493156579756"><ele>723.0</ele><time>2026-04-19T09:01:13Z</time></trkpt><trkpt lat="41.14693812897569" lon="15.3492547349748"><ele>724.0</ele><time>2026-04-19T09:01:14Z</time></trkpt><trkpt lat="41.14700894373744" lon="15.349209596049342"><ele>725.0</ele><time>2026-04-19T09:01:15Z</time></trkpt><trkpt lat="41.147071814284516" lon="15.349318087239364"><ele>726.0</ele><time>2026-04-19T09:01:17Z</time></trkpt><trkpt lat="41.14710018206167" lon="15.349413701591175"><ele>727.0</ele><time>2026-04-19T09:01:18Z</time></trkpt><trkpt lat="41.147128399553104" lon="15.349507960127982"><ele>728.0</ele><time>2026-04-19T09:01:19Z</time></trkpt><trkpt lat="41.147138247782046" lon="15.349603102328041"><ele>729.0</ele><time>2026-04-19T09:01:20Z</time></trkpt><trkpt lat="41.1471375982926" lon="15.349743025632444"><ele>726.6</ele><time>2026-04-19T09:01:21Z</time></trkpt><trkpt lat="41.14716834631878" lon="15.349898656014195"><ele>724.2</ele><time>2026-04-19T09:01:22Z</time></trkpt><trkpt lat="41.14722183909375" lon="15.350056088746477"><ele>721.8000000000001</ele><time>2026-04-19T09:01:22.999Z</time></trkpt><trkpt lat="41.14725783589415" lon="15.350187539000089"><ele>719.4000000000001</ele><time>2026-04-19T09:01:23.999Z</time></trkpt><trkpt lat="41.14725936045661" lon="15.350290680442116"><ele>717.0</ele><time>2026-04-19T09:01:24.999Z</time></trkpt><trkpt lat="41.147352252408744" lon="15.350309191269542"><ele>722.6666666666666</ele><time>2026-04-19T09:01:27.999Z</time></trkpt><trkpt lat="41.14743321038197" lon="15.350314564510805"><ele>728.3333333333334</ele><time>2026-04-19T09:01:28.999Z</time></trkpt><trkpt lat="41.14749998161536" lon="15.350319674901103"><ele>734.0</ele><time>2026-04-19T09:01:29.999Z</time></trkpt><trkpt lat="41.14757538342888" lon="15.3503587856659"><ele>739.6666666666667</ele><time>2026-04-19T09:01:30.999Z</time></trkpt><trkpt lat="41.147689796438385" lon="15.350360976109478"><ele>745.3333333333334</ele><time>2026-04-19T09:01:31.999Z</time></trkpt><trkpt lat="41.14779174733623" lon="15.350358389313064"><ele>751.0</ele><time>2026-04-19T09:01:32.999Z</time></trkpt><trkpt lat="41.1478714066587" lon="15.35035218734978"><ele>751.0</ele><time>2026-04-19T09:01:33.999Z</time></trkpt><trkpt lat="41.14794517876933" lon="15.350388427332492"><ele>751.0</ele><time>2026-04-19T09:01:34.999Z</time></trkpt><trkpt lat="41.14802151431676" lon="15.350432495129752"><ele>751.0</ele><time>2026-04-19T09:01:35.999Z</time></trkpt><trkpt lat="41.14810155685813" lon="15.35045871030217"><ele>751.0</ele><time>2026-04-19T09:01:36.999Z</time></trkpt><trkpt lat="41.148168923545015" lon="15.35049060573407"><ele>751.0</ele><time>2026-04-19T09:01:37.999Z</time></trkpt><trkpt lat="41.14824443808374" lon="15.350465167022287"><ele>751.0</ele><time>2026-04-19T09:01:39.999Z</time></trkpt><trkpt lat="41.148340689941165" lon="15.350435227478101"><ele>757.5999999999999</ele><time>2026-04-19T09:01:41.999Z</time></trkpt><trkpt lat="41.14848007929433" lon="15.350472486419227"><ele>764.2</ele><time>2026-04-19T09:01:43.999Z</time></trkpt><trkpt lat="41.148567743850926" lon="15.35052155222119"><ele>770.8</ele><time>2026-04-19T09:01:44.999Z</time></trkpt><trkpt lat="41.14860731797846" lon="15.350612624988436"><ele>777.4000000000001</ele><time>2026-04-19T09:01:47.999Z</time></trkpt><trkpt lat="41.148651361437416" lon="15.350535230161514"><ele>784.0</ele><time>2026-04-19T09:01:53.999Z</time></trkpt><trkpt lat="41.14866798225167" lon="15.350432117503741"><ele>784.0</ele><time>2026-04-19T09:01:57.999Z</time></trkpt><trkpt lat="41.1486593231703" lon="15.350339172954248"><ele>784.0</ele><time>2026-04-19T09:02:03.999Z</time></trkpt><trkpt lat="41.14867390337841" lon="15.350254522197536"><ele>784.0</ele><time>2026-04-19T09:02:17.999Z</time></trkpt><trkpt lat="41.14870149121138" lon="15.350175519523486"><ele>784.0</ele><time>2026-04-19T09:02:29.999Z</time></trkpt><trkpt lat="41.14876108268788" lon="15.350133641707298"><ele>784.0</ele><time>2026-04-19T09:02:43.999Z</time></trkpt><trkpt lat="41.14884864556968" lon="15.350133634911066"><ele>784.0</ele><time>2026-04-19T09:02:46.999Z</time></trkpt><trkpt lat="41.14891667710669" lon="15.350128755889003"><ele>784.0</ele><time>2026-04-19T09:02:47.999Z</time></trkpt><trkpt lat="41.14899135012987" lon="15.350132837735636"><ele>782.9999999999999</ele><time>2026-04-19T09:02:48.999Z</time></trkpt><trkpt lat="41.14905701138997" lon="15.350154140781463"><ele>782.0</ele><time>2026-04-19T09:02:50.999Z</time></trkpt><trkpt lat="41.14912508089455" lon="15.350163823536846"><ele>781.0</ele><time>2026-04-19T09:02:54.999Z</time></trkpt><trkpt lat="41.14920397142454" lon="15.350168661844771"><ele>780.0</ele><time>2026-04-19T09:02:57.999Z</time></trkpt><trkpt lat="41.14927340834979" lon="15.350156359166872"><ele>778.9999999999999</ele><time>2026-04-19T09:02:59.999Z</time></trkpt><trkpt lat="41.14936595611447" lon="15.350099047927761"><ele>778.0</ele><time>2026-04-19T09:03:01.999Z</time></trkpt><trkpt lat="41.149427024139705" lon="15.350044835968461"><ele>778.0</ele><time>2026-04-19T09:03:02.999Z</time></trkpt><trkpt lat="41.14953442486107" lon="15.349957821995297"><ele>778.0</ele><time>2026-04-19T09:03:04.999Z</time></trkpt><trkpt lat="41.1496188380347" lon="15.349880388143989"><ele>778.0</ele><time>2026-04-19T09:03:06.999Z</time></trkpt><trkpt lat="41.149738025324325" lon="15.349822918964046"><ele>778.0</ele><time>2026-04-19T09:03:08.999Z</time></trkpt><trkpt lat="41.14984164233272" lon="15.349793600039622"><ele>772.2</ele><time>2026-04-19T09:03:10.999Z</time></trkpt><trkpt lat="41.14993122483347" lon="15.349848486211721"><ele>766.4</ele><time>2026-04-19T09:03:13.999Z</time></trkpt><trkpt lat="41.15004076075622" lon="15.349824674049737"><ele>760.6</ele><time>2026-04-19T09:03:15.999Z</time></trkpt><trkpt lat="41.150094610230184" lon="15.3497542883656"><ele>754.8000000000001</ele><time>2026-04-19T09:03:16.999Z</time></trkpt><trkpt lat="41.15020416346481" lon="15.349739533532576"><ele>749.0</ele><time>2026-04-19T09:03:18.999Z</time></trkpt><trkpt lat="41.15026470925685" lon="15.349769796803715"><ele>749.0</ele><time>2026-04-19T09:03:19.999Z</time></trkpt><trkpt lat="41.150356622570676" lon="15.349751019974692"><ele>749.0</ele><time>2026-04-19T09:03:21.999Z</time></trkpt><trkpt lat="41.150417606154896" lon="15.349703178554996"><ele>749.0</ele><time>2026-04-19T09:03:22.999Z</time></trkpt><trkpt lat="41.15051628246413" lon="15.349671040937755"><ele>749.0</ele><time>2026-04-19T09:03:24.999Z</time></trkpt><trkpt lat="41.150618885605915" lon="15.349655013393601"><ele>749.0</ele><time>2026-04-19T09:03:26.999Z</time></trkpt><trkpt lat="41.15077985193873" lon="15.34958248399653"><ele>742.6</ele><time>2026-04-19T09:03:30.999Z</time></trkpt><trkpt lat="41.15087273115611" lon="15.349543269551187"><ele>736.2</ele><time>2026-04-19T09:03:32.999Z</time></trkpt><trkpt lat="41.15098654832657" lon="15.349544104077951"><ele>729.8000000000001</ele><time>2026-04-19T09:03:34.999Z</time></trkpt><trkpt lat="41.15107610136859" lon="15.349569919549202"><ele>723.4000000000001</ele><time>2026-04-19T09:03:36.999Z</time></trkpt><trkpt lat="41.15118315557524" lon="15.34956555377058"><ele>717.0</ele><time>2026-04-19T09:03:38.999Z</time></trkpt><trkpt lat="41.15124083702194" lon="15.349601252832837"><ele>717.0</ele><time>2026-04-19T09:03:39.999Z</time></trkpt><trkpt lat="41.15130958218723" lon="15.349671206156076"><ele>717.0</ele><time>2026-04-19T09:03:40.999Z</time></trkpt><trkpt lat="41.151370160704666" lon="15.349742364345026"><ele>717.0</ele><time>2026-04-19T09:03:41.999Z</time></trkpt><trkpt lat="41.15141293659082" lon="15.349815773918442"><ele>717.0</ele><time>2026-04-19T09:03:42.999Z</time></trkpt><trkpt lat="41.151443953412254" lon="15.349930325563681"><ele>717.0</ele><time>2026-04-19T09:03:43.999Z</time></trkpt><trkpt lat="41.15146564544787" lon="15.350045083968954"><ele>717.0</ele><time>2026-04-19T09:03:44.999Z</time></trkpt><trkpt lat="41.15148590469848" lon="15.350131726234926"><ele>716.8</ele><time>2026-04-19T09:03:45.999Z</time></trkpt><trkpt lat="41.15151141918139" lon="15.350299918209933"><ele>716.6</ele><time>2026-04-19T09:03:47.999Z</time></trkpt><trkpt lat="41.15150836254269" lon="15.350416296337372"><ele>716.4</ele><time>2026-04-19T09:03:48.999Z</time></trkpt><trkpt lat="41.15150873718695" lon="15.350528658000787"><ele>716.1999999999999</ele><time>2026-04-19T09:03:49.999Z</time></trkpt><trkpt lat="41.151504143695455" lon="15.350634229042834"><ele>716.0</ele><time>2026-04-19T09:03:50.999Z</time></trkpt><trkpt lat="41.15151013409621" lon="15.350750929473605"><ele>716.0</ele><time>2026-04-19T09:03:51.999Z</time></trkpt><trkpt lat="41.15150341744768" lon="15.350867928087553"><ele>716.0</ele><time>2026-04-19T09:03:52.999Z</time></trkpt><trkpt lat="41.15150104753369" lon="15.350970769280998"><ele>716.0</ele><time>2026-04-19T09:03:53.999Z</time></trkpt><trkpt lat="41.15149406916808" lon="15.351069464468473"><ele>716.0</ele><time>2026-04-19T09:03:54.999Z</time></trkpt><trkpt lat="41.15146815007319" lon="15.351184690045951"><ele>716.0</ele><time>2026-04-19T09:03:55.999Z</time></trkpt><trkpt lat="41.15144499229998" lon="15.351331972389486"><ele>716.0</ele><time>2026-04-19T09:03:56.999Z</time></trkpt><trkpt lat="41.15142394944548" lon="15.351452706079831"><ele>714.5</ele><time>2026-04-19T09:03:57.999Z</time></trkpt><trkpt lat="41.15140895716596" lon="15.351548767055837"><ele>713.0</ele><time>2026-04-19T09:03:58.999Z</time></trkpt><trkpt lat="41.15140260401242" lon="15.351638987915175"><ele>711.5</ele><time>2026-04-19T09:03:59.999Z</time></trkpt><trkpt lat="41.1513754948157" lon="15.351761295314851"><ele>710.0</ele><time>2026-04-19T09:04:00.999Z</time></trkpt><trkpt lat="41.15133429611222" lon="15.351857899304303"><ele>708.5</ele><time>2026-04-19T09:04:01.999Z</time></trkpt><trkpt lat="41.15127259683644" lon="15.351948543503628"><ele>707.0</ele><time>2026-04-19T09:04:02.999Z</time></trkpt><trkpt lat="41.15119789518646" lon="15.352059951417608"><ele>707.0</ele><time>2026-04-19T09:04:03.999Z</time></trkpt><trkpt lat="41.15114314700565" lon="15.352172558321936"><ele>707.0</ele><time>2026-04-19T09:04:04.999Z</time></trkpt><trkpt lat="41.151094305151254" lon="15.352308258295292"><ele>707.0</ele><time>2026-04-19T09:04:05.999Z</time></trkpt><trkpt lat="41.15105774136153" lon="15.352416924995152"><ele>707.0</ele><time>2026-04-19T09:04:06.999Z</time></trkpt><trkpt lat="41.1510255830923" lon="15.352539700418578"><ele>707.0</ele><time>2026-04-19T09:04:07.999Z</time></trkpt><trkpt lat="41.15100968635868" lon="15.352659970477008"><ele>703.5</ele><time>2026-04-19T09:04:08.999Z</time></trkpt><trkpt lat="41.15100222892519" lon="15.352763388227098"><ele>700.0</ele><time>2026-04-19T09:04:09.999Z</time></trkpt><trkpt lat="41.15098777560781" lon="15.352851209058203"><ele>696.5</ele><time>2026-04-19T09:04:21.999Z</time></trkpt><trkpt lat="41.150949481150754" lon="15.352952029801177"><ele>693.0</ele><time>2026-04-19T09:04:25.999Z</time></trkpt><trkpt lat="41.15087596524303" lon="15.353063680358671"><ele>689.5</ele><time>2026-04-19T09:04:27.999Z</time></trkpt><trkpt lat="41.15081643088097" lon="15.35314948035206"><ele>686.0</ele><time>2026-04-19T09:04:28.999Z</time></trkpt><trkpt lat="41.15076682913156" lon="15.353223273671052"><ele>687.8</ele><time>2026-04-19T09:04:29.999Z</time></trkpt><trkpt lat="41.15070489750095" lon="15.353316117064523"><ele>689.5999999999999</ele><time>2026-04-19T09:04:30.999Z</time></trkpt><trkpt lat="41.15063620419849" lon="15.353425523645555"><ele>691.4</ele><time>2026-04-19T09:04:31.999Z</time></trkpt><trkpt lat="41.150583813806925" lon="15.35358408922036"><ele>693.2</ele><time>2026-04-19T09:04:32.999Z</time></trkpt><trkpt lat="41.150536535171405" lon="15.353717128761998"><ele>695.0</ele><time>2026-04-19T09:04:33.999Z</time></trkpt><trkpt lat="41.15050712807122" lon="15.353827588066652"><ele>691.0</ele><time>2026-04-19T09:04:34.999Z</time></trkpt><trkpt lat="41.15047656543174" lon="15.353951913471429"><ele>687.0</ele><time>2026-04-19T09:04:35.999Z</time></trkpt><trkpt lat="41.1504611252842" lon="15.3540696467485"><ele>683.0</ele><time>2026-04-19T09:04:36.999Z</time></trkpt><trkpt lat="41.150418973970176" lon="15.354165716946387"><ele>679.0</ele><time>2026-04-19T09:04:37.999Z</time></trkpt><trkpt lat="41.150371831650254" lon="15.354279746980433"><ele>675.0</ele><time>2026-04-19T09:04:38.999Z</time></trkpt><trkpt lat="41.150308937140096" lon="15.354389133405784"><ele>675.0</ele><time>2026-04-19T09:04:39.999Z</time></trkpt><trkpt lat="41.1502365320499" lon="15.35448035129918"><ele>675.0</ele><time>2026-04-19T09:04:40.999Z</time></trkpt><trkpt lat="41.15017047874004" lon="15.354539455982826"><ele>675.0</ele><time>2026-04-19T09:04:41.999Z</time></trkpt><trkpt lat="41.150106900136926" lon="15.35458655485694"><ele>675.0</ele><time>2026-04-19T09:04:42.999Z</time></trkpt><trkpt lat="41.15009819676651" lon="15.354677514988529"><ele>675.0</ele><time>2026-04-19T09:04:44.999Z</time></trkpt><trkpt lat="41.1501724200758" lon="15.354687412292646"><ele>675.0</ele><time>2026-04-19T09:04:47.999Z</time></trkpt><trkpt lat="41.15028111283267" lon="15.354733693266448"><ele>673.3333333333334</ele><time>2026-04-19T09:04:48.999Z</time></trkpt><trkpt lat="41.15040245266279" lon="15.354790848065013"><ele>671.6666666666666</ele><time>2026-04-19T09:04:49.999Z</time></trkpt><trkpt lat="41.150473198583526" lon="15.354815698587261"><ele>670.0</ele><time>2026-04-19T09:04:50.999Z</time></trkpt><trkpt lat="41.1505394344334" lon="15.354820700678667"><ele>668.3333333333333</ele><time>2026-04-19T09:04:51.999Z</time></trkpt><trkpt lat="41.15059700384831" lon="15.354772915118211"><ele>666.6666666666666</ele><time>2026-04-19T09:04:52.999Z</time></trkpt><trkpt lat="41.15068176185082" lon="15.354715395168402"><ele>665.0</ele><time>2026-04-19T09:04:53.999Z</time></trkpt><trkpt lat="41.15078347027693" lon="15.354670158438214"><ele>664.3333333333333</ele><time>2026-04-19T09:04:54.999Z</time></trkpt><trkpt lat="41.150860902494614" lon="15.354613685770127"><ele>663.6666666666666</ele><time>2026-04-19T09:04:55.999Z</time></trkpt><trkpt lat="41.15094766353479" lon="15.354573298910408"><ele>663.0</ele><time>2026-04-19T09:04:56.999Z</time></trkpt><trkpt lat="41.15102440622704" lon="15.354514461970757"><ele>662.3333333333334</ele><time>2026-04-19T09:04:57.999Z</time></trkpt><trkpt lat="41.15110027190149" lon="15.354458317863694"><ele>661.6666666666667</ele><time>2026-04-19T09:04:58.999Z</time></trkpt><trkpt lat="41.15116525734688" lon="15.354417524212757"><ele>661.0</ele><time>2026-04-19T09:04:59.999Z</time></trkpt><trkpt lat="41.151229350833816" lon="15.354389916670595"><ele>661.0</ele><time>2026-04-19T09:05:00.999Z</time></trkpt><trkpt lat="41.15129317686956" lon="15.354349185536634"><ele>661.0</ele><time>2026-04-19T09:05:02.999Z</time></trkpt><trkpt lat="41.15134236146148" lon="15.35425556395502"><ele>661.0</ele><time>2026-04-19T09:05:04.999Z</time></trkpt><trkpt lat="41.151430692961725" lon="15.354138162252397"><ele>661.0</ele><time>2026-04-19T09:05:06.999Z</time></trkpt><trkpt lat="41.15151836030281" lon="15.354080371647589"><ele>661.0</ele><time>2026-04-19T09:05:07.999Z</time></trkpt><trkpt lat="41.151605576278484" lon="15.35400112181914"><ele>658.8</ele><time>2026-04-19T09:05:08.999Z</time></trkpt><trkpt lat="41.15168057795192" lon="15.353886155826995"><ele>656.5999999999999</ele><time>2026-04-19T09:05:09.999Z</time></trkpt><trkpt lat="41.15176008721342" lon="15.35375848190288"><ele>654.4</ele><time>2026-04-19T09:05:10.999Z</time></trkpt><trkpt lat="41.15185248193396" lon="15.353651691111793"><ele>652.2</ele><time>2026-04-19T09:05:12Z</time></trkpt><trkpt lat="41.15191389715068" lon="15.353625173002284"><ele>650.0</ele><time>2026-04-19T09:05:13Z</time></trkpt><trkpt lat="41.15200748263899" lon="15.353590187667416"><ele>650.0</ele><time>2026-04-19T09:05:15Z</time></trkpt><trkpt lat="41.15207610396056" lon="15.353538220382084"><ele>650.0</ele><time>2026-04-19T09:05:16Z</time></trkpt><trkpt lat="41.15217133988714" lon="15.353474961615065"><ele>650.0</ele><time>2026-04-19T09:05:17Z</time></trkpt><trkpt lat="41.15226959059739" lon="15.353392587995968"><ele>650.0</ele><time>2026-04-19T09:05:18Z</time></trkpt><trkpt lat="41.15235675541016" lon="15.353328282444986"><ele>650.0</ele><time>2026-04-19T09:05:19Z</time></trkpt><trkpt lat="41.15245130915994" lon="15.353248153586689"><ele>645.75</ele><time>2026-04-19T09:05:21Z</time></trkpt><trkpt lat="41.152536437387504" lon="15.353140519985754"><ele>641.5</ele><time>2026-04-19T09:05:23Z</time></trkpt><trkpt lat="41.152677024238976" lon="15.353065943603823"><ele>637.25</ele><time>2026-04-19T09:05:25Z</time></trkpt><trkpt lat="41.152739439742916" lon="15.35301841038877"><ele>633.0</ele><time>2026-04-19T09:05:26Z</time></trkpt><trkpt lat="41.152836748339865" lon="15.352888878095724"><ele>633.0</ele><time>2026-04-19T09:05:28Z</time></trkpt><trkpt lat="41.1528876308366" lon="15.352818400968875"><ele>633.0</ele><time>2026-04-19T09:05:29Z</time></trkpt><trkpt lat="41.15294036799018" lon="15.352731735793999"><ele>633.0</ele><time>2026-04-19T09:05:30Z</time></trkpt><trkpt lat="41.15298089047614" lon="15.35265348092118"><ele>633.0</ele><time>2026-04-19T09:05:31Z</time></trkpt><trkpt lat="41.153033676811646" lon="15.352586956240627"><ele>633.0</ele><time>2026-04-19T09:05:32Z</time></trkpt><trkpt lat="41.153084740857636" lon="15.352535398149927"><ele>633.0</ele><time>2026-04-19T09:05:33Z</time></trkpt><trkpt lat="41.1531363691265" lon="15.352399133823681"><ele>633.0</ele><time>2026-04-19T09:05:35Z</time></trkpt><trkpt lat="41.15315193757652" lon="15.352315196105307"><ele>633.0</ele><time>2026-04-19T09:05:36Z</time></trkpt><trkpt lat="41.15317123945507" lon="15.35222673270111"><ele>633.0</ele><time>2026-04-19T09:05:37Z</time></trkpt><trkpt lat="41.15318403613161" lon="15.35213940749534"><ele>633.0</ele><time>2026-04-19T09:05:38Z</time></trkpt><trkpt lat="41.153217292189765" lon="15.351998452716122"><ele>633.0</ele><time>2026-04-19T09:05:40Z</time></trkpt><trkpt lat="41.15322981421491" lon="15.351878133110988"><ele>633.0</ele><time>2026-04-19T09:05:42Z</time></trkpt><trkpt lat="41.15323702599182" lon="15.351763808494466"><ele>631.0</ele><time>2026-04-19T09:05:44Z</time></trkpt><trkpt lat="41.15329083394201" lon="15.351659749032699"><ele>629.0</ele><time>2026-04-19T09:05:46Z</time></trkpt><trkpt lat="41.153334097303855" lon="15.351597185979761"><ele>627.0</ele><time>2026-04-19T09:05:47Z</time></trkpt><trkpt lat="41.15338788401347" lon="15.351469852144433"><ele>625.0</ele><time>2026-04-19T09:05:49Z</time></trkpt><trkpt lat="41.15345438408892" lon="15.351315599202659"><ele>623.0</ele><time>2026-04-19T09:05:51Z</time></trkpt><trkpt lat="41.15349536077356" lon="15.351222239974451"><ele>623.0</ele><time>2026-04-19T09:05:52Z</time></trkpt><trkpt lat="41.1535262454174" lon="15.351143449526024"><ele>623.0</ele><time>2026-04-19T09:05:53Z</time></trkpt><trkpt lat="41.153561026881604" lon="15.350982985412395"><ele>623.0</ele><time>2026-04-19T09:05:55Z</time></trkpt><trkpt lat="41.15361043520167" lon="15.35089645566033"><ele>623.0</ele><time>2026-04-19T09:05:56Z</time></trkpt><trkpt lat="41.15367641843992" lon="15.350802961709958"><ele>623.0</ele><time>2026-04-19T09:05:57Z</time></trkpt><trkpt lat="41.15374339203504" lon="15.35072148722585"><ele>623.0</ele><time>2026-04-19T09:05:58Z</time></trkpt><trkpt lat="41.153832950028985" lon="15.35064272374803"><ele>623.0</ele><time>2026-04-19T09:05:59Z</time></trkpt><trkpt lat="41.15392489600382" lon="15.350575060800367"><ele>623.0</ele><time>2026-04-19T09:06:00Z</time></trkpt><trkpt lat="41.1540083832133" lon="15.35052019501185"><ele>623.0</ele><time>2026-04-19T09:06:01Z</time></trkpt><trkpt lat="41.15408388250112" lon="15.350463283576351"><ele>623.0</ele><time>2026-04-19T09:06:02Z</time></trkpt><trkpt lat="41.154168282629406" lon="15.350382084529608"><ele>623.3333333333333</ele><time>2026-04-19T09:06:03Z</time></trkpt><trkpt lat="41.15423293430527" lon="15.350300783966354"><ele>623.6666666666666</ele><time>2026-04-19T09:06:04Z</time></trkpt><trkpt lat="41.15429438439028" lon="15.35021980068114"><ele>624.0</ele><time>2026-04-19T09:06:05Z</time></trkpt><trkpt lat="41.15434867615217" lon="15.350127689987346"><ele>624.3333333333334</ele><time>2026-04-19T09:06:06Z</time></trkpt><trkpt lat="41.154401397763294" lon="15.350035367595881"><ele>624.6666666666667</ele><time>2026-04-19T09:06:07Z</time></trkpt><trkpt lat="41.15445093508753" lon="15.349951230268177"><ele>625.0</ele><time>2026-04-19T09:06:08Z</time></trkpt><trkpt lat="41.154497057282384" lon="15.34983679976841"><ele>625.6</ele><time>2026-04-19T09:06:09Z</time></trkpt><trkpt lat="41.154527290481575" lon="15.349675346319076"><ele>626.2</ele><time>2026-04-19T09:06:10Z</time></trkpt><trkpt lat="41.15455606022868" lon="15.349537041052956"><ele>626.8</ele><time>2026-04-19T09:06:11Z</time></trkpt><trkpt lat="41.15456494607832" lon="15.349379437450558"><ele>627.4</ele><time>2026-04-19T09:06:13Z</time></trkpt><trkpt lat="41.15456522906295" lon="15.349277116835061"><ele>628.0</ele><time>2026-04-19T09:06:14Z</time></trkpt><trkpt lat="41.154553068586004" lon="15.349177200937486"><ele>628.0</ele><time>2026-04-19T09:06:15Z</time></trkpt><trkpt lat="41.154503674261406" lon="15.34910150633679"><ele>628.0</ele><time>2026-04-19T09:06:16Z</time></trkpt><trkpt lat="41.154490571657426" lon="15.348994068395877"><ele>628.0</ele><time>2026-04-19T09:06:19Z</time></trkpt><trkpt lat="41.15447767060005" lon="15.348896970721478"><ele>628.0</ele><time>2026-04-19T09:06:21Z</time></trkpt><trkpt lat="41.15455256385334" lon="15.34885085817405"><ele>628.0</ele><time>2026-04-19T09:06:23Z</time></trkpt><trkpt lat="41.15462225686498" lon="15.348819678073097"><ele>628.0</ele><time>2026-04-19T09:06:24Z</time></trkpt><trkpt lat="41.1546827922386" lon="15.348784438044715"><ele>627.0</ele><time>2026-04-19T09:06:25Z</time></trkpt><trkpt lat="41.1547397798514" lon="15.348668714274343"><ele>626.0</ele><time>2026-04-19T09:06:27Z</time></trkpt><trkpt lat="41.15481700989014" lon="15.348515262911668"><ele>625.0</ele><time>2026-04-19T09:06:29Z</time></trkpt><trkpt lat="41.15485142396601" lon="15.348431093069717"><ele>624.0</ele><time>2026-04-19T09:06:30Z</time></trkpt><trkpt lat="41.15488484954838" lon="15.348335731168145"><ele>623.0</ele><time>2026-04-19T09:06:31Z</time></trkpt><trkpt lat="41.15492078310279" lon="15.348246724081655"><ele>619.6</ele><time>2026-04-19T09:06:32Z</time></trkpt><trkpt lat="41.154965910211445" lon="15.348161340432428"><ele>616.1999999999999</ele><time>2026-04-19T09:06:33Z</time></trkpt><trkpt lat="41.15502658298571" lon="15.348097858910815"><ele>612.8</ele><time>2026-04-19T09:06:34Z</time></trkpt><trkpt lat="41.15511379124367" lon="15.348016998447646"><ele>609.4</ele><time>2026-04-19T09:06:36Z</time></trkpt><trkpt lat="41.155202434788045" lon="15.347948768392744"><ele>606.0</ele><time>2026-04-19T09:06:38Z</time></trkpt><trkpt lat="41.155313756856366" lon="15.34797689620714"><ele>606.0</ele><time>2026-04-19T09:06:40Z</time></trkpt><trkpt lat="41.15536967404295" lon="15.347862716894058"><ele>606.0</ele><time>2026-04-19T09:06:44Z</time></trkpt><trkpt lat="41.1554055283988" lon="15.347727569056685"><ele>606.0</ele><time>2026-04-19T09:06:46Z</time></trkpt><trkpt lat="41.15545910790218" lon="15.347620558876697"><ele>606.0</ele><time>2026-04-19T09:06:49Z</time></trkpt><trkpt lat="41.15551285918055" lon="15.347506180178852"><ele>606.0</ele><time>2026-04-19T09:06:51Z</time></trkpt><trkpt lat="41.15557913876914" lon="15.347448112808626"><ele>606.0</ele><time>2026-04-19T09:06:53Z</time></trkpt><trkpt lat="41.1556862213268" lon="15.347429521166061"><ele>606.0</ele><time>2026-04-19T09:06:55Z</time></trkpt><trkpt lat="41.155790617099534" lon="15.34735609319502"><ele>606.0</ele><time>2026-04-19T09:06:57Z</time></trkpt><trkpt lat="41.155895326290214" lon="15.347310392910307"><ele>606.0</ele><time>2026-04-19T09:06:59Z</time></trkpt><trkpt lat="41.15594896616947" lon="15.347240376070719"><ele>606.0</ele><time>2026-04-19T09:07:00Z</time></trkpt><trkpt lat="41.15601216970385" lon="15.34718496879282"><ele>604.3333333333334</ele><time>2026-04-19T09:07:01Z</time></trkpt><trkpt lat="41.15606298071838" lon="15.347112166951643"><ele>602.6666666666666</ele><time>2026-04-19T09:07:02Z</time></trkpt><trkpt lat="41.15611378799714" lon="15.347050307399183"><ele>601.0</ele><time>2026-04-19T09:07:03Z</time></trkpt><trkpt lat="41.15616431863633" lon="15.3469943495441"><ele>599.3333333333333</ele><time>2026-04-19T09:07:05Z</time></trkpt><trkpt lat="41.1562380591579" lon="15.346939101329292"><ele>597.6666666666666</ele><time>2026-04-19T09:07:07Z</time></trkpt><trkpt lat="41.156316811347274" lon="15.34686047578796"><ele>596.0</ele><time>2026-04-19T09:07:10Z</time></trkpt><trkpt lat="41.15635442310267" lon="15.346782126986675"><ele>596.0</ele><time>2026-04-19T09:07:11Z</time></trkpt><trkpt lat="41.156390802290446" lon="15.346702584164769"><ele>596.0</ele><time>2026-04-19T09:07:12.001Z</time></trkpt><trkpt lat="41.15646084212445" lon="15.346601994956325"><ele>596.0</ele><time>2026-04-19T09:07:14.001Z</time></trkpt><trkpt lat="41.15652033133452" lon="15.34648140757536"><ele>596.0</ele><time>2026-04-19T09:07:16.001Z</time></trkpt><trkpt lat="41.156525376234306" lon="15.346321314057755"><ele>596.0</ele><time>2026-04-19T09:07:18.001Z</time></trkpt><trkpt lat="41.1565326349964" lon="15.346198312959602"><ele>590.2</ele><time>2026-04-19T09:07:20.001Z</time></trkpt><trkpt lat="41.15660088976711" lon="15.346049388224525"><ele>584.4000000000001</ele><time>2026-04-19T09:07:22.001Z</time></trkpt><trkpt lat="41.1566361678645" lon="15.345978220657278"><ele>578.6</ele><time>2026-04-19T09:07:23.001Z</time></trkpt><trkpt lat="41.15670700992943" lon="15.345873047820048"><ele>572.8000000000001</ele><time>2026-04-19T09:07:25.001Z</time></trkpt><trkpt lat="41.156767352371176" lon="15.345714516249137"><ele>567.0</ele><time>2026-04-19T09:07:27.001Z</time></trkpt><trkpt lat="41.15680215735997" lon="15.345613394103452"><ele>568.75</ele><time>2026-04-19T09:07:28.001Z</time></trkpt><trkpt lat="41.15685307364612" lon="15.345479786780947"><ele>570.5</ele><time>2026-04-19T09:07:29.001Z</time></trkpt><trkpt lat="41.15692116893392" lon="15.345356357558181"><ele>572.25</ele><time>2026-04-19T09:07:30Z</time></trkpt><trkpt lat="41.1570012559867" lon="15.3452240903812"><ele>574.0</ele><time>2026-04-19T09:07:31Z</time></trkpt><trkpt lat="41.15705929527435" lon="15.345117716753494"><ele>574.0</ele><time>2026-04-19T09:07:32Z</time></trkpt><trkpt lat="41.157111708778146" lon="15.34501923045795"><ele>574.0</ele><time>2026-04-19T09:07:33Z</time></trkpt><trkpt lat="41.15713947663582" lon="15.344936586495223"><ele>574.0</ele><time>2026-04-19T09:07:34Z</time></trkpt><trkpt lat="41.15718210149541" lon="15.34474458280322"><ele>574.0</ele><time>2026-04-19T09:07:36Z</time></trkpt><trkpt lat="41.15720581299885" lon="15.344622905137696"><ele>574.0</ele><time>2026-04-19T09:07:37Z</time></trkpt><trkpt lat="41.157218303539736" lon="15.344516564862396"><ele>572.0</ele><time>2026-04-19T09:07:38Z</time></trkpt><trkpt lat="41.15718819943341" lon="15.344398303124557"><ele>570.0</ele><time>2026-04-19T09:07:39Z</time></trkpt><trkpt lat="41.15712363020015" lon="15.344287601831176"><ele>568.0</ele><time>2026-04-19T09:07:40Z</time></trkpt><trkpt lat="41.15710237915518" lon="15.344208822723893"><ele>566.0</ele><time>2026-04-19T09:07:41Z</time></trkpt><trkpt lat="41.15712458087612" lon="15.344087801116784"><ele>564.0</ele><time>2026-04-19T09:07:42Z</time></trkpt><trkpt lat="41.157149534418906" lon="15.34396751652245"><ele>562.3333333333334</ele><time>2026-04-19T09:07:43Z</time></trkpt><trkpt lat="41.15714834286047" lon="15.343877885009046"><ele>560.6666666666666</ele><time>2026-04-19T09:07:44Z</time></trkpt><trkpt lat="41.157142243349774" lon="15.343769517367944"><ele>559.0</ele><time>2026-04-19T09:07:45Z</time></trkpt><trkpt lat="41.15714391369535" lon="15.343684858198166"><ele>557.3333333333333</ele><time>2026-04-19T09:07:46Z</time></trkpt><trkpt lat="41.1571694370758" lon="15.343580651934882"><ele>555.6666666666666</ele><time>2026-04-19T09:07:47Z</time></trkpt><trkpt lat="41.157121911012055" lon="15.343447652334467"><ele>554.0</ele><time>2026-04-19T09:07:49Z</time></trkpt><trkpt lat="41.15704067937377" lon="15.343390752865"><ele>554.0</ele><time>2026-04-19T09:07:50Z</time></trkpt><trkpt lat="41.15694798950467" lon="15.34330850821216"><ele>554.0</ele><time>2026-04-19T09:07:51Z</time></trkpt><trkpt lat="41.15691088624652" lon="15.34323626983391"><ele>554.0</ele><time>2026-04-19T09:07:52Z</time></trkpt><trkpt lat="41.156909586979395" lon="15.343044335443969"><ele>554.0</ele><time>2026-04-19T09:07:54Z</time></trkpt><trkpt lat="41.156924305748674" lon="15.3429557338194"><ele>554.0</ele><time>2026-04-19T09:07:55Z</time></trkpt><trkpt lat="41.156965023728105" lon="15.342847473413574"><ele>549.4</ele><time>2026-04-19T09:07:57Z</time></trkpt><trkpt lat="41.15696455100167" lon="15.342704146142736"><ele>544.8</ele><time>2026-04-19T09:07:59Z</time></trkpt><trkpt lat="41.15693215153917" lon="15.342605071817422"><ele>540.2</ele><time>2026-04-19T09:08:00Z</time></trkpt><trkpt lat="41.156883256335064" lon="15.342501820296077"><ele>535.6</ele><time>2026-04-19T09:08:01Z</time></trkpt><trkpt lat="41.15684752029601" lon="15.342416709150513"><ele>531.0</ele><time>2026-04-19T09:08:02Z</time></trkpt><trkpt lat="41.15679154337573" lon="15.342294088315782"><ele>527.8333333333334</ele><time>2026-04-19T09:08:04Z</time></trkpt><trkpt lat="41.156732630784724" lon="15.342171845384339"><ele>524.6666666666666</ele><time>2026-04-19T09:08:06Z</time></trkpt><trkpt lat="41.15668964034679" lon="15.342042350846835"><ele>521.5</ele><time>2026-04-19T09:08:08Z</time></trkpt><trkpt lat="41.156671523503995" lon="15.341929421583103"><ele>518.3333333333333</ele><time>2026-04-19T09:08:11Z</time></trkpt><trkpt lat="41.15665595966098" lon="15.341830054127529"><ele>515.1666666666666</ele><time>2026-04-19T09:08:13Z</time></trkpt><trkpt lat="41.156668786035496" lon="15.341745738950328"><ele>512.0</ele><time>2026-04-19T09:08:15Z</time></trkpt><trkpt lat="41.156707777266526" lon="15.341661664676922"><ele>511.99999999999994</ele><time>2026-04-19T09:08:18Z</time></trkpt><trkpt lat="41.15663194762145" lon="15.341620399896385"><ele>512.0</ele><time>2026-04-19T09:08:25Z</time></trkpt><trkpt lat="41.156619940177066" lon="15.341532598829719"><ele>512.0</ele><time>2026-04-19T09:08:27Z</time></trkpt><trkpt lat="41.1565732994539" lon="15.341598859203275"><ele>512.0</ele><time>2026-04-19T09:08:33Z</time></trkpt><trkpt lat="41.15655259948589" lon="15.341697411546049"><ele>511.99999999999994</ele><time>2026-04-19T09:08:36Z</time></trkpt><trkpt lat="41.156537536466665" lon="15.341802233578493"><ele>512.0</ele><time>2026-04-19T09:09:19.001Z</time></trkpt><trkpt lat="41.15656699047478" lon="15.341896430480844"><ele>523.0</ele><time>2026-04-19T09:09:32.001Z</time></trkpt><trkpt lat="41.15652528454302" lon="15.342067779022853"><ele>534.0</ele><time>2026-04-19T09:09:45Z</time></trkpt><trkpt lat="41.156492933180644" lon="15.34217826524127"><ele>545.0</ele><time>2026-04-19T09:09:46Z</time></trkpt><trkpt lat="41.15646336367024" lon="15.342289414492082"><ele>556.0</ele><time>2026-04-19T09:09:47Z</time></trkpt><trkpt lat="41.156433552804124" lon="15.342395853024728"><ele>567.0</ele><time>2026-04-19T09:09:48Z</time></trkpt><trkpt lat="41.15642333647036" lon="15.342518802720475"><ele>570.0</ele><time>2026-04-19T09:09:49Z</time></trkpt><trkpt lat="41.15641188697973" lon="15.342634470202036"><ele>573.0</ele><time>2026-04-19T09:09:50Z</time></trkpt><trkpt lat="41.15635528961471" lon="15.342735382160932"><ele>576.0</ele><time>2026-04-19T09:09:52Z</time></trkpt><trkpt lat="41.15634302445078" lon="15.34284152028136"><ele>579.0</ele><time>2026-04-19T09:09:54Z</time></trkpt><trkpt lat="41.156425103513016" lon="15.34293118795763"><ele>582.0</ele><time>2026-04-19T09:09:56Z</time></trkpt><trkpt lat="41.15642387074493" lon="15.343020034277984"><ele>585.0</ele><time>2026-04-19T09:09:59Z</time></trkpt><trkpt lat="41.15643388690981" lon="15.343115070640328"><ele>586.4</ele><time>2026-04-19T09:10:01Z</time></trkpt><trkpt lat="41.15641721226176" lon="15.343196619253723"><ele>587.8</ele><time>2026-04-19T09:10:03Z</time></trkpt><trkpt lat="41.15636505717181" lon="15.343272205505993"><ele>589.2</ele><time>2026-04-19T09:10:05Z</time></trkpt><trkpt lat="41.15629189143735" lon="15.343315985662153"><ele>590.6</ele><time>2026-04-19T09:10:08Z</time></trkpt><trkpt lat="41.156111816175454" lon="15.343416585223691"><ele>592.0</ele><time>2026-04-19T09:10:11Z</time></trkpt><trkpt lat="41.156041397701" lon="15.343473723057237"><ele>592.0</ele><time>2026-04-19T09:10:12Z</time></trkpt><trkpt lat="41.15596906289664" lon="15.343541937650157"><ele>592.0</ele><time>2026-04-19T09:10:13Z</time></trkpt><trkpt lat="41.1559205599976" lon="15.343651462972327"><ele>592.0</ele><time>2026-04-19T09:10:14Z</time></trkpt><trkpt lat="41.15585924683293" lon="15.343752573479833"><ele>592.0</ele><time>2026-04-19T09:10:15Z</time></trkpt><trkpt lat="41.15578222758272" lon="15.343851052453703"><ele>592.0</ele><time>2026-04-19T09:10:16Z</time></trkpt><trkpt lat="41.1557111433857" lon="15.343899083127235"><ele>594.0</ele><time>2026-04-19T09:10:17Z</time></trkpt><trkpt lat="41.15568318920678" lon="15.34400251373901"><ele>596.0</ele><time>2026-04-19T09:10:19Z</time></trkpt><trkpt lat="41.15580011280381" lon="15.344052536922124"><ele>598.0</ele><time>2026-04-19T09:10:27Z</time></trkpt><trkpt lat="41.15588010165373" lon="15.344072413431322"><ele>600.0</ele><time>2026-04-19T09:10:28Z</time></trkpt><trkpt lat="41.15598115911895" lon="15.344099518523276"><ele>602.0</ele><time>2026-04-19T09:10:29Z</time></trkpt><trkpt lat="41.15604323544289" lon="15.344145884490963"><ele>602.0</ele><time>2026-04-19T09:18:38Z</time></trkpt><trkpt lat="41.1561044715766" lon="15.344214281785373"><ele>602.0</ele><time>2026-04-19T09:18:45Z</time></trkpt><trkpt lat="41.15616303817339" lon="15.344358940779735"><ele>602.0</ele><time>2026-04-19T09:18:47Z</time></trkpt><trkpt lat="41.156201897337326" lon="15.344465607829983"><ele>602.0</ele><time>2026-04-19T09:18:48Z</time></trkpt><trkpt lat="41.156239781045954" lon="15.344589732032432"><ele>602.0</ele><time>2026-04-19T09:18:49Z</time></trkpt><trkpt lat="41.15626617491488" lon="15.344715881346087"><ele>605.0</ele><time>2026-04-19T09:18:50Z</time></trkpt><trkpt lat="41.15627530252565" lon="15.344835257201453"><ele>608.0</ele><time>2026-04-19T09:18:51Z</time></trkpt><trkpt lat="41.15626457043866" lon="15.344959292483061"><ele>611.0</ele><time>2026-04-19T09:18:52Z</time></trkpt><trkpt lat="41.156254481423886" lon="15.345056490114455"><ele>614.0</ele><time>2026-04-19T09:18:53Z</time></trkpt><trkpt lat="41.15623460211263" lon="15.34522504721887"><ele>617.0</ele><time>2026-04-19T09:18:55Z</time></trkpt><trkpt lat="41.15621801898653" lon="15.345349696538033"><ele>617.0</ele><time>2026-04-19T09:18:56Z</time></trkpt><trkpt lat="41.15618703516154" lon="15.345520934372697"><ele>617.0</ele><time>2026-04-19T09:18:57Z</time></trkpt><trkpt lat="41.15617006781177" lon="15.345672406826914"><ele>617.0</ele><time>2026-04-19T09:18:58Z</time></trkpt><trkpt lat="41.156155987530035" lon="15.345817892036646"><ele>617.0</ele><time>2026-04-19T09:18:59Z</time></trkpt><trkpt lat="41.15604118567966" lon="15.345884767049665"><ele>616.5</ele><time>2026-04-19T09:19:00Z</time></trkpt><trkpt lat="41.155957812000985" lon="15.34600606326858"><ele>616.0</ele><time>2026-04-19T09:19:01Z</time></trkpt><trkpt lat="41.15584645663362" lon="15.346133317197948"><ele>615.5</ele><time>2026-04-19T09:19:02Z</time></trkpt><trkpt lat="41.155730137456004" lon="15.346238614297398"><ele>615.0</ele><time>2026-04-19T09:19:03Z</time></trkpt><trkpt lat="41.15560745266104" lon="15.346328110561878"><ele>619.8333333333334</ele><time>2026-04-19T09:19:04Z</time></trkpt><trkpt lat="41.15552346424666" lon="15.346362521629613"><ele>624.6666666666666</ele><time>2026-04-19T09:19:05Z</time></trkpt><trkpt lat="41.15545417443414" lon="15.346375202078075"><ele>629.5</ele><time>2026-04-19T09:19:06Z</time></trkpt><trkpt lat="41.15545368894789" lon="15.346282769834431"><ele>634.3333333333333</ele><time>2026-04-19T09:19:10Z</time></trkpt><trkpt lat="41.155504772151666" lon="15.346214114127058"><ele>639.1666666666666</ele><time>2026-04-19T09:19:11Z</time></trkpt><trkpt lat="41.15557144393452" lon="15.346110569230083"><ele>644.0</ele><time>2026-04-19T09:19:12Z</time></trkpt><trkpt lat="41.15563354859611" lon="15.345991368665443"><ele>644.0</ele><time>2026-04-19T09:19:13Z</time></trkpt><trkpt lat="41.155684461409415" lon="15.345878001959083"><ele>644.0</ele><time>2026-04-19T09:19:14Z</time></trkpt><trkpt lat="41.15571691154823" lon="15.34575279577641"><ele>644.0</ele><time>2026-04-19T09:19:15Z</time></trkpt><trkpt lat="41.15573154485915" lon="15.345612225727082"><ele>644.0</ele><time>2026-04-19T09:19:16Z</time></trkpt><trkpt lat="41.155754693151735" lon="15.345432796836828"><ele>644.0</ele><time>2026-04-19T09:19:17Z</time></trkpt><trkpt lat="41.15577895762381" lon="15.345232547186127"><ele>643.1666666666666</ele><time>2026-04-19T09:19:18Z</time></trkpt><trkpt lat="41.15576971671673" lon="15.34509337338502"><ele>642.3333333333333</ele><time>2026-04-19T09:19:19Z</time></trkpt><trkpt lat="41.15575803666623" lon="15.344987337304966"><ele>641.5</ele><time>2026-04-19T09:19:20Z</time></trkpt><trkpt lat="41.155716674068366" lon="15.344924219061102"><ele>640.6666666666666</ele><time>2026-04-19T09:19:33Z</time></trkpt><trkpt lat="41.155635914655534" lon="15.344912937313708"><ele>639.8333333333334</ele><time>2026-04-19T09:19:35Z</time></trkpt><trkpt lat="41.15556749154218" lon="15.34499879384876"><ele>639.0</ele><time>2026-04-19T09:19:37Z</time></trkpt><trkpt lat="41.15547567962328" lon="15.345102095022995"><ele>639.0</ele><time>2026-04-19T09:19:39Z</time></trkpt><trkpt lat="41.15542662246705" lon="15.345183211858505"><ele>639.0</ele><time>2026-04-19T09:19:40Z</time></trkpt><trkpt lat="41.155389586042325" lon="15.345268285781282"><ele>639.0</ele><time>2026-04-19T09:19:41Z</time></trkpt><trkpt lat="41.15535349025641" lon="15.345343059551771"><ele>639.0</ele><time>2026-04-19T09:19:42Z</time></trkpt><trkpt lat="41.15526295133482" lon="15.345364999294237"><ele>639.0</ele><time>2026-04-19T09:19:44Z</time></trkpt><trkpt lat="41.15518651957801" lon="15.345461950673897"><ele>639.0</ele><time>2026-04-19T09:19:46Z</time></trkpt><trkpt lat="41.1551221288539" lon="15.345507909570811"><ele>639.7142857142858</ele><time>2026-04-19T09:19:47Z</time></trkpt><trkpt lat="41.15505728558832" lon="15.345553457959488"><ele>640.4285714285714</ele><time>2026-04-19T09:19:48Z</time></trkpt><trkpt lat="41.15498957774465" lon="15.345599448013834"><ele>641.1428571428571</ele><time>2026-04-19T09:19:49Z</time></trkpt><trkpt lat="41.154928647079196" lon="15.345624304851427"><ele>641.8571428571429</ele><time>2026-04-19T09:19:50Z</time></trkpt><trkpt lat="41.154865679279276" lon="15.345628231562406"><ele>642.5714285714286</ele><time>2026-04-19T09:19:51Z</time></trkpt><trkpt lat="41.15479079248633" lon="15.345628422918562"><ele>643.2857142857143</ele><time>2026-04-19T09:19:52Z</time></trkpt><trkpt lat="41.154705371564035" lon="15.345662701040016"><ele>644.0</ele><time>2026-04-19T09:19:53Z</time></trkpt><trkpt lat="41.15461586529604" lon="15.345717104481894"><ele>649.2</ele><time>2026-04-19T09:19:54Z</time></trkpt><trkpt lat="41.15452909255403" lon="15.345742911100588"><ele>654.4000000000001</ele><time>2026-04-19T09:19:55Z</time></trkpt><trkpt lat="41.15443871097243" lon="15.34581231472223"><ele>659.6</ele><time>2026-04-19T09:19:57Z</time></trkpt><trkpt lat="41.154350864087874" lon="15.345874258388283"><ele>664.8</ele><time>2026-04-19T09:19:59Z</time></trkpt><trkpt lat="41.15427810191371" lon="15.345849928007917"><ele>670.0</ele><time>2026-04-19T09:20:00Z</time></trkpt><trkpt lat="41.154190736861814" lon="15.345817752545386"><ele>669.9999999999999</ele><time>2026-04-19T09:20:01Z</time></trkpt><trkpt lat="41.154154042115906" lon="15.345739618627162"><ele>670.0</ele><time>2026-04-19T09:20:04Z</time></trkpt><trkpt lat="41.154094504288416" lon="15.345803006703262"><ele>670.0</ele><time>2026-04-19T09:20:07Z</time></trkpt><trkpt lat="41.154017984895646" lon="15.345803686840428"><ele>670.0</ele><time>2026-04-19T09:20:09Z</time></trkpt><trkpt lat="41.153951464235035" lon="15.345813745862511"><ele>670.0</ele><time>2026-04-19T09:20:12Z</time></trkpt><trkpt lat="41.153874288765614" lon="15.345853521403244"><ele>669.9999999999999</ele><time>2026-04-19T09:20:15Z</time></trkpt><trkpt lat="41.15380944893491" lon="15.345869004711105"><ele>670.0</ele><time>2026-04-19T09:20:17Z</time></trkpt><trkpt lat="41.153742135347834" lon="15.34580974194209"><ele>673.6</ele><time>2026-04-19T09:20:20Z</time></trkpt><trkpt lat="41.153642243740094" lon="15.345787838305741"><ele>677.2</ele><time>2026-04-19T09:20:23Z</time></trkpt><trkpt lat="41.153558048814006" lon="15.345816847827088"><ele>680.8</ele><time>2026-04-19T09:20:25Z</time></trkpt><trkpt lat="41.153479810075" lon="15.345842731790869"><ele>684.4</ele><time>2026-04-19T09:20:27Z</time></trkpt><trkpt lat="41.15339761734039" lon="15.345887912730824"><ele>688.0</ele><time>2026-04-19T09:20:30Z</time></trkpt><trkpt lat="41.153223724099746" lon="15.345956345807899"><ele>688.8</ele><time>2026-04-19T09:20:32Z</time></trkpt><trkpt lat="41.15318063069154" lon="15.346022557605497"><ele>689.5999999999999</ele><time>2026-04-19T09:20:34Z</time></trkpt><trkpt lat="41.15312661717494" lon="15.3460778259928"><ele>690.4000000000001</ele><time>2026-04-19T09:20:36Z</time></trkpt><trkpt lat="41.15309738831361" lon="15.346180806291976"><ele>691.2</ele><time>2026-04-19T09:20:38Z</time></trkpt><trkpt lat="41.15307004784085" lon="15.346326043424785"><ele>692.0</ele><time>2026-04-19T09:20:40Z</time></trkpt><trkpt lat="41.15297765425092" lon="15.346430009873831"><ele>693.8571428571428</ele><time>2026-04-19T09:20:42Z</time></trkpt><trkpt lat="41.15292061521507" lon="15.346530461205624"><ele>695.7142857142858</ele><time>2026-04-19T09:20:44Z</time></trkpt><trkpt lat="41.152879682997174" lon="15.346600969055242"><ele>697.5714285714286</ele><time>2026-04-19T09:20:46Z</time></trkpt><trkpt lat="41.152811623079806" lon="15.34662799169884"><ele>699.4285714285713</ele><time>2026-04-19T09:20:48Z</time></trkpt><trkpt lat="41.15276325885913" lon="15.34669552960846"><ele>701.2857142857142</ele><time>2026-04-19T09:20:50Z</time></trkpt><trkpt lat="41.152762173823916" lon="15.346782921027623"><ele>703.1428571428571</ele><time>2026-04-19T09:20:55Z</time></trkpt><trkpt lat="41.152733141536004" lon="15.346878050473693"><ele>705.0</ele><time>2026-04-19T09:20:57Z</time></trkpt><trkpt lat="41.15267630870445" lon="15.346942765836118"><ele>705.0</ele><time>2026-04-19T09:20:59Z</time></trkpt><trkpt lat="41.15260779616442" lon="15.347019216538165"><ele>705.0</ele><time>2026-04-19T09:21:01Z</time></trkpt><trkpt lat="41.152549000271186" lon="15.347114190112771"><ele>705.0</ele><time>2026-04-19T09:21:03Z</time></trkpt><trkpt lat="41.15247690125139" lon="15.347216578400646"><ele>705.0</ele><time>2026-04-19T09:21:05Z</time></trkpt><trkpt lat="41.15242412931597" lon="15.347274902037237"><ele>705.0</ele><time>2026-04-19T09:21:06Z</time></trkpt><trkpt lat="41.15235164695761" lon="15.347360552688139"><ele>709.2</ele><time>2026-04-19T09:21:08Z</time></trkpt><trkpt lat="41.152276501435566" lon="15.34746664239552"><ele>713.4</ele><time>2026-04-19T09:21:10Z</time></trkpt><trkpt lat="41.152178132588624" lon="15.347530920130195"><ele>717.5999999999999</ele><time>2026-04-19T09:21:12Z</time></trkpt><trkpt lat="41.15210361290928" lon="15.34748046689771"><ele>721.8</ele><time>2026-04-19T09:21:14Z</time></trkpt><trkpt lat="41.152107773332816" lon="15.347379676318136"><ele>726.0</ele><time>2026-04-19T09:21:17Z</time></trkpt><trkpt lat="41.1520292294122" lon="15.34739799686838"><ele>726.0</ele><time>2026-04-19T09:21:19Z</time></trkpt><trkpt lat="41.151920637008686" lon="15.347420981319177"><ele>726.0</ele><time>2026-04-19T09:21:21Z</time></trkpt><trkpt lat="41.151835615375155" lon="15.347394929451768"><ele>726.0</ele><time>2026-04-19T09:21:22Z</time></trkpt><trkpt lat="41.1517678554327" lon="15.34737674450742"><ele>726.0</ele><time>2026-04-19T09:21:23Z</time></trkpt><trkpt lat="41.15166366817676" lon="15.347335148076107"><ele>726.0</ele><time>2026-04-19T09:21:25Z</time></trkpt><trkpt lat="41.151586461310885" lon="15.347323794644288"><ele>731.0</ele><time>2026-04-19T09:21:26Z</time></trkpt><trkpt lat="41.151473532494315" lon="15.347372309678025"><ele>736.0</ele><time>2026-04-19T09:21:28Z</time></trkpt><trkpt lat="41.15137815900586" lon="15.347394584661098"><ele>741.0</ele><time>2026-04-19T09:21:30Z</time></trkpt><trkpt lat="41.151279606860385" lon="15.347329293678992"><ele>746.0</ele><time>2026-04-19T09:21:32Z</time></trkpt><trkpt lat="41.1512265988197" lon="15.347385785708418"><ele>751.0</ele><time>2026-04-19T09:21:34Z</time></trkpt><trkpt lat="41.15114120204863" lon="15.347423283423051"><ele>751.0</ele><time>2026-04-19T09:21:37Z</time></trkpt><trkpt lat="41.15103104782014" lon="15.347392566587862"><ele>751.0</ele><time>2026-04-19T09:21:39Z</time></trkpt><trkpt lat="41.15096398939678" lon="15.347389857853425"><ele>751.0</ele><time>2026-04-19T09:21:41Z</time></trkpt><trkpt lat="41.15089773708973" lon="15.347420492757534"><ele>751.0</ele><time>2026-04-19T09:21:43Z</time></trkpt><trkpt lat="41.1508097576416" lon="15.347423469145019"><ele>751.0</ele><time>2026-04-19T09:21:45Z</time></trkpt><trkpt lat="41.15072336842154" lon="15.34741901913146"><ele>751.0</ele><time>2026-04-19T09:21:46Z</time></trkpt><trkpt lat="41.15059860513271" lon="15.3474600514283"><ele>755.3333333333334</ele><time>2026-04-19T09:21:46.999Z</time></trkpt><trkpt lat="41.15052119727476" lon="15.347510399313155"><ele>759.6666666666667</ele><time>2026-04-19T09:21:47.999Z</time></trkpt><trkpt lat="41.15045147728163" lon="15.347547137810842"><ele>764.0</ele><time>2026-04-19T09:21:48.999Z</time></trkpt><trkpt lat="41.1503876382367" lon="15.347603353107102"><ele>768.3333333333334</ele><time>2026-04-19T09:21:50.999Z</time></trkpt><trkpt lat="41.15032156609911" lon="15.347662321302437"><ele>772.6666666666666</ele><time>2026-04-19T09:21:53Z</time></trkpt><trkpt lat="41.15025594985834" lon="15.347688199265184"><ele>777.0</ele><time>2026-04-19T09:22:00Z</time></trkpt><trkpt lat="41.15018907872942" lon="15.347715429540612"><ele>777.0</ele><time>2026-04-19T09:22:16Z</time></trkpt><trkpt lat="41.15011332816978" lon="15.347712260477808"><ele>777.0</ele><time>2026-04-19T09:22:22Z</time></trkpt><trkpt lat="41.150029952188675" lon="15.347763010676937"><ele>777.0</ele><time>2026-04-19T09:22:25Z</time></trkpt><trkpt lat="41.149941267458914" lon="15.347781354805429"><ele>777.0</ele><time>2026-04-19T09:22:28Z</time></trkpt><trkpt lat="41.149894959742625" lon="15.347862977684692"><ele>777.0</ele><time>2026-04-19T09:22:30Z</time></trkpt><trkpt lat="41.149791809510816" lon="15.347872209021265"><ele>777.0</ele><time>2026-04-19T09:22:32Z</time></trkpt><trkpt lat="41.149728825571366" lon="15.347905320503266"><ele>779.7142857142857</ele><time>2026-04-19T09:22:35Z</time></trkpt><trkpt lat="41.14964927466773" lon="15.34793045656971"><ele>782.4285714285714</ele><time>2026-04-19T09:22:38Z</time></trkpt><trkpt lat="41.14955867855933" lon="15.347929071296386"><ele>785.1428571428571</ele><time>2026-04-19T09:22:41Z</time></trkpt><trkpt lat="41.149496731183994" lon="15.347895065084698"><ele>787.8571428571429</ele><time>2026-04-19T09:22:43Z</time></trkpt><trkpt lat="41.14942405081608" lon="15.347921006210562"><ele>790.5714285714286</ele><time>2026-04-19T09:22:45Z</time></trkpt><trkpt lat="41.14935864101079" lon="15.347954034522342"><ele>793.2857142857142</ele><time>2026-04-19T09:22:46Z</time></trkpt><trkpt lat="41.149296541493776" lon="15.347974820845797"><ele>796.0</ele><time>2026-04-19T09:22:47Z</time></trkpt><trkpt lat="41.14922400070453" lon="15.347963318423075"><ele>795.9999999999999</ele><time>2026-04-19T09:22:48Z</time></trkpt><trkpt lat="41.149151043298815" lon="15.34792513266272"><ele>796.0</ele><time>2026-04-19T09:22:49Z</time></trkpt><trkpt lat="41.149078512551256" lon="15.347877340575415"><ele>796.0</ele><time>2026-04-19T09:22:50Z</time></trkpt><trkpt lat="41.14900888929358" lon="15.34783878490499"><ele>796.0</ele><time>2026-04-19T09:22:51Z</time></trkpt><trkpt lat="41.14894182818575" lon="15.347808685591387"><ele>795.9999999999999</ele><time>2026-04-19T09:22:52Z</time></trkpt><trkpt lat="41.14886925881284" lon="15.347782308866792"><ele>796.0</ele><time>2026-04-19T09:22:53Z</time></trkpt><trkpt lat="41.14877912801614" lon="15.34775362551182"><ele>796.1666666666666</ele><time>2026-04-19T09:22:54Z</time></trkpt><trkpt lat="41.14870410442475" lon="15.347725387111604"><ele>796.3333333333333</ele><time>2026-04-19T09:22:55Z</time></trkpt><trkpt lat="41.14862349830855" lon="15.347702064235207"><ele>796.5</ele><time>2026-04-19T09:22:56Z</time></trkpt><trkpt lat="41.14854236448758" lon="15.347673984925338"><ele>796.6666666666667</ele><time>2026-04-19T09:22:57Z</time></trkpt><trkpt lat="41.14846999250115" lon="15.347637955658893"><ele>796.8333333333334</ele><time>2026-04-19T09:22:58Z</time></trkpt><trkpt lat="41.148415524984806" lon="15.347529129213427"><ele>797.0</ele><time>2026-04-19T09:23:00Z</time></trkpt><trkpt lat="41.14842658766501" lon="15.347444398498068"><ele>797.0</ele><time>2026-04-19T09:23:01Z</time></trkpt><trkpt lat="41.1484531381529" lon="15.347348832753456"><ele>797.0</ele><time>2026-04-19T09:23:02Z</time></trkpt><trkpt lat="41.14843553840465" lon="15.347220017956422"><ele>797.0</ele><time>2026-04-19T09:23:04Z</time></trkpt><trkpt lat="41.14830803135804" lon="15.347168055768737"><ele>797.0</ele><time>2026-04-19T09:23:06Z</time></trkpt><trkpt lat="41.14827488069437" lon="15.347043981217803"><ele>797.0</ele><time>2026-04-19T09:23:08Z</time></trkpt><trkpt lat="41.14827672899181" lon="15.3469478342081"><ele>793.6666666666667</ele><time>2026-04-19T09:23:09Z</time></trkpt><trkpt lat="41.14828484732219" lon="15.34686411375529"><ele>790.3333333333334</ele><time>2026-04-19T09:23:10Z</time></trkpt><trkpt lat="41.14831022113753" lon="15.346764714295217"><ele>787.0</ele><time>2026-04-19T09:23:11Z</time></trkpt><trkpt lat="41.14832026907143" lon="15.346652916261679"><ele>783.6666666666667</ele><time>2026-04-19T09:23:12Z</time></trkpt><trkpt lat="41.14833417649254" lon="15.346558966469827"><ele>780.3333333333334</ele><time>2026-04-19T09:23:13Z</time></trkpt><trkpt lat="41.14834801309157" lon="15.346474672446277"><ele>777.0</ele><time>2026-04-19T09:23:14Z</time></trkpt><trkpt lat="41.14837658427766" lon="15.346358129545726"><ele>772.5</ele><time>2026-04-19T09:23:15Z</time></trkpt><trkpt lat="41.14838966669299" lon="15.34625091890139"><ele>768.0</ele><time>2026-04-19T09:23:16Z</time></trkpt><trkpt lat="41.1483944038919" lon="15.346155017212169"><ele>763.5</ele><time>2026-04-19T09:23:17Z</time></trkpt><trkpt lat="41.148392611623514" lon="15.346052769510882"><ele>759.0</ele><time>2026-04-19T09:23:18Z</time></trkpt><trkpt lat="41.14840883411971" lon="15.345891271592311"><ele>754.5</ele><time>2026-04-19T09:23:20Z</time></trkpt><trkpt lat="41.14843143861354" lon="15.345786670971263"><ele>750.0</ele><time>2026-04-19T09:23:21Z</time></trkpt><trkpt lat="41.14845770971173" lon="15.34568914089017"><ele>750.0</ele><time>2026-04-19T09:23:22Z</time></trkpt><trkpt lat="41.1484834385908" lon="15.345586936304665"><ele>750.0</ele><time>2026-04-19T09:23:23Z</time></trkpt><trkpt lat="41.14850364634008" lon="15.345493387242655"><ele>750.0</ele><time>2026-04-19T09:23:24Z</time></trkpt><trkpt lat="41.14852942220101" lon="15.34538446282748"><ele>750.0</ele><time>2026-04-19T09:23:25Z</time></trkpt><trkpt lat="41.14853674941273" lon="15.345285706827925"><ele>750.0</ele><time>2026-04-19T09:23:26Z</time></trkpt><trkpt lat="41.14855066333969" lon="15.345188861997302"><ele>750.0</ele><time>2026-04-19T09:23:27Z</time></trkpt><trkpt lat="41.14856048013482" lon="15.345077045387752"><ele>746.5714285714286</ele><time>2026-04-19T09:23:28Z</time></trkpt><trkpt lat="41.14856787861008" lon="15.344986973044149"><ele>743.1428571428571</ele><time>2026-04-19T09:23:29Z</time></trkpt><trkpt lat="41.14859007777557" lon="15.344858326809797"><ele>739.7142857142857</ele><time>2026-04-19T09:23:31Z</time></trkpt><trkpt lat="41.14860520834613" lon="15.344777049230517"><ele>736.2857142857142</ele><time>2026-04-19T09:23:32Z</time></trkpt><trkpt lat="41.148614505325064" lon="15.344693503000752"><ele>732.8571428571429</ele><time>2026-04-19T09:23:33Z</time></trkpt><trkpt lat="41.14863428759265" lon="15.344596407417267"><ele>729.4285714285713</ele><time>2026-04-19T09:23:34Z</time></trkpt><trkpt lat="41.14866924351614" lon="15.344509620948184"><ele>726.0</ele><time>2026-04-19T09:23:35Z</time></trkpt><trkpt lat="41.14871946514767" lon="15.344410178225475"><ele>722.3333333333334</ele><time>2026-04-19T09:23:37Z</time></trkpt><trkpt lat="41.148766046860594" lon="15.344483994053077"><ele>718.6666666666666</ele><time>2026-04-19T09:23:40Z</time></trkpt><trkpt lat="41.14888052923247" lon="15.344519928353732"><ele>715.0</ele><time>2026-04-19T09:23:42Z</time></trkpt><trkpt lat="41.148944013383506" lon="15.344531389851939"><ele>711.3333333333333</ele><time>2026-04-19T09:23:43Z</time></trkpt><trkpt lat="41.149005204549965" lon="15.344553002099437"><ele>707.6666666666666</ele><time>2026-04-19T09:23:45Z</time></trkpt><trkpt lat="41.14907282200443" lon="15.344597539412888"><ele>704.0</ele><time>2026-04-19T09:23:47Z</time></trkpt><trkpt lat="41.14918801577759" lon="15.344616831770974"><ele>702.0</ele><time>2026-04-19T09:23:49Z</time></trkpt><trkpt lat="41.149274639787556" lon="15.344629466733581"><ele>700.0</ele><time>2026-04-19T09:23:51Z</time></trkpt><trkpt lat="41.14933590157665" lon="15.344713872952866"><ele>698.0</ele><time>2026-04-19T09:23:53Z</time></trkpt><trkpt lat="41.149399496147325" lon="15.344728113365301"><ele>696.0</ele><time>2026-04-19T09:23:54Z</time></trkpt><trkpt lat="41.14959931717993" lon="15.344969337456076"><ele>696.0</ele><time>2026-04-19T09:23:58Z</time></trkpt><trkpt lat="41.14969371175597" lon="15.344842916809274"><ele>696.0</ele><time>2026-04-19T09:24:00Z</time></trkpt><trkpt lat="41.14976090779908" lon="15.344752276990308"><ele>696.0</ele><time>2026-04-19T09:24:01Z</time></trkpt><trkpt lat="41.149822923090696" lon="15.34469709295459"><ele>696.0</ele><time>2026-04-19T09:24:02Z</time></trkpt><trkpt lat="41.14989297878124" lon="15.344687134922886"><ele>696.0</ele><time>2026-04-19T09:24:03Z</time></trkpt><trkpt lat="41.15000853791648" lon="15.344748594242635"><ele>694.8333333333334</ele><time>2026-04-19T09:24:05Z</time></trkpt><trkpt lat="41.150094753553454" lon="15.34474659144757"><ele>693.6666666666666</ele><time>2026-04-19T09:24:07Z</time></trkpt><trkpt lat="41.15018202069621" lon="15.34471861131639"><ele>692.5</ele><time>2026-04-19T09:24:10Z</time></trkpt><trkpt lat="41.15025851561646" lon="15.34472247794375"><ele>691.3333333333333</ele><time>2026-04-19T09:24:12Z</time></trkpt><trkpt lat="41.150359594656784" lon="15.344695980580491"><ele>690.1666666666666</ele><time>2026-04-19T09:24:16Z</time></trkpt><trkpt lat="41.15043042335589" lon="15.344674753692155"><ele>689.0</ele><time>2026-04-19T09:24:17Z</time></trkpt><trkpt lat="41.15051647279011" lon="15.344661580591042"><ele>689.0</ele><time>2026-04-19T09:24:18Z</time></trkpt><trkpt lat="41.15058745303421" lon="15.34465257038328"><ele>689.0</ele><time>2026-04-19T09:24:19Z</time></trkpt><trkpt lat="41.150665211343224" lon="15.344647919099161"><ele>689.0</ele><time>2026-04-19T09:24:21Z</time></trkpt><trkpt lat="41.15072518656387" lon="15.344582510400276"><ele>689.0</ele><time>2026-04-19T09:24:25Z</time></trkpt><trkpt lat="41.150790243125115" lon="15.344567528795922"><ele>689.0</ele><time>2026-04-19T09:24:46Z</time></trkpt><trkpt lat="41.1508500799848" lon="15.34453223580105"><ele>689.0</ele><time>2026-04-19T09:24:51Z</time></trkpt><trkpt lat="41.15093867614303" lon="15.34449894242911"><ele>688.3333333333333</ele><time>2026-04-19T09:24:53Z</time></trkpt><trkpt lat="41.15100591780286" lon="15.344486268218418"><ele>687.6666666666666</ele><time>2026-04-19T09:24:55Z</time></trkpt><trkpt lat="41.15105587692462" lon="15.34456105140465"><ele>687.0</ele><time>2026-04-19T09:24:57Z</time></trkpt><trkpt lat="41.15114775963615" lon="15.344700594898294"><ele>686.3333333333334</ele><time>2026-04-19T09:24:59Z</time></trkpt><trkpt lat="41.15120261980009" lon="15.344786924001719"><ele>685.6666666666667</ele><time>2026-04-19T09:25:00Z</time></trkpt><trkpt lat="41.15125530329846" lon="15.344866554407638"><ele>685.0</ele><time>2026-04-19T09:25:01Z</time></trkpt><trkpt lat="41.15131282960805" lon="15.34495132866508"><ele>687.1666666666667</ele><time>2026-04-19T09:25:02Z</time></trkpt><trkpt lat="41.151363831266494" lon="15.345043008674198"><ele>689.3333333333334</ele><time>2026-04-19T09:25:03Z</time></trkpt><trkpt lat="41.151414839968496" lon="15.345147143360617"><ele>691.5</ele><time>2026-04-19T09:25:04Z</time></trkpt><trkpt lat="41.1514702042878" lon="15.345233228071583"><ele>693.6666666666666</ele><time>2026-04-19T09:25:05Z</time></trkpt><trkpt lat="41.15152394563772" lon="15.345327293819452"><ele>695.8333333333333</ele><time>2026-04-19T09:25:06Z</time></trkpt><trkpt lat="41.151589398004326" lon="15.34541744821875"><ele>698.0</ele><time>2026-04-19T09:25:07Z</time></trkpt><trkpt lat="41.15164513533882" lon="15.345503949168046"><ele>700.8333333333333</ele><time>2026-04-19T09:25:08Z</time></trkpt><trkpt lat="41.151670018853046" lon="15.345602936831867"><ele>703.6666666666666</ele><time>2026-04-19T09:25:09Z</time></trkpt><trkpt lat="41.15170612094265" lon="15.345700834520525"><ele>706.5</ele><time>2026-04-19T09:25:10Z</time></trkpt><trkpt lat="41.15173115807807" lon="15.34579295983966"><ele>709.3333333333334</ele><time>2026-04-19T09:25:11Z</time></trkpt><trkpt lat="41.15181578824185" lon="15.345751534792639"><ele>712.1666666666667</ele><time>2026-04-19T09:25:13Z</time></trkpt><trkpt lat="41.15189602094187" lon="15.345674531701569"><ele>715.0</ele><time>2026-04-19T09:25:15Z</time></trkpt><trkpt lat="41.15194395244718" lon="15.345731865466615"><ele>715.0</ele><time>2026-04-19T09:25:17Z</time></trkpt><trkpt lat="41.15198678815117" lon="15.34580374426482"><ele>715.0</ele><time>2026-04-19T09:25:18Z</time></trkpt><trkpt lat="41.15215759328423" lon="15.346015966060094"><ele>715.0</ele><time>2026-04-19T09:25:21Z</time></trkpt><trkpt lat="41.15222203351242" lon="15.345980547317131"><ele>715.0</ele><time>2026-04-19T09:25:24Z</time></trkpt><trkpt lat="41.15228846592723" lon="15.345987390995097"><ele>715.0</ele><time>2026-04-19T09:25:27Z</time></trkpt><trkpt lat="41.15234223440301" lon="15.345895862042362"><ele>711.1666666666667</ele><time>2026-04-19T09:25:30Z</time></trkpt><trkpt lat="41.15241182136118" lon="15.345908524218773"><ele>707.3333333333334</ele><time>2026-04-19T09:25:32Z</time></trkpt><trkpt lat="41.152477600363184" lon="15.345913737641732"><ele>703.5</ele><time>2026-04-19T09:25:34Z</time></trkpt><trkpt lat="41.15255975652752" lon="15.345840999183926"><ele>699.6666666666666</ele><time>2026-04-19T09:25:36Z</time></trkpt><trkpt lat="41.15263709104708" lon="15.345860230302291"><ele>695.8333333333333</ele><time>2026-04-19T09:25:38Z</time></trkpt><trkpt lat="41.15266784314371" lon="15.345936612080283"><ele>692.0</ele><time>2026-04-19T09:25:40Z</time></trkpt><trkpt lat="41.152768275916316" lon="15.34594184302304"><ele>692.0</ele><time>2026-04-19T09:25:42Z</time></trkpt><trkpt lat="41.15285249850278" lon="15.345959446557298"><ele>692.0</ele><time>2026-04-19T09:25:45Z</time></trkpt><trkpt lat="41.15287268275916" lon="15.345864799862802"><ele>692.0</ele><time>2026-04-19T09:25:48Z</time></trkpt><trkpt lat="41.152908084589676" lon="15.34579072046429"><ele>692.0</ele><time>2026-04-19T09:25:55Z</time></trkpt><trkpt lat="41.152982021990255" lon="15.345799953796913"><ele>692.0</ele><time>2026-04-19T09:25:59Z</time></trkpt><trkpt lat="41.15306080009637" lon="15.34570456402253"><ele>692.0</ele><time>2026-04-19T09:26:01Z</time></trkpt><trkpt lat="41.1531284022298" lon="15.345634137213773"><ele>692.0</ele><time>2026-04-19T09:26:03Z</time></trkpt><trkpt lat="41.15320091229137" lon="15.345619967494374"><ele>692.0</ele><time>2026-04-19T09:26:06Z</time></trkpt><trkpt lat="41.15326287552851" lon="15.345598903342681"><ele>692.0</ele><time>2026-04-19T09:26:08Z</time></trkpt><trkpt lat="41.153342330540006" lon="15.345590041862742"><ele>692.0</ele><time>2026-04-19T09:26:13Z</time></trkpt><trkpt lat="41.15340309380802" lon="15.345616820095678"><ele>692.0</ele><time>2026-04-19T09:26:18Z</time></trkpt><trkpt lat="41.15346159366873" lon="15.345580134948479"><ele>692.0</ele><time>2026-04-19T09:26:20Z</time></trkpt><trkpt lat="41.15348855582459" lon="15.345494025367232"><ele>692.0</ele><time>2026-04-19T09:26:24Z</time></trkpt><trkpt lat="41.15359461522217" lon="15.345492596551285"><ele>689.5714285714286</ele><time>2026-04-19T09:26:27Z</time></trkpt><trkpt lat="41.15361928923026" lon="15.345397026364427"><ele>687.1428571428572</ele><time>2026-04-19T09:26:31Z</time></trkpt><trkpt lat="41.15366045378066" lon="15.345327263061593"><ele>684.7142857142858</ele><time>2026-04-19T09:26:33Z</time></trkpt><trkpt lat="41.153695483470045" lon="15.345251489765884"><ele>682.2857142857142</ele><time>2026-04-19T09:26:35Z</time></trkpt><trkpt lat="41.153650808897844" lon="15.345165635191009"><ele>679.8571428571429</ele><time>2026-04-19T09:26:37Z</time></trkpt><trkpt lat="41.15369130583318" lon="15.345079052461601"><ele>677.4285714285714</ele><time>2026-04-19T09:26:40Z</time></trkpt><trkpt lat="41.15368562746166" lon="15.344992899362664"><ele>675.0</ele><time>2026-04-19T09:26:42Z</time></trkpt><trkpt lat="41.15375630365446" lon="15.344969095016792"><ele>675.0</ele><time>2026-04-19T09:26:44Z</time></trkpt><trkpt lat="41.15379395424144" lon="15.344900327204975"><ele>675.0</ele><time>2026-04-19T09:26:46Z</time></trkpt><trkpt lat="41.15384161278209" lon="15.344819879575022"><ele>675.0</ele><time>2026-04-19T09:26:48Z</time></trkpt><trkpt lat="41.15391335045839" lon="15.344790054064662"><ele>675.0</ele><time>2026-04-19T09:26:54Z</time></trkpt><trkpt lat="41.15396971986553" lon="15.344729247567662"><ele>675.0</ele><time>2026-04-19T09:26:56Z</time></trkpt><trkpt lat="41.15406057290433" lon="15.344664112728442"><ele>675.0</ele><time>2026-04-19T09:26:58Z</time></trkpt><trkpt lat="41.15407465447979" lon="15.344571416936192"><ele>670.5</ele><time>2026-04-19T09:27:00Z</time></trkpt><trkpt lat="41.154116914595754" lon="15.344465478519021"><ele>666.0</ele><time>2026-04-19T09:27:03Z</time></trkpt><trkpt lat="41.1541706237775" lon="15.344419114826007"><ele>661.5</ele><time>2026-04-19T09:27:04Z</time></trkpt><trkpt lat="41.15422751260284" lon="15.34438097062612"><ele>657.0</ele><time>2026-04-19T09:27:05Z</time></trkpt><trkpt lat="41.15428357990032" lon="15.344342230457363"><ele>652.5</ele><time>2026-04-19T09:27:06Z</time></trkpt><trkpt lat="41.15439188922407" lon="15.344273936658848"><ele>648.0</ele><time>2026-04-19T09:27:08Z</time></trkpt><trkpt lat="41.15447165806119" lon="15.344214848606198"><ele>648.0</ele><time>2026-04-19T09:27:10Z</time></trkpt><trkpt lat="41.15452778939558" lon="15.344110538593204"><ele>648.0</ele><time>2026-04-19T09:27:12Z</time></trkpt><trkpt lat="41.15459931693355" lon="15.344002051812025"><ele>648.0</ele><time>2026-04-19T09:27:14Z</time></trkpt><trkpt lat="41.15464275881039" lon="15.343927480960467"><ele>648.0</ele><time>2026-04-19T09:27:15Z</time></trkpt><trkpt lat="41.15466555029339" lon="15.343848357360006"><ele>648.0</ele><time>2026-04-19T09:27:16Z</time></trkpt><trkpt lat="41.154676952599104" lon="15.343761874958938"><ele>648.0</ele><time>2026-04-19T09:27:17Z</time></trkpt><trkpt lat="41.15468596529732" lon="15.343673294125809"><ele>644.1999999999999</ele><time>2026-04-19T09:27:18Z</time></trkpt><trkpt lat="41.15468714403617" lon="15.343528402928786"><ele>640.4</ele><time>2026-04-19T09:27:20Z</time></trkpt><trkpt lat="41.15460643604107" lon="15.343407320584943"><ele>636.5999999999999</ele><time>2026-04-19T09:27:22Z</time></trkpt><trkpt lat="41.154549751281046" lon="15.343345253188117"><ele>632.8</ele><time>2026-04-19T09:27:23Z</time></trkpt><trkpt lat="41.154492831269835" lon="15.343211288323545"><ele>629.0</ele><time>2026-04-19T09:27:25Z</time></trkpt><trkpt lat="41.154498268291306" lon="15.343119015621042"><ele>629.0</ele><time>2026-04-19T09:27:27Z</time></trkpt><trkpt lat="41.15453311090673" lon="15.343028098325682"><ele>629.0</ele><time>2026-04-19T09:27:29Z</time></trkpt><trkpt lat="41.15459388061421" lon="15.342985033846633"><ele>629.0</ele><time>2026-04-19T09:27:31Z</time></trkpt><trkpt lat="41.15467769131408" lon="15.343047314707835"><ele>629.0</ele><time>2026-04-19T09:27:33Z</time></trkpt><trkpt lat="41.15474622310652" lon="15.343080039896783"><ele>629.0</ele><time>2026-04-19T09:27:34Z</time></trkpt><trkpt lat="41.15484760416603" lon="15.34305379989843"><ele>629.0</ele><time>2026-04-19T09:27:36Z</time></trkpt><trkpt lat="41.15490502082136" lon="15.34301215565096"><ele>625.5</ele><time>2026-04-19T09:27:39Z</time></trkpt><trkpt lat="41.15497409291181" lon="15.343011378964373"><ele>622.0</ele><time>2026-04-19T09:27:42Z</time></trkpt><trkpt lat="41.154935955952546" lon="15.342934316956544"><ele>618.5</ele><time>2026-04-19T09:27:44Z</time></trkpt><trkpt lat="41.154840970343365" lon="15.342900214199892"><ele>615.0</ele><time>2026-04-19T09:27:47Z</time></trkpt><trkpt lat="41.15475817542396" lon="15.34287881402989"><ele>611.5</ele><time>2026-04-19T09:27:48Z</time></trkpt><trkpt lat="41.154665185641896" lon="15.342837591440077"><ele>608.0</ele><time>2026-04-19T09:27:49Z</time></trkpt><trkpt lat="41.154565466702316" lon="15.342773355246738"><ele>608.0</ele><time>2026-04-19T09:27:50Z</time></trkpt><trkpt lat="41.15447094310957" lon="15.342698199144625"><ele>608.0</ele><time>2026-04-19T09:27:51Z</time></trkpt><trkpt lat="41.154368794907" lon="15.342616810313796"><ele>608.0</ele><time>2026-04-19T09:27:52Z</time></trkpt><trkpt lat="41.15424950318736" lon="15.342558752876926"><ele>608.0</ele><time>2026-04-19T09:27:53Z</time></trkpt><trkpt lat="41.15410742780352" lon="15.34250955423629"><ele>609.25</ele><time>2026-04-19T09:27:54Z</time></trkpt><trkpt lat="41.15397263072919" lon="15.342445691754348"><ele>610.5</ele><time>2026-04-19T09:27:55Z</time></trkpt><trkpt lat="41.1538739425962" lon="15.342346098371769"><ele>611.75</ele><time>2026-04-19T09:27:56Z</time></trkpt><trkpt lat="41.15376916176362" lon="15.342223947682848"><ele>613.0</ele><time>2026-04-19T09:27:57Z</time></trkpt><trkpt lat="41.15362352021385" lon="15.342113982463504"><ele>609.5</ele><time>2026-04-19T09:27:58Z</time></trkpt><trkpt lat="41.15346921937507" lon="15.342001835054118"><ele>606.0</ele><time>2026-04-19T09:27:59Z</time></trkpt><trkpt lat="41.153369106690796" lon="15.341921196619111"><ele>602.5</ele><time>2026-04-19T09:28:00Z</time></trkpt><trkpt lat="41.15332918284567" lon="15.341845404462658"><ele>599.0</ele><time>2026-04-19T09:28:01Z</time></trkpt><trkpt lat="41.15331007286039" lon="15.341717774844033"><ele>599.0</ele><time>2026-04-19T09:28:02Z</time></trkpt><trkpt lat="41.153243258099735" lon="15.3415594160957"><ele>599.0</ele><time>2026-04-19T09:28:03Z</time></trkpt><trkpt lat="41.15314962504181" lon="15.341442950562074"><ele>599.0</ele><time>2026-04-19T09:28:04Z</time></trkpt><trkpt lat="41.15307873468364" lon="15.341394982905156"><ele>599.0</ele><time>2026-04-19T09:28:05Z</time></trkpt><trkpt lat="41.15306264266112" lon="15.341312352379703"><ele>599.0</ele><time>2026-04-19T09:28:07Z</time></trkpt><trkpt lat="41.15307069698677" lon="15.341210098576681"><ele>599.5</ele><time>2026-04-19T09:28:08Z</time></trkpt><trkpt lat="41.153122976521246" lon="15.341099884224052"><ele>600.0</ele><time>2026-04-19T09:28:09Z</time></trkpt><trkpt lat="41.15320209044842" lon="15.340928420914821"><ele>600.5</ele><time>2026-04-19T09:28:10Z</time></trkpt><trkpt lat="41.153280908799864" lon="15.3407411311136"><ele>601.0</ele><time>2026-04-19T09:28:11Z</time></trkpt><trkpt lat="41.153344490242574" lon="15.340586016692512"><ele>598.1666666666667</ele><time>2026-04-19T09:28:12Z</time></trkpt><trkpt lat="41.15339716366627" lon="15.34045669493319"><ele>595.3333333333334</ele><time>2026-04-19T09:28:13Z</time></trkpt><trkpt lat="41.15342497066448" lon="15.340334733855098"><ele>592.5</ele><time>2026-04-19T09:28:14Z</time></trkpt><trkpt lat="41.153408212868754" lon="15.34023490513192"><ele>589.6666666666666</ele><time>2026-04-19T09:28:15Z</time></trkpt><trkpt lat="41.153357549460125" lon="15.340178014305264"><ele>586.8333333333333</ele><time>2026-04-19T09:28:16Z</time></trkpt><trkpt lat="41.15329546613064" lon="15.340149982592527"><ele>584.0</ele><time>2026-04-19T09:28:17Z</time></trkpt><trkpt lat="41.15320902556701" lon="15.340133422230183"><ele>586.3333333333333</ele><time>2026-04-19T09:28:18Z</time></trkpt><trkpt lat="41.15306899286409" lon="15.340088554184538"><ele>588.6666666666666</ele><time>2026-04-19T09:28:19Z</time></trkpt><trkpt lat="41.15291794522576" lon="15.340021332347296"><ele>591.0</ele><time>2026-04-19T09:28:20Z</time></trkpt><trkpt lat="41.15273669104949" lon="15.339939426842987"><ele>591.0</ele><time>2026-04-19T09:28:21Z</time></trkpt><trkpt lat="41.15254379505817" lon="15.339845709837029"><ele>591.0</ele><time>2026-04-19T09:28:22Z</time></trkpt><trkpt lat="41.15234652695163" lon="15.33973697848119"><ele>591.0</ele><time>2026-04-19T09:28:23Z</time></trkpt><trkpt lat="41.15218449996198" lon="15.339666412300058"><ele>589.5</ele><time>2026-04-19T09:28:24Z</time></trkpt><trkpt lat="41.152059846936105" lon="15.339600183534884"><ele>588.0</ele><time>2026-04-19T09:28:25Z</time></trkpt><trkpt lat="41.151927406358794" lon="15.339538299721164"><ele>586.5</ele><time>2026-04-19T09:28:26Z</time></trkpt><trkpt lat="41.15179760797582" lon="15.33950136329047"><ele>585.0</ele><time>2026-04-19T09:28:27Z</time></trkpt><trkpt lat="41.151611936147496" lon="15.3394256261742"><ele>588.0</ele><time>2026-04-19T09:28:28Z</time></trkpt><trkpt lat="41.15140184642297" lon="15.339319399895622"><ele>591.0</ele><time>2026-04-19T09:28:29Z</time></trkpt><trkpt lat="41.15121118036866" lon="15.339228653336344"><ele>594.0</ele><time>2026-04-19T09:28:30Z</time></trkpt><trkpt lat="41.151051887618344" lon="15.339157077030709"><ele>594.0</ele><time>2026-04-19T09:28:31Z</time></trkpt><trkpt lat="41.15090602125019" lon="15.339100274403068"><ele>594.0</ele><time>2026-04-19T09:28:32Z</time></trkpt><trkpt lat="41.15077150687309" lon="15.339040014740668"><ele>594.0</ele><time>2026-04-19T09:28:33Z</time></trkpt><trkpt lat="41.15064782524325" lon="15.338977541362505"><ele>594.0</ele><time>2026-04-19T09:28:34Z</time></trkpt><trkpt lat="41.15050597221951" lon="15.338915328819427"><ele>592.0</ele><time>2026-04-19T09:28:35Z</time></trkpt><trkpt lat="41.15037436934185" lon="15.338836509469903"><ele>590.0</ele><time>2026-04-19T09:28:36Z</time></trkpt><trkpt lat="41.15023860506817" lon="15.338762876792392"><ele>588.0</ele><time>2026-04-19T09:28:37Z</time></trkpt><trkpt lat="41.15011257289635" lon="15.338696065100342"><ele>586.0</ele><time>2026-04-19T09:28:38Z</time></trkpt><trkpt lat="41.150007452651145" lon="15.338650952447598"><ele>586.0</ele><time>2026-04-19T09:28:39Z</time></trkpt><trkpt lat="41.14991164867434" lon="15.338621491126203"><ele>586.0</ele><time>2026-04-19T09:28:40Z</time></trkpt><trkpt lat="41.14982882060012" lon="15.338604170525041"><ele>586.0</ele><time>2026-04-19T09:28:41Z</time></trkpt><trkpt lat="41.14973450618295" lon="15.338590820496542"><ele>586.0</ele><time>2026-04-19T09:28:42Z</time></trkpt><trkpt lat="41.149646637582734" lon="15.338577459145574"><ele>586.0</ele><time>2026-04-19T09:28:43Z</time></trkpt><trkpt lat="41.149565363126335" lon="15.338565100859439"><ele>586.0</ele><time>2026-04-19T09:28:44Z</time></trkpt><trkpt lat="41.149471043450774" lon="15.338529635308586"><ele>586.6</ele><time>2026-04-19T09:28:46Z</time></trkpt><trkpt lat="41.14938115673549" lon="15.338453571204552"><ele>587.2</ele><time>2026-04-19T09:28:49Z</time></trkpt><trkpt lat="41.149308892668515" lon="15.33838544240927"><ele>587.8</ele><time>2026-04-19T09:28:50Z</time></trkpt><trkpt lat="41.14922970924633" lon="15.33831106614202"><ele>588.4</ele><time>2026-04-19T09:28:51Z</time></trkpt><trkpt lat="41.149126243355816" lon="15.338266837628925"><ele>589.0</ele><time>2026-04-19T09:28:52Z</time></trkpt><trkpt lat="41.149036192400544" lon="15.338192544162403"><ele>590.5</ele><time>2026-04-19T09:28:53Z</time></trkpt><trkpt lat="41.148910267246734" lon="15.338191416115592"><ele>592.0</ele><time>2026-04-19T09:28:54Z</time></trkpt><trkpt lat="41.148764065911124" lon="15.338181496251874"><ele>593.5</ele><time>2026-04-19T09:28:55Z</time></trkpt><trkpt lat="41.148627643122516" lon="15.3381554191711"><ele>595.0</ele><time>2026-04-19T09:28:56Z</time></trkpt><trkpt lat="41.148506019584914" lon="15.338090731972702"><ele>595.25</ele><time>2026-04-19T09:28:57Z</time></trkpt><trkpt lat="41.14839312701322" lon="15.338025589162896"><ele>595.5</ele><time>2026-04-19T09:28:58Z</time></trkpt><trkpt lat="41.148271691861794" lon="15.33793943867021"><ele>595.75</ele><time>2026-04-19T09:28:59Z</time></trkpt><trkpt lat="41.148147672327305" lon="15.337863953793574"><ele>596.0</ele><time>2026-04-19T09:29:00Z</time></trkpt><trkpt lat="41.1480679807234" lon="15.337810360145161"><ele>596.0</ele><time>2026-04-19T09:29:01Z</time></trkpt><trkpt lat="41.1480034174636" lon="15.337792175822058"><ele>596.0</ele><time>2026-04-19T09:29:02Z</time></trkpt><trkpt lat="41.147913026754615" lon="15.3378061842592"><ele>596.0</ele><time>2026-04-19T09:29:03Z</time></trkpt><trkpt lat="41.147817537123885" lon="15.337786465606984"><ele>596.0</ele><time>2026-04-19T09:29:04Z</time></trkpt><trkpt lat="41.14774770006996" lon="15.337767714614447"><ele>596.0</ele><time>2026-04-19T09:29:05Z</time></trkpt><trkpt lat="41.147686564906294" lon="15.337601376039423"><ele>596.0</ele><time>2026-04-19T09:29:07Z</time></trkpt><trkpt lat="41.14764443825571" lon="15.337448133194759"><ele>596.0</ele><time>2026-04-19T09:29:08Z</time></trkpt><trkpt lat="41.14758787643929" lon="15.337351636640925"><ele>596.0</ele><time>2026-04-19T09:29:09Z</time></trkpt><trkpt lat="41.14752574811998" lon="15.337265553766391"><ele>596.0</ele><time>2026-04-19T09:29:10Z</time></trkpt><trkpt lat="41.14744236162349" lon="15.337183265635952"><ele>596.0</ele><time>2026-04-19T09:29:11Z</time></trkpt><trkpt lat="41.1473526336066" lon="15.33710779227613"><ele>595.5</ele><time>2026-04-19T09:29:12Z</time></trkpt><trkpt lat="41.14725455758486" lon="15.337062952424601"><ele>595.0</ele><time>2026-04-19T09:29:13Z</time></trkpt><trkpt lat="41.14714305615854" lon="15.337049262899598"><ele>594.5</ele><time>2026-04-19T09:29:14Z</time></trkpt><trkpt lat="41.14701319328485" lon="15.337047015682147"><ele>594.0</ele><time>2026-04-19T09:29:15Z</time></trkpt><trkpt lat="41.14685076206901" lon="15.337057763903404"><ele>594.0</ele><time>2026-04-19T09:29:16Z</time></trkpt><trkpt lat="41.1467050651433" lon="15.337056609882566"><ele>594.0</ele><time>2026-04-19T09:29:17Z</time></trkpt><trkpt lat="41.14656993895686" lon="15.337053433701783"><ele>594.0</ele><time>2026-04-19T09:29:18Z</time></trkpt><trkpt lat="41.146459913587854" lon="15.337057619471112"><ele>594.0</ele><time>2026-04-19T09:29:19Z</time></trkpt><trkpt lat="41.146330456975754" lon="15.337072560935137"><ele>593.75</ele><time>2026-04-19T09:29:20Z</time></trkpt><trkpt lat="41.146194438428296" lon="15.337129908348748"><ele>593.5</ele><time>2026-04-19T09:29:21Z</time></trkpt><trkpt lat="41.14605045670917" lon="15.337182838605386"><ele>593.25</ele><time>2026-04-19T09:29:22Z</time></trkpt><trkpt lat="41.14590761660963" lon="15.337251131484011"><ele>593.0</ele><time>2026-04-19T09:29:23Z</time></trkpt><trkpt lat="41.145746596301535" lon="15.33733628828096"><ele>599.3333333333333</ele><time>2026-04-19T09:29:24Z</time></trkpt><trkpt lat="41.14556588648299" lon="15.33740752444057"><ele>605.6666666666666</ele><time>2026-04-19T09:29:25Z</time></trkpt><trkpt lat="41.14538284679276" lon="15.337491793526608"><ele>612.0</ele><time>2026-04-19T09:29:26Z</time></trkpt><trkpt lat="41.1452089363093" lon="15.337569943390038"><ele>612.0</ele><time>2026-04-19T09:29:27Z</time></trkpt><trkpt lat="41.14502788776433" lon="15.337645001982361"><ele>612.0</ele><time>2026-04-19T09:29:28Z</time></trkpt><trkpt lat="41.14489346024651" lon="15.337652574317534"><ele>612.0</ele><time>2026-04-19T09:29:29Z</time></trkpt><trkpt lat="41.14480425705167" lon="15.337629425662085"><ele>612.0</ele><time>2026-04-19T09:29:30Z</time></trkpt><trkpt lat="41.1447211491807" lon="15.337693195833475"><ele>612.25</ele><time>2026-04-19T09:29:31Z</time></trkpt><trkpt lat="41.1446607679487" lon="15.337600526408822"><ele>612.5</ele><time>2026-04-19T09:29:35Z</time></trkpt><trkpt lat="41.144733724903496" lon="15.337661827177866"><ele>612.75</ele><time>2026-04-19T09:29:38Z</time></trkpt><trkpt lat="41.144637339883054" lon="15.33789102063768"><ele>613.0</ele><time>2026-04-19T09:29:41Z</time></trkpt><trkpt lat="41.14455827505897" lon="15.337852540701373"><ele>613.0</ele><time>2026-04-19T09:29:42Z</time></trkpt><trkpt lat="41.14454486168705" lon="15.337747864653796"><ele>613.0</ele><time>2026-04-19T09:29:45Z</time></trkpt><trkpt lat="41.14445725183671" lon="15.337744354530681"><ele>613.0</ele><time>2026-04-19T09:29:47Z</time></trkpt><trkpt lat="41.14434839490693" lon="15.337767422036528"><ele>613.0</ele><time>2026-04-19T09:29:48Z</time></trkpt><trkpt lat="41.14426297649734" lon="15.33780575980516"><ele>613.0</ele><time>2026-04-19T09:29:50Z</time></trkpt><trkpt lat="41.14418091271546" lon="15.337842592446984"><ele>613.0</ele><time>2026-04-19T09:29:52Z</time></trkpt><trkpt lat="41.14409624245461" lon="15.337879252670117"><ele>613.0</ele><time>2026-04-19T09:29:54Z</time></trkpt><trkpt lat="41.14402598569644" lon="15.337909425335694"><ele>613.0</ele><time>2026-04-19T09:29:57Z</time></trkpt><trkpt lat="41.143906412213255" lon="15.337960777618026"><ele>613.0</ele><time>2026-04-19T09:29:58Z</time></trkpt><trkpt lat="41.143836106454835" lon="15.337990971528153"><ele>613.0</ele><time>2026-04-19T09:29:59Z</time></trkpt><trkpt lat="41.14376318764233" lon="15.338022620565617"><ele>613.0</ele><time>2026-04-19T09:30:00Z</time></trkpt><trkpt lat="41.143702055052884" lon="15.33804947708125"><ele>617.5</ele><time>2026-04-19T09:30:01Z</time></trkpt><trkpt lat="41.14360085426545" lon="15.33809393634085"><ele>622.0</ele><time>2026-04-19T09:30:03Z</time></trkpt><trkpt lat="41.14349775511701" lon="15.33813922947403"><ele>626.5</ele><time>2026-04-19T09:30:05Z</time></trkpt><trkpt lat="41.14340729541378" lon="15.338178969938921"><ele>631.0</ele><time>2026-04-19T09:30:07Z</time></trkpt><trkpt lat="41.14358226811207" lon="15.339109637585093"><ele>634.8333333333334</ele><time>2026-04-19T09:30:10Z</time></trkpt><trkpt lat="41.14354318466131" lon="15.339200266872085"><ele>638.6666666666667</ele><time>2026-04-19T09:30:12Z</time></trkpt><trkpt lat="41.143509549954324" lon="15.339292776559688"><ele>642.5</ele><time>2026-04-19T09:30:17Z</time></trkpt><trkpt lat="41.14348263523906" lon="15.339401185802881"><ele>646.3333333333334</ele><time>2026-04-19T09:30:21Z</time></trkpt><trkpt lat="41.143438259087176" lon="15.339494231038787"><ele>650.1666666666666</ele><time>2026-04-19T09:30:24Z</time></trkpt><trkpt lat="41.1434154676867" lon="15.33957364823589"><ele>654.0</ele><time>2026-04-19T09:30:27Z</time></trkpt><trkpt lat="41.14339604425064" lon="15.339689189483568"><ele>654.8000000000001</ele><time>2026-04-19T09:30:31Z</time></trkpt><trkpt lat="41.14333277968785" lon="15.339805889797438"><ele>655.6</ele><time>2026-04-19T09:30:34Z</time></trkpt><trkpt lat="41.14327299351643" lon="15.339904299195197"><ele>656.4</ele><time>2026-04-19T09:30:36Z</time></trkpt><trkpt lat="41.14323111394258" lon="15.340030454438738"><ele>657.2</ele><time>2026-04-19T09:30:38Z</time></trkpt><trkpt lat="41.14319683633691" lon="15.340112360238592"><ele>658.0</ele><time>2026-04-19T09:30:40Z</time></trkpt><trkpt lat="41.14316848092662" lon="15.340232543572636"><ele>658.0</ele><time>2026-04-19T09:30:42Z</time></trkpt><trkpt lat="41.1431481077705" lon="15.340321825276446"><ele>658.0</ele><time>2026-04-19T09:30:43Z</time></trkpt><trkpt lat="41.143102671451246" lon="15.340429305763074"><ele>658.0</ele><time>2026-04-19T09:30:45Z</time></trkpt><trkpt lat="41.14300098778715" lon="15.340499630841082"><ele>658.0</ele><time>2026-04-19T09:30:47Z</time></trkpt><trkpt lat="41.14289154039808" lon="15.340590367741388"><ele>658.0</ele><time>2026-04-19T09:30:49Z</time></trkpt><trkpt lat="41.142831927006974" lon="15.340651842449498"><ele>660.0</ele><time>2026-04-19T09:30:50Z</time></trkpt><trkpt lat="41.14275431934748" lon="15.340736649829635"><ele>662.0</ele><time>2026-04-19T09:30:51Z</time></trkpt><trkpt lat="41.14267913937601" lon="15.340830704710376"><ele>664.0</ele><time>2026-04-19T09:30:52Z</time></trkpt><trkpt lat="41.14260409695585" lon="15.340923957023419"><ele>666.0</ele><time>2026-04-19T09:30:53Z</time></trkpt><trkpt lat="41.1425662909842" lon="15.340995302083861"><ele>668.0</ele><time>2026-04-19T09:30:54Z</time></trkpt><trkpt lat="41.14254036531187" lon="15.341085158987976"><ele>670.0</ele><time>2026-04-19T09:30:55Z</time></trkpt><trkpt lat="41.1424591650645" lon="15.341203744802923"><ele>670.0</ele><time>2026-04-19T09:30:57Z</time></trkpt><trkpt lat="41.14238232432029" lon="15.3412244103295"><ele>670.0</ele><time>2026-04-19T09:30:58Z</time></trkpt><trkpt lat="41.14229745825788" lon="15.34120128217515"><ele>670.0</ele><time>2026-04-19T09:30:59Z</time></trkpt><trkpt lat="41.142227223843584" lon="15.34120090354925"><ele>670.0</ele><time>2026-04-19T09:31:00Z</time></trkpt><trkpt lat="41.142166935292664" lon="15.341309611460119"><ele>670.0</ele><time>2026-04-19T09:31:02Z</time></trkpt><trkpt lat="41.142128449559856" lon="15.341411122493696"><ele>670.0</ele><time>2026-04-19T09:31:03Z</time></trkpt><trkpt lat="41.14210315382749" lon="15.341545116079708"><ele>667.6666666666667</ele><time>2026-04-19T09:31:04Z</time></trkpt><trkpt lat="41.142093681966095" lon="15.341662028835922"><ele>665.3333333333334</ele><time>2026-04-19T09:31:05Z</time></trkpt><trkpt lat="41.14206367791929" lon="15.341758568278447"><ele>663.0</ele><time>2026-04-19T09:31:06Z</time></trkpt><trkpt lat="41.14203216191766" lon="15.341838672739922"><ele>660.6666666666666</ele><time>2026-04-19T09:31:07Z</time></trkpt><trkpt lat="41.14198724054606" lon="15.34196016950096"><ele>658.3333333333333</ele><time>2026-04-19T09:31:08Z</time></trkpt><trkpt lat="41.141941327337" lon="15.342080819002584"><ele>656.0</ele><time>2026-04-19T09:31:09Z</time></trkpt><trkpt lat="41.141893650854726" lon="15.342181107171571"><ele>658.4</ele><time>2026-04-19T09:31:10Z</time></trkpt><trkpt lat="41.14183457967718" lon="15.342252541227209"><ele>660.8</ele><time>2026-04-19T09:31:11Z</time></trkpt><trkpt lat="41.141753980537835" lon="15.34235112670797"><ele>663.1999999999999</ele><time>2026-04-19T09:31:12Z</time></trkpt><trkpt lat="41.14166260051298" lon="15.34245250376439"><ele>665.5999999999999</ele><time>2026-04-19T09:31:13Z</time></trkpt><trkpt lat="41.14159376355425" lon="15.342550720784443"><ele>668.0</ele><time>2026-04-19T09:31:14Z</time></trkpt><trkpt lat="41.141545673784464" lon="15.342616926238653"><ele>663.8333333333333</ele><time>2026-04-19T09:31:15Z</time></trkpt><trkpt lat="41.141479252625565" lon="15.342661006370324"><ele>659.6666666666666</ele><time>2026-04-19T09:31:17Z</time></trkpt><trkpt lat="41.14140538722469" lon="15.342591164576893"><ele>655.5</ele><time>2026-04-19T09:31:19Z</time></trkpt><trkpt lat="41.14137320560548" lon="15.342516888648698"><ele>651.3333333333334</ele><time>2026-04-19T09:31:20Z</time></trkpt><trkpt lat="41.14135453405462" lon="15.34240306534464"><ele>647.1666666666667</ele><time>2026-04-19T09:31:21Z</time></trkpt><trkpt lat="41.141332002604166" lon="15.342252631566906"><ele>643.0</ele><time>2026-04-19T09:31:22Z</time></trkpt><trkpt lat="41.141280461855764" lon="15.342085240796825"><ele>641.6</ele><time>2026-04-19T09:31:23Z</time></trkpt><trkpt lat="41.14124824369084" lon="15.341938000345202"><ele>640.1999999999999</ele><time>2026-04-19T09:31:24Z</time></trkpt><trkpt lat="41.14123731868502" lon="15.341807731808602"><ele>638.8</ele><time>2026-04-19T09:31:25Z</time></trkpt><trkpt lat="41.14125815650189" lon="15.341706857126548"><ele>637.4</ele><time>2026-04-19T09:31:26Z</time></trkpt><trkpt lat="41.14129405096417" lon="15.341594266836486"><ele>636.0</ele><time>2026-04-19T09:31:27Z</time></trkpt><trkpt lat="41.14132289396786" lon="15.341500093637574"><ele>636.0</ele><time>2026-04-19T09:31:28Z</time></trkpt><trkpt lat="41.14136361591559" lon="15.341416872612903"><ele>636.0</ele><time>2026-04-19T09:31:29Z</time></trkpt><trkpt lat="41.141412455306266" lon="15.341295512741558"><ele>636.0</ele><time>2026-04-19T09:31:30Z</time></trkpt><trkpt lat="41.1413957090714" lon="15.34117524736164"><ele>636.0</ele><time>2026-04-19T09:31:31Z</time></trkpt><trkpt lat="41.14133509377834" lon="15.341247252101155"><ele>636.0</ele><time>2026-04-19T09:31:37Z</time></trkpt><trkpt lat="41.141262247668415" lon="15.341361150741026"><ele>636.0</ele><time>2026-04-19T09:31:38Z</time></trkpt><trkpt lat="41.14114979109566" lon="15.341474168099353"><ele>636.0</ele><time>2026-04-19T09:31:39Z</time></trkpt><trkpt lat="41.141089969175276" lon="15.341570252378359"><ele>636.0</ele><time>2026-04-19T09:31:40Z</time></trkpt><trkpt lat="41.14105874989162" lon="15.34168868342128"><ele>636.0</ele><time>2026-04-19T09:31:42Z</time></trkpt><trkpt lat="41.140912113204784" lon="15.341607764781669"><ele>636.0</ele><time>2026-04-19T09:31:51Z</time></trkpt><trkpt lat="41.140856462432836" lon="15.34150456928765"><ele>636.0</ele><time>2026-04-19T09:31:53Z</time></trkpt><trkpt lat="41.140855747922856" lon="15.341419947820372"><ele>636.0</ele><time>2026-04-19T09:31:55Z</time></trkpt><trkpt lat="41.14081157027685" lon="15.34131711082634"><ele>636.0</ele><time>2026-04-19T09:31:57Z</time></trkpt><trkpt lat="41.14074517204689" lon="15.341284581012602"><ele>636.0</ele><time>2026-04-19T09:31:59Z</time></trkpt><trkpt lat="41.140647088446315" lon="15.341252920748891"><ele>636.0</ele><time>2026-04-19T09:32:03Z</time></trkpt><trkpt lat="41.14058611392179" lon="15.341329180695954"><ele>632.3333333333334</ele><time>2026-04-19T09:32:06Z</time></trkpt><trkpt lat="41.14050803417718" lon="15.341397436044517"><ele>628.6666666666666</ele><time>2026-04-19T09:32:08Z</time></trkpt><trkpt lat="41.140391862324925" lon="15.341428151555725"><ele>625.0</ele><time>2026-04-19T09:32:10.999Z</time></trkpt><trkpt lat="41.14030561919798" lon="15.341409531904068"><ele>621.3333333333333</ele><time>2026-04-19T09:32:12.999Z</time></trkpt><trkpt lat="41.14024993662346" lon="15.341363729021129"><ele>617.6666666666666</ele><time>2026-04-19T09:32:13.999Z</time></trkpt><trkpt lat="41.14017557659295" lon="15.341342514019036"><ele>614.0</ele><time>2026-04-19T09:32:15.999Z</time></trkpt><trkpt lat="41.140084330507975" lon="15.341275985772251"><ele>613.3333333333333</ele><time>2026-04-19T09:32:18.999Z</time></trkpt><trkpt lat="41.14000435608134" lon="15.341242449757601"><ele>612.6666666666666</ele><time>2026-04-19T09:32:22Z</time></trkpt><trkpt lat="41.13992787259059" lon="15.341243258156751"><ele>612.0</ele><time>2026-04-19T09:32:25Z</time></trkpt><trkpt lat="41.13985545631938" lon="15.341221096024645"><ele>611.3333333333334</ele><time>2026-04-19T09:32:28Z</time></trkpt><trkpt lat="41.139790282808384" lon="15.341195786118151"><ele>610.6666666666667</ele><time>2026-04-19T09:32:29Z</time></trkpt><trkpt lat="41.139684569163556" lon="15.341192480484462"><ele>610.0</ele><time>2026-04-19T09:32:30Z</time></trkpt><trkpt lat="41.13958370227162" lon="15.34121441767638"><ele>606.8333333333334</ele><time>2026-04-19T09:32:32Z</time></trkpt><trkpt lat="41.139490415204186" lon="15.341246480492648"><ele>603.6666666666667</ele><time>2026-04-19T09:32:34Z</time></trkpt><trkpt lat="41.13942964796315" lon="15.341299421186292"><ele>600.5</ele><time>2026-04-19T09:32:37Z</time></trkpt><trkpt lat="41.13936043066749" lon="15.341302821932409"><ele>597.3333333333334</ele><time>2026-04-19T09:32:39Z</time></trkpt><trkpt lat="41.13927762834792" lon="15.341326240349417"><ele>594.1666666666666</ele><time>2026-04-19T09:32:41Z</time></trkpt><trkpt lat="41.13919512866904" lon="15.341321176444477"><ele>591.0</ele><time>2026-04-19T09:32:43Z</time></trkpt><trkpt lat="41.13913408045555" lon="15.341259536830202"><ele>591.0</ele><time>2026-04-19T09:32:45Z</time></trkpt><trkpt lat="41.139088841657376" lon="15.341180696561379"><ele>591.0</ele><time>2026-04-19T09:32:48Z</time></trkpt><trkpt lat="41.13899375759005" lon="15.341135065423408"><ele>591.0</ele><time>2026-04-19T09:32:50Z</time></trkpt><trkpt lat="41.13893082898897" lon="15.341169375905999"><ele>591.0</ele><time>2026-04-19T09:32:52Z</time></trkpt><trkpt lat="41.13888265451014" lon="15.341250034596493"><ele>591.0</ele><time>2026-04-19T09:32:54Z</time></trkpt><trkpt lat="41.13884902173604" lon="15.34132796506586"><ele>591.0</ele><time>2026-04-19T09:32:56Z</time></trkpt><trkpt lat="41.1387895231463" lon="15.34138309464571"><ele>589.6</ele><time>2026-04-19T09:32:58Z</time></trkpt><trkpt lat="41.138710760642226" lon="15.341399070826936"><ele>588.2</ele><time>2026-04-19T09:33:00Z</time></trkpt><trkpt lat="41.138613635328355" lon="15.341435730505896"><ele>586.8</ele><time>2026-04-19T09:33:02Z</time></trkpt><trkpt lat="41.13851511227541" lon="15.341459150887301"><ele>585.4</ele><time>2026-04-19T09:33:04Z</time></trkpt><trkpt lat="41.13843035796906" lon="15.341502891068517"><ele>584.0</ele><time>2026-04-19T09:33:06Z</time></trkpt><trkpt lat="41.13834706238704" lon="15.341512971409387"><ele>584.0</ele><time>2026-04-19T09:33:10Z</time></trkpt><trkpt lat="41.13828048898038" lon="15.341492109852409"><ele>584.0</ele><time>2026-04-19T09:33:13Z</time></trkpt><trkpt lat="41.13819305554232" lon="15.341499245256776"><ele>584.0</ele><time>2026-04-19T09:33:16Z</time></trkpt><trkpt lat="41.13811904739934" lon="15.341445495772595"><ele>584.0</ele><time>2026-04-19T09:33:19Z</time></trkpt><trkpt lat="41.1380779088403" lon="15.341379848290126"><ele>584.0</ele><time>2026-04-19T09:33:22Z</time></trkpt><trkpt lat="41.138048132522385" lon="15.34128730872332"><ele>584.0</ele><time>2026-04-19T09:33:25Z</time></trkpt><trkpt lat="41.13798911202467" lon="15.341242566679991"><ele>584.0</ele><time>2026-04-19T09:33:27Z</time></trkpt><trkpt lat="41.137903858317244" lon="15.341179873928576"><ele>580.6666666666666</ele><time>2026-04-19T09:33:30Z</time></trkpt><trkpt lat="41.13783829889078" lon="15.34114573486085"><ele>577.3333333333333</ele><time>2026-04-19T09:33:32Z</time></trkpt><trkpt lat="41.137745088951355" lon="15.34107970584375"><ele>574.0</ele><time>2026-04-19T09:33:35Z</time></trkpt><trkpt lat="41.137695633002316" lon="15.341012106861957"><ele>570.6666666666666</ele><time>2026-04-19T09:33:37Z</time></trkpt><trkpt lat="41.13760694206285" lon="15.341010635994845"><ele>567.3333333333334</ele><time>2026-04-19T09:33:39Z</time></trkpt><trkpt lat="41.137532248539" lon="15.341032523143419"><ele>564.0</ele><time>2026-04-19T09:33:41Z</time></trkpt><trkpt lat="41.13744754938717" lon="15.340987966803738"><ele>562.3333333333334</ele><time>2026-04-19T09:33:44Z</time></trkpt><trkpt lat="41.13736540467275" lon="15.340978736509394"><ele>560.6666666666666</ele><time>2026-04-19T09:33:47Z</time></trkpt><trkpt lat="41.13727859608994" lon="15.340952803619528"><ele>559.0</ele><time>2026-04-19T09:33:49Z</time></trkpt><trkpt lat="41.137211360746406" lon="15.340901223532573"><ele>557.3333333333333</ele><time>2026-04-19T09:33:51Z</time></trkpt><trkpt lat="41.13715033326373" lon="15.340854338907448"><ele>555.6666666666666</ele><time>2026-04-19T09:33:53Z</time></trkpt><trkpt lat="41.13708189082516" lon="15.340777456933752"><ele>554.0</ele><time>2026-04-19T09:33:55Z</time></trkpt><trkpt lat="41.13702198756567" lon="15.340745708129852"><ele>554.0</ele><time>2026-04-19T09:33:57Z</time></trkpt><trkpt lat="41.136985286919575" lon="15.340654325806824"><ele>554.0</ele><time>2026-04-19T09:34:00Z</time></trkpt><trkpt lat="41.13691925367658" lon="15.340579341057932"><ele>554.0</ele><time>2026-04-19T09:34:03Z</time></trkpt><trkpt lat="41.13684802095826" lon="15.340551702747526"><ele>554.0</ele><time>2026-04-19T09:34:05.999Z</time></trkpt><trkpt lat="41.13678513287573" lon="15.340504638688246"><ele>554.0</ele><time>2026-04-19T09:34:08.999Z</time></trkpt><trkpt lat="41.136724091337115" lon="15.34045505366441"><ele>554.0</ele><time>2026-04-19T09:34:11.999Z</time></trkpt><trkpt lat="41.13667382624799" lon="15.34039392187676"><ele>552.8333333333333</ele><time>2026-04-19T09:34:13.999Z</time></trkpt><trkpt lat="41.13664177925623" lon="15.340299268825083"><ele>551.6666666666666</ele><time>2026-04-19T09:34:15.999Z</time></trkpt><trkpt lat="41.136589252774485" lon="15.340232750810454"><ele>550.5</ele><time>2026-04-19T09:34:17.999Z</time></trkpt><trkpt lat="41.136575850855344" lon="15.340138549011385"><ele>549.3333333333334</ele><time>2026-04-19T09:34:19.999Z</time></trkpt><trkpt lat="41.136525448934364" lon="15.340036949756431"><ele>548.1666666666667</ele><time>2026-04-19T09:34:20.999Z</time></trkpt><trkpt lat="41.13649966305423" lon="15.339944993610837"><ele>547.0</ele><time>2026-04-19T09:34:21.999Z</time></trkpt><trkpt lat="41.13644987830386" lon="15.339786458804586"><ele>545.0</ele><time>2026-04-19T09:34:22.999Z</time></trkpt><trkpt lat="41.13643093275051" lon="15.339705209869505"><ele>543.0</ele><time>2026-04-19T09:34:24.999Z</time></trkpt><trkpt lat="41.13642996979786" lon="15.339571435734962"><ele>541.0</ele><time>2026-04-19T09:34:28Z</time></trkpt><trkpt lat="41.136421394399974" lon="15.339401350036548"><ele>539.0</ele><time>2026-04-19T09:34:30Z</time></trkpt><trkpt lat="41.136421978771004" lon="15.339221237817222"><ele>537.0</ele><time>2026-04-19T09:34:31Z</time></trkpt><trkpt lat="41.13640801550469" lon="15.338952500927618"><ele>537.5</ele><time>2026-04-19T09:34:32Z</time></trkpt><trkpt lat="41.13639444636246" lon="15.338753892095658"><ele>538.0</ele><time>2026-04-19T09:34:33Z</time></trkpt><trkpt lat="41.13638525652371" lon="15.338565167757428"><ele>538.5</ele><time>2026-04-19T09:34:34Z</time></trkpt><trkpt lat="41.1363772857492" lon="15.338388150825846"><ele>539.0</ele><time>2026-04-19T09:34:35Z</time></trkpt><trkpt lat="41.136347022128696" lon="15.338206008134252"><ele>539.0</ele><time>2026-04-19T09:34:36Z</time></trkpt><trkpt lat="41.136299984580404" lon="15.338055620253002"><ele>539.0</ele><time>2026-04-19T09:34:37Z</time></trkpt><trkpt lat="41.13622001437042" lon="15.33793639755238"><ele>539.0</ele><time>2026-04-19T09:34:38Z</time></trkpt><trkpt lat="41.13618166678811" lon="15.337853943393233"><ele>539.0</ele><time>2026-04-19T09:34:39Z</time></trkpt><trkpt lat="41.136154884155516" lon="15.33775162801033"><ele>539.0</ele><time>2026-04-19T09:34:40Z</time></trkpt><trkpt lat="41.136115808421074" lon="15.337558233137296"><ele>539.5</ele><time>2026-04-19T09:34:42Z</time></trkpt><trkpt lat="41.13610391190493" lon="15.337393891332756"><ele>540.0</ele><time>2026-04-19T09:34:43Z</time></trkpt><trkpt lat="41.136107751086044" lon="15.33719025512368"><ele>540.5</ele><time>2026-04-19T09:34:44Z</time></trkpt><trkpt lat="41.13610458875913" lon="15.337028162477116"><ele>541.0</ele><time>2026-04-19T09:34:45Z</time></trkpt><trkpt lat="41.136104607886764" lon="15.336922270914515"><ele>541.8</ele><time>2026-04-19T09:34:46Z</time></trkpt><trkpt lat="41.13608278494987" lon="15.336799263494788"><ele>542.6</ele><time>2026-04-19T09:34:48Z</time></trkpt><trkpt lat="41.13605776148266" lon="15.336644940254178"><ele>543.4</ele><time>2026-04-19T09:34:50Z</time></trkpt><trkpt lat="41.136042383720365" lon="15.336537039229963"><ele>544.2</ele><time>2026-04-19T09:34:51Z</time></trkpt><trkpt lat="41.136014133418904" lon="15.33640120853948"><ele>545.0</ele><time>2026-04-19T09:34:52Z</time></trkpt><trkpt lat="41.13597551054011" lon="15.33624697713071"><ele>548.0</ele><time>2026-04-19T09:34:53Z</time></trkpt><trkpt lat="41.135928578972305" lon="15.336074675136041"><ele>551.0</ele><time>2026-04-19T09:34:54Z</time></trkpt><trkpt lat="41.13588037338443" lon="15.335873182300858"><ele>554.0</ele><time>2026-04-19T09:34:55Z</time></trkpt><trkpt lat="41.13582808803712" lon="15.335635686258627"><ele>557.3333333333333</ele><time>2026-04-19T09:34:56Z</time></trkpt><trkpt lat="41.1357777019673" lon="15.335369876895989"><ele>560.6666666666666</ele><time>2026-04-19T09:34:57Z</time></trkpt><trkpt lat="41.13574830749812" lon="15.335134634713912"><ele>564.0</ele><time>2026-04-19T09:34:58Z</time></trkpt><trkpt lat="41.13573603960722" lon="15.334979245889174"><ele>563.2</ele><time>2026-04-19T09:34:59Z</time></trkpt><trkpt lat="41.13571944928462" lon="15.334833933202674"><ele>562.4</ele><time>2026-04-19T09:35:00Z</time></trkpt><trkpt lat="41.13569692155752" lon="15.334719912152956"><ele>561.6</ele><time>2026-04-19T09:35:01Z</time></trkpt><trkpt lat="41.13565695845564" lon="15.334586446098958"><ele>560.8</ele><time>2026-04-19T09:35:02Z</time></trkpt><trkpt lat="41.13561134319881" lon="15.334425615729128"><ele>560.0</ele><time>2026-04-19T09:35:03Z</time></trkpt><trkpt lat="41.13556657709549" lon="15.334267482965643"><ele>562.6666666666666</ele><time>2026-04-19T09:35:04Z</time></trkpt><trkpt lat="41.135523335859936" lon="15.334078189411624"><ele>565.3333333333334</ele><time>2026-04-19T09:35:05Z</time></trkpt><trkpt lat="41.13548208414575" lon="15.333860171326993"><ele>568.0</ele><time>2026-04-19T09:35:06Z</time></trkpt><trkpt lat="41.13546389319092" lon="15.333652637960265"><ele>571.0</ele><time>2026-04-19T09:35:07Z</time></trkpt><trkpt lat="41.1354377945885" lon="15.333445336560231"><ele>574.0</ele><time>2026-04-19T09:35:08Z</time></trkpt><trkpt lat="41.13542111880559" lon="15.333248679532899"><ele>577.0</ele><time>2026-04-19T09:35:09Z</time></trkpt><trkpt lat="41.13539459837116" lon="15.333030813060018"><ele>579.6666666666667</ele><time>2026-04-19T09:35:10Z</time></trkpt><trkpt lat="41.13538794350904" lon="15.332813480802988"><ele>582.3333333333334</ele><time>2026-04-19T09:35:11Z</time></trkpt><trkpt lat="41.13537977069145" lon="15.332598603966689"><ele>585.0</ele><time>2026-04-19T09:35:12Z</time></trkpt><trkpt lat="41.135365340715786" lon="15.332368578461693"><ele>586.75</ele><time>2026-04-19T09:35:13Z</time></trkpt><trkpt lat="41.13535773381803" lon="15.332169553380579"><ele>588.5</ele><time>2026-04-19T09:35:14Z</time></trkpt><trkpt lat="41.13535820967134" lon="15.331978618236082"><ele>590.25</ele><time>2026-04-19T09:35:15Z</time></trkpt><trkpt lat="41.13534641986054" lon="15.331802369012387"><ele>592.0</ele><time>2026-04-19T09:35:16Z</time></trkpt><trkpt lat="41.13533437695555" lon="15.331660935049237"><ele>592.0</ele><time>2026-04-19T09:35:17Z</time></trkpt><trkpt lat="41.13532710590215" lon="15.33153927620172"><ele>592.0</ele><time>2026-04-19T09:35:18Z</time></trkpt><trkpt lat="41.13531442120701" lon="15.331444172472322"><ele>592.0</ele><time>2026-04-19T09:35:19Z</time></trkpt><trkpt lat="41.13536587347732" lon="15.331377307517235"><ele>592.0</ele><time>2026-04-19T09:35:22Z</time></trkpt><trkpt lat="41.13545415727322" lon="15.331376107929124"><ele>592.0</ele><time>2026-04-19T09:42:19.999Z</time></trkpt><trkpt lat="41.135530824294996" lon="15.331434069622047"><ele>592.0</ele><time>2026-04-19T09:42:21.999Z</time></trkpt><trkpt lat="41.13560709314785" lon="15.331432557477115"><ele>593.2</ele><time>2026-04-19T09:42:23.999Z</time></trkpt><trkpt lat="41.135673478426284" lon="15.33135937769175"><ele>594.4000000000001</ele><time>2026-04-19T09:42:41.999Z</time></trkpt><trkpt lat="41.13572680669944" lon="15.331291855380393"><ele>595.5999999999999</ele><time>2026-04-19T09:42:42.999Z</time></trkpt><trkpt lat="41.13578195102456" lon="15.33121175730358"><ele>596.8</ele><time>2026-04-19T09:42:43.999Z</time></trkpt><trkpt lat="41.13583678007052" lon="15.331107924009576"><ele>598.0</ele><time>2026-04-19T09:42:44.999Z</time></trkpt><trkpt lat="41.13591961358774" lon="15.330960517056502"><ele>598.0</ele><time>2026-04-19T09:42:45.999Z</time></trkpt><trkpt lat="41.13598095179309" lon="15.330828001729486"><ele>598.0</ele><time>2026-04-19T09:42:46.999Z</time></trkpt><trkpt lat="41.13600470385151" lon="15.330697329185917"><ele>598.0</ele><time>2026-04-19T09:42:47.999Z</time></trkpt><trkpt lat="41.13605060683113" lon="15.330586614282222"><ele>598.0</ele><time>2026-04-19T09:42:48.999Z</time></trkpt><trkpt lat="41.13609580411659" lon="15.330477843667197"><ele>598.0</ele><time>2026-04-19T09:42:49.999Z</time></trkpt><trkpt lat="41.1361530920561" lon="15.330373570454144"><ele>598.8</ele><time>2026-04-19T09:42:51Z</time></trkpt><trkpt lat="41.13620768190542" lon="15.330273099538504"><ele>599.5999999999999</ele><time>2026-04-19T09:42:52Z</time></trkpt><trkpt lat="41.13626517268537" lon="15.33018500960164"><ele>600.4000000000001</ele><time>2026-04-19T09:42:53Z</time></trkpt><trkpt lat="41.1362994334025" lon="15.330076773264784"><ele>601.2</ele><time>2026-04-19T09:42:54Z</time></trkpt><trkpt lat="41.13632717134377" lon="15.329919929087042"><ele>602.0</ele><time>2026-04-19T09:42:55Z</time></trkpt><trkpt lat="41.1363546694535" lon="15.329835716099696"><ele>602.0</ele><time>2026-04-19T09:42:56Z</time></trkpt><trkpt lat="41.13639720770731" lon="15.329712384020736"><ele>602.0</ele><time>2026-04-19T09:42:58Z</time></trkpt><trkpt lat="41.1363918763625" lon="15.329595173214209"><ele>602.0</ele><time>2026-04-19T09:43:00Z</time></trkpt><trkpt lat="41.136305421448526" lon="15.329611870276358"><ele>602.0</ele><time>2026-04-19T09:43:04Z</time></trkpt><trkpt lat="41.13627625490827" lon="15.329713771559282"><ele>602.0</ele><time>2026-04-19T09:43:08Z</time></trkpt><trkpt lat="41.13632662776417" lon="15.329801553674494"><ele>602.0</ele><time>2026-04-19T09:43:13Z</time></trkpt><trkpt lat="41.13632912643365" lon="15.329916949026293"><ele>602.0</ele><time>2026-04-19T09:43:17Z</time></trkpt><trkpt lat="41.13628855227702" lon="15.330010763740692"><ele>602.0</ele><time>2026-04-19T09:43:18Z</time></trkpt><trkpt lat="41.1362776433071" lon="15.33011292023481"><ele>602.0</ele><time>2026-04-19T09:43:19Z</time></trkpt><trkpt lat="41.13631372214818" lon="15.330214808516164"><ele>602.0</ele><time>2026-04-19T09:43:21Z</time></trkpt><trkpt lat="41.136380552745386" lon="15.330284541839427"><ele>602.0</ele><time>2026-04-19T09:43:23Z</time></trkpt><trkpt lat="41.13643318622291" lon="15.330355482355523"><ele>602.0</ele><time>2026-04-19T09:43:24Z</time></trkpt><trkpt lat="41.136480963044804" lon="15.330416271971087"><ele>602.0</ele><time>2026-04-19T09:43:25Z</time></trkpt><trkpt lat="41.13653071829245" lon="15.330479739679694"><ele>602.0</ele><time>2026-04-19T09:43:26Z</time></trkpt><trkpt lat="41.13661965854303" lon="15.330602622235919"><ele>602.0</ele><time>2026-04-19T09:43:28Z</time></trkpt><trkpt lat="41.13665466422998" lon="15.330677802922406"><ele>602.0</ele><time>2026-04-19T09:43:29Z</time></trkpt><trkpt lat="41.1366500726084" lon="15.330839737712882"><ele>602.0</ele><time>2026-04-19T09:43:31Z</time></trkpt><trkpt lat="41.136616192907944" lon="15.33093995357294"><ele>598.2</ele><time>2026-04-19T09:43:32Z</time></trkpt><trkpt lat="41.1365928284618" lon="15.331039780011217"><ele>594.4000000000001</ele><time>2026-04-19T09:43:33Z</time></trkpt><trkpt lat="41.13657434052044" lon="15.331150648567242"><ele>590.5999999999999</ele><time>2026-04-19T09:43:36Z</time></trkpt><trkpt lat="41.13660528296534" lon="15.331258089859306"><ele>586.8</ele><time>2026-04-19T09:43:37Z</time></trkpt><trkpt lat="41.13670561647477" lon="15.331378518215185"><ele>583.0</ele><time>2026-04-19T09:43:39Z</time></trkpt><trkpt lat="41.13675760682464" lon="15.331455581596268"><ele>582.1999999999999</ele><time>2026-04-19T09:43:40Z</time></trkpt><trkpt lat="41.13679170948307" lon="15.331531242805474"><ele>581.4</ele><time>2026-04-19T09:43:41Z</time></trkpt><trkpt lat="41.13678198424543" lon="15.331663935010129"><ele>580.5999999999999</ele><time>2026-04-19T09:43:43Z</time></trkpt><trkpt lat="41.1366905546531" lon="15.331770643630971"><ele>579.8</ele><time>2026-04-19T09:43:45Z</time></trkpt><trkpt lat="41.13662633890371" lon="15.331849824597498"><ele>579.0</ele><time>2026-04-19T09:43:47Z</time></trkpt><trkpt lat="41.13650472534655" lon="15.331998966632337"><ele>580.0</ele><time>2026-04-19T09:43:49Z</time></trkpt><trkpt lat="41.13644943747667" lon="15.332094111019883"><ele>581.0</ele><time>2026-04-19T09:43:50Z</time></trkpt><trkpt lat="41.13633983979923" lon="15.332110955521594"><ele>582.0</ele><time>2026-04-19T09:43:52Z</time></trkpt><trkpt lat="41.13627883008881" lon="15.332240899749161"><ele>583.0</ele><time>2026-04-19T09:43:54Z</time></trkpt><trkpt lat="41.13626205747365" lon="15.332347741428684"><ele>584.0</ele><time>2026-04-19T09:43:55Z</time></trkpt><trkpt lat="41.13623233124924" lon="15.332422571201995"><ele>584.0</ele><time>2026-04-19T09:43:56Z</time></trkpt><trkpt lat="41.136217650243495" lon="15.332561152381256"><ele>584.0</ele><time>2026-04-19T09:43:58Z</time></trkpt><trkpt lat="41.136213795498385" lon="15.33264968879481"><ele>584.0</ele><time>2026-04-19T09:43:59Z</time></trkpt><trkpt lat="41.13620344000009" lon="15.332750660597577"><ele>584.0</ele><time>2026-04-19T09:44:00Z</time></trkpt><trkpt lat="41.13619118571483" lon="15.33286614794459"><ele>584.0</ele><time>2026-04-19T09:44:01Z</time></trkpt><trkpt lat="41.13618588642788" lon="15.332965698494073"><ele>584.0</ele><time>2026-04-19T09:44:02Z</time></trkpt><trkpt lat="41.13618122178623" lon="15.333061808957222"><ele>582.8333333333333</ele><time>2026-04-19T09:44:03Z</time></trkpt><trkpt lat="41.136161480252326" lon="15.333154253343423"><ele>581.6666666666666</ele><time>2026-04-19T09:44:04Z</time></trkpt><trkpt lat="41.1361119863193" lon="15.333258247483366"><ele>580.5</ele><time>2026-04-19T09:44:05Z</time></trkpt><trkpt lat="41.136072613409695" lon="15.333366056277466"><ele>579.3333333333334</ele><time>2026-04-19T09:44:05.999Z</time></trkpt><trkpt lat="41.136050820582675" lon="15.33346395986631"><ele>578.1666666666667</ele><time>2026-04-19T09:44:07.999Z</time></trkpt><trkpt lat="41.13607410781659" lon="15.333605134627934"><ele>577.0</ele><time>2026-04-19T09:44:35.999Z</time></trkpt><trkpt lat="41.136080846889264" lon="15.333707333635077"><ele>577.0</ele><time>2026-04-19T09:44:37.999Z</time></trkpt><trkpt lat="41.13608410579179" lon="15.333849989538047"><ele>577.0</ele><time>2026-04-19T09:44:39.999Z</time></trkpt><trkpt lat="41.136087645644665" lon="15.33401325934289"><ele>577.0</ele><time>2026-04-19T09:44:41.999Z</time></trkpt><trkpt lat="41.136102957176156" lon="15.33415346599052"><ele>577.0</ele><time>2026-04-19T09:44:43.999Z</time></trkpt><trkpt lat="41.13610703476651" lon="15.334250038161207"><ele>577.0</ele><time>2026-04-19T09:44:45.999Z</time></trkpt><trkpt lat="41.13611737316664" lon="15.334378084365119"><ele>576.1428571428571</ele><time>2026-04-19T09:44:47.999Z</time></trkpt><trkpt lat="41.13614671136822" lon="15.334455502680445"><ele>575.2857142857143</ele><time>2026-04-19T09:44:49.999Z</time></trkpt><trkpt lat="41.1361858921771" lon="15.334554142173786"><ele>574.4285714285714</ele><time>2026-04-19T09:44:52.999Z</time></trkpt><trkpt lat="41.1362082581543" lon="15.334634280992939"><ele>573.5714285714286</ele><time>2026-04-19T09:44:55.999Z</time></trkpt><trkpt lat="41.13621282354618" lon="15.334751372918506"><ele>572.7142857142857</ele><time>2026-04-19T09:44:59Z</time></trkpt><trkpt lat="41.13620986336924" lon="15.334845516783988"><ele>571.8571428571429</ele><time>2026-04-19T09:45:01Z</time></trkpt><trkpt lat="41.1362406889667" lon="15.334924637908644"><ele>571.0</ele><time>2026-04-19T09:45:03Z</time></trkpt><trkpt lat="41.136281909839965" lon="15.335036231850433"><ele>569.6</ele><time>2026-04-19T09:45:06Z</time></trkpt><trkpt lat="41.13630563178702" lon="15.335194835237473"><ele>568.2</ele><time>2026-04-19T09:45:08Z</time></trkpt><trkpt lat="41.1363565653348" lon="15.335317608985433"><ele>566.8</ele><time>2026-04-19T09:45:10Z</time></trkpt><trkpt lat="41.13637791439142" lon="15.335432479563115"><ele>565.4</ele><time>2026-04-19T09:45:12Z</time></trkpt><trkpt lat="41.13640615612447" lon="15.335552864664958"><ele>564.0</ele><time>2026-04-19T09:45:14Z</time></trkpt><trkpt lat="41.13646378857991" lon="15.335640257979382"><ele>562.25</ele><time>2026-04-19T09:45:16Z</time></trkpt><trkpt lat="41.13653451196153" lon="15.33568388408119"><ele>560.5</ele><time>2026-04-19T09:45:18Z</time></trkpt><trkpt lat="41.136642741177994" lon="15.33558214026474"><ele>558.75</ele><time>2026-04-19T09:45:20Z</time></trkpt><trkpt lat="41.13684693049124" lon="15.335572478539316"><ele>557.0</ele><time>2026-04-19T09:45:21Z</time></trkpt><trkpt lat="41.13690416976036" lon="15.335517400694044"><ele>557.0</ele><time>2026-04-19T09:45:22Z</time></trkpt><trkpt lat="41.136974048434475" lon="15.335423134885165"><ele>557.0</ele><time>2026-04-19T09:45:24Z</time></trkpt><trkpt lat="41.136991568776345" lon="15.335330319859477"><ele>557.0</ele><time>2026-04-19T09:45:28Z</time></trkpt><trkpt lat="41.1370155146996" lon="15.335224314632633"><ele>557.0</ele><time>2026-04-19T09:45:30Z</time></trkpt><trkpt lat="41.13704555868457" lon="15.335125437498261"><ele>557.0</ele><time>2026-04-19T09:45:33Z</time></trkpt><trkpt lat="41.13707847703036" lon="15.33504735368247"><ele>557.0</ele><time>2026-04-19T09:45:35Z</time></trkpt><trkpt lat="41.137149461019916" lon="15.33503973364788"><ele>557.0</ele><time>2026-04-19T09:45:37Z</time></trkpt><trkpt lat="41.137250653114535" lon="15.335017077468459"><ele>557.0</ele><time>2026-04-19T09:45:39Z</time></trkpt><trkpt lat="41.13731692528354" lon="15.334994627126052"><ele>557.0</ele><time>2026-04-19T09:45:41Z</time></trkpt><trkpt lat="41.137440032774464" lon="15.334920666176922"><ele>557.0</ele><time>2026-04-19T09:45:43Z</time></trkpt><trkpt lat="41.1374994548526" lon="15.334858775505833"><ele>557.0</ele><time>2026-04-19T09:45:44Z</time></trkpt><trkpt lat="41.137580996033876" lon="15.334784430279147"><ele>556.6</ele><time>2026-04-19T09:45:45Z</time></trkpt><trkpt lat="41.137666436989235" lon="15.334752887421669"><ele>556.2</ele><time>2026-04-19T09:45:46Z</time></trkpt><trkpt lat="41.13776066504858" lon="15.33478226678891"><ele>555.8</ele><time>2026-04-19T09:45:47Z</time></trkpt><trkpt lat="41.13786431013812" lon="15.334842223364857"><ele>555.4</ele><time>2026-04-19T09:45:48Z</time></trkpt><trkpt lat="41.13797155907703" lon="15.334865912637442"><ele>555.0</ele><time>2026-04-19T09:45:49Z</time></trkpt><trkpt lat="41.138093452650594" lon="15.334882205102147"><ele>555.0</ele><time>2026-04-19T09:45:50Z</time></trkpt><trkpt lat="41.13820430002023" lon="15.334894836992774"><ele>555.0</ele><time>2026-04-19T09:45:51Z</time></trkpt><trkpt lat="41.138321337005195" lon="15.334904893620608"><ele>555.0</ele><time>2026-04-19T09:45:52Z</time></trkpt><trkpt lat="41.13844771220819" lon="15.334915697096868"><ele>555.0</ele><time>2026-04-19T09:45:53Z</time></trkpt><trkpt lat="41.138554888779666" lon="15.3349294599107"><ele>555.3333333333334</ele><time>2026-04-19T09:45:54Z</time></trkpt><trkpt lat="41.13866153162362" lon="15.334951437921037"><ele>555.6666666666666</ele><time>2026-04-19T09:45:55Z</time></trkpt><trkpt lat="41.13875362707168" lon="15.334955957883391"><ele>556.0</ele><time>2026-04-19T09:45:56Z</time></trkpt><trkpt lat="41.1388361605657" lon="15.334928939747044"><ele>556.3333333333333</ele><time>2026-04-19T09:45:57Z</time></trkpt><trkpt lat="41.138916436087634" lon="15.334903496461127"><ele>556.6666666666666</ele><time>2026-04-19T09:45:58Z</time></trkpt><trkpt lat="41.13899282471957" lon="15.334895425525392"><ele>557.0</ele><time>2026-04-19T09:45:59Z</time></trkpt><trkpt lat="41.1390721586301" lon="15.334887184880923"><ele>557.6</ele><time>2026-04-19T09:46:00Z</time></trkpt><trkpt lat="41.139186600940675" lon="15.334855131512713"><ele>558.2</ele><time>2026-04-19T09:46:01Z</time></trkpt><trkpt lat="41.139305565190675" lon="15.334817789154817"><ele>558.8</ele><time>2026-04-19T09:46:02Z</time></trkpt><trkpt lat="41.13940975728906" lon="15.334792574127114"><ele>559.4</ele><time>2026-04-19T09:46:03Z</time></trkpt><trkpt lat="41.13949554184284" lon="15.334754517723145"><ele>560.0</ele><time>2026-04-19T09:46:04Z</time></trkpt><trkpt lat="41.139553121104306" lon="15.334688954935396"><ele>561.4</ele><time>2026-04-19T09:46:05Z</time></trkpt><trkpt lat="41.139593422754814" lon="15.334602023283093"><ele>562.8</ele><time>2026-04-19T09:46:06Z</time></trkpt><trkpt lat="41.13964025259412" lon="15.334487391787619"><ele>564.2</ele><time>2026-04-19T09:46:07Z</time></trkpt><trkpt lat="41.13970478146872" lon="15.334374061686063"><ele>565.6</ele><time>2026-04-19T09:46:08Z</time></trkpt><trkpt lat="41.13979732268002" lon="15.334293375929366"><ele>567.0</ele><time>2026-04-19T09:46:09Z</time></trkpt><trkpt lat="41.13992620278275" lon="15.334253978695964"><ele>567.0</ele><time>2026-04-19T09:46:09.999Z</time></trkpt><trkpt lat="41.14003009986357" lon="15.334230103725197"><ele>567.0</ele><time>2026-04-19T09:46:10.999Z</time></trkpt><trkpt lat="41.14010755618033" lon="15.334201957780275"><ele>567.0</ele><time>2026-04-19T09:46:11.999Z</time></trkpt><trkpt lat="41.14017968923129" lon="15.334166300568503"><ele>567.0</ele><time>2026-04-19T09:46:12.999Z</time></trkpt><trkpt lat="41.14026868690603" lon="15.334117553499299"><ele>567.0</ele><time>2026-04-19T09:46:13.999Z</time></trkpt><trkpt lat="41.140356267547126" lon="15.334098253778585"><ele>567.0</ele><time>2026-04-19T09:46:14.999Z</time></trkpt><trkpt lat="41.140435279200666" lon="15.334120278943036"><ele>567.0</ele><time>2026-04-19T09:46:15.999Z</time></trkpt><trkpt lat="41.14050760815415" lon="15.334146613245686"><ele>567.0</ele><time>2026-04-19T09:46:16.999Z</time></trkpt><trkpt lat="41.14061004237052" lon="15.334040993969381"><ele>567.0</ele><time>2026-04-19T09:46:18.999Z</time></trkpt><trkpt lat="41.140673453496106" lon="15.333931702880163"><ele>567.0</ele><time>2026-04-19T09:46:19.999Z</time></trkpt><trkpt lat="41.1407508125878" lon="15.333791913196993"><ele>567.0</ele><time>2026-04-19T09:46:20.999Z</time></trkpt><trkpt lat="41.14085183101976" lon="15.333652449020313"><ele>568.4</ele><time>2026-04-19T09:46:21.999Z</time></trkpt><trkpt lat="41.140926491843324" lon="15.333544542166264"><ele>569.8000000000001</ele><time>2026-04-19T09:46:22.999Z</time></trkpt><trkpt lat="41.140974352426184" lon="15.333454361993534"><ele>571.2</ele><time>2026-04-19T09:46:23.999Z</time></trkpt><trkpt lat="41.141050007666486" lon="15.333328913261743"><ele>572.6</ele><time>2026-04-19T09:46:24.999Z</time></trkpt><trkpt lat="41.14112133010029" lon="15.333208472347819"><ele>574.0</ele><time>2026-04-19T09:46:25.999Z</time></trkpt><trkpt lat="41.14121788884715" lon="15.333127425685902"><ele>575.6666666666667</ele><time>2026-04-19T09:46:26.999Z</time></trkpt><trkpt lat="41.14131816782201" lon="15.333049030510253"><ele>577.3333333333334</ele><time>2026-04-19T09:46:27.999Z</time></trkpt><trkpt lat="41.14139899846922" lon="15.33298410614479"><ele>579.0</ele><time>2026-04-19T09:46:28.999Z</time></trkpt><trkpt lat="41.141458128897774" lon="15.332925354465035"><ele>580.6666666666666</ele><time>2026-04-19T09:46:29.999Z</time></trkpt><trkpt lat="41.14148682403779" lon="15.33285074571703"><ele>582.3333333333333</ele><time>2026-04-19T09:46:30.999Z</time></trkpt><trkpt lat="41.14149742302485" lon="15.332756970020672"><ele>584.0</ele><time>2026-04-19T09:46:31.999Z</time></trkpt><trkpt lat="41.14149696511749" lon="15.332629090597937"><ele>584.0</ele><time>2026-04-19T09:46:32.999Z</time></trkpt><trkpt lat="41.14149553665559" lon="15.332472016107753"><ele>584.0</ele><time>2026-04-19T09:46:33.999Z</time></trkpt><trkpt lat="41.141489322261776" lon="15.332344561647998"><ele>584.0</ele><time>2026-04-19T09:46:34.999Z</time></trkpt><trkpt lat="41.14148690524421" lon="15.332228755015445"><ele>584.0</ele><time>2026-04-19T09:46:35.999Z</time></trkpt><trkpt lat="41.14147329538861" lon="15.332109713173319"><ele>584.0</ele><time>2026-04-19T09:46:36.999Z</time></trkpt><trkpt lat="41.141468412826214" lon="15.331984011258161"><ele>584.3333333333333</ele><time>2026-04-19T09:46:37.999Z</time></trkpt><trkpt lat="41.14147843399478" lon="15.331887429190107"><ele>584.6666666666666</ele><time>2026-04-19T09:46:38.999Z</time></trkpt><trkpt lat="41.141521425211884" lon="15.331786726974551"><ele>585.0</ele><time>2026-04-19T09:46:39.999Z</time></trkpt><trkpt lat="41.14155880610625" lon="15.331697153931598"><ele>585.3333333333334</ele><time>2026-04-19T09:46:40.999Z</time></trkpt><trkpt lat="41.14157625652749" lon="15.331580214608408"><ele>585.6666666666667</ele><time>2026-04-19T09:46:41.999Z</time></trkpt><trkpt lat="41.14158934658033" lon="15.331453616427455"><ele>586.0</ele><time>2026-04-19T09:46:42.999Z</time></trkpt><trkpt lat="41.14162285942554" lon="15.331323159154367"><ele>586.0</ele><time>2026-04-19T09:46:43.999Z</time></trkpt><trkpt lat="41.141653492030926" lon="15.331167591012786"><ele>586.0</ele><time>2026-04-19T09:46:44.999Z</time></trkpt><trkpt lat="41.141672573520665" lon="15.331008358559531"><ele>586.0</ele><time>2026-04-19T09:46:45.999Z</time></trkpt><trkpt lat="41.14167425421457" lon="15.33087461842012"><ele>586.0</ele><time>2026-04-19T09:46:46.999Z</time></trkpt><trkpt lat="41.141669659673084" lon="15.330778794344372"><ele>586.0</ele><time>2026-04-19T09:46:47.999Z</time></trkpt><trkpt lat="41.14168005484972" lon="15.330665332757375"><ele>586.5</ele><time>2026-04-19T09:46:48.999Z</time></trkpt><trkpt lat="41.141683325444674" lon="15.330549757800213"><ele>587.0</ele><time>2026-04-19T09:46:49.999Z</time></trkpt><trkpt lat="41.14166771100805" lon="15.330452893238897"><ele>587.5</ele><time>2026-04-19T09:46:51.999Z</time></trkpt><trkpt lat="41.14165995643863" lon="15.330341357087251"><ele>588.0</ele><time>2026-04-19T09:46:53.999Z</time></trkpt><trkpt lat="41.141658626367" lon="15.33015995131601"><ele>588.5</ele><time>2026-04-19T09:46:55.999Z</time></trkpt><trkpt lat="41.141661133406274" lon="15.330071517416528"><ele>589.0</ele><time>2026-04-19T09:46:56.999Z</time></trkpt><trkpt lat="41.141654025944206" lon="15.329932605075514"><ele>589.0</ele><time>2026-04-19T09:46:58.999Z</time></trkpt><trkpt lat="41.141667690846006" lon="15.329848389839265"><ele>589.0</ele><time>2026-04-19T09:47:06Z</time></trkpt><trkpt lat="41.14171041912887" lon="15.329742440091746"><ele>589.0</ele><time>2026-04-19T09:47:08Z</time></trkpt><trkpt lat="41.14178372494494" lon="15.329606262120949"><ele>589.0</ele><time>2026-04-19T09:47:10Z</time></trkpt><trkpt lat="41.14181037778563" lon="15.329485388291896"><ele>589.0</ele><time>2026-04-19T09:47:11Z</time></trkpt><trkpt lat="41.14181137759787" lon="15.329348427124794"><ele>589.8</ele><time>2026-04-19T09:47:12Z</time></trkpt><trkpt lat="41.14180368439076" lon="15.329215624161113"><ele>590.5999999999999</ele><time>2026-04-19T09:47:13Z</time></trkpt><trkpt lat="41.14180599320244" lon="15.3290945009143"><ele>591.4</ele><time>2026-04-19T09:47:14Z</time></trkpt><trkpt lat="41.14183446783274" lon="15.32894945845899"><ele>592.1999999999999</ele><time>2026-04-19T09:47:16Z</time></trkpt><trkpt lat="41.141814185897275" lon="15.328866007537604"><ele>593.0</ele><time>2026-04-19T09:47:17Z</time></trkpt><trkpt lat="41.14171224413116" lon="15.328700494555456"><ele>593.3333333333333</ele><time>2026-04-19T09:47:19Z</time></trkpt><trkpt lat="41.1416681846278" lon="15.328598129762904"><ele>593.6666666666666</ele><time>2026-04-19T09:47:20Z</time></trkpt><trkpt lat="41.141632521351774" lon="15.328517161087714"><ele>594.0</ele><time>2026-04-19T09:47:21Z</time></trkpt><trkpt lat="41.14159365854071" lon="15.328382772826433"><ele>594.3333333333334</ele><time>2026-04-19T09:47:23Z</time></trkpt><trkpt lat="41.14163201735064" lon="15.328249031639004"><ele>594.6666666666667</ele><time>2026-04-19T09:47:25Z</time></trkpt><trkpt lat="41.141621885032414" lon="15.328155629090245"><ele>595.0</ele><time>2026-04-19T09:47:27Z</time></trkpt><trkpt lat="41.141598089107326" lon="15.328076123002356"><ele>595.2</ele><time>2026-04-19T09:47:28Z</time></trkpt><trkpt lat="41.14159808002004" lon="15.327981524208655"><ele>595.4</ele><time>2026-04-19T09:47:29Z</time></trkpt><trkpt lat="41.141604802782545" lon="15.327849085117515"><ele>595.6</ele><time>2026-04-19T09:47:31Z</time></trkpt><trkpt lat="41.14162259986033" lon="15.327751300231538"><ele>595.8</ele><time>2026-04-19T09:47:33Z</time></trkpt><trkpt lat="41.141607055048084" lon="15.32761849398396"><ele>596.0</ele><time>2026-04-19T09:47:35Z</time></trkpt><trkpt lat="41.141574438008824" lon="15.327404079896862"><ele>597.8333333333333</ele><time>2026-04-19T09:47:37Z</time></trkpt><trkpt lat="41.14154851220989" lon="15.327257135051225"><ele>599.6666666666666</ele><time>2026-04-19T09:47:38Z</time></trkpt><trkpt lat="41.14152259445133" lon="15.327155374194273"><ele>601.5</ele><time>2026-04-19T09:47:39Z</time></trkpt><trkpt lat="41.14148581654833" lon="15.327082509060425"><ele>603.3333333333334</ele><time>2026-04-19T09:47:40Z</time></trkpt><trkpt lat="41.14142335212148" lon="15.32704670979603"><ele>605.1666666666667</ele><time>2026-04-19T09:47:41Z</time></trkpt><trkpt lat="41.141361600940094" lon="15.32702984791355"><ele>607.0</ele><time>2026-04-19T09:47:42Z</time></trkpt><trkpt lat="41.14129702566469" lon="15.326882799332253"><ele>607.0</ele><time>2026-04-19T09:47:44Z</time></trkpt><trkpt lat="41.14125052963419" lon="15.32678237156573"><ele>607.0</ele><time>2026-04-19T09:47:45Z</time></trkpt><trkpt lat="41.141286569517625" lon="15.326662240088751"><ele>607.0</ele><time>2026-04-19T09:47:47Z</time></trkpt><trkpt lat="41.14131729114449" lon="15.326588057318087"><ele>607.0</ele><time>2026-04-19T09:47:48Z</time></trkpt><trkpt lat="41.141385551136445" lon="15.326529883612205"><ele>607.0</ele><time>2026-04-19T09:47:49Z</time></trkpt><trkpt lat="41.14147281379906" lon="15.32651962570156"><ele>607.0</ele><time>2026-04-19T09:47:50Z</time></trkpt><trkpt lat="41.14155336485781" lon="15.326537727467318"><ele>605.5</ele><time>2026-04-19T09:47:51Z</time></trkpt><trkpt lat="41.14162287304974" lon="15.326552476351047"><ele>604.0</ele><time>2026-04-19T09:47:52Z</time></trkpt><trkpt lat="41.14174425209313" lon="15.326543748389108"><ele>602.5</ele><time>2026-04-19T09:47:54Z</time></trkpt><trkpt lat="41.14182552849875" lon="15.326535242443892"><ele>601.0</ele><time>2026-04-19T09:47:55Z</time></trkpt><trkpt lat="41.14189011375324" lon="15.326516109638987"><ele>599.5</ele><time>2026-04-19T09:47:56Z</time></trkpt><trkpt lat="41.14196211493298" lon="15.32648034555879"><ele>598.0</ele><time>2026-04-19T09:47:58Z</time></trkpt><trkpt lat="41.14198895928578" lon="15.326253498852513"><ele>598.0</ele><time>2026-04-19T09:48:00Z</time></trkpt><trkpt lat="41.14197452014495" lon="15.326117550331595"><ele>598.0</ele><time>2026-04-19T09:48:01Z</time></trkpt><trkpt lat="41.14192207719991" lon="15.325987339089387"><ele>598.0</ele><time>2026-04-19T09:48:02Z</time></trkpt><trkpt lat="41.141847111036505" lon="15.325855172107232"><ele>598.0</ele><time>2026-04-19T09:48:03Z</time></trkpt><trkpt lat="41.141758363946614" lon="15.325695181380167"><ele>598.0</ele><time>2026-04-19T09:48:03.999Z</time></trkpt><trkpt lat="41.14167397997429" lon="15.325535944658226"><ele>598.0</ele><time>2026-04-19T09:48:04.999Z</time></trkpt><trkpt lat="41.14161010785041" lon="15.325398075714377"><ele>598.0</ele><time>2026-04-19T09:48:05.999Z</time></trkpt><trkpt lat="41.14156690196758" lon="15.325272781786547"><ele>598.0</ele><time>2026-04-19T09:48:06.999Z</time></trkpt><trkpt lat="41.141557599501795" lon="15.325158206545607"><ele>598.0</ele><time>2026-04-19T09:48:07.999Z</time></trkpt><trkpt lat="41.14156616924963" lon="15.325055490547408"><ele>598.0</ele><time>2026-04-19T09:48:08.999Z</time></trkpt><trkpt lat="41.14159947269196" lon="15.324905171630412"><ele>598.0</ele><time>2026-04-19T09:48:10.999Z</time></trkpt><trkpt lat="41.141559892356284" lon="15.324821948627442"><ele>598.0</ele><time>2026-04-19T09:48:14.999Z</time></trkpt><trkpt lat="41.14148259239951" lon="15.324809545421564"><ele>598.0</ele><time>2026-04-19T09:48:25.999Z</time></trkpt><trkpt lat="41.1413982541773" lon="15.32475033434962"><ele>598.0</ele><time>2026-04-19T09:48:27.999Z</time></trkpt><trkpt lat="41.14135246848488" lon="15.324600914679367"><ele>600.1666666666667</ele><time>2026-04-19T09:48:29.999Z</time></trkpt><trkpt lat="41.14129747618902" lon="15.324501160101976"><ele>602.3333333333334</ele><time>2026-04-19T09:48:31.999Z</time></trkpt><trkpt lat="41.14121354475807" lon="15.324410208293896"><ele>604.5</ele><time>2026-04-19T09:48:33.999Z</time></trkpt><trkpt lat="41.14115851033689" lon="15.324311239909195"><ele>606.6666666666666</ele><time>2026-04-19T09:48:35.999Z</time></trkpt><trkpt lat="41.14115651480116" lon="15.324223756109417"><ele>608.8333333333333</ele><time>2026-04-19T09:48:37.999Z</time></trkpt><trkpt lat="41.14112004551942" lon="15.324131719781022"><ele>611.0</ele><time>2026-04-19T09:48:40.999Z</time></trkpt><trkpt lat="41.141051319004816" lon="15.324058089239776"><ele>611.0</ele><time>2026-04-19T09:48:43.999Z</time></trkpt><trkpt lat="41.14100899198027" lon="15.323989981136021"><ele>611.0</ele><time>2026-04-19T09:48:44.999Z</time></trkpt><trkpt lat="41.140941811959024" lon="15.32390228211465"><ele>611.0</ele><time>2026-04-19T09:48:46.999Z</time></trkpt><trkpt lat="41.140912262412854" lon="15.323795877637476"><ele>611.0</ele><time>2026-04-19T09:48:48.999Z</time></trkpt><trkpt lat="41.140880743371156" lon="15.323716828596153"><ele>611.0</ele><time>2026-04-19T09:48:50.999Z</time></trkpt><trkpt lat="41.14085639489596" lon="15.323599989753445"><ele>611.0</ele><time>2026-04-19T09:48:52.999Z</time></trkpt><trkpt lat="41.14079165399337" lon="15.323521573736102"><ele>614.0</ele><time>2026-04-19T09:48:54.999Z</time></trkpt><trkpt lat="41.1406976761971" lon="15.323458480593798"><ele>617.0</ele><time>2026-04-19T09:48:57.999Z</time></trkpt><trkpt lat="41.14058303973927" lon="15.32348154015111"><ele>620.0</ele><time>2026-04-19T09:48:59.999Z</time></trkpt><trkpt lat="41.140505563916655" lon="15.323442936246417"><ele>623.0</ele><time>2026-04-19T09:49:01.999Z</time></trkpt><trkpt lat="41.14047212097686" lon="15.323363352195933"><ele>626.0</ele><time>2026-04-19T09:49:03.999Z</time></trkpt><trkpt lat="41.14040762312173" lon="15.323301362588412"><ele>626.0</ele><time>2026-04-19T09:49:07.999Z</time></trkpt><trkpt lat="41.14034259250433" lon="15.32322278610006"><ele>626.0</ele><time>2026-04-19T09:49:12Z</time></trkpt><trkpt lat="41.14024924296894" lon="15.323206547349518"><ele>626.0</ele><time>2026-04-19T09:49:15Z</time></trkpt><trkpt lat="41.140151845455605" lon="15.323177963289737"><ele>626.0</ele><time>2026-04-19T09:49:18Z</time></trkpt><trkpt lat="41.14007968647048" lon="15.3230597131798"><ele>626.0</ele><time>2026-04-19T09:49:20Z</time></trkpt><trkpt lat="41.13998978381231" lon="15.32304792120169"><ele>626.0</ele><time>2026-04-19T09:49:22Z</time></trkpt><trkpt lat="41.13991495917422" lon="15.323108492143326"><ele>626.0</ele><time>2026-04-19T09:49:24Z</time></trkpt><trkpt lat="41.139896780863936" lon="15.32300281693993"><ele>626.0</ele><time>2026-04-19T09:49:40Z</time></trkpt><trkpt lat="41.139857288920965" lon="15.322922794567138"><ele>626.0</ele><time>2026-04-19T09:53:59.999Z</time></trkpt><trkpt lat="41.13983612754616" lon="15.32283977877082"><ele>626.0</ele><time>2026-04-19T09:54:01.999Z</time></trkpt><trkpt lat="41.139841529144825" lon="15.322730990962198"><ele>626.0</ele><time>2026-04-19T09:54:04.999Z</time></trkpt><trkpt lat="41.139830316032544" lon="15.322648422680086"><ele>627.1666666666666</ele><time>2026-04-19T09:54:06.999Z</time></trkpt><trkpt lat="41.1397904920854" lon="15.322572045904682"><ele>628.3333333333333</ele><time>2026-04-19T09:54:08.999Z</time></trkpt><trkpt lat="41.13975447695302" lon="15.322503022643733"><ele>629.5</ele><time>2026-04-19T09:54:11.999Z</time></trkpt><trkpt lat="41.13965070793078" lon="15.322513998739717"><ele>630.6666666666666</ele><time>2026-04-19T09:54:13.999Z</time></trkpt><trkpt lat="41.139602974569634" lon="15.322422214020998"><ele>631.8333333333334</ele><time>2026-04-19T09:54:17.999Z</time></trkpt><trkpt lat="41.13957722891121" lon="15.322344290106777"><ele>633.0</ele><time>2026-04-19T09:54:21.999Z</time></trkpt><trkpt lat="41.13955641908942" lon="15.322262264444998"><ele>633.0</ele><time>2026-04-19T09:54:28.999Z</time></trkpt><trkpt lat="41.13951371991917" lon="15.322198663502833"><ele>633.0</ele><time>2026-04-19T09:54:40.999Z</time></trkpt><trkpt lat="41.139504871132125" lon="15.322096164006544"><ele>633.0</ele><time>2026-04-19T09:54:52.999Z</time></trkpt><trkpt lat="41.13944278969674" lon="15.322063289665504"><ele>633.0</ele><time>2026-04-19T09:55:52.999Z</time></trkpt><trkpt lat="41.139366818563055" lon="15.32211323413528"><ele>633.0</ele><time>2026-04-19T09:55:54.999Z</time></trkpt><trkpt lat="41.139275309111376" lon="15.322218686537877"><ele>633.0</ele><time>2026-04-19T09:55:56.999Z</time></trkpt><trkpt lat="41.1392127307114" lon="15.322289607972884"><ele>633.0</ele><time>2026-04-19T09:55:58.999Z</time></trkpt><trkpt lat="41.13911913532712" lon="15.322335942189747"><ele>633.0</ele><time>2026-04-19T09:56:00.999Z</time></trkpt><trkpt lat="41.13906757089262" lon="15.322274478092575"><ele>633.0</ele><time>2026-04-19T09:57:15.999Z</time></trkpt><trkpt lat="41.13900034701204" lon="15.322210148256833"><ele>633.0</ele><time>2026-04-19T09:57:19.999Z</time></trkpt><trkpt lat="41.13895075845199" lon="15.322123582246983"><ele>633.0</ele><time>2026-04-19T09:57:22.999Z</time></trkpt><trkpt lat="41.1388848790818" lon="15.322097124969261"><ele>633.0</ele><time>2026-04-19T09:57:25.999Z</time></trkpt><trkpt lat="41.138814687047265" lon="15.322040866066699"><ele>635.2857142857142</ele><time>2026-04-19T09:57:28.999Z</time></trkpt><trkpt lat="41.138773046523056" lon="15.321971827396128"><ele>637.5714285714286</ele><time>2026-04-19T09:57:30.999Z</time></trkpt><trkpt lat="41.13874744997612" lon="15.321888708038394"><ele>639.8571428571429</ele><time>2026-04-19T09:57:33.999Z</time></trkpt><trkpt lat="41.13867793738055" lon="15.321797761996894"><ele>642.1428571428571</ele><time>2026-04-19T09:57:36.999Z</time></trkpt><trkpt lat="41.138639058091506" lon="15.321727233722799"><ele>644.4285714285714</ele><time>2026-04-19T09:57:39.999Z</time></trkpt><trkpt lat="41.13858388560497" lon="15.321667511965538"><ele>646.7142857142857</ele><time>2026-04-19T09:57:41.999Z</time></trkpt><trkpt lat="41.13853402070414" lon="15.321604316129523"><ele>649.0</ele><time>2026-04-19T09:57:42.999Z</time></trkpt><trkpt lat="41.13845563307842" lon="15.32153172827043"><ele>649.0</ele><time>2026-04-19T09:57:44.999Z</time></trkpt><trkpt lat="41.13840153639041" lon="15.321384181911743"><ele>649.0</ele><time>2026-04-19T09:57:46.999Z</time></trkpt><trkpt lat="41.13836286150106" lon="15.321273961475452"><ele>649.0</ele><time>2026-04-19T09:57:49.999Z</time></trkpt><trkpt lat="41.13840547504108" lon="15.321164992613266"><ele>649.0</ele><time>2026-04-19T09:57:51.999Z</time></trkpt><trkpt lat="41.138391039777936" lon="15.321073091845587"><ele>649.0</ele><time>2026-04-19T09:57:54.999Z</time></trkpt><trkpt lat="41.13830215167072" lon="15.32102977515221"><ele>652.8000000000001</ele><time>2026-04-19T09:57:59.999Z</time></trkpt><trkpt lat="41.138212077974096" lon="15.320992232678757"><ele>656.6</ele><time>2026-04-19T09:58:01.999Z</time></trkpt><trkpt lat="41.1381413196361" lon="15.320950776861773"><ele>660.4</ele><time>2026-04-19T09:58:03.999Z</time></trkpt><trkpt lat="41.138071251721904" lon="15.32088703732681"><ele>664.2</ele><time>2026-04-19T09:58:05.999Z</time></trkpt><trkpt lat="41.13803466628583" lon="15.320781897937868"><ele>668.0</ele><time>2026-04-19T09:58:07.999Z</time></trkpt><trkpt lat="41.13798232532343" lon="15.320645291421158"><ele>668.8333333333333</ele><time>2026-04-19T09:58:09.999Z</time></trkpt><trkpt lat="41.137947874102245" lon="15.320519025534628"><ele>669.6666666666666</ele><time>2026-04-19T09:58:11.999Z</time></trkpt><trkpt lat="41.1378929803834" lon="15.320433269044996"><ele>670.5</ele><time>2026-04-19T09:58:13.999Z</time></trkpt><trkpt lat="41.13786777750579" lon="15.320351760642593"><ele>671.3333333333334</ele><time>2026-04-19T09:58:15.999Z</time></trkpt><trkpt lat="41.13790742714204" lon="15.32024044647313"><ele>672.1666666666667</ele><time>2026-04-19T09:58:18.999Z</time></trkpt><trkpt lat="41.137916560437695" lon="15.320150557657179"><ele>673.0</ele><time>2026-04-19T09:58:22.999Z</time></trkpt><trkpt lat="41.13788244582202" lon="15.320059891268533"><ele>673.0</ele><time>2026-04-19T09:58:25.999Z</time></trkpt><trkpt lat="41.13785111104136" lon="15.31994727767133"><ele>673.0</ele><time>2026-04-19T09:58:27.999Z</time></trkpt><trkpt lat="41.13781018185371" lon="15.31985691446459"><ele>673.0</ele><time>2026-04-19T09:58:29.999Z</time></trkpt><trkpt lat="41.137740206866894" lon="15.319797443926772"><ele>673.0</ele><time>2026-04-19T09:58:32.999Z</time></trkpt><trkpt lat="41.13768938864954" lon="15.31973670061757"><ele>673.0</ele><time>2026-04-19T09:58:34.999Z</time></trkpt><trkpt lat="41.13761581177855" lon="15.319645112609466"><ele>673.0</ele><time>2026-04-19T09:58:36.999Z</time></trkpt><trkpt lat="41.13760729325512" lon="15.319534823006608"><ele>673.3333333333334</ele><time>2026-04-19T09:58:38.999Z</time></trkpt><trkpt lat="41.13753623624794" lon="15.319429974644786"><ele>673.6666666666667</ele><time>2026-04-19T09:58:41.999Z</time></trkpt><trkpt lat="41.137503258657595" lon="15.319344415030326"><ele>674.0</ele><time>2026-04-19T09:58:43.999Z</time></trkpt><trkpt lat="41.13746758502958" lon="15.319261039346612"><ele>674.3333333333334</ele><time>2026-04-19T09:58:45.999Z</time></trkpt><trkpt lat="41.13740501493317" lon="15.319175740691794"><ele>674.6666666666666</ele><time>2026-04-19T09:58:48.999Z</time></trkpt><trkpt lat="41.13736649496863" lon="15.319107200097315"><ele>675.0</ele><time>2026-04-19T09:58:51.999Z</time></trkpt><trkpt lat="41.13729961663113" lon="15.318941831024347"><ele>678.1666666666666</ele><time>2026-04-19T09:58:54.999Z</time></trkpt><trkpt lat="41.13726732349616" lon="15.318856247079644"><ele>681.3333333333334</ele><time>2026-04-19T09:58:55.999Z</time></trkpt><trkpt lat="41.137235182967686" lon="15.318777893212308"><ele>684.5</ele><time>2026-04-19T09:58:57.999Z</time></trkpt><trkpt lat="41.13718367613424" lon="15.318641691830683"><ele>687.6666666666667</ele><time>2026-04-19T09:59:00.999Z</time></trkpt><trkpt lat="41.13714270398583" lon="15.31854067259024"><ele>690.8333333333334</ele><time>2026-04-19T09:59:02.999Z</time></trkpt><trkpt lat="41.13710864793837" lon="15.318466474966277"><ele>694.0</ele><time>2026-04-19T09:59:04.999Z</time></trkpt><trkpt lat="41.13707265623103" lon="15.318381721011281"><ele>694.0</ele><time>2026-04-19T09:59:06.999Z</time></trkpt><trkpt lat="41.13699715359193" lon="15.318327196625289"><ele>694.0</ele><time>2026-04-19T09:59:09.999Z</time></trkpt><trkpt lat="41.136909933928536" lon="15.318268910403175"><ele>694.0</ele><time>2026-04-19T09:59:12.999Z</time></trkpt><trkpt lat="41.136877685136476" lon="15.318157246201393"><ele>694.0</ele><time>2026-04-19T09:59:15.999Z</time></trkpt><trkpt lat="41.13687237249509" lon="15.318058466972976"><ele>694.0</ele><time>2026-04-19T09:59:17.999Z</time></trkpt><trkpt lat="41.136869944272036" lon="15.317959921781465"><ele>694.0</ele><time>2026-04-19T09:59:19.999Z</time></trkpt><trkpt lat="41.13690100535172" lon="15.317866406054296"><ele>694.5</ele><time>2026-04-19T09:59:21.999Z</time></trkpt><trkpt lat="41.13689781266853" lon="15.317758889614824"><ele>695.0</ele><time>2026-04-19T09:59:23.999Z</time></trkpt><trkpt lat="41.13683857600087" lon="15.317690370800587"><ele>695.5</ele><time>2026-04-19T09:59:26.999Z</time></trkpt><trkpt lat="41.13682815544245" lon="15.3175733502573"><ele>696.0</ele><time>2026-04-19T09:59:28.999Z</time></trkpt><trkpt lat="41.136803977015084" lon="15.31748029508093"><ele>696.5</ele><time>2026-04-19T09:59:30.999Z</time></trkpt><trkpt lat="41.136742963017106" lon="15.317417772508719"><ele>697.0</ele><time>2026-04-19T09:59:32.999Z</time></trkpt><trkpt lat="41.13667156938" lon="15.317362552927408"><ele>697.0</ele><time>2026-04-19T09:59:35.999Z</time></trkpt><trkpt lat="41.13661651542475" lon="15.317314971189528"><ele>697.0</ele><time>2026-04-19T09:59:37.999Z</time></trkpt><trkpt lat="41.13655911865886" lon="15.31726951856223"><ele>697.0</ele><time>2026-04-19T09:59:39.999Z</time></trkpt><trkpt lat="41.13654536387149" lon="15.317177376851399"><ele>697.0</ele><time>2026-04-19T09:59:41.999Z</time></trkpt><trkpt lat="41.13654688724651" lon="15.31708152976796"><ele>697.0</ele><time>2026-04-19T09:59:43.999Z</time></trkpt><trkpt lat="41.13653662840295" lon="15.316928497234832"><ele>697.0</ele><time>2026-04-19T09:59:44.999Z</time></trkpt><trkpt lat="41.136546758513425" lon="15.316830549969424"><ele>700.6666666666667</ele><time>2026-04-19T09:59:45.999Z</time></trkpt><trkpt lat="41.13651381272952" lon="15.316737601666127"><ele>704.3333333333334</ele><time>2026-04-19T09:59:46.999Z</time></trkpt><trkpt lat="41.136484275067616" lon="15.316660512549637"><ele>708.0</ele><time>2026-04-19T09:59:47.999Z</time></trkpt><trkpt lat="41.13645299325794" lon="15.316539388575222"><ele>711.6666666666666</ele><time>2026-04-19T09:59:49.999Z</time></trkpt><trkpt lat="41.13641312137863" lon="15.316413668674771"><ele>715.3333333333333</ele><time>2026-04-19T09:59:51.999Z</time></trkpt><trkpt lat="41.13635496530504" lon="15.316354458662994"><ele>719.0</ele><time>2026-04-19T09:59:53.999Z</time></trkpt><trkpt lat="41.13629863294929" lon="15.316260713062885"><ele>719.3333333333333</ele><time>2026-04-19T09:59:55.999Z</time></trkpt><trkpt lat="41.136230049006876" lon="15.316179120068185"><ele>719.6666666666666</ele><time>2026-04-19T09:59:58.999Z</time></trkpt><trkpt lat="41.13623039438029" lon="15.316073085393183"><ele>720.0</ele><time>2026-04-19T10:00:00.999Z</time></trkpt><trkpt lat="41.13616983635517" lon="15.316017757222212"><ele>720.3333333333334</ele><time>2026-04-19T10:00:03.999Z</time></trkpt><trkpt lat="41.13611019053816" lon="15.315956143688473"><ele>720.6666666666667</ele><time>2026-04-19T10:00:07.999Z</time></trkpt><trkpt lat="41.13609240049394" lon="15.315839573368855"><ele>721.0</ele><time>2026-04-19T10:00:09.999Z</time></trkpt><trkpt lat="41.13603766867381" lon="15.315749274567107"><ele>721.0</ele><time>2026-04-19T10:00:11.999Z</time></trkpt><trkpt lat="41.13598274223175" lon="15.31567340708983"><ele>721.0</ele><time>2026-04-19T10:00:13.999Z</time></trkpt><trkpt lat="41.13594181596688" lon="15.315553666427137"><ele>721.0</ele><time>2026-04-19T10:00:16.999Z</time></trkpt><trkpt lat="41.13591063140487" lon="15.315480939984187"><ele>721.0</ele><time>2026-04-19T10:00:19.999Z</time></trkpt><trkpt lat="41.13597579415445" lon="15.315392844100625"><ele>721.0</ele><time>2026-04-19T10:00:22.999Z</time></trkpt><trkpt lat="41.135994362424064" lon="15.315297137095719"><ele>721.0</ele><time>2026-04-19T10:00:25.999Z</time></trkpt><trkpt lat="41.13596061177713" lon="15.315180728967617"><ele>720.6666666666667</ele><time>2026-04-19T10:00:28.999Z</time></trkpt><trkpt lat="41.13589134329397" lon="15.315140882798868"><ele>720.3333333333334</ele><time>2026-04-19T10:00:31.999Z</time></trkpt><trkpt lat="41.13583092674464" lon="15.315054165294056"><ele>720.0</ele><time>2026-04-19T10:00:34.999Z</time></trkpt><trkpt lat="41.135756190702935" lon="15.3150158238784"><ele>719.6666666666666</ele><time>2026-04-19T10:00:37.999Z</time></trkpt><trkpt lat="41.135679797887555" lon="15.31497564631445"><ele>719.3333333333333</ele><time>2026-04-19T10:00:40.999Z</time></trkpt><trkpt lat="41.13561124226508" lon="15.31494636230541"><ele>719.0</ele><time>2026-04-19T10:00:43.999Z</time></trkpt><trkpt lat="41.135546013584744" lon="15.314837044341763"><ele>722.6</ele><time>2026-04-19T10:00:45.999Z</time></trkpt><trkpt lat="41.13550059383243" lon="15.314753633765765"><ele>726.2</ele><time>2026-04-19T10:00:47.999Z</time></trkpt><trkpt lat="41.135543104333394" lon="15.314618264959147"><ele>729.8000000000001</ele><time>2026-04-19T10:00:52.999Z</time></trkpt><trkpt lat="41.13561295944307" lon="15.314541528388997"><ele>733.4000000000001</ele><time>2026-04-19T10:00:53.999Z</time></trkpt><trkpt lat="41.13567527095042" lon="15.314471299981594"><ele>737.0</ele><time>2026-04-19T10:00:54.999Z</time></trkpt><trkpt lat="41.135709713550035" lon="15.314326704519805"><ele>737.1666666666666</ele><time>2026-04-19T10:00:56.999Z</time></trkpt><trkpt lat="41.135684425393244" lon="15.314230614757816"><ele>737.3333333333333</ele><time>2026-04-19T10:00:57.999Z</time></trkpt><trkpt lat="41.135664132146935" lon="15.314117889357172"><ele>737.5</ele><time>2026-04-19T10:00:58.999Z</time></trkpt><trkpt lat="41.135664125675106" lon="15.314005223872377"><ele>737.6666666666666</ele><time>2026-04-19T10:01:01.999Z</time></trkpt><trkpt lat="41.13565182462051" lon="15.313921332572429"><ele>737.8333333333334</ele><time>2026-04-19T10:01:02.999Z</time></trkpt><trkpt lat="41.13563182592715" lon="15.313819310353143"><ele>738.0</ele><time>2026-04-19T10:01:03.999Z</time></trkpt><trkpt lat="41.135604107673934" lon="15.313713089769971"><ele>738.3333333333334</ele><time>2026-04-19T10:01:04.999Z</time></trkpt><trkpt lat="41.13557127356905" lon="15.31359948317205"><ele>738.6666666666666</ele><time>2026-04-19T10:01:05.999Z</time></trkpt><trkpt lat="41.135554158682446" lon="15.313484928766517"><ele>739.0</ele><time>2026-04-19T10:01:06.999Z</time></trkpt><trkpt lat="41.13554358293355" lon="15.31336129096258"><ele>739.3333333333333</ele><time>2026-04-19T10:01:07.999Z</time></trkpt><trkpt lat="41.13554501692667" lon="15.313258558151489"><ele>739.6666666666666</ele><time>2026-04-19T10:01:08.999Z</time></trkpt><trkpt lat="41.135553495460236" lon="15.313174795808475"><ele>740.0</ele><time>2026-04-19T10:01:09.999Z</time></trkpt><trkpt lat="41.135547391749064" lon="15.31303822469402"><ele>740.0</ele><time>2026-04-19T10:01:11.999Z</time></trkpt><trkpt lat="41.13549573761563" lon="15.312986150555101"><ele>740.0</ele><time>2026-04-19T10:01:13.999Z</time></trkpt><trkpt lat="41.13544462952385" lon="15.313048247825687"><ele>740.0</ele><time>2026-04-19T10:01:15.999Z</time></trkpt><trkpt lat="41.13540476809093" lon="15.31311300204364"><ele>740.0</ele><time>2026-04-19T10:01:26.999Z</time></trkpt><trkpt lat="41.135323954007966" lon="15.313193961117452"><ele>740.0</ele><time>2026-04-19T10:01:28.999Z</time></trkpt><trkpt lat="41.135252223912424" lon="15.313268700663361"><ele>740.0</ele><time>2026-04-19T10:01:29.999Z</time></trkpt><trkpt lat="41.13516061029457" lon="15.313373927112618"><ele>740.0</ele><time>2026-04-19T10:01:30.999Z</time></trkpt><trkpt lat="41.1350602329656" lon="15.3134991791557"><ele>740.0</ele><time>2026-04-19T10:01:31.999Z</time></trkpt><trkpt lat="41.13494580844386" lon="15.313637962433035"><ele>740.0</ele><time>2026-04-19T10:01:32.999Z</time></trkpt><trkpt lat="41.13481102338954" lon="15.313770217136533"><ele>743.5</ele><time>2026-04-19T10:01:33.999Z</time></trkpt><trkpt lat="41.134681907196985" lon="15.313870637928604"><ele>747.0</ele><time>2026-04-19T10:01:34.999Z</time></trkpt><trkpt lat="41.13459325430881" lon="15.313965045554426"><ele>750.5</ele><time>2026-04-19T10:01:35.999Z</time></trkpt><trkpt lat="41.13453451112586" lon="15.314066393512489"><ele>754.0</ele><time>2026-04-19T10:01:36.999Z</time></trkpt><trkpt lat="41.13446775948189" lon="15.314160549347237"><ele>754.2</ele><time>2026-04-19T10:01:37.999Z</time></trkpt><trkpt lat="41.13437791884253" lon="15.314252829537011"><ele>754.4000000000001</ele><time>2026-04-19T10:01:38.999Z</time></trkpt><trkpt lat="41.13430793435803" lon="15.314337013611407"><ele>754.6</ele><time>2026-04-19T10:01:39.999Z</time></trkpt><trkpt lat="41.134242982896005" lon="15.314421827647942"><ele>754.8</ele><time>2026-04-19T10:01:40.999Z</time></trkpt><trkpt lat="41.13414011659032" lon="15.31453503067388"><ele>755.0</ele><time>2026-04-19T10:01:41.999Z</time></trkpt><trkpt lat="41.134048666820995" lon="15.314615274173155"><ele>755.0</ele><time>2026-04-19T10:01:42.999Z</time></trkpt><trkpt lat="41.133955759520276" lon="15.314657612446736"><ele>755.0</ele><time>2026-04-19T10:01:43.999Z</time></trkpt><trkpt lat="41.13384643281714" lon="15.314657807481328"><ele>755.0</ele><time>2026-04-19T10:01:44.999Z</time></trkpt><trkpt lat="41.1336864086975" lon="15.314649694230177"><ele>755.0</ele><time>2026-04-19T10:01:45.999Z</time></trkpt><trkpt lat="41.13351802359677" lon="15.314646335126676"><ele>755.0</ele><time>2026-04-19T10:01:46.999Z</time></trkpt><trkpt lat="41.133386913569694" lon="15.31463955003365"><ele>755.0</ele><time>2026-04-19T10:01:47.999Z</time></trkpt><trkpt lat="41.13325537407988" lon="15.314626429463274"><ele>755.0</ele><time>2026-04-19T10:01:48.999Z</time></trkpt><trkpt lat="41.133105878376185" lon="15.314612879931197"><ele>755.0</ele><time>2026-04-19T10:01:49.999Z</time></trkpt><trkpt lat="41.13296883609454" lon="15.314588593737033"><ele>753.5</ele><time>2026-04-19T10:01:50.999Z</time></trkpt><trkpt lat="41.13284537537448" lon="15.314549682358967"><ele>752.0</ele><time>2026-04-19T10:01:51.999Z</time></trkpt><trkpt lat="41.13272680718343" lon="15.314513423897823"><ele>750.5</ele><time>2026-04-19T10:01:52.999Z</time></trkpt><trkpt lat="41.13259643013321" lon="15.314525121480724"><ele>749.0</ele><time>2026-04-19T10:01:53.999Z</time></trkpt><trkpt lat="41.1324583810129" lon="15.314557981904231"><ele>751.6666666666666</ele><time>2026-04-19T10:01:54.999Z</time></trkpt><trkpt lat="41.132309167338164" lon="15.314566175950368"><ele>754.3333333333334</ele><time>2026-04-19T10:01:55.999Z</time></trkpt><trkpt lat="41.132153195867765" lon="15.314557175965504"><ele>757.0</ele><time>2026-04-19T10:01:56.999Z</time></trkpt><trkpt lat="41.1319698787714" lon="15.314543987462255"><ele>757.0</ele><time>2026-04-19T10:01:57.999Z</time></trkpt><trkpt lat="41.13179403295305" lon="15.314526913654916"><ele>757.0</ele><time>2026-04-19T10:01:58.999Z</time></trkpt><trkpt lat="41.13164833385719" lon="15.314524003885314"><ele>757.0</ele><time>2026-04-19T10:01:59.999Z</time></trkpt><trkpt lat="41.131498544449414" lon="15.314516461763512"><ele>759.25</ele><time>2026-04-19T10:02:00.999Z</time></trkpt><trkpt lat="41.13136541367544" lon="15.314505808639536"><ele>761.5</ele><time>2026-04-19T10:02:01.999Z</time></trkpt><trkpt lat="41.131226020065135" lon="15.314485992059776"><ele>763.75</ele><time>2026-04-19T10:02:02.999Z</time></trkpt><trkpt lat="41.13110633805047" lon="15.314474406543008"><ele>766.0</ele><time>2026-04-19T10:02:03.999Z</time></trkpt><trkpt lat="41.1309852247791" lon="15.31446728092945"><ele>766.0</ele><time>2026-04-19T10:02:04.999Z</time></trkpt><trkpt lat="41.13086341207409" lon="15.314465863393261"><ele>766.0</ele><time>2026-04-19T10:02:05.999Z</time></trkpt><trkpt lat="41.130716523814556" lon="15.314464408583762"><ele>766.0</ele><time>2026-04-19T10:02:06.999Z</time></trkpt><trkpt lat="41.13055774408864" lon="15.314474779552672"><ele>766.0</ele><time>2026-04-19T10:02:07.999Z</time></trkpt><trkpt lat="41.130412677605854" lon="15.31447338332327"><ele>767.1999999999999</ele><time>2026-04-19T10:02:08.999Z</time></trkpt><trkpt lat="41.130271177278004" lon="15.314480705292473"><ele>768.4</ele><time>2026-04-19T10:02:09.999Z</time></trkpt><trkpt lat="41.13017507643185" lon="15.314509876192762"><ele>769.6</ele><time>2026-04-19T10:02:10.999Z</time></trkpt><trkpt lat="41.13012587775773" lon="15.314571974762003"><ele>770.8</ele><time>2026-04-19T10:02:11.999Z</time></trkpt><trkpt lat="41.13008740861627" lon="15.314684487392578"><ele>772.0</ele><time>2026-04-19T10:02:12.999Z</time></trkpt><trkpt lat="41.13004078351116" lon="15.314858481963935"><ele>772.0</ele><time>2026-04-19T10:02:13.999Z</time></trkpt><trkpt lat="41.13001458067914" lon="15.315032166183917"><ele>772.0</ele><time>2026-04-19T10:02:14.999Z</time></trkpt><trkpt lat="41.13001567937545" lon="15.31519513469069"><ele>772.0</ele><time>2026-04-19T10:02:15.999Z</time></trkpt><trkpt lat="41.13002233814481" lon="15.315380859126094"><ele>772.0</ele><time>2026-04-19T10:02:16.999Z</time></trkpt><trkpt lat="41.130010922501725" lon="15.315553659783301"><ele>770.5</ele><time>2026-04-19T10:02:17.999Z</time></trkpt><trkpt lat="41.1300000219162" lon="15.315690815601267"><ele>769.0</ele><time>2026-04-19T10:02:18.999Z</time></trkpt><trkpt lat="41.12999395530414" lon="15.315829165974455"><ele>767.5</ele><time>2026-04-19T10:02:19.999Z</time></trkpt><trkpt lat="41.12998388567689" lon="15.315989465270336"><ele>766.0</ele><time>2026-04-19T10:02:20.999Z</time></trkpt><trkpt lat="41.12996986347345" lon="15.31617632043468"><ele>766.0</ele><time>2026-04-19T10:02:21.999Z</time></trkpt><trkpt lat="41.12995191227608" lon="15.316383421182676"><ele>766.0</ele><time>2026-04-19T10:02:22.999Z</time></trkpt><trkpt lat="41.12993797136411" lon="15.316584365894455"><ele>766.0</ele><time>2026-04-19T10:02:23.999Z</time></trkpt><trkpt lat="41.12993102928222" lon="15.316736440722881"><ele>766.0</ele><time>2026-04-19T10:02:24.999Z</time></trkpt><trkpt lat="41.12992599838448" lon="15.316879228033498"><ele>765.75</ele><time>2026-04-19T10:02:25.999Z</time></trkpt><trkpt lat="41.12991733909902" lon="15.317040037683695"><ele>765.5</ele><time>2026-04-19T10:02:26.999Z</time></trkpt><trkpt lat="41.12990572499634" lon="15.317238366000662"><ele>765.25</ele><time>2026-04-19T10:02:27.999Z</time></trkpt><trkpt lat="41.12989432157513" lon="15.317455164324619"><ele>765.0</ele><time>2026-04-19T10:02:28.999Z</time></trkpt><trkpt lat="41.12988338541345" lon="15.317640572252285"><ele>765.75</ele><time>2026-04-19T10:02:29.999Z</time></trkpt><trkpt lat="41.1298782636438" lon="15.317821373379386"><ele>766.5</ele><time>2026-04-19T10:02:30.999Z</time></trkpt><trkpt lat="41.129872353119204" lon="15.317998715202606"><ele>767.25</ele><time>2026-04-19T10:02:31.999Z</time></trkpt><trkpt lat="41.12986580701694" lon="15.318153678002611"><ele>768.0</ele><time>2026-04-19T10:02:32.999Z</time></trkpt><trkpt lat="41.129858131275135" lon="15.318298670095754"><ele>766.5</ele><time>2026-04-19T10:02:33.999Z</time></trkpt><trkpt lat="41.12985312505782" lon="15.318407853017632"><ele>765.0</ele><time>2026-04-19T10:02:34.999Z</time></trkpt><trkpt lat="41.129848141363766" lon="15.318492534063308"><ele>763.5</ele><time>2026-04-19T10:02:35.999Z</time></trkpt><trkpt lat="41.12985785602476" lon="15.318602302207612"><ele>762.0</ele><time>2026-04-19T10:02:37.999Z</time></trkpt><trkpt lat="41.12979601143175" lon="15.31864344602837"><ele>760.5</ele><time>2026-04-19T10:02:43.999Z</time></trkpt><trkpt lat="41.12976322522614" lon="15.318564233623793"><ele>759.0</ele><time>2026-04-19T10:02:44.999Z</time></trkpt><trkpt lat="41.12974799441762" lon="15.31845381132638"><ele>759.0</ele><time>2026-04-19T10:02:45.999Z</time></trkpt><trkpt lat="41.12971493080149" lon="15.318358578823803"><ele>759.0</ele><time>2026-04-19T10:02:46.999Z</time></trkpt><trkpt lat="41.12965987253755" lon="15.318275006762759"><ele>759.0</ele><time>2026-04-19T10:02:47.999Z</time></trkpt><trkpt lat="41.12960564021511" lon="15.318183737273442"><ele>759.0</ele><time>2026-04-19T10:02:48.999Z</time></trkpt><trkpt lat="41.12955840227845" lon="15.318089948972952"><ele>759.0</ele><time>2026-04-19T10:02:49.999Z</time></trkpt><trkpt lat="41.129484718994426" lon="15.3179759947455"><ele>759.0</ele><time>2026-04-19T10:02:50.999Z</time></trkpt><trkpt lat="41.12939567471436" lon="15.317837651667295"><ele>762.0</ele><time>2026-04-19T10:02:51.999Z</time></trkpt><trkpt lat="41.129302660231986" lon="15.31768175580159"><ele>765.0</ele><time>2026-04-19T10:02:52.999Z</time></trkpt><trkpt lat="41.129215006081836" lon="15.317513416205053"><ele>768.0</ele><time>2026-04-19T10:02:53.999Z</time></trkpt><trkpt lat="41.12910702094789" lon="15.317314181753689"><ele>771.0</ele><time>2026-04-19T10:02:54.999Z</time></trkpt><trkpt lat="41.12900798209486" lon="15.317133029191007"><ele>774.0</ele><time>2026-04-19T10:02:55.999Z</time></trkpt><trkpt lat="41.128912384883" lon="15.316957096489949"><ele>777.0</ele><time>2026-04-19T10:02:56.999Z</time></trkpt><trkpt lat="41.128812879844936" lon="15.316777355524586"><ele>777.0</ele><time>2026-04-19T10:02:57.999Z</time></trkpt><trkpt lat="41.12869656906034" lon="15.316584180943886"><ele>777.0</ele><time>2026-04-19T10:02:58.999Z</time></trkpt><trkpt lat="41.12856138669183" lon="15.316386781384539"><ele>777.0</ele><time>2026-04-19T10:02:59.999Z</time></trkpt><trkpt lat="41.12842039193859" lon="15.316178639766548"><ele>779.0</ele><time>2026-04-19T10:03:00.999Z</time></trkpt><trkpt lat="41.128288648382856" lon="15.315970974495631"><ele>781.0</ele><time>2026-04-19T10:03:01.999Z</time></trkpt><trkpt lat="41.12819032942597" lon="15.315816743385362"><ele>783.0</ele><time>2026-04-19T10:03:02.999Z</time></trkpt><trkpt lat="41.128104215264685" lon="15.315665540322811"><ele>786.3333333333333</ele><time>2026-04-19T10:03:03.999Z</time></trkpt><trkpt lat="41.1279911374557" lon="15.315486173805153"><ele>789.6666666666666</ele><time>2026-04-19T10:03:04.999Z</time></trkpt><trkpt lat="41.1278844196163" lon="15.315311970257554"><ele>793.0</ele><time>2026-04-19T10:03:05.999Z</time></trkpt><trkpt lat="41.127786822948856" lon="15.315161981966131"><ele>793.0</ele><time>2026-04-19T10:03:06.999Z</time></trkpt><trkpt lat="41.127685167108275" lon="15.315058145321492"><ele>793.0</ele><time>2026-04-19T10:03:07.999Z</time></trkpt><trkpt lat="41.127566001837764" lon="15.314956115092759"><ele>793.0</ele><time>2026-04-19T10:03:08.999Z</time></trkpt><trkpt lat="41.12746761939863" lon="15.314847486654669"><ele>793.0</ele><time>2026-04-19T10:03:09.999Z</time></trkpt><trkpt lat="41.12737284869818" lon="15.314763041674366"><ele>793.2</ele><time>2026-04-19T10:03:10.999Z</time></trkpt><trkpt lat="41.12729532184697" lon="15.31469069315844"><ele>793.4</ele><time>2026-04-19T10:03:11.999Z</time></trkpt><trkpt lat="41.12720037340392" lon="15.314690251516703"><ele>793.6</ele><time>2026-04-19T10:03:13.999Z</time></trkpt><trkpt lat="41.12720565911612" lon="15.314874404813384"><ele>793.8000000000001</ele><time>2026-04-19T10:03:15.999Z</time></trkpt><trkpt lat="41.12723525738381" lon="15.315015914232767"><ele>794.0</ele><time>2026-04-19T10:03:16.999Z</time></trkpt><trkpt lat="41.12724271395992" lon="15.315166571558557"><ele>794.0</ele><time>2026-04-19T10:03:17.999Z</time></trkpt><trkpt lat="41.12717311607282" lon="15.315320857975566"><ele>794.0</ele><time>2026-04-19T10:03:18.999Z</time></trkpt><trkpt lat="41.127151892360885" lon="15.31550221438924"><ele>794.0</ele><time>2026-04-19T10:03:19.999Z</time></trkpt><trkpt lat="41.12712140862164" lon="15.315676388388585"><ele>794.0</ele><time>2026-04-19T10:03:20.999Z</time></trkpt><trkpt lat="41.12708349207094" lon="15.315848049277028"><ele>791.5</ele><time>2026-04-19T10:03:21.999Z</time></trkpt><trkpt lat="41.12704756058906" lon="15.316009681044672"><ele>789.0</ele><time>2026-04-19T10:03:22.999Z</time></trkpt><trkpt lat="41.12701605859619" lon="15.316166005215118"><ele>786.5</ele><time>2026-04-19T10:03:23.999Z</time></trkpt><trkpt lat="41.12698500654003" lon="15.316338950354709"><ele>784.0</ele><time>2026-04-19T10:03:24.999Z</time></trkpt><trkpt lat="41.126955198200456" lon="15.316498032213428"><ele>781.75</ele><time>2026-04-19T10:03:25.999Z</time></trkpt><trkpt lat="41.126923394044404" lon="15.316655556316727"><ele>779.5</ele><time>2026-04-19T10:03:26.999Z</time></trkpt><trkpt lat="41.12689471232341" lon="15.316817781233754"><ele>777.25</ele><time>2026-04-19T10:03:27.999Z</time></trkpt><trkpt lat="41.12687889344202" lon="15.31697322418824"><ele>775.0</ele><time>2026-04-19T10:03:28.999Z</time></trkpt><trkpt lat="41.126860624034315" lon="15.3171288518764"><ele>772.8</ele><time>2026-04-19T10:03:29.999Z</time></trkpt><trkpt lat="41.12682812597505" lon="15.317269161510577"><ele>770.6</ele><time>2026-04-19T10:03:30.999Z</time></trkpt><trkpt lat="41.12679484369026" lon="15.317404078326312"><ele>768.4000000000001</ele><time>2026-04-19T10:03:31.999Z</time></trkpt><trkpt lat="41.12676857319086" lon="15.317543371133938"><ele>766.2</ele><time>2026-04-19T10:03:32.999Z</time></trkpt><trkpt lat="41.12674500755875" lon="15.317690988338633"><ele>764.0</ele><time>2026-04-19T10:03:33.999Z</time></trkpt><trkpt lat="41.12672357780837" lon="15.317834924821677"><ele>764.0</ele><time>2026-04-19T10:03:34.999Z</time></trkpt><trkpt lat="41.12669410899836" lon="15.31797521993783"><ele>764.0</ele><time>2026-04-19T10:03:35.999Z</time></trkpt><trkpt lat="41.126655813185415" lon="15.31810621632153"><ele>764.0</ele><time>2026-04-19T10:03:36.999Z</time></trkpt><trkpt lat="41.126610537954306" lon="15.318194887680358"><ele>764.0</ele><time>2026-04-19T10:03:37.999Z</time></trkpt><trkpt lat="41.12655513384404" lon="15.318244022439908"><ele>764.0</ele><time>2026-04-19T10:03:38.999Z</time></trkpt><trkpt lat="41.12651304813909" lon="15.31837728565007"><ele>761.0</ele><time>2026-04-19T10:03:40.999Z</time></trkpt><trkpt lat="41.12650516303018" lon="15.318488169150294"><ele>758.0</ele><time>2026-04-19T10:03:41.999Z</time></trkpt><trkpt lat="41.126480367753196" lon="15.318617601861467"><ele>755.0</ele><time>2026-04-19T10:03:42.999Z</time></trkpt><trkpt lat="41.126450319046185" lon="15.318766850984199"><ele>752.0</ele><time>2026-04-19T10:03:43.999Z</time></trkpt><trkpt lat="41.1264180890188" lon="15.318909426024728"><ele>749.0</ele><time>2026-04-19T10:03:44.999Z</time></trkpt><trkpt lat="41.126382692967425" lon="15.319038050315296"><ele>746.8000000000001</ele><time>2026-04-19T10:03:45.999Z</time></trkpt><trkpt lat="41.126339261773154" lon="15.319151395580166"><ele>744.6</ele><time>2026-04-19T10:03:46.999Z</time></trkpt><trkpt lat="41.12630194161416" lon="15.319277619279703"><ele>742.4</ele><time>2026-04-19T10:03:47.999Z</time></trkpt><trkpt lat="41.12626977661186" lon="15.319409742560223"><ele>740.2</ele><time>2026-04-19T10:03:48.999Z</time></trkpt><trkpt lat="41.12622301415233" lon="15.319525920660494"><ele>738.0</ele><time>2026-04-19T10:03:49.999Z</time></trkpt><trkpt lat="41.12618075080085" lon="15.31965817540256"><ele>735.5999999999999</ele><time>2026-04-19T10:03:50.999Z</time></trkpt><trkpt lat="41.12614738230203" lon="15.319784900804985"><ele>733.1999999999999</ele><time>2026-04-19T10:03:51.999Z</time></trkpt><trkpt lat="41.12610773498722" lon="15.319915862943823"><ele>730.8</ele><time>2026-04-19T10:03:52.999Z</time></trkpt><trkpt lat="41.126069733168265" lon="15.320043306924987"><ele>728.4</ele><time>2026-04-19T10:03:53.999Z</time></trkpt><trkpt lat="41.126031368845275" lon="15.320151246795106"><ele>726.0</ele><time>2026-04-19T10:03:54.999Z</time></trkpt><trkpt lat="41.12599436684693" lon="15.320299034152466"><ele>726.0</ele><time>2026-04-19T10:03:55.999Z</time></trkpt><trkpt lat="41.12597578963059" lon="15.320452580183126"><ele>726.0</ele><time>2026-04-19T10:03:56.999Z</time></trkpt><trkpt lat="41.12595086842699" lon="15.320582775427427"><ele>726.0</ele><time>2026-04-19T10:03:57.999Z</time></trkpt><trkpt lat="41.12591152595905" lon="15.320705268325597"><ele>726.0</ele><time>2026-04-19T10:03:58.999Z</time></trkpt><trkpt lat="41.1258701219285" lon="15.32080670738628"><ele>726.0</ele><time>2026-04-19T10:03:59.999Z</time></trkpt><trkpt lat="41.12582584763349" lon="15.320920780505194"><ele>724.4</ele><time>2026-04-19T10:04:00.999Z</time></trkpt><trkpt lat="41.1257953480925" lon="15.321007244226642"><ele>722.8</ele><time>2026-04-19T10:04:01.999Z</time></trkpt><trkpt lat="41.12575424242047" lon="15.321158945656057"><ele>721.1999999999999</ele><time>2026-04-19T10:04:03.999Z</time></trkpt><trkpt lat="41.12572124365695" lon="15.321263036704462"><ele>719.5999999999999</ele><time>2026-04-19T10:04:04.999Z</time></trkpt><trkpt lat="41.125693559232054" lon="15.321363708269987"><ele>718.0</ele><time>2026-04-19T10:04:05.999Z</time></trkpt><trkpt lat="41.12566581115366" lon="15.32148598584717"><ele>715.0</ele><time>2026-04-19T10:04:06.999Z</time></trkpt><trkpt lat="41.12564195072381" lon="15.321580774727513"><ele>712.0</ele><time>2026-04-19T10:04:07.999Z</time></trkpt><trkpt lat="41.12561607750779" lon="15.321662482529598"><ele>709.0</ele><time>2026-04-19T10:04:08.999Z</time></trkpt><trkpt lat="41.12554505330307" lon="15.32183338974811"><ele>706.0</ele><time>2026-04-19T10:04:10.999Z</time></trkpt><trkpt lat="41.12551109682323" lon="15.321935467359511"><ele>703.0</ele><time>2026-04-19T10:04:11.999Z</time></trkpt><trkpt lat="41.12548443640991" lon="15.322054002699229"><ele>703.0</ele><time>2026-04-19T10:04:12.999Z</time></trkpt><trkpt lat="41.125481962343315" lon="15.322185372923308"><ele>703.0</ele><time>2026-04-19T10:04:13.999Z</time></trkpt><trkpt lat="41.12549609817892" lon="15.322304253017405"><ele>703.0</ele><time>2026-04-19T10:04:14.999Z</time></trkpt><trkpt lat="41.12551010929749" lon="15.322411489264967"><ele>703.0</ele><time>2026-04-19T10:04:15.999Z</time></trkpt><trkpt lat="41.12552224131437" lon="15.322524630814161"><ele>703.0</ele><time>2026-04-19T10:04:16.999Z</time></trkpt><trkpt lat="41.125528467739876" lon="15.322634205068649"><ele>703.0</ele><time>2026-04-19T10:04:17.999Z</time></trkpt><trkpt lat="41.125524729247125" lon="15.322736209768058"><ele>702.0</ele><time>2026-04-19T10:04:18.999Z</time></trkpt><trkpt lat="41.12554135334224" lon="15.322908887686477"><ele>701.0</ele><time>2026-04-19T10:04:20.999Z</time></trkpt><trkpt lat="41.12555464567026" lon="15.323042754168194"><ele>700.0</ele><time>2026-04-19T10:04:21.999Z</time></trkpt><trkpt lat="41.12555655877541" lon="15.323172308505267"><ele>699.0</ele><time>2026-04-19T10:04:22.999Z</time></trkpt><trkpt lat="41.12554746471064" lon="15.323320187996629"><ele>698.0</ele><time>2026-04-19T10:04:24.999Z</time></trkpt><trkpt lat="41.12552745301533" lon="15.323408245909862"><ele>697.3333333333333</ele><time>2026-04-19T10:04:27.999Z</time></trkpt><trkpt lat="41.12550796206362" lon="15.323517126621335"><ele>696.6666666666666</ele><time>2026-04-19T10:04:29.999Z</time></trkpt><trkpt lat="41.1255228911817" lon="15.323613657267309"><ele>696.0</ele><time>2026-04-19T10:04:31.999Z</time></trkpt><trkpt lat="41.125505175776894" lon="15.323740193140411"><ele>695.3333333333334</ele><time>2026-04-19T10:04:33.999Z</time></trkpt><trkpt lat="41.12548907302948" lon="15.323831725012004"><ele>694.6666666666667</ele><time>2026-04-19T10:04:34.999Z</time></trkpt><trkpt lat="41.12547375037189" lon="15.32394489469115"><ele>694.0</ele><time>2026-04-19T10:04:35.999Z</time></trkpt><trkpt lat="41.12547543612719" lon="15.324089350804341"><ele>692.25</ele><time>2026-04-19T10:04:36.999Z</time></trkpt><trkpt lat="41.12547457606872" lon="15.324233165277368"><ele>690.5</ele><time>2026-04-19T10:04:37.999Z</time></trkpt><trkpt lat="41.12548502932963" lon="15.324399527735403"><ele>688.75</ele><time>2026-04-19T10:04:38.999Z</time></trkpt><trkpt lat="41.12550889264421" lon="15.324534728145276"><ele>687.0</ele><time>2026-04-19T10:04:39.999Z</time></trkpt><trkpt lat="41.125545844725465" lon="15.324725721360101"><ele>686.2</ele><time>2026-04-19T10:04:40.999Z</time></trkpt><trkpt lat="41.12558325351247" lon="15.324910033421457"><ele>685.4000000000001</ele><time>2026-04-19T10:04:41.999Z</time></trkpt><trkpt lat="41.12560168355704" lon="15.325044751296442"><ele>684.5999999999999</ele><time>2026-04-19T10:04:42.999Z</time></trkpt><trkpt lat="41.125602588799794" lon="15.325182694787376"><ele>683.8</ele><time>2026-04-19T10:04:43.999Z</time></trkpt><trkpt lat="41.125601808979205" lon="15.325273671607519"><ele>683.0</ele><time>2026-04-19T10:04:44.999Z</time></trkpt><trkpt lat="41.12560767879156" lon="15.325495003244448"><ele>682.25</ele><time>2026-04-19T10:04:46.999Z</time></trkpt><trkpt lat="41.125606399209275" lon="15.32566738623718"><ele>681.5</ele><time>2026-04-19T10:04:47.999Z</time></trkpt><trkpt lat="41.12559251271429" lon="15.325787454690477"><ele>680.75</ele><time>2026-04-19T10:04:48.999Z</time></trkpt><trkpt lat="41.12558254632227" lon="15.325995572254365"><ele>680.0</ele><time>2026-04-19T10:04:50.999Z</time></trkpt><trkpt lat="41.12557367041729" lon="15.326168592364377"><ele>680.0</ele><time>2026-04-19T10:04:51.999Z</time></trkpt><trkpt lat="41.12556238413334" lon="15.326308812769739"><ele>680.0</ele><time>2026-04-19T10:04:52.999Z</time></trkpt><trkpt lat="41.12556077661838" lon="15.326429590247757"><ele>680.0</ele><time>2026-04-19T10:04:53.999Z</time></trkpt><trkpt lat="41.12555540885477" lon="15.3265625029131"><ele>680.0</ele><time>2026-04-19T10:04:54.999Z</time></trkpt><trkpt lat="41.12554784344702" lon="15.326701247047243"><ele>680.0</ele><time>2026-04-19T10:04:55.999Z</time></trkpt><trkpt lat="41.12554158065334" lon="15.326837344665462"><ele>678.6</ele><time>2026-04-19T10:04:56.999Z</time></trkpt><trkpt lat="41.12552613354315" lon="15.326970668383355"><ele>677.2</ele><time>2026-04-19T10:04:57.999Z</time></trkpt><trkpt lat="41.12552363753695" lon="15.327095544204917"><ele>675.8</ele><time>2026-04-19T10:04:58.999Z</time></trkpt><trkpt lat="41.12553189466113" lon="15.327252691894536"><ele>674.4</ele><time>2026-04-19T10:04:59.999Z</time></trkpt><trkpt lat="41.12553239966784" lon="15.327412218353048"><ele>673.0</ele><time>2026-04-19T10:05:00.999Z</time></trkpt><trkpt lat="41.12552204050949" lon="15.327567171394932"><ele>671.0</ele><time>2026-04-19T10:05:01.999Z</time></trkpt><trkpt lat="41.125510307306556" lon="15.32772922058673"><ele>669.0</ele><time>2026-04-19T10:05:02.999Z</time></trkpt><trkpt lat="41.12550290218373" lon="15.327891939601495"><ele>667.0</ele><time>2026-04-19T10:05:03.999Z</time></trkpt><trkpt lat="41.125500005480966" lon="15.328043555805843"><ele>665.0</ele><time>2026-04-19T10:05:04.999Z</time></trkpt><trkpt lat="41.12550044588798" lon="15.328180901152482"><ele>664.0</ele><time>2026-04-19T10:05:05.999Z</time></trkpt><trkpt lat="41.12549797387812" lon="15.328323813955723"><ele>663.0</ele><time>2026-04-19T10:05:06.999Z</time></trkpt><trkpt lat="41.12548641075931" lon="15.328453939317829"><ele>662.0</ele><time>2026-04-19T10:05:07.999Z</time></trkpt><trkpt lat="41.12546607604339" lon="15.32856327139314"><ele>661.0</ele><time>2026-04-19T10:05:08.999Z</time></trkpt><trkpt lat="41.12546019757815" lon="15.328688959648456"><ele>660.0</ele><time>2026-04-19T10:05:09.999Z</time></trkpt><trkpt lat="41.12547371413476" lon="15.3288097470114"><ele>659.1666666666666</ele><time>2026-04-19T10:05:10.999Z</time></trkpt><trkpt lat="41.12547936755441" lon="15.328913413319038"><ele>658.3333333333334</ele><time>2026-04-19T10:05:11.999Z</time></trkpt><trkpt lat="41.12547955533769" lon="15.329013535191004"><ele>657.5</ele><time>2026-04-19T10:05:12.999Z</time></trkpt><trkpt lat="41.12548449495343" lon="15.329124564455597"><ele>656.6666666666667</ele><time>2026-04-19T10:05:13.999Z</time></trkpt><trkpt lat="41.12549257576359" lon="15.329225419191587"><ele>655.8333333333334</ele><time>2026-04-19T10:05:14.999Z</time></trkpt><trkpt lat="41.1254991795108" lon="15.329334050579217"><ele>655.0</ele><time>2026-04-19T10:05:15.999Z</time></trkpt><trkpt lat="41.12550914308675" lon="15.3294384411924"><ele>655.0</ele><time>2026-04-19T10:05:16.999Z</time></trkpt><trkpt lat="41.12551496722158" lon="15.329537556682354"><ele>655.0</ele><time>2026-04-19T10:05:17.999Z</time></trkpt><trkpt lat="41.12551156777822" lon="15.329648888413868"><ele>655.0</ele><time>2026-04-19T10:05:18.999Z</time></trkpt><trkpt lat="41.12551058676984" lon="15.329760458381502"><ele>655.0</ele><time>2026-04-19T10:05:19.999Z</time></trkpt><trkpt lat="41.1255145697707" lon="15.329870084043195"><ele>655.0</ele><time>2026-04-19T10:05:20.999Z</time></trkpt><trkpt lat="41.12551358038725" lon="15.330009628831036"><ele>655.0</ele><time>2026-04-19T10:05:21.999Z</time></trkpt><trkpt lat="41.125512006455935" lon="15.33014375316584"><ele>654.0</ele><time>2026-04-19T10:05:22.999Z</time></trkpt><trkpt lat="41.12551025509024" lon="15.330261823761429"><ele>653.0</ele><time>2026-04-19T10:05:23.999Z</time></trkpt><trkpt lat="41.12550729213157" lon="15.330355806728543"><ele>652.0</ele><time>2026-04-19T10:05:24.999Z</time></trkpt><trkpt lat="41.12550473628212" lon="15.330440282098103"><ele>651.0</ele><time>2026-04-19T10:05:25.999Z</time></trkpt><trkpt lat="41.125502324135006" lon="15.330556682297617"><ele>650.0</ele><time>2026-04-19T10:05:27.999Z</time></trkpt><trkpt lat="41.125498965758" lon="15.330648344438394"><ele>649.0</ele><time>2026-04-19T10:05:28.999Z</time></trkpt><trkpt lat="41.1254932382123" lon="15.330758335375098"><ele>648.2</ele><time>2026-04-19T10:05:29.999Z</time></trkpt><trkpt lat="41.12548396444602" lon="15.330884585027405"><ele>647.4000000000001</ele><time>2026-04-19T10:05:30.999Z</time></trkpt><trkpt lat="41.12547525013401" lon="15.331014778066464"><ele>646.6</ele><time>2026-04-19T10:05:31.999Z</time></trkpt><trkpt lat="41.1254770685958" lon="15.331098328039284"><ele>645.8</ele><time>2026-04-19T10:05:32.999Z</time></trkpt><trkpt lat="41.12548172898187" lon="15.331275010298707"><ele>645.0</ele><time>2026-04-19T10:05:34.999Z</time></trkpt><trkpt lat="41.1254742993188" lon="15.331390153059688"><ele>644.3333333333334</ele><time>2026-04-19T10:05:35.999Z</time></trkpt><trkpt lat="41.1254578192238" lon="15.331482808847165"><ele>643.6666666666666</ele><time>2026-04-19T10:05:36.999Z</time></trkpt><trkpt lat="41.12544529400312" lon="15.331608892374284"><ele>643.0</ele><time>2026-04-19T10:05:37.999Z</time></trkpt><trkpt lat="41.125441942200816" lon="15.331728618412923"><ele>642.3333333333333</ele><time>2026-04-19T10:05:38.999Z</time></trkpt><trkpt lat="41.12544242218903" lon="15.331826264392753"><ele>641.6666666666666</ele><time>2026-04-19T10:05:39.999Z</time></trkpt><trkpt lat="41.12543148113418" lon="15.331913705864068"><ele>641.0</ele><time>2026-04-19T10:05:40.999Z</time></trkpt><trkpt lat="41.125412597265964" lon="15.332010391163392"><ele>641.0</ele><time>2026-04-19T10:05:41.999Z</time></trkpt><trkpt lat="41.125392406117975" lon="15.332123674517337"><ele>641.0</ele><time>2026-04-19T10:05:42.999Z</time></trkpt><trkpt lat="41.12537558378257" lon="15.332239610536"><ele>641.0</ele><time>2026-04-19T10:05:43.999Z</time></trkpt><trkpt lat="41.12536029308479" lon="15.332370566539415"><ele>641.0</ele><time>2026-04-19T10:05:45.999Z</time></trkpt><trkpt lat="41.12530708956492" lon="15.332451682675966"><ele>641.0</ele><time>2026-04-19T10:05:47.999Z</time></trkpt><trkpt lat="41.12522179445637" lon="15.332520023841944"><ele>640.0</ele><time>2026-04-19T10:05:49.999Z</time></trkpt><trkpt lat="41.12520701022791" lon="15.332714064935125"><ele>639.0</ele><time>2026-04-19T10:05:51.999Z</time></trkpt><trkpt lat="41.12518110588975" lon="15.332893013331068"><ele>638.0</ele><time>2026-04-19T10:05:52.999Z</time></trkpt><trkpt lat="41.1251359893624" lon="15.33312124053164"><ele>636.3333333333333</ele><time>2026-04-19T10:05:53.999Z</time></trkpt><trkpt lat="41.12508305197505" lon="15.33338867330233"><ele>634.6666666666666</ele><time>2026-04-19T10:05:54.999Z</time></trkpt><trkpt lat="41.125038407276655" lon="15.333654798538246"><ele>633.0</ele><time>2026-04-19T10:05:55.999Z</time></trkpt><trkpt lat="41.12500475298607" lon="15.33385075367744"><ele>632.0</ele><time>2026-04-19T10:05:56.999Z</time></trkpt><trkpt lat="41.12497749386685" lon="15.334028934291785"><ele>631.0</ele><time>2026-04-19T10:05:57.999Z</time></trkpt><trkpt lat="41.124952001182585" lon="15.334209206947179"><ele>630.0</ele><time>2026-04-19T10:05:58.999Z</time></trkpt><trkpt lat="41.12492622500074" lon="15.334376370980484"><ele>629.0</ele><time>2026-04-19T10:05:59.999Z</time></trkpt><trkpt lat="41.12489942331803" lon="15.334539642545195"><ele>628.25</ele><time>2026-04-19T10:06:00.999Z</time></trkpt><trkpt lat="41.124881113584884" lon="15.334669312120333"><ele>627.5</ele><time>2026-04-19T10:06:01.999Z</time></trkpt><trkpt lat="41.12485392321124" lon="15.334782802496786"><ele>626.75</ele><time>2026-04-19T10:06:02.999Z</time></trkpt><trkpt lat="41.12482137093448" lon="15.334930735067303"><ele>626.0</ele><time>2026-04-19T10:06:03.999Z</time></trkpt><trkpt lat="41.12479378889376" lon="15.335148655296821"><ele>625.25</ele><time>2026-04-19T10:06:04.999Z</time></trkpt><trkpt lat="41.12477086455395" lon="15.335378936338657"><ele>624.5</ele><time>2026-04-19T10:06:05.999Z</time></trkpt><trkpt lat="41.124756736972955" lon="15.335548995488653"><ele>623.75</ele><time>2026-04-19T10:06:06.999Z</time></trkpt><trkpt lat="41.12477720651911" lon="15.33568311343055"><ele>623.0</ele><time>2026-04-19T10:06:07.999Z</time></trkpt><trkpt lat="41.12480818247832" lon="15.335838818555318"><ele>622.8</ele><time>2026-04-19T10:06:08.999Z</time></trkpt><trkpt lat="41.12482284112954" lon="15.335967625197993"><ele>622.5999999999999</ele><time>2026-04-19T10:06:09.999Z</time></trkpt><trkpt lat="41.12481494939215" lon="15.33605855526868"><ele>622.4000000000001</ele><time>2026-04-19T10:06:10.999Z</time></trkpt><trkpt lat="41.12478010474568" lon="15.336165820937667"><ele>622.2</ele><time>2026-04-19T10:06:12.999Z</time></trkpt><trkpt lat="41.12474928842769" lon="15.336289524279119"><ele>622.0</ele><time>2026-04-19T10:06:14.999Z</time></trkpt><trkpt lat="41.12472443426315" lon="15.336425946812534"><ele>621.6666666666667</ele><time>2026-04-19T10:06:15.999Z</time></trkpt><trkpt lat="41.124702562546084" lon="15.336595935258764"><ele>621.3333333333334</ele><time>2026-04-19T10:06:16.999Z</time></trkpt><trkpt lat="41.12468812888645" lon="15.336801241576346"><ele>621.0</ele><time>2026-04-19T10:06:17.999Z</time></trkpt><trkpt lat="41.12466356963787" lon="15.337041757111209"><ele>620.3333333333334</ele><time>2026-04-19T10:06:18.999Z</time></trkpt><trkpt lat="41.12462872843702" lon="15.337311440394455"><ele>619.6666666666667</ele><time>2026-04-19T10:06:19.999Z</time></trkpt><trkpt lat="41.12450795963745" lon="15.337517772875325"><ele>619.0</ele><time>2026-04-19T10:06:20.999Z</time></trkpt><trkpt lat="41.12448872382344" lon="15.337699950998546"><ele>619.0</ele><time>2026-04-19T10:06:21.999Z</time></trkpt><trkpt lat="41.12447479588638" lon="15.337831859392391"><ele>619.0</ele><time>2026-04-19T10:06:22.999Z</time></trkpt><trkpt lat="41.1244645436801" lon="15.337932820475054"><ele>619.0</ele><time>2026-04-19T10:06:24.999Z</time></trkpt><trkpt lat="41.12462401795495" lon="15.337878436956844"><ele>619.0</ele><time>2026-04-19T10:06:26.999Z</time></trkpt><trkpt lat="41.12468096261962" lon="15.337819603931205"><ele>619.0</ele><time>2026-04-19T10:06:27.999Z</time></trkpt><trkpt lat="41.1247633409786" lon="15.337793364613008"><ele>619.0</ele><time>2026-04-19T10:06:28.999Z</time></trkpt><trkpt lat="41.12483056942483" lon="15.337816145364027"><ele>619.0</ele><time>2026-04-19T10:06:29.999Z</time></trkpt><trkpt lat="41.124924157563704" lon="15.337849110427749"><ele>619.0</ele><time>2026-04-19T10:06:30.999Z</time></trkpt><trkpt lat="41.125058663403756" lon="15.337909159026326"><ele>619.0</ele><time>2026-04-19T10:06:31.999Z</time></trkpt><trkpt lat="41.12522027889748" lon="15.338015238999828"><ele>616.3333333333334</ele><time>2026-04-19T10:06:32.999Z</time></trkpt><trkpt lat="41.125383951838344" lon="15.338119700303784"><ele>613.6666666666666</ele><time>2026-04-19T10:06:33.999Z</time></trkpt><trkpt lat="41.12556425361339" lon="15.338222736377677"><ele>611.0</ele><time>2026-04-19T10:06:34.999Z</time></trkpt><trkpt lat="41.125776406956575" lon="15.338361713345762"><ele>609.5</ele><time>2026-04-19T10:06:35.999Z</time></trkpt><trkpt lat="41.12599436813307" lon="15.338520415454902"><ele>608.0</ele><time>2026-04-19T10:06:36.999Z</time></trkpt><trkpt lat="41.12618320053827" lon="15.338664539881178"><ele>608.0</ele><time>2026-04-19T10:06:38Z</time></trkpt><trkpt lat="41.126336448717026" lon="15.338790800623947"><ele>608.0</ele><time>2026-04-19T10:06:39Z</time></trkpt><trkpt lat="41.12646882812462" lon="15.338898384911307"><ele>608.0</ele><time>2026-04-19T10:06:40Z</time></trkpt><trkpt lat="41.12658491679218" lon="15.339004506860029"><ele>607.1999999999999</ele><time>2026-04-19T10:06:41Z</time></trkpt><trkpt lat="41.126683577706416" lon="15.339095307176779"><ele>606.4</ele><time>2026-04-19T10:06:42Z</time></trkpt><trkpt lat="41.126772681214966" lon="15.339178757244111"><ele>605.5999999999999</ele><time>2026-04-19T10:06:43Z</time></trkpt><trkpt lat="41.126839625977865" lon="15.339245434786616"><ele>604.8</ele><time>2026-04-19T10:06:44Z</time></trkpt><trkpt lat="41.126897254550144" lon="15.339299912728935"><ele>604.0</ele><time>2026-04-19T10:06:45Z</time></trkpt><trkpt lat="41.12698867468521" lon="15.339379220856177"><ele>604.0</ele><time>2026-04-19T10:06:47Z</time></trkpt><trkpt lat="41.12710688045471" lon="15.339468132077487"><ele>604.0</ele><time>2026-04-19T10:06:49Z</time></trkpt><trkpt lat="41.127209365367214" lon="15.339524195028076"><ele>604.0</ele><time>2026-04-19T10:06:51Z</time></trkpt><trkpt lat="41.127328595207835" lon="15.339600948374107"><ele>604.0</ele><time>2026-04-19T10:06:53Z</time></trkpt><trkpt lat="41.12742823109096" lon="15.339709443617576"><ele>603.6666666666667</ele><time>2026-04-19T10:06:54Z</time></trkpt><trkpt lat="41.127549591521536" lon="15.339851267524345"><ele>603.3333333333334</ele><time>2026-04-19T10:06:55Z</time></trkpt><trkpt lat="41.12768511291343" lon="15.340020667924017"><ele>603.0</ele><time>2026-04-19T10:06:56Z</time></trkpt><trkpt lat="41.12779320357589" lon="15.340166238481688"><ele>603.0</ele><time>2026-04-19T10:06:57Z</time></trkpt><trkpt lat="41.12786640552397" lon="15.34025107754079"><ele>603.0</ele><time>2026-04-19T10:06:58Z</time></trkpt><trkpt lat="41.127945940046416" lon="15.340313528790412"><ele>603.0</ele><time>2026-04-19T10:06:59Z</time></trkpt><trkpt lat="41.12805224054477" lon="15.340403473829202"><ele>603.0</ele><time>2026-04-19T10:07:00Z</time></trkpt><trkpt lat="41.12817506374713" lon="15.340526636250349"><ele>601.3333333333334</ele><time>2026-04-19T10:07:01Z</time></trkpt><trkpt lat="41.12834028911099" lon="15.340665075671756"><ele>599.6666666666667</ele><time>2026-04-19T10:07:02Z</time></trkpt><trkpt lat="41.128520743765435" lon="15.340808804734769"><ele>598.0</ele><time>2026-04-19T10:07:03Z</time></trkpt><trkpt lat="41.128710331338596" lon="15.340989458029053"><ele>598.0</ele><time>2026-04-19T10:07:04Z</time></trkpt><trkpt lat="41.12891164339339" lon="15.34118165826203"><ele>598.0</ele><time>2026-04-19T10:07:05Z</time></trkpt><trkpt lat="41.129103232927264" lon="15.341366194535432"><ele>596.3333333333334</ele><time>2026-04-19T10:07:06Z</time></trkpt><trkpt lat="41.129255914612315" lon="15.341512073064745"><ele>594.6666666666666</ele><time>2026-04-19T10:07:07Z</time></trkpt><trkpt lat="41.1293942430667" lon="15.341644082778853"><ele>593.0</ele><time>2026-04-19T10:07:08Z</time></trkpt><trkpt lat="41.12951833938114" lon="15.341757205261137"><ele>593.0</ele><time>2026-04-19T10:07:09Z</time></trkpt><trkpt lat="41.12963340695247" lon="15.341861832037095"><ele>593.0</ele><time>2026-04-19T10:07:10Z</time></trkpt><trkpt lat="41.12974515251422" lon="15.34197285264939"><ele>593.0</ele><time>2026-04-19T10:07:11Z</time></trkpt><trkpt lat="41.12985777713092" lon="15.34208096352058"><ele>593.0</ele><time>2026-04-19T10:07:12Z</time></trkpt><trkpt lat="41.12996209552221" lon="15.342170725431652"><ele>591.0</ele><time>2026-04-19T10:07:13Z</time></trkpt><trkpt lat="41.13009168059406" lon="15.342246968773875"><ele>589.0</ele><time>2026-04-19T10:07:14Z</time></trkpt><trkpt lat="41.130197376363995" lon="15.342313446885713"><ele>587.0</ele><time>2026-04-19T10:07:15Z</time></trkpt><trkpt lat="41.13030330920972" lon="15.34241437193074"><ele>585.0</ele><time>2026-04-19T10:07:16Z</time></trkpt><trkpt lat="41.13041997470221" lon="15.342547633520637"><ele>585.0</ele><time>2026-04-19T10:07:17Z</time></trkpt><trkpt lat="41.13054322707049" lon="15.342702846497634"><ele>585.0</ele><time>2026-04-19T10:07:18Z</time></trkpt><trkpt lat="41.130642478842546" lon="15.342827116082946"><ele>585.0</ele><time>2026-04-19T10:07:19Z</time></trkpt><trkpt lat="41.13071955355137" lon="15.342943296661367"><ele>585.0</ele><time>2026-04-19T10:07:20Z</time></trkpt><trkpt lat="41.130792895725" lon="15.343087877836119"><ele>581.25</ele><time>2026-04-19T10:07:21Z</time></trkpt><trkpt lat="41.130870803051316" lon="15.34326499344835"><ele>577.5</ele><time>2026-04-19T10:07:22Z</time></trkpt><trkpt lat="41.1309274677703" lon="15.34343314297739"><ele>573.75</ele><time>2026-04-19T10:07:23Z</time></trkpt><trkpt lat="41.130980336729856" lon="15.343584160508035"><ele>570.0</ele><time>2026-04-19T10:07:24Z</time></trkpt><trkpt lat="41.13103924243138" lon="15.34372264007555"><ele>568.6666666666666</ele><time>2026-04-19T10:07:25Z</time></trkpt><trkpt lat="41.131120788628095" lon="15.343905256918864"><ele>567.3333333333333</ele><time>2026-04-19T10:07:26Z</time></trkpt><trkpt lat="41.131197603578585" lon="15.344088567458197"><ele>566.0</ele><time>2026-04-19T10:07:27Z</time></trkpt><trkpt lat="41.13129547863753" lon="15.344309808739968"><ele>566.0</ele><time>2026-04-19T10:07:28Z</time></trkpt><trkpt lat="41.13137666704263" lon="15.344537524694616"><ele>566.0</ele><time>2026-04-19T10:07:29Z</time></trkpt><trkpt lat="41.13145727055944" lon="15.34471981929369"><ele>566.0</ele><time>2026-04-19T10:07:30Z</time></trkpt><trkpt lat="41.131539945658325" lon="15.344895041555507"><ele>560.75</ele><time>2026-04-19T10:07:31Z</time></trkpt><trkpt lat="41.131599452969745" lon="15.345039148229393"><ele>555.5</ele><time>2026-04-19T10:07:32Z</time></trkpt><trkpt lat="41.13167232934107" lon="15.345209601996615"><ele>550.25</ele><time>2026-04-19T10:07:33Z</time></trkpt><trkpt lat="41.13175986796612" lon="15.345407410173806"><ele>545.0</ele><time>2026-04-19T10:07:34Z</time></trkpt><trkpt lat="41.13183287359772" lon="15.345546052387373"><ele>542.0</ele><time>2026-04-19T10:07:35Z</time></trkpt><trkpt lat="41.13189547722184" lon="15.345681055676945"><ele>539.0</ele><time>2026-04-19T10:07:36Z</time></trkpt><trkpt lat="41.13197222022221" lon="15.345885555761194"><ele>536.0</ele><time>2026-04-19T10:07:37Z</time></trkpt><trkpt lat="41.132045232793985" lon="15.34608838807906"><ele>536.0</ele><time>2026-04-19T10:07:38Z</time></trkpt><trkpt lat="41.132091838288666" lon="15.34625961982279"><ele>536.0</ele><time>2026-04-19T10:07:39Z</time></trkpt><trkpt lat="41.13214246835418" lon="15.346410193042203"><ele>536.0</ele><time>2026-04-19T10:07:40Z</time></trkpt><trkpt lat="41.13221271603014" lon="15.346607248177841"><ele>536.0</ele><time>2026-04-19T10:07:41Z</time></trkpt><trkpt lat="41.13228620770194" lon="15.346783389298578"><ele>533.5</ele><time>2026-04-19T10:07:42Z</time></trkpt><trkpt lat="41.13235775460031" lon="15.346939337306534"><ele>531.0</ele><time>2026-04-19T10:07:43Z</time></trkpt><trkpt lat="41.13242822293553" lon="15.347079911627493"><ele>528.5</ele><time>2026-04-19T10:07:44Z</time></trkpt><trkpt lat="41.13252326193083" lon="15.347241984965061"><ele>526.0</ele><time>2026-04-19T10:07:45Z</time></trkpt><trkpt lat="41.1326102410078" lon="15.347387447834835"><ele>523.5</ele><time>2026-04-19T10:07:46Z</time></trkpt><trkpt lat="41.132680037782926" lon="15.347516947395489"><ele>521.0</ele><time>2026-04-19T10:07:47Z</time></trkpt><trkpt lat="41.132714432289454" lon="15.347596418211387"><ele>518.5</ele><time>2026-04-19T10:07:48Z</time></trkpt><trkpt lat="41.1327463267496" lon="15.347672257917425"><ele>516.0</ele><time>2026-04-19T10:07:50Z</time></trkpt><trkpt lat="41.13278392249997" lon="15.347778428993822"><ele>513.5</ele><time>2026-04-19T10:07:53Z</time></trkpt><trkpt lat="41.13284265964901" lon="15.347818334453319"><ele>511.0</ele><time>2026-04-19T10:07:55Z</time></trkpt><trkpt lat="41.132897559256214" lon="15.347949438045106"><ele>511.0</ele><time>2026-04-19T10:07:57Z</time></trkpt><trkpt lat="41.13292322118414" lon="15.348029267618363"><ele>511.0</ele><time>2026-04-19T10:07:58Z</time></trkpt><trkpt lat="41.1329254064076" lon="15.348113229795288"><ele>511.0</ele><time>2026-04-19T10:07:59Z</time></trkpt><trkpt lat="41.1329318977805" lon="15.348238763733935"><ele>511.0</ele><time>2026-04-19T10:08:00Z</time></trkpt><trkpt lat="41.1329410818619" lon="15.3483959188445"><ele>511.0</ele><time>2026-04-19T10:08:01Z</time></trkpt><trkpt lat="41.13293621275771" lon="15.348594490395172"><ele>510.4</ele><time>2026-04-19T10:08:02Z</time></trkpt><trkpt lat="41.132906101474134" lon="15.34877639898244"><ele>509.8</ele><time>2026-04-19T10:08:03Z</time></trkpt><trkpt lat="41.132870551764555" lon="15.348857155528309"><ele>509.19999999999993</ele><time>2026-04-19T10:08:04Z</time></trkpt><trkpt lat="41.13276726233439" lon="15.348894387658678"><ele>508.59999999999997</ele><time>2026-04-19T10:08:06Z</time></trkpt><trkpt lat="41.13268574995758" lon="15.348933345138041"><ele>508.0</ele><time>2026-04-19T10:08:07Z</time></trkpt><trkpt lat="41.13263159011634" lon="15.349010239057442"><ele>507.79999999999995</ele><time>2026-04-19T10:08:08Z</time></trkpt><trkpt lat="41.132631712337094" lon="15.349097123789257"><ele>507.59999999999997</ele><time>2026-04-19T10:08:10Z</time></trkpt><trkpt lat="41.13260513894346" lon="15.349190552771516"><ele>507.40000000000003</ele><time>2026-04-19T10:08:19Z</time></trkpt><trkpt lat="41.13251819579158" lon="15.349320181344336"><ele>507.20000000000005</ele><time>2026-04-19T10:08:21Z</time></trkpt><trkpt lat="41.13244255293271" lon="15.349400480789923"><ele>507.0</ele><time>2026-04-19T10:08:22Z</time></trkpt><trkpt lat="41.13233307948397" lon="15.349497779142327"><ele>508.40000000000003</ele><time>2026-04-19T10:08:23Z</time></trkpt><trkpt lat="41.132228737338274" lon="15.349610684734767"><ele>509.80000000000007</ele><time>2026-04-19T10:08:24Z</time></trkpt><trkpt lat="41.13216119019407" lon="15.34975371155063"><ele>511.2</ele><time>2026-04-19T10:08:25Z</time></trkpt><trkpt lat="41.13211117109704" lon="15.34986294705172"><ele>512.6</ele><time>2026-04-19T10:08:26Z</time></trkpt><trkpt lat="41.132076007510776" lon="15.349953812486637"><ele>514.0</ele><time>2026-04-19T10:08:27Z</time></trkpt><trkpt lat="41.13198833730768" lon="15.35008622702923"><ele>514.5</ele><time>2026-04-19T10:08:28Z</time></trkpt><trkpt lat="41.13187615147421" lon="15.350193852924543"><ele>515.0</ele><time>2026-04-19T10:08:29Z</time></trkpt><trkpt lat="41.13173042327171" lon="15.350284020095335"><ele>515.5</ele><time>2026-04-19T10:08:30Z</time></trkpt><trkpt lat="41.131598718797186" lon="15.35037402387839"><ele>516.0</ele><time>2026-04-19T10:08:31Z</time></trkpt><trkpt lat="41.13150245237917" lon="15.35043442614218"><ele>516.0</ele><time>2026-04-19T10:08:32Z</time></trkpt><trkpt lat="41.1314297381756" lon="15.35046828599358"><ele>516.0</ele><time>2026-04-19T10:08:33Z</time></trkpt><trkpt lat="41.13136552117046" lon="15.3505066822499"><ele>516.0</ele><time>2026-04-19T10:08:34Z</time></trkpt><trkpt lat="41.13130270455132" lon="15.350548520410884"><ele>516.0</ele><time>2026-04-19T10:08:35Z</time></trkpt><trkpt lat="41.13122040513386" lon="15.35058845642821"><ele>516.0</ele><time>2026-04-19T10:08:36Z</time></trkpt><trkpt lat="41.13111357567445" lon="15.350615683814446"><ele>516.0</ele><time>2026-04-19T10:08:37Z</time></trkpt><trkpt lat="41.13101248968105" lon="15.350664980016617"><ele>520.3333333333334</ele><time>2026-04-19T10:08:38Z</time></trkpt><trkpt lat="41.130879682859636" lon="15.350743794532109"><ele>524.6666666666667</ele><time>2026-04-19T10:08:39Z</time></trkpt><trkpt lat="41.13072834541727" lon="15.350824490287986"><ele>529.0</ele><time>2026-04-19T10:08:40Z</time></trkpt><trkpt lat="41.1305723200703" lon="15.350897187272519"><ele>529.0</ele><time>2026-04-19T10:08:41Z</time></trkpt><trkpt lat="41.13043750622882" lon="15.350955978258124"><ele>529.0</ele><time>2026-04-19T10:08:42Z</time></trkpt><trkpt lat="41.13027433356996" lon="15.351037896283977"><ele>529.0</ele><time>2026-04-19T10:08:43Z</time></trkpt><trkpt lat="41.13012938739229" lon="15.351101130960078"><ele>529.0</ele><time>2026-04-19T10:08:44Z</time></trkpt><trkpt lat="41.13000163001987" lon="15.351169611676125"><ele>529.0</ele><time>2026-04-19T10:08:45Z</time></trkpt><trkpt lat="41.12988603182136" lon="15.3512334101476"><ele>529.0</ele><time>2026-04-19T10:08:46Z</time></trkpt><trkpt lat="41.12979441906046" lon="15.351295553715206"><ele>529.0</ele><time>2026-04-19T10:08:47Z</time></trkpt><trkpt lat="41.12970345746302" lon="15.351345617286244"><ele>531.0</ele><time>2026-04-19T10:08:48Z</time></trkpt><trkpt lat="41.129630890197205" lon="15.351380221814964"><ele>533.0</ele><time>2026-04-19T10:08:49Z</time></trkpt><trkpt lat="41.129536210607284" lon="15.351481886179341"><ele>535.0</ele><time>2026-04-19T10:08:51Z</time></trkpt><trkpt lat="41.129551804590804" lon="15.351663597193317"><ele>537.0</ele><time>2026-04-19T10:08:53Z</time></trkpt><trkpt lat="41.12958435462557" lon="15.351810946014254"><ele>537.0</ele><time>2026-04-19T10:08:54Z</time></trkpt><trkpt lat="41.12962121144807" lon="15.351994738895318"><ele>537.0</ele><time>2026-04-19T10:08:55Z</time></trkpt><trkpt lat="41.129656035879144" lon="15.352199845406277"><ele>537.0</ele><time>2026-04-19T10:08:56Z</time></trkpt><trkpt lat="41.12969458499284" lon="15.352431207425843"><ele>540.3333333333334</ele><time>2026-04-19T10:08:57Z</time></trkpt><trkpt lat="41.129735197177574" lon="15.352672774462306"><ele>543.6666666666667</ele><time>2026-04-19T10:08:58Z</time></trkpt><trkpt lat="41.12976942811914" lon="15.3529333308532"><ele>547.0</ele><time>2026-04-19T10:08:59Z</time></trkpt><trkpt lat="41.129819395995504" lon="15.353169239507235"><ele>549.25</ele><time>2026-04-19T10:09:00Z</time></trkpt><trkpt lat="41.12984643547046" lon="15.353385962108984"><ele>551.5</ele><time>2026-04-19T10:09:01Z</time></trkpt><trkpt lat="41.129865204011146" lon="15.353551242231058"><ele>553.75</ele><time>2026-04-19T10:09:02Z</time></trkpt><trkpt lat="41.12990295456765" lon="15.353745513695875"><ele>556.0</ele><time>2026-04-19T10:09:03Z</time></trkpt><trkpt lat="41.12993410094027" lon="15.353937345497352"><ele>559.4</ele><time>2026-04-19T10:09:04Z</time></trkpt><trkpt lat="41.129955588645444" lon="15.354061510196804"><ele>562.8</ele><time>2026-04-19T10:09:05Z</time></trkpt><trkpt lat="41.12997996723229" lon="15.354180976854803"><ele>566.1999999999999</ele><time>2026-04-19T10:09:06Z</time></trkpt><trkpt lat="41.12999840488408" lon="15.354292912866677"><ele>569.6</ele><time>2026-04-19T10:09:07Z</time></trkpt><trkpt lat="41.130015380593306" lon="15.354422359135405"><ele>573.0</ele><time>2026-04-19T10:09:08Z</time></trkpt><trkpt lat="41.13003374899457" lon="15.354571537443997"><ele>576.0</ele><time>2026-04-19T10:09:09Z</time></trkpt><trkpt lat="41.13005713795313" lon="15.354739229194546"><ele>579.0</ele><time>2026-04-19T10:09:10Z</time></trkpt><trkpt lat="41.13007395946458" lon="15.354876465483297"><ele>582.0</ele><time>2026-04-19T10:09:11Z</time></trkpt><trkpt lat="41.130109799704115" lon="15.354983923789908"><ele>585.0</ele><time>2026-04-19T10:09:13Z</time></trkpt><trkpt lat="41.13016328254662" lon="15.354930991172965"><ele>588.0</ele><time>2026-04-19T10:09:15Z</time></trkpt><trkpt lat="41.13025148552089" lon="15.354908847700074"><ele>588.0</ele><time>2026-04-19T10:09:17Z</time></trkpt><trkpt lat="41.130322941036056" lon="15.354881235712595"><ele>588.0</ele><time>2026-04-19T10:09:18Z</time></trkpt><trkpt lat="41.13044644759762" lon="15.354890880190844"><ele>588.0</ele><time>2026-04-19T10:09:20Z</time></trkpt><trkpt lat="41.130550791047874" lon="15.3548882012071"><ele>588.0</ele><time>2026-04-19T10:09:21Z</time></trkpt><trkpt lat="41.13068638873699" lon="15.354889400684678"><ele>588.0</ele><time>2026-04-19T10:09:22Z</time></trkpt><trkpt lat="41.13083572503718" lon="15.354891254545269"><ele>586.75</ele><time>2026-04-19T10:09:23Z</time></trkpt><trkpt lat="41.13095144474826" lon="15.35484559022263"><ele>585.5</ele><time>2026-04-19T10:09:24Z</time></trkpt><trkpt lat="41.13107722060303" lon="15.354788005554344"><ele>584.25</ele><time>2026-04-19T10:09:25Z</time></trkpt><trkpt lat="41.131184171217875" lon="15.354707554794361"><ele>583.0</ele><time>2026-04-19T10:09:26Z</time></trkpt><trkpt lat="41.131277273091435" lon="15.354588878184023"><ele>583.0</ele><time>2026-04-19T10:09:27Z</time></trkpt><trkpt lat="41.131357397237345" lon="15.354449805178819"><ele>583.0</ele><time>2026-04-19T10:09:28Z</time></trkpt><trkpt lat="41.13141449729442" lon="15.354325462708031"><ele>583.0</ele><time>2026-04-19T10:09:29Z</time></trkpt><trkpt lat="41.13147583805536" lon="15.35418100785343"><ele>583.0</ele><time>2026-04-19T10:09:30Z</time></trkpt><trkpt lat="41.13152346993793" lon="15.354096330714086"><ele>583.0</ele><time>2026-04-19T10:09:31Z</time></trkpt><trkpt lat="41.13162077629954" lon="15.353974704746754"><ele>586.1999999999999</ele><time>2026-04-19T10:09:33Z</time></trkpt><trkpt lat="41.131697543916204" lon="15.353925711504347"><ele>589.4</ele><time>2026-04-19T10:09:34Z</time></trkpt><trkpt lat="41.131760954685184" lon="15.353945623711516"><ele>592.5999999999999</ele><time>2026-04-19T10:09:35Z</time></trkpt><trkpt lat="41.131865589157094" lon="15.353985105839143"><ele>595.8</ele><time>2026-04-19T10:09:36Z</time></trkpt><trkpt lat="41.1320288780562" lon="15.354019845609471"><ele>599.0</ele><time>2026-04-19T10:09:37Z</time></trkpt><trkpt lat="41.13213688826015" lon="15.35401073891075"><ele>599.0</ele><time>2026-04-19T10:09:38Z</time></trkpt><trkpt lat="41.13221900663271" lon="15.354019145552236"><ele>599.0</ele><time>2026-04-19T10:09:39Z</time></trkpt><trkpt lat="41.132298105672064" lon="15.35406400339288"><ele>599.0</ele><time>2026-04-19T10:09:40Z</time></trkpt><trkpt lat="41.13238252845245" lon="15.354148636141357"><ele>599.0</ele><time>2026-04-19T10:09:41Z</time></trkpt><trkpt lat="41.132469522245174" lon="15.354241395862939"><ele>599.0</ele><time>2026-04-19T10:09:42Z</time></trkpt><trkpt lat="41.132571372709485" lon="15.354375524259838"><ele>596.0</ele><time>2026-04-19T10:09:43Z</time></trkpt><trkpt lat="41.13269501719527" lon="15.3544527679488"><ele>593.0</ele><time>2026-04-19T10:09:44Z</time></trkpt><trkpt lat="41.13278228829274" lon="15.354512911647774"><ele>590.0</ele><time>2026-04-19T10:09:45Z</time></trkpt><trkpt lat="41.132878245377285" lon="15.354551582965419"><ele>587.0</ele><time>2026-04-19T10:09:46Z</time></trkpt><trkpt lat="41.132987063065514" lon="15.354537809503105"><ele>584.0</ele><time>2026-04-19T10:09:47Z</time></trkpt><trkpt lat="41.13309221935992" lon="15.354508139781116"><ele>584.0</ele><time>2026-04-19T10:09:48Z</time></trkpt><trkpt lat="41.1331800273979" lon="15.354453462093428"><ele>584.0</ele><time>2026-04-19T10:09:49Z</time></trkpt><trkpt lat="41.13327373229654" lon="15.354392961337696"><ele>584.0</ele><time>2026-04-19T10:09:50Z</time></trkpt><trkpt lat="41.13336951898364" lon="15.354323545137241"><ele>584.0</ele><time>2026-04-19T10:09:51Z</time></trkpt><trkpt lat="41.13345314337433" lon="15.354267725296655"><ele>584.0</ele><time>2026-04-19T10:09:52Z</time></trkpt><trkpt lat="41.13351337169818" lon="15.354216838862367"><ele>581.0</ele><time>2026-04-19T10:09:53Z</time></trkpt><trkpt lat="41.13358275711351" lon="15.354187869473643"><ele>578.0</ele><time>2026-04-19T10:09:54Z</time></trkpt><trkpt lat="41.133654267277336" lon="15.354199514683646"><ele>575.0</ele><time>2026-04-19T10:09:55Z</time></trkpt><trkpt lat="41.13375695404372" lon="15.354242305356914"><ele>572.0</ele><time>2026-04-19T10:09:56Z</time></trkpt><trkpt lat="41.13388276841909" lon="15.354242209626095"><ele>569.0</ele><time>2026-04-19T10:09:57Z</time></trkpt><trkpt lat="41.13397798387337" lon="15.354214911556397"><ele>569.0</ele><time>2026-04-19T10:09:58Z</time></trkpt><trkpt lat="41.13405203464617" lon="15.354194015151068"><ele>569.0</ele><time>2026-04-19T10:09:59Z</time></trkpt><trkpt lat="41.134128912344956" lon="15.354342803716081"><ele>569.0</ele><time>2026-04-19T10:10:00Z</time></trkpt><trkpt lat="41.13419480179234" lon="15.354471598168914"><ele>569.0</ele><time>2026-04-19T10:10:01Z</time></trkpt><trkpt lat="41.13428984960172" lon="15.354657403859946"><ele>570.75</ele><time>2026-04-19T10:10:02Z</time></trkpt><trkpt lat="41.134394301137476" lon="15.354782073273707"><ele>572.5</ele><time>2026-04-19T10:10:03Z</time></trkpt><trkpt lat="41.13448599153149" lon="15.354859449054135"><ele>574.25</ele><time>2026-04-19T10:10:04Z</time></trkpt><trkpt lat="41.1346211439352" lon="15.35493345801276"><ele>576.0</ele><time>2026-04-19T10:10:05Z</time></trkpt><trkpt lat="41.13475706231524" lon="15.35503886626669"><ele>567.5</ele><time>2026-04-19T10:10:06Z</time></trkpt><trkpt lat="41.13489353997237" lon="15.355110244409945"><ele>559.0</ele><time>2026-04-19T10:10:07Z</time></trkpt><trkpt lat="41.134978610788814" lon="15.355197623286754"><ele>550.5</ele><time>2026-04-19T10:10:08Z</time></trkpt><trkpt lat="41.1350754122926" lon="15.355288127503144"><ele>542.0</ele><time>2026-04-19T10:10:09Z</time></trkpt><trkpt lat="41.135185208660126" lon="15.35539160854013"><ele>542.0</ele><time>2026-04-19T10:10:10Z</time></trkpt><trkpt lat="41.13521696159595" lon="15.35548462434029"><ele>542.0</ele><time>2026-04-19T10:10:11Z</time></trkpt><trkpt lat="41.13530869551912" lon="15.355642637202727"><ele>542.0</ele><time>2026-04-19T10:10:12Z</time></trkpt><trkpt lat="41.13538617661309" lon="15.355755402069258"><ele>542.0</ele><time>2026-04-19T10:10:13Z</time></trkpt><trkpt lat="41.135438326518056" lon="15.355869070296988"><ele>542.0</ele><time>2026-04-19T10:10:14Z</time></trkpt><trkpt lat="41.13549110937385" lon="15.356058133458523"><ele>543.4</ele><time>2026-04-19T10:10:15Z</time></trkpt><trkpt lat="41.13558806610463" lon="15.35614492907533"><ele>544.8000000000001</ele><time>2026-04-19T10:10:16Z</time></trkpt><trkpt lat="41.135696629760524" lon="15.35620824368739"><ele>546.2</ele><time>2026-04-19T10:10:17Z</time></trkpt><trkpt lat="41.135776107554115" lon="15.356268565227339"><ele>547.6</ele><time>2026-04-19T10:10:18Z</time></trkpt><trkpt lat="41.13578535227383" lon="15.356422258835657"><ele>549.0</ele><time>2026-04-19T10:10:20Z</time></trkpt><trkpt lat="41.135750942495996" lon="15.35654329040372"><ele>549.0</ele><time>2026-04-19T10:10:21Z</time></trkpt><trkpt lat="41.13575846299004" lon="15.356668193467595"><ele>549.0</ele><time>2026-04-19T10:10:22Z</time></trkpt><trkpt lat="41.13583346509162" lon="15.356735857409285"><ele>549.0</ele><time>2026-04-19T10:10:23Z</time></trkpt><trkpt lat="41.135965311323126" lon="15.356830456700203"><ele>549.0</ele><time>2026-04-19T10:10:24Z</time></trkpt><trkpt lat="41.13611792153016" lon="15.356984471821061"><ele>549.0</ele><time>2026-04-19T10:10:25Z</time></trkpt><trkpt lat="41.136220331316174" lon="15.357112129073268"><ele>549.0</ele><time>2026-04-19T10:10:26Z</time></trkpt><trkpt lat="41.13629294243412" lon="15.357198853394932"><ele>549.0</ele><time>2026-04-19T10:10:27Z</time></trkpt><trkpt lat="41.13632995325384" lon="15.357313288342294"><ele>549.0</ele><time>2026-04-19T10:10:28Z</time></trkpt><trkpt lat="41.13633869778078" lon="15.357448646259911"><ele>549.0</ele><time>2026-04-19T10:10:29Z</time></trkpt><trkpt lat="41.136409120134765" lon="15.357603776706572"><ele>548.5</ele><time>2026-04-19T10:10:30Z</time></trkpt><trkpt lat="41.1364711155905" lon="15.357726659932828"><ele>548.0</ele><time>2026-04-19T10:10:31Z</time></trkpt><trkpt lat="41.13655459080943" lon="15.357859767310048"><ele>547.5</ele><time>2026-04-19T10:10:32Z</time></trkpt><trkpt lat="41.13665837256493" lon="15.35805627631604"><ele>547.0</ele><time>2026-04-19T10:10:33Z</time></trkpt><trkpt lat="41.136722696578275" lon="15.358215165208222"><ele>547.0</ele><time>2026-04-19T10:10:34Z</time></trkpt><trkpt lat="41.13681636250798" lon="15.358373661934362"><ele>547.0</ele><time>2026-04-19T10:10:35Z</time></trkpt><trkpt lat="41.136939812065776" lon="15.358565207015307"><ele>547.0</ele><time>2026-04-19T10:10:36Z</time></trkpt><trkpt lat="41.13700670160966" lon="15.358721460878067"><ele>551.0</ele><time>2026-04-19T10:10:37Z</time></trkpt><trkpt lat="41.13708245540094" lon="15.35890493104542"><ele>555.0</ele><time>2026-04-19T10:10:38Z</time></trkpt><trkpt lat="41.13716908500667" lon="15.359105115400924"><ele>559.0</ele><time>2026-04-19T10:10:39Z</time></trkpt><trkpt lat="41.13721693118021" lon="15.359228078227327"><ele>563.0</ele><time>2026-04-19T10:10:40Z</time></trkpt><trkpt lat="41.137263366547906" lon="15.359319878998008"><ele>563.0</ele><time>2026-04-19T10:10:41Z</time></trkpt><trkpt lat="41.13732898571427" lon="15.359425516787901"><ele>563.0</ele><time>2026-04-19T10:10:42Z</time></trkpt><trkpt lat="41.13739545577736" lon="15.359453421109531"><ele>563.0</ele><time>2026-04-19T10:10:43Z</time></trkpt><trkpt lat="41.1375190169718" lon="15.359540060943555"><ele>563.0</ele><time>2026-04-19T10:10:44Z</time></trkpt><trkpt lat="41.137613406187214" lon="15.359657079229338"><ele>563.0</ele><time>2026-04-19T10:10:45Z</time></trkpt><trkpt lat="41.137674937891674" lon="15.359784176332637"><ele>557.0</ele><time>2026-04-19T10:10:46Z</time></trkpt><trkpt lat="41.13771776237852" lon="15.359913334127324"><ele>551.0</ele><time>2026-04-19T10:10:47Z</time></trkpt><trkpt lat="41.137762799645266" lon="15.360076435105816"><ele>545.0</ele><time>2026-04-19T10:10:48Z</time></trkpt><trkpt lat="41.13781157189424" lon="15.360255377740799"><ele>539.0</ele><time>2026-04-19T10:10:49Z</time></trkpt><trkpt lat="41.13788437045389" lon="15.360363573283092"><ele>539.0</ele><time>2026-04-19T10:10:50Z</time></trkpt><trkpt lat="41.13798134417114" lon="15.360455949499537"><ele>539.0</ele><time>2026-04-19T10:10:51Z</time></trkpt><trkpt lat="41.13805857164684" lon="15.36056689197622"><ele>539.0</ele><time>2026-04-19T10:10:52Z</time></trkpt><trkpt lat="41.13818625929549" lon="15.360649354054946"><ele>539.0</ele><time>2026-04-19T10:10:53Z</time></trkpt><trkpt lat="41.13828605433204" lon="15.360739439360334"><ele>535.5</ele><time>2026-04-19T10:10:54Z</time></trkpt><trkpt lat="41.13833325493789" lon="15.360813264873881"><ele>532.0</ele><time>2026-04-19T10:10:55Z</time></trkpt><trkpt lat="41.13829615971901" lon="15.360943387556778"><ele>528.5</ele><time>2026-04-19T10:10:56Z</time></trkpt><trkpt lat="41.13833091848738" lon="15.361166152781484"><ele>525.0</ele><time>2026-04-19T10:10:57Z</time></trkpt><trkpt lat="41.13838594024233" lon="15.361410950527352"><ele>525.0</ele><time>2026-04-19T10:10:58Z</time></trkpt><trkpt lat="41.13845292825166" lon="15.361614021741438"><ele>525.0</ele><time>2026-04-19T10:10:59Z</time></trkpt><trkpt lat="41.13850305340101" lon="15.36173893156018"><ele>525.0</ele><time>2026-04-19T10:11:00Z</time></trkpt><trkpt lat="41.13856601626924" lon="15.361860132327442"><ele>525.0</ele><time>2026-04-19T10:11:01Z</time></trkpt><trkpt lat="41.1386477145712" lon="15.361964903297839"><ele>525.0</ele><time>2026-04-19T10:11:02Z</time></trkpt><trkpt lat="41.138762754546725" lon="15.362097391060601"><ele>525.0</ele><time>2026-04-19T10:11:04Z</time></trkpt><trkpt lat="41.1388936232772" lon="15.362201443220973"><ele>525.0</ele><time>2026-04-19T10:11:05Z</time></trkpt><trkpt lat="41.138974998843054" lon="15.362248820682284"><ele>525.0</ele><time>2026-04-19T10:11:06Z</time></trkpt><trkpt lat="41.139080188205874" lon="15.36229465265691"><ele>519.0</ele><time>2026-04-19T10:11:07Z</time></trkpt><trkpt lat="41.13919512673182" lon="15.362321411831765"><ele>513.0</ele><time>2026-04-19T10:11:08Z</time></trkpt><trkpt lat="41.13932095382779" lon="15.362336643188467"><ele>507.0</ele><time>2026-04-19T10:11:09Z</time></trkpt><trkpt lat="41.139418321190504" lon="15.362335002195252"><ele>501.0</ele><time>2026-04-19T10:11:10Z</time></trkpt><trkpt lat="41.13952976433826" lon="15.362313349856093"><ele>501.0</ele><time>2026-04-19T10:11:11Z</time></trkpt><trkpt lat="41.13965128224203" lon="15.36227955486265"><ele>501.0</ele><time>2026-04-19T10:11:12Z</time></trkpt><trkpt lat="41.1397545892302" lon="15.362246784843276"><ele>501.0</ele><time>2026-04-19T10:11:13Z</time></trkpt><trkpt lat="41.13982800541476" lon="15.362213246029595"><ele>501.0</ele><time>2026-04-19T10:11:14Z</time></trkpt><trkpt lat="41.13992183397427" lon="15.362175882927085"><ele>501.0</ele><time>2026-04-19T10:11:15Z</time></trkpt><trkpt lat="41.14000934170844" lon="15.362132448598842"><ele>498.6666666666667</ele><time>2026-04-19T10:11:16Z</time></trkpt><trkpt lat="41.14008921922545" lon="15.362138698761601"><ele>496.33333333333337</ele><time>2026-04-19T10:11:17Z</time></trkpt><trkpt lat="41.14015417827192" lon="15.362137232666239"><ele>494.0</ele><time>2026-04-19T10:11:18Z</time></trkpt><trkpt lat="41.14022241166845" lon="15.362141981570224"><ele>491.6666666666667</ele><time>2026-04-19T10:11:19Z</time></trkpt><trkpt lat="41.14034072068379" lon="15.362177888579124"><ele>489.33333333333337</ele><time>2026-04-19T10:11:21Z</time></trkpt><trkpt lat="41.14040610313507" lon="15.362222967246199"><ele>487.0</ele><time>2026-04-19T10:11:22Z</time></trkpt><trkpt lat="41.14046233213426" lon="15.362286837065183"><ele>487.00000000000006</ele><time>2026-04-19T10:11:23Z</time></trkpt><trkpt lat="41.14050595303617" lon="15.362352385570928"><ele>487.0</ele><time>2026-04-19T10:11:24Z</time></trkpt><trkpt lat="41.140543581495386" lon="15.36242334432564"><ele>487.0</ele><time>2026-04-19T10:11:28Z</time></trkpt><trkpt lat="41.14059835216909" lon="15.362525781495872"><ele>487.0</ele><time>2026-04-19T10:11:32Z</time></trkpt><trkpt lat="41.14065927082092" lon="15.36261462288579"><ele>487.00000000000006</ele><time>2026-04-19T10:11:34Z</time></trkpt><trkpt lat="41.140690011368065" lon="15.362731231488935"><ele>487.0</ele><time>2026-04-19T10:11:36Z</time></trkpt><trkpt lat="41.1407254542028" lon="15.362814922800464"><ele>485.0</ele><time>2026-04-19T10:11:37Z</time></trkpt><trkpt lat="41.140779129093175" lon="15.362922136294774"><ele>483.00000000000006</ele><time>2026-04-19T10:11:38Z</time></trkpt><trkpt lat="41.14083968067055" lon="15.363041973590548"><ele>481.00000000000006</ele><time>2026-04-19T10:11:39Z</time></trkpt><trkpt lat="41.140893601739016" lon="15.363140674418675"><ele>479.0</ele><time>2026-04-19T10:11:40Z</time></trkpt><trkpt lat="41.1409486001946" lon="15.363231875921707"><ele>477.0</ele><time>2026-04-19T10:11:41Z</time></trkpt><trkpt lat="41.141017528708424" lon="15.363310612569117"><ele>477.0</ele><time>2026-04-19T10:11:42Z</time></trkpt><trkpt lat="41.14107394437727" lon="15.363415011572037"><ele>477.0</ele><time>2026-04-19T10:11:43Z</time></trkpt><trkpt lat="41.14112023169918" lon="15.363514994727447"><ele>477.0</ele><time>2026-04-19T10:11:44Z</time></trkpt><trkpt lat="41.141161215764804" lon="15.363595578793316"><ele>477.0</ele><time>2026-04-19T10:11:45Z</time></trkpt><trkpt lat="41.141176129864995" lon="15.363689754956338"><ele>477.0</ele><time>2026-04-19T10:11:46Z</time></trkpt><trkpt lat="41.14116634305132" lon="15.363782977005297"><ele>477.0</ele><time>2026-04-19T10:11:47Z</time></trkpt><trkpt lat="41.14104883565655" lon="15.363885471328144"><ele>476.6</ele><time>2026-04-19T10:11:49Z</time></trkpt><trkpt lat="41.140989679555915" lon="15.363988516391103"><ele>476.20000000000005</ele><time>2026-04-19T10:11:50Z</time></trkpt><trkpt lat="41.14096228711361" lon="15.364099187630151"><ele>475.8</ele><time>2026-04-19T10:11:51Z</time></trkpt><trkpt lat="41.14097943169392" lon="15.36423737397875"><ele>475.4</ele><time>2026-04-19T10:11:52Z</time></trkpt><trkpt lat="41.14099920606967" lon="15.364392016099144"><ele>475.0</ele><time>2026-04-19T10:11:53Z</time></trkpt><trkpt lat="41.14103469598084" lon="15.364507949548171"><ele>475.0</ele><time>2026-04-19T10:11:54Z</time></trkpt><trkpt lat="41.141073369052805" lon="15.364617832517066"><ele>475.0</ele><time>2026-04-19T10:11:55Z</time></trkpt><trkpt lat="41.1411140879401" lon="15.364753094193413"><ele>475.0</ele><time>2026-04-19T10:11:56Z</time></trkpt><trkpt lat="41.14115038042093" lon="15.364893477854215"><ele>475.0</ele><time>2026-04-19T10:11:57Z</time></trkpt><trkpt lat="41.14118294014149" lon="15.365032868307464"><ele>475.0</ele><time>2026-04-19T10:11:58Z</time></trkpt><trkpt lat="41.141197126799035" lon="15.365150480444383"><ele>473.8</ele><time>2026-04-19T10:11:59Z</time></trkpt><trkpt lat="41.141170439323005" lon="15.365236049841851"><ele>472.6</ele><time>2026-04-19T10:12:00Z</time></trkpt><trkpt lat="41.14112611923524" lon="15.36531281121197"><ele>471.4</ele><time>2026-04-19T10:12:01Z</time></trkpt><trkpt lat="41.141047510118" lon="15.365382392567009"><ele>470.2</ele><time>2026-04-19T10:12:02Z</time></trkpt><trkpt lat="41.14093515191931" lon="15.365480362441794"><ele>469.0</ele><time>2026-04-19T10:12:03Z</time></trkpt><trkpt lat="41.14082666239118" lon="15.365578547541677"><ele>468.6</ele><time>2026-04-19T10:12:04Z</time></trkpt><trkpt lat="41.140748796690914" lon="15.365652254741372"><ele>468.2</ele><time>2026-04-19T10:12:05Z</time></trkpt><trkpt lat="41.140672651182186" lon="15.365742607580955"><ele>467.80000000000007</ele><time>2026-04-19T10:12:07Z</time></trkpt><trkpt lat="41.14058818761268" lon="15.365805692437835"><ele>467.40000000000003</ele><time>2026-04-19T10:12:10Z</time></trkpt><trkpt lat="41.14044579798302" lon="15.365821591869997"><ele>467.0</ele><time>2026-04-19T10:12:12Z</time></trkpt><trkpt lat="41.14037150582161" lon="15.365916328694201"><ele>469.40000000000003</ele><time>2026-04-19T10:12:13Z</time></trkpt><trkpt lat="41.14029009910087" lon="15.366007882110102"><ele>471.80000000000007</ele><time>2026-04-19T10:12:14Z</time></trkpt><trkpt lat="41.140220068057786" lon="15.36605906928332"><ele>474.2</ele><time>2026-04-19T10:12:15Z</time></trkpt><trkpt lat="41.14008909882711" lon="15.36605318762805"><ele>476.6</ele><time>2026-04-19T10:12:17Z</time></trkpt><trkpt lat="41.13999673221286" lon="15.36603049685859"><ele>479.0</ele><time>2026-04-19T10:12:18Z</time></trkpt><trkpt lat="41.139901724883835" lon="15.366037563604136"><ele>483.2</ele><time>2026-04-19T10:12:19Z</time></trkpt><trkpt lat="41.139814187506225" lon="15.366055011620068"><ele>487.4</ele><time>2026-04-19T10:12:20Z</time></trkpt><trkpt lat="41.13971347493152" lon="15.366066061700263"><ele>491.6</ele><time>2026-04-19T10:12:21Z</time></trkpt><trkpt lat="41.13961649470194" lon="15.366036337458675"><ele>495.8</ele><time>2026-04-19T10:12:22Z</time></trkpt><trkpt lat="41.139536570996384" lon="15.366074184562203"><ele>500.0</ele><time>2026-04-19T10:12:23Z</time></trkpt><trkpt lat="41.139456419677046" lon="15.36604906651185"><ele>499.99999999999994</ele><time>2026-04-19T10:12:24Z</time></trkpt><trkpt lat="41.13939018522584" lon="15.365992937434942"><ele>500.0</ele><time>2026-04-19T10:12:25Z</time></trkpt><trkpt lat="41.13930678405421" lon="15.365937776906225"><ele>500.0</ele><time>2026-04-19T10:12:26Z</time></trkpt><trkpt lat="41.13922629483659" lon="15.365891592456535"><ele>500.0</ele><time>2026-04-19T10:12:27Z</time></trkpt><trkpt lat="41.13916121173653" lon="15.36587702671691"><ele>499.99999999999994</ele><time>2026-04-19T10:12:28Z</time></trkpt><trkpt lat="41.13908418851148" lon="15.365889659239862"><ele>500.0</ele><time>2026-04-19T10:12:29Z</time></trkpt><trkpt lat="41.13899551189582" lon="15.365915000154569"><ele>504.49999999999994</ele><time>2026-04-19T10:12:30Z</time></trkpt><trkpt lat="41.13889644596752" lon="15.365911199001964"><ele>509.0</ele><time>2026-04-19T10:12:31Z</time></trkpt><trkpt lat="41.1388265807439" lon="15.365885527275983"><ele>513.5</ele><time>2026-04-19T10:12:32Z</time></trkpt><trkpt lat="41.13874513034448" lon="15.365833900976071"><ele>518.0</ele><time>2026-04-19T10:12:34Z</time></trkpt><trkpt lat="41.13865466826995" lon="15.365786627206841"><ele>522.5</ele><time>2026-04-19T10:12:35Z</time></trkpt><trkpt lat="41.13860126921812" lon="15.36573998330172"><ele>527.0</ele><time>2026-04-19T10:12:36Z</time></trkpt><trkpt lat="41.13849106268533" lon="15.365733090479516"><ele>527.0</ele><time>2026-04-19T10:12:38Z</time></trkpt><trkpt lat="41.13845662640638" lon="15.36566193833617"><ele>527.0</ele><time>2026-04-19T10:12:39Z</time></trkpt><trkpt lat="41.13840096506706" lon="15.365598198530176"><ele>527.0</ele><time>2026-04-19T10:12:40Z</time></trkpt><trkpt lat="41.138317895927" lon="15.365604115566018"><ele>527.0</ele><time>2026-04-19T10:12:41Z</time></trkpt><trkpt lat="41.13821301396373" lon="15.365646703567736"><ele>527.0</ele><time>2026-04-19T10:12:43Z</time></trkpt><trkpt lat="41.13817065260498" lon="15.36572094410936"><ele>527.0</ele><time>2026-04-19T10:12:44Z</time></trkpt><trkpt lat="41.13811498453456" lon="15.365809293527457"><ele>534.0</ele><time>2026-04-19T10:12:45Z</time></trkpt><trkpt lat="41.13807544997807" lon="15.365919509143113"><ele>541.0</ele><time>2026-04-19T10:12:46Z</time></trkpt><trkpt lat="41.1380503384857" lon="15.366049427372493"><ele>548.0</ele><time>2026-04-19T10:12:47Z</time></trkpt><trkpt lat="41.13801540186983" lon="15.366151648038494"><ele>555.0</ele><time>2026-04-19T10:12:48Z</time></trkpt><trkpt lat="41.13800001654706" lon="15.36625985056147"><ele>562.0</ele><time>2026-04-19T10:12:49Z</time></trkpt><trkpt lat="41.138032277751286" lon="15.366412278264015"><ele>564.4</ele><time>2026-04-19T10:12:51Z</time></trkpt><trkpt lat="41.13802738668217" lon="15.36651204830199"><ele>566.8000000000001</ele><time>2026-04-19T10:12:52Z</time></trkpt><trkpt lat="41.13801882286383" lon="15.36665572839799"><ele>569.2</ele><time>2026-04-19T10:12:53Z</time></trkpt><trkpt lat="41.1380234712018" lon="15.366826592749876"><ele>571.6</ele><time>2026-04-19T10:12:54Z</time></trkpt><trkpt lat="41.13806012584598" lon="15.366993880507287"><ele>574.0</ele><time>2026-04-19T10:12:55Z</time></trkpt><trkpt lat="41.138071131389154" lon="15.367142729446398"><ele>576.25</ele><time>2026-04-19T10:12:56Z</time></trkpt><trkpt lat="41.138112165882546" lon="15.367278217126149"><ele>578.5</ele><time>2026-04-19T10:12:57Z</time></trkpt><trkpt lat="41.13818797467733" lon="15.367457982158854"><ele>580.75</ele><time>2026-04-19T10:12:58Z</time></trkpt><trkpt lat="41.13824797293438" lon="15.367629364135773"><ele>583.0</ele><time>2026-04-19T10:12:59Z</time></trkpt><trkpt lat="41.138353892660746" lon="15.367764930277161"><ele>580.0</ele><time>2026-04-19T10:13:00Z</time></trkpt><trkpt lat="41.13841272668402" lon="15.367872875501392"><ele>577.0</ele><time>2026-04-19T10:13:01Z</time></trkpt><trkpt lat="41.13847453182511" lon="15.368000270929095"><ele>574.0</ele><time>2026-04-19T10:13:02Z</time></trkpt><trkpt lat="41.138520756199405" lon="15.368092839248952"><ele>571.0</ele><time>2026-04-19T10:13:03Z</time></trkpt><trkpt lat="41.13855443785959" lon="15.36818103978435"><ele>568.0</ele><time>2026-04-19T10:13:04Z</time></trkpt><trkpt lat="41.13857417618874" lon="15.368277026846192"><ele>565.0</ele><time>2026-04-19T10:13:08Z</time></trkpt><trkpt lat="41.13848167858695" lon="15.368281565021844"><ele>565.0</ele><time>2026-04-19T10:13:12Z</time></trkpt><trkpt lat="41.13840789361289" lon="15.368248995520082"><ele>565.0</ele><time>2026-04-19T10:13:13Z</time></trkpt><trkpt lat="41.138296877228214" lon="15.368217664599076"><ele>565.0</ele><time>2026-04-19T10:13:14Z</time></trkpt><trkpt lat="41.13815396711306" lon="15.368194768338785"><ele>565.0</ele><time>2026-04-19T10:13:15Z</time></trkpt><trkpt lat="41.13804259457952" lon="15.368197469254964"><ele>565.0</ele><time>2026-04-19T10:13:16Z</time></trkpt><trkpt lat="41.137951685907645" lon="15.368220915693408"><ele>565.6666666666667</ele><time>2026-04-19T10:13:17Z</time></trkpt><trkpt lat="41.13788417658569" lon="15.368259558874623"><ele>566.3333333333334</ele><time>2026-04-19T10:13:18Z</time></trkpt><trkpt lat="41.1378359593069" lon="15.368332753792101"><ele>567.0</ele><time>2026-04-19T10:13:20Z</time></trkpt><trkpt lat="41.13795074179762" lon="15.368382472312385"><ele>567.6666666666666</ele><time>2026-04-19T10:13:22Z</time></trkpt><trkpt lat="41.13801968597302" lon="15.368412203090907"><ele>568.3333333333333</ele><time>2026-04-19T10:13:23Z</time></trkpt><trkpt lat="41.13806938994125" lon="15.368468178040027"><ele>569.0</ele><time>2026-04-19T10:13:24Z</time></trkpt><trkpt lat="41.13812282069735" lon="15.368560760002362"><ele>569.0</ele><time>2026-04-19T10:13:25Z</time></trkpt><trkpt lat="41.138194503301236" lon="15.368697548718382"><ele>569.0</ele><time>2026-04-19T10:13:26Z</time></trkpt><trkpt lat="41.13825563970793" lon="15.368810267364974"><ele>569.0</ele><time>2026-04-19T10:13:27Z</time></trkpt><trkpt lat="41.13831942328316" lon="15.36888266933345"><ele>569.0</ele><time>2026-04-19T10:13:28Z</time></trkpt><trkpt lat="41.13839019955093" lon="15.368957200116775"><ele>569.0</ele><time>2026-04-19T10:13:29Z</time></trkpt><trkpt lat="41.13846219192806" lon="15.369012602569619"><ele>565.0</ele><time>2026-04-19T10:13:30Z</time></trkpt><trkpt lat="41.138519384171126" lon="15.369066686347852"><ele>561.0</ele><time>2026-04-19T10:13:31Z</time></trkpt><trkpt lat="41.13845197531104" lon="15.369119053421862"><ele>557.0</ele><time>2026-04-19T10:13:35Z</time></trkpt><trkpt lat="41.13834449628634" lon="15.369129763844976"><ele>553.0</ele><time>2026-04-19T10:13:37Z</time></trkpt><trkpt lat="41.138363907622875" lon="15.36923089474323"><ele>549.0</ele><time>2026-04-19T10:13:40Z</time></trkpt><trkpt lat="41.138468667025776" lon="15.369287422950356"><ele>545.0</ele><time>2026-04-19T10:13:43Z</time></trkpt><trkpt lat="41.13853942702641" lon="15.369352054654318"><ele>545.0</ele><time>2026-04-19T10:13:44Z</time></trkpt><trkpt lat="41.13860849499695" lon="15.369441584598004"><ele>545.0</ele><time>2026-04-19T10:13:45Z</time></trkpt><trkpt lat="41.13869058850525" lon="15.369543904087204"><ele>545.0</ele><time>2026-04-19T10:13:46Z</time></trkpt><trkpt lat="41.13876041552723" lon="15.369620524651346"><ele>545.0</ele><time>2026-04-19T10:13:47Z</time></trkpt><trkpt lat="41.13882382018663" lon="15.36970692997284"><ele>545.0</ele><time>2026-04-19T10:13:48Z</time></trkpt><trkpt lat="41.13888122242293" lon="15.369787306513977"><ele>541.1666666666666</ele><time>2026-04-19T10:13:49Z</time></trkpt><trkpt lat="41.138930566976434" lon="15.369890052424942"><ele>537.3333333333333</ele><time>2026-04-19T10:13:50Z</time></trkpt><trkpt lat="41.13896183107655" lon="15.36997428126804"><ele>533.5</ele><time>2026-04-19T10:13:51Z</time></trkpt><trkpt lat="41.13900587010055" lon="15.37005533202448"><ele>529.6666666666666</ele><time>2026-04-19T10:13:52Z</time></trkpt><trkpt lat="41.13905484726442" lon="15.370129642248251"><ele>525.8333333333334</ele><time>2026-04-19T10:13:53Z</time></trkpt><trkpt lat="41.139107764749234" lon="15.370198792701594"><ele>522.0</ele><time>2026-04-19T10:13:54Z</time></trkpt><trkpt lat="41.13917081558396" lon="15.370271676890534"><ele>522.0</ele><time>2026-04-19T10:13:55Z</time></trkpt><trkpt lat="41.13922825539393" lon="15.370335942552533"><ele>522.0</ele><time>2026-04-19T10:13:56Z</time></trkpt><trkpt lat="41.139299211151496" lon="15.37037838266116"><ele>522.0</ele><time>2026-04-19T10:13:57Z</time></trkpt><trkpt lat="41.13938057754644" lon="15.37040154471656"><ele>522.0</ele><time>2026-04-19T10:13:58Z</time></trkpt><trkpt lat="41.13946574130321" lon="15.370431943456605"><ele>522.0</ele><time>2026-04-19T10:13:59Z</time></trkpt><trkpt lat="41.13954221984935" lon="15.370486137662605"><ele>522.0</ele><time>2026-04-19T10:14:00Z</time></trkpt><trkpt lat="41.139600194024524" lon="15.370541716158742"><ele>517.4</ele><time>2026-04-19T10:14:01Z</time></trkpt><trkpt lat="41.13968831936002" lon="15.370622934034065"><ele>512.8000000000001</ele><time>2026-04-19T10:14:03Z</time></trkpt><trkpt lat="41.13979272585385" lon="15.370688222961832"><ele>508.2</ele><time>2026-04-19T10:14:05Z</time></trkpt><trkpt lat="41.139893555025594" lon="15.370776418178131"><ele>503.6</ele><time>2026-04-19T10:14:07Z</time></trkpt><trkpt lat="41.13994442338673" lon="15.370893432298576"><ele>499.0</ele><time>2026-04-19T10:14:09Z</time></trkpt><trkpt lat="41.139956912484685" lon="15.370985849585972"><ele>499.00000000000006</ele><time>2026-04-19T10:14:11Z</time></trkpt><trkpt lat="41.13989744335239" lon="15.370952083134886"><ele>499.0</ele><time>2026-04-19T10:14:13Z</time></trkpt><trkpt lat="41.13981435709369" lon="15.370845928027215"><ele>499.0</ele><time>2026-04-19T10:14:15Z</time></trkpt><trkpt lat="41.13975112997306" lon="15.370842077165772"><ele>499.0</ele><time>2026-04-19T10:14:16Z</time></trkpt><trkpt lat="41.139690248058365" lon="15.370883678814044"><ele>499.00000000000006</ele><time>2026-04-19T10:14:17Z</time></trkpt><trkpt lat="41.139648193840905" lon="15.370950689266792"><ele>499.0</ele><time>2026-04-19T10:14:18Z</time></trkpt><trkpt lat="41.13958691296497" lon="15.371019618023341"><ele>499.00000000000006</ele><time>2026-04-19T10:14:20Z</time></trkpt><trkpt lat="41.13953832001309" lon="15.371091735763759"><ele>499.0</ele><time>2026-04-19T10:14:22.001Z</time></trkpt><trkpt lat="41.13947966370741" lon="15.371181372675498"><ele>499.0</ele><time>2026-04-19T10:14:24.001Z</time></trkpt><trkpt lat="41.13944386059317" lon="15.371281250272078"><ele>499.0</ele><time>2026-04-19T10:14:26Z</time></trkpt><trkpt lat="41.13940698800873" lon="15.371396058675568"><ele>499.00000000000006</ele><time>2026-04-19T10:14:30Z</time></trkpt><trkpt lat="41.13931580089852" lon="15.371470999990258"><ele>499.0</ele><time>2026-04-19T10:14:34Z</time></trkpt><trkpt lat="41.13923369681709" lon="15.37148502264177"><ele>499.28571428571433</ele><time>2026-04-19T10:14:42Z</time></trkpt><trkpt lat="41.13916833456572" lon="15.37152020296425"><ele>499.57142857142856</ele><time>2026-04-19T10:14:45Z</time></trkpt><trkpt lat="41.139096990734814" lon="15.371557566544308"><ele>499.8571428571429</ele><time>2026-04-19T10:14:48Z</time></trkpt><trkpt lat="41.139039775513126" lon="15.371596231095667"><ele>500.14285714285717</ele><time>2026-04-19T10:15:24Z</time></trkpt><trkpt lat="41.13897774662292" lon="15.371626368046401"><ele>500.42857142857144</ele><time>2026-04-19T10:15:46Z</time></trkpt><trkpt lat="41.13891312030265" lon="15.37165821407259"><ele>500.7142857142857</ele><time>2026-04-19T10:15:55Z</time></trkpt><trkpt lat="41.13885440574319" lon="15.371692213501618"><ele>501.0</ele><time>2026-04-19T10:16:00Z</time></trkpt><trkpt lat="41.13878983704779" lon="15.371745967490085"><ele>501.0</ele><time>2026-04-19T10:16:05Z</time></trkpt><trkpt lat="41.13872343767928" lon="15.371798861204445"><ele>501.0</ele><time>2026-04-19T10:16:09Z</time></trkpt><trkpt lat="41.13865699160028" lon="15.371850864926879"><ele>501.0</ele><time>2026-04-19T10:16:12Z</time></trkpt><trkpt lat="41.138641228944515" lon="15.371936013746915"><ele>501.0</ele><time>2026-04-19T10:16:14Z</time></trkpt><trkpt lat="41.13857303456481" lon="15.372013721130328"><ele>501.0</ele><time>2026-04-19T10:16:16Z</time></trkpt><trkpt lat="41.13848187807224" lon="15.372079034082661"><ele>501.0</ele><time>2026-04-19T10:16:18Z</time></trkpt><trkpt lat="41.138524935808256" lon="15.372157003261089"><ele>502.6</ele><time>2026-04-19T10:16:21Z</time></trkpt><trkpt lat="41.138620973789" lon="15.372302747959774"><ele>504.20000000000005</ele><time>2026-04-19T10:16:23Z</time></trkpt><trkpt lat="41.13864813584906" lon="15.372398849469299"><ele>505.79999999999995</ele><time>2026-04-19T10:16:24Z</time></trkpt><trkpt lat="41.138673908981616" lon="15.372488062728713"><ele>507.4</ele><time>2026-04-19T10:16:25Z</time></trkpt><trkpt lat="41.13875716286402" lon="15.372581289411228"><ele>509.0</ele><time>2026-04-19T10:16:27Z</time></trkpt><trkpt lat="41.138804486533" lon="15.372636422114123"><ele>508.99999999999994</ele><time>2026-04-19T10:16:28Z</time></trkpt><trkpt lat="41.13884911375823" lon="15.372704972408432"><ele>509.0</ele><time>2026-04-19T10:16:29Z</time></trkpt><trkpt lat="41.1388415944301" lon="15.372822622141586"><ele>509.0</ele><time>2026-04-19T10:16:31Z</time></trkpt><trkpt lat="41.138907305057636" lon="15.37293843107164"><ele>509.0</ele><time>2026-04-19T10:16:33Z</time></trkpt><trkpt lat="41.13892048069271" lon="15.373047246030183"><ele>508.99999999999994</ele><time>2026-04-19T10:16:35Z</time></trkpt><trkpt lat="41.138911775982585" lon="15.373175063872969"><ele>509.0</ele><time>2026-04-19T10:16:37Z</time></trkpt><trkpt lat="41.138837053298296" lon="15.373277767056498"><ele>509.49999999999994</ele><time>2026-04-19T10:16:39Z</time></trkpt><trkpt lat="41.1387818169645" lon="15.373373851007523"><ele>510.0</ele><time>2026-04-19T10:16:40Z</time></trkpt><trkpt lat="41.13877170775098" lon="15.373473291188537"><ele>510.5</ele><time>2026-04-19T10:16:41Z</time></trkpt><trkpt lat="41.13880032642116" lon="15.373562287330303"><ele>511.0</ele><time>2026-04-19T10:16:42Z</time></trkpt><trkpt lat="41.138785349579905" lon="15.373661611513432"><ele>511.49999999999994</ele><time>2026-04-19T10:16:44Z</time></trkpt><trkpt lat="41.13875057990923" lon="15.373800854867053"><ele>512.0</ele><time>2026-04-19T10:16:46Z</time></trkpt><trkpt lat="41.13864840010194" lon="15.373895757605293"><ele>511.99999999999994</ele><time>2026-04-19T10:16:48Z</time></trkpt><trkpt lat="41.13859403993389" lon="15.373940010811674"><ele>512.0</ele><time>2026-04-19T10:16:49Z</time></trkpt><trkpt lat="41.13855355066003" lon="15.374076227766746"><ele>512.0</ele><time>2026-04-19T10:16:51Z</time></trkpt><trkpt lat="41.1384557980745" lon="15.37410153873835"><ele>512.0</ele><time>2026-04-19T10:16:53Z</time></trkpt><trkpt lat="41.138427720681825" lon="15.374178518870231"><ele>511.99999999999994</ele><time>2026-04-19T10:16:55Z</time></trkpt><trkpt lat="41.138349570322845" lon="15.374205411082809"><ele>512.0</ele><time>2026-04-19T10:16:58Z</time></trkpt><trkpt lat="41.138249870786986" lon="15.374192564637386"><ele>516.1666666666666</ele><time>2026-04-19T10:17:00Z</time></trkpt><trkpt lat="41.1381920457144" lon="15.374152570940831"><ele>520.3333333333333</ele><time>2026-04-19T10:17:02Z</time></trkpt><trkpt lat="41.13810082527549" lon="15.374148241918252"><ele>524.5</ele><time>2026-04-19T10:17:04Z</time></trkpt><trkpt lat="41.13802143145378" lon="15.374169567276784"><ele>528.6666666666666</ele><time>2026-04-19T10:17:05Z</time></trkpt><trkpt lat="41.13792030595413" lon="15.374146221090705"><ele>532.8333333333334</ele><time>2026-04-19T10:17:07Z</time></trkpt><trkpt lat="41.13784140939035" lon="15.374137630274156"><ele>537.0</ele><time>2026-04-19T10:17:09Z</time></trkpt><trkpt lat="41.13778536487404" lon="15.37408989100394"><ele>537.0</ele><time>2026-04-19T10:17:11Z</time></trkpt><trkpt lat="41.13773741632534" lon="15.374034650999484"><ele>537.0</ele><time>2026-04-19T10:17:13Z</time></trkpt><trkpt lat="41.13764159815121" lon="15.373898357106482"><ele>537.0</ele><time>2026-04-19T10:17:15Z</time></trkpt><trkpt lat="41.13758261616313" lon="15.373848943851392"><ele>537.0</ele><time>2026-04-19T10:17:17Z</time></trkpt><trkpt lat="41.13753291108536" lon="15.373764439340968"><ele>537.0</ele><time>2026-04-19T10:17:20Z</time></trkpt><trkpt lat="41.13749486065476" lon="15.373697550734017"><ele>537.0</ele><time>2026-04-19T10:17:22Z</time></trkpt><trkpt lat="41.13746465417069" lon="15.373603076634465"><ele>536.4</ele><time>2026-04-19T10:17:38Z</time></trkpt><trkpt lat="41.137430086549195" lon="15.37352631930144"><ele>535.8000000000001</ele><time>2026-04-19T10:17:41Z</time></trkpt><trkpt lat="41.13734485554423" lon="15.373521751831209"><ele>535.2</ele><time>2026-04-19T10:17:44Z</time></trkpt><trkpt lat="41.13722443140934" lon="15.373496923453475"><ele>534.6</ele><time>2026-04-19T10:17:46Z</time></trkpt><trkpt lat="41.13712726523533" lon="15.373483589541017"><ele>534.0</ele><time>2026-04-19T10:17:48Z</time></trkpt><trkpt lat="41.13701248584611" lon="15.373488686340481"><ele>538.1666666666666</ele><time>2026-04-19T10:17:50Z</time></trkpt><trkpt lat="41.13692137490236" lon="15.373464736520214"><ele>542.3333333333334</ele><time>2026-04-19T10:17:52Z</time></trkpt><trkpt lat="41.13689233747772" lon="15.373380128437105"><ele>546.5</ele><time>2026-04-19T10:17:54Z</time></trkpt><trkpt lat="41.13680302534003" lon="15.37341920499942"><ele>550.6666666666667</ele><time>2026-04-19T10:17:57Z</time></trkpt><trkpt lat="41.136765364118304" lon="15.373494692152008"><ele>554.8333333333334</ele><time>2026-04-19T10:17:58Z</time></trkpt><trkpt lat="41.136792467308474" lon="15.373587622513845"><ele>559.0</ele><time>2026-04-19T10:18:00Z</time></trkpt><trkpt lat="41.13686688192593" lon="15.37368341899887"><ele>559.0</ele><time>2026-04-19T10:18:02Z</time></trkpt><trkpt lat="41.136909732940474" lon="15.373767016547056"><ele>559.0</ele><time>2026-04-19T10:18:03Z</time></trkpt><trkpt lat="41.136947229004235" lon="15.373853430054046"><ele>559.0</ele><time>2026-04-19T10:18:04Z</time></trkpt><trkpt lat="41.13701583197447" lon="15.373918146010732"><ele>559.0</ele><time>2026-04-19T10:18:06Z</time></trkpt><trkpt lat="41.13700987741983" lon="15.374071439189544"><ele>559.0</ele><time>2026-04-19T10:18:08Z</time></trkpt><trkpt lat="41.13699399455572" lon="15.374186849370608"><ele>559.0</ele><time>2026-04-19T10:18:09Z</time></trkpt><trkpt lat="41.13697065522269" lon="15.3743087826749"><ele>559.4285714285714</ele><time>2026-04-19T10:18:10Z</time></trkpt><trkpt lat="41.137033343930106" lon="15.37433931508208"><ele>559.8571428571429</ele><time>2026-04-19T10:18:45Z</time></trkpt><trkpt lat="41.137098728440925" lon="15.37440127688713"><ele>560.2857142857143</ele><time>2026-04-19T10:18:48Z</time></trkpt><trkpt lat="41.13712757959569" lon="15.37447918292645"><ele>560.7142857142858</ele><time>2026-04-19T10:18:50Z</time></trkpt><trkpt lat="41.13718283512937" lon="15.374578341909643"><ele>561.1428571428571</ele><time>2026-04-19T10:18:53Z</time></trkpt><trkpt lat="41.1372343868274" lon="15.374633799293175"><ele>561.5714285714287</ele><time>2026-04-19T10:18:55Z</time></trkpt><trkpt lat="41.137234568747026" lon="15.374730453067427"><ele>562.0</ele><time>2026-04-19T10:19:00Z</time></trkpt><trkpt lat="41.13724959140177" lon="15.37484170827476"><ele>562.0</ele><time>2026-04-19T10:19:02Z</time></trkpt><trkpt lat="41.13726514540414" lon="15.374922861425581"><ele>562.0</ele><time>2026-04-19T10:19:04Z</time></trkpt><trkpt lat="41.137286972930994" lon="15.375007786418111"><ele>562.0</ele><time>2026-04-19T10:19:06Z</time></trkpt><trkpt lat="41.13728985183764" lon="15.375125305223557"><ele>562.0</ele><time>2026-04-19T10:19:08Z</time></trkpt><trkpt lat="41.13730843597378" lon="15.375281153932068"><ele>562.0</ele><time>2026-04-19T10:19:10Z</time></trkpt><trkpt lat="41.137377221250944" lon="15.375326386253223"><ele>562.0</ele><time>2026-04-19T10:19:13Z</time></trkpt><trkpt lat="41.137425107584505" lon="15.375407914273357"><ele>557.0</ele><time>2026-04-19T10:19:15Z</time></trkpt><trkpt lat="41.1374632743278" lon="15.375516357807175"><ele>552.0</ele><time>2026-04-19T10:19:17Z</time></trkpt><trkpt lat="41.137551019342474" lon="15.37557369711661"><ele>547.0</ele><time>2026-04-19T10:19:20Z</time></trkpt><trkpt lat="41.137579144791154" lon="15.375654403497608"><ele>542.0</ele><time>2026-04-19T10:19:22Z</time></trkpt><trkpt lat="41.137634156897846" lon="15.375758676532561"><ele>537.0</ele><time>2026-04-19T10:19:24Z</time></trkpt><trkpt lat="41.13765440543673" lon="15.375850111438881"><ele>532.0</ele><time>2026-04-19T10:19:27Z</time></trkpt><trkpt lat="41.13760183030905" lon="15.375955126452997"><ele>532.0</ele><time>2026-04-19T10:19:30Z</time></trkpt><trkpt lat="41.13759573114173" lon="15.376048308033416"><ele>532.0</ele><time>2026-04-19T10:19:33Z</time></trkpt><trkpt lat="41.137568823237416" lon="15.37617114441648"><ele>532.0</ele><time>2026-04-19T10:19:36Z</time></trkpt><trkpt lat="41.137510206852454" lon="15.376243316413646"><ele>532.0</ele><time>2026-04-19T10:19:38Z</time></trkpt><trkpt lat="41.137462766244965" lon="15.376321662590144"><ele>532.0</ele><time>2026-04-19T10:19:41Z</time></trkpt><trkpt lat="41.13740434174418" lon="15.376402951853633"><ele>532.0</ele><time>2026-04-19T10:19:43Z</time></trkpt><trkpt lat="41.13733766035138" lon="15.376469175131785"><ele>535.7142857142857</ele><time>2026-04-19T10:19:45Z</time></trkpt><trkpt lat="41.137274742581276" lon="15.376506523612816"><ele>539.4285714285714</ele><time>2026-04-19T10:21:11Z</time></trkpt><trkpt lat="41.13722777933963" lon="15.376598972423237"><ele>543.1428571428571</ele><time>2026-04-19T10:31:00.999Z</time></trkpt><trkpt lat="41.137163360464506" lon="15.376612004019075"><ele>546.8571428571429</ele><time>2026-04-19T10:31:02.999Z</time></trkpt><trkpt lat="41.13719263131159" lon="15.376693533025362"><ele>550.5714285714286</ele><time>2026-04-19T10:31:43Z</time></trkpt><trkpt lat="41.137140957152326" lon="15.376760770114936"><ele>554.2857142857142</ele><time>2026-04-19T10:31:49Z</time></trkpt><trkpt lat="41.13709741035862" lon="15.376699525404105"><ele>558.0</ele><time>2026-04-19T10:32:21Z</time></trkpt><trkpt lat="41.13705285670245" lon="15.376640140400212"><ele>557.9999999999999</ele><time>2026-04-19T10:35:07.999Z</time></trkpt><trkpt lat="41.13697911222877" lon="15.37663075629266"><ele>558.0</ele><time>2026-04-19T10:35:34Z</time></trkpt><trkpt lat="41.13698278175407" lon="15.376719581895705"><ele>558.0</ele><time>2026-04-19T10:36:09Z</time></trkpt><trkpt lat="41.137022633773455" lon="15.376813460151348"><ele>558.0</ele><time>2026-04-19T10:36:12Z</time></trkpt><trkpt lat="41.137086560672074" lon="15.376843005349901"><ele>558.0</ele><time>2026-04-19T10:36:15Z</time></trkpt><trkpt lat="41.13712786947794" lon="15.376914689453994"><ele>557.9999999999999</ele><time>2026-04-19T10:36:19Z</time></trkpt><trkpt lat="41.13718589248725" lon="15.376963193713262"><ele>558.0</ele><time>2026-04-19T10:36:22Z</time></trkpt><trkpt lat="41.137254476323065" lon="15.376984013012024"><ele>558.0</ele><time>2026-04-19T10:36:24Z</time></trkpt><trkpt lat="41.13733625277892" lon="15.376982501409335"><ele>558.0</ele><time>2026-04-19T10:36:27Z</time></trkpt><trkpt lat="41.13740499586648" lon="15.377012092072489"><ele>558.0</ele><time>2026-04-19T10:36:31Z</time></trkpt><trkpt lat="41.13748222597717" lon="15.377021041144436"><ele>558.0</ele><time>2026-04-19T10:36:35Z</time></trkpt><trkpt lat="41.13755636325458" lon="15.37701218819619"><ele>558.0</ele><time>2026-04-19T10:36:38.999Z</time></trkpt><trkpt lat="41.13763804470771" lon="15.377025291129492"><ele>558.0</ele><time>2026-04-19T10:36:42.999Z</time></trkpt><trkpt lat="41.13770695893523" lon="15.377049489333134"><ele>554.9999999999999</ele><time>2026-04-19T10:36:45.999Z</time></trkpt><trkpt lat="41.13777283898021" lon="15.377057234735808"><ele>552.0</ele><time>2026-04-19T10:36:47.999Z</time></trkpt><trkpt lat="41.137836073093034" lon="15.377046032589321"><ele>549.0</ele><time>2026-04-19T10:36:50.999Z</time></trkpt><trkpt lat="41.13791208569126" lon="15.377067987806925"><ele>546.0</ele><time>2026-04-19T10:36:53.999Z</time></trkpt><trkpt lat="41.13798071787041" lon="15.377059784781999"><ele>543.0</ele><time>2026-04-19T10:36:56.999Z</time></trkpt><trkpt lat="41.13806562971992" lon="15.377091984014633"><ele>539.9999999999999</ele><time>2026-04-19T10:37:04.999Z</time></trkpt><trkpt lat="41.13813492360118" lon="15.37709536665933"><ele>537.0</ele><time>2026-04-19T10:37:11.999Z</time></trkpt><trkpt lat="41.13819783208451" lon="15.377116641922274"><ele>536.5</ele><time>2026-04-19T10:37:13.999Z</time></trkpt><trkpt lat="41.138273720058535" lon="15.377164436588188"><ele>536.0</ele><time>2026-04-19T10:37:15.999Z</time></trkpt><trkpt lat="41.13832980478011" lon="15.377206630818149"><ele>535.5</ele><time>2026-04-19T10:37:17.999Z</time></trkpt><trkpt lat="41.138398703881094" lon="15.377188104851653"><ele>535.0</ele><time>2026-04-19T10:37:19.999Z</time></trkpt><trkpt lat="41.13846250454788" lon="15.377107694010284"><ele>534.5</ele><time>2026-04-19T10:37:23.999Z</time></trkpt><trkpt lat="41.13850687615819" lon="15.377044150534122"><ele>534.0</ele><time>2026-04-19T10:37:27Z</time></trkpt><trkpt lat="41.13853778291403" lon="15.376941665030131"><ele>531.4285714285714</ele><time>2026-04-19T10:37:30Z</time></trkpt><trkpt lat="41.13851832097725" lon="15.37685109347012"><ele>528.8571428571429</ele><time>2026-04-19T10:37:34Z</time></trkpt><trkpt lat="41.138554788721834" lon="15.376773891323753"><ele>526.2857142857142</ele><time>2026-04-19T10:37:37Z</time></trkpt><trkpt lat="41.13856948183671" lon="15.376685012714887"><ele>523.7142857142858</ele><time>2026-04-19T10:37:41Z</time></trkpt><trkpt lat="41.138618680318906" lon="15.376612011756928"><ele>521.1428571428571</ele><time>2026-04-19T10:37:50Z</time></trkpt><trkpt lat="41.13866668163491" lon="15.376510226620804"><ele>518.5714285714286</ele><time>2026-04-19T10:38:07Z</time></trkpt><trkpt lat="41.13871183935962" lon="15.376446651604986"><ele>516.0</ele><time>2026-04-19T10:38:11Z</time></trkpt><trkpt lat="41.138780205487926" lon="15.376429562741142"><ele>516.0</ele><time>2026-04-19T10:38:14Z</time></trkpt><trkpt lat="41.138860976042345" lon="15.376363391694452"><ele>516.0</ele><time>2026-04-19T10:38:17Z</time></trkpt><trkpt lat="41.13893248661335" lon="15.376321731062056"><ele>516.0</ele><time>2026-04-19T10:38:20Z</time></trkpt><trkpt lat="41.138982327594725" lon="15.376214279189814"><ele>516.0</ele><time>2026-04-19T10:38:23Z</time></trkpt><trkpt lat="41.13902018817315" lon="15.376130409565736"><ele>516.0</ele><time>2026-04-19T10:38:27Z</time></trkpt><trkpt lat="41.1390848058162" lon="15.37609671767222"><ele>516.0</ele><time>2026-04-19T10:38:29Z</time></trkpt><trkpt lat="41.13917732281357" lon="15.37606102585125"><ele>509.4</ele><time>2026-04-19T10:38:31Z</time></trkpt><trkpt lat="41.13926957683169" lon="15.37602008907411"><ele>502.8</ele><time>2026-04-19T10:38:33Z</time></trkpt><trkpt lat="41.13936271796918" lon="15.375955221673626"><ele>496.19999999999993</ele><time>2026-04-19T10:38:34.999Z</time></trkpt><trkpt lat="41.13941990047681" lon="15.37587218023249"><ele>489.59999999999997</ele><time>2026-04-19T10:38:36.999Z</time></trkpt><trkpt lat="41.139473557810255" lon="15.375778279485967"><ele>483.0</ele><time>2026-04-19T10:38:38.999Z</time></trkpt><trkpt lat="41.139547921833866" lon="15.375805701441088"><ele>483.0</ele><time>2026-04-19T10:38:40.999Z</time></trkpt><trkpt lat="41.13969104336999" lon="15.375829332751549"><ele>482.99999999999994</ele><time>2026-04-19T10:38:42.999Z</time></trkpt><trkpt lat="41.139767520602476" lon="15.375838469804293"><ele>482.99999999999994</ele><time>2026-04-19T10:38:43.999Z</time></trkpt><trkpt lat="41.13983332816357" lon="15.375836552894011"><ele>483.0</ele><time>2026-04-19T10:38:44.999Z</time></trkpt><trkpt lat="41.139949022865515" lon="15.375808790336556"><ele>483.0</ele><time>2026-04-19T10:38:46.999Z</time></trkpt><trkpt lat="41.1400211950488" lon="15.375815571745903"><ele>479.0</ele><time>2026-04-19T10:38:48.999Z</time></trkpt><trkpt lat="41.140091498445784" lon="15.375844438682904"><ele>475.0</ele><time>2026-04-19T10:38:50.999Z</time></trkpt><trkpt lat="41.14017280955902" lon="15.37586831818014"><ele>471.0</ele><time>2026-04-19T10:38:52.999Z</time></trkpt><trkpt lat="41.14024052300493" lon="15.375887090171943"><ele>467.0</ele><time>2026-04-19T10:38:54.999Z</time></trkpt><trkpt lat="41.140342032272265" lon="15.375929676167956"><ele>463.0</ele><time>2026-04-19T10:38:57.999Z</time></trkpt><trkpt lat="41.14040107996191" lon="15.375974822165164"><ele>459.0</ele><time>2026-04-19T10:38:59.999Z</time></trkpt><trkpt lat="41.14045417922809" lon="15.37606204244998"><ele>459.0</ele><time>2026-04-19T10:39:01.999Z</time></trkpt><trkpt lat="41.14049377821869" lon="15.376142829125193"><ele>459.0</ele><time>2026-04-19T10:39:03.999Z</time></trkpt><trkpt lat="41.140540363718955" lon="15.376222238765198"><ele>459.0</ele><time>2026-04-19T10:39:17.999Z</time></trkpt><trkpt lat="41.14060773135681" lon="15.376302930032526"><ele>459.0</ele><time>2026-04-19T10:39:20.999Z</time></trkpt><trkpt lat="41.14064991549948" lon="15.376403033061143"><ele>459.0</ele><time>2026-04-19T10:39:23.999Z</time></trkpt><trkpt lat="41.14067373841835" lon="15.376504704854266"><ele>459.0</ele><time>2026-04-19T10:39:25.999Z</time></trkpt><trkpt lat="41.14070013852358" lon="15.376634774623852"><ele>458.8571428571429</ele><time>2026-04-19T10:39:27.999Z</time></trkpt><trkpt lat="41.14070497174703" lon="15.376735703707263"><ele>458.71428571428567</ele><time>2026-04-19T10:39:30.999Z</time></trkpt><trkpt lat="41.14070944551793" lon="15.376836248810056"><ele>458.57142857142856</ele><time>2026-04-19T10:39:33Z</time></trkpt><trkpt lat="41.14072903557941" lon="15.376932592350414"><ele>458.42857142857144</ele><time>2026-04-19T10:40:42.999Z</time></trkpt><trkpt lat="41.1407176714762" lon="15.37701772504778"><ele>458.28571428571433</ele><time>2026-04-19T10:41:10.999Z</time></trkpt><trkpt lat="41.14066815321623" lon="15.377079296848573"><ele>458.1428571428571</ele><time>2026-04-19T10:41:44Z</time></trkpt><trkpt lat="41.140618072114705" lon="15.37713121185191"><ele>458.0</ele><time>2026-04-19T10:42:38Z</time></trkpt><trkpt lat="41.14057091551422" lon="15.377207612633967"><ele>457.3333333333333</ele><time>2026-04-19T10:43:12.999Z</time></trkpt><trkpt lat="41.14052190082641" lon="15.377308908439563"><ele>456.66666666666663</ele><time>2026-04-19T10:45:22.999Z</time></trkpt><trkpt lat="41.14046627275461" lon="15.377411111202578"><ele>456.0</ele><time>2026-04-19T10:47:42.999Z</time></trkpt><trkpt lat="41.14043720189189" lon="15.377494410725024"><ele>455.33333333333337</ele><time>2026-04-19T10:49:37.999Z</time></trkpt><trkpt lat="41.14046932048004" lon="15.377570533327114"><ele>454.6666666666667</ele><time>2026-04-19T10:49:49.999Z</time></trkpt><trkpt lat="41.14047794512696" lon="15.37765710891975"><ele>454.0</ele><time>2026-04-19T10:50:05Z</time></trkpt><trkpt lat="41.140474213316004" lon="15.377744277557495"><ele>454.0</ele><time>2026-04-19T10:50:23Z</time></trkpt><trkpt lat="41.140456178389314" lon="15.377830102382843"><ele>454.00000000000006</ele><time>2026-04-19T10:50:33Z</time></trkpt><trkpt lat="41.14048933376194" lon="15.377903893507845"><ele>454.0</ele><time>2026-04-19T10:50:43.999Z</time></trkpt><trkpt lat="41.14049070809668" lon="15.377990114418974"><ele>454.0</ele><time>2026-04-19T10:50:50.999Z</time></trkpt><trkpt lat="41.14048194204432" lon="15.378083640277012"><ele>454.00000000000006</ele><time>2026-04-19T10:51:14.999Z</time></trkpt><trkpt lat="41.140486713246545" lon="15.378222476307371"><ele>454.0</ele><time>2026-04-19T10:52:55.999Z</time></trkpt><trkpt lat="41.14053242809375" lon="15.378280832323231"><ele>454.0</ele><time>2026-04-19T10:53:03.999Z</time></trkpt><trkpt lat="41.14058055211002" lon="15.3783630971433"><ele>452.8571428571429</ele><time>2026-04-19T10:53:33.999Z</time></trkpt><trkpt lat="41.14064335946858" lon="15.378399071987861"><ele>451.7142857142858</ele><time>2026-04-19T10:53:43.999Z</time></trkpt><trkpt lat="41.14069817407177" lon="15.378469494832471"><ele>450.57142857142856</ele><time>2026-04-19T10:53:46.999Z</time></trkpt><trkpt lat="41.140725405683405" lon="15.378547333328424"><ele>449.42857142857144</ele><time>2026-04-19T10:53:50.999Z</time></trkpt><trkpt lat="41.14076632703313" lon="15.37862797405811"><ele>448.2857142857143</ele><time>2026-04-19T10:54:13Z</time></trkpt><trkpt lat="41.14080343398951" lon="15.378701083312084"><ele>447.1428571428571</ele><time>2026-04-19T10:54:18Z</time></trkpt><trkpt lat="41.14082994946651" lon="15.378784445753723"><ele>446.0</ele><time>2026-04-19T10:55:37.999Z</time></trkpt><trkpt lat="41.14081066646804" lon="15.37890822056001"><ele>442.57142857142856</ele><time>2026-04-19T10:56:14.999Z</time></trkpt><trkpt lat="41.14081752169606" lon="15.378999847397766"><ele>439.1428571428571</ele><time>2026-04-19T10:56:31Z</time></trkpt><trkpt lat="41.1408286856862" lon="15.379087277068564"><ele>435.7142857142857</ele><time>2026-04-19T10:56:36Z</time></trkpt><trkpt lat="41.14087107203451" lon="15.37920551446769"><ele>432.2857142857143</ele><time>2026-04-19T10:57:51.999Z</time></trkpt><trkpt lat="41.140892901988316" lon="15.379299838807205"><ele>428.8571428571429</ele><time>2026-04-19T10:57:56.999Z</time></trkpt><trkpt lat="41.14090061780014" lon="15.379383382868834"><ele>425.42857142857144</ele><time>2026-04-19T10:58:15.999Z</time></trkpt><trkpt lat="41.140925086879896" lon="15.379473647218763"><ele>422.0</ele><time>2026-04-19T10:58:19.999Z</time></trkpt><trkpt lat="41.14093248623444" lon="15.379568654996946"><ele>422.0</ele><time>2026-04-19T10:58:22.999Z</time></trkpt><trkpt lat="41.14096636257648" lon="15.379657711566459"><ele>422.0</ele><time>2026-04-19T10:58:26Z</time></trkpt><trkpt lat="41.14097181419384" lon="15.379758399885368"><ele>422.0</ele><time>2026-04-19T10:58:30Z</time></trkpt><trkpt lat="41.140978899483706" lon="15.379847647644553"><ele>422.0</ele><time>2026-04-19T10:58:33Z</time></trkpt><trkpt lat="41.14098303485377" lon="15.379944363357694"><ele>422.0</ele><time>2026-04-19T10:58:36Z</time></trkpt><trkpt lat="41.14098563801303" lon="15.380037195422915"><ele>422.0</ele><time>2026-04-19T10:58:40Z</time></trkpt><trkpt lat="41.14101247779297" lon="15.380134706024975"><ele>422.0</ele><time>2026-04-19T10:58:44Z</time></trkpt><trkpt lat="41.141020000396935" lon="15.380224373791584"><ele>421.2857142857143</ele><time>2026-04-19T10:59:23.999Z</time></trkpt><trkpt lat="41.14104062817364" lon="15.380310882759932"><ele>420.57142857142856</ele><time>2026-04-19T10:59:31.999Z</time></trkpt><trkpt lat="41.141079539575315" lon="15.380389021818452"><ele>419.8571428571429</ele><time>2026-04-19T10:59:38.999Z</time></trkpt><trkpt lat="41.14106529008119" lon="15.38048047750856"><ele>419.1428571428571</ele><time>2026-04-19T11:01:12.999Z</time></trkpt><trkpt lat="41.141056417338824" lon="15.380581361084259"><ele>418.4285714285714</ele><time>2026-04-19T11:01:18.999Z</time></trkpt><trkpt lat="41.14105900211492" lon="15.380679901288266"><ele>417.7142857142857</ele><time>2026-04-19T11:01:29.999Z</time></trkpt><trkpt lat="41.14105083876099" lon="15.38076969443835"><ele>417.0</ele><time>2026-04-19T11:01:49.999Z</time></trkpt><trkpt lat="41.141020617594435" lon="15.380904207244559"><ele>416.14285714285717</ele><time>2026-04-19T11:02:56Z</time></trkpt><trkpt lat="41.14101893527897" lon="15.380998862256408"><ele>415.2857142857143</ele><time>2026-04-19T11:02:58.999Z</time></trkpt><trkpt lat="41.14099783261662" lon="15.381085715882117"><ele>414.42857142857144</ele><time>2026-04-19T11:03:01.999Z</time></trkpt><trkpt lat="41.14098352352345" lon="15.381179665796491"><ele>413.57142857142856</ele><time>2026-04-19T11:03:05.999Z</time></trkpt><trkpt lat="41.14096164000663" lon="15.381290827749396"><ele>412.71428571428567</ele><time>2026-04-19T11:03:08.999Z</time></trkpt><trkpt lat="41.14093902333563" lon="15.381377380722622"><ele>411.85714285714283</ele><time>2026-04-19T11:03:10.999Z</time></trkpt><trkpt lat="41.14090518553999" lon="15.381465716551599"><ele>411.0</ele><time>2026-04-19T11:03:13.999Z</time></trkpt><trkpt lat="41.140898806568494" lon="15.381582873286359"><ele>410.85714285714283</ele><time>2026-04-19T11:03:21.999Z</time></trkpt><trkpt lat="41.14087693265207" lon="15.381663508975253"><ele>410.71428571428567</ele><time>2026-04-19T11:03:24.999Z</time></trkpt><trkpt lat="41.14088738813497" lon="15.381746100935612"><ele>410.57142857142856</ele><time>2026-04-19T11:03:29.999Z</time></trkpt><trkpt lat="41.140873662328794" lon="15.38184817393206"><ele>410.42857142857144</ele><time>2026-04-19T11:03:57.999Z</time></trkpt><trkpt lat="41.14089184863016" lon="15.381956422071813"><ele>410.2857142857143</ele><time>2026-04-19T11:04:01.999Z</time></trkpt><trkpt lat="41.14091933616772" lon="15.382059099986346"><ele>410.14285714285717</ele><time>2026-04-19T11:04:04.999Z</time></trkpt><trkpt lat="41.14097864057872" lon="15.382125887726458"><ele>410.0</ele><time>2026-04-19T11:04:08.999Z</time></trkpt><trkpt lat="41.140978527904004" lon="15.38221211088283"><ele>409.3333333333333</ele><time>2026-04-19T11:04:18.999Z</time></trkpt><trkpt lat="41.140986976323575" lon="15.38230334472638"><ele>408.66666666666663</ele><time>2026-04-19T11:04:55Z</time></trkpt><trkpt lat="41.14106578740203" lon="15.382380975924086"><ele>408.0</ele><time>2026-04-19T11:04:58.999Z</time></trkpt><trkpt lat="41.141104295058504" lon="15.382467314643643"><ele>407.33333333333337</ele><time>2026-04-19T11:05:02.999Z</time></trkpt><trkpt lat="41.14114745790396" lon="15.382544745909339"><ele>406.6666666666667</ele><time>2026-04-19T11:05:05.999Z</time></trkpt><trkpt lat="41.14119433674859" lon="15.38261515130022"><ele>406.0</ele><time>2026-04-19T11:05:08.999Z</time></trkpt><trkpt lat="41.14124176928183" lon="15.382540249145407"><ele>406.00000000000006</ele><time>2026-04-19T11:05:33.999Z</time></trkpt><trkpt lat="41.14127039237839" lon="15.382448589308456"><ele>406.0</ele><time>2026-04-19T11:05:35.999Z</time></trkpt><trkpt lat="41.141288722584925" lon="15.382358309762607"><ele>406.0</ele><time>2026-04-19T11:06:14Z</time></trkpt><trkpt lat="41.14138379410273" lon="15.382361494446059"><ele>406.0</ele><time>2026-04-19T11:11:34Z</time></trkpt><trkpt lat="41.14146696505714" lon="15.382340984977414"><ele>406.00000000000006</ele><time>2026-04-19T11:11:36Z</time></trkpt><trkpt lat="41.14157166460283" lon="15.382308961499236"><ele>406.0</ele><time>2026-04-19T11:11:38Z</time></trkpt><trkpt lat="41.14164734777758" lon="15.382311487970037"><ele>406.1666666666667</ele><time>2026-04-19T11:11:39Z</time></trkpt><trkpt lat="41.14172402074637" lon="15.382338183277367"><ele>406.33333333333337</ele><time>2026-04-19T11:11:40Z</time></trkpt><trkpt lat="41.14180394450583" lon="15.38238925343931"><ele>406.5</ele><time>2026-04-19T11:11:41Z</time></trkpt><trkpt lat="41.14188297848044" lon="15.382454893434355"><ele>406.66666666666663</ele><time>2026-04-19T11:11:42Z</time></trkpt><trkpt lat="41.141955498793905" lon="15.382518474482687"><ele>406.8333333333333</ele><time>2026-04-19T11:11:43Z</time></trkpt><trkpt lat="41.142016117682395" lon="15.382575785433502"><ele>407.0</ele><time>2026-04-19T11:11:44Z</time></trkpt><trkpt lat="41.14207612672299" lon="15.382632973343133"><ele>407.0</ele><time>2026-04-19T11:11:45Z</time></trkpt><trkpt lat="41.14215655088986" lon="15.382709524905351"><ele>407.0</ele><time>2026-04-19T11:11:47Z</time></trkpt><trkpt lat="41.14226216202047" lon="15.382592546635523"><ele>407.0</ele><time>2026-04-19T11:11:50Z</time></trkpt><trkpt lat="41.14236972119037" lon="15.382553714077366"><ele>407.0</ele><time>2026-04-19T11:11:52Z</time></trkpt><trkpt lat="41.14245291467759" lon="15.382555163990025"><ele>407.0</ele><time>2026-04-19T11:11:53Z</time></trkpt><trkpt lat="41.14253492397964" lon="15.38253030696611"><ele>411.20000000000005</ele><time>2026-04-19T11:11:54Z</time></trkpt><trkpt lat="41.142597259748754" lon="15.382491128964372"><ele>415.4</ele><time>2026-04-19T11:11:55Z</time></trkpt><trkpt lat="41.142703481968944" lon="15.382440728517674"><ele>419.59999999999997</ele><time>2026-04-19T11:11:57Z</time></trkpt><trkpt lat="41.142809448831414" lon="15.382392029785782"><ele>423.79999999999995</ele><time>2026-04-19T11:11:59Z</time></trkpt><trkpt lat="41.14291835725697" lon="15.38238412865587"><ele>428.0</ele><time>2026-04-19T11:12:01Z</time></trkpt><trkpt lat="41.14290960599098" lon="15.3823000016398"><ele>427.99999999999994</ele><time>2026-04-19T11:12:04Z</time></trkpt><trkpt lat="41.14286706306048" lon="15.38222131194816"><ele>428.0</ele><time>2026-04-19T11:12:08Z</time></trkpt><trkpt lat="41.14292038750839" lon="15.38210187807476"><ele>428.0</ele><time>2026-04-19T11:12:10Z</time></trkpt><trkpt lat="41.14298918538712" lon="15.382052110492028"><ele>428.0</ele><time>2026-04-19T11:12:12Z</time></trkpt><trkpt lat="41.143061614332126" lon="15.382056621890104"><ele>427.99999999999994</ele><time>2026-04-19T11:12:16Z</time></trkpt><trkpt lat="41.14314848791392" lon="15.382057483464507"><ele>428.0</ele><time>2026-04-19T11:12:18Z</time></trkpt><trkpt lat="41.14322703545803" lon="15.381922603914298"><ele>434.16666666666663</ele><time>2026-04-19T11:12:20Z</time></trkpt><trkpt lat="41.14325310527645" lon="15.381831084308097"><ele>440.3333333333333</ele><time>2026-04-19T11:12:21Z</time></trkpt><trkpt lat="41.14328330627275" lon="15.381751770228874"><ele>446.5</ele><time>2026-04-19T11:12:22Z</time></trkpt><trkpt lat="41.14341839506669" lon="15.381720600086757"><ele>452.66666666666663</ele><time>2026-04-19T11:12:24Z</time></trkpt><trkpt lat="41.14342700579776" lon="15.381632149770711"><ele>458.8333333333333</ele><time>2026-04-19T11:13:19Z</time></trkpt><trkpt lat="41.14335206595343" lon="15.381642380954908"><ele>465.0</ele><time>2026-04-19T11:13:23Z</time></trkpt><trkpt lat="41.14329436305115" lon="15.381689983872585"><ele>465.0</ele><time>2026-04-19T11:13:26Z</time></trkpt><trkpt lat="41.143273803173045" lon="15.381775395585505"><ele>465.0</ele><time>2026-04-19T11:13:29Z</time></trkpt><trkpt lat="41.14327685632047" lon="15.38186017353679"><ele>465.0</ele><time>2026-04-19T11:13:32Z</time></trkpt><trkpt lat="41.143215522409726" lon="15.381924761870314"><ele>465.0</ele><time>2026-04-19T11:14:25Z</time></trkpt><trkpt lat="41.1431774297113" lon="15.382029832973295"><ele>465.0</ele><time>2026-04-19T11:14:27Z</time></trkpt><trkpt lat="41.143096094975796" lon="15.38205335556169"><ele>465.0</ele><time>2026-04-19T11:14:30Z</time></trkpt><trkpt lat="41.14318291903031" lon="15.382031979456182"><ele>465.0</ele><time>2026-04-19T11:16:13Z</time></trkpt><trkpt lat="41.14322112707607" lon="15.381951999500487"><ele>465.0</ele><time>2026-04-19T11:16:14Z</time></trkpt><trkpt lat="41.143254654999275" lon="15.381834791296695"><ele>465.0</ele><time>2026-04-19T11:16:15Z</time></trkpt><trkpt lat="41.143302526666204" lon="15.381729565002333"><ele>465.0</ele><time>2026-04-19T11:16:16Z</time></trkpt><trkpt lat="41.14340884191371" lon="15.381710078588275"><ele>465.0</ele><time>2026-04-19T11:16:18Z</time></trkpt><trkpt lat="41.143484417650924" lon="15.381673513680935"><ele>465.0</ele><time>2026-04-19T11:16:20Z</time></trkpt><trkpt lat="41.14350777528893" lon="15.381591125555468"><ele>465.0</ele><time>2026-04-19T11:16:23Z</time></trkpt><trkpt lat="41.143607532519866" lon="15.381513590654636"><ele>465.0</ele><time>2026-04-19T11:16:25Z</time></trkpt><trkpt lat="41.14372585264318" lon="15.381488013062793"><ele>465.0</ele><time>2026-04-19T11:16:27Z</time></trkpt><trkpt lat="41.1437940809337" lon="15.381527111049772"><ele>465.0</ele><time>2026-04-19T11:16:35Z</time></trkpt><trkpt lat="41.143829273531104" lon="15.381612669577294"><ele>465.0</ele><time>2026-04-19T11:16:41Z</time></trkpt><trkpt lat="41.14388363967281" lon="15.381698019844508"><ele>465.0</ele><time>2026-04-19T11:16:44Z</time></trkpt><trkpt lat="41.14396938819695" lon="15.381776579838608"><ele>465.0</ele><time>2026-04-19T11:16:46Z</time></trkpt><trkpt lat="41.14404505403856" lon="15.381843669252858"><ele>465.0</ele><time>2026-04-19T11:16:48Z</time></trkpt><trkpt lat="41.144098056833634" lon="15.381901867530942"><ele>465.0</ele><time>2026-04-19T11:16:50Z</time></trkpt><trkpt lat="41.14420509959609" lon="15.381890241586184"><ele>465.0</ele><time>2026-04-19T11:16:52Z</time></trkpt><trkpt lat="41.14429232981358" lon="15.381899704930518"><ele>467.5</ele><time>2026-04-19T11:16:53Z</time></trkpt><trkpt lat="41.14439040870619" lon="15.38189066924932"><ele>470.0</ele><time>2026-04-19T11:16:54Z</time></trkpt><trkpt lat="41.144460955056346" lon="15.381889954676252"><ele>472.5</ele><time>2026-04-19T11:16:55Z</time></trkpt><trkpt lat="41.144528123644406" lon="15.381920570751571"><ele>475.0</ele><time>2026-04-19T11:16:56Z</time></trkpt><trkpt lat="41.14463225795689" lon="15.381993178722736"><ele>477.5</ele><time>2026-04-19T11:16:58Z</time></trkpt><trkpt lat="41.144713294696665" lon="15.381979910024365"><ele>480.0</ele><time>2026-04-19T11:17:00Z</time></trkpt><trkpt lat="41.144778195153506" lon="15.382000547330184"><ele>480.0</ele><time>2026-04-19T11:17:02Z</time></trkpt><trkpt lat="41.14483765611157" lon="15.382079558964508"><ele>480.0</ele><time>2026-04-19T11:17:04Z</time></trkpt><trkpt lat="41.144908705914894" lon="15.382090037497226"><ele>480.0</ele><time>2026-04-19T11:17:06Z</time></trkpt><trkpt lat="41.14497840190905" lon="15.382093593125289"><ele>480.0</ele><time>2026-04-19T11:17:08Z</time></trkpt><trkpt lat="41.14506265114759" lon="15.382199241877656"><ele>480.0</ele><time>2026-04-19T11:17:10Z</time></trkpt><trkpt lat="41.14510658968023" lon="15.382261351011467"><ele>480.0</ele><time>2026-04-19T11:17:11Z</time></trkpt><trkpt lat="41.145199843631815" lon="15.382308781670712"><ele>481.8333333333333</ele><time>2026-04-19T11:17:13Z</time></trkpt><trkpt lat="41.14528985182485" lon="15.382287627539316"><ele>483.66666666666663</ele><time>2026-04-19T11:17:15Z</time></trkpt><trkpt lat="41.14535428190116" lon="15.382315864476817"><ele>485.5</ele><time>2026-04-19T11:17:17Z</time></trkpt><trkpt lat="41.145329831491395" lon="15.382431455202877"><ele>487.3333333333333</ele><time>2026-04-19T11:17:20Z</time></trkpt><trkpt lat="41.14538074646716" lon="15.382515811134484"><ele>489.16666666666663</ele><time>2026-04-19T11:20:09Z</time></trkpt><trkpt lat="41.1454594905819" lon="15.382559002347302"><ele>491.0</ele><time>2026-04-19T11:20:11Z</time></trkpt><trkpt lat="41.145521899875284" lon="15.382576659899735"><ele>491.0</ele><time>2026-04-19T11:20:13Z</time></trkpt><trkpt lat="41.14559219619936" lon="15.382551940535881"><ele>490.99999999999994</ele><time>2026-04-19T11:20:15Z</time></trkpt><trkpt lat="41.14567272867963" lon="15.382549479212072"><ele>491.0</ele><time>2026-04-19T11:20:18Z</time></trkpt><trkpt lat="41.14573214527242" lon="15.38250724893719"><ele>491.0</ele><time>2026-04-19T11:20:25Z</time></trkpt><trkpt lat="41.14581794051533" lon="15.382483411999951"><ele>490.99999999999994</ele><time>2026-04-19T11:20:30Z</time></trkpt><trkpt lat="41.14588401199525" lon="15.382460985933974"><ele>491.0</ele><time>2026-04-19T11:20:38Z</time></trkpt><trkpt lat="41.14595268536744" lon="15.382462421490041"><ele>491.0</ele><time>2026-04-19T11:20:42Z</time></trkpt><trkpt lat="41.146017252459025" lon="15.382463874730922"><ele>495.16666666666663</ele><time>2026-04-19T11:20:45Z</time></trkpt><trkpt lat="41.14609404979123" lon="15.382445349604764"><ele>499.3333333333333</ele><time>2026-04-19T11:20:50Z</time></trkpt><trkpt lat="41.14615920355387" lon="15.38239492937397"><ele>503.5</ele><time>2026-04-19T11:20:54Z</time></trkpt><trkpt lat="41.146228797987916" lon="15.38244372293521"><ele>507.66666666666663</ele><time>2026-04-19T11:21:12Z</time></trkpt><trkpt lat="41.14629512644991" lon="15.382410088486868"><ele>511.8333333333333</ele><time>2026-04-19T11:21:26.999Z</time></trkpt><trkpt lat="41.14636175387552" lon="15.3824320742017"><ele>516.0</ele><time>2026-04-19T11:21:32Z</time></trkpt><trkpt lat="41.14641017586716" lon="15.382527028639203"><ele>516.0</ele><time>2026-04-19T11:21:42Z</time></trkpt><trkpt lat="41.14646009345294" lon="15.382582035126672"><ele>516.0</ele><time>2026-04-19T11:21:45Z</time></trkpt><trkpt lat="41.14652953969554" lon="15.382590030810336"><ele>516.0</ele><time>2026-04-19T11:21:50Z</time></trkpt><trkpt lat="41.14661594743554" lon="15.382523695818891"><ele>516.0</ele><time>2026-04-19T11:21:53Z</time></trkpt><trkpt lat="41.14669547518715" lon="15.382461438585391"><ele>516.0</ele><time>2026-04-19T11:21:55Z</time></trkpt><trkpt lat="41.14675376961345" lon="15.382386423149727"><ele>516.0</ele><time>2026-04-19T11:21:57Z</time></trkpt><trkpt lat="41.14682692680701" lon="15.382294679959838"><ele>519.3333333333334</ele><time>2026-04-19T11:21:59Z</time></trkpt><trkpt lat="41.14689063471809" lon="15.382242043428462"><ele>522.6666666666666</ele><time>2026-04-19T11:22:01Z</time></trkpt><trkpt lat="41.14694125868644" lon="15.38215460115345"><ele>526.0</ele><time>2026-04-19T11:22:03Z</time></trkpt><trkpt lat="41.14697122109213" lon="15.382063362549653"><ele>529.3333333333333</ele><time>2026-04-19T11:22:05Z</time></trkpt><trkpt lat="41.14701372871613" lon="15.381951053138028"><ele>532.6666666666666</ele><time>2026-04-19T11:22:08Z</time></trkpt><trkpt lat="41.14708528926889" lon="15.381877143410549"><ele>536.0</ele><time>2026-04-19T11:22:10Z</time></trkpt><trkpt lat="41.14713359464787" lon="15.38176769831056"><ele>536.0</ele><time>2026-04-19T11:22:12Z</time></trkpt><trkpt lat="41.14710945596882" lon="15.381863022441165"><ele>536.0</ele><time>2026-04-19T11:23:09Z</time></trkpt><trkpt lat="41.147040384352245" lon="15.381917512354102"><ele>536.0</ele><time>2026-04-19T11:23:12Z</time></trkpt><trkpt lat="41.14699552268442" lon="15.381991076936917"><ele>536.0</ele><time>2026-04-19T11:23:14Z</time></trkpt><trkpt lat="41.14696928252969" lon="15.38207735825741"><ele>536.0</ele><time>2026-04-19T11:23:16Z</time></trkpt><trkpt lat="41.146952005546126" lon="15.382191624757297"><ele>536.0</ele><time>2026-04-19T11:23:18Z</time></trkpt><trkpt lat="41.14689187024528" lon="15.382254149238134"><ele>536.0</ele><time>2026-04-19T11:23:21Z</time></trkpt><trkpt lat="41.146819073111004" lon="15.382286729196416"><ele>536.0</ele><time>2026-04-19T11:23:23.999Z</time></trkpt><trkpt lat="41.14690124159698" lon="15.382206166164478"><ele>536.0</ele><time>2026-04-19T11:23:32.999Z</time></trkpt><trkpt lat="41.14694132648501" lon="15.382125305549454"><ele>536.0</ele><time>2026-04-19T11:23:33.999Z</time></trkpt><trkpt lat="41.146991967658884" lon="15.382001974346432"><ele>536.0</ele><time>2026-04-19T11:23:36Z</time></trkpt><trkpt lat="41.14704211228061" lon="15.38191134822115"><ele>536.0</ele><time>2026-04-19T11:23:38Z</time></trkpt><trkpt lat="41.14710503014688" lon="15.381860828116936"><ele>538.8333333333333</ele><time>2026-04-19T11:23:40Z</time></trkpt><trkpt lat="41.14714238602998" lon="15.381726760411393"><ele>541.6666666666666</ele><time>2026-04-19T11:23:43Z</time></trkpt><trkpt lat="41.14715357821906" lon="15.381572823428504"><ele>544.5</ele><time>2026-04-19T11:23:45Z</time></trkpt><trkpt lat="41.14716003158113" lon="15.381482987470097"><ele>547.3333333333334</ele><time>2026-04-19T11:23:47Z</time></trkpt><trkpt lat="41.14715098698171" lon="15.381394349150868"><ele>550.1666666666667</ele><time>2026-04-19T11:23:53Z</time></trkpt><trkpt lat="41.14709273166606" lon="15.381338400504863"><ele>553.0</ele><time>2026-04-19T11:23:56Z</time></trkpt><trkpt lat="41.14698417581393" lon="15.38120354506328"><ele>557.5</ele><time>2026-04-19T11:24:00Z</time></trkpt><trkpt lat="41.14694383900627" lon="15.381123363457194"><ele>562.0</ele><time>2026-04-19T11:24:09Z</time></trkpt><trkpt lat="41.146871203949374" lon="15.381101568405851"><ele>566.5</ele><time>2026-04-19T11:24:12Z</time></trkpt><trkpt lat="41.14682553885772" lon="15.381020620648941"><ele>571.0</ele><time>2026-04-19T11:24:14Z</time></trkpt><trkpt lat="41.14674250850481" lon="15.380958795659893"><ele>575.5</ele><time>2026-04-19T11:24:16Z</time></trkpt><trkpt lat="41.14666608032836" lon="15.380902484220082"><ele>580.0</ele><time>2026-04-19T11:24:19Z</time></trkpt><trkpt lat="41.1465757134295" lon="15.380874211299163"><ele>576.0</ele><time>2026-04-19T11:24:22Z</time></trkpt><trkpt lat="41.146513070494606" lon="15.380840613099746"><ele>572.0</ele><time>2026-04-19T11:24:24Z</time></trkpt><trkpt lat="41.14644513485204" lon="15.38081983808719"><ele>568.0</ele><time>2026-04-19T11:24:26Z</time></trkpt><trkpt lat="41.14637565890458" lon="15.380802284416736"><ele>564.0</ele><time>2026-04-19T11:24:28Z</time></trkpt><trkpt lat="41.14630739282582" lon="15.380778332405725"><ele>560.0</ele><time>2026-04-19T11:24:30Z</time></trkpt><trkpt lat="41.1462313027932" lon="15.380756644458325"><ele>556.0</ele><time>2026-04-19T11:24:32Z</time></trkpt><trkpt lat="41.14614399563181" lon="15.380705265771738"><ele>556.0</ele><time>2026-04-19T11:24:34Z</time></trkpt><trkpt lat="41.14606935575607" lon="15.380674782187265"><ele>556.0</ele><time>2026-04-19T11:24:36Z</time></trkpt><trkpt lat="41.14601313328843" lon="15.380633709367968"><ele>556.0</ele><time>2026-04-19T11:24:38Z</time></trkpt><trkpt lat="41.14593238403224" lon="15.380614482418753"><ele>556.0</ele><time>2026-04-19T11:24:41Z</time></trkpt><trkpt lat="41.145881261026645" lon="15.380553897370433"><ele>556.0</ele><time>2026-04-19T11:24:43Z</time></trkpt><trkpt lat="41.14578174847586" lon="15.380523224863474"><ele>556.0</ele><time>2026-04-19T11:24:46Z</time></trkpt><trkpt lat="41.14569052601285" lon="15.380462432657772"><ele>556.2</ele><time>2026-04-19T11:24:48Z</time></trkpt><trkpt lat="41.14560610232288" lon="15.38041135460061"><ele>556.4000000000001</ele><time>2026-04-19T11:24:50Z</time></trkpt><trkpt lat="41.14552706545494" lon="15.38037689193394"><ele>556.6</ele><time>2026-04-19T11:24:52Z</time></trkpt><trkpt lat="41.145423496435406" lon="15.380308424569437"><ele>556.8000000000001</ele><time>2026-04-19T11:24:54Z</time></trkpt><trkpt lat="41.14532164179808" lon="15.380245958572146"><ele>557.0</ele><time>2026-04-19T11:24:56Z</time></trkpt><trkpt lat="41.14524986591369" lon="15.380186470635493"><ele>557.0</ele><time>2026-04-19T11:24:58Z</time></trkpt><trkpt lat="41.145191554691586" lon="15.38015057215624"><ele>557.0</ele><time>2026-04-19T11:25:00Z</time></trkpt><trkpt lat="41.14507837797283" lon="15.380113847318254"><ele>557.0</ele><time>2026-04-19T11:25:02Z</time></trkpt><trkpt lat="41.14496905035211" lon="15.380054361354977"><ele>557.0</ele><time>2026-04-19T11:25:04Z</time></trkpt><trkpt lat="41.14488427833091" lon="15.379977435811208"><ele>557.0</ele><time>2026-04-19T11:25:06Z</time></trkpt><trkpt lat="41.14478146900122" lon="15.37993775559694"><ele>552.6</ele><time>2026-04-19T11:25:08Z</time></trkpt><trkpt lat="41.144695147469456" lon="15.379871167605337"><ele>548.2</ele><time>2026-04-19T11:25:10Z</time></trkpt><trkpt lat="41.14458800968342" lon="15.379836643987234"><ele>543.8</ele><time>2026-04-19T11:25:12Z</time></trkpt><trkpt lat="41.14453062399661" lon="15.379795478841055"><ele>539.4</ele><time>2026-04-19T11:25:13Z</time></trkpt><trkpt lat="41.14443856544666" lon="15.379739482893683"><ele>535.0</ele><time>2026-04-19T11:25:15Z</time></trkpt><trkpt lat="41.14435883961102" lon="15.379686099932595"><ele>534.6666666666667</ele><time>2026-04-19T11:25:17Z</time></trkpt><trkpt lat="41.14427768673554" lon="15.379668051865723"><ele>534.3333333333334</ele><time>2026-04-19T11:25:19Z</time></trkpt><trkpt lat="41.14432710977589" lon="15.379593236491546"><ele>534.0</ele><time>2026-04-19T11:25:25Z</time></trkpt><trkpt lat="41.14441777504245" lon="15.379577267246866"><ele>533.6666666666666</ele><time>2026-04-19T11:25:27Z</time></trkpt><trkpt lat="41.14448519784699" lon="15.379565639449343"><ele>533.3333333333333</ele><time>2026-04-19T11:25:28Z</time></trkpt><trkpt lat="41.14455942425515" lon="15.379566627813704"><ele>533.0</ele><time>2026-04-19T11:25:29Z</time></trkpt><trkpt lat="41.14463464427934" lon="15.379565178638323"><ele>533.0</ele><time>2026-04-19T11:25:30Z</time></trkpt><trkpt lat="41.14471272829705" lon="15.379566950852336"><ele>533.0</ele><time>2026-04-19T11:25:30.999Z</time></trkpt><trkpt lat="41.14479593590368" lon="15.379557864033172"><ele>533.0</ele><time>2026-04-19T11:25:31.999Z</time></trkpt><trkpt lat="41.14488248407437" lon="15.379554486314628"><ele>533.0</ele><time>2026-04-19T11:25:32.999Z</time></trkpt><trkpt lat="41.14495511245241" lon="15.379546008197961"><ele>533.0</ele><time>2026-04-19T11:25:33.999Z</time></trkpt><trkpt lat="41.14503693790565" lon="15.379545922989099"><ele>533.0</ele><time>2026-04-19T11:25:34.999Z</time></trkpt><trkpt lat="41.14511332719942" lon="15.379548278226553"><ele>537.6</ele><time>2026-04-19T11:25:35.999Z</time></trkpt><trkpt lat="41.14519142081477" lon="15.379546384176802"><ele>542.1999999999999</ele><time>2026-04-19T11:25:36.999Z</time></trkpt><trkpt lat="41.145304904818815" lon="15.379527561428128"><ele>546.8</ele><time>2026-04-19T11:25:38.999Z</time></trkpt><trkpt lat="41.145430813838026" lon="15.379517216925139"><ele>551.4</ele><time>2026-04-19T11:25:41Z</time></trkpt><trkpt lat="41.14549671373923" lon="15.379512606597656"><ele>556.0</ele><time>2026-04-19T11:25:42Z</time></trkpt><trkpt lat="41.145573742953836" lon="15.379508659980674"><ele>556.0</ele><time>2026-04-19T11:25:43Z</time></trkpt><trkpt lat="41.145648525505656" lon="15.379500870231952"><ele>556.0</ele><time>2026-04-19T11:25:44Z</time></trkpt><trkpt lat="41.14573633148784" lon="15.379477871888069"><ele>556.0</ele><time>2026-04-19T11:25:45Z</time></trkpt><trkpt lat="41.14580653092542" lon="15.379470088467999"><ele>556.0</ele><time>2026-04-19T11:25:46Z</time></trkpt><trkpt lat="41.14587912105274" lon="15.379457234954655"><ele>556.0</ele><time>2026-04-19T11:25:47Z</time></trkpt><trkpt lat="41.145955996449786" lon="15.37945396016709"><ele>556.0</ele><time>2026-04-19T11:25:48Z</time></trkpt><trkpt lat="41.14603526496746" lon="15.379445833972287"><ele>561.5</ele><time>2026-04-19T11:25:49Z</time></trkpt><trkpt lat="41.146124491276936" lon="15.379440516455348"><ele>567.0</ele><time>2026-04-19T11:25:50Z</time></trkpt><trkpt lat="41.146205315381074" lon="15.379443574683025"><ele>572.5</ele><time>2026-04-19T11:25:51Z</time></trkpt><trkpt lat="41.146277254868636" lon="15.379438125508521"><ele>578.0</ele><time>2026-04-19T11:25:52Z</time></trkpt><trkpt lat="41.14634914873891" lon="15.379450153442663"><ele>583.5</ele><time>2026-04-19T11:25:53Z</time></trkpt><trkpt lat="41.14648029083704" lon="15.379454199744345"><ele>589.0</ele><time>2026-04-19T11:25:55Z</time></trkpt><trkpt lat="41.146547213235415" lon="15.379453138226882"><ele>594.6666666666667</ele><time>2026-04-19T11:25:56Z</time></trkpt><trkpt lat="41.146613658439726" lon="15.379464883192934"><ele>600.3333333333334</ele><time>2026-04-19T11:25:57Z</time></trkpt><trkpt lat="41.14668099909217" lon="15.37946153332527"><ele>606.0</ele><time>2026-04-19T11:25:58Z</time></trkpt><trkpt lat="41.146802232738885" lon="15.379422975688927"><ele>611.6666666666666</ele><time>2026-04-19T11:26:00Z</time></trkpt><trkpt lat="41.14690083105573" lon="15.379414637008619"><ele>617.3333333333333</ele><time>2026-04-19T11:26:02Z</time></trkpt><trkpt lat="41.14698435788092" lon="15.37945721080083"><ele>623.0</ele><time>2026-04-19T11:26:04Z</time></trkpt><trkpt lat="41.14709867669222" lon="15.37945226937004"><ele>623.0</ele><time>2026-04-19T11:26:06Z</time></trkpt><trkpt lat="41.14716111919564" lon="15.379421808191344"><ele>623.0</ele><time>2026-04-19T11:26:08Z</time></trkpt><trkpt lat="41.14722968263254" lon="15.379391319789482"><ele>623.0</ele><time>2026-04-19T11:26:11Z</time></trkpt><trkpt lat="41.14733472020837" lon="15.379487244798955"><ele>623.0</ele><time>2026-04-19T11:26:14Z</time></trkpt><trkpt lat="41.14738833699045" lon="15.379559714042683"><ele>623.0</ele><time>2026-04-19T11:26:15Z</time></trkpt><trkpt lat="41.1474591391472" lon="15.37962030083721"><ele>623.0</ele><time>2026-04-19T11:26:16Z</time></trkpt><trkpt lat="41.14752463944502" lon="15.379651324345055"><ele>626.4</ele><time>2026-04-19T11:26:17Z</time></trkpt><trkpt lat="41.14759755002928" lon="15.379679376266353"><ele>629.8</ele><time>2026-04-19T11:26:18Z</time></trkpt><trkpt lat="41.14767098846418" lon="15.379732212603109"><ele>633.2</ele><time>2026-04-19T11:26:19Z</time></trkpt><trkpt lat="41.147765654290154" lon="15.37978662298441"><ele>636.6</ele><time>2026-04-19T11:26:20Z</time></trkpt><trkpt lat="41.14788706213486" lon="15.379842740473306"><ele>640.0</ele><time>2026-04-19T11:26:21Z</time></trkpt><trkpt lat="41.148009793470685" lon="15.379912600890716"><ele>640.0</ele><time>2026-04-19T11:26:22Z</time></trkpt><trkpt lat="41.14812965933266" lon="15.379991575293035"><ele>640.0</ele><time>2026-04-19T11:26:23Z</time></trkpt><trkpt lat="41.14820789920938" lon="15.380073124450206"><ele>640.0</ele><time>2026-04-19T11:26:24Z</time></trkpt><trkpt lat="41.148298635603254" lon="15.380154807754641"><ele>640.0</ele><time>2026-04-19T11:26:25Z</time></trkpt><trkpt lat="41.14839216582383" lon="15.380246680402047"><ele>638.25</ele><time>2026-04-19T11:26:26Z</time></trkpt><trkpt lat="41.14848695569376" lon="15.38034869424318"><ele>636.5</ele><time>2026-04-19T11:26:27Z</time></trkpt><trkpt lat="41.14860033125927" lon="15.380456650860623"><ele>634.75</ele><time>2026-04-19T11:26:28Z</time></trkpt><trkpt lat="41.1487390581805" lon="15.38057224515636"><ele>633.0</ele><time>2026-04-19T11:26:29Z</time></trkpt><trkpt lat="41.148867019083" lon="15.380662653376563"><ele>633.0</ele><time>2026-04-19T11:26:30Z</time></trkpt><trkpt lat="41.14898009091598" lon="15.380721166333561"><ele>633.0</ele><time>2026-04-19T11:26:31Z</time></trkpt><trkpt lat="41.149084720248524" lon="15.380770402180362"><ele>633.0</ele><time>2026-04-19T11:26:32Z</time></trkpt><trkpt lat="41.14917705898577" lon="15.380817087751357"><ele>633.0</ele><time>2026-04-19T11:26:33Z</time></trkpt><trkpt lat="41.14926564880867" lon="15.38085875881987"><ele>633.0</ele><time>2026-04-19T11:26:34Z</time></trkpt><trkpt lat="41.14936951382978" lon="15.380891042756652"><ele>638.2</ele><time>2026-04-19T11:26:35Z</time></trkpt><trkpt lat="41.149472221858424" lon="15.380918749532453"><ele>643.4</ele><time>2026-04-19T11:26:36Z</time></trkpt><trkpt lat="41.14957215333068" lon="15.380942504148878"><ele>648.6</ele><time>2026-04-19T11:26:37Z</time></trkpt><trkpt lat="41.14966786424765" lon="15.380987365806908"><ele>653.8000000000001</ele><time>2026-04-19T11:26:38Z</time></trkpt><trkpt lat="41.149761585466905" lon="15.381061807255099"><ele>659.0</ele><time>2026-04-19T11:26:39Z</time></trkpt><trkpt lat="41.14983354863021" lon="15.381142027044575"><ele>658.3333333333333</ele><time>2026-04-19T11:26:40Z</time></trkpt><trkpt lat="41.14990066868892" lon="15.381234060717821"><ele>657.6666666666666</ele><time>2026-04-19T11:26:41Z</time></trkpt><trkpt lat="41.149957296915375" lon="15.381332767305983"><ele>657.0</ele><time>2026-04-19T11:26:42Z</time></trkpt><trkpt lat="41.15000276489518" lon="15.381428143758086"><ele>656.3333333333334</ele><time>2026-04-19T11:26:43Z</time></trkpt><trkpt lat="41.15004027880585" lon="15.381524564099198"><ele>655.6666666666667</ele><time>2026-04-19T11:26:44Z</time></trkpt><trkpt lat="41.15005647643537" lon="15.381617931584143"><ele>655.0</ele><time>2026-04-19T11:26:45Z</time></trkpt><trkpt lat="41.150038403458346" lon="15.381715330978043"><ele>655.0</ele><time>2026-04-19T11:26:46Z</time></trkpt><trkpt lat="41.149993528760604" lon="15.38180469994122"><ele>655.0</ele><time>2026-04-19T11:26:47Z</time></trkpt><trkpt lat="41.149970283417815" lon="15.381897205502277"><ele>655.0</ele><time>2026-04-19T11:26:48Z</time></trkpt><trkpt lat="41.14999159337636" lon="15.381993832818532"><ele>655.0</ele><time>2026-04-19T11:26:49Z</time></trkpt><trkpt lat="41.15003950468541" lon="15.382091153587073"><ele>655.0</ele><time>2026-04-19T11:26:50Z</time></trkpt><trkpt lat="41.150086612139425" lon="15.382171046484908"><ele>655.0</ele><time>2026-04-19T11:26:51Z</time></trkpt><trkpt lat="41.150134455334715" lon="15.382275423038621"><ele>652.5</ele><time>2026-04-19T11:26:53Z</time></trkpt><trkpt lat="41.15015321711439" lon="15.382358071984411"><ele>650.0</ele><time>2026-04-19T11:26:55Z</time></trkpt><trkpt lat="41.15020149507711" lon="15.382439502600933"><ele>647.5</ele><time>2026-04-19T11:26:58Z</time></trkpt><trkpt lat="41.150269545735576" lon="15.38249698433033"><ele>645.0</ele><time>2026-04-19T11:27:00Z</time></trkpt><trkpt lat="41.15034489020147" lon="15.382583359145144"><ele>642.5</ele><time>2026-04-19T11:27:02Z</time></trkpt><trkpt lat="41.15042800427446" lon="15.382669365104208"><ele>640.0</ele><time>2026-04-19T11:27:04Z</time></trkpt><trkpt lat="41.150516738923486" lon="15.382751700348672"><ele>640.0</ele><time>2026-04-19T11:27:06Z</time></trkpt><trkpt lat="41.15060358260512" lon="15.382832858751883"><ele>640.0</ele><time>2026-04-19T11:27:08Z</time></trkpt><trkpt lat="41.1506868906231" lon="15.382908307712539"><ele>640.0</ele><time>2026-04-19T11:27:10Z</time></trkpt><trkpt lat="41.15076183167834" lon="15.382989977487465"><ele>640.0</ele><time>2026-04-19T11:27:12Z</time></trkpt><trkpt lat="41.15082811587017" lon="15.383075754834548"><ele>640.0</ele><time>2026-04-19T11:27:14Z</time></trkpt><trkpt lat="41.150912157514455" lon="15.383143191466111"><ele>639.6666666666667</ele><time>2026-04-19T11:27:16Z</time></trkpt><trkpt lat="41.15099493456765" lon="15.383237800358232"><ele>639.3333333333334</ele><time>2026-04-19T11:27:18Z</time></trkpt><trkpt lat="41.15104923893328" lon="15.38336017460518"><ele>639.0</ele><time>2026-04-19T11:27:20Z</time></trkpt><trkpt lat="41.151089359426685" lon="15.38342958338617"><ele>638.6666666666666</ele><time>2026-04-19T11:27:21Z</time></trkpt><trkpt lat="41.15114453055383" lon="15.383486408374818"><ele>638.3333333333333</ele><time>2026-04-19T11:27:22Z</time></trkpt><trkpt lat="41.15119824342719" lon="15.383534148213004"><ele>638.0</ele><time>2026-04-19T11:27:23Z</time></trkpt><trkpt lat="41.15123559589914" lon="15.383601731939375"><ele>638.0</ele><time>2026-04-19T11:27:24Z</time></trkpt><trkpt lat="41.15127843635834" lon="15.383673972589145"><ele>638.0</ele><time>2026-04-19T11:27:25Z</time></trkpt><trkpt lat="41.151332220128914" lon="15.383725553126512"><ele>638.0</ele><time>2026-04-19T11:27:26Z</time></trkpt><trkpt lat="41.15146109982221" lon="15.38381353636713"><ele>638.0</ele><time>2026-04-19T11:27:28Z</time></trkpt><trkpt lat="41.15152096786498" lon="15.383846996287183"><ele>638.0</ele><time>2026-04-19T11:27:29Z</time></trkpt><trkpt lat="41.15162880351676" lon="15.383888904399615"><ele>636.8</ele><time>2026-04-19T11:27:31Z</time></trkpt><trkpt lat="41.151670384549064" lon="15.383982312602233"><ele>635.5999999999999</ele><time>2026-04-19T11:27:33Z</time></trkpt><trkpt lat="41.15171483156309" lon="15.384138264479649"><ele>634.4000000000001</ele><time>2026-04-19T11:27:35Z</time></trkpt><trkpt lat="41.15174212777025" lon="15.384271446271677"><ele>633.2</ele><time>2026-04-19T11:27:37Z</time></trkpt><trkpt lat="41.15174345322383" lon="15.38441016614721"><ele>632.0</ele><time>2026-04-19T11:27:38.999Z</time></trkpt><trkpt lat="41.151738729017985" lon="15.38451580347778"><ele>632.0</ele><time>2026-04-19T11:27:40.999Z</time></trkpt><trkpt lat="41.151689217596754" lon="15.384584745884178"><ele>632.0</ele><time>2026-04-19T11:28:00Z</time></trkpt><trkpt lat="41.15175519137598" lon="15.384696287129431"><ele>632.0</ele><time>2026-04-19T11:28:06Z</time></trkpt><trkpt lat="41.15183222629837" lon="15.384808320396692"><ele>632.0</ele><time>2026-04-19T11:28:08Z</time></trkpt><trkpt lat="41.15190994274955" lon="15.384896872554044"><ele>632.0</ele><time>2026-04-19T11:28:10Z</time></trkpt><trkpt lat="41.152005215010114" lon="15.384971395643497"><ele>632.6666666666666</ele><time>2026-04-19T11:28:12Z</time></trkpt><trkpt lat="41.15205690159889" lon="15.385052874476827"><ele>633.3333333333333</ele><time>2026-04-19T11:28:13Z</time></trkpt><trkpt lat="41.15211734612566" lon="15.385139551948052"><ele>634.0</ele><time>2026-04-19T11:28:14Z</time></trkpt><trkpt lat="41.15215059419475" lon="15.385219732101868"><ele>634.6666666666666</ele><time>2026-04-19T11:28:15Z</time></trkpt><trkpt lat="41.15218413379969" lon="15.385291413843504"><ele>635.3333333333334</ele><time>2026-04-19T11:28:16Z</time></trkpt><trkpt lat="41.152275710360804" lon="15.385385717392161"><ele>636.0</ele><time>2026-04-19T11:28:18Z</time></trkpt><trkpt lat="41.15238994241653" lon="15.385461369519575"><ele>638.3333333333334</ele><time>2026-04-19T11:28:20Z</time></trkpt><trkpt lat="41.15247426163046" lon="15.38556393194322"><ele>640.6666666666666</ele><time>2026-04-19T11:28:22Z</time></trkpt><trkpt lat="41.152539767688474" lon="15.385642274157997"><ele>643.0</ele><time>2026-04-19T11:28:24Z</time></trkpt><trkpt lat="41.15251742531884" lon="15.385723453968492"><ele>645.3333333333333</ele><time>2026-04-19T11:29:14Z</time></trkpt><trkpt lat="41.15245752608899" lon="15.385764592528298"><ele>647.6666666666666</ele><time>2026-04-19T11:29:18Z</time></trkpt><trkpt lat="41.15239668901711" lon="15.38581140741233"><ele>650.0</ele><time>2026-04-19T11:29:21Z</time></trkpt><trkpt lat="41.15234883773736" lon="15.385894987936057"><ele>650.0</ele><time>2026-04-19T11:29:24Z</time></trkpt><trkpt lat="41.15227241603178" lon="15.385955260478019"><ele>650.0</ele><time>2026-04-19T11:29:27Z</time></trkpt><trkpt lat="41.15220912151773" lon="15.3859901162651"><ele>650.0</ele><time>2026-04-19T11:29:29Z</time></trkpt><trkpt lat="41.15219242654916" lon="15.386118250671897"><ele>650.0</ele><time>2026-04-19T11:29:32Z</time></trkpt><trkpt lat="41.15223629779921" lon="15.386211923277768"><ele>650.0</ele><time>2026-04-19T11:29:34Z</time></trkpt><trkpt lat="41.152261713449015" lon="15.386319176308515"><ele>650.0</ele><time>2026-04-19T11:29:36Z</time></trkpt><trkpt lat="41.15227957343924" lon="15.386411122357412"><ele>650.5</ele><time>2026-04-19T11:29:38Z</time></trkpt><trkpt lat="41.15228746877639" lon="15.386502210043867"><ele>651.0</ele><time>2026-04-19T11:29:40Z</time></trkpt><trkpt lat="41.15229814676763" lon="15.386587913327471"><ele>651.5</ele><time>2026-04-19T11:29:42Z</time></trkpt><trkpt lat="41.15230114632385" lon="15.386696047011382"><ele>652.0</ele><time>2026-04-19T11:29:45Z</time></trkpt><trkpt lat="41.15224871367242" lon="15.386788081041113"><ele>652.5</ele><time>2026-04-19T11:29:46.999Z</time></trkpt><trkpt lat="41.15218273914775" lon="15.386896567140157"><ele>653.0</ele><time>2026-04-19T11:29:48.999Z</time></trkpt><trkpt lat="41.15212026299649" lon="15.387011815341602"><ele>653.0</ele><time>2026-04-19T11:29:50.999Z</time></trkpt><trkpt lat="41.152056804534176" lon="15.387117894757303"><ele>653.0</ele><time>2026-04-19T11:29:53Z</time></trkpt><trkpt lat="41.15199525230922" lon="15.387216145565302"><ele>653.0</ele><time>2026-04-19T11:29:55Z</time></trkpt><trkpt lat="41.151898440594785" lon="15.387324223030145"><ele>653.0</ele><time>2026-04-19T11:29:57Z</time></trkpt><trkpt lat="41.15181799405445" lon="15.387345903892069"><ele>653.0</ele><time>2026-04-19T11:29:59Z</time></trkpt><trkpt lat="41.151736757775694" lon="15.387288447372317"><ele>653.0</ele><time>2026-04-19T11:30:01Z</time></trkpt><trkpt lat="41.15166315607103" lon="15.387180573257861"><ele>653.0</ele><time>2026-04-19T11:30:03Z</time></trkpt><trkpt lat="41.151633782099545" lon="15.387101951311802"><ele>653.0</ele><time>2026-04-19T11:30:04Z</time></trkpt><trkpt lat="41.15162480999365" lon="15.387011635185218"><ele>653.0</ele><time>2026-04-19T11:30:05Z</time></trkpt><trkpt lat="41.1516208456477" lon="15.386898981531626"><ele>653.0</ele><time>2026-04-19T11:30:06Z</time></trkpt><trkpt lat="41.15161815305506" lon="15.38679268309553"><ele>653.0</ele><time>2026-04-19T11:30:07Z</time></trkpt><trkpt lat="41.151602903393695" lon="15.386697308736712"><ele>653.0</ele><time>2026-04-19T11:30:08Z</time></trkpt><trkpt lat="41.15158587967035" lon="15.386587266896415"><ele>653.0</ele><time>2026-04-19T11:30:09Z</time></trkpt><trkpt lat="41.151556364481195" lon="15.38650313435374"><ele>653.0</ele><time>2026-04-19T11:30:10Z</time></trkpt><trkpt lat="41.15152072774374" lon="15.386392495697947"><ele>653.0</ele><time>2026-04-19T11:30:11Z</time></trkpt><trkpt lat="41.15148049149898" lon="15.386281928909666"><ele>653.0</ele><time>2026-04-19T11:30:12Z</time></trkpt><trkpt lat="41.151450145646976" lon="15.386181371260411"><ele>653.0</ele><time>2026-04-19T11:30:13Z</time></trkpt><trkpt lat="41.15142512921227" lon="15.386090186856643"><ele>647.6666666666666</ele><time>2026-04-19T11:30:14Z</time></trkpt><trkpt lat="41.15139687487951" lon="15.3860057935528"><ele>642.3333333333333</ele><time>2026-04-19T11:30:15Z</time></trkpt><trkpt lat="41.151374873501865" lon="15.38591807615683"><ele>637.0</ele><time>2026-04-19T11:30:16Z</time></trkpt><trkpt lat="41.15139474431392" lon="15.385794811246853"><ele>631.6666666666666</ele><time>2026-04-19T11:30:18Z</time></trkpt><trkpt lat="41.151321030759014" lon="15.3857611102304"><ele>626.3333333333334</ele><time>2026-04-19T11:30:23Z</time></trkpt><trkpt lat="41.15126677310384" lon="15.385820608138927"><ele>621.0</ele><time>2026-04-19T11:30:24Z</time></trkpt><trkpt lat="41.151168979098436" lon="15.385896186530703"><ele>621.0</ele><time>2026-04-19T11:30:26Z</time></trkpt><trkpt lat="41.151108018763935" lon="15.385962295810762"><ele>621.0</ele><time>2026-04-19T11:30:28Z</time></trkpt><trkpt lat="41.15105598695139" lon="15.38607675880326"><ele>621.0</ele><time>2026-04-19T11:30:30Z</time></trkpt><trkpt lat="41.151000564761624" lon="15.386198233971994"><ele>621.0</ele><time>2026-04-19T11:30:32Z</time></trkpt><trkpt lat="41.15094615342716" lon="15.386321413085014"><ele>621.0</ele><time>2026-04-19T11:30:34Z</time></trkpt><trkpt lat="41.150901457702695" lon="15.38646975481806"><ele>621.6</ele><time>2026-04-19T11:30:36Z</time></trkpt><trkpt lat="41.150824751795994" lon="15.386572220245938"><ele>622.2</ele><time>2026-04-19T11:30:38Z</time></trkpt><trkpt lat="41.15078601344599" lon="15.38668788545853"><ele>622.8</ele><time>2026-04-19T11:30:40Z</time></trkpt><trkpt lat="41.15080952011919" lon="15.386812251858538"><ele>623.4</ele><time>2026-04-19T11:30:42Z</time></trkpt><trkpt lat="41.15091615638388" lon="15.386944845216103"><ele>624.0</ele><time>2026-04-19T11:30:44Z</time></trkpt><trkpt lat="41.150938449839195" lon="15.387036230787556"><ele>622.6666666666666</ele><time>2026-04-19T11:30:45Z</time></trkpt><trkpt lat="41.150941084477694" lon="15.387207845848094"><ele>621.3333333333334</ele><time>2026-04-19T11:30:47Z</time></trkpt><trkpt lat="41.15095576859006" lon="15.387293775908114"><ele>620.0</ele><time>2026-04-19T11:30:48Z</time></trkpt><trkpt lat="41.150965194307965" lon="15.387390167533617"><ele>618.6666666666667</ele><time>2026-04-19T11:30:49Z</time></trkpt><trkpt lat="41.15096791006939" lon="15.387489638902187"><ele>617.3333333333334</ele><time>2026-04-19T11:30:50Z</time></trkpt><trkpt lat="41.15096980393721" lon="15.387595411794281"><ele>616.0</ele><time>2026-04-19T11:30:51Z</time></trkpt><trkpt lat="41.15095009424464" lon="15.387752859154816"><ele>616.0</ele><time>2026-04-19T11:30:53Z</time></trkpt><trkpt lat="41.15095080579003" lon="15.38794523557106"><ele>616.0</ele><time>2026-04-19T11:30:55Z</time></trkpt><trkpt lat="41.15095580012122" lon="15.38803150259858"><ele>616.0</ele><time>2026-04-19T11:30:56Z</time></trkpt><trkpt lat="41.151022509515705" lon="15.388189124231786"><ele>616.0</ele><time>2026-04-19T11:30:58Z</time></trkpt><trkpt lat="41.15107042611783" lon="15.38825475535051"><ele>616.0</ele><time>2026-04-19T11:30:59Z</time></trkpt><trkpt lat="41.15112979090068" lon="15.388345685398413"><ele>615.8333333333334</ele><time>2026-04-19T11:31:01Z</time></trkpt><trkpt lat="41.15107617551772" lon="15.388452811606872"><ele>615.6666666666667</ele><time>2026-04-19T11:31:04Z</time></trkpt><trkpt lat="41.150975150439905" lon="15.388536158408982"><ele>615.5</ele><time>2026-04-19T11:31:06Z</time></trkpt><trkpt lat="41.15093324551981" lon="15.38860914628382"><ele>615.3333333333334</ele><time>2026-04-19T11:31:07Z</time></trkpt><trkpt lat="41.15089306486032" lon="15.388689664739145"><ele>615.1666666666666</ele><time>2026-04-19T11:31:08Z</time></trkpt><trkpt lat="41.15084947239294" lon="15.388780425698942"><ele>615.0</ele><time>2026-04-19T11:31:09Z</time></trkpt><trkpt lat="41.150802040054245" lon="15.388875945499203"><ele>618.0</ele><time>2026-04-19T11:31:10Z</time></trkpt><trkpt lat="41.150744607753445" lon="15.388980806408759"><ele>621.0</ele><time>2026-04-19T11:31:11Z</time></trkpt><trkpt lat="41.15068579467477" lon="15.389092299984505"><ele>624.0</ele><time>2026-04-19T11:31:12Z</time></trkpt><trkpt lat="41.150635618100246" lon="15.3891939621887"><ele>627.0</ele><time>2026-04-19T11:31:13Z</time></trkpt><trkpt lat="41.150579761253084" lon="15.389280264265253"><ele>630.0</ele><time>2026-04-19T11:31:14Z</time></trkpt><trkpt lat="41.15052903088754" lon="15.389373025346034"><ele>628.0</ele><time>2026-04-19T11:31:15Z</time></trkpt><trkpt lat="41.150481296334036" lon="15.38946473732398"><ele>626.0</ele><time>2026-04-19T11:31:16Z</time></trkpt><trkpt lat="41.150436469574146" lon="15.389557412095114"><ele>624.0</ele><time>2026-04-19T11:31:17Z</time></trkpt><trkpt lat="41.15037991529747" lon="15.389653726210812"><ele>622.0</ele><time>2026-04-19T11:31:18Z</time></trkpt><trkpt lat="41.15033313238381" lon="15.389719342036761"><ele>620.0</ele><time>2026-04-19T11:31:19Z</time></trkpt><trkpt lat="41.15027951334443" lon="15.389803476936795"><ele>618.0</ele><time>2026-04-19T11:31:20Z</time></trkpt><trkpt lat="41.15021620882598" lon="15.389897445942944"><ele>618.0</ele><time>2026-04-19T11:31:21Z</time></trkpt><trkpt lat="41.15015952473705" lon="15.389980548976697"><ele>618.0</ele><time>2026-04-19T11:31:22Z</time></trkpt><trkpt lat="41.150101453183716" lon="15.390050501558754"><ele>618.0</ele><time>2026-04-19T11:31:23Z</time></trkpt><trkpt lat="41.15003597942181" lon="15.39012654464539"><ele>618.0</ele><time>2026-04-19T11:31:24Z</time></trkpt><trkpt lat="41.149974685062716" lon="15.390202032693852"><ele>618.0</ele><time>2026-04-19T11:31:25Z</time></trkpt><trkpt lat="41.149896367677194" lon="15.390284765226502"><ele>618.0</ele><time>2026-04-19T11:31:26Z</time></trkpt><trkpt lat="41.14983123666193" lon="15.390364038248801"><ele>617.8</ele><time>2026-04-19T11:31:27Z</time></trkpt><trkpt lat="41.1497672882348" lon="15.390444191157949"><ele>617.5999999999999</ele><time>2026-04-19T11:31:28Z</time></trkpt><trkpt lat="41.149693635213836" lon="15.390528515307015"><ele>617.4000000000001</ele><time>2026-04-19T11:31:29Z</time></trkpt><trkpt lat="41.14962390048445" lon="15.390608875529267"><ele>617.2</ele><time>2026-04-19T11:31:30Z</time></trkpt><trkpt lat="41.14955771081459" lon="15.39069635112132"><ele>617.0</ele><time>2026-04-19T11:31:31Z</time></trkpt><trkpt lat="41.149479199875415" lon="15.390784508572198"><ele>617.0</ele><time>2026-04-19T11:31:32Z</time></trkpt><trkpt lat="41.14940087952685" lon="15.390864506413521"><ele>617.0</ele><time>2026-04-19T11:31:33Z</time></trkpt><trkpt lat="41.14932378914037" lon="15.390951270962024"><ele>617.0</ele><time>2026-04-19T11:31:34Z</time></trkpt><trkpt lat="41.149249871512865" lon="15.391035790309042"><ele>617.0</ele><time>2026-04-19T11:31:35Z</time></trkpt><trkpt lat="41.149191610345625" lon="15.39109367092805"><ele>617.0</ele><time>2026-04-19T11:31:36Z</time></trkpt><trkpt lat="41.149114604407835" lon="15.391169684981422"><ele>617.0</ele><time>2026-04-19T11:31:38Z</time></trkpt><trkpt lat="41.14908115135987" lon="15.391280381890894"><ele>617.0</ele><time>2026-04-19T11:31:40Z</time></trkpt><trkpt lat="41.149086745758275" lon="15.391430838055554"><ele>617.0</ele><time>2026-04-19T11:31:42Z</time></trkpt><trkpt lat="41.149154917519304" lon="15.391576188851062"><ele>617.0</ele><time>2026-04-19T11:31:44Z</time></trkpt><trkpt lat="41.14920499578682" lon="15.391677063045833"><ele>617.0</ele><time>2026-04-19T11:31:45Z</time></trkpt><trkpt lat="41.14922514001795" lon="15.391779595381438"><ele>617.0</ele><time>2026-04-19T11:31:46Z</time></trkpt><trkpt lat="41.14925562301044" lon="15.391899439427657"><ele>617.0</ele><time>2026-04-19T11:31:47Z</time></trkpt><trkpt lat="41.14928981633827" lon="15.392024090071885"><ele>617.0</ele><time>2026-04-19T11:31:48Z</time></trkpt><trkpt lat="41.14930476222411" lon="15.39213054508657"><ele>617.0</ele><time>2026-04-19T11:31:49Z</time></trkpt><trkpt lat="41.149321116628506" lon="15.392234752772623"><ele>617.0</ele><time>2026-04-19T11:31:50Z</time></trkpt><trkpt lat="41.14933804469901" lon="15.392331321027184"><ele>617.0</ele><time>2026-04-19T11:31:51Z</time></trkpt><trkpt lat="41.149367074736595" lon="15.39242349521316"><ele>617.0</ele><time>2026-04-19T11:31:52Z</time></trkpt><trkpt lat="41.149404203450345" lon="15.39250717489719"><ele>617.0</ele><time>2026-04-19T11:31:53Z</time></trkpt><trkpt lat="41.14946444335266" lon="15.392645353588792"><ele>617.0</ele><time>2026-04-19T11:31:54.999Z</time></trkpt><trkpt lat="41.149502926623676" lon="15.392733808615615"><ele>617.0</ele><time>2026-04-19T11:31:55.999Z</time></trkpt><trkpt lat="41.14953883739804" lon="15.392849469379058"><ele>617.0</ele><time>2026-04-19T11:31:57.999Z</time></trkpt><trkpt lat="41.14955447080904" lon="15.392715511306344"><ele>617.0</ele><time>2026-04-19T11:32:04Z</time></trkpt><trkpt lat="41.149520342780555" lon="15.392550849599388"><ele>617.0</ele><time>2026-04-19T11:32:06Z</time></trkpt><trkpt lat="41.149491973596106" lon="15.392448560062961"><ele>617.0</ele><time>2026-04-19T11:32:07Z</time></trkpt><trkpt lat="41.149479497107656" lon="15.392363964779564"><ele>617.0</ele><time>2026-04-19T11:32:08Z</time></trkpt><trkpt lat="41.14950343777844" lon="15.392241424085272"><ele>617.0</ele><time>2026-04-19T11:32:10Z</time></trkpt><trkpt lat="41.14954726305075" lon="15.39217206572915"><ele>617.0</ele><time>2026-04-19T11:32:12Z</time></trkpt><trkpt lat="41.14961416186905" lon="15.392266461926909"><ele>617.0</ele><time>2026-04-19T11:32:15Z</time></trkpt><trkpt lat="41.14963402032124" lon="15.392357663058899"><ele>617.0</ele><time>2026-04-19T11:32:16Z</time></trkpt><trkpt lat="41.14966352860865" lon="15.392449073724677"><ele>617.0</ele><time>2026-04-19T11:32:17Z</time></trkpt><trkpt lat="41.14968964011442" lon="15.392549727221557"><ele>617.0</ele><time>2026-04-19T11:32:18Z</time></trkpt><trkpt lat="41.14969636980071" lon="15.39263460210613"><ele>617.0</ele><time>2026-04-19T11:32:19Z</time></trkpt><trkpt lat="41.149693220726526" lon="15.39275409683545"><ele>617.0</ele><time>2026-04-19T11:32:21Z</time></trkpt><trkpt lat="41.14974747352695" lon="15.392897462311057"><ele>615.2</ele><time>2026-04-19T11:32:23Z</time></trkpt><trkpt lat="41.14984011219733" lon="15.39303860731622"><ele>613.4000000000001</ele><time>2026-04-19T11:32:25Z</time></trkpt><trkpt lat="41.14991367025907" lon="15.393151258903751"><ele>611.5999999999999</ele><time>2026-04-19T11:32:27Z</time></trkpt><trkpt lat="41.14994022887336" lon="15.39327159717864"><ele>609.8</ele><time>2026-04-19T11:32:29Z</time></trkpt><trkpt lat="41.14996633566216" lon="15.39336195043164"><ele>608.0</ele><time>2026-04-19T11:32:30Z</time></trkpt><trkpt lat="41.15000395920236" lon="15.39346818654424"><ele>615.1666666666666</ele><time>2026-04-19T11:32:31Z</time></trkpt><trkpt lat="41.15001638705442" lon="15.39355429650494"><ele>622.3333333333333</ele><time>2026-04-19T11:32:32Z</time></trkpt><trkpt lat="41.150051334140294" lon="15.39371582604022"><ele>629.5</ele><time>2026-04-19T11:32:34Z</time></trkpt><trkpt lat="41.15008847937759" lon="15.39379230480384"><ele>636.6666666666666</ele><time>2026-04-19T11:32:35Z</time></trkpt><trkpt lat="41.15013538092717" lon="15.39386473358065"><ele>643.8333333333334</ele><time>2026-04-19T11:32:36Z</time></trkpt><trkpt lat="41.1501938340427" lon="15.393914291450157"><ele>651.0</ele><time>2026-04-19T11:32:37Z</time></trkpt><trkpt lat="41.1502816129449" lon="15.393948695587474"><ele>651.0</ele><time>2026-04-19T11:32:39Z</time></trkpt><trkpt lat="41.15035203581738" lon="15.393932655160732"><ele>651.0</ele><time>2026-04-19T11:36:09.999Z</time></trkpt><trkpt lat="41.150419811071025" lon="15.393889810257141"><ele>651.0</ele><time>2026-04-19T11:36:11Z</time></trkpt><trkpt lat="41.15048521147796" lon="15.393824520115503"><ele>651.0</ele><time>2026-04-19T11:36:12Z</time></trkpt><trkpt lat="41.15054101839046" lon="15.39376181110127"><ele>651.0</ele><time>2026-04-19T11:36:13Z</time></trkpt><trkpt lat="41.150621469197496" lon="15.393676172019173"><ele>651.0</ele><time>2026-04-19T11:36:15Z</time></trkpt><trkpt lat="41.150701481013996" lon="15.393607418072808"><ele>657.4</ele><time>2026-04-19T11:36:17Z</time></trkpt><trkpt lat="41.150758473331" lon="15.393512460217577"><ele>663.8</ele><time>2026-04-19T11:36:19Z</time></trkpt><trkpt lat="41.150811747321924" lon="15.393406099019815"><ele>670.1999999999999</ele><time>2026-04-19T11:36:22Z</time></trkpt><trkpt lat="41.15087755145185" lon="15.393364865169081"><ele>676.5999999999999</ele><time>2026-04-19T11:36:24Z</time></trkpt><trkpt lat="41.15093651932814" lon="15.393249781143444"><ele>683.0</ele><time>2026-04-19T11:36:27Z</time></trkpt><trkpt lat="41.15096949958021" lon="15.39312058462994"><ele>683.0</ele><time>2026-04-19T11:36:29Z</time></trkpt><trkpt lat="41.151016029316665" lon="15.393018440077263"><ele>683.0</ele><time>2026-04-19T11:36:31Z</time></trkpt><trkpt lat="41.151074326177394" lon="15.392939236209898"><ele>683.0</ele><time>2026-04-19T11:36:33Z</time></trkpt><trkpt lat="41.15108348011093" lon="15.39281460209781"><ele>683.0</ele><time>2026-04-19T11:36:35Z</time></trkpt><trkpt lat="41.15106464793843" lon="15.392715330688574"><ele>683.0</ele><time>2026-04-19T11:36:36Z</time></trkpt><trkpt lat="41.15104111194993" lon="15.392577905599204"><ele>684.5999999999999</ele><time>2026-04-19T11:36:37Z</time></trkpt><trkpt lat="41.15103458674375" lon="15.392473181303373"><ele>686.1999999999999</ele><time>2026-04-19T11:36:38Z</time></trkpt><trkpt lat="41.15103300101464" lon="15.39237582693219"><ele>687.8</ele><time>2026-04-19T11:36:39Z</time></trkpt><trkpt lat="41.151033035940436" lon="15.392222531424927"><ele>689.4</ele><time>2026-04-19T11:36:41Z</time></trkpt><trkpt lat="41.15105758693278" lon="15.392073900147404"><ele>691.0</ele><time>2026-04-19T11:36:43Z</time></trkpt><trkpt lat="41.15107987333753" lon="15.391988304816469"><ele>691.0</ele><time>2026-04-19T11:36:44Z</time></trkpt><trkpt lat="41.151101262598054" lon="15.391889561115443"><ele>691.0</ele><time>2026-04-19T11:36:45Z</time></trkpt><trkpt lat="41.15111573362861" lon="15.391800941372871"><ele>691.0</ele><time>2026-04-19T11:36:46Z</time></trkpt><trkpt lat="41.15113485927567" lon="15.39170553427674"><ele>691.0</ele><time>2026-04-19T11:36:47Z</time></trkpt><trkpt lat="41.15115655890068" lon="15.391602777745444"><ele>691.0</ele><time>2026-04-19T11:36:48Z</time></trkpt><trkpt lat="41.151182122781385" lon="15.39150147871126"><ele>691.0</ele><time>2026-04-19T11:36:49Z</time></trkpt><trkpt lat="41.1512069814105" lon="15.391392823000826"><ele>689.3333333333334</ele><time>2026-04-19T11:36:50Z</time></trkpt><trkpt lat="41.15122597941109" lon="15.391282447485125"><ele>687.6666666666667</ele><time>2026-04-19T11:36:51Z</time></trkpt><trkpt lat="41.15123927083259" lon="15.391168672419074"><ele>686.0</ele><time>2026-04-19T11:36:52Z</time></trkpt><trkpt lat="41.15125089510006" lon="15.39105572631569"><ele>684.3333333333334</ele><time>2026-04-19T11:36:53Z</time></trkpt><trkpt lat="41.15125711126751" lon="15.390952631198962"><ele>682.6666666666666</ele><time>2026-04-19T11:36:54Z</time></trkpt><trkpt lat="41.15127214632628" lon="15.390858087749871"><ele>681.0</ele><time>2026-04-19T11:36:55Z</time></trkpt><trkpt lat="41.15130760950316" lon="15.390752016455764"><ele>681.0</ele><time>2026-04-19T11:36:56Z</time></trkpt><trkpt lat="41.151362546070104" lon="15.390633075481878"><ele>681.0</ele><time>2026-04-19T11:36:57Z</time></trkpt><trkpt lat="41.15142034917379" lon="15.39053035215105"><ele>681.0</ele><time>2026-04-19T11:36:58Z</time></trkpt><trkpt lat="41.15147545240705" lon="15.390456593869834"><ele>681.0</ele><time>2026-04-19T11:36:59Z</time></trkpt><trkpt lat="41.151522168442966" lon="15.39039006534211"><ele>681.0</ele><time>2026-04-19T11:37:00Z</time></trkpt><trkpt lat="41.151568023052604" lon="15.390319279928994"><ele>681.0</ele><time>2026-04-19T11:37:01Z</time></trkpt><trkpt lat="41.151609185217765" lon="15.390219248675141"><ele>679.5</ele><time>2026-04-19T11:37:02Z</time></trkpt><trkpt lat="41.151640553581245" lon="15.390112730477073"><ele>678.0</ele><time>2026-04-19T11:37:03Z</time></trkpt><trkpt lat="41.15167292425333" lon="15.390027289527252"><ele>676.5</ele><time>2026-04-19T11:37:04Z</time></trkpt><trkpt lat="41.15169760501591" lon="15.38994464958154"><ele>675.0</ele><time>2026-04-19T11:37:05Z</time></trkpt><trkpt lat="41.15173350845326" lon="15.389837286909176"><ele>673.5</ele><time>2026-04-19T11:37:07Z</time></trkpt><trkpt lat="41.15177871432214" lon="15.389965770780536"><ele>672.0</ele><time>2026-04-19T11:37:11Z</time></trkpt><trkpt lat="41.15177118844939" lon="15.390076817077496"><ele>672.0</ele><time>2026-04-19T11:37:12Z</time></trkpt><trkpt lat="41.15176187762722" lon="15.39021890822432"><ele>672.0</ele><time>2026-04-19T11:37:13Z</time></trkpt><trkpt lat="41.15173947620992" lon="15.39036262621839"><ele>672.0</ele><time>2026-04-19T11:37:14Z</time></trkpt><trkpt lat="41.151716800408536" lon="15.390535998226415"><ele>672.0</ele><time>2026-04-19T11:37:15Z</time></trkpt><trkpt lat="41.15169204535961" lon="15.39066293768087"><ele>672.0</ele><time>2026-04-19T11:37:16Z</time></trkpt><trkpt lat="41.15166786869066" lon="15.390787663407622"><ele>672.0</ele><time>2026-04-19T11:37:17Z</time></trkpt><trkpt lat="41.151669150447795" lon="15.390884639749652"><ele>672.0</ele><time>2026-04-19T11:37:18Z</time></trkpt><trkpt lat="41.151740735241326" lon="15.390930432105513"><ele>672.0</ele><time>2026-04-19T11:37:20Z</time></trkpt><trkpt lat="41.151776335856276" lon="15.390844518790475"><ele>672.0</ele><time>2026-04-19T11:37:22Z</time></trkpt><trkpt lat="41.15179784690016" lon="15.390758007764127"><ele>672.0</ele><time>2026-04-19T11:37:23Z</time></trkpt><trkpt lat="41.15183529096462" lon="15.390626048329255"><ele>672.0</ele><time>2026-04-19T11:37:24Z</time></trkpt><trkpt lat="41.15187877383305" lon="15.390472613333852"><ele>672.0</ele><time>2026-04-19T11:37:25Z</time></trkpt><trkpt lat="41.1519262667453" lon="15.390332507471"><ele>672.0</ele><time>2026-04-19T11:37:26Z</time></trkpt><trkpt lat="41.15198509487788" lon="15.390204821187924"><ele>672.0</ele><time>2026-04-19T11:37:27Z</time></trkpt><trkpt lat="41.15205443141172" lon="15.390088084653428"><ele>672.0</ele><time>2026-04-19T11:37:28Z</time></trkpt><trkpt lat="41.15211471654266" lon="15.389982572847877"><ele>672.0</ele><time>2026-04-19T11:37:29Z</time></trkpt><trkpt lat="41.152176281623184" lon="15.38990362721346"><ele>672.0</ele><time>2026-04-19T11:37:30Z</time></trkpt><trkpt lat="41.15226318452799" lon="15.38985086932203"><ele>672.0</ele><time>2026-04-19T11:37:31Z</time></trkpt><trkpt lat="41.15238568965842" lon="15.389807332697076"><ele>672.0</ele><time>2026-04-19T11:37:32Z</time></trkpt><trkpt lat="41.152501640072714" lon="15.389763965146033"><ele>672.0</ele><time>2026-04-19T11:37:33Z</time></trkpt><trkpt lat="41.152610528595105" lon="15.389707504297974"><ele>671.5</ele><time>2026-04-19T11:37:34Z</time></trkpt><trkpt lat="41.15273537509141" lon="15.38962117761568"><ele>671.0</ele><time>2026-04-19T11:37:35Z</time></trkpt><trkpt lat="41.15284967902096" lon="15.389539988960626"><ele>670.5</ele><time>2026-04-19T11:37:36Z</time></trkpt><trkpt lat="41.15296077525031" lon="15.389480885347405"><ele>670.0</ele><time>2026-04-19T11:37:37Z</time></trkpt><trkpt lat="41.15308967057314" lon="15.389424757772128"><ele>667.0</ele><time>2026-04-19T11:37:38Z</time></trkpt><trkpt lat="41.15321252956607" lon="15.389368593597451"><ele>664.0</ele><time>2026-04-19T11:37:39Z</time></trkpt><trkpt lat="41.15332515696114" lon="15.389305677763865"><ele>661.0</ele><time>2026-04-19T11:37:40Z</time></trkpt><trkpt lat="41.15343021918374" lon="15.389229764503318"><ele>658.0</ele><time>2026-04-19T11:37:41Z</time></trkpt><trkpt lat="41.15353216997105" lon="15.389186102984182"><ele>658.0</ele><time>2026-04-19T11:37:42Z</time></trkpt><trkpt lat="41.153638220079706" lon="15.389182134032245"><ele>658.0</ele><time>2026-04-19T11:37:43Z</time></trkpt><trkpt lat="41.153749738527445" lon="15.389172756244973"><ele>658.0</ele><time>2026-04-19T11:37:44Z</time></trkpt><trkpt lat="41.15386693995149" lon="15.389156900723307"><ele>658.0</ele><time>2026-04-19T11:37:45Z</time></trkpt><trkpt lat="41.15397700552651" lon="15.389140466331101"><ele>658.0</ele><time>2026-04-19T11:37:46Z</time></trkpt><trkpt lat="41.15408266318143" lon="15.389123583248574"><ele>657.5</ele><time>2026-04-19T11:37:47Z</time></trkpt><trkpt lat="41.154171677591265" lon="15.389103712288506"><ele>657.0</ele><time>2026-04-19T11:37:48Z</time></trkpt><trkpt lat="41.15424639498647" lon="15.38908986000556"><ele>656.5</ele><time>2026-04-19T11:37:49Z</time></trkpt><trkpt lat="41.1543161441302" lon="15.389060947874292"><ele>656.0</ele><time>2026-04-19T11:37:50Z</time></trkpt><trkpt lat="41.15435949928989" lon="15.388991730118683"><ele>655.5</ele><time>2026-04-19T11:37:51Z</time></trkpt><trkpt lat="41.15440245407401" lon="15.388889449160695"><ele>655.0</ele><time>2026-04-19T11:37:52Z</time></trkpt><trkpt lat="41.15444980223813" lon="15.388758252033314"><ele>655.0</ele><time>2026-04-19T11:37:53Z</time></trkpt><trkpt lat="41.1544947929207" lon="15.388615160084473"><ele>655.0</ele><time>2026-04-19T11:37:54Z</time></trkpt><trkpt lat="41.15453698296055" lon="15.388475015358429"><ele>655.0</ele><time>2026-04-19T11:37:55Z</time></trkpt><trkpt lat="41.15456984028977" lon="15.38835915196389"><ele>655.0</ele><time>2026-04-19T11:37:56Z</time></trkpt><trkpt lat="41.154599352246414" lon="15.388239458936432"><ele>655.0</ele><time>2026-04-19T11:37:57Z</time></trkpt><trkpt lat="41.15464193437036" lon="15.388117005797273"><ele>657.75</ele><time>2026-04-19T11:37:58Z</time></trkpt><trkpt lat="41.15471025961076" lon="15.387990239201889"><ele>660.5</ele><time>2026-04-19T11:37:58.999Z</time></trkpt><trkpt lat="41.15479600184945" lon="15.387889450495132"><ele>663.25</ele><time>2026-04-19T11:37:59.999Z</time></trkpt><trkpt lat="41.154891953105775" lon="15.387808615909668"><ele>666.0</ele><time>2026-04-19T11:38:00.999Z</time></trkpt><trkpt lat="41.154987760517066" lon="15.387734165721199"><ele>659.1999999999999</ele><time>2026-04-19T11:38:01.999Z</time></trkpt><trkpt lat="41.15505908117428" lon="15.387661684682037"><ele>652.4</ele><time>2026-04-19T11:38:02.999Z</time></trkpt><trkpt lat="41.1551274956727" lon="15.387566696740565"><ele>645.6</ele><time>2026-04-19T11:38:03.999Z</time></trkpt><trkpt lat="41.155198899441345" lon="15.387482524677964"><ele>638.8</ele><time>2026-04-19T11:38:04.999Z</time></trkpt><trkpt lat="41.1552449562496" lon="15.387406308238267"><ele>632.0</ele><time>2026-04-19T11:38:05.999Z</time></trkpt><trkpt lat="41.15529093780968" lon="15.38727378127902"><ele>631.8000000000001</ele><time>2026-04-19T11:38:06.999Z</time></trkpt><trkpt lat="41.155336070095146" lon="15.387134568584138"><ele>631.6</ele><time>2026-04-19T11:38:07.999Z</time></trkpt><trkpt lat="41.155355019106956" lon="15.387037097522045"><ele>631.4000000000001</ele><time>2026-04-19T11:38:08.999Z</time></trkpt><trkpt lat="41.15534111555323" lon="15.386942974794525"><ele>631.2</ele><time>2026-04-19T11:38:09.999Z</time></trkpt><trkpt lat="41.155319303762376" lon="15.386828872505484"><ele>631.0</ele><time>2026-04-19T11:38:10.999Z</time></trkpt><trkpt lat="41.155293314807324" lon="15.386672749092758"><ele>631.0</ele><time>2026-04-19T11:38:11.999Z</time></trkpt><trkpt lat="41.15527961239158" lon="15.386544217069433"><ele>631.0</ele><time>2026-04-19T11:38:12.999Z</time></trkpt><trkpt lat="41.155249443643875" lon="15.386450928324772"><ele>631.0</ele><time>2026-04-19T11:38:13.999Z</time></trkpt><trkpt lat="41.155205047470204" lon="15.386387388379976"><ele>631.0</ele><time>2026-04-19T11:38:14.999Z</time></trkpt><trkpt lat="41.15513638852196" lon="15.386279741549934"><ele>631.0</ele><time>2026-04-19T11:38:17Z</time></trkpt><trkpt lat="41.15520892198469" lon="15.386259279149117"><ele>631.0</ele><time>2026-04-19T11:38:20Z</time></trkpt><trkpt lat="41.15527565904848" lon="15.386376953022637"><ele>631.0</ele><time>2026-04-19T11:38:22Z</time></trkpt><trkpt lat="41.15531608826455" lon="15.386473389709776"><ele>631.0</ele><time>2026-04-19T11:38:23Z</time></trkpt><trkpt lat="41.1553888013901" lon="15.386570458957676"><ele>631.0</ele><time>2026-04-19T11:38:24Z</time></trkpt><trkpt lat="41.1554820292807" lon="15.38667749304417"><ele>631.0</ele><time>2026-04-19T11:38:25Z</time></trkpt><trkpt lat="41.1555712291838" lon="15.386774091134521"><ele>631.0</ele><time>2026-04-19T11:38:26Z</time></trkpt><trkpt lat="41.15565745291335" lon="15.38684606040427"><ele>626.6666666666667</ele><time>2026-04-19T11:38:27Z</time></trkpt><trkpt lat="41.15574841981881" lon="15.386905847668086"><ele>622.3333333333334</ele><time>2026-04-19T11:38:28Z</time></trkpt><trkpt lat="41.155830461846655" lon="15.386979476653876"><ele>618.0</ele><time>2026-04-19T11:38:29Z</time></trkpt><trkpt lat="41.1558846361586" lon="15.387047561188833"><ele>613.6666666666666</ele><time>2026-04-19T11:38:30Z</time></trkpt><trkpt lat="41.15591395990735" lon="15.387127003454259"><ele>609.3333333333333</ele><time>2026-04-19T11:38:31Z</time></trkpt><trkpt lat="41.15590823922116" lon="15.387217140208097"><ele>605.0</ele><time>2026-04-19T11:38:32Z</time></trkpt><trkpt lat="41.15589566164215" lon="15.387329179149159"><ele>605.0</ele><time>2026-04-19T11:38:33Z</time></trkpt><trkpt lat="41.15589298908607" lon="15.387487805911858"><ele>605.0</ele><time>2026-04-19T11:38:34Z</time></trkpt><trkpt lat="41.15588028401098" lon="15.387638036721745"><ele>605.0</ele><time>2026-04-19T11:38:35Z</time></trkpt><trkpt lat="41.15584184857965" lon="15.38776853720124"><ele>605.0</ele><time>2026-04-19T11:38:36Z</time></trkpt><trkpt lat="41.15580397305352" lon="15.387913882138756"><ele>603.5</ele><time>2026-04-19T11:38:37Z</time></trkpt><trkpt lat="41.15579183679268" lon="15.388082864537889"><ele>602.0</ele><time>2026-04-19T11:38:38Z</time></trkpt><trkpt lat="41.15579635260173" lon="15.388252389859488"><ele>600.5</ele><time>2026-04-19T11:38:39Z</time></trkpt><trkpt lat="41.155802307576145" lon="15.388394400072452"><ele>599.0</ele><time>2026-04-19T11:38:40Z</time></trkpt><trkpt lat="41.1558125901731" lon="15.388532980630877"><ele>599.0</ele><time>2026-04-19T11:38:41Z</time></trkpt><trkpt lat="41.155831457330336" lon="15.388698961162847"><ele>599.0</ele><time>2026-04-19T11:38:42Z</time></trkpt><trkpt lat="41.155846797226076" lon="15.38886814460803"><ele>599.0</ele><time>2026-04-19T11:38:43Z</time></trkpt><trkpt lat="41.15586501153984" lon="15.389004466122515"><ele>599.0</ele><time>2026-04-19T11:38:44Z</time></trkpt><trkpt lat="41.1559056195008" lon="15.389147349143112"><ele>597.75</ele><time>2026-04-19T11:38:45Z</time></trkpt><trkpt lat="41.15593877118835" lon="15.389285984033245"><ele>596.5</ele><time>2026-04-19T11:38:46Z</time></trkpt><trkpt lat="41.15597572225485" lon="15.389445787409624"><ele>595.25</ele><time>2026-04-19T11:38:47Z</time></trkpt><trkpt lat="41.15604382489317" lon="15.389567262202196"><ele>594.0</ele><time>2026-04-19T11:38:48Z</time></trkpt><trkpt lat="41.156104971241675" lon="15.389681698731978"><ele>593.5</ele><time>2026-04-19T11:38:49Z</time></trkpt><trkpt lat="41.156160289086465" lon="15.389788626776992"><ele>593.0</ele><time>2026-04-19T11:38:50Z</time></trkpt><trkpt lat="41.156210825620846" lon="15.389893446254776"><ele>592.5</ele><time>2026-04-19T11:38:51Z</time></trkpt><trkpt lat="41.15624369460365" lon="15.389992659998477"><ele>592.0</ele><time>2026-04-19T11:38:52Z</time></trkpt><trkpt lat="41.15623857362116" lon="15.390086723358506"><ele>591.5</ele><time>2026-04-19T11:38:53Z</time></trkpt><trkpt lat="41.15621116059722" lon="15.390194764098737"><ele>591.0</ele><time>2026-04-19T11:38:54Z</time></trkpt><trkpt lat="41.156186070179" lon="15.390306283944723"><ele>591.0</ele><time>2026-04-19T11:38:55Z</time></trkpt><trkpt lat="41.15616204398537" lon="15.39041105950099"><ele>591.0</ele><time>2026-04-19T11:38:56Z</time></trkpt><trkpt lat="41.15612016037729" lon="15.390529124590763"><ele>591.0</ele><time>2026-04-19T11:38:57Z</time></trkpt><trkpt lat="41.15605852908914" lon="15.390647510195981"><ele>591.0</ele><time>2026-04-19T11:38:58Z</time></trkpt><trkpt lat="41.15599390856137" lon="15.390754776929917"><ele>591.0</ele><time>2026-04-19T11:38:59Z</time></trkpt><trkpt lat="41.15593580934695" lon="15.390839580742664"><ele>587.25</ele><time>2026-04-19T11:39:00Z</time></trkpt><trkpt lat="41.15581789006816" lon="15.390894297545485"><ele>583.5</ele><time>2026-04-19T11:39:02Z</time></trkpt><trkpt lat="41.15571625609563" lon="15.390910505634452"><ele>579.75</ele><time>2026-04-19T11:39:03Z</time></trkpt><trkpt lat="41.1555913461098" lon="15.390930953644572"><ele>576.0</ele><time>2026-04-19T11:39:04Z</time></trkpt><trkpt lat="41.155477420114394" lon="15.390993526164541"><ele>576.0</ele><time>2026-04-19T11:39:05Z</time></trkpt><trkpt lat="41.15537439035477" lon="15.39109438500481"><ele>576.0</ele><time>2026-04-19T11:39:06Z</time></trkpt><trkpt lat="41.15527784830559" lon="15.39118075971857"><ele>576.0</ele><time>2026-04-19T11:39:07Z</time></trkpt><trkpt lat="41.15518425452154" lon="15.391243572445603"><ele>576.0</ele><time>2026-04-19T11:39:08Z</time></trkpt><trkpt lat="41.15509053093245" lon="15.391298113708705"><ele>574.6</ele><time>2026-04-19T11:39:09Z</time></trkpt><trkpt lat="41.15500739157792" lon="15.391346260046143"><ele>573.2</ele><time>2026-04-19T11:39:10Z</time></trkpt><trkpt lat="41.15492489313057" lon="15.391400323977045"><ele>571.8</ele><time>2026-04-19T11:39:11Z</time></trkpt><trkpt lat="41.154843674276236" lon="15.391485791660855"><ele>570.4</ele><time>2026-04-19T11:39:12Z</time></trkpt><trkpt lat="41.15477094786642" lon="15.391586299945354"><ele>569.0</ele><time>2026-04-19T11:39:13Z</time></trkpt><trkpt lat="41.15471040343315" lon="15.391677740903788"><ele>569.0</ele><time>2026-04-19T11:39:14Z</time></trkpt><trkpt lat="41.15467719728261" lon="15.391752525674693"><ele>569.0</ele><time>2026-04-19T11:39:15Z</time></trkpt><trkpt lat="41.15466343290704" lon="15.391838048904212"><ele>569.0</ele><time>2026-04-19T11:39:16Z</time></trkpt><trkpt lat="41.15466990490431" lon="15.391947696481228"><ele>569.0</ele><time>2026-04-19T11:39:17Z</time></trkpt><trkpt lat="41.154653098770595" lon="15.392061740779328"><ele>569.0</ele><time>2026-04-19T11:39:18Z</time></trkpt><trkpt lat="41.154545279874846" lon="15.392188719656232"><ele>569.0</ele><time>2026-04-19T11:39:20Z</time></trkpt><trkpt lat="41.15446163510289" lon="15.39225391418138"><ele>564.3333333333333</ele><time>2026-04-19T11:39:21Z</time></trkpt><trkpt lat="41.15438572832125" lon="15.392332041574"><ele>559.6666666666666</ele><time>2026-04-19T11:39:22Z</time></trkpt><trkpt lat="41.15432006575026" lon="15.392409789606255"><ele>555.0</ele><time>2026-04-19T11:39:23Z</time></trkpt><trkpt lat="41.15426593391505" lon="15.392485959823327"><ele>550.3333333333334</ele><time>2026-04-19T11:39:24Z</time></trkpt><trkpt lat="41.15421859782588" lon="15.392562007514353"><ele>545.6666666666667</ele><time>2026-04-19T11:39:25Z</time></trkpt><trkpt lat="41.154185668008225" lon="15.392652756223196"><ele>541.0</ele><time>2026-04-19T11:39:26Z</time></trkpt><trkpt lat="41.15418062087333" lon="15.392757060188336"><ele>541.0</ele><time>2026-04-19T11:39:27Z</time></trkpt><trkpt lat="41.15419852967351" lon="15.392861874912207"><ele>541.0</ele><time>2026-04-19T11:39:28Z</time></trkpt><trkpt lat="41.154207498781005" lon="15.392978804177028"><ele>541.0</ele><time>2026-04-19T11:39:29Z</time></trkpt><trkpt lat="41.154187635208174" lon="15.393101892776448"><ele>541.0</ele><time>2026-04-19T11:39:30Z</time></trkpt><trkpt lat="41.154151246920065" lon="15.393259492035188"><ele>541.0</ele><time>2026-04-19T11:39:31Z</time></trkpt><trkpt lat="41.15411373994111" lon="15.393399642353314"><ele>540.4</ele><time>2026-04-19T11:39:32Z</time></trkpt><trkpt lat="41.154083213374086" lon="15.393511909773087"><ele>539.8</ele><time>2026-04-19T11:39:33Z</time></trkpt><trkpt lat="41.154054521866186" lon="15.393644170512024"><ele>539.1999999999999</ele><time>2026-04-19T11:39:34Z</time></trkpt><trkpt lat="41.15402837739474" lon="15.393768685513425"><ele>538.6</ele><time>2026-04-19T11:39:35Z</time></trkpt><trkpt lat="41.15400641468904" lon="15.393883939348182"><ele>538.0</ele><time>2026-04-19T11:39:36Z</time></trkpt><trkpt lat="41.153979178681006" lon="15.393970623306666"><ele>538.0</ele><time>2026-04-19T11:39:37Z</time></trkpt><trkpt lat="41.153941398311005" lon="15.394069702876951"><ele>538.0</ele><time>2026-04-19T11:39:38Z</time></trkpt><trkpt lat="41.153888755569305" lon="15.394174509087282"><ele>538.0</ele><time>2026-04-19T11:39:39Z</time></trkpt><trkpt lat="41.15383451969231" lon="15.39429313295029"><ele>538.0</ele><time>2026-04-19T11:39:40Z</time></trkpt><trkpt lat="41.153809105832664" lon="15.39439885403051"><ele>538.0</ele><time>2026-04-19T11:39:41Z</time></trkpt><trkpt lat="41.15380699053446" lon="15.394525367890667"><ele>535.6666666666667</ele><time>2026-04-19T11:39:42Z</time></trkpt><trkpt lat="41.153812895368205" lon="15.394680027488723"><ele>533.3333333333334</ele><time>2026-04-19T11:39:43Z</time></trkpt><trkpt lat="41.15380809490817" lon="15.394796260289048"><ele>531.0</ele><time>2026-04-19T11:39:44Z</time></trkpt><trkpt lat="41.1537790847321" lon="15.39487520121047"><ele>528.6666666666666</ele><time>2026-04-19T11:39:45Z</time></trkpt><trkpt lat="41.15372879457954" lon="15.39494061483574"><ele>526.3333333333333</ele><time>2026-04-19T11:39:46Z</time></trkpt><trkpt lat="41.15366221572592" lon="15.395040969910795"><ele>524.0</ele><time>2026-04-19T11:39:47Z</time></trkpt><trkpt lat="41.15354504824129" lon="15.395091756948133"><ele>524.0</ele><time>2026-04-19T11:39:48Z</time></trkpt><trkpt lat="41.15346052328229" lon="15.3951960393088"><ele>524.0</ele><time>2026-04-19T11:39:49Z</time></trkpt><trkpt lat="41.153370629564165" lon="15.39528549339298"><ele>524.0</ele><time>2026-04-19T11:39:50Z</time></trkpt><trkpt lat="41.153277880583886" lon="15.39536923763297"><ele>524.0</ele><time>2026-04-19T11:39:51Z</time></trkpt><trkpt lat="41.1531827970313" lon="15.395457510613369"><ele>528.6</ele><time>2026-04-19T11:39:52Z</time></trkpt><trkpt lat="41.1530982349701" lon="15.395536343826196"><ele>533.2</ele><time>2026-04-19T11:39:53Z</time></trkpt><trkpt lat="41.153004318287316" lon="15.395603301351994"><ele>537.8000000000001</ele><time>2026-04-19T11:39:54Z</time></trkpt><trkpt lat="41.15290975710563" lon="15.395662734181283"><ele>542.4</ele><time>2026-04-19T11:39:55Z</time></trkpt><trkpt lat="41.152849847085264" lon="15.395740454849893"><ele>547.0</ele><time>2026-04-19T11:39:56Z</time></trkpt><trkpt lat="41.1528126515024" lon="15.395811459224095"><ele>547.0</ele><time>2026-04-19T11:39:57Z</time></trkpt><trkpt lat="41.15275139472639" lon="15.395907719853943"><ele>547.0</ele><time>2026-04-19T11:39:58Z</time></trkpt><trkpt lat="41.15269409873901" lon="15.395995427833144"><ele>547.0</ele><time>2026-04-19T11:39:59Z</time></trkpt><trkpt lat="41.15264101182382" lon="15.39605925758132"><ele>547.0</ele><time>2026-04-19T11:40:00Z</time></trkpt><trkpt lat="41.15251628461848" lon="15.396134059421938"><ele>547.0</ele><time>2026-04-19T11:40:01.999Z</time></trkpt><trkpt lat="41.15243679701059" lon="15.39617567391739"><ele>548.5</ele><time>2026-04-19T11:40:02.999Z</time></trkpt><trkpt lat="41.15233057519448" lon="15.396227800331667"><ele>550.0</ele><time>2026-04-19T11:40:03.999Z</time></trkpt><trkpt lat="41.15221570831326" lon="15.39629146970536"><ele>551.5</ele><time>2026-04-19T11:40:04.999Z</time></trkpt><trkpt lat="41.15210083870154" lon="15.396343612321477"><ele>553.0</ele><time>2026-04-19T11:40:05.999Z</time></trkpt><trkpt lat="41.15197828999437" lon="15.396404622997744"><ele>553.0</ele><time>2026-04-19T11:40:06.999Z</time></trkpt><trkpt lat="41.151886186593046" lon="15.396443102093281"><ele>553.0</ele><time>2026-04-19T11:40:07.999Z</time></trkpt><trkpt lat="41.151816356894564" lon="15.396447327394867"><ele>553.0</ele><time>2026-04-19T11:40:08.999Z</time></trkpt><trkpt lat="41.15173096785222" lon="15.396442080348928"><ele>553.0</ele><time>2026-04-19T11:40:09.999Z</time></trkpt><trkpt lat="41.151626422955644" lon="15.396430771010815"><ele>553.0</ele><time>2026-04-19T11:40:10.999Z</time></trkpt><trkpt lat="41.15153235866242" lon="15.396419019080477"><ele>555.5</ele><time>2026-04-19T11:40:11.999Z</time></trkpt><trkpt lat="41.15141757792069" lon="15.39641099010372"><ele>558.0</ele><time>2026-04-19T11:40:12.999Z</time></trkpt><trkpt lat="41.15127588813114" lon="15.396443592145289"><ele>560.5</ele><time>2026-04-19T11:40:13.999Z</time></trkpt><trkpt lat="41.151148163583315" lon="15.396408252894517"><ele>563.0</ele><time>2026-04-19T11:40:14.999Z</time></trkpt><trkpt lat="41.15104534575203" lon="15.396408430110416"><ele>563.0</ele><time>2026-04-19T11:40:15.999Z</time></trkpt><trkpt lat="41.150943121787236" lon="15.396464590156373"><ele>563.0</ele><time>2026-04-19T11:40:16.999Z</time></trkpt><trkpt lat="41.15081674165892" lon="15.39651866566272"><ele>563.0</ele><time>2026-04-19T11:40:17.999Z</time></trkpt><trkpt lat="41.15068112080512" lon="15.396550572381521"><ele>563.0</ele><time>2026-04-19T11:40:18.999Z</time></trkpt><trkpt lat="41.15058477789526" lon="15.396579093636774"><ele>561.6</ele><time>2026-04-19T11:40:19.999Z</time></trkpt><trkpt lat="41.150517143071795" lon="15.396598654757032"><ele>560.1999999999999</ele><time>2026-04-19T11:40:20.999Z</time></trkpt><trkpt lat="41.15045757261422" lon="15.396513298536513"><ele>558.8</ele><time>2026-04-19T11:40:23Z</time></trkpt><trkpt lat="41.15040405731183" lon="15.396435008588531"><ele>557.4</ele><time>2026-04-19T11:40:24Z</time></trkpt><trkpt lat="41.15031126232201" lon="15.396335189496359"><ele>556.0</ele><time>2026-04-19T11:40:25Z</time></trkpt><trkpt lat="41.15023375657969" lon="15.396210979164445"><ele>557.6</ele><time>2026-04-19T11:40:26Z</time></trkpt><trkpt lat="41.1501669485435" lon="15.396112846291787"><ele>559.2</ele><time>2026-04-19T11:40:27Z</time></trkpt><trkpt lat="41.15008759741764" lon="15.396034465387437"><ele>560.8</ele><time>2026-04-19T11:40:28Z</time></trkpt><trkpt lat="41.149978700511035" lon="15.395961028503102"><ele>562.4</ele><time>2026-04-19T11:40:29Z</time></trkpt><trkpt lat="41.14986390125385" lon="15.39590532593674"><ele>564.0</ele><time>2026-04-19T11:40:30Z</time></trkpt><trkpt lat="41.14976489090864" lon="15.395869363661653"><ele>564.0</ele><time>2026-04-19T11:40:31Z</time></trkpt><trkpt lat="41.149668558537684" lon="15.395838967464814"><ele>564.0</ele><time>2026-04-19T11:40:32Z</time></trkpt><trkpt lat="41.14957386706709" lon="15.395831064426265"><ele>564.0</ele><time>2026-04-19T11:40:33Z</time></trkpt><trkpt lat="41.14949110421035" lon="15.395830305950367"><ele>564.0</ele><time>2026-04-19T11:40:34Z</time></trkpt><trkpt lat="41.14940469477763" lon="15.395815855960493"><ele>564.0</ele><time>2026-04-19T11:40:35Z</time></trkpt><trkpt lat="41.1493253116374" lon="15.395793577791334"><ele>564.0</ele><time>2026-04-19T11:40:36Z</time></trkpt><trkpt lat="41.14925431034939" lon="15.395758584455304"><ele>564.0</ele><time>2026-04-19T11:40:37Z</time></trkpt><trkpt lat="41.14918637048629" lon="15.395740422222222"><ele>564.0</ele><time>2026-04-19T11:40:38Z</time></trkpt><trkpt lat="41.14912085637473" lon="15.395732791509978"><ele>564.0</ele><time>2026-04-19T11:40:39Z</time></trkpt><trkpt lat="41.148989113424285" lon="15.395729007849008"><ele>564.0</ele><time>2026-04-19T11:40:41Z</time></trkpt><trkpt lat="41.14887447458202" lon="15.395720769499828"><ele>564.0</ele><time>2026-04-19T11:40:43Z</time></trkpt><trkpt lat="41.1487885144758" lon="15.395674754310345"><ele>557.8</ele><time>2026-04-19T11:40:45Z</time></trkpt><trkpt lat="41.148727318881214" lon="15.395643554918514"><ele>551.5999999999999</ele><time>2026-04-19T11:40:49Z</time></trkpt><trkpt lat="41.14871186996256" lon="15.395841025490434"><ele>545.4</ele><time>2026-04-19T11:40:52Z</time></trkpt><trkpt lat="41.14861874547386" lon="15.395929620473586"><ele>539.1999999999999</ele><time>2026-04-19T11:40:57Z</time></trkpt><trkpt lat="41.1485571640178" lon="15.39594906772993"><ele>533.0</ele><time>2026-04-19T11:40:58Z</time></trkpt><trkpt lat="41.14848431695562" lon="15.395987067694104"><ele>533.0</ele><time>2026-04-19T11:41:00Z</time></trkpt><trkpt lat="41.14842142626973" lon="15.396030851071744"><ele>533.0</ele><time>2026-04-19T11:41:02Z</time></trkpt><trkpt lat="41.148334774858014" lon="15.395972575668733"><ele>533.0</ele><time>2026-04-19T11:41:05Z</time></trkpt><trkpt lat="41.14826065723173" lon="15.395879683991142"><ele>533.0</ele><time>2026-04-19T11:41:07Z</time></trkpt><trkpt lat="41.14820247505649" lon="15.395983886938925"><ele>533.0</ele><time>2026-04-19T11:41:09Z</time></trkpt><trkpt lat="41.148215353403565" lon="15.39607543417359"><ele>533.0</ele><time>2026-04-19T11:41:10Z</time></trkpt><trkpt lat="41.14823416721207" lon="15.396183889594953"><ele>533.0</ele><time>2026-04-19T11:41:11Z</time></trkpt><trkpt lat="41.148215438864895" lon="15.396281896441264"><ele>533.0</ele><time>2026-04-19T11:41:12Z</time></trkpt><trkpt lat="41.14814741617687" lon="15.396339528501795"><ele>533.0</ele><time>2026-04-19T11:41:14Z</time></trkpt><trkpt lat="41.14803681972478" lon="15.396168885262403"><ele>533.0</ele><time>2026-04-19T11:41:16Z</time></trkpt><trkpt lat="41.147981497352035" lon="15.396077017739156"><ele>533.0</ele><time>2026-04-19T11:41:17Z</time></trkpt><trkpt lat="41.14792584420547" lon="15.396014150432451"><ele>530.0</ele><time>2026-04-19T11:41:18Z</time></trkpt><trkpt lat="41.14786056436042" lon="15.395985909856261"><ele>527.0</ele><time>2026-04-19T11:41:19Z</time></trkpt><trkpt lat="41.14777580947403" lon="15.396004065784973"><ele>524.0</ele><time>2026-04-19T11:41:20Z</time></trkpt><trkpt lat="41.14770695655476" lon="15.39604950649109"><ele>521.0</ele><time>2026-04-19T11:41:21Z</time></trkpt><trkpt lat="41.14768255046183" lon="15.3962152907344"><ele>518.0</ele><time>2026-04-19T11:41:22Z</time></trkpt><trkpt lat="41.14768370942529" lon="15.396353336602113"><ele>517.1999999999999</ele><time>2026-04-19T11:41:23Z</time></trkpt><trkpt lat="41.147710946357726" lon="15.396477593536764"><ele>516.4</ele><time>2026-04-19T11:41:24Z</time></trkpt><trkpt lat="41.14777254809493" lon="15.396586172459953"><ele>515.5999999999999</ele><time>2026-04-19T11:41:25Z</time></trkpt><trkpt lat="41.14782927061816" lon="15.396711446026947"><ele>514.8</ele><time>2026-04-19T11:41:26Z</time></trkpt><trkpt lat="41.14791914889118" lon="15.396834670902635"><ele>514.0</ele><time>2026-04-19T11:41:27Z</time></trkpt><trkpt lat="41.148018105952666" lon="15.397002914161911"><ele>514.6666666666667</ele><time>2026-04-19T11:41:28Z</time></trkpt><trkpt lat="41.148104592508794" lon="15.397229937072195"><ele>515.3333333333334</ele><time>2026-04-19T11:41:29Z</time></trkpt><trkpt lat="41.14817847895666" lon="15.397414234862763"><ele>516.0</ele><time>2026-04-19T11:41:30Z</time></trkpt><trkpt lat="41.14824593005421" lon="15.39761059438098"><ele>516.0</ele><time>2026-04-19T11:41:31Z</time></trkpt><trkpt lat="41.14828096078436" lon="15.397787621656482"><ele>516.0</ele><time>2026-04-19T11:41:32Z</time></trkpt><trkpt lat="41.148300331381115" lon="15.397960773853164"><ele>516.0</ele><time>2026-04-19T11:41:33Z</time></trkpt><trkpt lat="41.14830323733034" lon="15.39812901982344"><ele>516.0</ele><time>2026-04-19T11:41:34Z</time></trkpt><trkpt lat="41.14830381781996" lon="15.398290419864335"><ele>514.75</ele><time>2026-04-19T11:41:35Z</time></trkpt><trkpt lat="41.148301936007144" lon="15.398445547576456"><ele>513.5</ele><time>2026-04-19T11:41:36Z</time></trkpt><trkpt lat="41.14829775117305" lon="15.398609168688058"><ele>512.25</ele><time>2026-04-19T11:41:37Z</time></trkpt><trkpt lat="41.148294057653466" lon="15.398779440797712"><ele>511.0</ele><time>2026-04-19T11:41:38Z</time></trkpt><trkpt lat="41.148292243186525" lon="15.398934122686581"><ele>510.25</ele><time>2026-04-19T11:41:39Z</time></trkpt><trkpt lat="41.14830195730696" lon="15.399088556240788"><ele>509.5</ele><time>2026-04-19T11:41:40Z</time></trkpt><trkpt lat="41.1483420588754" lon="15.399253734118238"><ele>508.75</ele><time>2026-04-19T11:41:41Z</time></trkpt><trkpt lat="41.1484019897651" lon="15.399427178030937"><ele>508.0</ele><time>2026-04-19T11:41:42Z</time></trkpt><trkpt lat="41.14847921532357" lon="15.399623056866805"><ele>507.5</ele><time>2026-04-19T11:41:43Z</time></trkpt><trkpt lat="41.14855295243668" lon="15.399814676771046"><ele>507.0</ele><time>2026-04-19T11:41:44Z</time></trkpt><trkpt lat="41.14858601649496" lon="15.399959839788787"><ele>506.5</ele><time>2026-04-19T11:41:45Z</time></trkpt><trkpt lat="41.14860574036771" lon="15.400122300871576"><ele>506.0</ele><time>2026-04-19T11:41:46Z</time></trkpt><trkpt lat="41.14861710449848" lon="15.400322646028195"><ele>504.3333333333333</ele><time>2026-04-19T11:41:47Z</time></trkpt><trkpt lat="41.14863853615581" lon="15.400589854058676"><ele>502.66666666666663</ele><time>2026-04-19T11:41:48Z</time></trkpt><trkpt lat="41.14869364790082" lon="15.400867313269396"><ele>501.0</ele><time>2026-04-19T11:41:49Z</time></trkpt><trkpt lat="41.14876355064994" lon="15.401115667387026"><ele>501.0</ele><time>2026-04-19T11:41:50Z</time></trkpt><trkpt lat="41.14882420695463" lon="15.401330523009976"><ele>501.0</ele><time>2026-04-19T11:41:51Z</time></trkpt><trkpt lat="41.148866806702614" lon="15.401528998812623"><ele>501.0</ele><time>2026-04-19T11:41:52Z</time></trkpt><trkpt lat="41.14894153145442" lon="15.401707672903276"><ele>500.75</ele><time>2026-04-19T11:41:53Z</time></trkpt><trkpt lat="41.14903709528109" lon="15.401847257720616"><ele>500.5</ele><time>2026-04-19T11:41:54Z</time></trkpt><trkpt lat="41.14910246019744" lon="15.401991542138715"><ele>500.25</ele><time>2026-04-19T11:41:55Z</time></trkpt><trkpt lat="41.14917639713377" lon="15.402116520932195"><ele>500.0</ele><time>2026-04-19T11:41:56Z</time></trkpt><trkpt lat="41.149238741918936" lon="15.402224435059239"><ele>499.4</ele><time>2026-04-19T11:41:57Z</time></trkpt><trkpt lat="41.149300866904845" lon="15.402296449830738"><ele>498.8</ele><time>2026-04-19T11:41:58Z</time></trkpt><trkpt lat="41.149334878850006" lon="15.402368670573216"><ele>498.20000000000005</ele><time>2026-04-19T11:41:58.999Z</time></trkpt><trkpt lat="41.14939466043053" lon="15.40249431840469"><ele>497.6</ele><time>2026-04-19T11:42:00.999Z</time></trkpt><trkpt lat="41.14945363786619" lon="15.402598729626213"><ele>497.0</ele><time>2026-04-19T11:42:01.999Z</time></trkpt><trkpt lat="41.149524643721705" lon="15.402726886747327"><ele>497.0</ele><time>2026-04-19T11:42:02.999Z</time></trkpt><trkpt lat="41.149626239621135" lon="15.402881851118241"><ele>497.0</ele><time>2026-04-19T11:42:03.999Z</time></trkpt><trkpt lat="41.149714971190505" lon="15.403056718589067"><ele>497.0</ele><time>2026-04-19T11:42:04.999Z</time></trkpt><trkpt lat="41.14981076373194" lon="15.403236659304126"><ele>494.0</ele><time>2026-04-19T11:42:05.999Z</time></trkpt><trkpt lat="41.14988329090397" lon="15.403374805629365"><ele>491.0</ele><time>2026-04-19T11:42:06.999Z</time></trkpt><trkpt lat="41.14995821922163" lon="15.40350539735703"><ele>488.0</ele><time>2026-04-19T11:42:07.999Z</time></trkpt><trkpt lat="41.15004262095322" lon="15.40362788234154"><ele>485.0</ele><time>2026-04-19T11:42:08.999Z</time></trkpt><trkpt lat="41.1501590448716" lon="15.403744729915665"><ele>486.66666666666663</ele><time>2026-04-19T11:42:09.999Z</time></trkpt><trkpt lat="41.150303415426016" lon="15.40387141605618"><ele>488.33333333333337</ele><time>2026-04-19T11:42:10.999Z</time></trkpt><trkpt lat="41.15045669144523" lon="15.404018710948609"><ele>490.0</ele><time>2026-04-19T11:42:11.999Z</time></trkpt><trkpt lat="41.15059504686753" lon="15.404174895116382"><ele>490.0</ele><time>2026-04-19T11:42:12.999Z</time></trkpt><trkpt lat="41.15067216003811" lon="15.404361411465585"><ele>490.0</ele><time>2026-04-19T11:42:13.999Z</time></trkpt><trkpt lat="41.15073692077206" lon="15.404540709270046"><ele>490.0</ele><time>2026-04-19T11:42:14.999Z</time></trkpt><trkpt lat="41.150837322621314" lon="15.404699203717014"><ele>490.6666666666667</ele><time>2026-04-19T11:42:15.999Z</time></trkpt><trkpt lat="41.1509407709763" lon="15.404871432641844"><ele>491.33333333333337</ele><time>2026-04-19T11:42:16.999Z</time></trkpt><trkpt lat="41.151074920328014" lon="15.405040693152262"><ele>492.0</ele><time>2026-04-19T11:42:17.999Z</time></trkpt><trkpt lat="41.15119205727539" lon="15.405189475011563"><ele>492.0</ele><time>2026-04-19T11:42:18.999Z</time></trkpt><trkpt lat="41.15130139624897" lon="15.405294480109545"><ele>492.0</ele><time>2026-04-19T11:42:19.999Z</time></trkpt><trkpt lat="41.15140284482658" lon="15.40537953823878"><ele>492.0</ele><time>2026-04-19T11:42:20.999Z</time></trkpt><trkpt lat="41.15149189668975" lon="15.40548400668139"><ele>492.0</ele><time>2026-04-19T11:42:21.999Z</time></trkpt><trkpt lat="41.15156489365052" lon="15.405607687405405"><ele>491.20000000000005</ele><time>2026-04-19T11:42:22.999Z</time></trkpt><trkpt lat="41.151621856775826" lon="15.405709636315153"><ele>490.40000000000003</ele><time>2026-04-19T11:42:23.999Z</time></trkpt><trkpt lat="41.151667264349946" lon="15.405782369187193"><ele>489.59999999999997</ele><time>2026-04-19T11:42:24.999Z</time></trkpt><trkpt lat="41.15175634831145" lon="15.40585785746303"><ele>488.79999999999995</ele><time>2026-04-19T11:42:26.999Z</time></trkpt><trkpt lat="41.151801851758314" lon="15.405681702088959"><ele>488.0</ele><time>2026-04-19T11:42:32Z</time></trkpt><trkpt lat="41.151811138069675" lon="15.405543305063585"><ele>486.99999999999994</ele><time>2026-04-19T11:42:34Z</time></trkpt><trkpt lat="41.15187110771868" lon="15.405476099549038"><ele>486.0</ele><time>2026-04-19T11:42:36Z</time></trkpt><trkpt lat="41.151979825021485" lon="15.405428382719922"><ele>485.0</ele><time>2026-04-19T11:42:38Z</time></trkpt><trkpt lat="41.152044010788885" lon="15.405405722638058"><ele>484.0</ele><time>2026-04-19T11:42:39Z</time></trkpt><trkpt lat="41.15210266902175" lon="15.405374779632826"><ele>482.99999999999994</ele><time>2026-04-19T11:42:40Z</time></trkpt><trkpt lat="41.15213226026002" lon="15.405265593504092"><ele>482.0</ele><time>2026-04-19T11:42:42Z</time></trkpt><trkpt lat="41.15217038691513" lon="15.405112692898268"><ele>482.0</ele><time>2026-04-19T11:42:44Z</time></trkpt><trkpt lat="41.15219305837371" lon="15.405009224359784"><ele>482.00000000000006</ele><time>2026-04-19T11:42:45Z</time></trkpt><trkpt lat="41.15226550821145" lon="15.404921199359109"><ele>482.00000000000006</ele><time>2026-04-19T11:42:47Z</time></trkpt><trkpt lat="41.1523318221625" lon="15.405024677361633"><ele>482.0</ele><time>2026-04-19T11:42:50Z</time></trkpt><trkpt lat="41.15244000026264" lon="15.405063598475747"><ele>482.0</ele><time>2026-04-19T11:42:52Z</time></trkpt><trkpt lat="41.15251228806104" lon="15.405050818580344"><ele>477.6</ele><time>2026-04-19T11:42:53Z</time></trkpt><trkpt lat="41.15257951816259" lon="15.404969133791163"><ele>473.20000000000005</ele><time>2026-04-19T11:42:55Z</time></trkpt><trkpt lat="41.15262960197427" lon="15.404852883477078"><ele>468.8</ele><time>2026-04-19T11:42:57Z</time></trkpt><trkpt lat="41.15274586732658" lon="15.404776081939008"><ele>464.4</ele><time>2026-04-19T11:42:59Z</time></trkpt><trkpt lat="41.15282368342612" lon="15.40470217805381"><ele>460.0</ele><time>2026-04-19T11:43:01Z</time></trkpt><trkpt lat="41.15282919063697" lon="15.404533775849885"><ele>458.6</ele><time>2026-04-19T11:43:03Z</time></trkpt><trkpt lat="41.152860414912325" lon="15.404398588325044"><ele>457.2</ele><time>2026-04-19T11:43:05Z</time></trkpt><trkpt lat="41.152914235685174" lon="15.404339442148999"><ele>455.79999999999995</ele><time>2026-04-19T11:43:07Z</time></trkpt><trkpt lat="41.15297231036123" lon="15.404302838655637"><ele>454.4</ele><time>2026-04-19T11:43:09Z</time></trkpt><trkpt lat="41.15306550056228" lon="15.404386453866252"><ele>453.0</ele><time>2026-04-19T11:43:11Z</time></trkpt><trkpt lat="41.153178304596594" lon="15.404418568099373"><ele>450.0</ele><time>2026-04-19T11:43:13Z</time></trkpt><trkpt lat="41.15323412038725" lon="15.404525100550028"><ele>446.99999999999994</ele><time>2026-04-19T11:43:15Z</time></trkpt><trkpt lat="41.15331246189657" lon="15.404629217135795"><ele>443.99999999999994</ele><time>2026-04-19T11:43:17Z</time></trkpt><trkpt lat="41.15341756272363" lon="15.404656283881828"><ele>441.0</ele><time>2026-04-19T11:43:19Z</time></trkpt><trkpt lat="41.15348196604821" lon="15.404668964303202"><ele>438.0</ele><time>2026-04-19T11:43:20Z</time></trkpt><trkpt lat="41.15358095698328" lon="15.404762664931548"><ele>438.0</ele><time>2026-04-19T11:43:22Z</time></trkpt><trkpt lat="41.15367283495848" lon="15.404833231964783"><ele>438.0</ele><time>2026-04-19T11:43:24Z</time></trkpt><trkpt lat="41.1537279680117" lon="15.404901681761471"><ele>438.0</ele><time>2026-04-19T11:43:25Z</time></trkpt><trkpt lat="41.153808049225105" lon="15.404984725611863"><ele>438.0</ele><time>2026-04-19T11:43:26Z</time></trkpt><trkpt lat="41.15385426439648" lon="15.405048725571445"><ele>438.0</ele><time>2026-04-19T11:43:27Z</time></trkpt><trkpt lat="41.1539312339269" lon="15.405095620936503"><ele>438.0</ele><time>2026-04-19T11:43:29Z</time></trkpt><trkpt lat="41.154056866102096" lon="15.405174580417814"><ele>435.0</ele><time>2026-04-19T11:43:31Z</time></trkpt><trkpt lat="41.15415883837028" lon="15.405213738667214"><ele>432.0</ele><time>2026-04-19T11:43:32Z</time></trkpt><trkpt lat="41.154224767639676" lon="15.405240394626597"><ele>429.0</ele><time>2026-04-19T11:43:33Z</time></trkpt><trkpt lat="41.15425967870153" lon="15.405335767959858"><ele>426.0</ele><time>2026-04-19T11:43:35Z</time></trkpt><trkpt lat="41.15433539792075" lon="15.40535026506694"><ele>423.0</ele><time>2026-04-19T11:43:37Z</time></trkpt><trkpt lat="41.15442929107893" lon="15.40526195990966"><ele>420.0</ele><time>2026-04-19T11:43:39Z</time></trkpt><trkpt lat="41.15454266646857" lon="15.405334019445341"><ele>420.0</ele><time>2026-04-19T11:43:41Z</time></trkpt><trkpt lat="41.15462460790295" lon="15.405318200097623"><ele>420.0</ele><time>2026-04-19T11:43:42Z</time></trkpt><trkpt lat="41.154765815412645" lon="15.405373005569976"><ele>420.0</ele><time>2026-04-19T11:43:44Z</time></trkpt><trkpt lat="41.154830273030164" lon="15.405441638322493"><ele>420.0</ele><time>2026-04-19T11:43:45Z</time></trkpt><trkpt lat="41.154886085217996" lon="15.405518627356773"><ele>420.0</ele><time>2026-04-19T11:43:46Z</time></trkpt><trkpt lat="41.15493457479804" lon="15.405611530327844"><ele>418.6</ele><time>2026-04-19T11:43:47Z</time></trkpt><trkpt lat="41.15501344953527" lon="15.405725575380217"><ele>417.2</ele><time>2026-04-19T11:43:49Z</time></trkpt><trkpt lat="41.15510430150809" lon="15.40576370263716"><ele>415.79999999999995</ele><time>2026-04-19T11:43:50Z</time></trkpt><trkpt lat="41.15517170572447" lon="15.405791688508922"><ele>414.4</ele><time>2026-04-19T11:43:51Z</time></trkpt><trkpt lat="41.155299635968625" lon="15.405803675568707"><ele>413.0</ele><time>2026-04-19T11:43:53Z</time></trkpt><trkpt lat="41.155400005635" lon="15.405877621569942"><ele>412.99999999999994</ele><time>2026-04-19T11:43:55Z</time></trkpt><trkpt lat="41.15550611896681" lon="15.40584522267913"><ele>413.0</ele><time>2026-04-19T11:43:56.999Z</time></trkpt><trkpt lat="41.1556324084279" lon="15.405870459134084"><ele>413.0</ele><time>2026-04-19T11:43:58.999Z</time></trkpt><trkpt lat="41.155699928128065" lon="15.405833694223341"><ele>413.0</ele><time>2026-04-19T11:43:59.999Z</time></trkpt><trkpt lat="41.155770540764664" lon="15.40581006922155"><ele>412.99999999999994</ele><time>2026-04-19T11:44:00.999Z</time></trkpt><trkpt lat="41.155836181767484" lon="15.40580122383817"><ele>413.0</ele><time>2026-04-19T11:44:01.999Z</time></trkpt><trkpt lat="41.15593812534963" lon="15.40580222596751"><ele>410.66666666666663</ele><time>2026-04-19T11:44:03.999Z</time></trkpt><trkpt lat="41.1560056158647" lon="15.405839524509483"><ele>408.3333333333333</ele><time>2026-04-19T11:44:04.999Z</time></trkpt><trkpt lat="41.156081840878834" lon="15.405874162643924"><ele>406.0</ele><time>2026-04-19T11:44:05.999Z</time></trkpt><trkpt lat="41.15616205848362" lon="15.40590686556714"><ele>403.66666666666663</ele><time>2026-04-19T11:44:06.999Z</time></trkpt><trkpt lat="41.15623473976454" lon="15.405930730742677"><ele>401.3333333333333</ele><time>2026-04-19T11:44:07.999Z</time></trkpt><trkpt lat="41.156314232580655" lon="15.405916284944178"><ele>399.0</ele><time>2026-04-19T11:44:08.999Z</time></trkpt><trkpt lat="41.15637722248241" lon="15.405900795997928"><ele>399.0</ele><time>2026-04-19T11:44:09.999Z</time></trkpt><trkpt lat="41.15650108931856" lon="15.40590355399602"><ele>399.0</ele><time>2026-04-19T11:44:11.999Z</time></trkpt><trkpt lat="41.15660956560786" lon="15.40592548832587"><ele>399.0</ele><time>2026-04-19T11:44:13.999Z</time></trkpt><trkpt lat="41.15666744044381" lon="15.405960500060726"><ele>399.0</ele><time>2026-04-19T11:44:14.999Z</time></trkpt><trkpt lat="41.156730784891906" lon="15.406060427758026"><ele>399.0</ele><time>2026-04-19T11:44:17.999Z</time></trkpt><trkpt lat="41.15678590026106" lon="15.406112732676311"><ele>397.6666666666667</ele><time>2026-04-19T11:44:18.999Z</time></trkpt><trkpt lat="41.156866617039384" lon="15.406098643824114"><ele>396.33333333333337</ele><time>2026-04-19T11:44:19.999Z</time></trkpt><trkpt lat="41.15696151904372" lon="15.406086421970029"><ele>395.0</ele><time>2026-04-19T11:44:20.999Z</time></trkpt><trkpt lat="41.157034489989705" lon="15.406089953117808"><ele>393.6666666666667</ele><time>2026-04-19T11:44:21.999Z</time></trkpt><trkpt lat="41.15708855968269" lon="15.40603529522493"><ele>392.33333333333337</ele><time>2026-04-19T11:44:23.999Z</time></trkpt><trkpt lat="41.157096920412336" lon="15.40594354912621"><ele>391.0</ele><time>2026-04-19T11:44:24.999Z</time></trkpt><trkpt lat="41.15711627731176" lon="15.405851356424966"><ele>391.00000000000006</ele><time>2026-04-19T11:44:25.999Z</time></trkpt><trkpt lat="41.15718701701541" lon="15.405803134793752"><ele>391.0</ele><time>2026-04-19T11:44:27.999Z</time></trkpt><trkpt lat="41.15725918723377" lon="15.405809881560563"><ele>391.0</ele><time>2026-04-19T11:44:28.999Z</time></trkpt><trkpt lat="41.15733105120252" lon="15.405840874860361"><ele>391.0</ele><time>2026-04-19T11:44:29.999Z</time></trkpt><trkpt lat="41.15739323046571" lon="15.405860633918211"><ele>391.00000000000006</ele><time>2026-04-19T11:44:30.999Z</time></trkpt><trkpt lat="41.157515618289764" lon="15.405894146867011"><ele>391.0</ele><time>2026-04-19T11:44:32.999Z</time></trkpt><trkpt lat="41.15759860472794" lon="15.40599529673063"><ele>390.83333333333337</ele><time>2026-04-19T11:44:35Z</time></trkpt><trkpt lat="41.157668775964474" lon="15.406025813656617"><ele>390.6666666666667</ele><time>2026-04-19T11:44:36Z</time></trkpt><trkpt lat="41.15772968554647" lon="15.40615727555626"><ele>390.5</ele><time>2026-04-19T11:44:39Z</time></trkpt><trkpt lat="41.157799252127255" lon="15.406248758116487"><ele>390.33333333333337</ele><time>2026-04-19T11:44:41Z</time></trkpt><trkpt lat="41.157878840343976" lon="15.406253185919283"><ele>390.1666666666667</ele><time>2026-04-19T11:44:43Z</time></trkpt><trkpt lat="41.15794858966676" lon="15.406303082116791"><ele>390.0</ele><time>2026-04-19T11:44:45Z</time></trkpt><trkpt lat="41.1580025189199" lon="15.406372128705783"><ele>390.0</ele><time>2026-04-19T11:44:47Z</time></trkpt><trkpt lat="41.157986065933606" lon="15.40646833405757"><ele>390.0</ele><time>2026-04-19T11:44:49Z</time></trkpt><trkpt lat="41.15797440616101" lon="15.40669028625867"><ele>390.0</ele><time>2026-04-19T11:44:51Z</time></trkpt><trkpt lat="41.15795522975439" lon="15.406780091682144"><ele>390.0</ele><time>2026-04-19T11:44:52Z</time></trkpt><trkpt lat="41.157958507056385" lon="15.40687197146731"><ele>390.0</ele><time>2026-04-19T11:44:53Z</time></trkpt><trkpt lat="41.15798221173655" lon="15.406985348347922"><ele>390.0</ele><time>2026-04-19T11:44:55Z</time></trkpt><trkpt lat="41.15802954960999" lon="15.407141038404601"><ele>390.0</ele><time>2026-04-19T11:44:57Z</time></trkpt><trkpt lat="41.1580607315123" lon="15.407213724217542"><ele>390.0</ele><time>2026-04-19T11:44:58Z</time></trkpt><trkpt lat="41.1581201474" lon="15.407312886691589"><ele>390.0</ele><time>2026-04-19T11:45:00Z</time></trkpt><trkpt lat="41.158134818778834" lon="15.407450994023788"><ele>390.0</ele><time>2026-04-19T11:45:02Z</time></trkpt><trkpt lat="41.158079507934836" lon="15.40754170560205"><ele>390.3333333333333</ele><time>2026-04-19T11:45:05Z</time></trkpt><trkpt lat="41.15809836022527" lon="15.407633943196965"><ele>390.66666666666663</ele><time>2026-04-19T11:45:07Z</time></trkpt><trkpt lat="41.15815852671169" lon="15.407743101361367"><ele>391.0</ele><time>2026-04-19T11:45:10Z</time></trkpt><trkpt lat="41.15821024331372" lon="15.40779227710716"><ele>391.3333333333333</ele><time>2026-04-19T11:45:11Z</time></trkpt><trkpt lat="41.15823009416594" lon="15.407948747726167"><ele>391.66666666666663</ele><time>2026-04-19T11:45:13Z</time></trkpt><trkpt lat="41.158233175281794" lon="15.408049232914138"><ele>392.0</ele><time>2026-04-19T11:45:14Z</time></trkpt><trkpt lat="41.15835892788742" lon="15.40814941870419"><ele>386.8333333333333</ele><time>2026-04-19T11:45:15Z</time></trkpt><trkpt lat="41.158343717927615" lon="15.40823703639405"><ele>381.66666666666663</ele><time>2026-04-19T11:45:19Z</time></trkpt><trkpt lat="41.15832949119858" lon="15.40832934658435"><ele>376.5</ele><time>2026-04-19T11:45:21Z</time></trkpt><trkpt lat="41.15831442536266" lon="15.408439022644764"><ele>371.3333333333333</ele><time>2026-04-19T11:45:24Z</time></trkpt><trkpt lat="41.15830729841052" lon="15.408526090546417"><ele>366.16666666666663</ele><time>2026-04-19T11:45:25Z</time></trkpt><trkpt lat="41.1583498754843" lon="15.408627854459933"><ele>361.0</ele><time>2026-04-19T11:45:27Z</time></trkpt><trkpt lat="41.158312060297234" lon="15.408824292170664"><ele>359.75</ele><time>2026-04-19T11:45:29Z</time></trkpt><trkpt lat="41.15829538766681" lon="15.40897879213574"><ele>358.5</ele><time>2026-04-19T11:45:30Z</time></trkpt><trkpt lat="41.15827623072728" lon="15.409158402956221"><ele>357.25</ele><time>2026-04-19T11:45:31Z</time></trkpt><trkpt lat="41.158258372673885" lon="15.40932642486072"><ele>356.0</ele><time>2026-04-19T11:45:32Z</time></trkpt><trkpt lat="41.15824461768696" lon="15.409465245832303"><ele>356.0</ele><time>2026-04-19T11:45:33Z</time></trkpt><trkpt lat="41.158232089953785" lon="15.409591680749422"><ele>356.0</ele><time>2026-04-19T11:45:34Z</time></trkpt><trkpt lat="41.15822143484922" lon="15.409707971173484"><ele>356.0</ele><time>2026-04-19T11:45:35Z</time></trkpt><trkpt lat="41.15824644702244" lon="15.409844825743079"><ele>356.0</ele><time>2026-04-19T11:45:36Z</time></trkpt><trkpt lat="41.158268088466784" lon="15.409957781311165"><ele>356.0</ele><time>2026-04-19T11:45:37Z</time></trkpt><trkpt lat="41.15828914725962" lon="15.410045284222164"><ele>356.0</ele><time>2026-04-19T11:45:38Z</time></trkpt><trkpt lat="41.158317301928165" lon="15.410177519113226"><ele>355.33333333333337</ele><time>2026-04-19T11:45:40Z</time></trkpt><trkpt lat="41.158355619680314" lon="15.410266490812383"><ele>354.6666666666667</ele><time>2026-04-19T11:45:42Z</time></trkpt><trkpt lat="41.158385541470835" lon="15.410346754069417"><ele>354.0</ele><time>2026-04-19T11:45:44Z</time></trkpt><trkpt lat="41.1583845384554" lon="15.410445441310866"><ele>353.3333333333333</ele><time>2026-04-19T11:45:46Z</time></trkpt><trkpt lat="41.15846367571709" lon="15.410503996232269"><ele>352.66666666666663</ele><time>2026-04-19T11:45:49Z</time></trkpt><trkpt lat="41.158530139451194" lon="15.410502039525642"><ele>352.0</ele><time>2026-04-19T11:45:52Z</time></trkpt><trkpt lat="41.158634809690625" lon="15.410509361219054"><ele>351.8571428571429</ele><time>2026-04-19T11:45:55Z</time></trkpt><trkpt lat="41.15872480744888" lon="15.41053552613439"><ele>351.7142857142857</ele><time>2026-04-19T11:45:57Z</time></trkpt><trkpt lat="41.15879112496469" lon="15.410534369081041"><ele>351.57142857142856</ele><time>2026-04-19T11:45:59Z</time></trkpt><trkpt lat="41.15882846672291" lon="15.410619996845263"><ele>351.42857142857144</ele><time>2026-04-19T11:46:02Z</time></trkpt><trkpt lat="41.15879417148734" lon="15.410699215555864"><ele>351.2857142857143</ele><time>2026-04-19T11:46:06.999Z</time></trkpt><trkpt lat="41.15873037051997" lon="15.41068940883009"><ele>351.14285714285717</ele><time>2026-04-19T11:47:04Z</time></trkpt><trkpt lat="41.15868346995985" lon="15.41074915253998"><ele>351.0</ele><time>2026-04-19T11:47:12Z</time></trkpt><trkpt lat="41.15864352073127" lon="15.410677651227573"><ele>351.0</ele><time>2026-04-19T11:48:10Z</time></trkpt><trkpt lat="41.15865772491767" lon="15.410763434118136"><ele>351.0</ele><time>2026-04-19T11:57:23Z</time></trkpt><trkpt lat="41.158470954173" lon="15.410702068083909"><ele>351.0</ele><time>2026-04-19T12:02:44.999Z</time></trkpt><trkpt lat="41.15854360981864" lon="15.410714407404711"><ele>351.0</ele><time>2026-04-19T12:02:46.999Z</time></trkpt><trkpt lat="41.158616618221" lon="15.410722290254489"><ele>351.0</ele><time>2026-04-19T12:02:48.999Z</time></trkpt><trkpt lat="41.15880022537647" lon="15.410729784092304"><ele>351.0</ele><time>2026-04-19T12:06:29.999Z</time></trkpt><trkpt lat="41.15866105186786" lon="15.410732961539988"><ele>351.0</ele><time>2026-04-19T12:06:30.999Z</time></trkpt><trkpt lat="41.15845256405789" lon="15.410629321324235"><ele>351.0</ele><time>2026-04-19T12:10:20Z</time></trkpt><trkpt lat="41.158630287832636" lon="15.410721672223469"><ele>351.0</ele><time>2026-04-19T12:10:24Z</time></trkpt><trkpt lat="41.15869908504012" lon="15.410726590676596"><ele>351.0</ele><time>2026-04-19T12:12:01.001Z</time></trkpt><trkpt lat="41.15875312481391" lon="15.410681708618732"><ele>351.0</ele><time>2026-04-19T12:12:12Z</time></trkpt><trkpt lat="41.15881996697315" lon="15.410614481013713"><ele>351.0</ele><time>2026-04-19T12:14:37Z</time></trkpt><trkpt lat="41.158743815318466" lon="15.410566823373644"><ele>351.0</ele><time>2026-04-19T12:14:40Z</time></trkpt><trkpt lat="41.15865986271029" lon="15.41053073900722"><ele>351.0</ele><time>2026-04-19T12:14:42Z</time></trkpt><trkpt lat="41.158564719832285" lon="15.410506039308093"><ele>351.0</ele><time>2026-04-19T12:14:44Z</time></trkpt><trkpt lat="41.1584838831318" lon="15.41049896457188"><ele>351.0</ele><time>2026-04-19T12:14:46Z</time></trkpt><trkpt lat="41.15841220154665" lon="15.410448913622728"><ele>351.0</ele><time>2026-04-19T12:14:49Z</time></trkpt><trkpt lat="41.15840439020374" lon="15.410356301373332"><ele>351.0</ele><time>2026-04-19T12:15:57Z</time></trkpt><trkpt lat="41.15840836140012" lon="15.410251554695465"><ele>351.0</ele><time>2026-04-19T12:19:33Z</time></trkpt><trkpt lat="41.15839063606473" lon="15.410129789543188"><ele>351.0</ele><time>2026-04-19T12:25:53Z</time></trkpt><trkpt lat="41.15833428457478" lon="15.410044706687168"><ele>351.1666666666667</ele><time>2026-04-19T12:25:56Z</time></trkpt><trkpt lat="41.15830201401352" lon="15.409949724653938"><ele>351.3333333333333</ele><time>2026-04-19T12:25:58Z</time></trkpt><trkpt lat="41.15830389468545" lon="15.409842087506776"><ele>351.5</ele><time>2026-04-19T12:26:08Z</time></trkpt><trkpt lat="41.15828887835281" lon="15.409748138980355"><ele>351.66666666666663</ele><time>2026-04-19T12:26:10Z</time></trkpt><trkpt lat="41.1582774763483" lon="15.409632461842211"><ele>351.8333333333333</ele><time>2026-04-19T12:26:12Z</time></trkpt><trkpt lat="41.15828134182589" lon="15.40953071954776"><ele>352.0</ele><time>2026-04-19T12:26:13Z</time></trkpt><trkpt lat="41.15828763680775" lon="15.409424539664123"><ele>352.8</ele><time>2026-04-19T12:26:13.999Z</time></trkpt><trkpt lat="41.15829639882895" lon="15.409334449095434"><ele>353.6</ele><time>2026-04-19T12:26:14.999Z</time></trkpt><trkpt lat="41.15831274529145" lon="15.409220763397904"><ele>354.40000000000003</ele><time>2026-04-19T12:26:16.999Z</time></trkpt><trkpt lat="41.158334077824435" lon="15.409089961704275"><ele>355.20000000000005</ele><time>2026-04-19T12:26:18.999Z</time></trkpt><trkpt lat="41.15835187504326" lon="15.408928092095165"><ele>356.0</ele><time>2026-04-19T12:26:20.999Z</time></trkpt><trkpt lat="41.1583581113441" lon="15.408813296784695"><ele>356.83333333333337</ele><time>2026-04-19T12:26:22.999Z</time></trkpt><trkpt lat="41.15836824231659" lon="15.40873009476993"><ele>357.6666666666667</ele><time>2026-04-19T12:26:23.999Z</time></trkpt><trkpt lat="41.158375448519244" lon="15.408642558015398"><ele>358.5</ele><time>2026-04-19T12:26:24.999Z</time></trkpt><trkpt lat="41.15836552548187" lon="15.40855516654862"><ele>359.3333333333333</ele><time>2026-04-19T12:26:25.999Z</time></trkpt><trkpt lat="41.15838628661563" lon="15.40846624348262"><ele>360.16666666666663</ele><time>2026-04-19T12:26:27.999Z</time></trkpt><trkpt lat="41.1582634727103" lon="15.408416926540092"><ele>361.0</ele><time>2026-04-19T12:26:28.999Z</time></trkpt><trkpt lat="41.15821453542061" lon="15.408355087592867"><ele>365.4</ele><time>2026-04-19T12:26:30Z</time></trkpt><trkpt lat="41.15812174170488" lon="15.408344716772968"><ele>369.8</ele><time>2026-04-19T12:26:32Z</time></trkpt><trkpt lat="41.15809698343654" lon="15.408431489489347"><ele>374.2</ele><time>2026-04-19T12:26:34Z</time></trkpt><trkpt lat="41.158040933047744" lon="15.408528567763016"><ele>378.59999999999997</ele><time>2026-04-19T12:26:37Z</time></trkpt><trkpt lat="41.157963553437575" lon="15.408660582395017"><ele>383.0</ele><time>2026-04-19T12:26:39Z</time></trkpt><trkpt lat="41.15789459458824" lon="15.408784231186115"><ele>381.33333333333337</ele><time>2026-04-19T12:26:41Z</time></trkpt><trkpt lat="41.15785267165939" lon="15.408859840994765"><ele>379.6666666666667</ele><time>2026-04-19T12:26:42Z</time></trkpt><trkpt lat="41.157806908667325" lon="15.40894112286056"><ele>378.0</ele><time>2026-04-19T12:26:44Z</time></trkpt><trkpt lat="41.1577563961771" lon="15.409025935323353"><ele>376.3333333333333</ele><time>2026-04-19T12:26:46Z</time></trkpt><trkpt lat="41.157692774579786" lon="15.40913275849206"><ele>374.66666666666663</ele><time>2026-04-19T12:26:48Z</time></trkpt><trkpt lat="41.15765331812569" lon="15.4091983445704"><ele>373.0</ele><time>2026-04-19T12:26:50Z</time></trkpt><trkpt lat="41.15760784219374" lon="15.409273571170838"><ele>373.0</ele><time>2026-04-19T12:26:52Z</time></trkpt><trkpt lat="41.157565943131495" lon="15.40934396139463"><ele>373.0</ele><time>2026-04-19T12:26:53Z</time></trkpt><trkpt lat="41.157524592569615" lon="15.40941906068843"><ele>373.0</ele><time>2026-04-19T12:26:54Z</time></trkpt><trkpt lat="41.15748322102262" lon="15.409505448327174"><ele>373.0</ele><time>2026-04-19T12:26:56Z</time></trkpt><trkpt lat="41.15743940419107" lon="15.409604632152925"><ele>373.0</ele><time>2026-04-19T12:26:58Z</time></trkpt><trkpt lat="41.15740027775482" lon="15.409700856743694"><ele>373.0</ele><time>2026-04-19T12:27:00Z</time></trkpt><trkpt lat="41.15736981882202" lon="15.409776938524091"><ele>373.0</ele><time>2026-04-19T12:27:01Z</time></trkpt><trkpt lat="41.157324175951615" lon="15.409890947430805"><ele>375.8333333333333</ele><time>2026-04-19T12:27:03Z</time></trkpt><trkpt lat="41.157292535963705" lon="15.40996997925845"><ele>378.66666666666663</ele><time>2026-04-19T12:27:05Z</time></trkpt><trkpt lat="41.15723256440053" lon="15.410119778788479"><ele>381.5</ele><time>2026-04-19T12:27:08Z</time></trkpt><trkpt lat="41.1571998744484" lon="15.410192225593436"><ele>384.3333333333333</ele><time>2026-04-19T12:27:09Z</time></trkpt><trkpt lat="41.157161756026746" lon="15.410276136468788"><ele>387.1666666666667</ele><time>2026-04-19T12:27:11Z</time></trkpt><trkpt lat="41.15711242811588" lon="15.410371918604682"><ele>390.0</ele><time>2026-04-19T12:27:13Z</time></trkpt><trkpt lat="41.157046063425916" lon="15.410489859637675"><ele>388.8</ele><time>2026-04-19T12:27:15Z</time></trkpt><trkpt lat="41.15700643732626" lon="15.41055956492328"><ele>387.6</ele><time>2026-04-19T12:27:16Z</time></trkpt><trkpt lat="41.15693460395785" lon="15.410688608782515"><ele>386.4</ele><time>2026-04-19T12:27:18Z</time></trkpt><trkpt lat="41.15688678419637" lon="15.41077535229329"><ele>385.2</ele><time>2026-04-19T12:27:20Z</time></trkpt><trkpt lat="41.15681784445327" lon="15.410916573723085"><ele>384.0</ele><time>2026-04-19T12:27:22Z</time></trkpt><trkpt lat="41.156756846530726" lon="15.411045261787905"><ele>384.0</ele><time>2026-04-19T12:27:24Z</time></trkpt><trkpt lat="41.15672236709076" lon="15.411118272544737"><ele>384.0</ele><time>2026-04-19T12:27:26Z</time></trkpt><trkpt lat="41.156678632173914" lon="15.411208141871601"><ele>384.0</ele><time>2026-04-19T12:27:27Z</time></trkpt><trkpt lat="41.156598428148506" lon="15.411332423817715"><ele>384.0</ele><time>2026-04-19T12:27:29Z</time></trkpt><trkpt lat="41.15654784463273" lon="15.411391256723931"><ele>384.0</ele><time>2026-04-19T12:27:30Z</time></trkpt><trkpt lat="41.15648268333889" lon="15.411465171150432"><ele>384.0</ele><time>2026-04-19T12:27:32Z</time></trkpt><trkpt lat="41.156419435702716" lon="15.411535837486294"><ele>386.6</ele><time>2026-04-19T12:27:34Z</time></trkpt><trkpt lat="41.15634671927313" lon="15.411617083336337"><ele>389.2</ele><time>2026-04-19T12:27:36Z</time></trkpt><trkpt lat="41.15625432239996" lon="15.411720317858611"><ele>391.8</ele><time>2026-04-19T12:27:38Z</time></trkpt><trkpt lat="41.156179037325096" lon="15.411800126089846"><ele>394.40000000000003</ele><time>2026-04-19T12:27:39Z</time></trkpt><trkpt lat="41.156104071561295" lon="15.41186384558268"><ele>397.0</ele><time>2026-04-19T12:27:40Z</time></trkpt><trkpt lat="41.156032108508526" lon="15.41192260416059"><ele>397.0</ele><time>2026-04-19T12:27:42Z</time></trkpt><trkpt lat="41.15594158988901" lon="15.41199736621196"><ele>397.0</ele><time>2026-04-19T12:27:44Z</time></trkpt><trkpt lat="41.15583258584265" lon="15.41200780056094"><ele>397.0</ele><time>2026-04-19T12:27:46Z</time></trkpt><trkpt lat="41.15580794499378" lon="15.412118562687088"><ele>397.0</ele><time>2026-04-19T12:27:47Z</time></trkpt><trkpt lat="41.15574117069798" lon="15.412187039115695"><ele>397.0</ele><time>2026-04-19T12:27:48Z</time></trkpt><trkpt lat="41.15567887707777" lon="15.412248375935773"><ele>398.40000000000003</ele><time>2026-04-19T12:27:49Z</time></trkpt><trkpt lat="41.15558640156606" lon="15.412339412318516"><ele>399.8</ele><time>2026-04-19T12:27:51Z</time></trkpt><trkpt lat="41.15551520349795" lon="15.412405884056435"><ele>401.2</ele><time>2026-04-19T12:27:52Z</time></trkpt><trkpt lat="41.155416852163306" lon="15.412492368242514"><ele>402.6</ele><time>2026-04-19T12:27:54Z</time></trkpt><trkpt lat="41.1553596655245" lon="15.41253761425291"><ele>404.0</ele><time>2026-04-19T12:27:55Z</time></trkpt><trkpt lat="41.155241416633245" lon="15.412613063977306"><ele>403.99999999999994</ele><time>2026-04-19T12:27:57Z</time></trkpt><trkpt lat="41.15517581772362" lon="15.41264844028056"><ele>404.0</ele><time>2026-04-19T12:28:00Z</time></trkpt><trkpt lat="41.15510507617747" lon="15.412687451837254"><ele>404.0</ele><time>2026-04-19T12:28:02Z</time></trkpt><trkpt lat="41.15503279270561" lon="15.412727313830862"><ele>404.0</ele><time>2026-04-19T12:28:03Z</time></trkpt><trkpt lat="41.1549618896484" lon="15.412765712281647"><ele>403.99999999999994</ele><time>2026-04-19T12:28:04Z</time></trkpt><trkpt lat="41.15485655303207" lon="15.41282164500269"><ele>404.0</ele><time>2026-04-19T12:28:06Z</time></trkpt><trkpt lat="41.15476064200989" lon="15.412872575159648"><ele>404.8333333333333</ele><time>2026-04-19T12:28:08Z</time></trkpt><trkpt lat="41.15466611075083" lon="15.412883916885482"><ele>405.66666666666663</ele><time>2026-04-19T12:28:09Z</time></trkpt><trkpt lat="41.15456821204937" lon="15.41287949426724"><ele>406.5</ele><time>2026-04-19T12:28:11Z</time></trkpt><trkpt lat="41.15449480686149" lon="15.41286110838078"><ele>407.33333333333337</ele><time>2026-04-19T12:28:13Z</time></trkpt><trkpt lat="41.15441873877709" lon="15.412828992780371"><ele>408.1666666666667</ele><time>2026-04-19T12:28:14Z</time></trkpt><trkpt lat="41.15434216610547" lon="15.412796860144045"><ele>409.0</ele><time>2026-04-19T12:28:14.999Z</time></trkpt><trkpt lat="41.15430445471922" lon="15.412611458498912"><ele>409.00000000000006</ele><time>2026-04-19T12:28:17.999Z</time></trkpt><trkpt lat="41.15423128279384" lon="15.412522747614831"><ele>409.0</ele><time>2026-04-19T12:28:19.999Z</time></trkpt><trkpt lat="41.15415855984728" lon="15.412438398896471"><ele>409.0</ele><time>2026-04-19T12:28:21.999Z</time></trkpt><trkpt lat="41.154062123425284" lon="15.412477249156922"><ele>409.0</ele><time>2026-04-19T12:28:23.999Z</time></trkpt><trkpt lat="41.153997137600754" lon="15.41250876712907"><ele>409.00000000000006</ele><time>2026-04-19T12:28:25.999Z</time></trkpt><trkpt lat="41.153946993482926" lon="15.412457814067727"><ele>409.0</ele><time>2026-04-19T12:28:29.999Z</time></trkpt><trkpt lat="41.153932273327015" lon="15.412297903289945"><ele>409.50000000000006</ele><time>2026-04-19T12:28:31.999Z</time></trkpt><trkpt lat="41.1539020448805" lon="15.412159343261347"><ele>410.0</ele><time>2026-04-19T12:28:33.999Z</time></trkpt><trkpt lat="41.15393848704014" lon="15.412070576088945"><ele>410.5</ele><time>2026-04-19T12:28:36Z</time></trkpt><trkpt lat="41.15395130298819" lon="15.411974694119133"><ele>411.0</ele><time>2026-04-19T12:28:38Z</time></trkpt><trkpt lat="41.15392250272845" lon="15.411888467849638"><ele>411.50000000000006</ele><time>2026-04-19T12:28:40Z</time></trkpt><trkpt lat="41.15385082633825" lon="15.411799459558683"><ele>412.0</ele><time>2026-04-19T12:28:42Z</time></trkpt><trkpt lat="41.153868463496075" lon="15.411597884771536"><ele>413.33333333333337</ele><time>2026-04-19T12:28:45Z</time></trkpt><trkpt lat="41.15386071082915" lon="15.411462941905379"><ele>414.6666666666667</ele><time>2026-04-19T12:28:46Z</time></trkpt><trkpt lat="41.15385401429039" lon="15.411363833880527"><ele>416.0</ele><time>2026-04-19T12:28:47Z</time></trkpt><trkpt lat="41.15385174410558" lon="15.411266759434502"><ele>417.33333333333337</ele><time>2026-04-19T12:28:48Z</time></trkpt><trkpt lat="41.15385586119373" lon="15.411166563769195"><ele>418.6666666666667</ele><time>2026-04-19T12:28:49Z</time></trkpt><trkpt lat="41.15385473713219" lon="15.41106186357074"><ele>420.0</ele><time>2026-04-19T12:28:50Z</time></trkpt><trkpt lat="41.15385301850396" lon="15.410968408814858"><ele>422.3333333333333</ele><time>2026-04-19T12:28:51Z</time></trkpt><trkpt lat="41.153804636156906" lon="15.410849133404371"><ele>424.66666666666663</ele><time>2026-04-19T12:28:53Z</time></trkpt><trkpt lat="41.15380177562053" lon="15.410748025120965"><ele>427.0</ele><time>2026-04-19T12:28:54Z</time></trkpt><trkpt lat="41.15382423617865" lon="15.410642649517326"><ele>429.3333333333333</ele><time>2026-04-19T12:28:55Z</time></trkpt><trkpt lat="41.153852751130785" lon="15.410545869016474"><ele>431.66666666666663</ele><time>2026-04-19T12:28:56Z</time></trkpt><trkpt lat="41.153864711118786" lon="15.410433978853714"><ele>434.0</ele><time>2026-04-19T12:28:57Z</time></trkpt><trkpt lat="41.15386974077985" lon="15.410296416400591"><ele>437.79999999999995</ele><time>2026-04-19T12:28:58Z</time></trkpt><trkpt lat="41.15388385468339" lon="15.410153474324837"><ele>441.59999999999997</ele><time>2026-04-19T12:28:59Z</time></trkpt><trkpt lat="41.153899555890405" lon="15.410029150709002"><ele>445.4</ele><time>2026-04-19T12:29:00Z</time></trkpt><trkpt lat="41.15392095123679" lon="15.409916979987834"><ele>449.2</ele><time>2026-04-19T12:29:01Z</time></trkpt><trkpt lat="41.153936993352616" lon="15.409805979192958"><ele>453.0</ele><time>2026-04-19T12:29:02Z</time></trkpt><trkpt lat="41.15393770147252" lon="15.409695424516974"><ele>455.2</ele><time>2026-04-19T12:29:03Z</time></trkpt><trkpt lat="41.15394170594965" lon="15.409573309426731"><ele>457.4</ele><time>2026-04-19T12:29:04Z</time></trkpt><trkpt lat="41.15394246584952" lon="15.40947080362197"><ele>459.59999999999997</ele><time>2026-04-19T12:29:05Z</time></trkpt><trkpt lat="41.15392733544824" lon="15.409346176829374"><ele>461.79999999999995</ele><time>2026-04-19T12:29:06Z</time></trkpt><trkpt lat="41.15391517446543" lon="15.409206325815553"><ele>464.0</ele><time>2026-04-19T12:29:07Z</time></trkpt><trkpt lat="41.15390271542146" lon="15.409091926956487"><ele>464.0</ele><time>2026-04-19T12:29:08Z</time></trkpt><trkpt lat="41.15388196326278" lon="15.40898594042441"><ele>464.0</ele><time>2026-04-19T12:29:09Z</time></trkpt><trkpt lat="41.15386152052881" lon="15.408869481815907"><ele>464.0</ele><time>2026-04-19T12:29:10Z</time></trkpt><trkpt lat="41.15384217491678" lon="15.408759739368378"><ele>464.0</ele><time>2026-04-19T12:29:11Z</time></trkpt><trkpt lat="41.15376718496728" lon="15.408630160763874"><ele>464.0</ele><time>2026-04-19T12:29:13Z</time></trkpt><trkpt lat="41.1536984780425" lon="15.408568831045681"><ele>464.2</ele><time>2026-04-19T12:29:14Z</time></trkpt><trkpt lat="41.153685544429386" lon="15.40843813534119"><ele>464.4</ele><time>2026-04-19T12:29:15Z</time></trkpt><trkpt lat="41.153527724374506" lon="15.408474783254313"><ele>464.6</ele><time>2026-04-19T12:29:18Z</time></trkpt><trkpt lat="41.15345884073847" lon="15.408480053643672"><ele>464.8</ele><time>2026-04-19T12:29:19Z</time></trkpt><trkpt lat="41.153391157729864" lon="15.408521840169714"><ele>465.0</ele><time>2026-04-19T12:29:20Z</time></trkpt><trkpt lat="41.153296169813515" lon="15.408622267208722"><ele>467.1666666666667</ele><time>2026-04-19T12:29:22Z</time></trkpt><trkpt lat="41.15320267326099" lon="15.408633530240675"><ele>469.33333333333337</ele><time>2026-04-19T12:29:24Z</time></trkpt><trkpt lat="41.1531419873662" lon="15.408587243526615"><ele>471.5</ele><time>2026-04-19T12:29:26Z</time></trkpt><trkpt lat="41.153056612966644" lon="15.408563697885578"><ele>473.6666666666667</ele><time>2026-04-19T12:29:28Z</time></trkpt><trkpt lat="41.152969140001204" lon="15.408567793494264"><ele>475.83333333333337</ele><time>2026-04-19T12:29:30Z</time></trkpt><trkpt lat="41.15287993035039" lon="15.408555907109466"><ele>478.0</ele><time>2026-04-19T12:29:32Z</time></trkpt><trkpt lat="41.15280285863335" lon="15.408584112459506"><ele>478.00000000000006</ele><time>2026-04-19T12:29:33Z</time></trkpt><trkpt lat="41.152735089292705" lon="15.408636329560851"><ele>478.0</ele><time>2026-04-19T12:29:34Z</time></trkpt><trkpt lat="41.152688789733425" lon="15.408718575469411"><ele>478.0</ele><time>2026-04-19T12:29:35Z</time></trkpt><trkpt lat="41.15264796029341" lon="15.408842362861265"><ele>478.0</ele><time>2026-04-19T12:29:36Z</time></trkpt><trkpt lat="41.152608386430174" lon="15.40894337098227"><ele>478.00000000000006</ele><time>2026-04-19T12:29:37Z</time></trkpt><trkpt lat="41.15256879112493" lon="15.409022015649207"><ele>478.0</ele><time>2026-04-19T12:29:38Z</time></trkpt><trkpt lat="41.15251607286486" lon="15.40907827722466"><ele>478.59999999999997</ele><time>2026-04-19T12:29:39Z</time></trkpt><trkpt lat="41.15244937479872" lon="15.40912240398827"><ele>479.19999999999993</ele><time>2026-04-19T12:29:40Z</time></trkpt><trkpt lat="41.15235766121328" lon="15.409174899961467"><ele>479.8</ele><time>2026-04-19T12:29:42Z</time></trkpt><trkpt lat="41.152326048131194" lon="15.409300083370562"><ele>480.4</ele><time>2026-04-19T12:29:44Z</time></trkpt><trkpt lat="41.152278611788866" lon="15.409406153263209"><ele>481.0</ele><time>2026-04-19T12:29:45Z</time></trkpt><trkpt lat="41.15220694690583" lon="15.409500486471892"><ele>481.00000000000006</ele><time>2026-04-19T12:29:46Z</time></trkpt><trkpt lat="41.15213207703206" lon="15.409572760237905"><ele>481.0</ele><time>2026-04-19T12:29:47Z</time></trkpt><trkpt lat="41.15207462307199" lon="15.409639666951906"><ele>481.0</ele><time>2026-04-19T12:29:48Z</time></trkpt><trkpt lat="41.15203218982802" lon="15.409705449406037"><ele>481.0</ele><time>2026-04-19T12:29:49Z</time></trkpt><trkpt lat="41.15199103778715" lon="15.409774523024838"><ele>481.00000000000006</ele><time>2026-04-19T12:29:50Z</time></trkpt><trkpt lat="41.1519488524672" lon="15.409849288521162"><ele>481.0</ele><time>2026-04-19T12:29:51Z</time></trkpt><trkpt lat="41.15189756114237" lon="15.40993354121897"><ele>479.1666666666667</ele><time>2026-04-19T12:29:52Z</time></trkpt><trkpt lat="41.151841626374505" lon="15.410014912774981"><ele>477.33333333333337</ele><time>2026-04-19T12:29:53Z</time></trkpt><trkpt lat="41.151790979643486" lon="15.410100500543905"><ele>475.5</ele><time>2026-04-19T12:29:54Z</time></trkpt><trkpt lat="41.151754133588426" lon="15.41018995418854"><ele>473.66666666666663</ele><time>2026-04-19T12:29:55Z</time></trkpt><trkpt lat="41.15172161927997" lon="15.410299743157772"><ele>471.8333333333333</ele><time>2026-04-19T12:29:56Z</time></trkpt><trkpt lat="41.151694206805274" lon="15.41041105532044"><ele>470.0</ele><time>2026-04-19T12:29:57Z</time></trkpt><trkpt lat="41.15166821468826" lon="15.410508322514861"><ele>468.49999999999994</ele><time>2026-04-19T12:29:58Z</time></trkpt><trkpt lat="41.15163387936258" lon="15.4105901101123"><ele>467.0</ele><time>2026-04-19T12:29:59Z</time></trkpt><trkpt lat="41.15160171560738" lon="15.41066854333152"><ele>465.5</ele><time>2026-04-19T12:30:00Z</time></trkpt><trkpt lat="41.15157515561629" lon="15.410753600527643"><ele>464.0</ele><time>2026-04-19T12:30:01Z</time></trkpt><trkpt lat="41.151566895674584" lon="15.410904134900738"><ele>462.49999999999994</ele><time>2026-04-19T12:30:03Z</time></trkpt><trkpt lat="41.1516195919094" lon="15.411039253483567"><ele>461.0</ele><time>2026-04-19T12:30:05Z</time></trkpt><trkpt lat="41.15162437522635" lon="15.411153036047905"><ele>460.99999999999994</ele><time>2026-04-19T12:30:07Z</time></trkpt><trkpt lat="41.15159076219442" lon="15.411230217626397"><ele>461.0</ele><time>2026-04-19T12:30:08Z</time></trkpt><trkpt lat="41.151574174565454" lon="15.411321563759042"><ele>461.0</ele><time>2026-04-19T12:30:09Z</time></trkpt><trkpt lat="41.151528036318645" lon="15.411402825748318"><ele>461.0</ele><time>2026-04-19T12:30:12Z</time></trkpt><trkpt lat="41.151463618957905" lon="15.411392957149657"><ele>460.99999999999994</ele><time>2026-04-19T12:30:14Z</time></trkpt><trkpt lat="41.15137184136174" lon="15.41142968499257"><ele>461.0</ele><time>2026-04-19T12:30:16Z</time></trkpt><trkpt lat="41.15125790304721" lon="15.411419292848862"><ele>462.3333333333333</ele><time>2026-04-19T12:30:17.999Z</time></trkpt><trkpt lat="41.15117702622719" lon="15.411402238420175"><ele>463.66666666666663</ele><time>2026-04-19T12:30:18.999Z</time></trkpt><trkpt lat="41.151099882904525" lon="15.411400596431813"><ele>465.0</ele><time>2026-04-19T12:30:19.999Z</time></trkpt><trkpt lat="41.15098431843372" lon="15.411406909171626"><ele>466.33333333333337</ele><time>2026-04-19T12:30:21.999Z</time></trkpt><trkpt lat="41.15091298386226" lon="15.411390833824061"><ele>467.6666666666667</ele><time>2026-04-19T12:30:22.999Z</time></trkpt><trkpt lat="41.150850693683296" lon="15.411340541724082"><ele>469.0</ele><time>2026-04-19T12:30:23.999Z</time></trkpt><trkpt lat="41.15078471725591" lon="15.41130722503067"><ele>470.6</ele><time>2026-04-19T12:30:24.999Z</time></trkpt><trkpt lat="41.150709227006104" lon="15.411311298525792"><ele>472.2</ele><time>2026-04-19T12:30:25.999Z</time></trkpt><trkpt lat="41.15061428551821" lon="15.41131076506962"><ele>473.80000000000007</ele><time>2026-04-19T12:30:26.999Z</time></trkpt><trkpt lat="41.15051230609249" lon="15.411295933290113"><ele>475.40000000000003</ele><time>2026-04-19T12:30:27.999Z</time></trkpt><trkpt lat="41.15040563545642" lon="15.411274225945878"><ele>477.0</ele><time>2026-04-19T12:30:28.999Z</time></trkpt><trkpt lat="41.15029525275415" lon="15.411260487459435"><ele>479.3333333333333</ele><time>2026-04-19T12:30:29.999Z</time></trkpt><trkpt lat="41.1502051076962" lon="15.411240468830659"><ele>481.66666666666663</ele><time>2026-04-19T12:30:30.999Z</time></trkpt><trkpt lat="41.15014243933481" lon="15.411214806929994"><ele>484.0</ele><time>2026-04-19T12:30:31.999Z</time></trkpt><trkpt lat="41.15008075736785" lon="15.411115124686654"><ele>486.3333333333333</ele><time>2026-04-19T12:30:33.999Z</time></trkpt><trkpt lat="41.1500494066367" lon="15.411028906519185"><ele>488.66666666666663</ele><time>2026-04-19T12:30:34.999Z</time></trkpt><trkpt lat="41.14999997814515" lon="15.410929349325889"><ele>491.0</ele><time>2026-04-19T12:30:35.999Z</time></trkpt><trkpt lat="41.14996042100611" lon="15.410838266933485"><ele>490.99999999999994</ele><time>2026-04-19T12:30:36.999Z</time></trkpt><trkpt lat="41.14997062242897" lon="15.41068958696277"><ele>491.0</ele><time>2026-04-19T12:30:38.999Z</time></trkpt><trkpt lat="41.150010639708796" lon="15.410612726208647"><ele>491.0</ele><time>2026-04-19T12:30:39.999Z</time></trkpt><trkpt lat="41.15006085986027" lon="15.410546489504297"><ele>491.0</ele><time>2026-04-19T12:30:40.999Z</time></trkpt><trkpt lat="41.15010983820123" lon="15.41045620244524"><ele>490.99999999999994</ele><time>2026-04-19T12:30:42Z</time></trkpt><trkpt lat="41.15015111810451" lon="15.410377822566828"><ele>491.0</ele><time>2026-04-19T12:30:43Z</time></trkpt><trkpt lat="41.150201963825616" lon="15.410301011420879"><ele>492.66666666666663</ele><time>2026-04-19T12:30:44Z</time></trkpt><trkpt lat="41.15024455837829" lon="15.410235080866913"><ele>494.3333333333333</ele><time>2026-04-19T12:30:45Z</time></trkpt><trkpt lat="41.150291236946295" lon="15.410159762233203"><ele>496.0</ele><time>2026-04-19T12:30:46Z</time></trkpt><trkpt lat="41.150328514704164" lon="15.410070864580302"><ele>497.66666666666663</ele><time>2026-04-19T12:30:47Z</time></trkpt><trkpt lat="41.150355354718926" lon="15.409977994637073"><ele>499.3333333333333</ele><time>2026-04-19T12:30:48Z</time></trkpt><trkpt lat="41.15039212317085" lon="15.40987204174479"><ele>501.0</ele><time>2026-04-19T12:30:49Z</time></trkpt><trkpt lat="41.15043317161423" lon="15.40975677025037"><ele>503.6</ele><time>2026-04-19T12:30:50Z</time></trkpt><trkpt lat="41.15048314952272" lon="15.40963299490766"><ele>506.20000000000005</ele><time>2026-04-19T12:30:51Z</time></trkpt><trkpt lat="41.15053967556052" lon="15.409507783305644"><ele>508.79999999999995</ele><time>2026-04-19T12:30:52Z</time></trkpt><trkpt lat="41.150595789894645" lon="15.409396239515436"><ele>511.4</ele><time>2026-04-19T12:30:53Z</time></trkpt><trkpt lat="41.15063918998165" lon="15.409295707239561"><ele>514.0</ele><time>2026-04-19T12:30:54Z</time></trkpt><trkpt lat="41.15067791152493" lon="15.40919056211054"><ele>512.1666666666667</ele><time>2026-04-19T12:30:55Z</time></trkpt><trkpt lat="41.15072398076656" lon="15.409087732395873"><ele>510.33333333333337</ele><time>2026-04-19T12:30:56Z</time></trkpt><trkpt lat="41.15077016065279" lon="15.408982448618891"><ele>508.5</ele><time>2026-04-19T12:30:57Z</time></trkpt><trkpt lat="41.15081130294166" lon="15.408878254610402"><ele>506.66666666666663</ele><time>2026-04-19T12:30:58Z</time></trkpt><trkpt lat="41.15084874757695" lon="15.408790944904453"><ele>504.8333333333333</ele><time>2026-04-19T12:30:59Z</time></trkpt><trkpt lat="41.1508801010724" lon="15.408712323846862"><ele>503.0</ele><time>2026-04-19T12:31:00Z</time></trkpt><trkpt lat="41.150923025658386" lon="15.408622164029463"><ele>502.99999999999994</ele><time>2026-04-19T12:31:01Z</time></trkpt><trkpt lat="41.15098286098816" lon="15.408525546618016"><ele>503.0</ele><time>2026-04-19T12:31:02Z</time></trkpt><trkpt lat="41.15103357272151" lon="15.40844655172158"><ele>503.0</ele><time>2026-04-19T12:31:03Z</time></trkpt><trkpt lat="41.15108608647389" lon="15.408356264049653"><ele>503.0</ele><time>2026-04-19T12:31:04Z</time></trkpt><trkpt lat="41.15113530171767" lon="15.408262886204875"><ele>502.99999999999994</ele><time>2026-04-19T12:31:05Z</time></trkpt><trkpt lat="41.151176970878694" lon="15.408172931158813"><ele>503.0</ele><time>2026-04-19T12:31:06Z</time></trkpt><trkpt lat="41.1512236399928" lon="15.408075145737378"><ele>503.79999999999995</ele><time>2026-04-19T12:31:07Z</time></trkpt><trkpt lat="41.15126367506984" lon="15.407958080091914"><ele>504.59999999999997</ele><time>2026-04-19T12:31:08Z</time></trkpt><trkpt lat="41.15129266776564" lon="15.407845400776802"><ele>505.40000000000003</ele><time>2026-04-19T12:31:09Z</time></trkpt><trkpt lat="41.151310117236406" lon="15.407726542135427"><ele>506.20000000000005</ele><time>2026-04-19T12:31:10Z</time></trkpt><trkpt lat="41.15131588334514" lon="15.407599159302292"><ele>507.0</ele><time>2026-04-19T12:31:11Z</time></trkpt><trkpt lat="41.15130482802935" lon="15.407467827807066"><ele>507.0</ele><time>2026-04-19T12:31:12Z</time></trkpt><trkpt lat="41.151292430761586" lon="15.407322222077601"><ele>507.00000000000006</ele><time>2026-04-19T12:31:13Z</time></trkpt><trkpt lat="41.15128965900631" lon="15.407193498262115"><ele>507.00000000000006</ele><time>2026-04-19T12:31:14Z</time></trkpt><trkpt lat="41.151290138503335" lon="15.407080024268636"><ele>507.0</ele><time>2026-04-19T12:31:15Z</time></trkpt><trkpt lat="41.151275766527974" lon="15.406967382864169"><ele>507.0</ele><time>2026-04-19T12:31:16Z</time></trkpt><trkpt lat="41.151267407427554" lon="15.406852577941594"><ele>507.20000000000005</ele><time>2026-04-19T12:31:17Z</time></trkpt><trkpt lat="41.15128477806051" lon="15.406722739275388"><ele>507.40000000000003</ele><time>2026-04-19T12:31:18Z</time></trkpt><trkpt lat="41.15131244311974" lon="15.406584938927438"><ele>507.59999999999997</ele><time>2026-04-19T12:31:19Z</time></trkpt><trkpt lat="41.151332232296205" lon="15.406454203139074"><ele>507.79999999999995</ele><time>2026-04-19T12:31:20Z</time></trkpt><trkpt lat="41.15134796335558" lon="15.406352083331962"><ele>508.0</ele><time>2026-04-19T12:31:21Z</time></trkpt><trkpt lat="41.15136871390998" lon="15.406253210770517"><ele>507.4</ele><time>2026-04-19T12:31:22Z</time></trkpt><trkpt lat="41.15141774225157" lon="15.406136804207119"><ele>506.79999999999995</ele><time>2026-04-19T12:31:24Z</time></trkpt><trkpt lat="41.15140403265334" lon="15.40604480270512"><ele>506.2</ele><time>2026-04-19T12:31:26Z</time></trkpt><trkpt lat="41.15132919260147" lon="15.405900007475752"><ele>505.6</ele><time>2026-04-19T12:31:28Z</time></trkpt><trkpt lat="41.15128331283429" lon="15.40580820274224"><ele>505.0</ele><time>2026-04-19T12:31:29Z</time></trkpt><trkpt lat="41.15122025246603" lon="15.405725644538293"><ele>505.0</ele><time>2026-04-19T12:31:30Z</time></trkpt><trkpt lat="41.15115054588962" lon="15.405687845529469"><ele>505.0</ele><time>2026-04-19T12:31:31Z</time></trkpt><trkpt lat="41.15104941388637" lon="15.405664906976519"><ele>505.0</ele><time>2026-04-19T12:31:32Z</time></trkpt><trkpt lat="41.15095887526167" lon="15.40563129732091"><ele>505.0</ele><time>2026-04-19T12:31:33Z</time></trkpt><trkpt lat="41.150867874625305" lon="15.405586022042227"><ele>505.0</ele><time>2026-04-19T12:31:34Z</time></trkpt><trkpt lat="41.150781335502856" lon="15.405543925567743"><ele>505.00000000000006</ele><time>2026-04-19T12:31:35Z</time></trkpt><trkpt lat="41.15071008416073" lon="15.405543290058889"><ele>505.0</ele><time>2026-04-19T12:31:36Z</time></trkpt><trkpt lat="41.15065210438404" lon="15.40558127388516"><ele>505.0</ele><time>2026-04-19T12:31:37Z</time></trkpt><trkpt lat="41.15060687321571" lon="15.405667330956364"><ele>505.0</ele><time>2026-04-19T12:31:38Z</time></trkpt><trkpt lat="41.15054608156287" lon="15.405774700131154"><ele>505.00000000000006</ele><time>2026-04-19T12:31:39Z</time></trkpt><trkpt lat="41.150491202114225" lon="15.405876079342812"><ele>505.0</ele><time>2026-04-19T12:31:40Z</time></trkpt><trkpt lat="41.150440294685716" lon="15.405979423756273"><ele>505.0</ele><time>2026-04-19T12:31:41Z</time></trkpt><trkpt lat="41.15040872376965" lon="15.406124904325042"><ele>505.0</ele><time>2026-04-19T12:31:42Z</time></trkpt><trkpt lat="41.150373252946835" lon="15.406264429182329"><ele>505.0</ele><time>2026-04-19T12:31:43Z</time></trkpt><trkpt lat="41.150329247014554" lon="15.406347721663387"><ele>505.0</ele><time>2026-04-19T12:31:44Z</time></trkpt><trkpt lat="41.15030743744311" lon="15.406464943985975"><ele>505.0</ele><time>2026-04-19T12:31:46Z</time></trkpt><trkpt lat="41.150305077422736" lon="15.406553675850766"><ele>506.50000000000006</ele><time>2026-04-19T12:31:47Z</time></trkpt><trkpt lat="41.15029860740707" lon="15.406652606326741"><ele>508.0</ele><time>2026-04-19T12:31:48Z</time></trkpt><trkpt lat="41.15028737841612" lon="15.406742146941781"><ele>509.5</ele><time>2026-04-19T12:31:49Z</time></trkpt><trkpt lat="41.15026128133908" lon="15.406835698964482"><ele>511.0</ele><time>2026-04-19T12:31:50Z</time></trkpt><trkpt lat="41.15023497486041" lon="15.406920604404831"><ele>512.5</ele><time>2026-04-19T12:31:51Z</time></trkpt><trkpt lat="41.1501583325345" lon="15.407030302761585"><ele>514.0</ele><time>2026-04-19T12:31:53Z</time></trkpt><trkpt lat="41.1500796738447" lon="15.40705888711334"><ele>514.0</ele><time>2026-04-19T12:31:54Z</time></trkpt><trkpt lat="41.15000161644532" lon="15.40712226032411"><ele>514.0</ele><time>2026-04-19T12:31:55Z</time></trkpt><trkpt lat="41.149934303679075" lon="15.40721370696238"><ele>514.0</ele><time>2026-04-19T12:31:56Z</time></trkpt><trkpt lat="41.14986995031719" lon="15.407311150271438"><ele>514.0</ele><time>2026-04-19T12:31:57Z</time></trkpt><trkpt lat="41.149803724976586" lon="15.407389006886838"><ele>514.0</ele><time>2026-04-19T12:31:58Z</time></trkpt><trkpt lat="41.14974324591057" lon="15.407460177562525"><ele>513.6</ele><time>2026-04-19T12:31:59Z</time></trkpt><trkpt lat="41.14968342766116" lon="15.407563962732"><ele>513.2</ele><time>2026-04-19T12:32:00Z</time></trkpt><trkpt lat="41.149649530656525" lon="15.407660963718996"><ele>512.8000000000001</ele><time>2026-04-19T12:32:01Z</time></trkpt><trkpt lat="41.149627907030776" lon="15.407774583367653"><ele>512.4</ele><time>2026-04-19T12:32:02Z</time></trkpt><trkpt lat="41.1495987240974" lon="15.40789576254765"><ele>512.0</ele><time>2026-04-19T12:32:03Z</time></trkpt><trkpt lat="41.149538567631105" lon="15.40801493423719"><ele>513.0</ele><time>2026-04-19T12:32:04Z</time></trkpt><trkpt lat="41.14947278353153" lon="15.408117236391481"><ele>514.0</ele><time>2026-04-19T12:32:05Z</time></trkpt><trkpt lat="41.149421355560385" lon="15.408175041653285"><ele>515.0</ele><time>2026-04-19T12:32:06Z</time></trkpt><trkpt lat="41.149370463237084" lon="15.408252542191509"><ele>516.0</ele><time>2026-04-19T12:32:07Z</time></trkpt><trkpt lat="41.149343283979775" lon="15.408369127575757"><ele>517.0</ele><time>2026-04-19T12:32:08Z</time></trkpt><trkpt lat="41.1493510977788" lon="15.408492506756213"><ele>518.0</ele><time>2026-04-19T12:32:09Z</time></trkpt><trkpt lat="41.14934714805981" lon="15.4086217009015"><ele>518.0</ele><time>2026-04-19T12:32:10Z</time></trkpt><trkpt lat="41.14931648916275" lon="15.408723070146161"><ele>518.0</ele><time>2026-04-19T12:32:11Z</time></trkpt><trkpt lat="41.14928081964118" lon="15.408835556947594"><ele>518.0</ele><time>2026-04-19T12:32:12Z</time></trkpt><trkpt lat="41.14923934363652" lon="15.408944961450382"><ele>518.0</ele><time>2026-04-19T12:32:13Z</time></trkpt><trkpt lat="41.14919873631944" lon="15.409056936013666"><ele>518.0</ele><time>2026-04-19T12:32:14Z</time></trkpt><trkpt lat="41.14916111529862" lon="15.409183164337849"><ele>518.5</ele><time>2026-04-19T12:32:15Z</time></trkpt><trkpt lat="41.14912822335265" lon="15.409299629862591"><ele>519.0</ele><time>2026-04-19T12:32:16Z</time></trkpt><trkpt lat="41.14909101313054" lon="15.409412305858813"><ele>519.5</ele><time>2026-04-19T12:32:17Z</time></trkpt><trkpt lat="41.149056226614945" lon="15.409506081195254"><ele>520.0</ele><time>2026-04-19T12:32:17.999Z</time></trkpt><trkpt lat="41.149010401466505" lon="15.409573025746163"><ele>520.5</ele><time>2026-04-19T12:32:18.999Z</time></trkpt><trkpt lat="41.148948592625956" lon="15.409630508042058"><ele>521.0</ele><time>2026-04-19T12:32:19.999Z</time></trkpt><trkpt lat="41.148880367237375" lon="15.409685046547153"><ele>519.8</ele><time>2026-04-19T12:32:20.999Z</time></trkpt><trkpt lat="41.14881298393262" lon="15.409763538968583"><ele>518.6</ele><time>2026-04-19T12:32:21.999Z</time></trkpt><trkpt lat="41.14876371307135" lon="15.409850980470056"><ele>517.4</ele><time>2026-04-19T12:32:22.999Z</time></trkpt><trkpt lat="41.148711892739954" lon="15.409920546128731"><ele>516.2</ele><time>2026-04-19T12:32:23.999Z</time></trkpt><trkpt lat="41.14861325261544" lon="15.410038736171693"><ele>515.0</ele><time>2026-04-19T12:32:25.999Z</time></trkpt><trkpt lat="41.1485636626395" lon="15.410121485957179"><ele>515.0</ele><time>2026-04-19T12:32:26.999Z</time></trkpt><trkpt lat="41.148520335188174" lon="15.410201509312309"><ele>515.0</ele><time>2026-04-19T12:32:27.999Z</time></trkpt><trkpt lat="41.14845774201071" lon="15.410297957050338"><ele>515.0</ele><time>2026-04-19T12:32:29.999Z</time></trkpt><trkpt lat="41.14840350872185" lon="15.410385883125265"><ele>515.0</ele><time>2026-04-19T12:32:54Z</time></trkpt><trkpt lat="41.14832021073332" lon="15.410519270506645"><ele>515.0</ele><time>2026-04-19T12:32:56Z</time></trkpt><trkpt lat="41.14825459957812" lon="15.4106191317056"><ele>512.6</ele><time>2026-04-19T12:32:57Z</time></trkpt><trkpt lat="41.14819600814584" lon="15.410720417056224"><ele>510.2</ele><time>2026-04-19T12:32:58Z</time></trkpt><trkpt lat="41.148135244734355" lon="15.410816880209303"><ele>507.79999999999995</ele><time>2026-04-19T12:32:59Z</time></trkpt><trkpt lat="41.148064773704675" lon="15.41091781970556"><ele>505.4</ele><time>2026-04-19T12:33:00Z</time></trkpt><trkpt lat="41.14799757111255" lon="15.411016047777858"><ele>503.0</ele><time>2026-04-19T12:33:01Z</time></trkpt><trkpt lat="41.14793795933543" lon="15.411115041991696"><ele>502.99999999999994</ele><time>2026-04-19T12:33:02Z</time></trkpt><trkpt lat="41.14788223902551" lon="15.411185105541195"><ele>503.0</ele><time>2026-04-19T12:33:03Z</time></trkpt><trkpt lat="41.14779486188307" lon="15.411160203007896"><ele>503.0</ele><time>2026-04-19T12:33:05Z</time></trkpt><trkpt lat="41.14773642842123" lon="15.41111635460272"><ele>503.0</ele><time>2026-04-19T12:33:06Z</time></trkpt><trkpt lat="41.14767250495034" lon="15.41109527734681"><ele>502.99999999999994</ele><time>2026-04-19T12:33:07Z</time></trkpt><trkpt lat="41.14758183093428" lon="15.411027610929283"><ele>503.0</ele><time>2026-04-19T12:33:09Z</time></trkpt><trkpt lat="41.147545782525725" lon="15.410957597879124"><ele>502.99999999999994</ele><time>2026-04-19T12:33:11Z</time></trkpt><trkpt lat="41.14750772278702" lon="15.411043869031092"><ele>503.0</ele><time>2026-04-19T12:33:13Z</time></trkpt><trkpt lat="41.14750097525097" lon="15.411150026852342"><ele>503.0</ele><time>2026-04-19T12:33:14Z</time></trkpt><trkpt lat="41.147483289661125" lon="15.411252817371931"><ele>503.0</ele><time>2026-04-19T12:33:15Z</time></trkpt><trkpt lat="41.14743545356835" lon="15.411332710973978"><ele>502.99999999999994</ele><time>2026-04-19T12:33:16Z</time></trkpt><trkpt lat="41.147363479076446" lon="15.411421080989538"><ele>503.0</ele><time>2026-04-19T12:33:17Z</time></trkpt><trkpt lat="41.147294318000796" lon="15.411530570882478"><ele>504.2</ele><time>2026-04-19T12:33:18Z</time></trkpt><trkpt lat="41.147246182825036" lon="15.411628724392754"><ele>505.4</ele><time>2026-04-19T12:33:19Z</time></trkpt><trkpt lat="41.14717765764017" lon="15.411687567578955"><ele>506.59999999999997</ele><time>2026-04-19T12:33:20Z</time></trkpt><trkpt lat="41.147087581751066" lon="15.411713474797564"><ele>507.79999999999995</ele><time>2026-04-19T12:33:21Z</time></trkpt><trkpt lat="41.14697288159774" lon="15.411717250774288"><ele>509.0</ele><time>2026-04-19T12:33:22Z</time></trkpt><trkpt lat="41.14686653674191" lon="15.411690328347818"><ele>508.99999999999994</ele><time>2026-04-19T12:33:23Z</time></trkpt><trkpt lat="41.1467610540855" lon="15.411657421200289"><ele>509.0</ele><time>2026-04-19T12:33:24Z</time></trkpt><trkpt lat="41.146671204713044" lon="15.411641430543801"><ele>509.0</ele><time>2026-04-19T12:33:25Z</time></trkpt><trkpt lat="41.146585292723216" lon="15.411630299347948"><ele>509.0</ele><time>2026-04-19T12:33:26Z</time></trkpt><trkpt lat="41.146514232505695" lon="15.411639116611704"><ele>508.99999999999994</ele><time>2026-04-19T12:33:27Z</time></trkpt><trkpt lat="41.146442699134134" lon="15.411666060189999"><ele>509.0</ele><time>2026-04-19T12:33:28Z</time></trkpt><trkpt lat="41.14636813570967" lon="15.41170458936237"><ele>509.8333333333333</ele><time>2026-04-19T12:33:29Z</time></trkpt><trkpt lat="41.14630507143879" lon="15.411747610025657"><ele>510.66666666666663</ele><time>2026-04-19T12:33:30Z</time></trkpt><trkpt lat="41.146223541791485" lon="15.411836118598638"><ele>511.5</ele><time>2026-04-19T12:33:32Z</time></trkpt><trkpt lat="41.14610275262321" lon="15.411863682125919"><ele>512.3333333333334</ele><time>2026-04-19T12:33:34Z</time></trkpt><trkpt lat="41.14602990513835" lon="15.411883939568924"><ele>513.1666666666667</ele><time>2026-04-19T12:33:35Z</time></trkpt><trkpt lat="41.145954505507426" lon="15.411895517190523"><ele>514.0</ele><time>2026-04-19T12:33:37Z</time></trkpt><trkpt lat="41.145837271121906" lon="15.411911264620251"><ele>514.0</ele><time>2026-04-19T12:33:39Z</time></trkpt><trkpt lat="41.14575338475297" lon="15.41191051567329"><ele>514.0</ele><time>2026-04-19T12:33:40Z</time></trkpt><trkpt lat="41.14564492137064" lon="15.411910827770214"><ele>514.0</ele><time>2026-04-19T12:33:42Z</time></trkpt><trkpt lat="41.145581335403996" lon="15.411943896909747"><ele>514.0</ele><time>2026-04-19T12:33:43Z</time></trkpt><trkpt lat="41.145503569606184" lon="15.411954612121685"><ele>514.0</ele><time>2026-04-19T12:33:44Z</time></trkpt><trkpt lat="41.145385735326784" lon="15.411959998135156"><ele>514.1666666666667</ele><time>2026-04-19T12:33:46Z</time></trkpt><trkpt lat="41.14530480033049" lon="15.41196325408167"><ele>514.3333333333334</ele><time>2026-04-19T12:33:48Z</time></trkpt><trkpt lat="41.14523319620979" lon="15.4119631453634"><ele>514.5</ele><time>2026-04-19T12:33:49Z</time></trkpt><trkpt lat="41.145159885331815" lon="15.411962309814447"><ele>514.6666666666666</ele><time>2026-04-19T12:33:50Z</time></trkpt><trkpt lat="41.14508931787709" lon="15.411951243393432"><ele>514.8333333333333</ele><time>2026-04-19T12:33:51Z</time></trkpt><trkpt lat="41.14497543136184" lon="15.411927846845444"><ele>515.0</ele><time>2026-04-19T12:33:53Z</time></trkpt><trkpt lat="41.14486618732458" lon="15.411885886931897"><ele>513.8</ele><time>2026-04-19T12:33:55Z</time></trkpt><trkpt lat="41.14476978443372" lon="15.41183686252146"><ele>512.6</ele><time>2026-04-19T12:33:57Z</time></trkpt><trkpt lat="41.14467665380652" lon="15.41174117930061"><ele>511.4</ele><time>2026-04-19T12:33:59Z</time></trkpt><trkpt lat="41.144593117422716" lon="15.411612309958729"><ele>510.2</ele><time>2026-04-19T12:34:01Z</time></trkpt><trkpt lat="41.14457210135219" lon="15.411522722775773"><ele>509.0</ele><time>2026-04-19T12:34:02Z</time></trkpt><trkpt lat="41.144575832821786" lon="15.41142606621264"><ele>508.99999999999994</ele><time>2026-04-19T12:34:03Z</time></trkpt><trkpt lat="41.14458835926133" lon="15.411331741503101"><ele>509.0</ele><time>2026-04-19T12:34:04Z</time></trkpt><trkpt lat="41.144590796313" lon="15.411247407011397"><ele>509.0</ele><time>2026-04-19T12:34:05Z</time></trkpt><trkpt lat="41.14458279664642" lon="15.411111248271048"><ele>509.0</ele><time>2026-04-19T12:34:07Z</time></trkpt><trkpt lat="41.144568760442255" lon="15.411011085709351"><ele>508.99999999999994</ele><time>2026-04-19T12:34:09Z</time></trkpt><trkpt lat="41.14456195299178" lon="15.410859540950797"><ele>509.0</ele><time>2026-04-19T12:34:11Z</time></trkpt><trkpt lat="41.14454874855798" lon="15.410773797688272"><ele>506.79999999999995</ele><time>2026-04-19T12:34:12Z</time></trkpt><trkpt lat="41.1444932806194" lon="15.410627115693488"><ele>504.59999999999997</ele><time>2026-04-19T12:34:13.999Z</time></trkpt><trkpt lat="41.14444866595121" lon="15.410566140307273"><ele>502.4</ele><time>2026-04-19T12:34:14.999Z</time></trkpt><trkpt lat="41.14438143728212" lon="15.410448392746032"><ele>500.2</ele><time>2026-04-19T12:34:16.999Z</time></trkpt><trkpt lat="41.144414753490906" lon="15.410316205508845"><ele>498.0</ele><time>2026-04-19T12:34:18.999Z</time></trkpt><trkpt lat="41.144395282879096" lon="15.410193028438748"><ele>495.0</ele><time>2026-04-19T12:34:20.999Z</time></trkpt><trkpt lat="41.14429460290865" lon="15.410052544580168"><ele>491.99999999999994</ele><time>2026-04-19T12:34:22.999Z</time></trkpt><trkpt lat="41.1442671090473" lon="15.4099752390097"><ele>488.99999999999994</ele><time>2026-04-19T12:34:23.999Z</time></trkpt><trkpt lat="41.14425977110408" lon="15.409834917289276"><ele>486.0</ele><time>2026-04-19T12:34:25.999Z</time></trkpt><trkpt lat="41.14422980400165" lon="15.409760282797178"><ele>483.0</ele><time>2026-04-19T12:34:27.999Z</time></trkpt><trkpt lat="41.14410051661613" lon="15.409765242021301"><ele>483.2</ele><time>2026-04-19T12:34:30.999Z</time></trkpt><trkpt lat="41.144028079370905" lon="15.409785388058555"><ele>483.4</ele><time>2026-04-19T12:34:31.999Z</time></trkpt><trkpt lat="41.143930319102346" lon="15.409797088939175"><ele>483.59999999999997</ele><time>2026-04-19T12:34:32.999Z</time></trkpt><trkpt lat="41.1438226325175" lon="15.409798181885504"><ele>483.79999999999995</ele><time>2026-04-19T12:34:33.999Z</time></trkpt><trkpt lat="41.143708482705776" lon="15.409790493258516"><ele>484.0</ele><time>2026-04-19T12:34:34.999Z</time></trkpt><trkpt lat="41.14359246396428" lon="15.40978797824761"><ele>484.0</ele><time>2026-04-19T12:34:35.999Z</time></trkpt><trkpt lat="41.14348406819771" lon="15.409791274743704"><ele>484.0</ele><time>2026-04-19T12:34:36.999Z</time></trkpt><trkpt lat="41.14337186579744" lon="15.409799400643163"><ele>484.0</ele><time>2026-04-19T12:34:37.999Z</time></trkpt><trkpt lat="41.14325939121108" lon="15.409817762647119"><ele>484.0</ele><time>2026-04-19T12:34:38.999Z</time></trkpt><trkpt lat="41.14316053783308" lon="15.409835530917823"><ele>484.0</ele><time>2026-04-19T12:34:39.999Z</time></trkpt><trkpt lat="41.143072269054635" lon="15.409832300426766"><ele>484.4</ele><time>2026-04-19T12:34:40.999Z</time></trkpt><trkpt lat="41.14298985304391" lon="15.40981379846007"><ele>484.79999999999995</ele><time>2026-04-19T12:34:41.999Z</time></trkpt><trkpt lat="41.14289230447408" lon="15.409791246261468"><ele>485.20000000000005</ele><time>2026-04-19T12:34:42.999Z</time></trkpt><trkpt lat="41.142788411515134" lon="15.409800250200137"><ele>485.6</ele><time>2026-04-19T12:34:43.999Z</time></trkpt><trkpt lat="41.14270178834417" lon="15.409831389540802"><ele>486.0</ele><time>2026-04-19T12:34:44.999Z</time></trkpt><trkpt lat="41.14263796456121" lon="15.40988080657849"><ele>486.0</ele><time>2026-04-19T12:34:45.999Z</time></trkpt><trkpt lat="41.14255261841655" lon="15.409947399821355"><ele>486.0</ele><time>2026-04-19T12:34:46.999Z</time></trkpt><trkpt lat="41.142470224622734" lon="15.410025094955001"><ele>486.0</ele><time>2026-04-19T12:34:47.999Z</time></trkpt><trkpt lat="41.14239557523784" lon="15.410122959310154"><ele>486.0</ele><time>2026-04-19T12:34:48.999Z</time></trkpt><trkpt lat="41.14233109531748" lon="15.41022926738694"><ele>486.0</ele><time>2026-04-19T12:34:49.999Z</time></trkpt><trkpt lat="41.142274348231965" lon="15.410327733453983"><ele>485.0</ele><time>2026-04-19T12:34:50.999Z</time></trkpt><trkpt lat="41.14222344078261" lon="15.410402193815717"><ele>484.0</ele><time>2026-04-19T12:34:51.999Z</time></trkpt><trkpt lat="41.14218310397429" lon="15.410473027244386"><ele>483.0</ele><time>2026-04-19T12:34:53Z</time></trkpt><trkpt lat="41.14216010374751" lon="15.410554047556742"><ele>482.0</ele><time>2026-04-19T12:34:54Z</time></trkpt><trkpt lat="41.142191911003266" lon="15.410687985407582"><ele>481.0</ele><time>2026-04-19T12:34:56Z</time></trkpt><trkpt lat="41.14211971245506" lon="15.410709706200404"><ele>480.0</ele><time>2026-04-19T12:34:59Z</time></trkpt><trkpt lat="41.14205280118202" lon="15.41068323897371"><ele>480.0</ele><time>2026-04-19T12:35:00Z</time></trkpt><trkpt lat="41.141970042917556" lon="15.410625032474327"><ele>480.0</ele><time>2026-04-19T12:35:01Z</time></trkpt><trkpt lat="41.14188133289878" lon="15.410579606966078"><ele>480.0</ele><time>2026-04-19T12:35:02Z</time></trkpt><trkpt lat="41.14179188368697" lon="15.410524351986654"><ele>480.0</ele><time>2026-04-19T12:35:03Z</time></trkpt><trkpt lat="41.14171585234997" lon="15.410471088106435"><ele>480.0</ele><time>2026-04-19T12:35:04Z</time></trkpt><trkpt lat="41.14164035683334" lon="15.410405508813444"><ele>480.0</ele><time>2026-04-19T12:35:05Z</time></trkpt><trkpt lat="41.14156308499328" lon="15.410346144545455"><ele>480.0</ele><time>2026-04-19T12:35:06Z</time></trkpt><trkpt lat="41.14149334576473" lon="15.41031422132495"><ele>480.0</ele><time>2026-04-19T12:35:07Z</time></trkpt><trkpt lat="41.141416117339965" lon="15.410266927040968"><ele>480.0</ele><time>2026-04-19T12:35:08Z</time></trkpt><trkpt lat="41.14135093227121" lon="15.410213918368987"><ele>480.0</ele><time>2026-04-19T12:35:09Z</time></trkpt><trkpt lat="41.14128437405318" lon="15.410159016552534"><ele>480.0</ele><time>2026-04-19T12:35:10Z</time></trkpt><trkpt lat="41.141215039994" lon="15.410103435196078"><ele>478.1666666666667</ele><time>2026-04-19T12:35:11Z</time></trkpt><trkpt lat="41.1411509436035" lon="15.410056181196754"><ele>476.33333333333337</ele><time>2026-04-19T12:35:12Z</time></trkpt><trkpt lat="41.141077604530714" lon="15.410000116048366"><ele>474.5</ele><time>2026-04-19T12:35:13Z</time></trkpt><trkpt lat="41.141005842553234" lon="15.409943596553376"><ele>472.6666666666667</ele><time>2026-04-19T12:35:14Z</time></trkpt><trkpt lat="41.14094669006544" lon="15.409893257530793"><ele>470.83333333333337</ele><time>2026-04-19T12:35:15Z</time></trkpt><trkpt lat="41.14088127419513" lon="15.409831575397106"><ele>469.0</ele><time>2026-04-19T12:35:16Z</time></trkpt><trkpt lat="41.14081853911172" lon="15.409781281010828"><ele>469.00000000000006</ele><time>2026-04-19T12:35:17Z</time></trkpt><trkpt lat="41.14076454235129" lon="15.409730757319776"><ele>469.0</ele><time>2026-04-19T12:35:18Z</time></trkpt><trkpt lat="41.14070752314682" lon="15.409675935615128"><ele>469.0</ele><time>2026-04-19T12:35:19Z</time></trkpt><trkpt lat="41.14063905860055" lon="15.40961622747594"><ele>469.0</ele><time>2026-04-19T12:35:20Z</time></trkpt><trkpt lat="41.1405638880085" lon="15.409560388321168"><ele>469.00000000000006</ele><time>2026-04-19T12:35:21Z</time></trkpt><trkpt lat="41.140486825757456" lon="15.40950835876643"><ele>469.0</ele><time>2026-04-19T12:35:22Z</time></trkpt><trkpt lat="41.14042359678107" lon="15.409459121607942"><ele>467.42857142857144</ele><time>2026-04-19T12:35:23Z</time></trkpt><trkpt lat="41.1403675202624" lon="15.40941442443425"><ele>465.8571428571429</ele><time>2026-04-19T12:35:24Z</time></trkpt><trkpt lat="41.140304383560824" lon="15.40935100641014"><ele>464.2857142857143</ele><time>2026-04-19T12:35:25Z</time></trkpt><trkpt lat="41.14024450429225" lon="15.40927703051036"><ele>462.7142857142857</ele><time>2026-04-19T12:35:26Z</time></trkpt><trkpt lat="41.14019961722405" lon="15.409198326399112"><ele>461.14285714285717</ele><time>2026-04-19T12:35:27Z</time></trkpt><trkpt lat="41.14016519967358" lon="15.409120774748038"><ele>459.57142857142856</ele><time>2026-04-19T12:35:28Z</time></trkpt><trkpt lat="41.14012975129887" lon="15.4090263425425"><ele>458.0</ele><time>2026-04-19T12:35:29Z</time></trkpt><trkpt lat="41.14009895438811" lon="15.40892428792657"><ele>457.99999999999994</ele><time>2026-04-19T12:35:30Z</time></trkpt><trkpt lat="41.14005480783124" lon="15.408826667877474"><ele>458.0</ele><time>2026-04-19T12:35:31Z</time></trkpt><trkpt lat="41.140009176632994" lon="15.408727956650214"><ele>458.0</ele><time>2026-04-19T12:35:32Z</time></trkpt><trkpt lat="41.139973242688235" lon="15.40863869223793"><ele>458.0</ele><time>2026-04-19T12:35:33Z</time></trkpt><trkpt lat="41.139930560637076" lon="15.408525584153159"><ele>457.99999999999994</ele><time>2026-04-19T12:35:34Z</time></trkpt><trkpt lat="41.1398914502831" lon="15.408423628898358"><ele>458.0</ele><time>2026-04-19T12:35:35Z</time></trkpt><trkpt lat="41.139856167226824" lon="15.408322843068136"><ele>453.8333333333333</ele><time>2026-04-19T12:35:36Z</time></trkpt><trkpt lat="41.13980917154549" lon="15.40824882476476"><ele>449.66666666666663</ele><time>2026-04-19T12:35:37Z</time></trkpt><trkpt lat="41.13975614408819" lon="15.408179023654926"><ele>445.5</ele><time>2026-04-19T12:35:38Z</time></trkpt><trkpt lat="41.13970749924836" lon="15.408110677003144"><ele>441.33333333333337</ele><time>2026-04-19T12:35:39Z</time></trkpt><trkpt lat="41.13967180771409" lon="15.40796052521599"><ele>437.1666666666667</ele><time>2026-04-19T12:35:41Z</time></trkpt><trkpt lat="41.13967848352257" lon="15.40786614781617"><ele>433.0</ele><time>2026-04-19T12:35:42Z</time></trkpt><trkpt lat="41.13968258934856" lon="15.40776968612513"><ele>432.33333333333337</ele><time>2026-04-19T12:35:43Z</time></trkpt><trkpt lat="41.13967297515158" lon="15.40766403218717"><ele>431.6666666666667</ele><time>2026-04-19T12:35:44Z</time></trkpt><trkpt lat="41.139648794049734" lon="15.407578246123492"><ele>431.0</ele><time>2026-04-19T12:35:45Z</time></trkpt><trkpt lat="41.139618927983065" lon="15.407495578604216"><ele>430.33333333333337</ele><time>2026-04-19T12:35:46Z</time></trkpt><trkpt lat="41.13953519574193" lon="15.407402580628446"><ele>429.6666666666667</ele><time>2026-04-19T12:35:48Z</time></trkpt><trkpt lat="41.13947457855793" lon="15.407358144231916"><ele>429.0</ele><time>2026-04-19T12:35:49Z</time></trkpt><trkpt lat="41.13941441470449" lon="15.407326798132083"><ele>429.0</ele><time>2026-04-19T12:35:50Z</time></trkpt><trkpt lat="41.1393341611687" lon="15.407218188185558"><ele>429.0</ele><time>2026-04-19T12:35:52Z</time></trkpt><trkpt lat="41.13929351798711" lon="15.407135323853215"><ele>429.0</ele><time>2026-04-19T12:35:53Z</time></trkpt><trkpt lat="41.139249572252936" lon="15.407063412072478"><ele>429.0</ele><time>2026-04-19T12:35:54Z</time></trkpt><trkpt lat="41.139197832119976" lon="15.406979735176558"><ele>429.0</ele><time>2026-04-19T12:35:55Z</time></trkpt><trkpt lat="41.13914128387489" lon="15.406896228000901"><ele>429.0</ele><time>2026-04-19T12:35:56Z</time></trkpt><trkpt lat="41.13909410333572" lon="15.40682474072641"><ele>427.2</ele><time>2026-04-19T12:35:57Z</time></trkpt><trkpt lat="41.13905737318747" lon="15.406755545665286"><ele>425.4</ele><time>2026-04-19T12:35:58Z</time></trkpt><trkpt lat="41.13899030469242" lon="15.40662436359258"><ele>423.6</ele><time>2026-04-19T12:36:00Z</time></trkpt><trkpt lat="41.13896549557269" lon="15.406543477975633"><ele>421.8</ele><time>2026-04-19T12:36:01Z</time></trkpt><trkpt lat="41.139013210432445" lon="15.406417529584655"><ele>420.0</ele><time>2026-04-19T12:36:03Z</time></trkpt><trkpt lat="41.139107800613786" lon="15.40631167134053"><ele>417.3333333333333</ele><time>2026-04-19T12:36:05Z</time></trkpt><trkpt lat="41.13911813342466" lon="15.406183532139986"><ele>414.66666666666663</ele><time>2026-04-19T12:36:06Z</time></trkpt><trkpt lat="41.13912498441649" lon="15.406067953053856"><ele>412.0</ele><time>2026-04-19T12:36:07Z</time></trkpt><trkpt lat="41.13912297003062" lon="15.405976667572213"><ele>409.3333333333333</ele><time>2026-04-19T12:36:08Z</time></trkpt><trkpt lat="41.13912927873611" lon="15.405823972524557"><ele>406.66666666666663</ele><time>2026-04-19T12:36:10Z</time></trkpt><trkpt lat="41.13912915323572" lon="15.405738312763239"><ele>404.0</ele><time>2026-04-19T12:36:12Z</time></trkpt><trkpt lat="41.139061636926776" lon="15.405659680443495"><ele>402.16666666666663</ele><time>2026-04-19T12:36:15Z</time></trkpt><trkpt lat="41.13899854036078" lon="15.405653610448416"><ele>400.3333333333333</ele><time>2026-04-19T12:36:16Z</time></trkpt><trkpt lat="41.13891336371672" lon="15.405637131880384"><ele>398.5</ele><time>2026-04-19T12:36:17Z</time></trkpt><trkpt lat="41.13883249672271" lon="15.405619943660747"><ele>396.66666666666663</ele><time>2026-04-19T12:36:18Z</time></trkpt><trkpt lat="41.13875297144329" lon="15.405590541802045"><ele>394.8333333333333</ele><time>2026-04-19T12:36:19Z</time></trkpt><trkpt lat="41.13868210573994" lon="15.405561394826323"><ele>393.0</ele><time>2026-04-19T12:36:20Z</time></trkpt><trkpt lat="41.13860713543072" lon="15.405528881403265"><ele>391.3333333333333</ele><time>2026-04-19T12:36:20.999Z</time></trkpt><trkpt lat="41.13853827283277" lon="15.40549196702368"><ele>389.6666666666667</ele><time>2026-04-19T12:36:21.999Z</time></trkpt><trkpt lat="41.13847852079112" lon="15.40546018138542"><ele>388.0</ele><time>2026-04-19T12:36:22.999Z</time></trkpt><trkpt lat="41.13839946684181" lon="15.405430129871176"><ele>386.33333333333337</ele><time>2026-04-19T12:36:23.999Z</time></trkpt><trkpt lat="41.138323941583565" lon="15.405422893849552"><ele>384.6666666666667</ele><time>2026-04-19T12:36:24.999Z</time></trkpt><trkpt lat="41.13824146015793" lon="15.405408866589681"><ele>383.0</ele><time>2026-04-19T12:36:25.999Z</time></trkpt><trkpt lat="41.138160566821334" lon="15.405394945937356"><ele>380.5</ele><time>2026-04-19T12:36:26.999Z</time></trkpt><trkpt lat="41.13808586015159" lon="15.40536996689173"><ele>378.0</ele><time>2026-04-19T12:36:27.999Z</time></trkpt><trkpt lat="41.13801944059969" lon="15.405341238340181"><ele>375.5</ele><time>2026-04-19T12:36:28.999Z</time></trkpt><trkpt lat="41.13792050855848" lon="15.40532497757436"><ele>373.0</ele><time>2026-04-19T12:36:30.999Z</time></trkpt><trkpt lat="41.13785528130643" lon="15.40533720881871"><ele>370.5</ele><time>2026-04-19T12:36:31.999Z</time></trkpt><trkpt lat="41.137789445252594" lon="15.405362576532436"><ele>368.0</ele><time>2026-04-19T12:36:32.999Z</time></trkpt><trkpt lat="41.13771265561565" lon="15.405329486743563"><ele>368.0</ele><time>2026-04-19T12:36:34.999Z</time></trkpt><trkpt lat="41.137699061334466" lon="15.405215390259396"><ele>368.0</ele><time>2026-04-19T12:36:36.999Z</time></trkpt><trkpt lat="41.13763919974167" lon="15.405174076151026"><ele>368.0</ele><time>2026-04-19T12:36:38.999Z</time></trkpt><trkpt lat="41.137572615525464" lon="15.405326762529585"><ele>368.0</ele><time>2026-04-19T12:36:40.999Z</time></trkpt><trkpt lat="41.13752645114801" lon="15.405439201610443"><ele>368.0</ele><time>2026-04-19T12:36:41.999Z</time></trkpt><trkpt lat="41.137485135317874" lon="15.405502768670772"><ele>368.0</ele><time>2026-04-19T12:36:42.999Z</time></trkpt><trkpt lat="41.13747729635905" lon="15.405590494148077"><ele>368.33333333333337</ele><time>2026-04-19T12:36:44.999Z</time></trkpt><trkpt lat="41.1375624365183" lon="15.40570232507202"><ele>368.6666666666667</ele><time>2026-04-19T12:36:46.999Z</time></trkpt><trkpt lat="41.137619581299106" lon="15.40576375869725"><ele>369.0</ele><time>2026-04-19T12:36:47.999Z</time></trkpt><trkpt lat="41.1376903915608" lon="15.40584405138207"><ele>369.3333333333333</ele><time>2026-04-19T12:36:49.999Z</time></trkpt><trkpt lat="41.13764914644756" lon="15.40592651960487"><ele>369.66666666666663</ele><time>2026-04-19T12:36:52.999Z</time></trkpt><trkpt lat="41.137574204189114" lon="15.405920571912777"><ele>370.0</ele><time>2026-04-19T12:36:54.999Z</time></trkpt><trkpt lat="41.13748486582013" lon="15.405900326537125"><ele>370.0</ele><time>2026-04-19T12:36:56.999Z</time></trkpt><trkpt lat="41.13741137002958" lon="15.405863062679561"><ele>370.0</ele><time>2026-04-19T12:36:59Z</time></trkpt><trkpt lat="41.13736464534971" lon="15.405757462763718"><ele>370.0</ele><time>2026-04-19T12:37:01Z</time></trkpt><trkpt lat="41.137309224370576" lon="15.405624634780883"><ele>370.0</ele><time>2026-04-19T12:37:03Z</time></trkpt><trkpt lat="41.137266579390776" lon="15.405550724476385"><ele>370.0</ele><time>2026-04-19T12:37:04Z</time></trkpt><trkpt lat="41.13720331520648" lon="15.405471927705673"><ele>370.0</ele><time>2026-04-19T12:37:05Z</time></trkpt><trkpt lat="41.13713856446076" lon="15.405416080168838"><ele>366.66666666666663</ele><time>2026-04-19T12:37:06Z</time></trkpt><trkpt lat="41.13707840827515" lon="15.405359270334865"><ele>363.3333333333333</ele><time>2026-04-19T12:37:07Z</time></trkpt><trkpt lat="41.137020262400384" lon="15.405297406477255"><ele>360.0</ele><time>2026-04-19T12:37:08Z</time></trkpt><trkpt lat="41.13696247153106" lon="15.40523606326267"><ele>356.6666666666667</ele><time>2026-04-19T12:37:09Z</time></trkpt><trkpt lat="41.13688835336205" lon="15.405171840486469"><ele>353.33333333333337</ele><time>2026-04-19T12:37:11Z</time></trkpt><trkpt lat="41.136805695663725" lon="15.405240505734396"><ele>350.0</ele><time>2026-04-19T12:37:14Z</time></trkpt><trkpt lat="41.136775996914935" lon="15.405323970335127"><ele>350.0</ele><time>2026-04-19T12:37:15Z</time></trkpt><trkpt lat="41.136755022268986" lon="15.40543423249726"><ele>350.0</ele><time>2026-04-19T12:37:16Z</time></trkpt><trkpt lat="41.13674513081065" lon="15.405576212897875"><ele>350.0</ele><time>2026-04-19T12:37:17Z</time></trkpt><trkpt lat="41.13674114093356" lon="15.405731417465516"><ele>350.0</ele><time>2026-04-19T12:37:18Z</time></trkpt><trkpt lat="41.136729547798815" lon="15.40589460405633"><ele>350.0</ele><time>2026-04-19T12:37:19Z</time></trkpt><trkpt lat="41.136707832239175" lon="15.406025779176739"><ele>350.0</ele><time>2026-04-19T12:37:20Z</time></trkpt><trkpt lat="41.13668979650488" lon="15.406146231271414"><ele>350.0</ele><time>2026-04-19T12:37:21Z</time></trkpt><trkpt lat="41.136687909230076" lon="15.406275229309163"><ele>350.0</ele><time>2026-04-19T12:37:22Z</time></trkpt><trkpt lat="41.13669899972777" lon="15.406429020969837"><ele>350.0</ele><time>2026-04-19T12:37:23Z</time></trkpt><trkpt lat="41.136710035472554" lon="15.40660364671212"><ele>350.0</ele><time>2026-04-19T12:37:24Z</time></trkpt><trkpt lat="41.13671963630266" lon="15.40680639294476"><ele>349.25</ele><time>2026-04-19T12:37:25Z</time></trkpt><trkpt lat="41.136723024426104" lon="15.40701453439094"><ele>348.5</ele><time>2026-04-19T12:37:26Z</time></trkpt><trkpt lat="41.1367144834607" lon="15.40718767149848"><ele>347.75</ele><time>2026-04-19T12:37:27Z</time></trkpt><trkpt lat="41.13668517401166" lon="15.407341595313895"><ele>347.0</ele><time>2026-04-19T12:37:28Z</time></trkpt><trkpt lat="41.13665467628615" lon="15.40748526163385"><ele>346.8</ele><time>2026-04-19T12:37:29Z</time></trkpt><trkpt lat="41.1366345109735" lon="15.407623266733388"><ele>346.6</ele><time>2026-04-19T12:37:30Z</time></trkpt><trkpt lat="41.13662813723377" lon="15.407768157963586"><ele>346.40000000000003</ele><time>2026-04-19T12:37:31Z</time></trkpt><trkpt lat="41.136629687947604" lon="15.407921446341357"><ele>346.20000000000005</ele><time>2026-04-19T12:37:32Z</time></trkpt><trkpt lat="41.1366337673556" lon="15.408064019719973"><ele>346.0</ele><time>2026-04-19T12:37:33Z</time></trkpt><trkpt lat="41.136635755778585" lon="15.408198812946003"><ele>345.8</ele><time>2026-04-19T12:37:34Z</time></trkpt><trkpt lat="41.13663790490153" lon="15.408344422661376"><ele>345.6</ele><time>2026-04-19T12:37:35Z</time></trkpt><trkpt lat="41.13663917312051" lon="15.408497074115106"><ele>345.4</ele><time>2026-04-19T12:37:36Z</time></trkpt><trkpt lat="41.13664111893579" lon="15.408647618071234"><ele>345.2</ele><time>2026-04-19T12:37:37Z</time></trkpt><trkpt lat="41.13664001824228" lon="15.40878779455977"><ele>345.0</ele><time>2026-04-19T12:37:38Z</time></trkpt><trkpt lat="41.13663821091746" lon="15.408917086370254"><ele>345.0</ele><time>2026-04-19T12:37:39Z</time></trkpt><trkpt lat="41.13663165468024" lon="15.409030541928102"><ele>345.0</ele><time>2026-04-19T12:37:40Z</time></trkpt><trkpt lat="41.13662254004584" lon="15.409120839979538"><ele>345.0</ele><time>2026-04-19T12:37:41Z</time></trkpt><trkpt lat="41.136593291284726" lon="15.40927562571059"><ele>345.0</ele><time>2026-04-19T12:37:43Z</time></trkpt><trkpt lat="41.136541768243" lon="15.409365696397199"><ele>345.0</ele><time>2026-04-19T12:37:45Z</time></trkpt><trkpt lat="41.136472618181486" lon="15.409339577734155"><ele>345.0</ele><time>2026-04-19T12:37:47Z</time></trkpt><trkpt lat="41.13643951200759" lon="15.409208299775255"><ele>344.6</ele><time>2026-04-19T12:37:49Z</time></trkpt><trkpt lat="41.136425738553115" lon="15.409070533862536"><ele>344.2</ele><time>2026-04-19T12:37:51Z</time></trkpt><trkpt lat="41.136365004350345" lon="15.408913675157876"><ele>343.79999999999995</ele><time>2026-04-19T12:37:53Z</time></trkpt><trkpt lat="41.136332518623185" lon="15.408830714464454"><ele>343.4</ele><time>2026-04-19T12:37:54Z</time></trkpt><trkpt lat="41.13629326053262" lon="15.408731591623287"><ele>343.0</ele><time>2026-04-19T12:37:55Z</time></trkpt><trkpt lat="41.13625259711726" lon="15.408635112567959"><ele>343.0</ele><time>2026-04-19T12:37:56Z</time></trkpt><trkpt lat="41.136233058259016" lon="15.408549655625324"><ele>343.0</ele><time>2026-04-19T12:37:57Z</time></trkpt><trkpt lat="41.136247852698425" lon="15.408398064379075"><ele>343.0</ele><time>2026-04-19T12:37:59Z</time></trkpt><trkpt lat="41.136276546661975" lon="15.408255353148498"><ele>343.0</ele><time>2026-04-19T12:38:01Z</time></trkpt><trkpt lat="41.136240042841585" lon="15.408168067659444"><ele>343.0</ele><time>2026-04-19T12:38:03Z</time></trkpt><trkpt lat="41.13616762867475" lon="15.408140499785544"><ele>343.0</ele><time>2026-04-19T12:38:05Z</time></trkpt><trkpt lat="41.13608080916873" lon="15.408155329080396"><ele>343.0</ele><time>2026-04-19T12:38:07Z</time></trkpt><trkpt lat="41.136003711268266" lon="15.4081732474513"><ele>343.0</ele><time>2026-04-19T12:38:08Z</time></trkpt><trkpt lat="41.13592763327182" lon="15.408197261915237"><ele>343.0</ele><time>2026-04-19T12:38:09Z</time></trkpt><trkpt lat="41.135849914544075" lon="15.408218315665335"><ele>343.0</ele><time>2026-04-19T12:38:10Z</time></trkpt><trkpt lat="41.135765681323086" lon="15.408230576467435"><ele>343.0</ele><time>2026-04-19T12:38:11Z</time></trkpt><trkpt lat="41.135688562442596" lon="15.408225868997606"><ele>343.0</ele><time>2026-04-19T12:38:12Z</time></trkpt><trkpt lat="41.135608789858054" lon="15.408194469291733"><ele>345.2</ele><time>2026-04-19T12:38:13Z</time></trkpt><trkpt lat="41.13553356716913" lon="15.408139807033907"><ele>347.4</ele><time>2026-04-19T12:38:14Z</time></trkpt><trkpt lat="41.135451074483015" lon="15.408077797988733"><ele>349.59999999999997</ele><time>2026-04-19T12:38:15Z</time></trkpt><trkpt lat="41.13534993254431" lon="15.408030078335079"><ele>351.79999999999995</ele><time>2026-04-19T12:38:16Z</time></trkpt><trkpt lat="41.13523793575024" lon="15.407985854395571"><ele>354.0</ele><time>2026-04-19T12:38:17Z</time></trkpt><trkpt lat="41.13512206088667" lon="15.407942781504845"><ele>355.5</ele><time>2026-04-19T12:38:18Z</time></trkpt><trkpt lat="41.13500555072628" lon="15.407903903252944"><ele>357.0</ele><time>2026-04-19T12:38:19Z</time></trkpt><trkpt lat="41.13490034575137" lon="15.407834901630737"><ele>358.5</ele><time>2026-04-19T12:38:20Z</time></trkpt><trkpt lat="41.13481286430988" lon="15.40776072259205"><ele>360.0</ele><time>2026-04-19T12:38:21Z</time></trkpt><trkpt lat="41.134718486256354" lon="15.407685055270765"><ele>360.0</ele><time>2026-04-19T12:38:22Z</time></trkpt><trkpt lat="41.13463396639811" lon="15.407602035657114"><ele>360.0</ele><time>2026-04-19T12:38:22.999Z</time></trkpt><trkpt lat="41.13455120020599" lon="15.407507992607165"><ele>360.0</ele><time>2026-04-19T12:38:23.999Z</time></trkpt><trkpt lat="41.13445619683211" lon="15.407450362826582"><ele>360.0</ele><time>2026-04-19T12:38:24.999Z</time></trkpt><trkpt lat="41.13434405655221" lon="15.407416940862744"><ele>360.0</ele><time>2026-04-19T12:38:25.999Z</time></trkpt><trkpt lat="41.1342355005065" lon="15.407392908997844"><ele>360.0</ele><time>2026-04-19T12:38:26.999Z</time></trkpt><trkpt lat="41.134151766736245" lon="15.407371053918961"><ele>360.0</ele><time>2026-04-19T12:38:27.999Z</time></trkpt><trkpt lat="41.134076078276" lon="15.407271789080344"><ele>360.0</ele><time>2026-04-19T12:38:29.999Z</time></trkpt><trkpt lat="41.13402088852733" lon="15.407198408911874"><ele>360.0</ele><time>2026-04-19T12:38:30.999Z</time></trkpt><trkpt lat="41.13395172101367" lon="15.407120471094524"><ele>360.0</ele><time>2026-04-19T12:38:31.999Z</time></trkpt><trkpt lat="41.13387184237309" lon="15.407023469882683"><ele>361.3333333333333</ele><time>2026-04-19T12:38:32.999Z</time></trkpt><trkpt lat="41.133807987846794" lon="15.406932358522905"><ele>362.6666666666667</ele><time>2026-04-19T12:38:33.999Z</time></trkpt><trkpt lat="41.133763458905825" lon="15.406828290169974"><ele>364.0</ele><time>2026-04-19T12:38:34.999Z</time></trkpt><trkpt lat="41.1337390685453" lon="15.40673583798785"><ele>365.33333333333337</ele><time>2026-04-19T12:38:35.999Z</time></trkpt><trkpt lat="41.13371932754873" lon="15.406642679050742"><ele>366.6666666666667</ele><time>2026-04-19T12:38:36.999Z</time></trkpt><trkpt lat="41.13369283069945" lon="15.406522037317107"><ele>368.0</ele><time>2026-04-19T12:38:37.999Z</time></trkpt><trkpt lat="41.13366583557225" lon="15.406414151548379"><ele>369.59999999999997</ele><time>2026-04-19T12:38:38.999Z</time></trkpt><trkpt lat="41.133651072786655" lon="15.406296621974178"><ele>371.2</ele><time>2026-04-19T12:38:39.999Z</time></trkpt><trkpt lat="41.13363179313323" lon="15.406173680868564"><ele>372.8</ele><time>2026-04-19T12:38:40.999Z</time></trkpt><trkpt lat="41.133625604067035" lon="15.40604824964288"><ele>374.4</ele><time>2026-04-19T12:38:41.999Z</time></trkpt><trkpt lat="41.13362670728558" lon="15.405930120194634"><ele>376.0</ele><time>2026-04-19T12:38:42.999Z</time></trkpt><trkpt lat="41.1336149129393" lon="15.405802709838369"><ele>376.0</ele><time>2026-04-19T12:38:43.999Z</time></trkpt><trkpt lat="41.13359711946861" lon="15.405674271198928"><ele>376.0</ele><time>2026-04-19T12:38:44.999Z</time></trkpt><trkpt lat="41.13356763435752" lon="15.405556429922436"><ele>376.0</ele><time>2026-04-19T12:38:45.999Z</time></trkpt><trkpt lat="41.133530143788754" lon="15.405411016377073"><ele>376.0</ele><time>2026-04-19T12:38:46.999Z</time></trkpt><trkpt lat="41.13349525143713" lon="15.4052764562314"><ele>376.0</ele><time>2026-04-19T12:38:47.999Z</time></trkpt><trkpt lat="41.13347034265512" lon="15.405144378312173"><ele>378.4</ele><time>2026-04-19T12:38:48.999Z</time></trkpt><trkpt lat="41.13345892435086" lon="15.405017020297795"><ele>380.8</ele><time>2026-04-19T12:38:49.999Z</time></trkpt><trkpt lat="41.13344584595041" lon="15.404889235376615"><ele>383.2</ele><time>2026-04-19T12:38:50.999Z</time></trkpt><trkpt lat="41.13343184587044" lon="15.404763799868713"><ele>385.59999999999997</ele><time>2026-04-19T12:38:51.999Z</time></trkpt><trkpt lat="41.13341854547992" lon="15.404650089004129"><ele>388.0</ele><time>2026-04-19T12:38:52.999Z</time></trkpt><trkpt lat="41.13340947178239" lon="15.404524697325904"><ele>389.79999999999995</ele><time>2026-04-19T12:38:53.999Z</time></trkpt><trkpt lat="41.133400862267884" lon="15.404407312813936"><ele>391.6</ele><time>2026-04-19T12:38:54.999Z</time></trkpt><trkpt lat="41.13339643527185" lon="15.404271786435189"><ele>393.4</ele><time>2026-04-19T12:38:55.999Z</time></trkpt><trkpt lat="41.133396052308925" lon="15.404126208200537"><ele>395.20000000000005</ele><time>2026-04-19T12:38:56.999Z</time></trkpt><trkpt lat="41.133393942988775" lon="15.403970839319982"><ele>397.0</ele><time>2026-04-19T12:38:57.999Z</time></trkpt><trkpt lat="41.13339667572363" lon="15.40382231980306"><ele>398.0</ele><time>2026-04-19T12:38:58.999Z</time></trkpt><trkpt lat="41.13341322146592" lon="15.403689673734467"><ele>399.0</ele><time>2026-04-19T12:38:59.999Z</time></trkpt><trkpt lat="41.13340356391396" lon="15.403563460345728"><ele>400.0</ele><time>2026-04-19T12:39:00.999Z</time></trkpt><trkpt lat="41.133368064854764" lon="15.40342605987105"><ele>401.0</ele><time>2026-04-19T12:39:01.999Z</time></trkpt><trkpt lat="41.13330880067504" lon="15.403303141532222"><ele>402.0</ele><time>2026-04-19T12:39:02.999Z</time></trkpt><trkpt lat="41.133244263047835" lon="15.40317782737282"><ele>403.0</ele><time>2026-04-19T12:39:03.999Z</time></trkpt><trkpt lat="41.13318385944945" lon="15.403041669572621"><ele>404.0</ele><time>2026-04-19T12:39:05Z</time></trkpt><trkpt lat="41.13312081237949" lon="15.402916401679276"><ele>405.0</ele><time>2026-04-19T12:39:06Z</time></trkpt><trkpt lat="41.13305534840714" lon="15.402814153320756"><ele>406.0</ele><time>2026-04-19T12:39:07Z</time></trkpt><trkpt lat="41.13297560366171" lon="15.402696260520974"><ele>408.75</ele><time>2026-04-19T12:39:08Z</time></trkpt><trkpt lat="41.13290053951714" lon="15.40258121647"><ele>411.5</ele><time>2026-04-19T12:39:09Z</time></trkpt><trkpt lat="41.13282939426401" lon="15.40246187048409"><ele>414.25</ele><time>2026-04-19T12:39:10Z</time></trkpt><trkpt lat="41.132763089727305" lon="15.402343222902543"><ele>417.0</ele><time>2026-04-19T12:39:11Z</time></trkpt><trkpt lat="41.13270063118533" lon="15.402221895595634"><ele>418.75</ele><time>2026-04-19T12:39:12Z</time></trkpt><trkpt lat="41.13263346841518" lon="15.402102308145798"><ele>420.5</ele><time>2026-04-19T12:39:13Z</time></trkpt><trkpt lat="41.1325628794696" lon="15.401975727976895"><ele>422.25</ele><time>2026-04-19T12:39:14Z</time></trkpt><trkpt lat="41.13249746855927" lon="15.401850245529486"><ele>424.0</ele><time>2026-04-19T12:39:15Z</time></trkpt><trkpt lat="41.13243517775048" lon="15.401714823080122"><ele>424.6</ele><time>2026-04-19T12:39:16Z</time></trkpt><trkpt lat="41.13237935241624" lon="15.401577466083086"><ele>425.2</ele><time>2026-04-19T12:39:17Z</time></trkpt><trkpt lat="41.132330835359426" lon="15.401445972887446"><ele>425.80000000000007</ele><time>2026-04-19T12:39:18Z</time></trkpt><trkpt lat="41.13228581504197" lon="15.401309377697485"><ele>426.40000000000003</ele><time>2026-04-19T12:39:19Z</time></trkpt><trkpt lat="41.132240613887646" lon="15.401184792002436"><ele>427.0</ele><time>2026-04-19T12:39:20Z</time></trkpt><trkpt lat="41.13219581667824" lon="15.401047287968895"><ele>428.6</ele><time>2026-04-19T12:39:21Z</time></trkpt><trkpt lat="41.13215344410445" lon="15.400919947803645"><ele>430.20000000000005</ele><time>2026-04-19T12:39:22Z</time></trkpt><trkpt lat="41.13210301681448" lon="15.400793516701803"><ele>431.8</ele><time>2026-04-19T12:39:23Z</time></trkpt><trkpt lat="41.13204975774854" lon="15.400679757856615"><ele>433.4</ele><time>2026-04-19T12:39:24Z</time></trkpt><trkpt lat="41.13200145927396" lon="15.400566583979133"><ele>435.0</ele><time>2026-04-19T12:39:25Z</time></trkpt><trkpt lat="41.131946609918636" lon="15.400441100443414"><ele>437.25</ele><time>2026-04-19T12:39:26Z</time></trkpt><trkpt lat="41.131888645059426" lon="15.400321959005316"><ele>439.5</ele><time>2026-04-19T12:39:27Z</time></trkpt><trkpt lat="41.13182209894558" lon="15.400200546919676"><ele>441.75</ele><time>2026-04-19T12:39:28Z</time></trkpt><trkpt lat="41.13175424109504" lon="15.400069685676687"><ele>444.0</ele><time>2026-04-19T12:39:29Z</time></trkpt><trkpt lat="41.13168526077731" lon="15.39994686751021"><ele>444.0</ele><time>2026-04-19T12:39:30Z</time></trkpt><trkpt lat="41.13160944485058" lon="15.399812014045708"><ele>444.0</ele><time>2026-04-19T12:39:31Z</time></trkpt><trkpt lat="41.13153392685229" lon="15.399680537119954"><ele>444.0</ele><time>2026-04-19T12:39:32Z</time></trkpt><trkpt lat="41.131453989517986" lon="15.39952878024808"><ele>444.0</ele><time>2026-04-19T12:39:33Z</time></trkpt><trkpt lat="41.13137191155894" lon="15.399387425270557"><ele>445.75</ele><time>2026-04-19T12:39:34Z</time></trkpt><trkpt lat="41.13129547919613" lon="15.399252918323239"><ele>447.5</ele><time>2026-04-19T12:39:35Z</time></trkpt><trkpt lat="41.131217911850285" lon="15.399107798232048"><ele>449.25</ele><time>2026-04-19T12:39:36Z</time></trkpt><trkpt lat="41.13114130180537" lon="15.398972521059102"><ele>451.0</ele><time>2026-04-19T12:39:37Z</time></trkpt><trkpt lat="41.131075944467376" lon="15.39884720690413"><ele>451.8</ele><time>2026-04-19T12:39:38Z</time></trkpt><trkpt lat="41.131014526043046" lon="15.398713843745904"><ele>452.6</ele><time>2026-04-19T12:39:39Z</time></trkpt><trkpt lat="41.13095881014706" lon="15.398573984230989"><ele>453.4</ele><time>2026-04-19T12:39:40Z</time></trkpt><trkpt lat="41.13090765836385" lon="15.398445039378332"><ele>454.2</ele><time>2026-04-19T12:39:41Z</time></trkpt><trkpt lat="41.13087079122025" lon="15.398337440090044"><ele>455.0</ele><time>2026-04-19T12:39:42Z</time></trkpt><trkpt lat="41.13080419359523" lon="15.39820692613246"><ele>455.0</ele><time>2026-04-19T12:39:44Z</time></trkpt><trkpt lat="41.130737623479796" lon="15.398227219264761"><ele>455.0</ele><time>2026-04-19T12:39:46Z</time></trkpt><trkpt lat="41.13068743742993" lon="15.398372440423664"><ele>455.0</ele><time>2026-04-19T12:39:48Z</time></trkpt><trkpt lat="41.13065623181793" lon="15.398474573530272"><ele>455.0</ele><time>2026-04-19T12:39:49Z</time></trkpt><trkpt lat="41.13060584710799" lon="15.398583305675427"><ele>455.0</ele><time>2026-04-19T12:39:50Z</time></trkpt><trkpt lat="41.130559029307925" lon="15.398685759555411"><ele>456.2</ele><time>2026-04-19T12:39:51Z</time></trkpt><trkpt lat="41.13050891804522" lon="15.398797491485274"><ele>457.4</ele><time>2026-04-19T12:39:52Z</time></trkpt><trkpt lat="41.13044940531012" lon="15.398899736707683"><ele>458.6</ele><time>2026-04-19T12:39:53Z</time></trkpt><trkpt lat="41.13040710120199" lon="15.39896964645004"><ele>459.8</ele><time>2026-04-19T12:39:54Z</time></trkpt><trkpt lat="41.13034600240588" lon="15.399054318697926"><ele>461.0</ele><time>2026-04-19T12:39:55Z</time></trkpt><trkpt lat="41.13027372791843" lon="15.399147290965683"><ele>461.0</ele><time>2026-04-19T12:39:56Z</time></trkpt><trkpt lat="41.13018983765215" lon="15.399253562972488"><ele>461.0</ele><time>2026-04-19T12:39:57Z</time></trkpt><trkpt lat="41.13010449930412" lon="15.399365065159259"><ele>461.0</ele><time>2026-04-19T12:39:58Z</time></trkpt><trkpt lat="41.13001142952168" lon="15.399485316269232"><ele>461.0</ele><time>2026-04-19T12:39:59Z</time></trkpt><trkpt lat="41.12992036097657" lon="15.399607051638545"><ele>462.20000000000005</ele><time>2026-04-19T12:40:00Z</time></trkpt><trkpt lat="41.12983690501325" lon="15.39972176653822"><ele>463.40000000000003</ele><time>2026-04-19T12:40:01Z</time></trkpt><trkpt lat="41.1297690577145" lon="15.399830426441563"><ele>464.6</ele><time>2026-04-19T12:40:02Z</time></trkpt><trkpt lat="41.129703017245724" lon="15.399926459143346"><ele>465.8</ele><time>2026-04-19T12:40:03Z</time></trkpt><trkpt lat="41.12962868639521" lon="15.400021136302797"><ele>467.0</ele><time>2026-04-19T12:40:04Z</time></trkpt><trkpt lat="41.129541761505564" lon="15.40012004286771"><ele>467.0</ele><time>2026-04-19T12:40:05Z</time></trkpt><trkpt lat="41.12946222120984" lon="15.400209214617073"><ele>467.0</ele><time>2026-04-19T12:40:06Z</time></trkpt><trkpt lat="41.12938040301463" lon="15.400310337755483"><ele>467.0</ele><time>2026-04-19T12:40:07Z</time></trkpt><trkpt lat="41.129295432897486" lon="15.400434780491345"><ele>467.0</ele><time>2026-04-19T12:40:08Z</time></trkpt><trkpt lat="41.1291946680736" lon="15.400563777592476"><ele>468.0</ele><time>2026-04-19T12:40:09Z</time></trkpt><trkpt lat="41.129100112229665" lon="15.400686955833415"><ele>469.0</ele><time>2026-04-19T12:40:10Z</time></trkpt><trkpt lat="41.12902255437648" lon="15.400792164756057"><ele>470.0</ele><time>2026-04-19T12:40:11Z</time></trkpt><trkpt lat="41.12895370887839" lon="15.400886799408115"><ele>471.0</ele><time>2026-04-19T12:40:12Z</time></trkpt><trkpt lat="41.12887125113371" lon="15.400988637916502"><ele>471.0</ele><time>2026-04-19T12:40:13Z</time></trkpt><trkpt lat="41.12877910925014" lon="15.401095211755727"><ele>471.0</ele><time>2026-04-19T12:40:14Z</time></trkpt><trkpt lat="41.128689665224556" lon="15.401215894558314"><ele>471.0</ele><time>2026-04-19T12:40:15Z</time></trkpt><trkpt lat="41.12859508599942" lon="15.40133330576294"><ele>471.0</ele><time>2026-04-19T12:40:16Z</time></trkpt><trkpt lat="41.128508110060174" lon="15.401435763968788"><ele>470.25</ele><time>2026-04-19T12:40:17Z</time></trkpt><trkpt lat="41.12842219295226" lon="15.401537086229174"><ele>469.5</ele><time>2026-04-19T12:40:18Z</time></trkpt><trkpt lat="41.12832017593621" lon="15.401643213281256"><ele>468.75</ele><time>2026-04-19T12:40:19Z</time></trkpt><trkpt lat="41.128214325497446" lon="15.40175443961064"><ele>468.0</ele><time>2026-04-19T12:40:20Z</time></trkpt><trkpt lat="41.12810536891071" lon="15.401869220148384"><ele>468.0</ele><time>2026-04-19T12:40:21Z</time></trkpt><trkpt lat="41.12800768730612" lon="15.4019733582602"><ele>468.0</ele><time>2026-04-19T12:40:21.999Z</time></trkpt><trkpt lat="41.12792369953206" lon="15.402066325836426"><ele>468.0</ele><time>2026-04-19T12:40:22.999Z</time></trkpt><trkpt lat="41.127837197416774" lon="15.402165830759952"><ele>468.0</ele><time>2026-04-19T12:40:23.999Z</time></trkpt><trkpt lat="41.127745135720296" lon="15.402281259375673"><ele>466.0</ele><time>2026-04-19T12:40:24.999Z</time></trkpt><trkpt lat="41.12764330779685" lon="15.402407858259021"><ele>464.0</ele><time>2026-04-19T12:40:25.999Z</time></trkpt><trkpt lat="41.12753438517814" lon="15.40254615423733"><ele>462.0</ele><time>2026-04-19T12:40:26.999Z</time></trkpt><trkpt lat="41.127437587504346" lon="15.402674869072744"><ele>460.0</ele><time>2026-04-19T12:40:27.999Z</time></trkpt><trkpt lat="41.1273412946309" lon="15.402815224869682"><ele>460.0</ele><time>2026-04-19T12:40:28.999Z</time></trkpt><trkpt lat="41.1272548020849" lon="15.402954561067348"><ele>460.0</ele><time>2026-04-19T12:40:29.999Z</time></trkpt><trkpt lat="41.12715849884889" lon="15.403108528533464"><ele>460.0</ele><time>2026-04-19T12:40:30.999Z</time></trkpt><trkpt lat="41.12706695704637" lon="15.40325819508344"><ele>460.0</ele><time>2026-04-19T12:40:31.999Z</time></trkpt><trkpt lat="41.12698256430019" lon="15.403400724307959"><ele>458.25</ele><time>2026-04-19T12:40:32.999Z</time></trkpt><trkpt lat="41.126902518304114" lon="15.403546356242888"><ele>456.5</ele><time>2026-04-19T12:40:33.999Z</time></trkpt><trkpt lat="41.12682024564873" lon="15.403693818600566"><ele>454.75</ele><time>2026-04-19T12:40:34.999Z</time></trkpt><trkpt lat="41.12673742956492" lon="15.403845522152691"><ele>453.0</ele><time>2026-04-19T12:40:35.999Z</time></trkpt><trkpt lat="41.12666371945693" lon="15.403984171621142"><ele>452.79999999999995</ele><time>2026-04-19T12:40:36.999Z</time></trkpt><trkpt lat="41.126596945589284" lon="15.404100296867481"><ele>452.59999999999997</ele><time>2026-04-19T12:40:37.999Z</time></trkpt><trkpt lat="41.12653426352793" lon="15.404202393323772"><ele>452.40000000000003</ele><time>2026-04-19T12:40:38.999Z</time></trkpt><trkpt lat="41.12646641583317" lon="15.40428588980885"><ele>452.20000000000005</ele><time>2026-04-19T12:40:39.999Z</time></trkpt><trkpt lat="41.12640116979316" lon="15.404343249821142"><ele>452.0</ele><time>2026-04-19T12:40:40.999Z</time></trkpt><trkpt lat="41.126336693260725" lon="15.404411047992543"><ele>452.0</ele><time>2026-04-19T12:40:41.999Z</time></trkpt><trkpt lat="41.12626480679333" lon="15.40449909408079"><ele>452.00000000000006</ele><time>2026-04-19T12:40:42.999Z</time></trkpt><trkpt lat="41.126190282116276" lon="15.404595931300573"><ele>452.00000000000006</ele><time>2026-04-19T12:40:43.999Z</time></trkpt><trkpt lat="41.12610813112257" lon="15.404709409204845"><ele>452.0</ele><time>2026-04-19T12:40:44.999Z</time></trkpt><trkpt lat="41.126035551626344" lon="15.404829652806116"><ele>452.0</ele><time>2026-04-19T12:40:45.999Z</time></trkpt><trkpt lat="41.12595413497497" lon="15.404949342349854"><ele>450.25</ele><time>2026-04-19T12:40:46.999Z</time></trkpt><trkpt lat="41.125870512788595" lon="15.40506751963115"><ele>448.5</ele><time>2026-04-19T12:40:47.999Z</time></trkpt><trkpt lat="41.12578953223968" lon="15.405196158236569"><ele>446.75</ele><time>2026-04-19T12:40:48.999Z</time></trkpt><trkpt lat="41.125706266781286" lon="15.405332470505744"><ele>445.0</ele><time>2026-04-19T12:40:49.999Z</time></trkpt><trkpt lat="41.12561574322483" lon="15.405453205450728"><ele>443.0</ele><time>2026-04-19T12:40:50.999Z</time></trkpt><trkpt lat="41.125510992918" lon="15.405569106353505"><ele>441.0</ele><time>2026-04-19T12:40:51.999Z</time></trkpt><trkpt lat="41.12540356529602" lon="15.405673549913864"><ele>439.0</ele><time>2026-04-19T12:40:52.999Z</time></trkpt><trkpt lat="41.12529216468293" lon="15.405781614829449"><ele>437.0</ele><time>2026-04-19T12:40:53.999Z</time></trkpt><trkpt lat="41.125177745527566" lon="15.405885151119625"><ele>437.0</ele><time>2026-04-19T12:40:54.999Z</time></trkpt><trkpt lat="41.12506827065365" lon="15.405982392245969"><ele>437.0</ele><time>2026-04-19T12:40:55.999Z</time></trkpt><trkpt lat="41.12496362400247" lon="15.406091525658455"><ele>437.0</ele><time>2026-04-19T12:40:56.999Z</time></trkpt><trkpt lat="41.12486551872845" lon="15.406192828551715"><ele>437.0</ele><time>2026-04-19T12:40:57.999Z</time></trkpt><trkpt lat="41.124758104129455" lon="15.406289332075863"><ele>435.5</ele><time>2026-04-19T12:40:58.999Z</time></trkpt><trkpt lat="41.12465356837995" lon="15.406375828092582"><ele>434.0</ele><time>2026-04-19T12:40:59.999Z</time></trkpt><trkpt lat="41.124545722694116" lon="15.406464573806948"><ele>432.5</ele><time>2026-04-19T12:41:00.999Z</time></trkpt><trkpt lat="41.12444982797651" lon="15.40655224205288"><ele>431.0</ele><time>2026-04-19T12:41:01.999Z</time></trkpt><trkpt lat="41.12435076248865" lon="15.406649479196153"><ele>431.0</ele><time>2026-04-19T12:41:02.999Z</time></trkpt><trkpt lat="41.12425906973129" lon="15.40672352037716"><ele>431.0</ele><time>2026-04-19T12:41:03.999Z</time></trkpt><trkpt lat="41.12417563838713" lon="15.406775555417886"><ele>431.0</ele><time>2026-04-19T12:41:04.999Z</time></trkpt><trkpt lat="41.12409411239191" lon="15.406817381113774"><ele>431.0</ele><time>2026-04-19T12:41:05.999Z</time></trkpt><trkpt lat="41.1239991886403" lon="15.406865194528727"><ele>431.0</ele><time>2026-04-19T12:41:06.999Z</time></trkpt><trkpt lat="41.12391162157717" lon="15.40692069613611"><ele>429.6</ele><time>2026-04-19T12:41:07.999Z</time></trkpt><trkpt lat="41.12381611994341" lon="15.406984335479288"><ele>428.20000000000005</ele><time>2026-04-19T12:41:08.999Z</time></trkpt><trkpt lat="41.123727875143565" lon="15.407047333886652"><ele>426.79999999999995</ele><time>2026-04-19T12:41:09.999Z</time></trkpt><trkpt lat="41.12363845604213" lon="15.407117938827055"><ele>425.4</ele><time>2026-04-19T12:41:11Z</time></trkpt><trkpt lat="41.12355558706929" lon="15.407199208270047"><ele>424.0</ele><time>2026-04-19T12:41:12Z</time></trkpt><trkpt lat="41.12348297899464" lon="15.407273507363497"><ele>422.6</ele><time>2026-04-19T12:41:13Z</time></trkpt><trkpt lat="41.12340381939049" lon="15.407339063048264"><ele>421.2</ele><time>2026-04-19T12:41:14Z</time></trkpt><trkpt lat="41.12331172940996" lon="15.407396942320894"><ele>419.8</ele><time>2026-04-19T12:41:15Z</time></trkpt><trkpt lat="41.123215561146566" lon="15.407453077111963"><ele>418.40000000000003</ele><time>2026-04-19T12:41:16Z</time></trkpt><trkpt lat="41.12311565681071" lon="15.40750756910754"><ele>417.0</ele><time>2026-04-19T12:41:17Z</time></trkpt><trkpt lat="41.12300974953291" lon="15.407551530620866"><ele>412.75</ele><time>2026-04-19T12:41:18Z</time></trkpt><trkpt lat="41.12289429246255" lon="15.407580269353762"><ele>408.5</ele><time>2026-04-19T12:41:19Z</time></trkpt><trkpt lat="41.12277401261464" lon="15.407588204379117"><ele>404.25</ele><time>2026-04-19T12:41:20Z</time></trkpt><trkpt lat="41.12266067161344" lon="15.407597196100093"><ele>400.0</ele><time>2026-04-19T12:41:21Z</time></trkpt><trkpt lat="41.12255474269354" lon="15.407615264875302"><ele>400.0</ele><time>2026-04-19T12:41:22Z</time></trkpt><trkpt lat="41.122460582053314" lon="15.407647077853218"><ele>400.0</ele><time>2026-04-19T12:41:23Z</time></trkpt><trkpt lat="41.12236833243045" lon="15.407664608887066"><ele>400.0</ele><time>2026-04-19T12:41:24Z</time></trkpt><trkpt lat="41.12226394717505" lon="15.40766938011763"><ele>400.0</ele><time>2026-04-19T12:41:25Z</time></trkpt><trkpt lat="41.122161048381194" lon="15.40768570610925"><ele>400.0</ele><time>2026-04-19T12:41:26Z</time></trkpt><trkpt lat="41.12206353395707" lon="15.407704137070057"><ele>397.2</ele><time>2026-04-19T12:41:27Z</time></trkpt><trkpt lat="41.12196170441662" lon="15.407718441464604"><ele>394.4</ele><time>2026-04-19T12:41:28Z</time></trkpt><trkpt lat="41.121874302291786" lon="15.407735647307163"><ele>391.6</ele><time>2026-04-19T12:41:29Z</time></trkpt><trkpt lat="41.12177417010768" lon="15.40776427976505"><ele>388.8</ele><time>2026-04-19T12:41:31Z</time></trkpt><trkpt lat="41.121746414113225" lon="15.407892611469302"><ele>386.0</ele><time>2026-04-19T12:41:33Z</time></trkpt><trkpt lat="41.121758686595534" lon="15.407987899624796"><ele>385.49999999999994</ele><time>2026-04-19T12:41:34Z</time></trkpt><trkpt lat="41.12175954862542" lon="15.40812283823532"><ele>385.0</ele><time>2026-04-19T12:41:36Z</time></trkpt><trkpt lat="41.121761597365044" lon="15.408215331521989"><ele>384.5</ele><time>2026-04-19T12:41:39Z</time></trkpt><trkpt lat="41.1217600005134" lon="15.40834171759921"><ele>384.0</ele><time>2026-04-19T12:41:42Z</time></trkpt><trkpt lat="41.12176688018969" lon="15.408429567836295"><ele>383.5</ele><time>2026-04-19T12:41:44Z</time></trkpt><trkpt lat="41.121780732410954" lon="15.408531236753158"><ele>383.0</ele><time>2026-04-19T12:41:47Z</time></trkpt><trkpt lat="41.121807359015314" lon="15.408643140754858"><ele>383.0</ele><time>2026-04-19T12:41:49Z</time></trkpt><trkpt lat="41.12182727664996" lon="15.408743552599548"><ele>383.0</ele><time>2026-04-19T12:41:50Z</time></trkpt><trkpt lat="41.12184439434343" lon="15.408866818004276"><ele>383.0</ele><time>2026-04-19T12:41:51Z</time></trkpt><trkpt lat="41.121853948399966" lon="15.409005950318084"><ele>383.0</ele><time>2026-04-19T12:41:52Z</time></trkpt><trkpt lat="41.12186417982635" lon="15.409148319449315"><ele>383.0</ele><time>2026-04-19T12:41:53Z</time></trkpt><trkpt lat="41.121877711653376" lon="15.40930206671018"><ele>383.4</ele><time>2026-04-19T12:41:54Z</time></trkpt><trkpt lat="41.12189104098085" lon="15.409432662617773"><ele>383.79999999999995</ele><time>2026-04-19T12:41:55Z</time></trkpt><trkpt lat="41.12186897341596" lon="15.409546345050163"><ele>384.2</ele><time>2026-04-19T12:41:56Z</time></trkpt><trkpt lat="41.12184052807683" lon="15.409675257734564"><ele>384.6</ele><time>2026-04-19T12:41:57Z</time></trkpt><trkpt lat="41.121827161714954" lon="15.409813424035685"><ele>385.0</ele><time>2026-04-19T12:41:58Z</time></trkpt><trkpt lat="41.12184383095399" lon="15.409972212833972"><ele>385.2</ele><time>2026-04-19T12:41:59Z</time></trkpt><trkpt lat="41.12184983596736" lon="15.410110446581605"><ele>385.4</ele><time>2026-04-19T12:42:00Z</time></trkpt><trkpt lat="41.121851219680835" lon="15.410239149339262"><ele>385.6</ele><time>2026-04-19T12:42:01Z</time></trkpt><trkpt lat="41.12184657163659" lon="15.410356754033758"><ele>385.8</ele><time>2026-04-19T12:42:02Z</time></trkpt><trkpt lat="41.12183905184056" lon="15.410472887744751"><ele>386.0</ele><time>2026-04-19T12:42:03Z</time></trkpt><trkpt lat="41.121837341337354" lon="15.410584925030223"><ele>385.0</ele><time>2026-04-19T12:42:04Z</time></trkpt><trkpt lat="41.12185947496817" lon="15.410707787597087"><ele>384.0</ele><time>2026-04-19T12:42:05Z</time></trkpt><trkpt lat="41.12191356048272" lon="15.410838442646845"><ele>383.0</ele><time>2026-04-19T12:42:06Z</time></trkpt><trkpt lat="41.12196672694721" lon="15.410960971060208"><ele>382.0</ele><time>2026-04-19T12:42:07Z</time></trkpt><trkpt lat="41.12202654099394" lon="15.41107867916417"><ele>381.0</ele><time>2026-04-19T12:42:08Z</time></trkpt><trkpt lat="41.12208344816595" lon="15.411190340183525"><ele>381.0</ele><time>2026-04-19T12:42:09Z</time></trkpt><trkpt lat="41.122131395554284" lon="15.411292376814234"><ele>381.0</ele><time>2026-04-19T12:42:10Z</time></trkpt><trkpt lat="41.122193513616295" lon="15.41140644343072"><ele>381.0</ele><time>2026-04-19T12:42:11Z</time></trkpt><trkpt lat="41.12226744110393" lon="15.411516419701067"><ele>381.0</ele><time>2026-04-19T12:42:12Z</time></trkpt><trkpt lat="41.12233908982555" lon="15.411606071163229"><ele>381.0</ele><time>2026-04-19T12:42:13Z</time></trkpt><trkpt lat="41.12241172650358" lon="15.411691053294634"><ele>381.4</ele><time>2026-04-19T12:42:14Z</time></trkpt><trkpt lat="41.12250126221604" lon="15.411766943658783"><ele>381.8</ele><time>2026-04-19T12:42:15Z</time></trkpt><trkpt lat="41.12259697185133" lon="15.411837805496202"><ele>382.2</ele><time>2026-04-19T12:42:16Z</time></trkpt><trkpt lat="41.12268756544662" lon="15.411898175717091"><ele>382.59999999999997</ele><time>2026-04-19T12:42:17Z</time></trkpt><trkpt lat="41.12276546766532" lon="15.41194972429834"><ele>383.0</ele><time>2026-04-19T12:42:18Z</time></trkpt><trkpt lat="41.12283223841494" lon="15.412011326947166"><ele>383.0</ele><time>2026-04-19T12:42:19Z</time></trkpt><trkpt lat="41.122895058688094" lon="15.412068218784025"><ele>383.0</ele><time>2026-04-19T12:42:20Z</time></trkpt><trkpt lat="41.12296687285719" lon="15.412114709007438"><ele>383.0</ele><time>2026-04-19T12:42:21Z</time></trkpt><trkpt lat="41.12303745009979" lon="15.412162301991604"><ele>383.0</ele><time>2026-04-19T12:42:22Z</time></trkpt><trkpt lat="41.12312545535428" lon="15.412183448929373"><ele>383.0</ele><time>2026-04-19T12:42:23Z</time></trkpt><trkpt lat="41.12322775453349" lon="15.41219655101939"><ele>383.0</ele><time>2026-04-19T12:42:24Z</time></trkpt><trkpt lat="41.123320144607014" lon="15.412198797525393"><ele>380.4</ele><time>2026-04-19T12:42:25Z</time></trkpt><trkpt lat="41.1234070831295" lon="15.412224304158189"><ele>377.79999999999995</ele><time>2026-04-19T12:42:25.999Z</time></trkpt><trkpt lat="41.12349761011819" lon="15.412248083915683"><ele>375.2</ele><time>2026-04-19T12:42:26.999Z</time></trkpt><trkpt lat="41.12359930711746" lon="15.412290508260705"><ele>372.6</ele><time>2026-04-19T12:42:27.999Z</time></trkpt><trkpt lat="41.123687816673495" lon="15.412333866430831"><ele>370.0</ele><time>2026-04-19T12:42:28.999Z</time></trkpt><trkpt lat="41.123776188318665" lon="15.412370779445924"><ele>370.0</ele><time>2026-04-19T12:42:29.999Z</time></trkpt><trkpt lat="41.12385963196178" lon="15.412421757059613"><ele>370.0</ele><time>2026-04-19T12:42:30.999Z</time></trkpt><trkpt lat="41.12392225800253" lon="15.412490528343366"><ele>370.0</ele><time>2026-04-19T12:42:31.999Z</time></trkpt><trkpt lat="41.12398678274392" lon="15.412592447816335"><ele>370.0</ele><time>2026-04-19T12:42:32.999Z</time></trkpt><trkpt lat="41.12405114879647" lon="15.412706408486423"><ele>370.0</ele><time>2026-04-19T12:42:33.999Z</time></trkpt><trkpt lat="41.12410450195556" lon="15.412824395779333"><ele>370.0</ele><time>2026-04-19T12:42:34.999Z</time></trkpt><trkpt lat="41.12414865306155" lon="15.412937090092525"><ele>370.0</ele><time>2026-04-19T12:42:35.999Z</time></trkpt><trkpt lat="41.12418916282055" lon="15.413032163810486"><ele>370.0</ele><time>2026-04-19T12:42:36.999Z</time></trkpt><trkpt lat="41.1242240313098" lon="15.413116325021415"><ele>370.0</ele><time>2026-04-19T12:42:37.999Z</time></trkpt><trkpt lat="41.12425302921275" lon="15.413210481476344"><ele>370.0</ele><time>2026-04-19T12:42:38.999Z</time></trkpt><trkpt lat="41.12428019156024" lon="15.413326353687564"><ele>370.0</ele><time>2026-04-19T12:42:39.999Z</time></trkpt><trkpt lat="41.12430784095151" lon="15.413440256146382"><ele>370.0</ele><time>2026-04-19T12:42:40.999Z</time></trkpt><trkpt lat="41.12434029716896" lon="15.413566570619444"><ele>370.0</ele><time>2026-04-19T12:42:41.999Z</time></trkpt><trkpt lat="41.124373297798144" lon="15.413669451544203"><ele>370.0</ele><time>2026-04-19T12:42:42.999Z</time></trkpt><trkpt lat="41.124406309593205" lon="15.41377516336203"><ele>370.0</ele><time>2026-04-19T12:42:43.999Z</time></trkpt><trkpt lat="41.124441214508515" lon="15.41385891108588"><ele>370.0</ele><time>2026-04-19T12:42:44.999Z</time></trkpt><trkpt lat="41.1244813346144" lon="15.413956019573511"><ele>370.0</ele><time>2026-04-19T12:42:45.999Z</time></trkpt><trkpt lat="41.12452200907329" lon="15.414038374645116"><ele>368.16666666666663</ele><time>2026-04-19T12:42:46.999Z</time></trkpt><trkpt lat="41.12456525228035" lon="15.41412308410386"><ele>366.3333333333333</ele><time>2026-04-19T12:42:47.999Z</time></trkpt><trkpt lat="41.12461400003419" lon="15.414206667944086"><ele>364.5</ele><time>2026-04-19T12:42:48.999Z</time></trkpt><trkpt lat="41.12466761564998" lon="15.414292051784845"><ele>362.6666666666667</ele><time>2026-04-19T12:42:49.999Z</time></trkpt><trkpt lat="41.12473160023231" lon="15.414371119901013"><ele>360.83333333333337</ele><time>2026-04-19T12:42:50.999Z</time></trkpt><trkpt lat="41.12479768019236" lon="15.414423270504933"><ele>359.0</ele><time>2026-04-19T12:42:51.999Z</time></trkpt><trkpt lat="41.1248676710219" lon="15.414471153254183"><ele>359.79999999999995</ele><time>2026-04-19T12:42:52.999Z</time></trkpt><trkpt lat="41.124951008340524" lon="15.414608625620039"><ele>360.59999999999997</ele><time>2026-04-19T12:42:54.999Z</time></trkpt><trkpt lat="41.12499042933441" lon="15.414736773988018"><ele>361.4</ele><time>2026-04-19T12:42:55.999Z</time></trkpt><trkpt lat="41.125031740428064" lon="15.414852034742413"><ele>362.2</ele><time>2026-04-19T12:42:56.999Z</time></trkpt><trkpt lat="41.12505359584274" lon="15.414954771666137"><ele>363.0</ele><time>2026-04-19T12:42:57.999Z</time></trkpt><trkpt lat="41.12507848412742" lon="15.415081351459454"><ele>363.0</ele><time>2026-04-19T12:42:58.999Z</time></trkpt><trkpt lat="41.12511061296432" lon="15.415220905235728"><ele>363.0</ele><time>2026-04-19T12:42:59.999Z</time></trkpt><trkpt lat="41.12513482203487" lon="15.415351393248828"><ele>363.0</ele><time>2026-04-19T12:43:00.999Z</time></trkpt><trkpt lat="41.125147353191174" lon="15.415454446121043"><ele>363.0</ele><time>2026-04-19T12:43:01.999Z</time></trkpt><trkpt lat="41.12515040922888" lon="15.41553957906492"><ele>363.0</ele><time>2026-04-19T12:43:02.999Z</time></trkpt><trkpt lat="41.12516642393074" lon="15.415652196834005"><ele>363.0</ele><time>2026-04-19T12:43:03.999Z</time></trkpt><trkpt lat="41.125185548149645" lon="15.415777441135274"><ele>361.0</ele><time>2026-04-19T12:43:04.999Z</time></trkpt><trkpt lat="41.125199319820375" lon="15.415883166103372"><ele>359.0</ele><time>2026-04-19T12:43:05.999Z</time></trkpt><trkpt lat="41.125209227897" lon="15.415971055804176"><ele>357.0</ele><time>2026-04-19T12:43:06.999Z</time></trkpt><trkpt lat="41.1252309758446" lon="15.416128035961476"><ele>355.0</ele><time>2026-04-19T12:43:08.999Z</time></trkpt><trkpt lat="41.125253320299244" lon="15.416291825926997"><ele>353.0</ele><time>2026-04-19T12:43:10.999Z</time></trkpt><trkpt lat="41.12526057843963" lon="15.416377228027951"><ele>351.5</ele><time>2026-04-19T12:43:11.999Z</time></trkpt><trkpt lat="41.12527075170578" lon="15.416474133284266"><ele>350.0</ele><time>2026-04-19T12:43:12.999Z</time></trkpt><trkpt lat="41.12529577868949" lon="15.416602126585392"><ele>348.5</ele><time>2026-04-19T12:43:13.999Z</time></trkpt><trkpt lat="41.1253210394193" lon="15.416718008569243"><ele>347.0</ele><time>2026-04-19T12:43:14.999Z</time></trkpt><trkpt lat="41.12534108458464" lon="15.416809880856345"><ele>345.5</ele><time>2026-04-19T12:43:15.999Z</time></trkpt><trkpt lat="41.12534377544166" lon="15.416915900609647"><ele>344.0</ele><time>2026-04-19T12:43:17Z</time></trkpt><trkpt lat="41.12534693443797" lon="15.41704371429278"><ele>343.0</ele><time>2026-04-19T12:43:18Z</time></trkpt><trkpt lat="41.12536492304228" lon="15.417173052264538"><ele>342.0</ele><time>2026-04-19T12:43:19Z</time></trkpt><trkpt lat="41.12538875683928" lon="15.41735580218535"><ele>341.0</ele><time>2026-04-19T12:43:20Z</time></trkpt><trkpt lat="41.12540670898839" lon="15.417542804559737"><ele>340.0</ele><time>2026-04-19T12:43:21Z</time></trkpt><trkpt lat="41.12542500457737" lon="15.417668678117845"><ele>340.0</ele><time>2026-04-19T12:43:22Z</time></trkpt><trkpt lat="41.12543703410433" lon="15.417783326261953"><ele>340.0</ele><time>2026-04-19T12:43:23Z</time></trkpt><trkpt lat="41.125447855991354" lon="15.417904298992804"><ele>340.0</ele><time>2026-04-19T12:43:24Z</time></trkpt><trkpt lat="41.125459721929644" lon="15.418046297118602"><ele>340.0</ele><time>2026-04-19T12:43:25Z</time></trkpt><trkpt lat="41.125472959484654" lon="15.418210658557728"><ele>340.0</ele><time>2026-04-19T12:43:26Z</time></trkpt><trkpt lat="41.12548490211598" lon="15.418350393079963"><ele>340.0</ele><time>2026-04-19T12:43:27Z</time></trkpt><trkpt lat="41.12549402515231" lon="15.418472857103902"><ele>340.0</ele><time>2026-04-19T12:43:28Z</time></trkpt><trkpt lat="41.125488152025376" lon="15.418580961804535"><ele>340.0</ele><time>2026-04-19T12:43:29Z</time></trkpt><trkpt lat="41.125500780926934" lon="15.418678978801658"><ele>340.0</ele><time>2026-04-19T12:43:30Z</time></trkpt><trkpt lat="41.125501107244595" lon="15.418764781647546"><ele>340.0</ele><time>2026-04-19T12:43:31Z</time></trkpt><trkpt lat="41.12551239055085" lon="15.41884747847465"><ele>340.0</ele><time>2026-04-19T12:43:40Z</time></trkpt><trkpt lat="41.12544456497072" lon="15.418891509666928"><ele>340.0</ele><time>2026-04-19T12:43:42Z</time></trkpt><trkpt lat="41.12534383335668" lon="15.418849794982748"><ele>340.0</ele><time>2026-04-19T12:43:44Z</time></trkpt><trkpt lat="41.125277496166134" lon="15.418807189192067"><ele>340.0</ele><time>2026-04-19T12:43:46Z</time></trkpt><trkpt lat="41.125218322702636" lon="15.418905401137668"><ele>340.0</ele><time>2026-04-19T12:43:48Z</time></trkpt><trkpt lat="41.12519659778049" lon="15.418997391474596"><ele>340.0</ele><time>2026-04-19T12:43:49Z</time></trkpt><trkpt lat="41.12513457070974" lon="15.419126928592611"><ele>340.0</ele><time>2026-04-19T12:43:51Z</time></trkpt><trkpt lat="41.12504324104221" lon="15.41914450436501"><ele>340.0</ele><time>2026-04-19T12:43:53Z</time></trkpt><trkpt lat="41.124951718704175" lon="15.419198239986668"><ele>340.0</ele><time>2026-04-19T12:43:55Z</time></trkpt><trkpt lat="41.124874145213006" lon="15.419266022919691"><ele>340.0</ele><time>2026-04-19T12:43:57Z</time></trkpt><trkpt lat="41.12480115401826" lon="15.419324003923615"><ele>340.0</ele><time>2026-04-19T12:43:59Z</time></trkpt><trkpt lat="41.124733097833364" lon="15.419381934558466"><ele>336.0</ele><time>2026-04-19T12:44:01Z</time></trkpt><trkpt lat="41.12467720178966" lon="15.419450014308312"><ele>332.0</ele><time>2026-04-19T12:44:03Z</time></trkpt><trkpt lat="41.12461672483057" lon="15.41954333716063"><ele>328.0</ele><time>2026-04-19T12:44:05Z</time></trkpt><trkpt lat="41.12455354224016" lon="15.419623779959915"><ele>324.0</ele><time>2026-04-19T12:44:07Z</time></trkpt><trkpt lat="41.12447307090009" lon="15.419701952265644"><ele>320.0</ele><time>2026-04-19T12:44:09Z</time></trkpt><trkpt lat="41.124430334932235" lon="15.419791129753758"><ele>316.0</ele><time>2026-04-19T12:44:11Z</time></trkpt><trkpt lat="41.12440919693321" lon="15.419895337327699"><ele>315.6</ele><time>2026-04-19T12:44:14Z</time></trkpt><trkpt lat="41.12431531615255" lon="15.41988155486745"><ele>315.20000000000005</ele><time>2026-04-19T12:44:17Z</time></trkpt><trkpt lat="41.124314870523705" lon="15.419986707301431"><ele>314.79999999999995</ele><time>2026-04-19T12:44:20Z</time></trkpt><trkpt lat="41.12436698954469" lon="15.420085358391155"><ele>314.4</ele><time>2026-04-19T12:44:22Z</time></trkpt><trkpt lat="41.124417590530626" lon="15.420157592528854"><ele>314.0</ele><time>2026-04-19T12:44:24Z</time></trkpt><trkpt lat="41.12452220208245" lon="15.42028047682146"><ele>314.0</ele><time>2026-04-19T12:44:26Z</time></trkpt><trkpt lat="41.12458524697068" lon="15.42033938197086"><ele>314.0</ele><time>2026-04-19T12:44:27Z</time></trkpt><trkpt lat="41.124633680576686" lon="15.420394262707333"><ele>314.0</ele><time>2026-04-19T12:44:28Z</time></trkpt><trkpt lat="41.12471990401514" lon="15.420491442199793"><ele>314.0</ele><time>2026-04-19T12:44:29.999Z</time></trkpt><trkpt lat="41.12480688613576" lon="15.420536655860069"><ele>314.0</ele><time>2026-04-19T12:44:30.999Z</time></trkpt><trkpt lat="41.124877259752296" lon="15.420589451884439"><ele>314.0</ele><time>2026-04-19T12:44:31.999Z</time></trkpt><trkpt lat="41.12492986948507" lon="15.420661236088627"><ele>314.8</ele><time>2026-04-19T12:44:33.999Z</time></trkpt><trkpt lat="41.124997886522536" lon="15.420702890380031"><ele>315.59999999999997</ele><time>2026-04-19T12:44:36.999Z</time></trkpt><trkpt lat="41.12503458175786" lon="15.42080446772711"><ele>316.4</ele><time>2026-04-19T12:44:38.999Z</time></trkpt><trkpt lat="41.125058724087495" lon="15.420967041027884"><ele>317.2</ele><time>2026-04-19T12:44:40.999Z</time></trkpt><trkpt lat="41.125150153433104" lon="15.421066493306387"><ele>318.0</ele><time>2026-04-19T12:44:42.999Z</time></trkpt><trkpt lat="41.125221593902566" lon="15.421097997008207"><ele>318.0</ele><time>2026-04-19T12:44:43.999Z</time></trkpt><trkpt lat="41.12530627714933" lon="15.421143602911302"><ele>318.0</ele><time>2026-04-19T12:44:44.999Z</time></trkpt><trkpt lat="41.125387460582054" lon="15.421165378496136"><ele>318.0</ele><time>2026-04-19T12:44:45.999Z</time></trkpt><trkpt lat="41.12548579644858" lon="15.421221647649515"><ele>318.0</ele><time>2026-04-19T12:44:47.999Z</time></trkpt><trkpt lat="41.125526231698416" lon="15.421341585330335"><ele>318.0</ele><time>2026-04-19T12:44:49.999Z</time></trkpt><trkpt lat="41.12558004466845" lon="15.421394939021004"><ele>318.0</ele><time>2026-04-19T12:44:50.999Z</time></trkpt><trkpt lat="41.12564595725002" lon="15.421425023778363"><ele>317.5</ele><time>2026-04-19T12:44:51.999Z</time></trkpt><trkpt lat="41.125720239675786" lon="15.42144004847934"><ele>317.0</ele><time>2026-04-19T12:44:52.999Z</time></trkpt><trkpt lat="41.125792552581025" lon="15.421447439532786"><ele>316.5</ele><time>2026-04-19T12:44:53.999Z</time></trkpt><trkpt lat="41.12585697275102" lon="15.421440566530961"><ele>316.0</ele><time>2026-04-19T12:44:54.999Z</time></trkpt><trkpt lat="41.12593627536358" lon="15.421439094351824"><ele>315.5</ele><time>2026-04-19T12:44:55.999Z</time></trkpt><trkpt lat="41.126007741998436" lon="15.421466586235619"><ele>315.0</ele><time>2026-04-19T12:44:57.999Z</time></trkpt><trkpt lat="41.12596843880908" lon="15.421569773135037"><ele>314.2857142857143</ele><time>2026-04-19T12:45:00.999Z</time></trkpt><trkpt lat="41.125913128817004" lon="15.421630003258226"><ele>313.57142857142856</ele><time>2026-04-19T12:45:06.999Z</time></trkpt><trkpt lat="41.12589064271134" lon="15.421730799613224"><ele>312.8571428571429</ele><time>2026-04-19T12:48:17Z</time></trkpt><trkpt lat="41.125914186238724" lon="15.421809895125222"><ele>312.1428571428571</ele><time>2026-04-19T12:48:19Z</time></trkpt><trkpt lat="41.125939770149486" lon="15.421892330791854"><ele>311.42857142857144</ele><time>2026-04-19T12:48:22Z</time></trkpt><trkpt lat="41.12598608321668" lon="15.421982066621842"><ele>310.7142857142857</ele><time>2026-04-19T12:48:26Z</time></trkpt><trkpt lat="41.126064705109144" lon="15.42199405953927"><ele>310.0</ele><time>2026-04-19T12:48:33Z</time></trkpt><trkpt lat="41.12614953941376" lon="15.422006628822757"><ele>310.0</ele><time>2026-04-19T12:48:35Z</time></trkpt><trkpt lat="41.126228358717654" lon="15.422021308829411"><ele>310.0</ele><time>2026-04-19T12:48:39Z</time></trkpt><trkpt lat="41.12625547983747" lon="15.42211626334485"><ele>310.0</ele><time>2026-04-19T12:48:41Z</time></trkpt><trkpt lat="41.12617364973678" lon="15.422148076568485"><ele>310.0</ele><time>2026-04-19T12:48:43.999Z</time></trkpt><trkpt lat="41.12610204637014" lon="15.422147998273344"><ele>310.0</ele><time>2026-04-19T12:48:46.999Z</time></trkpt><trkpt lat="41.1261108080445" lon="15.422234647713061"><ele>310.0</ele><time>2026-04-19T12:53:47.998Z</time></trkpt><trkpt lat="41.12608404936392" lon="15.422323246974496"><ele>310.0</ele><time>2026-04-19T12:53:49.998Z</time></trkpt><trkpt lat="41.1259333417437" lon="15.422354654925899"><ele>310.0</ele><time>2026-04-19T12:53:53.998Z</time></trkpt><trkpt lat="41.12586330547359" lon="15.422318523583735"><ele>310.0</ele><time>2026-04-19T12:53:54.998Z</time></trkpt><trkpt lat="41.12578413860559" lon="15.422286692277522"><ele>310.0</ele><time>2026-04-19T12:53:55.998Z</time></trkpt><trkpt lat="41.12570411354666" lon="15.42227763295286"><ele>310.0</ele><time>2026-04-19T12:53:56.998Z</time></trkpt><trkpt lat="41.12561972388958" lon="15.422268393199511"><ele>311.0</ele><time>2026-04-19T12:53:57.999Z</time></trkpt><trkpt lat="41.12553528019707" lon="15.42225183461205"><ele>312.0</ele><time>2026-04-19T12:53:58.999Z</time></trkpt><trkpt lat="41.12545902438906" lon="15.422203471143154"><ele>313.0</ele><time>2026-04-19T12:53:59.999Z</time></trkpt><trkpt lat="41.12536754082395" lon="15.422117117090643"><ele>314.0</ele><time>2026-04-19T12:54:00.999Z</time></trkpt><trkpt lat="41.12527144668988" lon="15.422055834743848"><ele>315.0</ele><time>2026-04-19T12:54:01.999Z</time></trkpt><trkpt lat="41.12517411802661" lon="15.422031047569028"><ele>315.0</ele><time>2026-04-19T12:54:02.999Z</time></trkpt><trkpt lat="41.125081886214375" lon="15.422039025163587"><ele>315.0</ele><time>2026-04-19T12:54:03.999Z</time></trkpt><trkpt lat="41.12499814642948" lon="15.422038967435062"><ele>315.0</ele><time>2026-04-19T12:54:04.999Z</time></trkpt><trkpt lat="41.124917332269085" lon="15.422015416115832"><ele>315.0</ele><time>2026-04-19T12:54:05.999Z</time></trkpt><trkpt lat="41.12485703368296" lon="15.422041344179851"><ele>315.0</ele><time>2026-04-19T12:54:06.999Z</time></trkpt><trkpt lat="41.124799476973074" lon="15.422139721768126"><ele>315.0</ele><time>2026-04-19T12:54:07.999Z</time></trkpt><trkpt lat="41.12478034715093" lon="15.422253963782564"><ele>315.0</ele><time>2026-04-19T12:54:08.999Z</time></trkpt><trkpt lat="41.12481806869025" lon="15.422402429400195"><ele>315.0</ele><time>2026-04-19T12:54:09.999Z</time></trkpt><trkpt lat="41.12486785168982" lon="15.422528028332799"><ele>315.0</ele><time>2026-04-19T12:54:10.999Z</time></trkpt><trkpt lat="41.12490378229935" lon="15.42261074409293"><ele>315.0</ele><time>2026-04-19T12:54:11.999Z</time></trkpt><trkpt lat="41.12494662999068" lon="15.422706219358856"><ele>315.0</ele><time>2026-04-19T12:54:12.999Z</time></trkpt><trkpt lat="41.12500712640149" lon="15.422800210461846"><ele>316.25</ele><time>2026-04-19T12:54:13.999Z</time></trkpt><trkpt lat="41.1249552142336" lon="15.423029664300364"><ele>317.5</ele><time>2026-04-19T12:54:14.999Z</time></trkpt><trkpt lat="41.12501726624398" lon="15.423123421742723"><ele>318.75</ele><time>2026-04-19T12:54:15.999Z</time></trkpt><trkpt lat="41.125084133899094" lon="15.4232286774632"><ele>320.0</ele><time>2026-04-19T12:54:16.999Z</time></trkpt><trkpt lat="41.12514296842635" lon="15.423324775917278"><ele>320.0</ele><time>2026-04-19T12:54:17.999Z</time></trkpt><trkpt lat="41.12521114458564" lon="15.423438184275653"><ele>320.0</ele><time>2026-04-19T12:54:18.999Z</time></trkpt><trkpt lat="41.12527764042013" lon="15.42355247703781"><ele>320.0</ele><time>2026-04-19T12:54:19.999Z</time></trkpt><trkpt lat="41.12534768547822" lon="15.423673759814411"><ele>320.0</ele><time>2026-04-19T12:54:20.999Z</time></trkpt><trkpt lat="41.1254126735454" lon="15.423792409764513"><ele>320.0</ele><time>2026-04-19T12:54:21.999Z</time></trkpt><trkpt lat="41.12548280419163" lon="15.423919800211278"><ele>321.2</ele><time>2026-04-19T12:54:22.999Z</time></trkpt><trkpt lat="41.12554941174723" lon="15.424040774427455"><ele>322.4</ele><time>2026-04-19T12:54:23.999Z</time></trkpt><trkpt lat="41.12560456174234" lon="15.42414091940174"><ele>323.6</ele><time>2026-04-19T12:54:24.999Z</time></trkpt><trkpt lat="41.12565163636757" lon="15.424226533050152"><ele>324.8</ele><time>2026-04-19T12:54:25.999Z</time></trkpt><trkpt lat="41.12570586593203" lon="15.424324066224614"><ele>326.0</ele><time>2026-04-19T12:54:26.999Z</time></trkpt><trkpt lat="41.12576311886854" lon="15.424427037058082"><ele>324.83333333333337</ele><time>2026-04-19T12:54:27.999Z</time></trkpt><trkpt lat="41.12581786952329" lon="15.42449754286833"><ele>323.6666666666667</ele><time>2026-04-19T12:54:28.999Z</time></trkpt><trkpt lat="41.12587007996051" lon="15.424559304724673"><ele>322.5</ele><time>2026-04-19T12:54:29.999Z</time></trkpt><trkpt lat="41.1259071307495" lon="15.42468604605269"><ele>321.3333333333333</ele><time>2026-04-19T12:54:31.999Z</time></trkpt><trkpt lat="41.12594748654578" lon="15.424758645411805"><ele>320.16666666666663</ele><time>2026-04-19T12:54:32.999Z</time></trkpt><trkpt lat="41.12600306956483" lon="15.424858914849308"><ele>319.0</ele><time>2026-04-19T12:54:33.999Z</time></trkpt><trkpt lat="41.12606343824056" lon="15.424967817459578"><ele>319.0</ele><time>2026-04-19T12:54:34.999Z</time></trkpt><trkpt lat="41.126125335180966" lon="15.425079476980578"><ele>319.0</ele><time>2026-04-19T12:54:35.999Z</time></trkpt><trkpt lat="41.12618618854367" lon="15.425189253985936"><ele>319.0</ele><time>2026-04-19T12:54:36.999Z</time></trkpt><trkpt lat="41.12626336440377" lon="15.425328476102885"><ele>319.0</ele><time>2026-04-19T12:54:37.999Z</time></trkpt><trkpt lat="41.126335057944395" lon="15.425457915008366"><ele>320.5</ele><time>2026-04-19T12:54:38.999Z</time></trkpt><trkpt lat="41.12640111061889" lon="15.425577390308655"><ele>322.0</ele><time>2026-04-19T12:54:39.999Z</time></trkpt><trkpt lat="41.1264700935232" lon="15.42570216577478"><ele>323.5</ele><time>2026-04-19T12:54:40.999Z</time></trkpt><trkpt lat="41.126530548341535" lon="15.42581151575151"><ele>325.0</ele><time>2026-04-19T12:54:41.999Z</time></trkpt><trkpt lat="41.12661438744881" lon="15.425963162968579"><ele>323.25</ele><time>2026-04-19T12:54:42.999Z</time></trkpt><trkpt lat="41.126711238548616" lon="15.426138346088901"><ele>321.5</ele><time>2026-04-19T12:54:43.999Z</time></trkpt><trkpt lat="41.12678081782492" lon="15.426264170749755"><ele>319.75</ele><time>2026-04-19T12:54:44.999Z</time></trkpt><trkpt lat="41.126831976403054" lon="15.426356520513364"><ele>318.0</ele><time>2026-04-19T12:54:45.999Z</time></trkpt><trkpt lat="41.12688676256962" lon="15.42645560714088"><ele>318.0</ele><time>2026-04-19T12:54:46.999Z</time></trkpt><trkpt lat="41.1269472548929" lon="15.426565344276886"><ele>318.0</ele><time>2026-04-19T12:54:47.999Z</time></trkpt><trkpt lat="41.126995400541865" lon="15.426652683695519"><ele>318.0</ele><time>2026-04-19T12:54:48.999Z</time></trkpt><trkpt lat="41.1270680890309" lon="15.426763053125942"><ele>318.0</ele><time>2026-04-19T12:54:50.999Z</time></trkpt><trkpt lat="41.12710941244586" lon="15.426838218638053"><ele>318.0</ele><time>2026-04-19T12:54:52.999Z</time></trkpt><trkpt lat="41.12714763682091" lon="15.426914416016588"><ele>318.0</ele><time>2026-04-19T12:54:54.999Z</time></trkpt><trkpt lat="41.12719120610173" lon="15.427007888307148"><ele>318.0</ele><time>2026-04-19T12:54:55.999Z</time></trkpt><trkpt lat="41.12723462508143" lon="15.427086653333923"><ele>318.0</ele><time>2026-04-19T12:54:56.999Z</time></trkpt><trkpt lat="41.127308958923166" lon="15.427221499978254"><ele>318.0</ele><time>2026-04-19T12:54:57.999Z</time></trkpt><trkpt lat="41.127399644093984" lon="15.42738600903696"><ele>318.0</ele><time>2026-04-19T12:54:58.999Z</time></trkpt><trkpt lat="41.12749510276731" lon="15.427558686734978"><ele>317.75</ele><time>2026-04-19T12:54:59.999Z</time></trkpt><trkpt lat="41.12759699522333" lon="15.427742261329591"><ele>317.5</ele><time>2026-04-19T12:55:00.999Z</time></trkpt><trkpt lat="41.127694128417446" lon="15.427917261318258"><ele>317.25</ele><time>2026-04-19T12:55:01.999Z</time></trkpt><trkpt lat="41.127750404598785" lon="15.42801873584987"><ele>317.0</ele><time>2026-04-19T12:55:02.999Z</time></trkpt><trkpt lat="41.12780857171485" lon="15.428123654700542"><ele>318.75</ele><time>2026-04-19T12:55:03.999Z</time></trkpt><trkpt lat="41.127875775316845" lon="15.428244873107225"><ele>320.5</ele><time>2026-04-19T12:55:04.999Z</time></trkpt><trkpt lat="41.12795169967139" lon="15.428381821550058"><ele>322.25</ele><time>2026-04-19T12:55:05.999Z</time></trkpt><trkpt lat="41.128020919526506" lon="15.428506676749096"><ele>324.0</ele><time>2026-04-19T12:55:06.999Z</time></trkpt><trkpt lat="41.128132850381895" lon="15.428708571962844"><ele>324.3333333333333</ele><time>2026-04-19T12:55:07.999Z</time></trkpt><trkpt lat="41.12821410699521" lon="15.428855138486602"><ele>324.66666666666663</ele><time>2026-04-19T12:55:08.999Z</time></trkpt><trkpt lat="41.12831451618736" lon="15.429036251462263"><ele>325.0</ele><time>2026-04-19T12:55:09.999Z</time></trkpt><trkpt lat="41.12843071267277" lon="15.429245550112716"><ele>324.5</ele><time>2026-04-19T12:55:10.999Z</time></trkpt><trkpt lat="41.128534838885585" lon="15.429431530214082"><ele>324.0</ele><time>2026-04-19T12:55:11.999Z</time></trkpt><trkpt lat="41.12861036666448" lon="15.429566430590006"><ele>323.5</ele><time>2026-04-19T12:55:12.999Z</time></trkpt><trkpt lat="41.128696253870366" lon="15.429717649958375"><ele>323.0</ele><time>2026-04-19T12:55:13.999Z</time></trkpt><trkpt lat="41.12877079136698" lon="15.42984426606398"><ele>323.0</ele><time>2026-04-19T12:55:14.999Z</time></trkpt><trkpt lat="41.12885185517413" lon="15.429981968321428"><ele>323.0</ele><time>2026-04-19T12:55:15.999Z</time></trkpt><trkpt lat="41.12893883757588" lon="15.43012696315149"><ele>323.0</ele><time>2026-04-19T12:55:16.999Z</time></trkpt><trkpt lat="41.12902262609467" lon="15.430238893639249"><ele>323.0</ele><time>2026-04-19T12:55:17.999Z</time></trkpt><trkpt lat="41.129108640352584" lon="15.430346580724464"><ele>320.6666666666667</ele><time>2026-04-19T12:55:18.999Z</time></trkpt><trkpt lat="41.12917687475502" lon="15.430415602487832"><ele>318.3333333333333</ele><time>2026-04-19T12:55:19.999Z</time></trkpt><trkpt lat="41.12923700444614" lon="15.43046348925676"><ele>316.0</ele><time>2026-04-19T12:55:20.999Z</time></trkpt><trkpt lat="41.12982149446144" lon="15.42992406118518"><ele>314.40000000000003</ele><time>2026-04-19T12:55:21.999Z</time></trkpt><trkpt lat="41.129899229920206" lon="15.429970184486596"><ele>312.8</ele><time>2026-04-19T12:55:22.999Z</time></trkpt><trkpt lat="41.12994249305769" lon="15.43006485177111"><ele>311.20000000000005</ele><time>2026-04-19T12:55:23.999Z</time></trkpt><trkpt lat="41.12996134152236" lon="15.430186245581805"><ele>309.6</ele><time>2026-04-19T12:55:24.999Z</time></trkpt><trkpt lat="41.129977028573094" lon="15.430351155189529"><ele>308.0</ele><time>2026-04-19T12:55:25.999Z</time></trkpt><trkpt lat="41.12998617231331" lon="15.430571443938973"><ele>308.0</ele><time>2026-04-19T12:55:26.999Z</time></trkpt><trkpt lat="41.1300161030122" lon="15.430745305198474"><ele>308.0</ele><time>2026-04-19T12:55:27.999Z</time></trkpt><trkpt lat="41.13008216205628" lon="15.430875990651664"><ele>308.0</ele><time>2026-04-19T12:55:28.999Z</time></trkpt><trkpt lat="41.130170973424654" lon="15.431008294389411"><ele>308.0</ele><time>2026-04-19T12:55:29.999Z</time></trkpt><trkpt lat="41.13026456624226" lon="15.431096492823158"><ele>308.0</ele><time>2026-04-19T12:55:30.999Z</time></trkpt><trkpt lat="41.1303514307792" lon="15.431123647577403"><ele>308.0</ele><time>2026-04-19T12:55:31.999Z</time></trkpt><trkpt lat="41.13042418554131" lon="15.4311060771452"><ele>308.0</ele><time>2026-04-19T12:55:32.999Z</time></trkpt><trkpt lat="41.13049111617443" lon="15.431112747701368"><ele>308.0</ele><time>2026-04-19T12:55:33.999Z</time></trkpt><trkpt lat="41.13054784020923" lon="15.431189991222691"><ele>308.0</ele><time>2026-04-19T12:55:34.999Z</time></trkpt><trkpt lat="41.13057490660767" lon="15.431283205276715"><ele>308.0</ele><time>2026-04-19T12:55:35.999Z</time></trkpt><trkpt lat="41.130591916899306" lon="15.43141985722232"><ele>308.0</ele><time>2026-04-19T12:55:36.999Z</time></trkpt><trkpt lat="41.130614863201885" lon="15.431548860320389"><ele>308.0</ele><time>2026-04-19T12:55:37.999Z</time></trkpt><trkpt lat="41.1306929606381" lon="15.431704339258072"><ele>308.0</ele><time>2026-04-19T12:55:39.999Z</time></trkpt><trkpt lat="41.13074089592795" lon="15.43180796507479"><ele>308.0</ele><time>2026-04-19T12:55:40.999Z</time></trkpt><trkpt lat="41.1307746215212" lon="15.43199976904375"><ele>306.8</ele><time>2026-04-19T12:55:42.999Z</time></trkpt><trkpt lat="41.13079748037009" lon="15.432122645465581"><ele>305.6</ele><time>2026-04-19T12:55:43.999Z</time></trkpt><trkpt lat="41.130831040722654" lon="15.432262211955718"><ele>304.4</ele><time>2026-04-19T12:55:44.999Z</time></trkpt><trkpt lat="41.130898863827156" lon="15.432408599443653"><ele>303.2</ele><time>2026-04-19T12:55:45.999Z</time></trkpt><trkpt lat="41.13096370832279" lon="15.43253095180445"><ele>302.0</ele><time>2026-04-19T12:55:46.999Z</time></trkpt><trkpt lat="41.13102543822133" lon="15.432655427743073"><ele>302.0</ele><time>2026-04-19T12:55:47.999Z</time></trkpt><trkpt lat="41.13106415627353" lon="15.432752069497644"><ele>302.0</ele><time>2026-04-19T12:55:48.999Z</time></trkpt><trkpt lat="41.130945779157024" lon="15.432814957969148"><ele>302.0</ele><time>2026-04-19T12:55:51.999Z</time></trkpt><trkpt lat="41.130863227616494" lon="15.432866798414082"><ele>302.0</ele><time>2026-04-19T12:55:52.999Z</time></trkpt><trkpt lat="41.130754670861116" lon="15.432920294944738"><ele>302.0</ele><time>2026-04-19T12:55:53.999Z</time></trkpt><trkpt lat="41.13065165142743" lon="15.432997840199837"><ele>304.2</ele><time>2026-04-19T12:55:54.999Z</time></trkpt><trkpt lat="41.130575127352465" lon="15.432997548592835"><ele>306.4</ele><time>2026-04-19T12:55:55.999Z</time></trkpt><trkpt lat="41.130483106936225" lon="15.432977679538997"><ele>308.6</ele><time>2026-04-19T12:55:56.999Z</time></trkpt><trkpt lat="41.13038339446437" lon="15.432924361483158"><ele>310.8</ele><time>2026-04-19T12:55:57.999Z</time></trkpt><trkpt lat="41.13027227455284" lon="15.432887360292042"><ele>313.0</ele><time>2026-04-19T12:55:58.999Z</time></trkpt><trkpt lat="41.1301739328069" lon="15.432889111512658"><ele>313.0</ele><time>2026-04-19T12:55:59.999Z</time></trkpt><trkpt lat="41.130116313080606" lon="15.432929657362532"><ele>313.0</ele><time>2026-04-19T12:56:00.999Z</time></trkpt><trkpt lat="41.13005546687924" lon="15.432971695095231"><ele>313.0</ele><time>2026-04-19T12:56:01.999Z</time></trkpt><trkpt lat="41.129966773169905" lon="15.433109822704466"><ele>313.0</ele><time>2026-04-19T12:56:02.999Z</time></trkpt><trkpt lat="41.12983436619502" lon="15.433203737001936"><ele>313.0</ele><time>2026-04-19T12:56:03.999Z</time></trkpt><trkpt lat="41.129701402002496" lon="15.433278077175324"><ele>317.75</ele><time>2026-04-19T12:56:04.999Z</time></trkpt><trkpt lat="41.1295861526889" lon="15.433366445925111"><ele>322.5</ele><time>2026-04-19T12:56:05.999Z</time></trkpt><trkpt lat="41.12947053315604" lon="15.433466968090546"><ele>327.25</ele><time>2026-04-19T12:56:06.999Z</time></trkpt><trkpt lat="41.12936357491574" lon="15.43356883537472"><ele>332.0</ele><time>2026-04-19T12:56:07.999Z</time></trkpt><trkpt lat="41.129287127995426" lon="15.433664533710857"><ele>335.0</ele><time>2026-04-19T12:56:08.999Z</time></trkpt><trkpt lat="41.12932525505079" lon="15.43381667407143"><ele>338.0</ele><time>2026-04-19T12:56:10.999Z</time></trkpt><trkpt lat="41.12937682598591" lon="15.433958894738808"><ele>341.0</ele><time>2026-04-19T12:56:11.999Z</time></trkpt><trkpt lat="41.12941481844144" lon="15.43411225584998"><ele>344.0</ele><time>2026-04-19T12:56:12.999Z</time></trkpt><trkpt lat="41.12943578317467" lon="15.434233620815021"><ele>344.0</ele><time>2026-04-19T12:56:13.999Z</time></trkpt><trkpt lat="41.12941523217411" lon="15.434346939431547"><ele>344.0</ele><time>2026-04-19T12:56:14.999Z</time></trkpt><trkpt lat="41.12937578856385" lon="15.43443293782237"><ele>344.0</ele><time>2026-04-19T12:56:15.999Z</time></trkpt><trkpt lat="41.1293246021444" lon="15.434580076928258"><ele>344.0</ele><time>2026-04-19T12:56:16.999Z</time></trkpt><trkpt lat="41.129319372545204" lon="15.434689949097505"><ele>344.0</ele><time>2026-04-19T12:56:17.999Z</time></trkpt><trkpt lat="41.129461305744925" lon="15.43481793200258"><ele>347.5</ele><time>2026-04-19T12:56:19.999Z</time></trkpt><trkpt lat="41.12960170587572" lon="15.434922357653072"><ele>351.0</ele><time>2026-04-19T12:56:20.999Z</time></trkpt><trkpt lat="41.129711466289514" lon="15.435028537021404"><ele>354.5</ele><time>2026-04-19T12:56:21.999Z</time></trkpt><trkpt lat="41.12976380044435" lon="15.435132795042911"><ele>358.0</ele><time>2026-04-19T12:56:22.999Z</time></trkpt><trkpt lat="41.12982856829194" lon="15.435318270301998"><ele>357.0</ele><time>2026-04-19T12:56:23.999Z</time></trkpt><trkpt lat="41.12990589503954" lon="15.435518074715365"><ele>356.0</ele><time>2026-04-19T12:56:24.999Z</time></trkpt><trkpt lat="41.12993718534815" lon="15.435658710954852"><ele>355.0</ele><time>2026-04-19T12:56:25.999Z</time></trkpt><trkpt lat="41.12995022030031" lon="15.43582102532507"><ele>354.0</ele><time>2026-04-19T12:56:26.999Z</time></trkpt><trkpt lat="41.12993458387876" lon="15.436006519536997"><ele>354.0</ele><time>2026-04-19T12:56:27.999Z</time></trkpt><trkpt lat="41.12992189797126" lon="15.436131698976155"><ele>354.0</ele><time>2026-04-19T12:56:28.999Z</time></trkpt><trkpt lat="41.12999565637483" lon="15.436185412612971"><ele>354.0</ele><time>2026-04-19T12:56:33.999Z</time></trkpt><trkpt lat="41.130097232672895" lon="15.436231425352913"><ele>354.0</ele><time>2026-04-19T12:57:36Z</time></trkpt><trkpt lat="41.13019086438857" lon="15.436319181443196"><ele>354.0</ele><time>2026-04-19T12:57:38Z</time></trkpt><trkpt lat="41.13024602801765" lon="15.436387796159467"><ele>356.79999999999995</ele><time>2026-04-19T12:57:40Z</time></trkpt><trkpt lat="41.130317534142144" lon="15.436468973164104"><ele>359.59999999999997</ele><time>2026-04-19T12:57:42Z</time></trkpt><trkpt lat="41.13036604566556" lon="15.436564365436714"><ele>362.4</ele><time>2026-04-19T12:57:44Z</time></trkpt><trkpt lat="41.130452284568584" lon="15.436661424483539"><ele>365.2</ele><time>2026-04-19T12:57:46Z</time></trkpt><trkpt lat="41.13051740873005" lon="15.436743826993013"><ele>368.0</ele><time>2026-04-19T12:57:48Z</time></trkpt><trkpt lat="41.130595772109004" lon="15.436789176231377"><ele>368.0</ele><time>2026-04-19T12:57:50Z</time></trkpt><trkpt lat="41.1306810603276" lon="15.436869583488171"><ele>368.0</ele><time>2026-04-19T12:57:52Z</time></trkpt><trkpt lat="41.130746534775895" lon="15.43696869813373"><ele>368.0</ele><time>2026-04-19T12:57:54Z</time></trkpt><trkpt lat="41.13080295295988" lon="15.437010639881729"><ele>368.0</ele><time>2026-04-19T12:57:56Z</time></trkpt><trkpt lat="41.13087260323355" lon="15.437035254284396"><ele>368.0</ele><time>2026-04-19T12:57:58Z</time></trkpt><trkpt lat="41.13093414277247" lon="15.437126674850408"><ele>368.0</ele><time>2026-04-19T12:58:00Z</time></trkpt><trkpt lat="41.131004535066126" lon="15.437284964730125"><ele>366.1666666666667</ele><time>2026-04-19T12:58:02Z</time></trkpt><trkpt lat="41.131099397537604" lon="15.437309752733945"><ele>364.33333333333337</ele><time>2026-04-19T12:58:05Z</time></trkpt><trkpt lat="41.131142510060826" lon="15.437403122428123"><ele>362.5</ele><time>2026-04-19T12:58:08Z</time></trkpt><trkpt lat="41.131196466920244" lon="15.437455084661265"><ele>360.6666666666667</ele><time>2026-04-19T12:58:11Z</time></trkpt><trkpt lat="41.13124387568124" lon="15.437523216977837"><ele>358.8333333333333</ele><time>2026-04-19T12:58:14Z</time></trkpt><trkpt lat="41.131318412097855" lon="15.437547979447357"><ele>357.0</ele><time>2026-04-19T12:58:19Z</time></trkpt><trkpt lat="41.13139570457597" lon="15.437558600415585"><ele>357.0</ele><time>2026-04-19T12:58:22Z</time></trkpt><trkpt lat="41.13145838314072" lon="15.437669653325708"><ele>357.0</ele><time>2026-04-19T12:58:24Z</time></trkpt><trkpt lat="41.13150649580048" lon="15.437739896911179"><ele>357.0</ele><time>2026-04-19T12:58:25Z</time></trkpt><trkpt lat="41.131614106982305" lon="15.437796941416273"><ele>357.0</ele><time>2026-04-19T12:58:27Z</time></trkpt><trkpt lat="41.13168456079081" lon="15.437795809656372"><ele>357.0</ele><time>2026-04-19T12:58:28Z</time></trkpt><trkpt lat="41.13178594363732" lon="15.43774557976876"><ele>353.40000000000003</ele><time>2026-04-19T12:58:30Z</time></trkpt><trkpt lat="41.1318889449751" lon="15.437709361898422"><ele>349.8</ele><time>2026-04-19T12:58:32Z</time></trkpt><trkpt lat="41.131954107435554" lon="15.437634696997826"><ele>346.2</ele><time>2026-04-19T12:58:34Z</time></trkpt><trkpt lat="41.13198857536793" lon="15.437552364446104"><ele>342.6</ele><time>2026-04-19T12:58:35Z</time></trkpt><trkpt lat="41.13202144770114" lon="15.43746761069237"><ele>339.0</ele><time>2026-04-19T12:58:36Z</time></trkpt><trkpt lat="41.1320750975466" lon="15.437323709124612"><ele>339.0</ele><time>2026-04-19T12:58:38Z</time></trkpt><trkpt lat="41.13210722793092" lon="15.437203593267936"><ele>339.0</ele><time>2026-04-19T12:58:40Z</time></trkpt><trkpt lat="41.13204170979027" lon="15.437016175239542"><ele>339.0</ele><time>2026-04-19T12:58:42Z</time></trkpt><trkpt lat="41.13201519410427" lon="15.436906650582332"><ele>339.0</ele><time>2026-04-19T12:58:43Z</time></trkpt><trkpt lat="41.13199177630688" lon="15.436823063770902"><ele>339.0</ele><time>2026-04-19T12:58:44Z</time></trkpt><trkpt lat="41.13196723524585" lon="15.43673072992055"><ele>337.0</ele><time>2026-04-19T12:58:45Z</time></trkpt><trkpt lat="41.13194752213547" lon="15.436573801333818"><ele>335.0</ele><time>2026-04-19T12:58:47Z</time></trkpt><trkpt lat="41.13195418164914" lon="15.436487125566826"><ele>333.0</ele><time>2026-04-19T12:58:48Z</time></trkpt><trkpt lat="41.13196404305995" lon="15.436395937333243"><ele>331.0</ele><time>2026-04-19T12:58:49Z</time></trkpt><trkpt lat="41.13196280089056" lon="15.436275238903445"><ele>329.0</ele><time>2026-04-19T12:58:50Z</time></trkpt><trkpt lat="41.13194211941851" lon="15.43611373016179"><ele>327.2</ele><time>2026-04-19T12:58:52Z</time></trkpt><trkpt lat="41.13191558742808" lon="15.43594828116755"><ele>325.4</ele><time>2026-04-19T12:58:54Z</time></trkpt><trkpt lat="41.131900774340586" lon="15.435864794504484"><ele>323.6</ele><time>2026-04-19T12:58:55Z</time></trkpt><trkpt lat="41.13190607610516" lon="15.435778675824386"><ele>321.8</ele><time>2026-04-19T12:58:56Z</time></trkpt><trkpt lat="41.13197692575954" lon="15.435657178314022"><ele>320.0</ele><time>2026-04-19T12:58:58Z</time></trkpt><trkpt lat="41.13204030263122" lon="15.435560210698938"><ele>318.2</ele><time>2026-04-19T12:59:00Z</time></trkpt><trkpt lat="41.13205482407515" lon="15.435405075566388"><ele>316.4</ele><time>2026-04-19T12:59:02Z</time></trkpt><trkpt lat="41.13213400907518" lon="15.435338375958978"><ele>314.6</ele><time>2026-04-19T12:59:04Z</time></trkpt><trkpt lat="41.13219877848074" lon="15.435309675902147"><ele>312.8</ele><time>2026-04-19T12:59:05Z</time></trkpt><trkpt lat="41.13225832708099" lon="15.435195113901628"><ele>311.0</ele><time>2026-04-19T12:59:07Z</time></trkpt><trkpt lat="41.13228893049354" lon="15.435109174605454"><ele>311.0</ele><time>2026-04-19T12:59:09Z</time></trkpt><trkpt lat="41.13235809937903" lon="15.43515440572099"><ele>311.0</ele><time>2026-04-19T12:59:15Z</time></trkpt><trkpt lat="41.132384199650566" lon="15.435231962589604"><ele>311.0</ele><time>2026-04-19T12:59:16Z</time></trkpt><trkpt lat="41.13240334654306" lon="15.435329804932298"><ele>311.0</ele><time>2026-04-19T12:59:18Z</time></trkpt><trkpt lat="41.132459361987756" lon="15.435387463957433"><ele>311.0</ele><time>2026-04-19T12:59:20Z</time></trkpt><trkpt lat="41.13252381345746" lon="15.435428236872355"><ele>311.0</ele><time>2026-04-19T12:59:28Z</time></trkpt><trkpt lat="41.13260177936797" lon="15.435552752417582"><ele>310.6</ele><time>2026-04-19T12:59:31Z</time></trkpt><trkpt lat="41.132677106786986" lon="15.435653382371582"><ele>310.20000000000005</ele><time>2026-04-19T12:59:33Z</time></trkpt><trkpt lat="41.13273712765241" lon="15.435757724596531"><ele>309.79999999999995</ele><time>2026-04-19T12:59:35Z</time></trkpt><trkpt lat="41.13280229167567" lon="15.435836766617458"><ele>309.4</ele><time>2026-04-19T12:59:37Z</time></trkpt><trkpt lat="41.13288255346948" lon="15.435906032625343"><ele>309.0</ele><time>2026-04-19T12:59:39Z</time></trkpt><trkpt lat="41.13293917867251" lon="15.436010827839647"><ele>309.0</ele><time>2026-04-19T12:59:41Z</time></trkpt><trkpt lat="41.13301954276195" lon="15.436107969845736"><ele>309.0</ele><time>2026-04-19T12:59:43Z</time></trkpt><trkpt lat="41.13308053662996" lon="15.436235359697932"><ele>309.0</ele><time>2026-04-19T12:59:45Z</time></trkpt><trkpt lat="41.13313508412483" lon="15.436313847062458"><ele>309.0</ele><time>2026-04-19T12:59:46Z</time></trkpt><trkpt lat="41.13318478825519" lon="15.43637347960182"><ele>309.0</ele><time>2026-04-19T12:59:47Z</time></trkpt><trkpt lat="41.133235802861" lon="15.436426910009367"><ele>309.0</ele><time>2026-04-19T12:59:48Z</time></trkpt><trkpt lat="41.1333164729646" lon="15.436497453455518"><ele>309.5</ele><time>2026-04-19T12:59:50Z</time></trkpt><trkpt lat="41.13337486692417" lon="15.436546683827583"><ele>310.0</ele><time>2026-04-19T12:59:51Z</time></trkpt><trkpt lat="41.13346040025907" lon="15.436607437455425"><ele>310.5</ele><time>2026-04-19T12:59:53Z</time></trkpt><trkpt lat="41.13353427807793" lon="15.436673848694024"><ele>311.0</ele><time>2026-04-19T12:59:55Z</time></trkpt><trkpt lat="41.13372567870643" lon="15.436567809218234"><ele>311.0</ele><time>2026-04-19T12:59:57Z</time></trkpt><trkpt lat="41.133713043196984" lon="15.43697135397959"><ele>311.0</ele><time>2026-04-19T13:00:03Z</time></trkpt><trkpt lat="41.13372286673646" lon="15.437054628850257"><ele>311.0</ele><time>2026-04-19T13:00:06Z</time></trkpt><trkpt lat="41.13378973937916" lon="15.437162858698697"><ele>313.0</ele><time>2026-04-19T13:00:09Z</time></trkpt><trkpt lat="41.13382067816344" lon="15.437253161614887"><ele>315.0</ele><time>2026-04-19T13:00:11Z</time></trkpt><trkpt lat="41.1338447259005" lon="15.437384800676798"><ele>317.0</ele><time>2026-04-19T13:00:14Z</time></trkpt><trkpt lat="41.13386757131529" lon="15.43749343073555"><ele>319.0</ele><time>2026-04-19T13:00:17Z</time></trkpt><trkpt lat="41.1339203474709" lon="15.437573305249664"><ele>321.0</ele><time>2026-04-19T13:00:20Z</time></trkpt><trkpt lat="41.133992899339944" lon="15.437598088380112"><ele>323.0</ele><time>2026-04-19T13:00:22Z</time></trkpt><trkpt lat="41.134042533571794" lon="15.437656106345617"><ele>320.0</ele><time>2026-04-19T13:00:24Z</time></trkpt><trkpt lat="41.13410354371033" lon="15.437778231671507"><ele>317.0</ele><time>2026-04-19T13:00:26Z</time></trkpt><trkpt lat="41.134157924325606" lon="15.437833350430468"><ele>314.0</ele><time>2026-04-19T13:00:27Z</time></trkpt><trkpt lat="41.134221329432236" lon="15.43788224353179"><ele>311.0</ele><time>2026-04-19T13:00:28Z</time></trkpt><trkpt lat="41.13428585721217" lon="15.437989175947296"><ele>308.0</ele><time>2026-04-19T13:00:30Z</time></trkpt><trkpt lat="41.13437592523927" lon="15.438082759256565"><ele>308.0</ele><time>2026-04-19T13:00:32Z</time></trkpt><trkpt lat="41.13458479624101" lon="15.438020378716269"><ele>308.0</ele><time>2026-04-19T13:00:34Z</time></trkpt><trkpt lat="41.134645298806795" lon="15.438137395905022"><ele>308.0</ele><time>2026-04-19T13:00:38Z</time></trkpt><trkpt lat="41.134688803659174" lon="15.43822324241878"><ele>308.0</ele><time>2026-04-19T13:00:41Z</time></trkpt><trkpt lat="41.13474441321255" lon="15.438337067349384"><ele>308.0</ele><time>2026-04-19T13:00:44Z</time></trkpt><trkpt lat="41.134782981008705" lon="15.438435924406585"><ele>308.0</ele><time>2026-04-19T13:00:47Z</time></trkpt><trkpt lat="41.13446376715379" lon="15.438716460600665"><ele>308.0</ele><time>2026-04-19T13:00:48Z</time></trkpt><trkpt lat="41.134400793859236" lon="15.438799034912284"><ele>308.0</ele><time>2026-04-19T13:00:50Z</time></trkpt><trkpt lat="41.13433733078568" lon="15.438861334403164"><ele>308.0</ele><time>2026-04-19T13:00:52Z</time></trkpt><trkpt lat="41.13426140201203" lon="15.438962712806086"><ele>308.0</ele><time>2026-04-19T13:00:54Z</time></trkpt><trkpt lat="41.13417106614805" lon="15.439046882642742"><ele>308.0</ele><time>2026-04-19T13:00:56Z</time></trkpt><trkpt lat="41.13410427104669" lon="15.43908843151192"><ele>311.33333333333337</ele><time>2026-04-19T13:00:57Z</time></trkpt><trkpt lat="41.13401515703087" lon="15.43913275230896"><ele>314.6666666666667</ele><time>2026-04-19T13:00:58Z</time></trkpt><trkpt lat="41.133954396150436" lon="15.439165999381316"><ele>318.0</ele><time>2026-04-19T13:00:59Z</time></trkpt><trkpt lat="41.133892861901714" lon="15.439196818972722"><ele>321.3333333333333</ele><time>2026-04-19T13:01:00Z</time></trkpt><trkpt lat="41.13385192555838" lon="15.43930658083609"><ele>324.66666666666663</ele><time>2026-04-19T13:01:02Z</time></trkpt><trkpt lat="41.133872459237054" lon="15.43939787177569"><ele>328.0</ele><time>2026-04-19T13:01:03Z</time></trkpt><trkpt lat="41.133859473151134" lon="15.439524764317795"><ele>328.0</ele><time>2026-04-19T13:01:05Z</time></trkpt><trkpt lat="41.13383605524541" lon="15.439627948360672"><ele>328.0</ele><time>2026-04-19T13:01:07Z</time></trkpt><trkpt lat="41.1338923409911" lon="15.439683067871774"><ele>328.0</ele><time>2026-04-19T13:01:09Z</time></trkpt><trkpt lat="41.13395899459831" lon="15.439667486418996"><ele>328.0</ele><time>2026-04-19T13:01:11Z</time></trkpt><trkpt lat="41.13403659814377" lon="15.439761998204046"><ele>328.0</ele><time>2026-04-19T13:01:13Z</time></trkpt><trkpt lat="41.134113404429726" lon="15.43984676425018"><ele>328.0</ele><time>2026-04-19T13:01:15Z</time></trkpt><trkpt lat="41.13418879847618" lon="15.439780056355461"><ele>325.4</ele><time>2026-04-19T13:01:17Z</time></trkpt><trkpt lat="41.13427824626653" lon="15.439707833584182"><ele>322.79999999999995</ele><time>2026-04-19T13:01:19Z</time></trkpt><trkpt lat="41.13435781143301" lon="15.439693929529355"><ele>320.2</ele><time>2026-04-19T13:01:21Z</time></trkpt><trkpt lat="41.13445250046623" lon="15.439756710746538"><ele>317.6</ele><time>2026-04-19T13:01:23Z</time></trkpt><trkpt lat="41.13457968518844" lon="15.4397078348825"><ele>315.0</ele><time>2026-04-19T13:01:25Z</time></trkpt><trkpt lat="41.1346385115718" lon="15.439674276072346"><ele>315.0</ele><time>2026-04-19T13:01:26Z</time></trkpt><trkpt lat="41.13470564572977" lon="15.439704584430011"><ele>315.0</ele><time>2026-04-19T13:01:28Z</time></trkpt><trkpt lat="41.13473960951926" lon="15.439847468471408"><ele>315.0</ele><time>2026-04-19T13:01:30Z</time></trkpt><trkpt lat="41.134766718493786" lon="15.439923276277916"><ele>315.0</ele><time>2026-04-19T13:01:31Z</time></trkpt><trkpt lat="41.13481948986132" lon="15.440049227704296"><ele>315.0</ele><time>2026-04-19T13:01:33Z</time></trkpt><trkpt lat="41.13488575457522" lon="15.440137801338864"><ele>312.0</ele><time>2026-04-19T13:01:35Z</time></trkpt><trkpt lat="41.134894119079036" lon="15.440259708906785"><ele>309.0</ele><time>2026-04-19T13:01:37Z</time></trkpt><trkpt lat="41.134952898205746" lon="15.44032068186982"><ele>306.0</ele><time>2026-04-19T13:01:39Z</time></trkpt><trkpt lat="41.135018913002334" lon="15.44033869490675"><ele>303.0</ele><time>2026-04-19T13:01:41Z</time></trkpt><trkpt lat="41.13513791174704" lon="15.440398789574122"><ele>300.0</ele><time>2026-04-19T13:01:43Z</time></trkpt><trkpt lat="41.13521010199196" lon="15.440427895627474"><ele>297.0</ele><time>2026-04-19T13:01:45Z</time></trkpt><trkpt lat="41.135274416582135" lon="15.4404418183401"><ele>297.5</ele><time>2026-04-19T13:01:48Z</time></trkpt><trkpt lat="41.135351183860934" lon="15.440522190404039"><ele>298.0</ele><time>2026-04-19T13:01:51Z</time></trkpt><trkpt lat="41.135394832251066" lon="15.440608793827098"><ele>298.5</ele><time>2026-04-19T13:01:52Z</time></trkpt><trkpt lat="41.13543822523073" lon="15.440679852618096"><ele>299.0</ele><time>2026-04-19T13:01:53Z</time></trkpt><trkpt lat="41.135511534134025" lon="15.440810542181339"><ele>299.5</ele><time>2026-04-19T13:01:55Z</time></trkpt><trkpt lat="41.135553720010414" lon="15.440875471222585"><ele>300.0</ele><time>2026-04-19T13:01:56Z</time></trkpt><trkpt lat="41.13560355095063" lon="15.440937880976389"><ele>300.0</ele><time>2026-04-19T13:01:57Z</time></trkpt><trkpt lat="41.1356608225453" lon="15.440989839063494"><ele>300.0</ele><time>2026-04-19T13:01:58Z</time></trkpt><trkpt lat="41.135717397824045" lon="15.44108488261342"><ele>300.0</ele><time>2026-04-19T13:02:00Z</time></trkpt><trkpt lat="41.135734323226984" lon="15.441176395544504"><ele>300.0</ele><time>2026-04-19T13:02:02Z</time></trkpt><trkpt lat="41.135765763726724" lon="15.441265792621607"><ele>300.0</ele><time>2026-04-19T13:02:09Z</time></trkpt><trkpt lat="41.13579530721321" lon="15.441360855906067"><ele>300.0</ele><time>2026-04-19T13:02:13Z</time></trkpt><trkpt lat="41.13578575824406" lon="15.441482245180394"><ele>298.1666666666667</ele><time>2026-04-19T13:02:17Z</time></trkpt><trkpt lat="41.13581965160929" lon="15.441567500838229"><ele>296.3333333333333</ele><time>2026-04-19T13:02:19Z</time></trkpt><trkpt lat="41.135874306703144" lon="15.4416486345613"><ele>294.5</ele><time>2026-04-19T13:02:22Z</time></trkpt><trkpt lat="41.135895418051874" lon="15.441792963514049"><ele>292.66666666666663</ele><time>2026-04-19T13:02:24Z</time></trkpt><trkpt lat="41.13588991539681" lon="15.441883224023005"><ele>290.8333333333333</ele><time>2026-04-19T13:02:25Z</time></trkpt><trkpt lat="41.135878782042965" lon="15.44198958565258"><ele>289.0</ele><time>2026-04-19T13:02:26Z</time></trkpt><trkpt lat="41.13587625460376" lon="15.442104931161216"><ele>288.8</ele><time>2026-04-19T13:02:27Z</time></trkpt><trkpt lat="41.13588662858501" lon="15.442236589955925"><ele>288.59999999999997</ele><time>2026-04-19T13:02:28Z</time></trkpt><trkpt lat="41.13588489635773" lon="15.44234148133862"><ele>288.4</ele><time>2026-04-19T13:02:29Z</time></trkpt><trkpt lat="41.13591580052209" lon="15.442491171223104"><ele>288.2</ele><time>2026-04-19T13:02:31Z</time></trkpt><trkpt lat="41.13599788735878" lon="15.442591155108722"><ele>288.0</ele><time>2026-04-19T13:02:33Z</time></trkpt><trkpt lat="41.13604218043834" lon="15.442657461960145"><ele>288.0</ele><time>2026-04-19T13:02:34Z</time></trkpt><trkpt lat="41.136104470624296" lon="15.442731869688627"><ele>288.0</ele><time>2026-04-19T13:02:35Z</time></trkpt><trkpt lat="41.13619163226768" lon="15.442770945416404"><ele>288.0</ele><time>2026-04-19T13:02:36Z</time></trkpt><trkpt lat="41.13626396988257" lon="15.44279893822081"><ele>288.0</ele><time>2026-04-19T13:02:37Z</time></trkpt><trkpt lat="41.13631820273834" lon="15.442921999544158"><ele>288.0</ele><time>2026-04-19T13:02:39Z</time></trkpt><trkpt lat="41.13645753527039" lon="15.442942609361438"><ele>288.5</ele><time>2026-04-19T13:02:40Z</time></trkpt><trkpt lat="41.136485659118755" lon="15.443024560843028"><ele>289.0</ele><time>2026-04-19T13:02:41Z</time></trkpt><trkpt lat="41.13653332249164" lon="15.44316344970222"><ele>289.5</ele><time>2026-04-19T13:02:43Z</time></trkpt><trkpt lat="41.13656630546406" lon="15.443259560633543"><ele>290.0</ele><time>2026-04-19T13:02:45Z</time></trkpt><trkpt lat="41.13659497761613" lon="15.44334311005319"><ele>290.5</ele><time>2026-04-19T13:02:48Z</time></trkpt><trkpt lat="41.136623123164256" lon="15.44342512500202"><ele>291.0</ele><time>2026-04-19T13:02:50Z</time></trkpt><trkpt lat="41.1366637338504" lon="15.443543462779774"><ele>291.0</ele><time>2026-04-19T13:02:53Z</time></trkpt><trkpt lat="41.13669115311834" lon="15.44362336113169"><ele>291.0</ele><time>2026-04-19T13:02:55Z</time></trkpt><trkpt lat="41.13662200551691" lon="15.443733529982538"><ele>291.0</ele><time>2026-04-19T13:02:56Z</time></trkpt><trkpt lat="41.13664774055336" lon="15.443855119833483"><ele>291.0</ele><time>2026-04-19T13:02:58Z</time></trkpt><trkpt lat="41.13663834973715" lon="15.443965103837723"><ele>291.0</ele><time>2026-04-19T13:03:00Z</time></trkpt><trkpt lat="41.13672735076677" lon="15.44397080000403"><ele>291.0</ele><time>2026-04-19T13:03:03Z</time></trkpt><trkpt lat="41.13678683593729" lon="15.443916212741076"><ele>291.0</ele><time>2026-04-19T13:03:05Z</time></trkpt><trkpt lat="41.13683870650352" lon="15.44384443709624"><ele>291.0</ele><time>2026-04-19T13:03:07Z</time></trkpt><trkpt lat="41.13688449305206" lon="15.443759009561619"><ele>291.0</ele><time>2026-04-19T13:03:09Z</time></trkpt><trkpt lat="41.13692559669216" lon="15.443670119724333"><ele>291.0</ele><time>2026-04-19T13:03:11Z</time></trkpt><trkpt lat="41.137082731449034" lon="15.443721961314298"><ele>291.0</ele><time>2026-04-19T13:03:14Z</time></trkpt><trkpt lat="41.13709581207701" lon="15.443632480053415"><ele>291.0</ele><time>2026-04-19T13:03:18Z</time></trkpt><trkpt lat="41.137064586374485" lon="15.443553945620161"><ele>291.0</ele><time>2026-04-19T13:03:21Z</time></trkpt><trkpt lat="41.137005868267245" lon="15.44341148545262"><ele>291.0</ele><time>2026-04-19T13:03:23Z</time></trkpt><trkpt lat="41.136965424205364" lon="15.443288901167348"><ele>291.0</ele><time>2026-04-19T13:03:24Z</time></trkpt><trkpt lat="41.13678354978773" lon="15.443212702356266"><ele>291.0</ele><time>2026-04-19T13:03:25Z</time></trkpt><trkpt lat="41.136736207905464" lon="15.443075026428703"><ele>291.0</ele><time>2026-04-19T13:03:26Z</time></trkpt><trkpt lat="41.13669337715701" lon="15.442950469470484"><ele>291.0</ele><time>2026-04-19T13:03:27Z</time></trkpt><trkpt lat="41.136657242478854" lon="15.44284538553082"><ele>291.0</ele><time>2026-04-19T13:03:28Z</time></trkpt><trkpt lat="41.13662612535274" lon="15.44275489315888"><ele>291.0</ele><time>2026-04-19T13:03:29Z</time></trkpt><trkpt lat="41.13659408110878" lon="15.442661704616926"><ele>290.40000000000003</ele><time>2026-04-19T13:03:30Z</time></trkpt><trkpt lat="41.136561507392" lon="15.442566976283715"><ele>289.8</ele><time>2026-04-19T13:03:31Z</time></trkpt><trkpt lat="41.136531374067765" lon="15.442479345040873"><ele>289.20000000000005</ele><time>2026-04-19T13:03:32Z</time></trkpt><trkpt lat="41.13650522749633" lon="15.442403307670803"><ele>288.6</ele><time>2026-04-19T13:03:33Z</time></trkpt><trkpt lat="41.13648490079418" lon="15.442310536976162"><ele>288.0</ele><time>2026-04-19T13:03:35Z</time></trkpt><trkpt lat="41.13692622863881" lon="15.441987006961007"><ele>288.0</ele><time>2026-04-19T13:03:36Z</time></trkpt><trkpt lat="41.13699433764259" lon="15.441868096721922"><ele>288.0</ele><time>2026-04-19T13:03:37Z</time></trkpt><trkpt lat="41.13707164486787" lon="15.44173540067508"><ele>288.0</ele><time>2026-04-19T13:03:38Z</time></trkpt><trkpt lat="41.13714177327939" lon="15.441610604781648"><ele>288.0</ele><time>2026-04-19T13:03:39Z</time></trkpt><trkpt lat="41.13720755073883" lon="15.441478586821637"><ele>288.0</ele><time>2026-04-19T13:03:40Z</time></trkpt><trkpt lat="41.13728347530089" lon="15.441339201115342"><ele>288.0</ele><time>2026-04-19T13:03:41Z</time></trkpt><trkpt lat="41.13736865754698" lon="15.441193154016972"><ele>288.0</ele><time>2026-04-19T13:03:42Z</time></trkpt><trkpt lat="41.1374449819408" lon="15.441069572359112"><ele>288.0</ele><time>2026-04-19T13:03:43Z</time></trkpt><trkpt lat="41.137518681714184" lon="15.440945427703465"><ele>287.75</ele><time>2026-04-19T13:03:44Z</time></trkpt><trkpt lat="41.137594903544546" lon="15.440817639200692"><ele>287.5</ele><time>2026-04-19T13:03:45Z</time></trkpt><trkpt lat="41.13767677494679" lon="15.440683444173466"><ele>287.25</ele><time>2026-04-19T13:03:46Z</time></trkpt><trkpt lat="41.13775611442307" lon="15.440552949978935"><ele>287.0</ele><time>2026-04-19T13:03:47Z</time></trkpt><trkpt lat="41.13782374820258" lon="15.440443094443623"><ele>287.0</ele><time>2026-04-19T13:03:48Z</time></trkpt><trkpt lat="41.13789090933186" lon="15.440335693271425"><ele>287.0</ele><time>2026-04-19T13:03:49Z</time></trkpt><trkpt lat="41.13795777738581" lon="15.440243924653032"><ele>287.0</ele><time>2026-04-19T13:03:50Z</time></trkpt><trkpt lat="41.138025058701785" lon="15.440172907080633"><ele>287.0</ele><time>2026-04-19T13:03:51Z</time></trkpt><trkpt lat="41.138108115676154" lon="15.440083476037003"><ele>287.0</ele><time>2026-04-19T13:03:52Z</time></trkpt><trkpt lat="41.13819526399275" lon="15.439980948458334"><ele>286.4</ele><time>2026-04-19T13:03:53Z</time></trkpt><trkpt lat="41.13826412755366" lon="15.439880284445907"><ele>285.79999999999995</ele><time>2026-04-19T13:03:54Z</time></trkpt><trkpt lat="41.13830882647362" lon="15.439785255211548"><ele>285.2</ele><time>2026-04-19T13:03:56Z</time></trkpt><trkpt lat="41.13836781637385" lon="15.439684849628678"><ele>284.59999999999997</ele><time>2026-04-19T13:04:00Z</time></trkpt><trkpt lat="41.138417776966534" lon="15.439590670955994"><ele>284.0</ele><time>2026-04-19T13:04:02Z</time></trkpt><trkpt lat="41.138469949133466" lon="15.439480447391416"><ele>283.83333333333337</ele><time>2026-04-19T13:04:04Z</time></trkpt><trkpt lat="41.13850630456483" lon="15.439408502253508"><ele>283.6666666666667</ele><time>2026-04-19T13:04:06Z</time></trkpt><trkpt lat="41.13856504377755" lon="15.439339382215254"><ele>283.5</ele><time>2026-04-19T13:04:08Z</time></trkpt><trkpt lat="41.138611740460846" lon="15.439280367062072"><ele>283.3333333333333</ele><time>2026-04-19T13:04:10Z</time></trkpt><trkpt lat="41.13865411643233" lon="15.439156411961322"><ele>283.16666666666663</ele><time>2026-04-19T13:04:14Z</time></trkpt><trkpt lat="41.138676140310636" lon="15.43905838938691"><ele>283.0</ele><time>2026-04-19T13:04:16Z</time></trkpt><trkpt lat="41.138725995160165" lon="15.439000296550436"><ele>283.0</ele><time>2026-04-19T13:04:18Z</time></trkpt><trkpt lat="41.13879198413085" lon="15.438945989534705"><ele>283.0</ele><time>2026-04-19T13:04:20Z</time></trkpt><trkpt lat="41.13882728884376" lon="15.438828345645243"><ele>283.0</ele><time>2026-04-19T13:04:22Z</time></trkpt><trkpt lat="41.13885999629183" lon="15.438738257173288"><ele>283.0</ele><time>2026-04-19T13:04:24Z</time></trkpt><trkpt lat="41.13891965894015" lon="15.438642059333763"><ele>283.0</ele><time>2026-04-19T13:04:26Z</time></trkpt><trkpt lat="41.13897986816144" lon="15.438544505193823"><ele>283.0</ele><time>2026-04-19T13:04:29Z</time></trkpt><trkpt lat="41.13901596598134" lon="15.438468623234899"><ele>284.5</ele><time>2026-04-19T13:04:30Z</time></trkpt><trkpt lat="41.1390668349376" lon="15.438390438001393"><ele>286.0</ele><time>2026-04-19T13:04:31Z</time></trkpt><trkpt lat="41.13913756778207" lon="15.438276844997098"><ele>287.5</ele><time>2026-04-19T13:04:32Z</time></trkpt><trkpt lat="41.139222972338224" lon="15.43813795749712"><ele>289.0</ele><time>2026-04-19T13:04:33Z</time></trkpt><trkpt lat="41.13930331998377" lon="15.438009464807454"><ele>289.0</ele><time>2026-04-19T13:04:34Z</time></trkpt><trkpt lat="41.1393683391427" lon="15.43791581496265"><ele>289.0</ele><time>2026-04-19T13:04:35Z</time></trkpt><trkpt lat="41.13943029682954" lon="15.437858251808194"><ele>289.0</ele><time>2026-04-19T13:04:36Z</time></trkpt><trkpt lat="41.13953184233918" lon="15.437900994348325"><ele>289.0</ele><time>2026-04-19T13:04:38Z</time></trkpt><trkpt lat="41.1395712399386" lon="15.437968004998172"><ele>289.0</ele><time>2026-04-19T13:04:39Z</time></trkpt><trkpt lat="41.1396190849293" lon="15.43804533845567"><ele>289.0</ele><time>2026-04-19T13:04:40Z</time></trkpt><trkpt lat="41.139692492178106" lon="15.438131798586113"><ele>289.0</ele><time>2026-04-19T13:04:41Z</time></trkpt><trkpt lat="41.139755367173" lon="15.438209350681323"><ele>289.0</ele><time>2026-04-19T13:04:42Z</time></trkpt><trkpt lat="41.139874879283596" lon="15.438084050854542"><ele>289.0</ele><time>2026-04-19T13:04:47Z</time></trkpt><trkpt lat="41.139939300622245" lon="15.438054591189568"><ele>289.0</ele><time>2026-04-19T13:04:48Z</time></trkpt><trkpt lat="41.14000621650925" lon="15.437998994975683"><ele>289.0</ele><time>2026-04-19T13:04:49Z</time></trkpt><trkpt lat="41.140061193717074" lon="15.437949547729357"><ele>289.8</ele><time>2026-04-19T13:04:50Z</time></trkpt><trkpt lat="41.14014484969898" lon="15.43784353795132"><ele>290.59999999999997</ele><time>2026-04-19T13:04:52Z</time></trkpt><trkpt lat="41.140262061659065" lon="15.437778907053632"><ele>291.4</ele><time>2026-04-19T13:04:54Z</time></trkpt><trkpt lat="41.140338710205725" lon="15.437718010001497"><ele>292.2</ele><time>2026-04-19T13:04:56Z</time></trkpt><trkpt lat="41.140418675707274" lon="15.437636710021835"><ele>293.0</ele><time>2026-04-19T13:05:07Z</time></trkpt><trkpt lat="41.14050803204416" lon="15.437520355544551"><ele>292.99999999999994</ele><time>2026-04-19T13:05:09Z</time></trkpt><trkpt lat="41.14054568314572" lon="15.43744044870224"><ele>293.0</ele><time>2026-04-19T13:05:10Z</time></trkpt><trkpt lat="41.14058278529378" lon="15.437357558178935"><ele>293.0</ele><time>2026-04-19T13:05:11Z</time></trkpt><trkpt lat="41.14062778993554" lon="15.43727227552217"><ele>293.0</ele><time>2026-04-19T13:05:12Z</time></trkpt><trkpt lat="41.14066578529421" lon="15.437197057279494"><ele>293.0</ele><time>2026-04-19T13:05:13Z</time></trkpt><trkpt lat="41.14070065054626" lon="15.437116024733367"><ele>292.99999999999994</ele><time>2026-04-19T13:05:14Z</time></trkpt><trkpt lat="41.1407317659491" lon="15.437023146175322"><ele>293.0</ele><time>2026-04-19T13:05:15Z</time></trkpt><trkpt lat="41.14076267847419" lon="15.436944351576898"><ele>293.0</ele><time>2026-04-19T13:05:16Z</time></trkpt><trkpt lat="41.140799787245996" lon="15.436843801400576"><ele>293.0</ele><time>2026-04-19T13:05:18Z</time></trkpt><trkpt lat="41.14075872120529" lon="15.436980991189726"><ele>293.0</ele><time>2026-04-19T13:05:29Z</time></trkpt><trkpt lat="41.14072587085041" lon="15.437056783537528"><ele>293.0</ele><time>2026-04-19T13:05:30Z</time></trkpt><trkpt lat="41.14068306029824" lon="15.4371328519879"><ele>293.0</ele><time>2026-04-19T13:05:31Z</time></trkpt><trkpt lat="41.14065674324066" lon="15.4372115934529"><ele>293.0</ele><time>2026-04-19T13:05:32Z</time></trkpt><trkpt lat="41.14062564908664" lon="15.437289555220314"><ele>293.0</ele><time>2026-04-19T13:05:33Z</time></trkpt><trkpt lat="41.1405798270738" lon="15.437379034301928"><ele>293.0</ele><time>2026-04-19T13:05:34Z</time></trkpt><trkpt lat="41.140536011360744" lon="15.437457444559787"><ele>293.0</ele><time>2026-04-19T13:05:35Z</time></trkpt><trkpt lat="41.14048599281867" lon="15.437544793966257"><ele>293.0</ele><time>2026-04-19T13:05:36Z</time></trkpt><trkpt lat="41.14043502603056" lon="15.437626543224026"><ele>293.0</ele><time>2026-04-19T13:05:37Z</time></trkpt><trkpt lat="41.14037965355485" lon="15.437685419723184"><ele>293.0</ele><time>2026-04-19T13:05:38Z</time></trkpt><trkpt lat="41.14027543871501" lon="15.437767198824787"><ele>293.0</ele><time>2026-04-19T13:05:40Z</time></trkpt><trkpt lat="41.140210445956015" lon="15.437821301863767"><ele>293.0</ele><time>2026-04-19T13:05:41Z</time></trkpt><trkpt lat="41.14014607646061" lon="15.437872497464046"><ele>293.0</ele><time>2026-04-19T13:05:42Z</time></trkpt><trkpt lat="41.14008615552375" lon="15.437907542011727"><ele>293.0</ele><time>2026-04-19T13:05:43Z</time></trkpt><trkpt lat="41.14001006145555" lon="15.438000269597955"><ele>293.0</ele><time>2026-04-19T13:05:45Z</time></trkpt><trkpt lat="41.139951408472534" lon="15.43804934881997"><ele>293.0</ele><time>2026-04-19T13:05:46Z</time></trkpt><trkpt lat="41.139887104715704" lon="15.438089724933597"><ele>292.4</ele><time>2026-04-19T13:05:47Z</time></trkpt><trkpt lat="41.139811146711295" lon="15.43816186006836"><ele>291.8</ele><time>2026-04-19T13:05:49Z</time></trkpt><trkpt lat="41.13983981054758" lon="15.438296853499745"><ele>291.2</ele><time>2026-04-19T13:05:52Z</time></trkpt><trkpt lat="41.13990523143732" lon="15.438369241227027"><ele>290.6</ele><time>2026-04-19T13:05:53Z</time></trkpt><trkpt lat="41.139969941781196" lon="15.438483992933746"><ele>290.0</ele><time>2026-04-19T13:05:54Z</time></trkpt><trkpt lat="41.140058221781395" lon="15.438585815338815"><ele>290.0</ele><time>2026-04-19T13:05:55Z</time></trkpt><trkpt lat="41.140155412509465" lon="15.438693788234037"><ele>290.0</ele><time>2026-04-19T13:05:56Z</time></trkpt><trkpt lat="41.14026086685367" lon="15.438807358630331"><ele>290.0</ele><time>2026-04-19T13:05:57Z</time></trkpt><trkpt lat="41.14040880711314" lon="15.43892914937274"><ele>290.0</ele><time>2026-04-19T13:05:58Z</time></trkpt><trkpt lat="41.140538329715746" lon="15.439050206146835"><ele>290.2</ele><time>2026-04-19T13:05:59Z</time></trkpt><trkpt lat="41.140639883307664" lon="15.439147517033337"><ele>290.4</ele><time>2026-04-19T13:06:00Z</time></trkpt><trkpt lat="41.140734873924174" lon="15.439243100605651"><ele>290.6</ele><time>2026-04-19T13:06:01Z</time></trkpt><trkpt lat="41.14081560607577" lon="15.439330231177122"><ele>290.8</ele><time>2026-04-19T13:06:02Z</time></trkpt><trkpt lat="41.140864136230896" lon="15.439385386182055"><ele>291.0</ele><time>2026-04-19T13:06:03Z</time></trkpt><trkpt lat="41.14092809193977" lon="15.439461855966867"><ele>291.0</ele><time>2026-04-19T13:06:05Z</time></trkpt><trkpt lat="41.14100750940895" lon="15.439582333752021"><ele>291.0</ele><time>2026-04-19T13:06:07Z</time></trkpt><trkpt lat="41.1410620005792" lon="15.439655947414193"><ele>291.0</ele><time>2026-04-19T13:06:08Z</time></trkpt><trkpt lat="41.14113139479684" lon="15.439757244439594"><ele>291.0</ele><time>2026-04-19T13:06:09Z</time></trkpt><trkpt lat="41.141224415469694" lon="15.439891928170297"><ele>291.0</ele><time>2026-04-19T13:06:10Z</time></trkpt><trkpt lat="41.14133123737803" lon="15.440040702263994"><ele>291.6666666666667</ele><time>2026-04-19T13:06:11Z</time></trkpt><trkpt lat="41.141453465240154" lon="15.440182673113911"><ele>292.33333333333337</ele><time>2026-04-19T13:06:12Z</time></trkpt><trkpt lat="41.141568804463645" lon="15.440356817831326"><ele>293.0</ele><time>2026-04-19T13:06:13Z</time></trkpt><trkpt lat="41.14165288557367" lon="15.440530170785392"><ele>291.75</ele><time>2026-04-19T13:06:14Z</time></trkpt><trkpt lat="41.141730887107855" lon="15.440676139261003"><ele>290.5</ele><time>2026-04-19T13:06:15Z</time></trkpt><trkpt lat="41.14181467821474" lon="15.44084127974716"><ele>289.25</ele><time>2026-04-19T13:06:16Z</time></trkpt><trkpt lat="41.14190735298265" lon="15.441009279999488"><ele>288.0</ele><time>2026-04-19T13:06:17Z</time></trkpt><trkpt lat="41.142008343702315" lon="15.441186069757034"><ele>287.0</ele><time>2026-04-19T13:06:18Z</time></trkpt><trkpt lat="41.14210560385963" lon="15.441351425631957"><ele>286.0</ele><time>2026-04-19T13:06:19Z</time></trkpt><trkpt lat="41.142211688097134" lon="15.441485030091403"><ele>285.0</ele><time>2026-04-19T13:06:20Z</time></trkpt><trkpt lat="41.14230861869048" lon="15.44163097114098"><ele>286.6</ele><time>2026-04-19T13:06:21Z</time></trkpt><trkpt lat="41.142401120398056" lon="15.44174486001893"><ele>288.2</ele><time>2026-04-19T13:06:22Z</time></trkpt><trkpt lat="41.14245638580873" lon="15.441809592239036"><ele>289.8</ele><time>2026-04-19T13:06:23Z</time></trkpt><trkpt lat="41.14250795273609" lon="15.441874673907801"><ele>291.4</ele><time>2026-04-19T13:06:25Z</time></trkpt><trkpt lat="41.14258957279145" lon="15.441962655733702"><ele>293.0</ele><time>2026-04-19T13:06:27Z</time></trkpt><trkpt lat="41.14266936123272" lon="15.442046892839555"><ele>291.75</ele><time>2026-04-19T13:06:28Z</time></trkpt><trkpt lat="41.142770104618926" lon="15.442143029884244"><ele>290.5</ele><time>2026-04-19T13:06:29Z</time></trkpt><trkpt lat="41.142878789026" lon="15.442235281607662"><ele>289.25</ele><time>2026-04-19T13:06:30Z</time></trkpt><trkpt lat="41.14298725195119" lon="15.442325578002672"><ele>288.0</ele><time>2026-04-19T13:06:31Z</time></trkpt><trkpt lat="41.14309653513963" lon="15.442402750341303"><ele>288.0</ele><time>2026-04-19T13:06:32Z</time></trkpt><trkpt lat="41.143211832953334" lon="15.442467650724762"><ele>288.0</ele><time>2026-04-19T13:06:33Z</time></trkpt><trkpt lat="41.143327957220556" lon="15.442522666435131"><ele>288.0</ele><time>2026-04-19T13:06:34Z</time></trkpt><trkpt lat="41.14343026677274" lon="15.442599777762187"><ele>288.0</ele><time>2026-04-19T13:06:35Z</time></trkpt><trkpt lat="41.143529112777664" lon="15.442639667027011"><ele>290.1666666666667</ele><time>2026-04-19T13:06:36Z</time></trkpt><trkpt lat="41.14361546327264" lon="15.442694698570829"><ele>292.3333333333333</ele><time>2026-04-19T13:06:37Z</time></trkpt><trkpt lat="41.143689263918176" lon="15.442724456800015"><ele>294.5</ele><time>2026-04-19T13:06:38Z</time></trkpt><trkpt lat="41.14375908354033" lon="15.442716999014323"><ele>296.66666666666663</ele><time>2026-04-19T13:06:39Z</time></trkpt><trkpt lat="41.14382743451293" lon="15.442682422860722"><ele>298.8333333333333</ele><time>2026-04-19T13:06:40Z</time></trkpt><trkpt lat="41.14390359184228" lon="15.44264443441831"><ele>301.0</ele><time>2026-04-19T13:06:41Z</time></trkpt><trkpt lat="41.143988917353774" lon="15.442654857610195"><ele>302.8</ele><time>2026-04-19T13:06:42Z</time></trkpt><trkpt lat="41.14405215652903" lon="15.442762054904312"><ele>304.6</ele><time>2026-04-19T13:06:43Z</time></trkpt><trkpt lat="41.14413778087248" lon="15.442812481977947"><ele>306.4</ele><time>2026-04-19T13:06:44Z</time></trkpt><trkpt lat="41.144231478943624" lon="15.44284347850361"><ele>308.2</ele><time>2026-04-19T13:06:45Z</time></trkpt><trkpt lat="41.14433366849862" lon="15.442878953267185"><ele>310.0</ele><time>2026-04-19T13:06:46Z</time></trkpt><trkpt lat="41.144439280207315" lon="15.442910879828437"><ele>310.0</ele><time>2026-04-19T13:06:47Z</time></trkpt><trkpt lat="41.144567890166805" lon="15.442936741495352"><ele>310.0</ele><time>2026-04-19T13:06:48Z</time></trkpt><trkpt lat="41.14469598665157" lon="15.442957596807267"><ele>310.0</ele><time>2026-04-19T13:06:49Z</time></trkpt><trkpt lat="41.144792983380846" lon="15.442982965692197"><ele>310.0</ele><time>2026-04-19T13:06:50Z</time></trkpt><trkpt lat="41.144865015731355" lon="15.443003887195701"><ele>310.0</ele><time>2026-04-19T13:06:51Z</time></trkpt><trkpt lat="41.14493685932993" lon="15.443019180657457"><ele>309.0</ele><time>2026-04-19T13:06:53Z</time></trkpt><trkpt lat="41.144963802504556" lon="15.443147606179968"><ele>308.0</ele><time>2026-04-19T13:06:54Z</time></trkpt><trkpt lat="41.14508463672876" lon="15.443196704596701"><ele>307.0</ele><time>2026-04-19T13:06:56Z</time></trkpt><trkpt lat="41.14515456174072" lon="15.443147022725965"><ele>306.0</ele><time>2026-04-19T13:06:57Z</time></trkpt><trkpt lat="41.145207268242515" lon="15.443079960912259"><ele>305.0</ele><time>2026-04-19T13:06:58Z</time></trkpt><trkpt lat="41.14527592926451" lon="15.443008801829707"><ele>305.6666666666667</ele><time>2026-04-19T13:07:00Z</time></trkpt><trkpt lat="41.1453275586095" lon="15.44295122842367"><ele>306.33333333333337</ele><time>2026-04-19T13:09:11Z</time></trkpt><trkpt lat="41.14537338302593" lon="15.44289289479447"><ele>307.0</ele><time>2026-04-19T13:23:15Z</time></trkpt><trkpt lat="41.14541921388165" lon="15.442819868043843"><ele>307.6666666666667</ele><time>2026-04-19T13:23:17Z</time></trkpt><trkpt lat="41.14550549126214" lon="15.44272052841331"><ele>308.3333333333333</ele><time>2026-04-19T13:23:19Z</time></trkpt><trkpt lat="41.14557380400564" lon="15.442619909442001"><ele>309.0</ele><time>2026-04-19T13:23:21Z</time></trkpt><trkpt lat="41.14566708650243" lon="15.442512682442544"><ele>308.6666666666667</ele><time>2026-04-19T13:23:23Z</time></trkpt><trkpt lat="41.14572609883075" lon="15.442443483565905"><ele>308.3333333333333</ele><time>2026-04-19T13:23:24Z</time></trkpt><trkpt lat="41.145785261574474" lon="15.442364840761332"><ele>308.0</ele><time>2026-04-19T13:23:25Z</time></trkpt><trkpt lat="41.145844891263216" lon="15.44228726631589"><ele>307.66666666666663</ele><time>2026-04-19T13:23:26Z</time></trkpt><trkpt lat="41.145911232666904" lon="15.44220817154614"><ele>307.3333333333333</ele><time>2026-04-19T13:23:27Z</time></trkpt><trkpt lat="41.145979777760274" lon="15.442131403813786"><ele>307.0</ele><time>2026-04-19T13:23:28Z</time></trkpt><trkpt lat="41.14605150333568" lon="15.44204899579832"><ele>307.0</ele><time>2026-04-19T13:23:29Z</time></trkpt><trkpt lat="41.14611995878176" lon="15.441965656112023"><ele>307.0</ele><time>2026-04-19T13:23:30Z</time></trkpt><trkpt lat="41.146185865378115" lon="15.441885033854398"><ele>307.0</ele><time>2026-04-19T13:23:31Z</time></trkpt><trkpt lat="41.14625820478763" lon="15.441796112729614"><ele>307.0</ele><time>2026-04-19T13:23:32Z</time></trkpt><trkpt lat="41.14632700773389" lon="15.441709326645222"><ele>307.0</ele><time>2026-04-19T13:23:33Z</time></trkpt><trkpt lat="41.146396162248244" lon="15.441615845733669"><ele>307.0</ele><time>2026-04-19T13:23:34Z</time></trkpt><trkpt lat="41.14646582675987" lon="15.441545376071506"><ele>307.0</ele><time>2026-04-19T13:23:35Z</time></trkpt><trkpt lat="41.14651540932338" lon="15.441473189626093"><ele>307.0</ele><time>2026-04-19T13:23:36Z</time></trkpt><trkpt lat="41.146558646823216" lon="15.441403426156372"><ele>307.0</ele><time>2026-04-19T13:23:37Z</time></trkpt><trkpt lat="41.14661336390726" lon="15.441343768610022"><ele>307.0</ele><time>2026-04-19T13:23:39Z</time></trkpt><trkpt lat="41.14671363561214" lon="15.441426835169395"><ele>307.0</ele><time>2026-04-19T13:23:40Z</time></trkpt><trkpt lat="41.14679014650937" lon="15.441445023585949"><ele>305.6</ele><time>2026-04-19T13:23:41Z</time></trkpt><trkpt lat="41.14688602317792" lon="15.441470553707976"><ele>304.2</ele><time>2026-04-19T13:23:42Z</time></trkpt><trkpt lat="41.14699136023492" lon="15.441506109191467"><ele>302.8</ele><time>2026-04-19T13:23:43Z</time></trkpt><trkpt lat="41.14709952265607" lon="15.441540427287835"><ele>301.4</ele><time>2026-04-19T13:23:44Z</time></trkpt><trkpt lat="41.147206406707944" lon="15.441575517697382"><ele>300.0</ele><time>2026-04-19T13:23:45Z</time></trkpt><trkpt lat="41.147313834566475" lon="15.441612671926686"><ele>298.75</ele><time>2026-04-19T13:23:46Z</time></trkpt><trkpt lat="41.14743170097993" lon="15.441646336902014"><ele>297.5</ele><time>2026-04-19T13:23:47Z</time></trkpt><trkpt lat="41.14754753954227" lon="15.441685059300589"><ele>296.25</ele><time>2026-04-19T13:23:48Z</time></trkpt><trkpt lat="41.14767154185461" lon="15.441724481446341"><ele>295.0</ele><time>2026-04-19T13:23:49Z</time></trkpt><trkpt lat="41.14779550322879" lon="15.441764946663062"><ele>295.0</ele><time>2026-04-19T13:23:50Z</time></trkpt><trkpt lat="41.147922698711206" lon="15.441805853876708"><ele>295.0</ele><time>2026-04-19T13:23:51Z</time></trkpt><trkpt lat="41.14805604834716" lon="15.441846340237031"><ele>295.0</ele><time>2026-04-19T13:23:52Z</time></trkpt><trkpt lat="41.14819224001213" lon="15.441888425940864"><ele>295.0</ele><time>2026-04-19T13:23:53Z</time></trkpt><trkpt lat="41.14832281518149" lon="15.44192761114472"><ele>294.75</ele><time>2026-04-19T13:23:54Z</time></trkpt><trkpt lat="41.148453598229636" lon="15.441967836492905"><ele>294.5</ele><time>2026-04-19T13:23:55Z</time></trkpt><trkpt lat="41.14856895063358" lon="15.442014374429778"><ele>294.25</ele><time>2026-04-19T13:23:56Z</time></trkpt><trkpt lat="41.14866970964881" lon="15.442069183065515"><ele>294.0</ele><time>2026-04-19T13:23:57Z</time></trkpt><trkpt lat="41.148764322675426" lon="15.442104500039584"><ele>293.8</ele><time>2026-04-19T13:23:58Z</time></trkpt><trkpt lat="41.14887862902048" lon="15.442138164044389"><ele>293.59999999999997</ele><time>2026-04-19T13:23:59Z</time></trkpt><trkpt lat="41.148988829990515" lon="15.442168444956897"><ele>293.4</ele><time>2026-04-19T13:24:00Z</time></trkpt><trkpt lat="41.14909047672478" lon="15.442177314257588"><ele>293.2</ele><time>2026-04-19T13:24:01Z</time></trkpt><trkpt lat="41.14918520851693" lon="15.442186004834042"><ele>293.0</ele><time>2026-04-19T13:24:02Z</time></trkpt><trkpt lat="41.1493009277435" lon="15.442228425006642"><ele>293.0</ele><time>2026-04-19T13:24:03Z</time></trkpt><trkpt lat="41.14943072836926" lon="15.44226610775466"><ele>293.0</ele><time>2026-04-19T13:24:04Z</time></trkpt><trkpt lat="41.14956099824545" lon="15.442302100406867"><ele>293.0</ele><time>2026-04-19T13:24:05Z</time></trkpt><trkpt lat="41.149692377979854" lon="15.442337338828377"><ele>293.0</ele><time>2026-04-19T13:24:06Z</time></trkpt><trkpt lat="41.149830601155145" lon="15.442377243812395"><ele>292.5</ele><time>2026-04-19T13:24:07Z</time></trkpt><trkpt lat="41.14997078869047" lon="15.442417951163277"><ele>292.0</ele><time>2026-04-19T13:24:08Z</time></trkpt><trkpt lat="41.150107846481475" lon="15.442459109439312"><ele>291.5</ele><time>2026-04-19T13:24:09Z</time></trkpt><trkpt lat="41.15024249849975" lon="15.442497950548432"><ele>291.0</ele><time>2026-04-19T13:24:10Z</time></trkpt><trkpt lat="41.15035343907541" lon="15.442532821698412"><ele>291.0</ele><time>2026-04-19T13:24:11Z</time></trkpt><trkpt lat="41.15046596644405" lon="15.442562155011705"><ele>291.0</ele><time>2026-04-19T13:24:12Z</time></trkpt><trkpt lat="41.15055877697492" lon="15.442575158167926"><ele>291.0</ele><time>2026-04-19T13:24:13Z</time></trkpt><trkpt lat="41.15063667511784" lon="15.442590792826003"><ele>291.0</ele><time>2026-04-19T13:24:14Z</time></trkpt><trkpt lat="41.15069743327453" lon="15.44262058148179"><ele>291.0</ele><time>2026-04-19T13:24:15Z</time></trkpt><trkpt lat="41.150764436726455" lon="15.442728342890316"><ele>291.1666666666667</ele><time>2026-04-19T13:24:17Z</time></trkpt><trkpt lat="41.15084446792464" lon="15.442736154844686"><ele>291.3333333333333</ele><time>2026-04-19T13:24:20Z</time></trkpt><trkpt lat="41.150928362181546" lon="15.442721997411061"><ele>291.5</ele><time>2026-04-19T13:24:22Z</time></trkpt><trkpt lat="41.15098431496222" lon="15.442628763728731"><ele>291.66666666666663</ele><time>2026-04-19T13:24:25Z</time></trkpt><trkpt lat="41.15105927331349" lon="15.442545331065936"><ele>291.8333333333333</ele><time>2026-04-19T13:24:27Z</time></trkpt><trkpt lat="41.151147426207686" lon="15.44250555973742"><ele>292.0</ele><time>2026-04-19T13:24:29Z</time></trkpt><trkpt lat="41.15121287217019" lon="15.442493403712351"><ele>292.0</ele><time>2026-04-19T13:24:31Z</time></trkpt><trkpt lat="41.151277644507445" lon="15.442456891835183"><ele>292.0</ele><time>2026-04-19T13:24:33Z</time></trkpt><trkpt lat="41.15133398054234" lon="15.442408090331174"><ele>292.0</ele><time>2026-04-19T13:24:36Z</time></trkpt><trkpt lat="41.151381100966695" lon="15.442335428395715"><ele>292.0</ele><time>2026-04-19T13:25:39Z</time></trkpt><trkpt lat="41.151427814508345" lon="15.44221975477631"><ele>292.0</ele><time>2026-04-19T13:25:58Z</time></trkpt><trkpt lat="41.15146758011768" lon="15.442121718372073"><ele>292.0</ele><time>2026-04-19T13:26:01Z</time></trkpt><trkpt lat="41.15150160654615" lon="15.442036001496064"><ele>292.16666666666663</ele><time>2026-04-19T13:26:03Z</time></trkpt><trkpt lat="41.151504974599725" lon="15.44192427561228"><ele>292.3333333333333</ele><time>2026-04-19T13:26:05Z</time></trkpt><trkpt lat="41.15148286471511" lon="15.44181013163409"><ele>292.5</ele><time>2026-04-19T13:26:07Z</time></trkpt><trkpt lat="41.151456385596795" lon="15.441719665376972"><ele>292.6666666666667</ele><time>2026-04-19T13:26:10Z</time></trkpt><trkpt lat="41.15141008103028" lon="15.441640074153092"><ele>292.83333333333337</ele><time>2026-04-19T13:26:12Z</time></trkpt><trkpt lat="41.15136838377661" lon="15.441570189594117"><ele>293.0</ele><time>2026-04-19T13:26:14Z</time></trkpt><trkpt lat="41.15132373879875" lon="15.441469859492411"><ele>293.0</ele><time>2026-04-19T13:26:17Z</time></trkpt><trkpt lat="41.151270972050106" lon="15.441393918380895"><ele>293.0</ele><time>2026-04-19T13:26:20Z</time></trkpt><trkpt lat="41.15118242361378" lon="15.441370606530754"><ele>293.0</ele><time>2026-04-19T13:26:24Z</time></trkpt><trkpt lat="41.15112694492563" lon="15.441326963967418"><ele>293.0</ele><time>2026-04-19T13:26:37Z</time></trkpt><trkpt lat="41.15107205087794" lon="15.441273222812788"><ele>293.0</ele><time>2026-04-19T13:26:44Z</time></trkpt><trkpt lat="41.15100086758885" lon="15.441187699877956"><ele>293.0</ele><time>2026-04-19T13:26:47Z</time></trkpt><trkpt lat="41.15100218450847" lon="15.441091482085767"><ele>293.33333333333337</ele><time>2026-04-19T13:26:49Z</time></trkpt><trkpt lat="41.15098055987294" lon="15.440998472450739"><ele>293.6666666666667</ele><time>2026-04-19T13:26:52Z</time></trkpt><trkpt lat="41.15093767710614" lon="15.440890143819217"><ele>294.0</ele><time>2026-04-19T13:26:54Z</time></trkpt><trkpt lat="41.15091875155172" lon="15.440761404311012"><ele>294.3333333333333</ele><time>2026-04-19T13:26:57Z</time></trkpt><trkpt lat="41.15086784722613" lon="15.440633224730007"><ele>294.66666666666663</ele><time>2026-04-19T13:26:59Z</time></trkpt><trkpt lat="41.1508297488167" lon="15.44056310252441"><ele>295.0</ele><time>2026-04-19T13:27:00Z</time></trkpt><trkpt lat="41.15077743754305" lon="15.440444442255982"><ele>295.00000000000006</ele><time>2026-04-19T13:27:02Z</time></trkpt><trkpt lat="41.150755605714544" lon="15.440365053974734"><ele>295.0</ele><time>2026-04-19T13:27:04Z</time></trkpt><trkpt lat="41.150725224256846" lon="15.44028304721806"><ele>295.0</ele><time>2026-04-19T13:27:07Z</time></trkpt><trkpt lat="41.15072023060831" lon="15.440183657599258"><ele>295.0</ele><time>2026-04-19T13:27:14Z</time></trkpt><trkpt lat="41.15072629667025" lon="15.440085320468825"><ele>295.0</ele><time>2026-04-19T13:27:17Z</time></trkpt><trkpt lat="41.150760363685635" lon="15.439976625841956"><ele>295.00000000000006</ele><time>2026-04-19T13:27:24Z</time></trkpt><trkpt lat="41.15079545013912" lon="15.439907157649225"><ele>295.0</ele><time>2026-04-19T13:27:26Z</time></trkpt><trkpt lat="41.15082621507103" lon="15.43982156683956"><ele>295.0</ele><time>2026-04-19T13:27:28Z</time></trkpt><trkpt lat="41.15081508195785" lon="15.439724145416422"><ele>295.0</ele><time>2026-04-19T13:27:31Z</time></trkpt><trkpt lat="41.15083997916024" lon="15.439625859645048"><ele>295.0</ele><time>2026-04-19T13:27:41Z</time></trkpt><trkpt lat="41.15082018017924" lon="15.439533042656455"><ele>295.0</ele><time>2026-04-19T13:27:45Z</time></trkpt><trkpt lat="41.15081978400851" lon="15.439426710117525"><ele>295.0</ele><time>2026-04-19T13:27:47Z</time></trkpt><trkpt lat="41.15083920345561" lon="15.439265553086852"><ele>295.0</ele><time>2026-04-19T13:27:49Z</time></trkpt><trkpt lat="41.15086343267216" lon="15.439115224509614"><ele>295.3333333333333</ele><time>2026-04-19T13:27:51Z</time></trkpt><trkpt lat="41.15087402061206" lon="15.439028421146837"><ele>295.66666666666663</ele><time>2026-04-19T13:27:52Z</time></trkpt><trkpt lat="41.15092080789475" lon="15.438918757812157"><ele>296.0</ele><time>2026-04-19T13:27:54Z</time></trkpt><trkpt lat="41.150949832813716" lon="15.438822445878277"><ele>296.3333333333333</ele><time>2026-04-19T13:27:56Z</time></trkpt><trkpt lat="41.15096004428702" lon="15.438728569424764"><ele>296.6666666666667</ele><time>2026-04-19T13:27:58Z</time></trkpt><trkpt lat="41.150947738612054" lon="15.43863089026901"><ele>297.0</ele><time>2026-04-19T13:28:00Z</time></trkpt><trkpt lat="41.150934200532305" lon="15.438531197262924"><ele>297.1666666666667</ele><time>2026-04-19T13:28:04Z</time></trkpt><trkpt lat="41.15093093254251" lon="15.438430671401479"><ele>297.3333333333333</ele><time>2026-04-19T13:28:08Z</time></trkpt><trkpt lat="41.150915537233054" lon="15.438344305102198"><ele>297.5</ele><time>2026-04-19T13:28:15Z</time></trkpt><trkpt lat="41.15085289543091" lon="15.438278527368647"><ele>297.66666666666663</ele><time>2026-04-19T13:28:19Z</time></trkpt><trkpt lat="41.15082347463978" lon="15.43817599006288"><ele>297.8333333333333</ele><time>2026-04-19T13:28:21Z</time></trkpt><trkpt lat="41.15078125724086" lon="15.438032063243728"><ele>298.0</ele><time>2026-04-19T13:28:23Z</time></trkpt><trkpt lat="41.15076740971359" lon="15.437936588770617"><ele>298.16666666666663</ele><time>2026-04-19T13:28:25Z</time></trkpt><trkpt lat="41.15073409450059" lon="15.437850655608663"><ele>298.3333333333333</ele><time>2026-04-19T13:28:26Z</time></trkpt><trkpt lat="41.15071407092836" lon="15.437745494140437"><ele>298.5</ele><time>2026-04-19T13:28:28Z</time></trkpt><trkpt lat="41.15070657547602" lon="15.437635133494863"><ele>298.6666666666667</ele><time>2026-04-19T13:28:30Z</time></trkpt><trkpt lat="41.150714130004026" lon="15.437516959276824"><ele>298.83333333333337</ele><time>2026-04-19T13:28:32Z</time></trkpt><trkpt lat="41.15071941327761" lon="15.437395759105216"><ele>299.0</ele><time>2026-04-19T13:28:34Z</time></trkpt><trkpt lat="41.15070067153013" lon="15.437313839643169"><ele>299.0</ele><time>2026-04-19T13:28:35Z</time></trkpt><trkpt lat="41.150685334083" lon="15.437215314273944"><ele>299.0</ele><time>2026-04-19T13:28:37Z</time></trkpt><trkpt lat="41.15070033874393" lon="15.437120881632483"><ele>299.0</ele><time>2026-04-19T13:28:39Z</time></trkpt><trkpt lat="41.15069887616763" lon="15.437009547653526"><ele>299.0</ele><time>2026-04-19T13:28:42Z</time></trkpt><trkpt lat="41.150681947103294" lon="15.436926811671382"><ele>299.0</ele><time>2026-04-19T13:28:44Z</time></trkpt><trkpt lat="41.15063861869857" lon="15.436852140708389"><ele>299.0</ele><time>2026-04-19T13:28:47Z</time></trkpt><trkpt lat="41.15063461044775" lon="15.4367557290614"><ele>299.0</ele><time>2026-04-19T13:28:49Z</time></trkpt><trkpt lat="41.15067589407382" lon="15.436655468174546"><ele>299.1428571428571</ele><time>2026-04-19T13:28:51Z</time></trkpt><trkpt lat="41.15070357877493" lon="15.436578176023426"><ele>299.2857142857143</ele><time>2026-04-19T13:28:54Z</time></trkpt><trkpt lat="41.150713305666024" lon="15.436486370725131"><ele>299.42857142857144</ele><time>2026-04-19T13:28:56Z</time></trkpt><trkpt lat="41.15075187604898" lon="15.436384959547997"><ele>299.57142857142856</ele><time>2026-04-19T13:28:58Z</time></trkpt><trkpt lat="41.15078239888095" lon="15.436309273186662"><ele>299.7142857142857</ele><time>2026-04-19T13:29:00Z</time></trkpt><trkpt lat="41.150775351310166" lon="15.436200031005491"><ele>299.85714285714283</ele><time>2026-04-19T13:29:01Z</time></trkpt><trkpt lat="41.15078343902327" lon="15.436115528835595"><ele>300.0</ele><time>2026-04-19T13:29:02Z</time></trkpt><trkpt lat="41.15078309159319" lon="15.435982037536741"><ele>300.2</ele><time>2026-04-19T13:29:04Z</time></trkpt><trkpt lat="41.150773174097644" lon="15.435874779270799"><ele>300.4</ele><time>2026-04-19T13:29:07Z</time></trkpt><trkpt lat="41.15077513875756" lon="15.435713222328928"><ele>300.6</ele><time>2026-04-19T13:29:08Z</time></trkpt><trkpt lat="41.1507811247288" lon="15.435609227919178"><ele>300.8</ele><time>2026-04-19T13:29:10Z</time></trkpt><trkpt lat="41.150782761400784" lon="15.435472022898931"><ele>301.0</ele><time>2026-04-19T13:29:12Z</time></trkpt><trkpt lat="41.15082399790627" lon="15.435394190581524"><ele>301.16666666666663</ele><time>2026-04-19T13:29:14Z</time></trkpt><trkpt lat="41.15087830713807" lon="15.435348692717259"><ele>301.3333333333333</ele><time>2026-04-19T13:29:16Z</time></trkpt><trkpt lat="41.150920885738365" lon="15.43525251577316"><ele>301.5</ele><time>2026-04-19T13:29:19Z</time></trkpt><trkpt lat="41.15099289841286" lon="15.435202391831947"><ele>301.6666666666667</ele><time>2026-04-19T13:29:22Z</time></trkpt><trkpt lat="41.151009513000446" lon="15.435082173024059"><ele>301.83333333333337</ele><time>2026-04-19T13:29:25Z</time></trkpt><trkpt lat="41.15097974995254" lon="15.434969080328052"><ele>302.0</ele><time>2026-04-19T13:29:27Z</time></trkpt><trkpt lat="41.150907351705435" lon="15.43484765976929"><ele>302.0</ele><time>2026-04-19T13:29:29Z</time></trkpt><trkpt lat="41.15083168630414" lon="15.434819960245182"><ele>302.0</ele><time>2026-04-19T13:29:30Z</time></trkpt><trkpt lat="41.15077502144303" lon="15.434772856904484"><ele>302.0</ele><time>2026-04-19T13:29:31Z</time></trkpt><trkpt lat="41.150739181999306" lon="15.43469344054814"><ele>302.0</ele><time>2026-04-19T13:29:33Z</time></trkpt><trkpt lat="41.150656008460615" lon="15.434658041782445"><ele>302.0</ele><time>2026-04-19T13:29:41Z</time></trkpt><trkpt lat="41.150584897978696" lon="15.434607845204312"><ele>302.0</ele><time>2026-04-19T13:29:43Z</time></trkpt><trkpt lat="41.15054750717663" lon="15.434505475405405"><ele>302.33333333333337</ele><time>2026-04-19T13:29:45Z</time></trkpt><trkpt lat="41.15050457111452" lon="15.434412496273318"><ele>302.6666666666667</ele><time>2026-04-19T13:29:47Z</time></trkpt><trkpt lat="41.15049931616253" lon="15.434316579271945"><ele>303.0</ele><time>2026-04-19T13:29:53Z</time></trkpt><trkpt lat="41.150492284241615" lon="15.434166515820362"><ele>303.3333333333333</ele><time>2026-04-19T13:29:55Z</time></trkpt><trkpt lat="41.15050067570407" lon="15.434066039073617"><ele>303.66666666666663</ele><time>2026-04-19T13:29:56Z</time></trkpt><trkpt lat="41.15053044368806" lon="15.433978279200115"><ele>304.0</ele><time>2026-04-19T13:29:58Z</time></trkpt><trkpt lat="41.15057862768685" lon="15.433870030239506"><ele>304.0</ele><time>2026-04-19T13:30:01Z</time></trkpt><trkpt lat="41.150628440355305" lon="15.433736755546441"><ele>304.0</ele><time>2026-04-19T13:30:03Z</time></trkpt><trkpt lat="41.150669963640624" lon="15.433629200457114"><ele>304.0</ele><time>2026-04-19T13:30:05Z</time></trkpt><trkpt lat="41.15072539086645" lon="15.433538020406957"><ele>304.0</ele><time>2026-04-19T13:30:07Z</time></trkpt><trkpt lat="41.150806749185776" lon="15.433489471463199"><ele>304.0</ele><time>2026-04-19T13:30:09Z</time></trkpt><trkpt lat="41.15091277744065" lon="15.433440833542456"><ele>304.0</ele><time>2026-04-19T13:30:11Z</time></trkpt><trkpt lat="41.1509719171758" lon="15.433399637529702"><ele>304.0</ele><time>2026-04-19T13:30:13Z</time></trkpt><trkpt lat="41.15104977299343" lon="15.433427894290938"><ele>304.0</ele><time>2026-04-19T13:30:15Z</time></trkpt><trkpt lat="41.151119087634044" lon="15.433468267580615"><ele>304.0</ele><time>2026-04-19T13:30:17Z</time></trkpt><trkpt lat="41.15120589895819" lon="15.433522980043197"><ele>304.0</ele><time>2026-04-19T13:30:20Z</time></trkpt><trkpt lat="41.15129489300584" lon="15.433550689203209"><ele>304.0</ele><time>2026-04-19T13:30:22Z</time></trkpt><trkpt lat="41.15132484218776" lon="15.43364586646856"><ele>304.0</ele><time>2026-04-19T13:30:24Z</time></trkpt><trkpt lat="41.151343144341745" lon="15.433735926108735"><ele>304.0</ele><time>2026-04-19T13:30:25Z</time></trkpt><trkpt lat="41.15138271167029" lon="15.433838182228957"><ele>304.0</ele><time>2026-04-19T13:30:26Z</time></trkpt><trkpt lat="41.15145449105193" lon="15.43396070012031"><ele>304.0</ele><time>2026-04-19T13:30:27Z</time></trkpt><trkpt lat="41.15150283533996" lon="15.434045577830373"><ele>304.0</ele><time>2026-04-19T13:30:28Z</time></trkpt><trkpt lat="41.15158502056659" lon="15.434111596813265"><ele>304.0</ele><time>2026-04-19T13:30:30Z</time></trkpt><trkpt lat="41.15169487189507" lon="15.434084831689761"><ele>304.0</ele><time>2026-04-19T13:30:32Z</time></trkpt><trkpt lat="41.15176523165963" lon="15.434061861110502"><ele>304.0</ele><time>2026-04-19T13:30:33Z</time></trkpt><trkpt lat="41.151859757591126" lon="15.434020806956603"><ele>304.0</ele><time>2026-04-19T13:30:34Z</time></trkpt><trkpt lat="41.15195582146759" lon="15.43396729161184"><ele>304.0</ele><time>2026-04-19T13:30:35Z</time></trkpt><trkpt lat="41.15204746030963" lon="15.433920393727405"><ele>304.0</ele><time>2026-04-19T13:30:36Z</time></trkpt><trkpt lat="41.15210534577818" lon="15.433885098157079"><ele>304.0</ele><time>2026-04-19T13:30:37Z</time></trkpt><trkpt lat="41.152172895048835" lon="15.433782002123428"><ele>304.0</ele><time>2026-04-19T13:30:39Z</time></trkpt><trkpt lat="41.152212332953866" lon="15.433714411883292"><ele>304.0</ele><time>2026-04-19T13:30:41Z</time></trkpt><trkpt lat="41.15225886541999" lon="15.433608639797322"><ele>304.0</ele><time>2026-04-19T13:30:43Z</time></trkpt><trkpt lat="41.152210852562945" lon="15.433489953009039"><ele>304.0</ele><time>2026-04-19T13:30:45Z</time></trkpt><trkpt lat="41.15220068189946" lon="15.433388574995421"><ele>304.16666666666663</ele><time>2026-04-19T13:30:47Z</time></trkpt><trkpt lat="41.15217186884786" lon="15.433301350486055"><ele>304.3333333333333</ele><time>2026-04-19T13:30:49Z</time></trkpt><trkpt lat="41.15215181336132" lon="15.433191790251303"><ele>304.5</ele><time>2026-04-19T13:30:51Z</time></trkpt><trkpt lat="41.15212400443066" lon="15.433048351625429"><ele>304.6666666666667</ele><time>2026-04-19T13:30:53Z</time></trkpt><trkpt lat="41.152103925419084" lon="15.432960530817738"><ele>304.83333333333337</ele><time>2026-04-19T13:30:54Z</time></trkpt><trkpt lat="41.15207628045734" lon="15.432847879892089"><ele>305.0</ele><time>2026-04-19T13:30:55Z</time></trkpt><trkpt lat="41.152057799583204" lon="15.432710913517116"><ele>305.6</ele><time>2026-04-19T13:30:57Z</time></trkpt><trkpt lat="41.152053625615665" lon="15.432615854375468"><ele>306.2</ele><time>2026-04-19T13:30:58Z</time></trkpt><trkpt lat="41.15203702637215" lon="15.432511077685618"><ele>306.8</ele><time>2026-04-19T13:30:59Z</time></trkpt><trkpt lat="41.152056614505206" lon="15.432373869831268"><ele>307.4</ele><time>2026-04-19T13:31:01Z</time></trkpt><trkpt lat="41.15210703967184" lon="15.432272056444686"><ele>308.0</ele><time>2026-04-19T13:31:02Z</time></trkpt><trkpt lat="41.152181235262546" lon="15.4321582633731"><ele>308.4</ele><time>2026-04-19T13:31:03Z</time></trkpt><trkpt lat="41.152230624209196" lon="15.432101444509762"><ele>308.8</ele><time>2026-04-19T13:31:04Z</time></trkpt><trkpt lat="41.15229523951379" lon="15.432005666070358"><ele>309.2</ele><time>2026-04-19T13:31:06Z</time></trkpt><trkpt lat="41.15236400878635" lon="15.431890060204582"><ele>309.6</ele><time>2026-04-19T13:31:08Z</time></trkpt><trkpt lat="41.15245614555785" lon="15.431802585309187"><ele>310.0</ele><time>2026-04-19T13:31:10Z</time></trkpt><trkpt lat="41.1525534028477" lon="15.43172391538634"><ele>310.0</ele><time>2026-04-19T13:31:12Z</time></trkpt><trkpt lat="41.15267148233783" lon="15.431669990246442"><ele>310.0</ele><time>2026-04-19T13:31:14Z</time></trkpt><trkpt lat="41.152761520285" lon="15.431606766183377"><ele>310.0</ele><time>2026-04-19T13:31:16Z</time></trkpt><trkpt lat="41.15283603258995" lon="15.431550695660503"><ele>310.0</ele><time>2026-04-19T13:31:18Z</time></trkpt><trkpt lat="41.15290149925234" lon="15.431519371288042"><ele>310.0</ele><time>2026-04-19T13:31:20Z</time></trkpt><trkpt lat="41.152962851124265" lon="15.431486446493832"><ele>310.0</ele><time>2026-04-19T13:31:22Z</time></trkpt><trkpt lat="41.15304422447182" lon="15.43135276418574"><ele>309.8</ele><time>2026-04-19T13:31:24Z</time></trkpt><trkpt lat="41.15309221538238" lon="15.431278965916338"><ele>309.6</ele><time>2026-04-19T13:31:25Z</time></trkpt><trkpt lat="41.15313737493411" lon="15.43121002458291"><ele>309.4</ele><time>2026-04-19T13:31:26Z</time></trkpt><trkpt lat="41.153198590279985" lon="15.431084722819842"><ele>309.2</ele><time>2026-04-19T13:31:28Z</time></trkpt><trkpt lat="41.153265433728215" lon="15.430965575491737"><ele>309.0</ele><time>2026-04-19T13:31:30Z</time></trkpt><trkpt lat="41.153329207283406" lon="15.430882028598704"><ele>309.59999999999997</ele><time>2026-04-19T13:31:31Z</time></trkpt><trkpt lat="41.15338236871175" lon="15.430816016865602"><ele>310.2</ele><time>2026-04-19T13:31:32Z</time></trkpt><trkpt lat="41.15343257399403" lon="15.43074595195844"><ele>310.79999999999995</ele><time>2026-04-19T13:31:33Z</time></trkpt><trkpt lat="41.15350058022012" lon="15.430639983072655"><ele>311.4</ele><time>2026-04-19T13:31:35Z</time></trkpt><trkpt lat="41.15358549018469" lon="15.430540196000548"><ele>312.0</ele><time>2026-04-19T13:31:37Z</time></trkpt><trkpt lat="41.15359878076265" lon="15.430420075467076"><ele>312.0</ele><time>2026-04-19T13:31:39Z</time></trkpt><trkpt lat="41.153631574426086" lon="15.430326020334824"><ele>312.0</ele><time>2026-04-19T13:31:40Z</time></trkpt><trkpt lat="41.15367570868314" lon="15.430229175238216"><ele>312.0</ele><time>2026-04-19T13:31:41Z</time></trkpt><trkpt lat="41.15370923476433" lon="15.43014469567648"><ele>312.0</ele><time>2026-04-19T13:31:43Z</time></trkpt><trkpt lat="41.15368897900117" lon="15.430033244033313"><ele>312.0</ele><time>2026-04-19T13:31:45Z</time></trkpt><trkpt lat="41.15372083754988" lon="15.429889206348317"><ele>312.0</ele><time>2026-04-19T13:31:47Z</time></trkpt><trkpt lat="41.15377126445722" lon="15.429776509385901"><ele>312.0</ele><time>2026-04-19T13:31:49Z</time></trkpt><trkpt lat="41.15380732606646" lon="15.42970463543129"><ele>312.0</ele><time>2026-04-19T13:31:50Z</time></trkpt><trkpt lat="41.15386855242809" lon="15.429608118702477"><ele>312.0</ele><time>2026-04-19T13:31:52Z</time></trkpt><trkpt lat="41.15390769233933" lon="15.429500178699724"><ele>312.0</ele><time>2026-04-19T13:31:54Z</time></trkpt><trkpt lat="41.153962971762446" lon="15.429446027332814"><ele>312.0</ele><time>2026-04-19T13:31:55Z</time></trkpt><trkpt lat="41.15403970711901" lon="15.429443200046304"><ele>312.0</ele><time>2026-04-19T13:31:56Z</time></trkpt><trkpt lat="41.154124855626" lon="15.429415731714615"><ele>312.1666666666667</ele><time>2026-04-19T13:31:57Z</time></trkpt><trkpt lat="41.15419249088942" lon="15.429406492036478"><ele>312.3333333333333</ele><time>2026-04-19T13:31:58Z</time></trkpt><trkpt lat="41.154286818821625" lon="15.429421089495587"><ele>312.5</ele><time>2026-04-19T13:32:00Z</time></trkpt><trkpt lat="41.15437625145877" lon="15.429477493582406"><ele>312.66666666666663</ele><time>2026-04-19T13:32:03Z</time></trkpt><trkpt lat="41.15445790035639" lon="15.42947807822434"><ele>312.8333333333333</ele><time>2026-04-19T13:32:05Z</time></trkpt><trkpt lat="41.154494344795374" lon="15.429401896961595"><ele>313.0</ele><time>2026-04-19T13:32:07Z</time></trkpt><trkpt lat="41.15454530346251" lon="15.429305877797287"><ele>313.0</ele><time>2026-04-19T13:32:09Z</time></trkpt><trkpt lat="41.15458706742934" lon="15.429202915278085"><ele>313.0</ele><time>2026-04-19T13:32:11Z</time></trkpt><trkpt lat="41.15459463718228" lon="15.429113939946474"><ele>313.0</ele><time>2026-04-19T13:32:13Z</time></trkpt><trkpt lat="41.15462491310897" lon="15.429017347844702"><ele>313.0</ele><time>2026-04-19T13:32:15Z</time></trkpt><trkpt lat="41.154667940911835" lon="15.428894834795564"><ele>313.0</ele><time>2026-04-19T13:32:17Z</time></trkpt><trkpt lat="41.15461157877157" lon="15.428824120710434"><ele>313.0</ele><time>2026-04-19T13:32:19Z</time></trkpt><trkpt lat="41.154583594300256" lon="15.428731371885966"><ele>313.3333333333333</ele><time>2026-04-19T13:32:20Z</time></trkpt><trkpt lat="41.15455767976612" lon="15.428624199297293"><ele>313.66666666666663</ele><time>2026-04-19T13:32:21Z</time></trkpt><trkpt lat="41.15450571593623" lon="15.428531867653692"><ele>314.0</ele><time>2026-04-19T13:32:23Z</time></trkpt><trkpt lat="41.15447464341805" lon="15.428420769718866"><ele>314.3333333333333</ele><time>2026-04-19T13:32:27Z</time></trkpt><trkpt lat="41.15448523606754" lon="15.428318179120568"><ele>314.6666666666667</ele><time>2026-04-19T13:32:29Z</time></trkpt><trkpt lat="41.15456226838426" lon="15.42821855415896"><ele>315.0</ele><time>2026-04-19T13:32:31Z</time></trkpt><trkpt lat="41.154648026204605" lon="15.428146111637375"><ele>315.0</ele><time>2026-04-19T13:32:33Z</time></trkpt><trkpt lat="41.15472700794846" lon="15.428092144377827"><ele>315.0</ele><time>2026-04-19T13:32:35Z</time></trkpt><trkpt lat="41.15482673092537" lon="15.428119296562326"><ele>315.0</ele><time>2026-04-19T13:32:38Z</time></trkpt><trkpt lat="41.154893294422344" lon="15.428138989157345"><ele>315.0</ele><time>2026-04-19T13:32:40Z</time></trkpt><trkpt lat="41.15498128222845" lon="15.428098527102591"><ele>315.0</ele><time>2026-04-19T13:32:43Z</time></trkpt><trkpt lat="41.15504601609471" lon="15.42806618162651"><ele>315.0</ele><time>2026-04-19T13:32:45Z</time></trkpt><trkpt lat="41.15510383630477" lon="15.42802851455197"><ele>315.0</ele><time>2026-04-19T13:32:47Z</time></trkpt><trkpt lat="41.15517067647626" lon="15.42798881293317"><ele>315.0</ele><time>2026-04-19T13:32:49Z</time></trkpt><trkpt lat="41.15524514747542" lon="15.42794371207691"><ele>315.0</ele><time>2026-04-19T13:32:52Z</time></trkpt><trkpt lat="41.155277598273095" lon="15.42786997969693"><ele>315.0</ele><time>2026-04-19T13:32:54Z</time></trkpt><trkpt lat="41.1553321084478" lon="15.42776251804834"><ele>315.0</ele><time>2026-04-19T13:32:56Z</time></trkpt><trkpt lat="41.15525477331683" lon="15.427752426482561"><ele>315.0</ele><time>2026-04-19T13:33:46Z</time></trkpt><trkpt lat="41.15515148057916" lon="15.427797004510301"><ele>315.1666666666667</ele><time>2026-04-19T13:33:49Z</time></trkpt><trkpt lat="41.15507857157058" lon="15.427784102225685"><ele>315.3333333333333</ele><time>2026-04-19T13:33:52Z</time></trkpt><trkpt lat="41.155066073529476" lon="15.427681937991723"><ele>315.5</ele><time>2026-04-19T13:33:55Z</time></trkpt><trkpt lat="41.15509316984476" lon="15.427585875530395"><ele>315.66666666666663</ele><time>2026-04-19T13:33:57Z</time></trkpt><trkpt lat="41.155105179393146" lon="15.427459962822168"><ele>315.8333333333333</ele><time>2026-04-19T13:33:58Z</time></trkpt><trkpt lat="41.15510239443582" lon="15.427349675129667"><ele>316.0</ele><time>2026-04-19T13:33:59Z</time></trkpt><trkpt lat="41.155109151304465" lon="15.427237633798642"><ele>316.75</ele><time>2026-04-19T13:34:00Z</time></trkpt><trkpt lat="41.15513886073382" lon="15.427122930985629"><ele>317.5</ele><time>2026-04-19T13:34:01Z</time></trkpt><trkpt lat="41.15518476942339" lon="15.426997714612487"><ele>318.25</ele><time>2026-04-19T13:34:02Z</time></trkpt><trkpt lat="41.15523512954574" lon="15.426821509018675"><ele>319.0</ele><time>2026-04-19T13:34:03Z</time></trkpt><trkpt lat="41.155274633601984" lon="15.42666746249228"><ele>319.0</ele><time>2026-04-19T13:34:04Z</time></trkpt><trkpt lat="41.15531028968725" lon="15.426547016820864"><ele>319.0</ele><time>2026-04-19T13:34:05Z</time></trkpt><trkpt lat="41.155356287430884" lon="15.426419895377245"><ele>319.0</ele><time>2026-04-19T13:34:06Z</time></trkpt><trkpt lat="41.15539501097115" lon="15.426279395341263"><ele>319.0</ele><time>2026-04-19T13:34:07Z</time></trkpt><trkpt lat="41.15540523281783" lon="15.426141149794176"><ele>319.0</ele><time>2026-04-19T13:34:08Z</time></trkpt><trkpt lat="41.15539873977931" lon="15.42601705431478"><ele>319.2</ele><time>2026-04-19T13:34:09Z</time></trkpt><trkpt lat="41.155393803158944" lon="15.425905872464384"><ele>319.4</ele><time>2026-04-19T13:34:10Z</time></trkpt><trkpt lat="41.15539706692552" lon="15.425800181147986"><ele>319.6</ele><time>2026-04-19T13:34:11Z</time></trkpt><trkpt lat="41.15541772089349" lon="15.42568955676539"><ele>319.8</ele><time>2026-04-19T13:34:12Z</time></trkpt><trkpt lat="41.155456294181505" lon="15.425569808132892"><ele>320.0</ele><time>2026-04-19T13:34:13Z</time></trkpt><trkpt lat="41.15550033415917" lon="15.42543733184674"><ele>320.33333333333337</ele><time>2026-04-19T13:34:14Z</time></trkpt><trkpt lat="41.15553044227416" lon="15.425310936269279"><ele>320.6666666666667</ele><time>2026-04-19T13:34:15Z</time></trkpt><trkpt lat="41.15554546916557" lon="15.42521774694359"><ele>321.0</ele><time>2026-04-19T13:34:16Z</time></trkpt><trkpt lat="41.1555695803136" lon="15.425099211823829"><ele>321.3333333333333</ele><time>2026-04-19T13:34:18Z</time></trkpt><trkpt lat="41.15560098591414" lon="15.425018870221622"><ele>321.66666666666663</ele><time>2026-04-19T13:34:19Z</time></trkpt><trkpt lat="41.155649682580446" lon="15.42493217826681"><ele>322.0</ele><time>2026-04-19T13:34:20Z</time></trkpt><trkpt lat="41.155694979278216" lon="15.424841010953584"><ele>321.8333333333333</ele><time>2026-04-19T13:34:21Z</time></trkpt><trkpt lat="41.1557345113533" lon="15.424731516674772"><ele>321.66666666666663</ele><time>2026-04-19T13:34:22Z</time></trkpt><trkpt lat="41.155755998675566" lon="15.424637878461853"><ele>321.5</ele><time>2026-04-19T13:34:23Z</time></trkpt><trkpt lat="41.155780046742045" lon="15.424549686578324"><ele>321.3333333333333</ele><time>2026-04-19T13:34:24Z</time></trkpt><trkpt lat="41.15580146061146" lon="15.424456942221612"><ele>321.1666666666667</ele><time>2026-04-19T13:34:25Z</time></trkpt><trkpt lat="41.15582832214323" lon="15.4243459995981"><ele>321.0</ele><time>2026-04-19T13:34:26Z</time></trkpt><trkpt lat="41.15584990048767" lon="15.42423487770749"><ele>321.5</ele><time>2026-04-19T13:34:27Z</time></trkpt><trkpt lat="41.15586621197324" lon="15.424118090736695"><ele>322.0</ele><time>2026-04-19T13:34:28Z</time></trkpt><trkpt lat="41.1558815703336" lon="15.424001997528142"><ele>322.5</ele><time>2026-04-19T13:34:29Z</time></trkpt><trkpt lat="41.15589865240198" lon="15.423889014132271"><ele>323.0</ele><time>2026-04-19T13:34:30Z</time></trkpt><trkpt lat="41.15591239807742" lon="15.423793005917638"><ele>323.5</ele><time>2026-04-19T13:34:31Z</time></trkpt><trkpt lat="41.15592880774513" lon="15.423691336678448"><ele>324.0</ele><time>2026-04-19T13:34:32Z</time></trkpt><trkpt lat="41.155943821829524" lon="15.423590736474893"><ele>324.1666666666667</ele><time>2026-04-19T13:34:33Z</time></trkpt><trkpt lat="41.15596152405728" lon="15.423482202972815"><ele>324.3333333333333</ele><time>2026-04-19T13:34:34Z</time></trkpt><trkpt lat="41.155977773337796" lon="15.423380942890166"><ele>324.5</ele><time>2026-04-19T13:34:35Z</time></trkpt><trkpt lat="41.155988968144605" lon="15.423292773046471"><ele>324.66666666666663</ele><time>2026-04-19T13:34:36Z</time></trkpt><trkpt lat="41.15600229194911" lon="15.423121662170214"><ele>324.8333333333333</ele><time>2026-04-19T13:34:38Z</time></trkpt><trkpt lat="41.15601071931175" lon="15.423012197668642"><ele>325.0</ele><time>2026-04-19T13:34:39Z</time></trkpt><trkpt lat="41.15601562050481" lon="15.422900597549095"><ele>325.0</ele><time>2026-04-19T13:34:40Z</time></trkpt><trkpt lat="41.15601503498286" lon="15.422791179092137"><ele>325.0</ele><time>2026-04-19T13:34:41Z</time></trkpt><trkpt lat="41.15601460129316" lon="15.422683549498304"><ele>325.0</ele><time>2026-04-19T13:34:42Z</time></trkpt><trkpt lat="41.15601397925803" lon="15.422573225934897"><ele>325.0</ele><time>2026-04-19T13:34:43Z</time></trkpt><trkpt lat="41.15601367083966" lon="15.422475752622494"><ele>325.0</ele><time>2026-04-19T13:34:44Z</time></trkpt><trkpt lat="41.15601606634334" lon="15.422377396141805"><ele>325.0</ele><time>2026-04-19T13:34:45Z</time></trkpt><trkpt lat="41.15601656796483" lon="15.42226994243337"><ele>325.0</ele><time>2026-04-19T13:34:46Z</time></trkpt><trkpt lat="41.15601116893922" lon="15.422161209673698"><ele>325.0</ele><time>2026-04-19T13:34:47Z</time></trkpt><trkpt lat="41.15600006466475" lon="15.422041499179047"><ele>325.0</ele><time>2026-04-19T13:34:48Z</time></trkpt><trkpt lat="41.15598712580407" lon="15.42193200610718"><ele>325.0</ele><time>2026-04-19T13:34:49Z</time></trkpt><trkpt lat="41.15597512356134" lon="15.421820200109986"><ele>325.0</ele><time>2026-04-19T13:34:50Z</time></trkpt><trkpt lat="41.155961253317834" lon="15.421705063298228"><ele>325.0</ele><time>2026-04-19T13:34:51Z</time></trkpt><trkpt lat="41.1559473094521" lon="15.42160434679356"><ele>325.5</ele><time>2026-04-19T13:34:52Z</time></trkpt><trkpt lat="41.155933370374925" lon="15.421506533316963"><ele>326.0</ele><time>2026-04-19T13:34:53Z</time></trkpt><trkpt lat="41.15591742007874" lon="15.421403643947176"><ele>326.5</ele><time>2026-04-19T13:34:54Z</time></trkpt><trkpt lat="41.15589874321303" lon="15.42130041866334"><ele>327.0</ele><time>2026-04-19T13:34:55Z</time></trkpt><trkpt lat="41.15587711799066" lon="15.421187371908573"><ele>327.5</ele><time>2026-04-19T13:34:56Z</time></trkpt><trkpt lat="41.15585189843875" lon="15.421074984246143"><ele>328.0</ele><time>2026-04-19T13:34:57Z</time></trkpt><trkpt lat="41.15582540890172" lon="15.420953164774192"><ele>328.3333333333333</ele><time>2026-04-19T13:34:58Z</time></trkpt><trkpt lat="41.15579979223793" lon="15.420831112649953"><ele>328.66666666666663</ele><time>2026-04-19T13:34:59Z</time></trkpt><trkpt lat="41.15577914076035" lon="15.420730059413225"><ele>329.0</ele><time>2026-04-19T13:35:00Z</time></trkpt><trkpt lat="41.155752261200064" lon="15.420593923411007"><ele>329.3333333333333</ele><time>2026-04-19T13:35:02Z</time></trkpt><trkpt lat="41.15573931437019" lon="15.420506288952717"><ele>329.6666666666667</ele><time>2026-04-19T13:35:03Z</time></trkpt><trkpt lat="41.15571313247787" lon="15.420391878773891"><ele>330.0</ele><time>2026-04-19T13:35:04Z</time></trkpt><trkpt lat="41.15568427323086" lon="15.420271785584141"><ele>331.0</ele><time>2026-04-19T13:35:05Z</time></trkpt><trkpt lat="41.1556551218215" lon="15.420132898528069"><ele>332.0</ele><time>2026-04-19T13:35:06Z</time></trkpt><trkpt lat="41.155623251475724" lon="15.419984887506986"><ele>333.0</ele><time>2026-04-19T13:35:07Z</time></trkpt><trkpt lat="41.155592262338835" lon="15.41983548622061"><ele>334.0</ele><time>2026-04-19T13:35:08Z</time></trkpt><trkpt lat="41.15556491882299" lon="15.419702791216995"><ele>335.0</ele><time>2026-04-19T13:35:09Z</time></trkpt><trkpt lat="41.15554729976407" lon="15.419605901036034"><ele>335.6666666666667</ele><time>2026-04-19T13:35:10Z</time></trkpt><trkpt lat="41.155535709786086" lon="15.419519329331013"><ele>336.33333333333337</ele><time>2026-04-19T13:35:11Z</time></trkpt><trkpt lat="41.15551693531145" lon="15.419414570092993"><ele>337.0</ele><time>2026-04-19T13:35:12Z</time></trkpt><trkpt lat="41.15549541431659" lon="15.419296898450831"><ele>337.6666666666667</ele><time>2026-04-19T13:35:13Z</time></trkpt><trkpt lat="41.1554766333975" lon="15.419178259522663"><ele>338.3333333333333</ele><time>2026-04-19T13:35:14Z</time></trkpt><trkpt lat="41.15546225139591" lon="15.41904864877625"><ele>339.0</ele><time>2026-04-19T13:35:15Z</time></trkpt><trkpt lat="41.155444959557336" lon="15.418906137175432"><ele>339.6666666666667</ele><time>2026-04-19T13:35:16Z</time></trkpt><trkpt lat="41.155427555376114" lon="15.418774101135819"><ele>340.3333333333333</ele><time>2026-04-19T13:35:17Z</time></trkpt><trkpt lat="41.15541563046966" lon="15.418655617733924"><ele>341.0</ele><time>2026-04-19T13:35:18Z</time></trkpt><trkpt lat="41.15540307999876" lon="15.418563209544343"><ele>341.66666666666663</ele><time>2026-04-19T13:35:19Z</time></trkpt><trkpt lat="41.15538934576682" lon="15.418474404775367"><ele>342.3333333333333</ele><time>2026-04-19T13:35:20Z</time></trkpt><trkpt lat="41.15541315080789" lon="15.418364623896252"><ele>343.0</ele><time>2026-04-19T13:35:22Z</time></trkpt><trkpt lat="41.155491628392795" lon="15.418312547317052"><ele>343.0</ele><time>2026-04-19T13:35:24Z</time></trkpt><trkpt lat="41.155556214471495" lon="15.418371123065471"><ele>343.0</ele><time>2026-04-19T13:35:25Z</time></trkpt><trkpt lat="41.15561193142668" lon="15.418415340448707"><ele>343.0</ele><time>2026-04-19T13:35:27Z</time></trkpt><trkpt lat="41.1556735101682" lon="15.418445571800742"><ele>343.0</ele><time>2026-04-19T13:35:29Z</time></trkpt><trkpt lat="41.15573411441269" lon="15.41848585155152"><ele>343.0</ele><time>2026-04-19T13:35:31Z</time></trkpt><trkpt lat="41.15580584625301" lon="15.41852607465146"><ele>343.0</ele><time>2026-04-19T13:35:34Z</time></trkpt><trkpt lat="41.15589272533957" lon="15.418584734307938"><ele>342.3333333333333</ele><time>2026-04-19T13:35:36Z</time></trkpt><trkpt lat="41.155961304121206" lon="15.418632910806872"><ele>341.66666666666663</ele><time>2026-04-19T13:35:38Z</time></trkpt><trkpt lat="41.156023079899725" lon="15.418613476933322"><ele>341.0</ele><time>2026-04-19T13:45:29Z</time></trkpt><trkpt lat="41.1560821146559" lon="15.418676115392955"><ele>340.3333333333333</ele><time>2026-04-19T13:45:31Z</time></trkpt><trkpt lat="41.15619729185522" lon="15.41877747709058"><ele>339.6666666666667</ele><time>2026-04-19T13:45:33Z</time></trkpt><trkpt lat="41.15627736252128" lon="15.418829854964029"><ele>339.0</ele><time>2026-04-19T13:45:34Z</time></trkpt><trkpt lat="41.15635885813421" lon="15.418883069591732"><ele>338.6666666666667</ele><time>2026-04-19T13:45:35Z</time></trkpt><trkpt lat="41.15643100696601" lon="15.418926373592285"><ele>338.3333333333333</ele><time>2026-04-19T13:45:36Z</time></trkpt><trkpt lat="41.15648651491719" lon="15.418985786850753"><ele>338.0</ele><time>2026-04-19T13:45:37Z</time></trkpt><trkpt lat="41.15656423193421" lon="15.419015368426825"><ele>337.66666666666663</ele><time>2026-04-19T13:45:38Z</time></trkpt><trkpt lat="41.15664826828853" lon="15.419072615957376"><ele>337.3333333333333</ele><time>2026-04-19T13:45:39Z</time></trkpt><trkpt lat="41.15673979340695" lon="15.41913402771083"><ele>337.0</ele><time>2026-04-19T13:45:40Z</time></trkpt><trkpt lat="41.15683421715541" lon="15.419200870420157"><ele>336.20000000000005</ele><time>2026-04-19T13:45:41Z</time></trkpt><trkpt lat="41.156915077040885" lon="15.41929034949815"><ele>335.4</ele><time>2026-04-19T13:45:42Z</time></trkpt><trkpt lat="41.15699756498783" lon="15.419358456620992"><ele>334.6</ele><time>2026-04-19T13:45:43Z</time></trkpt><trkpt lat="41.15707457045719" lon="15.41942329036551"><ele>333.79999999999995</ele><time>2026-04-19T13:45:44Z</time></trkpt><trkpt lat="41.15714751686853" lon="15.41948470665916"><ele>333.0</ele><time>2026-04-19T13:45:45Z</time></trkpt><trkpt lat="41.15721372581646" lon="15.419535355831663"><ele>333.0</ele><time>2026-04-19T13:45:46Z</time></trkpt><trkpt lat="41.157269627578366" lon="15.419578077284173"><ele>333.0</ele><time>2026-04-19T13:45:47Z</time></trkpt><trkpt lat="41.15735967096737" lon="15.419621494422397"><ele>333.0</ele><time>2026-04-19T13:45:49Z</time></trkpt><trkpt lat="41.15742748572252" lon="15.419618998990355"><ele>333.0</ele><time>2026-04-19T13:46:01Z</time></trkpt><trkpt lat="41.15741950571902" lon="15.419314758708339"><ele>333.0</ele><time>2026-04-19T13:46:04Z</time></trkpt><trkpt lat="41.157415070619194" lon="15.419160981083381"><ele>333.0</ele><time>2026-04-19T13:46:05Z</time></trkpt><trkpt lat="41.15741916626482" lon="15.418968727887917"><ele>333.0</ele><time>2026-04-19T13:46:06Z</time></trkpt><trkpt lat="41.15743472482571" lon="15.41876787925498"><ele>333.0</ele><time>2026-04-19T13:46:07Z</time></trkpt><trkpt lat="41.157455388225635" lon="15.418556481389178"><ele>333.0</ele><time>2026-04-19T13:46:08Z</time></trkpt><trkpt lat="41.15747583129571" lon="15.418343588559111"><ele>333.0</ele><time>2026-04-19T13:46:09Z</time></trkpt><trkpt lat="41.15749334402257" lon="15.418113369883738"><ele>333.0</ele><time>2026-04-19T13:46:10Z</time></trkpt><trkpt lat="41.157514749019214" lon="15.417875024816274"><ele>333.3333333333333</ele><time>2026-04-19T13:46:11Z</time></trkpt><trkpt lat="41.15753670889497" lon="15.417639927215323"><ele>333.66666666666663</ele><time>2026-04-19T13:46:12.001Z</time></trkpt><trkpt lat="41.157556177121506" lon="15.417396619516069"><ele>334.0</ele><time>2026-04-19T13:46:13.001Z</time></trkpt><trkpt lat="41.1575779270876" lon="15.41715337551814"><ele>335.0</ele><time>2026-04-19T13:46:14.001Z</time></trkpt><trkpt lat="41.15760035787861" lon="15.416911638503977"><ele>336.0</ele><time>2026-04-19T13:46:15.001Z</time></trkpt><trkpt lat="41.157621376818135" lon="15.416675802536284"><ele>337.0</ele><time>2026-04-19T13:46:16.001Z</time></trkpt><trkpt lat="41.15763904860202" lon="15.416451559865475"><ele>337.66666666666663</ele><time>2026-04-19T13:46:17.001Z</time></trkpt><trkpt lat="41.15765830335595" lon="15.416236189357818"><ele>338.3333333333333</ele><time>2026-04-19T13:46:18.001Z</time></trkpt><trkpt lat="41.15767899027172" lon="15.41601892870528"><ele>339.0</ele><time>2026-04-19T13:46:19.001Z</time></trkpt><trkpt lat="41.157697396539334" lon="15.415799306007266"><ele>339.0</ele><time>2026-04-19T13:46:20.001Z</time></trkpt><trkpt lat="41.157715028498096" lon="15.415586305588276"><ele>339.0</ele><time>2026-04-19T13:46:21.001Z</time></trkpt><trkpt lat="41.157736850448984" lon="15.41535769308718"><ele>339.0</ele><time>2026-04-19T13:46:22.001Z</time></trkpt><trkpt lat="41.15776010973811" lon="15.415124257474107"><ele>339.6666666666667</ele><time>2026-04-19T13:46:23.001Z</time></trkpt><trkpt lat="41.15778328611339" lon="15.414880270551205"><ele>340.33333333333337</ele><time>2026-04-19T13:46:24.001Z</time></trkpt><trkpt lat="41.15780577376604" lon="15.41464120064737"><ele>341.0</ele><time>2026-04-19T13:46:25.001Z</time></trkpt><trkpt lat="41.15783000250455" lon="15.41439971248423"><ele>341.6666666666667</ele><time>2026-04-19T13:46:26.001Z</time></trkpt><trkpt lat="41.15785461828593" lon="15.414160303291556"><ele>342.3333333333333</ele><time>2026-04-19T13:46:27.001Z</time></trkpt><trkpt lat="41.157879819240875" lon="15.413918781118722"><ele>343.0</ele><time>2026-04-19T13:46:28.001Z</time></trkpt><trkpt lat="41.157903595746156" lon="15.413689594337297"><ele>344.0</ele><time>2026-04-19T13:46:29.001Z</time></trkpt><trkpt lat="41.15792578386516" lon="15.413451622343072"><ele>345.0</ele><time>2026-04-19T13:46:30Z</time></trkpt><trkpt lat="41.15794349090574" lon="15.413216954684502"><ele>346.0</ele><time>2026-04-19T13:46:31Z</time></trkpt><trkpt lat="41.157962753673274" lon="15.412988513801276"><ele>347.3333333333333</ele><time>2026-04-19T13:46:32Z</time></trkpt><trkpt lat="41.157987927160605" lon="15.412759612054797"><ele>348.6666666666667</ele><time>2026-04-19T13:46:33Z</time></trkpt><trkpt lat="41.15801164085083" lon="15.412537876406233"><ele>350.0</ele><time>2026-04-19T13:46:34Z</time></trkpt><trkpt lat="41.15803488297006" lon="15.412312493073028"><ele>352.0</ele><time>2026-04-19T13:46:35Z</time></trkpt><trkpt lat="41.15805401037555" lon="15.41209948822167"><ele>354.0</ele><time>2026-04-19T13:46:36Z</time></trkpt><trkpt lat="41.15807471663348" lon="15.411891209457481"><ele>356.0</ele><time>2026-04-19T13:46:37Z</time></trkpt><trkpt lat="41.1580961845847" lon="15.411688080757846"><ele>356.0</ele><time>2026-04-19T13:46:38Z</time></trkpt><trkpt lat="41.15811389790114" lon="15.41150962045835"><ele>356.0</ele><time>2026-04-19T13:46:39Z</time></trkpt><trkpt lat="41.15812872550149" lon="15.411340856612691"><ele>356.0</ele><time>2026-04-19T13:46:40Z</time></trkpt><trkpt lat="41.1581424792389" lon="15.41118966801236"><ele>356.0</ele><time>2026-04-19T13:46:41Z</time></trkpt><trkpt lat="41.15815556705454" lon="15.41105373326247"><ele>355.1666666666667</ele><time>2026-04-19T13:46:42Z</time></trkpt><trkpt lat="41.15817312690101" lon="15.410935355763895"><ele>354.33333333333337</ele><time>2026-04-19T13:46:43Z</time></trkpt><trkpt lat="41.15819775492319" lon="15.410850956650174"><ele>353.5</ele><time>2026-04-19T13:46:44Z</time></trkpt><trkpt lat="41.158254738247436" lon="15.410751661336738"><ele>352.6666666666667</ele><time>2026-04-19T13:46:46Z</time></trkpt><trkpt lat="41.158325595219615" lon="15.410753212448075"><ele>351.8333333333333</ele><time>2026-04-19T13:46:49Z</time></trkpt><trkpt lat="41.158394636547975" lon="15.410679136839326"><ele>351.0</ele><time>2026-04-19T13:48:05Z</time></trkpt><trkpt lat="41.15841730049168" lon="15.410598710549287"><ele>351.0</ele><time>2026-04-19T13:48:08Z</time></trkpt><trkpt lat="41.158372513322306" lon="15.410657503198907"><ele>351.0</ele><time>2026-04-19T14:05:44Z</time></trkpt><trkpt lat="41.15827625037526" lon="15.410654035085074"><ele>351.0</ele><time>2026-04-19T14:05:47.999Z</time></trkpt><trkpt lat="41.15819783501737" lon="15.410697152853771"><ele>351.0</ele><time>2026-04-19T14:05:52.999Z</time></trkpt><trkpt lat="41.15814519792212" lon="15.410776192058263"><ele>351.0</ele><time>2026-04-19T14:05:54.999Z</time></trkpt><trkpt lat="41.15814357535357" lon="15.41088678904538"><ele>351.0</ele><time>2026-04-19T14:05:56.999Z</time></trkpt><trkpt lat="41.15813068581665" lon="15.411019297869522"><ele>352.25</ele><time>2026-04-19T14:05:59.999Z</time></trkpt><trkpt lat="41.15812442888438" lon="15.41120031817046"><ele>353.5</ele><time>2026-04-19T14:06:01.999Z</time></trkpt><trkpt lat="41.15807002643942" lon="15.411336791974538"><ele>354.75</ele><time>2026-04-19T14:06:02.999Z</time></trkpt><trkpt lat="41.158053323395265" lon="15.41151232847827"><ele>356.0</ele><time>2026-04-19T14:06:03.999Z</time></trkpt><trkpt lat="41.15803366004076" lon="15.411716766938625"><ele>356.0</ele><time>2026-04-19T14:06:04.999Z</time></trkpt><trkpt lat="41.158010195875356" lon="15.411951361013209"><ele>356.0</ele><time>2026-04-19T14:06:05.999Z</time></trkpt><trkpt lat="41.157989436161856" lon="15.412158916390222"><ele>356.0</ele><time>2026-04-19T14:06:06.999Z</time></trkpt><trkpt lat="41.157970772286816" lon="15.41235310191946"><ele>354.0</ele><time>2026-04-19T14:06:07.999Z</time></trkpt><trkpt lat="41.15795037704421" lon="15.412565712153063"><ele>352.0</ele><time>2026-04-19T14:06:08.999Z</time></trkpt><trkpt lat="41.157923671983916" lon="15.41284294247496"><ele>350.0</ele><time>2026-04-19T14:06:09.999Z</time></trkpt><trkpt lat="41.15790431823473" lon="15.413043857463785"><ele>348.6666666666667</ele><time>2026-04-19T14:06:10.999Z</time></trkpt><trkpt lat="41.15788634388216" lon="15.413230452578983"><ele>347.3333333333333</ele><time>2026-04-19T14:06:11.999Z</time></trkpt><trkpt lat="41.15786800224353" lon="15.413420860523479"><ele>346.0</ele><time>2026-04-19T14:06:12.999Z</time></trkpt><trkpt lat="41.15784713836409" lon="15.413637452550851"><ele>346.0</ele><time>2026-04-19T14:06:13.999Z</time></trkpt><trkpt lat="41.157830218874956" lon="15.413813096700878"><ele>346.0</ele><time>2026-04-19T14:06:14.999Z</time></trkpt><trkpt lat="41.157814886302205" lon="15.413969502653151"><ele>346.0</ele><time>2026-04-19T14:06:15.999Z</time></trkpt><trkpt lat="41.157800435854234" lon="15.41411686858546"><ele>346.0</ele><time>2026-04-19T14:06:16.999Z</time></trkpt><trkpt lat="41.15778706416247" lon="15.414253233278083"><ele>345.25</ele><time>2026-04-19T14:06:17.999Z</time></trkpt><trkpt lat="41.15777392075904" lon="15.414391917825645"><ele>344.5</ele><time>2026-04-19T14:06:18.999Z</time></trkpt><trkpt lat="41.15775807323947" lon="15.414566802273505"><ele>343.75</ele><time>2026-04-19T14:06:19.999Z</time></trkpt><trkpt lat="41.15774105051059" lon="15.414754655859538"><ele>343.0</ele><time>2026-04-19T14:06:20.999Z</time></trkpt><trkpt lat="41.15772364257703" lon="15.414946760247544"><ele>342.5</ele><time>2026-04-19T14:06:21.999Z</time></trkpt><trkpt lat="41.15770794328686" lon="15.415121401725704"><ele>342.0</ele><time>2026-04-19T14:06:22.999Z</time></trkpt><trkpt lat="41.157693566426836" lon="15.415285306171473"><ele>341.5</ele><time>2026-04-19T14:06:23.999Z</time></trkpt><trkpt lat="41.157678086100226" lon="15.415461791193367"><ele>341.0</ele><time>2026-04-19T14:06:24.999Z</time></trkpt><trkpt lat="41.15766222132786" lon="15.415642658515294"><ele>340.5</ele><time>2026-04-19T14:06:25.999Z</time></trkpt><trkpt lat="41.157645714222305" lon="15.415830849134117"><ele>340.0</ele><time>2026-04-19T14:06:26.999Z</time></trkpt><trkpt lat="41.15762933315482" lon="15.416017602784"><ele>339.5</ele><time>2026-04-19T14:06:27.999Z</time></trkpt><trkpt lat="41.15761197717966" lon="15.416215471236802"><ele>339.0</ele><time>2026-04-19T14:06:28.999Z</time></trkpt><trkpt lat="41.15759402548736" lon="15.416420130783955"><ele>338.3333333333333</ele><time>2026-04-19T14:06:29.999Z</time></trkpt><trkpt lat="41.157575674678824" lon="15.416629340618318"><ele>337.66666666666663</ele><time>2026-04-19T14:06:30.999Z</time></trkpt><trkpt lat="41.15755701583862" lon="15.416844621777804"><ele>337.0</ele><time>2026-04-19T14:06:31.999Z</time></trkpt><trkpt lat="41.157538631612866" lon="15.417056911032699"><ele>336.0</ele><time>2026-04-19T14:06:32.999Z</time></trkpt><trkpt lat="41.15751968415902" lon="15.417273043479412"><ele>335.0</ele><time>2026-04-19T14:06:33.999Z</time></trkpt><trkpt lat="41.15749814679002" lon="15.417513858925043"><ele>334.0</ele><time>2026-04-19T14:06:34.999Z</time></trkpt><trkpt lat="41.15747872580654" lon="15.41773101095807"><ele>334.0</ele><time>2026-04-19T14:06:35.999Z</time></trkpt><trkpt lat="41.15746248351123" lon="15.41791091966978"><ele>334.0</ele><time>2026-04-19T14:06:36.999Z</time></trkpt><trkpt lat="41.15744659796714" lon="15.418086078804615"><ele>334.0</ele><time>2026-04-19T14:06:37.999Z</time></trkpt><trkpt lat="41.15743168119722" lon="15.418250555831928"><ele>334.0</ele><time>2026-04-19T14:06:38.999Z</time></trkpt><trkpt lat="41.15741795074591" lon="15.418401952283205"><ele>333.79999999999995</ele><time>2026-04-19T14:06:39.999Z</time></trkpt><trkpt lat="41.15740492425216" lon="15.4185422004335"><ele>333.59999999999997</ele><time>2026-04-19T14:06:40.999Z</time></trkpt><trkpt lat="41.15739159681633" lon="15.418677720492331"><ele>333.4</ele><time>2026-04-19T14:06:41.999Z</time></trkpt><trkpt lat="41.15737923409239" lon="15.41881151579138"><ele>333.2</ele><time>2026-04-19T14:06:42.999Z</time></trkpt><trkpt lat="41.1573693444093" lon="15.41894665439732"><ele>333.0</ele><time>2026-04-19T14:06:43.999Z</time></trkpt><trkpt lat="41.1573612436471" lon="15.419083452221273"><ele>333.0</ele><time>2026-04-19T14:06:44.999Z</time></trkpt><trkpt lat="41.15735726289334" lon="15.41922387724701"><ele>333.0</ele><time>2026-04-19T14:06:45.999Z</time></trkpt><trkpt lat="41.15736071273105" lon="15.419364848051208"><ele>333.0</ele><time>2026-04-19T14:06:46.999Z</time></trkpt><trkpt lat="41.157377314445164" lon="15.419494150094547"><ele>333.0</ele><time>2026-04-19T14:06:47.999Z</time></trkpt><trkpt lat="41.15741418317274" lon="15.41958412895406"><ele>333.0</ele><time>2026-04-19T14:06:48.999Z</time></trkpt><trkpt lat="41.15744362941243" lon="15.419728507628054"><ele>332.79999999999995</ele><time>2026-04-19T14:06:50.999Z</time></trkpt><trkpt lat="41.15749413550876" lon="15.419856558128089"><ele>332.6</ele><time>2026-04-19T14:06:53.999Z</time></trkpt><trkpt lat="41.15754704094526" lon="15.419934233251702"><ele>332.4</ele><time>2026-04-19T14:06:54.999Z</time></trkpt><trkpt lat="41.15760925424488" lon="15.41999236836752"><ele>332.20000000000005</ele><time>2026-04-19T14:06:55.999Z</time></trkpt><trkpt lat="41.157660422739625" lon="15.420042423102808"><ele>332.0</ele><time>2026-04-19T14:06:56.999Z</time></trkpt><trkpt lat="41.157891805108605" lon="15.419621329212841"><ele>332.0</ele><time>2026-04-19T14:06:57.999Z</time></trkpt><trkpt lat="41.15793460943615" lon="15.419489946392405"><ele>332.0</ele><time>2026-04-19T14:06:58.999Z</time></trkpt><trkpt lat="41.15801012704176" lon="15.419352292587023"><ele>332.0</ele><time>2026-04-19T14:06:59.999Z</time></trkpt><trkpt lat="41.158090057758585" lon="15.419258791495514"><ele>332.0</ele><time>2026-04-19T14:07:00.999Z</time></trkpt><trkpt lat="41.158158601230404" lon="15.419156045734313"><ele>332.0</ele><time>2026-04-19T14:07:01.999Z</time></trkpt><trkpt lat="41.15821443568914" lon="15.419079439056963"><ele>332.0</ele><time>2026-04-19T14:07:02.999Z</time></trkpt><trkpt lat="41.158270999744914" lon="15.419021855846504"><ele>332.0</ele><time>2026-04-19T14:07:03.999Z</time></trkpt><trkpt lat="41.158298070273005" lon="15.418946072342276"><ele>332.0</ele><time>2026-04-19T14:07:04.999Z</time></trkpt><trkpt lat="41.1583378004911" lon="15.418815699977461"><ele>332.0</ele><time>2026-04-19T14:07:06.999Z</time></trkpt><trkpt lat="41.158432290905594" lon="15.418798600210884"><ele>332.0</ele><time>2026-04-19T14:07:08.999Z</time></trkpt><trkpt lat="41.15849077727931" lon="15.418686819008308"><ele>332.0</ele><time>2026-04-19T14:07:10.999Z</time></trkpt><trkpt lat="41.15852948217602" lon="15.418583589640464"><ele>332.20000000000005</ele><time>2026-04-19T14:07:11.999Z</time></trkpt><trkpt lat="41.15858168454874" lon="15.418465417263375"><ele>332.4</ele><time>2026-04-19T14:07:12.999Z</time></trkpt><trkpt lat="41.15864634529209" lon="15.418336888494721"><ele>332.6</ele><time>2026-04-19T14:07:13.999Z</time></trkpt><trkpt lat="41.1587243538618" lon="15.418214189215641"><ele>332.79999999999995</ele><time>2026-04-19T14:07:14.999Z</time></trkpt><trkpt lat="41.15876368351401" lon="15.41811960861431"><ele>333.0</ele><time>2026-04-19T14:07:15.999Z</time></trkpt><trkpt lat="41.158787881965566" lon="15.418035906508551"><ele>333.3333333333333</ele><time>2026-04-19T14:07:16.999Z</time></trkpt><trkpt lat="41.15881784893776" lon="15.417957545464322"><ele>333.6666666666667</ele><time>2026-04-19T14:07:17.999Z</time></trkpt><trkpt lat="41.15884272086857" lon="15.417866495675709"><ele>334.0</ele><time>2026-04-19T14:07:18.999Z</time></trkpt><trkpt lat="41.15886703963286" lon="15.417761370766604"><ele>334.33333333333337</ele><time>2026-04-19T14:07:19.999Z</time></trkpt><trkpt lat="41.158872868762366" lon="15.41766476652706"><ele>334.6666666666667</ele><time>2026-04-19T14:07:20.999Z</time></trkpt><trkpt lat="41.15891604192236" lon="15.417558635590622"><ele>335.0</ele><time>2026-04-19T14:07:22.999Z</time></trkpt><trkpt lat="41.15896369651978" lon="15.417446105199357"><ele>335.0</ele><time>2026-04-19T14:07:24.999Z</time></trkpt><trkpt lat="41.158976733340666" lon="15.417344509864682"><ele>335.0</ele><time>2026-04-19T14:07:25.999Z</time></trkpt><trkpt lat="41.15901420021437" lon="15.417236305764686"><ele>335.0</ele><time>2026-04-19T14:07:26.999Z</time></trkpt><trkpt lat="41.159039057286144" lon="15.417133021595925"><ele>335.0</ele><time>2026-04-19T14:07:27.999Z</time></trkpt><trkpt lat="41.159079231607116" lon="15.416984567276968"><ele>335.0</ele><time>2026-04-19T14:07:29.999Z</time></trkpt><trkpt lat="41.15910698525837" lon="15.416874383125645"><ele>335.4</ele><time>2026-04-19T14:07:31.999Z</time></trkpt><trkpt lat="41.159097654454364" lon="15.41668390678057"><ele>335.8</ele><time>2026-04-19T14:07:33.999Z</time></trkpt><trkpt lat="41.15908783750039" lon="15.41656465871928"><ele>336.20000000000005</ele><time>2026-04-19T14:07:34.999Z</time></trkpt><trkpt lat="41.15908556754398" lon="15.416432627943633"><ele>336.6</ele><time>2026-04-19T14:07:35.999Z</time></trkpt><trkpt lat="41.15909495393102" lon="15.416305706978552"><ele>337.0</ele><time>2026-04-19T14:07:36.999Z</time></trkpt><trkpt lat="41.15911368237251" lon="15.416166579879887"><ele>337.0</ele><time>2026-04-19T14:07:37.999Z</time></trkpt><trkpt lat="41.15914254486426" lon="15.415991428814174"><ele>337.0</ele><time>2026-04-19T14:07:38.999Z</time></trkpt><trkpt lat="41.15917439239596" lon="15.415854491040408"><ele>337.0</ele><time>2026-04-19T14:07:39.999Z</time></trkpt><trkpt lat="41.15921753091715" lon="15.415770611940498"><ele>337.0</ele><time>2026-04-19T14:07:40.999Z</time></trkpt><trkpt lat="41.159293046575364" lon="15.415676249986848"><ele>337.0</ele><time>2026-04-19T14:07:41.999Z</time></trkpt><trkpt lat="41.159360422230286" lon="15.415566747337714"><ele>337.40000000000003</ele><time>2026-04-19T14:07:42.999Z</time></trkpt><trkpt lat="41.15938884864611" lon="15.415470278052222"><ele>337.8</ele><time>2026-04-19T14:07:43.999Z</time></trkpt><trkpt lat="41.15941754891305" lon="15.415338764984396"><ele>338.2</ele><time>2026-04-19T14:07:44.999Z</time></trkpt><trkpt lat="41.15944809630474" lon="15.415170034515478"><ele>338.6</ele><time>2026-04-19T14:07:45.999Z</time></trkpt><trkpt lat="41.1594901115024" lon="15.41502371507854"><ele>339.0</ele><time>2026-04-19T14:07:46.999Z</time></trkpt><trkpt lat="41.15953819825023" lon="15.414899093867207"><ele>339.0</ele><time>2026-04-19T14:07:47.999Z</time></trkpt><trkpt lat="41.15958054214412" lon="15.414766427374493"><ele>339.0</ele><time>2026-04-19T14:07:48.999Z</time></trkpt><trkpt lat="41.159616437423544" lon="15.41461247012297"><ele>339.0</ele><time>2026-04-19T14:07:49.999Z</time></trkpt><trkpt lat="41.159645292327426" lon="15.414453412687855"><ele>339.0</ele><time>2026-04-19T14:07:50.999Z</time></trkpt><trkpt lat="41.15966729343841" lon="15.414292693229402"><ele>339.0</ele><time>2026-04-19T14:07:51.999Z</time></trkpt><trkpt lat="41.15968809167426" lon="15.414158617683304"><ele>339.0</ele><time>2026-04-19T14:07:52.999Z</time></trkpt><trkpt lat="41.15970768695932" lon="15.414005244880881"><ele>339.0</ele><time>2026-04-19T14:07:53.999Z</time></trkpt><trkpt lat="41.15972280353309" lon="15.413854237479544"><ele>339.0</ele><time>2026-04-19T14:07:54.999Z</time></trkpt><trkpt lat="41.15973465084863" lon="15.41368204085152"><ele>339.5</ele><time>2026-04-19T14:07:55.999Z</time></trkpt><trkpt lat="41.15974779504458" lon="15.413506989430681"><ele>340.0</ele><time>2026-04-19T14:07:56.999Z</time></trkpt><trkpt lat="41.15976444695048" lon="15.41332665646976"><ele>340.5</ele><time>2026-04-19T14:07:57.999Z</time></trkpt><trkpt lat="41.15976948252665" lon="15.413141450884432"><ele>341.0</ele><time>2026-04-19T14:07:58.999Z</time></trkpt><trkpt lat="41.15976838179047" lon="15.412962165571216"><ele>341.4</ele><time>2026-04-19T14:07:59.999Z</time></trkpt><trkpt lat="41.15977086265483" lon="15.412799654991744"><ele>341.8</ele><time>2026-04-19T14:08:00.999Z</time></trkpt><trkpt lat="41.15978009257592" lon="15.41267437304935"><ele>342.2</ele><time>2026-04-19T14:08:01.999Z</time></trkpt><trkpt lat="41.15978718019625" lon="15.41256579725529"><ele>342.59999999999997</ele><time>2026-04-19T14:08:02.999Z</time></trkpt><trkpt lat="41.15979161859401" lon="15.412441809049371"><ele>343.0</ele><time>2026-04-19T14:08:03.999Z</time></trkpt><trkpt lat="41.15980621078468" lon="15.41231533934012"><ele>343.0</ele><time>2026-04-19T14:08:04.999Z</time></trkpt><trkpt lat="41.15980835747088" lon="15.412222033355127"><ele>343.0</ele><time>2026-04-19T14:08:05.999Z</time></trkpt><trkpt lat="41.15978361356971" lon="15.412125112160135"><ele>343.0</ele><time>2026-04-19T14:08:06.999Z</time></trkpt><trkpt lat="41.15973869659945" lon="15.411999914976958"><ele>343.0</ele><time>2026-04-19T14:08:07.999Z</time></trkpt><trkpt lat="41.15969387987786" lon="15.41185910036948"><ele>343.0</ele><time>2026-04-19T14:08:08.999Z</time></trkpt><trkpt lat="41.15964505316174" lon="15.411679147446103"><ele>343.25</ele><time>2026-04-19T14:08:09.999Z</time></trkpt><trkpt lat="41.1596072078395" lon="15.411490862155146"><ele>343.5</ele><time>2026-04-19T14:08:10.999Z</time></trkpt><trkpt lat="41.15957408979874" lon="15.411349974040968"><ele>343.75</ele><time>2026-04-19T14:08:11.999Z</time></trkpt><trkpt lat="41.15954811246646" lon="15.411223553538298"><ele>344.0</ele><time>2026-04-19T14:08:12.999Z</time></trkpt><trkpt lat="41.159510539957374" lon="15.411077672016983"><ele>344.5</ele><time>2026-04-19T14:08:13.999Z</time></trkpt><trkpt lat="41.159472774148846" lon="15.410928663951694"><ele>345.0</ele><time>2026-04-19T14:08:14.999Z</time></trkpt><trkpt lat="41.159438605522105" lon="15.410775976125128"><ele>345.5</ele><time>2026-04-19T14:08:15.999Z</time></trkpt><trkpt lat="41.15940792811333" lon="15.410618846134613"><ele>346.0</ele><time>2026-04-19T14:08:16.999Z</time></trkpt><trkpt lat="41.1593710205196" lon="15.4104501555243"><ele>346.75</ele><time>2026-04-19T14:08:17.999Z</time></trkpt><trkpt lat="41.15933410181413" lon="15.41027499630769"><ele>347.5</ele><time>2026-04-19T14:08:18.999Z</time></trkpt><trkpt lat="41.15929539984042" lon="15.410101676975673"><ele>348.25</ele><time>2026-04-19T14:08:19.999Z</time></trkpt><trkpt lat="41.159260979111316" lon="15.409951554515423"><ele>349.0</ele><time>2026-04-19T14:08:20.999Z</time></trkpt><trkpt lat="41.1592266497265" lon="15.40978952590025"><ele>350.0</ele><time>2026-04-19T14:08:21.999Z</time></trkpt><trkpt lat="41.15919284278203" lon="15.409627811737588"><ele>351.0</ele><time>2026-04-19T14:08:22.999Z</time></trkpt><trkpt lat="41.15916103299597" lon="15.40946826797028"><ele>352.0</ele><time>2026-04-19T14:08:23.999Z</time></trkpt><trkpt lat="41.159123460408466" lon="15.409319169247038"><ele>353.0</ele><time>2026-04-19T14:08:24.999Z</time></trkpt><trkpt lat="41.159086654258914" lon="15.409155204150826"><ele>353.0</ele><time>2026-04-19T14:08:25.999Z</time></trkpt><trkpt lat="41.15905497703264" lon="15.409001861436472"><ele>353.0</ele><time>2026-04-19T14:08:26.999Z</time></trkpt><trkpt lat="41.15902582873535" lon="15.408851028296645"><ele>353.0</ele><time>2026-04-19T14:08:27.999Z</time></trkpt><trkpt lat="41.158986694572334" lon="15.408708072863691"><ele>353.0</ele><time>2026-04-19T14:08:28.999Z</time></trkpt><trkpt lat="41.15895432289773" lon="15.408567308483475"><ele>354.59999999999997</ele><time>2026-04-19T14:08:29.999Z</time></trkpt><trkpt lat="41.15892244045986" lon="15.408423885847775"><ele>356.2</ele><time>2026-04-19T14:08:30.999Z</time></trkpt><trkpt lat="41.158888678478306" lon="15.408279438448668"><ele>357.8</ele><time>2026-04-19T14:08:31.999Z</time></trkpt><trkpt lat="41.15885851105642" lon="15.408142829532215"><ele>359.4</ele><time>2026-04-19T14:08:32.999Z</time></trkpt><trkpt lat="41.15883275903484" lon="15.40802083034855"><ele>361.0</ele><time>2026-04-19T14:08:33.999Z</time></trkpt><trkpt lat="41.15880580369239" lon="15.407899488134328"><ele>362.20000000000005</ele><time>2026-04-19T14:08:34.999Z</time></trkpt><trkpt lat="41.158784897381835" lon="15.407820444227003"><ele>363.40000000000003</ele><time>2026-04-19T14:08:35.999Z</time></trkpt><trkpt lat="41.15874040599364" lon="15.407703974720981"><ele>364.6</ele><time>2026-04-19T14:08:37.999Z</time></trkpt><trkpt lat="41.15870043171399" lon="15.407559597851547"><ele>365.8</ele><time>2026-04-19T14:08:39.999Z</time></trkpt><trkpt lat="41.15867083541175" lon="15.407452703704244"><ele>367.0</ele><time>2026-04-19T14:08:41.999Z</time></trkpt><trkpt lat="41.15864821182322" lon="15.407319902210487"><ele>367.0</ele><time>2026-04-19T14:08:43.999Z</time></trkpt><trkpt lat="41.15865812762156" lon="15.407224428638806"><ele>367.0</ele><time>2026-04-19T14:08:44.999Z</time></trkpt><trkpt lat="41.158668221894196" lon="15.40707262647109"><ele>367.0</ele><time>2026-04-19T14:08:46.999Z</time></trkpt><trkpt lat="41.15869345692673" lon="15.406961156063309"><ele>367.0</ele><time>2026-04-19T14:08:47.999Z</time></trkpt><trkpt lat="41.158723567440006" lon="15.406815326172161"><ele>367.0</ele><time>2026-04-19T14:08:48.999Z</time></trkpt><trkpt lat="41.15875592077429" lon="15.406661152467711"><ele>367.5</ele><time>2026-04-19T14:08:49.999Z</time></trkpt><trkpt lat="41.15879148705386" lon="15.406561604369148"><ele>368.0</ele><time>2026-04-19T14:08:50.999Z</time></trkpt><trkpt lat="41.15881052317203" lon="15.406422332870315"><ele>368.5</ele><time>2026-04-19T14:08:52.999Z</time></trkpt><trkpt lat="41.158828772517786" lon="15.406321605355002"><ele>369.0</ele><time>2026-04-19T14:08:53.999Z</time></trkpt><trkpt lat="41.15885337965552" lon="15.406224793167887"><ele>369.5</ele><time>2026-04-19T14:08:54.999Z</time></trkpt><trkpt lat="41.15888048233367" lon="15.406131383499117"><ele>370.0</ele><time>2026-04-19T14:08:55.999Z</time></trkpt><trkpt lat="41.15890913884904" lon="15.406040559403095"><ele>368.0</ele><time>2026-04-19T14:08:56.999Z</time></trkpt><trkpt lat="41.15931966985979" lon="15.406061698487749"><ele>366.0</ele><time>2026-04-19T14:08:57.999Z</time></trkpt><trkpt lat="41.159391337295496" lon="15.406017006721148"><ele>366.0</ele><time>2026-04-19T14:08:58.999Z</time></trkpt><trkpt lat="41.15949485066634" lon="15.405965689587907"><ele>366.0</ele><time>2026-04-19T14:09:00.999Z</time></trkpt><trkpt lat="41.15957041361946" lon="15.405947095208521"><ele>366.0</ele><time>2026-04-19T14:09:03.999Z</time></trkpt><trkpt lat="41.159644641702634" lon="15.405917407914874"><ele>366.0</ele><time>2026-04-19T14:09:06.999Z</time></trkpt><trkpt lat="41.1597098386922" lon="15.405883279624984"><ele>366.0</ele><time>2026-04-19T14:09:09.999Z</time></trkpt><trkpt lat="41.15979990179708" lon="15.405833475546515"><ele>366.0</ele><time>2026-04-19T14:09:12.999Z</time></trkpt><trkpt lat="41.15986221767235" lon="15.405800708319957"><ele>364.6666666666667</ele><time>2026-04-19T14:09:15.999Z</time></trkpt><trkpt lat="41.15992875378162" lon="15.405773610697299"><ele>363.3333333333333</ele><time>2026-04-19T14:09:23.999Z</time></trkpt><trkpt lat="41.15998474598977" lon="15.405734064434698"><ele>362.0</ele><time>2026-04-19T14:09:26.999Z</time></trkpt><trkpt lat="41.160046895355755" lon="15.405663656391365"><ele>360.66666666666663</ele><time>2026-04-19T14:09:29.999Z</time></trkpt><trkpt lat="41.16010163071546" lon="15.405621663308132"><ele>359.3333333333333</ele><time>2026-04-19T14:09:32.999Z</time></trkpt><trkpt lat="41.16019204353724" lon="15.405537282894514"><ele>358.0</ele><time>2026-04-19T14:09:36.999Z</time></trkpt><trkpt lat="41.160294961146775" lon="15.405484306311653"><ele>357.8333333333333</ele><time>2026-04-19T14:09:38.999Z</time></trkpt><trkpt lat="41.160372680914854" lon="15.405439109955488"><ele>357.66666666666663</ele><time>2026-04-19T14:09:41.999Z</time></trkpt><trkpt lat="41.16044635106228" lon="15.405441868472272"><ele>357.5</ele><time>2026-04-19T14:09:43.999Z</time></trkpt><trkpt lat="41.16052208872677" lon="15.405450633088135"><ele>357.3333333333333</ele><time>2026-04-19T14:09:46.999Z</time></trkpt><trkpt lat="41.16060396464503" lon="15.405427924326519"><ele>357.1666666666667</ele><time>2026-04-19T14:09:49.999Z</time></trkpt><trkpt lat="41.1606834874257" lon="15.405372896075352"><ele>357.0</ele><time>2026-04-19T14:09:52.999Z</time></trkpt><trkpt lat="41.16072488888824" lon="15.405304058146571"><ele>356.8333333333333</ele><time>2026-04-19T14:09:53.999Z</time></trkpt><trkpt lat="41.16076340660679" lon="15.405207090413631"><ele>356.6666666666667</ele><time>2026-04-19T14:09:54.999Z</time></trkpt><trkpt lat="41.16079421682434" lon="15.405111446542463"><ele>356.5</ele><time>2026-04-19T14:09:55.999Z</time></trkpt><trkpt lat="41.160844785124276" lon="15.404986025073343"><ele>356.33333333333337</ele><time>2026-04-19T14:09:57.999Z</time></trkpt><trkpt lat="41.160897879038934" lon="15.404911881985363"><ele>356.1666666666667</ele><time>2026-04-19T14:09:59.999Z</time></trkpt><trkpt lat="41.16092378204617" lon="15.404824510330682"><ele>356.0</ele><time>2026-04-19T14:10:01.999Z</time></trkpt><trkpt lat="41.16092448432886" lon="15.404730330532361"><ele>355.83333333333337</ele><time>2026-04-19T14:10:03.999Z</time></trkpt><trkpt lat="41.160940684008146" lon="15.404624941547485"><ele>355.6666666666667</ele><time>2026-04-19T14:10:05.999Z</time></trkpt><trkpt lat="41.16103024994554" lon="15.404610280461728"><ele>355.5</ele><time>2026-04-19T14:10:07.999Z</time></trkpt><trkpt lat="41.16104863936859" lon="15.404494655261004"><ele>355.3333333333333</ele><time>2026-04-19T14:10:10.999Z</time></trkpt><trkpt lat="41.161104885033446" lon="15.404385710036932"><ele>355.16666666666663</ele><time>2026-04-19T14:10:12.999Z</time></trkpt><trkpt lat="41.16112046701675" lon="15.404293527172653"><ele>355.0</ele><time>2026-04-19T14:10:13.999Z</time></trkpt><trkpt lat="41.16114289376241" lon="15.40416709010528"><ele>355.0</ele><time>2026-04-19T14:10:14.999Z</time></trkpt><trkpt lat="41.16119579232362" lon="15.403974755226905"><ele>355.0</ele><time>2026-04-19T14:10:15.999Z</time></trkpt><trkpt lat="41.16123729915804" lon="15.403771800141692"><ele>355.0</ele><time>2026-04-19T14:10:16.999Z</time></trkpt><trkpt lat="41.161249382643234" lon="15.403617595465821"><ele>355.0</ele><time>2026-04-19T14:10:17.999Z</time></trkpt><trkpt lat="41.161259975255696" lon="15.403451074839138"><ele>355.25</ele><time>2026-04-19T14:10:18.999Z</time></trkpt><trkpt lat="41.16129602859997" lon="15.40328639220069"><ele>355.5</ele><time>2026-04-19T14:10:19.999Z</time></trkpt><trkpt lat="41.16134079280427" lon="15.403112610486252"><ele>355.75</ele><time>2026-04-19T14:10:20.999Z</time></trkpt><trkpt lat="41.1613439571833" lon="15.402916287169964"><ele>356.0</ele><time>2026-04-19T14:10:21.999Z</time></trkpt><trkpt lat="41.16132207843277" lon="15.402722654355568"><ele>356.5</ele><time>2026-04-19T14:10:22.999Z</time></trkpt><trkpt lat="41.1613211116252" lon="15.402561533285892"><ele>357.0</ele><time>2026-04-19T14:10:23.999Z</time></trkpt><trkpt lat="41.16134589196568" lon="15.40239504247633"><ele>357.5</ele><time>2026-04-19T14:10:24.999Z</time></trkpt><trkpt lat="41.16136695660315" lon="15.40222525002063"><ele>358.0</ele><time>2026-04-19T14:10:25.999Z</time></trkpt><trkpt lat="41.16137189286544" lon="15.40207859719791"><ele>358.25</ele><time>2026-04-19T14:10:26.999Z</time></trkpt><trkpt lat="41.16134826222515" lon="15.401941418034633"><ele>358.5</ele><time>2026-04-19T14:10:27.999Z</time></trkpt><trkpt lat="41.161318593334016" lon="15.401749525492056"><ele>358.75</ele><time>2026-04-19T14:10:28.999Z</time></trkpt><trkpt lat="41.16129828173138" lon="15.401527737022498"><ele>359.0</ele><time>2026-04-19T14:10:29.999Z</time></trkpt><trkpt lat="41.161267462022664" lon="15.401298475802655"><ele>359.0</ele><time>2026-04-19T14:10:30.999Z</time></trkpt><trkpt lat="41.161235244429186" lon="15.401122551721713"><ele>359.0</ele><time>2026-04-19T14:10:31.999Z</time></trkpt><trkpt lat="41.16119996146445" lon="15.40098020068606"><ele>359.0</ele><time>2026-04-19T14:10:32.999Z</time></trkpt><trkpt lat="41.16116921024912" lon="15.400851342346318"><ele>359.0</ele><time>2026-04-19T14:10:33.999Z</time></trkpt><trkpt lat="41.16113384774936" lon="15.400731127203914"><ele>359.0</ele><time>2026-04-19T14:10:34.999Z</time></trkpt><trkpt lat="41.161092438602545" lon="15.400633104184315"><ele>359.0</ele><time>2026-04-19T14:10:35.999Z</time></trkpt><trkpt lat="41.16106343094278" lon="15.40054170567315"><ele>359.0</ele><time>2026-04-19T14:10:36.999Z</time></trkpt><trkpt lat="41.161033530597614" lon="15.400428661721662"><ele>359.0</ele><time>2026-04-19T14:10:37.999Z</time></trkpt><trkpt lat="41.16099974329542" lon="15.400306334025652"><ele>359.0</ele><time>2026-04-19T14:10:38.999Z</time></trkpt><trkpt lat="41.16096959702901" lon="15.400168399255787"><ele>359.0</ele><time>2026-04-19T14:10:39.999Z</time></trkpt><trkpt lat="41.16094684912048" lon="15.400043462629453"><ele>359.6</ele><time>2026-04-19T14:10:40.999Z</time></trkpt><trkpt lat="41.16090450391711" lon="15.399921991028965"><ele>360.2</ele><time>2026-04-19T14:10:41.999Z</time></trkpt><trkpt lat="41.16086862991978" lon="15.399792791310984"><ele>360.8</ele><time>2026-04-19T14:10:42.999Z</time></trkpt><trkpt lat="41.16083355407257" lon="15.399649863992728"><ele>361.40000000000003</ele><time>2026-04-19T14:10:43.999Z</time></trkpt><trkpt lat="41.16080938499861" lon="15.39950966537855"><ele>362.0</ele><time>2026-04-19T14:10:44.999Z</time></trkpt><trkpt lat="41.160787497248364" lon="15.399367317222481"><ele>362.40000000000003</ele><time>2026-04-19T14:10:45.999Z</time></trkpt><trkpt lat="41.160783652997225" lon="15.399241486975708"><ele>362.8</ele><time>2026-04-19T14:10:46.999Z</time></trkpt><trkpt lat="41.1607949441691" lon="15.39911073061154"><ele>363.2</ele><time>2026-04-19T14:10:47.999Z</time></trkpt><trkpt lat="41.16082481959264" lon="15.398973676179269"><ele>363.6</ele><time>2026-04-19T14:10:48.999Z</time></trkpt><trkpt lat="41.160859051769144" lon="15.398826422911752"><ele>364.0</ele><time>2026-04-19T14:10:49.999Z</time></trkpt><trkpt lat="41.160897689543" lon="15.398700099371652"><ele>364.16666666666663</ele><time>2026-04-19T14:10:50.999Z</time></trkpt><trkpt lat="41.1609373332606" lon="15.398585000841564"><ele>364.3333333333333</ele><time>2026-04-19T14:10:51.999Z</time></trkpt><trkpt lat="41.160992326233746" lon="15.398485318663994"><ele>364.5</ele><time>2026-04-19T14:10:52.999Z</time></trkpt><trkpt lat="41.16099036489736" lon="15.398351094497015"><ele>364.6666666666667</ele><time>2026-04-19T14:10:53.999Z</time></trkpt><trkpt lat="41.160975451456416" lon="15.398245270631191"><ele>364.83333333333337</ele><time>2026-04-19T14:10:54.999Z</time></trkpt><trkpt lat="41.1609360332398" lon="15.398154367381593"><ele>365.0</ele><time>2026-04-19T14:10:55.999Z</time></trkpt><trkpt lat="41.16089479620817" lon="15.398080909876452"><ele>365.0</ele><time>2026-04-19T14:10:56.999Z</time></trkpt><trkpt lat="41.160829282244784" lon="15.398021389315584"><ele>365.0</ele><time>2026-04-19T14:10:57.999Z</time></trkpt><trkpt lat="41.160752241371824" lon="15.39794204353801"><ele>365.0</ele><time>2026-04-19T14:10:58.999Z</time></trkpt><trkpt lat="41.16064984124915" lon="15.397859312105682"><ele>365.0</ele><time>2026-04-19T14:10:59.999Z</time></trkpt><trkpt lat="41.16053717734149" lon="15.397830877984054"><ele>365.0</ele><time>2026-04-19T14:11:00.999Z</time></trkpt><trkpt lat="41.16042443095427" lon="15.397789379178162"><ele>367.8</ele><time>2026-04-19T14:11:01.999Z</time></trkpt><trkpt lat="41.160302547685326" lon="15.397750516835089"><ele>370.6</ele><time>2026-04-19T14:11:02.999Z</time></trkpt><trkpt lat="41.160213504107126" lon="15.397699145130641"><ele>373.4</ele><time>2026-04-19T14:11:03.999Z</time></trkpt><trkpt lat="41.160135712860395" lon="15.39764376551989"><ele>376.2</ele><time>2026-04-19T14:11:04.999Z</time></trkpt><trkpt lat="41.1600459671587" lon="15.397572662173802"><ele>379.0</ele><time>2026-04-19T14:11:05.999Z</time></trkpt><trkpt lat="41.1599260147953" lon="15.397494287667477"><ele>382.0</ele><time>2026-04-19T14:11:06.999Z</time></trkpt><trkpt lat="41.159778396164654" lon="15.397417448601436"><ele>385.0</ele><time>2026-04-19T14:11:07.999Z</time></trkpt><trkpt lat="41.159650024516225" lon="15.397295617777466"><ele>388.0</ele><time>2026-04-19T14:11:08.999Z</time></trkpt><trkpt lat="41.159546451097" lon="15.39720697083938"><ele>391.0</ele><time>2026-04-19T14:11:09.999Z</time></trkpt><trkpt lat="41.159464470261824" lon="15.397131232854566"><ele>391.6</ele><time>2026-04-19T14:11:10.999Z</time></trkpt><trkpt lat="41.15940464455417" lon="15.397071118126311"><ele>392.20000000000005</ele><time>2026-04-19T14:11:11.999Z</time></trkpt><trkpt lat="41.1593429885946" lon="15.397022283496552"><ele>392.79999999999995</ele><time>2026-04-19T14:11:13.999Z</time></trkpt><trkpt lat="41.15935244894717" lon="15.396844704587695"><ele>393.4</ele><time>2026-04-19T14:11:16.999Z</time></trkpt><trkpt lat="41.15936232361931" lon="15.396720444298182"><ele>394.0</ele><time>2026-04-19T14:11:17.999Z</time></trkpt><trkpt lat="41.15939286601669" lon="15.396571622294944"><ele>394.0</ele><time>2026-04-19T14:11:18.999Z</time></trkpt><trkpt lat="41.159430430508614" lon="15.396408270142471"><ele>394.0</ele><time>2026-04-19T14:11:19.999Z</time></trkpt><trkpt lat="41.159475137746824" lon="15.396205340442963"><ele>394.0</ele><time>2026-04-19T14:11:20.999Z</time></trkpt><trkpt lat="41.159525878476934" lon="15.395979523311976"><ele>396.33333333333337</ele><time>2026-04-19T14:11:21.999Z</time></trkpt><trkpt lat="41.159580088517224" lon="15.39574134977077"><ele>398.66666666666663</ele><time>2026-04-19T14:11:23Z</time></trkpt><trkpt lat="41.15962575700929" lon="15.395535501464769"><ele>401.0</ele><time>2026-04-19T14:11:24Z</time></trkpt><trkpt lat="41.15966445737635" lon="15.395370194530406"><ele>401.25</ele><time>2026-04-19T14:11:25Z</time></trkpt><trkpt lat="41.159708683466086" lon="15.395184817719596"><ele>401.5</ele><time>2026-04-19T14:11:26Z</time></trkpt><trkpt lat="41.1597536025409" lon="15.395001925150627"><ele>401.75</ele><time>2026-04-19T14:11:27Z</time></trkpt><trkpt lat="41.15979494682132" lon="15.394821270203028"><ele>402.0</ele><time>2026-04-19T14:11:28Z</time></trkpt><trkpt lat="41.15983756941128" lon="15.394640263819"><ele>400.25</ele><time>2026-04-19T14:11:29Z</time></trkpt><trkpt lat="41.159878448811284" lon="15.394464904984217"><ele>398.5</ele><time>2026-04-19T14:11:30Z</time></trkpt><trkpt lat="41.15991425307887" lon="15.394287319481242"><ele>396.75</ele><time>2026-04-19T14:11:31Z</time></trkpt><trkpt lat="41.15993912954317" lon="15.394112824209863"><ele>395.0</ele><time>2026-04-19T14:11:32Z</time></trkpt><trkpt lat="41.15995245207921" lon="15.393933741032761"><ele>395.0</ele><time>2026-04-19T14:11:33Z</time></trkpt><trkpt lat="41.15995693407035" lon="15.393743303239106"><ele>395.0</ele><time>2026-04-19T14:11:34Z</time></trkpt><trkpt lat="41.15995544508511" lon="15.393546804383393"><ele>395.0</ele><time>2026-04-19T14:11:35Z</time></trkpt><trkpt lat="41.15995366831825" lon="15.393351608726752"><ele>395.0</ele><time>2026-04-19T14:11:36Z</time></trkpt><trkpt lat="41.15995176637898" lon="15.393157323975535"><ele>395.3333333333333</ele><time>2026-04-19T14:11:37Z</time></trkpt><trkpt lat="41.15995381816648" lon="15.392944118396297"><ele>395.66666666666663</ele><time>2026-04-19T14:11:38Z</time></trkpt><trkpt lat="41.159960554961565" lon="15.392733522242334"><ele>396.0</ele><time>2026-04-19T14:11:39Z</time></trkpt><trkpt lat="41.1599778064442" lon="15.392543294252135"><ele>396.0</ele><time>2026-04-19T14:11:40Z</time></trkpt><trkpt lat="41.159999577206435" lon="15.392382768494315"><ele>396.0</ele><time>2026-04-19T14:11:41Z</time></trkpt><trkpt lat="41.160029944867496" lon="15.392231853292284"><ele>396.0</ele><time>2026-04-19T14:11:42Z</time></trkpt><trkpt lat="41.160066275051385" lon="15.392075873393663"><ele>396.0</ele><time>2026-04-19T14:11:43Z</time></trkpt><trkpt lat="41.16010336107377" lon="15.391912392976671"><ele>397.25</ele><time>2026-04-19T14:11:44Z</time></trkpt><trkpt lat="41.16014763236508" lon="15.391742959448344"><ele>398.5</ele><time>2026-04-19T14:11:45Z</time></trkpt><trkpt lat="41.16020079766698" lon="15.391575950611562"><ele>399.75</ele><time>2026-04-19T14:11:46Z</time></trkpt><trkpt lat="41.16026388956824" lon="15.39141616807496"><ele>401.0</ele><time>2026-04-19T14:11:47Z</time></trkpt><trkpt lat="41.16033575355337" lon="15.391258153950675"><ele>403.0</ele><time>2026-04-19T14:11:48Z</time></trkpt><trkpt lat="41.16040750476896" lon="15.391094478387917"><ele>405.0</ele><time>2026-04-19T14:11:49Z</time></trkpt><trkpt lat="41.16048219381792" lon="15.390935800674166"><ele>407.0</ele><time>2026-04-19T14:11:50Z</time></trkpt><trkpt lat="41.1605514478278" lon="15.390777487052711"><ele>409.0</ele><time>2026-04-19T14:11:51Z</time></trkpt><trkpt lat="41.160631286814436" lon="15.390603373174267"><ele>405.0</ele><time>2026-04-19T14:11:52Z</time></trkpt><trkpt lat="41.16071345907313" lon="15.390426131527576"><ele>401.0</ele><time>2026-04-19T14:11:53Z</time></trkpt><trkpt lat="41.160798238264945" lon="15.390241940641603"><ele>397.0</ele><time>2026-04-19T14:11:54Z</time></trkpt><trkpt lat="41.160864816026184" lon="15.390080904240504"><ele>397.0</ele><time>2026-04-19T14:11:55Z</time></trkpt><trkpt lat="41.160924045789656" lon="15.38992081707659"><ele>397.0</ele><time>2026-04-19T14:11:56Z</time></trkpt><trkpt lat="41.16098202287721" lon="15.389759272755567"><ele>397.0</ele><time>2026-04-19T14:11:57Z</time></trkpt><trkpt lat="41.16104400568792" lon="15.389588243689923"><ele>397.0</ele><time>2026-04-19T14:11:58Z</time></trkpt><trkpt lat="41.161105008040785" lon="15.389421944210175"><ele>397.33333333333337</ele><time>2026-04-19T14:11:59Z</time></trkpt><trkpt lat="41.16117100187132" lon="15.389246716463028"><ele>397.66666666666663</ele><time>2026-04-19T14:12:00Z</time></trkpt><trkpt lat="41.16125408802013" lon="15.389041470992607"><ele>398.0</ele><time>2026-04-19T14:12:01Z</time></trkpt><trkpt lat="41.16134897033779" lon="15.388834709714413"><ele>398.0</ele><time>2026-04-19T14:12:02Z</time></trkpt><trkpt lat="41.16146116362399" lon="15.388659226921215"><ele>398.0</ele><time>2026-04-19T14:12:03Z</time></trkpt><trkpt lat="41.16159608205347" lon="15.388489601849733"><ele>398.0</ele><time>2026-04-19T14:12:04Z</time></trkpt><trkpt lat="41.16174776364791" lon="15.38832147651234"><ele>394.3333333333333</ele><time>2026-04-19T14:12:05Z</time></trkpt><trkpt lat="41.1618760338761" lon="15.388182960286526"><ele>390.66666666666663</ele><time>2026-04-19T14:12:05.999Z</time></trkpt><trkpt lat="41.16199413775002" lon="15.38806011960961"><ele>387.0</ele><time>2026-04-19T14:12:06.999Z</time></trkpt><trkpt lat="41.1621011165526" lon="15.387951036074588"><ele>387.0</ele><time>2026-04-19T14:12:07.999Z</time></trkpt><trkpt lat="41.162199126322605" lon="15.387849195298138"><ele>387.0</ele><time>2026-04-19T14:12:08.999Z</time></trkpt><trkpt lat="41.16229089374769" lon="15.387752721233284"><ele>387.0</ele><time>2026-04-19T14:12:09.999Z</time></trkpt><trkpt lat="41.16237384268312" lon="15.387662998514273"><ele>387.0</ele><time>2026-04-19T14:12:10.999Z</time></trkpt><trkpt lat="41.162445563720055" lon="15.387577210017492"><ele>387.0</ele><time>2026-04-19T14:12:11.999Z</time></trkpt><trkpt lat="41.1625098120056" lon="15.38749836568373"><ele>388.6666666666667</ele><time>2026-04-19T14:12:12.999Z</time></trkpt><trkpt lat="41.16256395114096" lon="15.38742722097234"><ele>390.33333333333337</ele><time>2026-04-19T14:12:13.999Z</time></trkpt><trkpt lat="41.16264806674411" lon="15.387364896926178"><ele>392.0</ele><time>2026-04-19T14:12:15.999Z</time></trkpt><trkpt lat="41.16265799291137" lon="15.387487798536657"><ele>393.6666666666667</ele><time>2026-04-19T14:12:17.999Z</time></trkpt><trkpt lat="41.16266645449034" lon="15.387591275059876"><ele>395.33333333333337</ele><time>2026-04-19T14:12:18.999Z</time></trkpt><trkpt lat="41.162668317218774" lon="15.387722162250403"><ele>397.0</ele><time>2026-04-19T14:12:19.999Z</time></trkpt><trkpt lat="41.162641293721734" lon="15.38788152932165"><ele>397.0</ele><time>2026-04-19T14:12:20.999Z</time></trkpt><trkpt lat="41.1626182977229" lon="15.388034664431052"><ele>397.0</ele><time>2026-04-19T14:12:21.999Z</time></trkpt><trkpt lat="41.16258650906002" lon="15.388238636042761"><ele>397.0</ele><time>2026-04-19T14:12:22.999Z</time></trkpt><trkpt lat="41.16256472281031" lon="15.388426823663856"><ele>397.0</ele><time>2026-04-19T14:12:23.999Z</time></trkpt><trkpt lat="41.16255874294507" lon="15.388599082603191"><ele>397.0</ele><time>2026-04-19T14:12:24.999Z</time></trkpt><trkpt lat="41.16259617994045" lon="15.388728316219723"><ele>397.0</ele><time>2026-04-19T14:12:25.999Z</time></trkpt><trkpt lat="41.16267835379119" lon="15.388875348820278"><ele>397.0</ele><time>2026-04-19T14:12:26.999Z</time></trkpt><trkpt lat="41.162731343170975" lon="15.389045051774936"><ele>397.0</ele><time>2026-04-19T14:12:27.999Z</time></trkpt><trkpt lat="41.162784055804266" lon="15.389272991323883"><ele>397.8</ele><time>2026-04-19T14:12:28.999Z</time></trkpt><trkpt lat="41.162805184100435" lon="15.389387227441398"><ele>398.6</ele><time>2026-04-19T14:12:29.999Z</time></trkpt><trkpt lat="41.16282078254669" lon="15.389481886540512"><ele>399.40000000000003</ele><time>2026-04-19T14:12:34.999Z</time></trkpt><trkpt lat="41.16298580221657" lon="15.389399758461112"><ele>400.20000000000005</ele><time>2026-04-19T14:12:36.999Z</time></trkpt><trkpt lat="41.1630622387986" lon="15.389417219944756"><ele>401.0</ele><time>2026-04-19T14:12:39.999Z</time></trkpt><trkpt lat="41.16310605535728" lon="15.389330389102174"><ele>401.0</ele><time>2026-04-19T14:12:41.999Z</time></trkpt><trkpt lat="41.163119290058205" lon="15.38921249166973"><ele>401.0</ele><time>2026-04-19T14:12:43.999Z</time></trkpt><trkpt lat="41.16311533325104" lon="15.389084138814862"><ele>401.0</ele><time>2026-04-19T14:12:45.999Z</time></trkpt><trkpt lat="41.16312265354339" lon="15.38891568015951"><ele>401.0</ele><time>2026-04-19T14:12:47.999Z</time></trkpt><trkpt lat="41.16314384422731" lon="15.388813100751722"><ele>401.0</ele><time>2026-04-19T14:12:48.999Z</time></trkpt><trkpt lat="41.16319299896308" lon="15.388685285143723"><ele>408.6</ele><time>2026-04-19T14:12:49.999Z</time></trkpt><trkpt lat="41.16325035903036" lon="15.38857565917502"><ele>416.20000000000005</ele><time>2026-04-19T14:12:50.999Z</time></trkpt><trkpt lat="41.163275182988066" lon="15.388655613011085"><ele>423.79999999999995</ele><time>2026-04-19T14:13:25.999Z</time></trkpt><trkpt lat="41.16326836550807" lon="15.388785507061462"><ele>431.4</ele><time>2026-04-19T14:13:27.999Z</time></trkpt><trkpt lat="41.163277989235304" lon="15.388924467652089"><ele>439.0</ele><time>2026-04-19T14:13:30Z</time></trkpt><trkpt lat="41.16335344418312" lon="15.388871780720118"><ele>439.0</ele><time>2026-04-19T14:13:33Z</time></trkpt><trkpt lat="41.16339237864369" lon="15.388757521019702"><ele>439.0</ele><time>2026-04-19T14:13:35Z</time></trkpt><trkpt lat="41.163462943356144" lon="15.388643855338442"><ele>439.0</ele><time>2026-04-19T14:13:37Z</time></trkpt><trkpt lat="41.163542627039334" lon="15.388547043141926"><ele>439.0</ele><time>2026-04-19T14:13:39Z</time></trkpt><trkpt lat="41.16363626325731" lon="15.388456177834765"><ele>439.0</ele><time>2026-04-19T14:13:41Z</time></trkpt><trkpt lat="41.16369924605397" lon="15.388409234099928"><ele>439.0</ele><time>2026-04-19T14:13:43Z</time></trkpt><trkpt lat="41.16382228051881" lon="15.388351034537113"><ele>439.0</ele><time>2026-04-19T14:13:45Z</time></trkpt><trkpt lat="41.16388625886998" lon="15.388327340336845"><ele>439.0</ele><time>2026-04-19T14:13:46Z</time></trkpt><trkpt lat="41.16396770707013" lon="15.388309936422761"><ele>439.0</ele><time>2026-04-19T14:13:47Z</time></trkpt><trkpt lat="41.16403967353508" lon="15.388301361975385"><ele>439.0</ele><time>2026-04-19T14:13:48Z</time></trkpt><trkpt lat="41.16417492670394" lon="15.388304594136644"><ele>446.0</ele><time>2026-04-19T14:13:50Z</time></trkpt><trkpt lat="41.16425719904074" lon="15.388299495474433"><ele>453.0</ele><time>2026-04-19T14:13:51Z</time></trkpt><trkpt lat="41.1643313854579" lon="15.388308836182869"><ele>460.0</ele><time>2026-04-19T14:13:52Z</time></trkpt><trkpt lat="41.16441775955325" lon="15.38833892421145"><ele>467.0</ele><time>2026-04-19T14:13:54Z</time></trkpt><trkpt lat="41.16454842639703" lon="15.388391712562656"><ele>474.0</ele><time>2026-04-19T14:13:56Z</time></trkpt><trkpt lat="41.16462778186267" lon="15.388401071459791"><ele>474.0</ele><time>2026-04-19T14:13:57Z</time></trkpt><trkpt lat="41.1647033220344" lon="15.388399885052213"><ele>474.0</ele><time>2026-04-19T14:13:58Z</time></trkpt><trkpt lat="41.1648011516031" lon="15.388397406945694"><ele>474.0</ele><time>2026-04-19T14:13:59Z</time></trkpt><trkpt lat="41.164883064645196" lon="15.388402267987244"><ele>474.0</ele><time>2026-04-19T14:14:00Z</time></trkpt><trkpt lat="41.164966061909105" lon="15.388390335712055"><ele>474.0</ele><time>2026-04-19T14:14:01Z</time></trkpt><trkpt lat="41.16504550349641" lon="15.388349999963852"><ele>474.0</ele><time>2026-04-19T14:14:02Z</time></trkpt><trkpt lat="41.16510842512174" lon="15.388297803055426"><ele>476.8333333333333</ele><time>2026-04-19T14:14:03Z</time></trkpt><trkpt lat="41.165179332290606" lon="15.388242072979107"><ele>479.66666666666663</ele><time>2026-04-19T14:14:04Z</time></trkpt><trkpt lat="41.1652644174237" lon="15.388200713593076"><ele>482.5</ele><time>2026-04-19T14:14:05Z</time></trkpt><trkpt lat="41.165351400987404" lon="15.388189304983664"><ele>485.3333333333333</ele><time>2026-04-19T14:14:06Z</time></trkpt><trkpt lat="41.16542034880614" lon="15.388197040975736"><ele>488.16666666666663</ele><time>2026-04-19T14:14:07Z</time></trkpt><trkpt lat="41.16550088957624" lon="15.38820088646313"><ele>491.0</ele><time>2026-04-19T14:14:08Z</time></trkpt><trkpt lat="41.165593987983975" lon="15.388201516946483"><ele>490.99999999999994</ele><time>2026-04-19T14:14:09Z</time></trkpt><trkpt lat="41.165686627272116" lon="15.388205992114896"><ele>491.0</ele><time>2026-04-19T14:14:10Z</time></trkpt><trkpt lat="41.16577197767726" lon="15.38820742136762"><ele>491.0</ele><time>2026-04-19T14:14:11Z</time></trkpt><trkpt lat="41.1658430819029" lon="15.388207061725298"><ele>491.0</ele><time>2026-04-19T14:14:12Z</time></trkpt><trkpt lat="41.165906349513776" lon="15.38820182386387"><ele>490.99999999999994</ele><time>2026-04-19T14:14:13Z</time></trkpt><trkpt lat="41.165988187515936" lon="15.388194163848"><ele>491.0</ele><time>2026-04-19T14:14:14Z</time></trkpt><trkpt lat="41.16609039201927" lon="15.388177577631701"><ele>493.0</ele><time>2026-04-19T14:14:15Z</time></trkpt><trkpt lat="41.16620020995463" lon="15.38816721137507"><ele>495.0</ele><time>2026-04-19T14:14:16Z</time></trkpt><trkpt lat="41.16630443690071" lon="15.388163568020111"><ele>497.0</ele><time>2026-04-19T14:14:17Z</time></trkpt><trkpt lat="41.16640016477186" lon="15.388156980245935"><ele>499.0</ele><time>2026-04-19T14:14:18Z</time></trkpt><trkpt lat="41.16648125070981" lon="15.38815213069259"><ele>501.0</ele><time>2026-04-19T14:14:19Z</time></trkpt><trkpt lat="41.166556195673714" lon="15.38815339995665"><ele>503.0</ele><time>2026-04-19T14:14:20Z</time></trkpt><trkpt lat="41.16663671261007" lon="15.388120587272008"><ele>505.0</ele><time>2026-04-19T14:14:21Z</time></trkpt><trkpt lat="41.16670976136482" lon="15.388076003095014"><ele>507.0</ele><time>2026-04-19T14:14:22Z</time></trkpt><trkpt lat="41.16681263096952" lon="15.387960517925118"><ele>509.0</ele><time>2026-04-19T14:14:24Z</time></trkpt><trkpt lat="41.166886219913344" lon="15.387901612215444"><ele>511.0</ele><time>2026-04-19T14:14:25Z</time></trkpt><trkpt lat="41.16696458249133" lon="15.387847074808693"><ele>508.0</ele><time>2026-04-19T14:14:26Z</time></trkpt><trkpt lat="41.167049096594354" lon="15.387811713902071"><ele>505.0</ele><time>2026-04-19T14:14:27Z</time></trkpt><trkpt lat="41.16713524734162" lon="15.387789117325998"><ele>502.0</ele><time>2026-04-19T14:14:28Z</time></trkpt><trkpt lat="41.167228275953825" lon="15.387775136509951"><ele>499.0</ele><time>2026-04-19T14:14:29Z</time></trkpt><trkpt lat="41.16732654672213" lon="15.387760634449902"><ele>496.0</ele><time>2026-04-19T14:14:30Z</time></trkpt><trkpt lat="41.16741194536283" lon="15.387758318779369"><ele>496.00000000000006</ele><time>2026-04-19T14:14:31Z</time></trkpt><trkpt lat="41.16747888056401" lon="15.387774559462905"><ele>496.0</ele><time>2026-04-19T14:14:32Z</time></trkpt><trkpt lat="41.167551398224084" lon="15.387795655780764"><ele>496.0</ele><time>2026-04-19T14:14:33Z</time></trkpt><trkpt lat="41.167632302995386" lon="15.387816137310605"><ele>496.0</ele><time>2026-04-19T14:14:34Z</time></trkpt><trkpt lat="41.16771330596551" lon="15.38783531144938"><ele>496.00000000000006</ele><time>2026-04-19T14:14:35Z</time></trkpt><trkpt lat="41.16777658551537" lon="15.38786733199139"><ele>496.0</ele><time>2026-04-19T14:14:36Z</time></trkpt><trkpt lat="41.16784816256365" lon="15.387910407085249"><ele>496.00000000000006</ele><time>2026-04-19T14:14:37Z</time></trkpt><trkpt lat="41.16794166828875" lon="15.387951709553697"><ele>496.0</ele><time>2026-04-19T14:14:38Z</time></trkpt><trkpt lat="41.16801381774675" lon="15.387988053888543"><ele>496.0</ele><time>2026-04-19T14:14:39Z</time></trkpt><trkpt lat="41.1680727565512" lon="15.388029301662916"><ele>496.0</ele><time>2026-04-19T14:14:40Z</time></trkpt><trkpt lat="41.16816303967887" lon="15.388052954132993"><ele>496.00000000000006</ele><time>2026-04-19T14:14:41.999Z</time></trkpt><trkpt lat="41.168224086293776" lon="15.388004759212949"><ele>496.0</ele><time>2026-04-19T14:14:42.999Z</time></trkpt><trkpt lat="41.16829926861009" lon="15.38794218552661"><ele>497.83333333333337</ele><time>2026-04-19T14:14:43.999Z</time></trkpt><trkpt lat="41.168342364633105" lon="15.387874661333813"><ele>499.6666666666667</ele><time>2026-04-19T14:14:44.999Z</time></trkpt><trkpt lat="41.16836360107895" lon="15.387769193122955"><ele>501.5</ele><time>2026-04-19T14:14:46.999Z</time></trkpt><trkpt lat="41.16836051843252" lon="15.387636484891381"><ele>503.33333333333337</ele><time>2026-04-19T14:14:48.999Z</time></trkpt><trkpt lat="41.16837903580475" lon="15.38748755702028"><ele>505.1666666666667</ele><time>2026-04-19T14:14:50.999Z</time></trkpt><trkpt lat="41.16837649749371" lon="15.387403705597851"><ele>507.0</ele><time>2026-04-19T14:14:51.999Z</time></trkpt><trkpt lat="41.16838130237105" lon="15.387296887644256"><ele>508.20000000000005</ele><time>2026-04-19T14:14:52.999Z</time></trkpt><trkpt lat="41.16837160991454" lon="15.387144674931204"><ele>509.40000000000003</ele><time>2026-04-19T14:14:54.999Z</time></trkpt><trkpt lat="41.168352179216946" lon="15.387013261362474"><ele>510.59999999999997</ele><time>2026-04-19T14:14:55.999Z</time></trkpt><trkpt lat="41.16833406981539" lon="15.386872855884349"><ele>511.79999999999995</ele><time>2026-04-19T14:14:56.999Z</time></trkpt><trkpt lat="41.16836699127522" lon="15.386800105362228"><ele>513.0</ele><time>2026-04-19T14:14:58.999Z</time></trkpt><trkpt lat="41.16848140345525" lon="15.38675786481986"><ele>513.0</ele><time>2026-04-19T14:15:00.999Z</time></trkpt><trkpt lat="41.16857184197434" lon="15.386723195466491"><ele>513.0</ele><time>2026-04-19T14:15:01.999Z</time></trkpt><trkpt lat="41.16866455221303" lon="15.386686668157775"><ele>513.0</ele><time>2026-04-19T14:15:02.999Z</time></trkpt><trkpt lat="41.168761949294534" lon="15.386662928983919"><ele>513.0</ele><time>2026-04-19T14:15:03.999Z</time></trkpt><trkpt lat="41.16886478936623" lon="15.386648910393234"><ele>513.0</ele><time>2026-04-19T14:15:04.999Z</time></trkpt><trkpt lat="41.16896864332039" lon="15.386626543527088"><ele>515.1999999999999</ele><time>2026-04-19T14:15:05.999Z</time></trkpt><trkpt lat="41.16907367536965" lon="15.38658969560184"><ele>517.4</ele><time>2026-04-19T14:15:06.999Z</time></trkpt><trkpt lat="41.1691726957788" lon="15.386549394954196"><ele>519.5999999999999</ele><time>2026-04-19T14:15:07.999Z</time></trkpt><trkpt lat="41.16926264836506" lon="15.386502935914267"><ele>521.8</ele><time>2026-04-19T14:15:08.999Z</time></trkpt><trkpt lat="41.16934997799569" lon="15.386444807287534"><ele>524.0</ele><time>2026-04-19T14:15:09.999Z</time></trkpt><trkpt lat="41.16943361490844" lon="15.386406479973223"><ele>524.0</ele><time>2026-04-19T14:15:10.999Z</time></trkpt><trkpt lat="41.16951833058934" lon="15.386410219559204"><ele>524.0</ele><time>2026-04-19T14:15:11.999Z</time></trkpt><trkpt lat="41.16959166877228" lon="15.386449128606325"><ele>524.0</ele><time>2026-04-19T14:15:12.999Z</time></trkpt><trkpt lat="41.16966928380319" lon="15.386492613487526"><ele>524.0</ele><time>2026-04-19T14:15:13.999Z</time></trkpt><trkpt lat="41.16976079562926" lon="15.386531838189182"><ele>524.0</ele><time>2026-04-19T14:15:14.999Z</time></trkpt><trkpt lat="41.16986444521685" lon="15.386570804773907"><ele>525.2</ele><time>2026-04-19T14:15:15.999Z</time></trkpt><trkpt lat="41.16996528313796" lon="15.386610448425026"><ele>526.4</ele><time>2026-04-19T14:15:16.999Z</time></trkpt><trkpt lat="41.17006431977798" lon="15.386651287069313"><ele>527.6</ele><time>2026-04-19T14:15:17.999Z</time></trkpt><trkpt lat="41.17015939773837" lon="15.386683701024271"><ele>528.8</ele><time>2026-04-19T14:15:18.999Z</time></trkpt><trkpt lat="41.17023638477962" lon="15.386687271145792"><ele>530.0</ele><time>2026-04-19T14:15:19.999Z</time></trkpt><trkpt lat="41.17034713750455" lon="15.386570242493482"><ele>530.0</ele><time>2026-04-19T14:15:21.999Z</time></trkpt><trkpt lat="41.170392614988785" lon="15.38644474776411"><ele>530.0</ele><time>2026-04-19T14:15:22.999Z</time></trkpt><trkpt lat="41.170448487659215" lon="15.386286572560294"><ele>530.0</ele><time>2026-04-19T14:15:23.999Z</time></trkpt><trkpt lat="41.170499910596305" lon="15.386178986350435"><ele>530.0</ele><time>2026-04-19T14:15:24.999Z</time></trkpt><trkpt lat="41.17055544324353" lon="15.386064844397358"><ele>530.0</ele><time>2026-04-19T14:15:25.999Z</time></trkpt><trkpt lat="41.170638850319214" lon="15.385942305382654"><ele>533.0</ele><time>2026-04-19T14:15:26.999Z</time></trkpt><trkpt lat="41.17075599042365" lon="15.385824451898413"><ele>536.0</ele><time>2026-04-19T14:15:27.999Z</time></trkpt><trkpt lat="41.170883257275236" lon="15.385693982662445"><ele>539.0</ele><time>2026-04-19T14:15:28.999Z</time></trkpt><trkpt lat="41.17101785525992" lon="15.385547001242484"><ele>541.75</ele><time>2026-04-19T14:15:29.999Z</time></trkpt><trkpt lat="41.17114525706464" lon="15.385416825858924"><ele>544.5</ele><time>2026-04-19T14:15:30.999Z</time></trkpt><trkpt lat="41.17125451435609" lon="15.385305533159467"><ele>547.25</ele><time>2026-04-19T14:15:31.999Z</time></trkpt><trkpt lat="41.17136278879018" lon="15.38521352010549"><ele>550.0</ele><time>2026-04-19T14:15:32.999Z</time></trkpt><trkpt lat="41.171472268533094" lon="15.38511544497528"><ele>548.8</ele><time>2026-04-19T14:15:34Z</time></trkpt><trkpt lat="41.171529850460956" lon="15.385040677994223"><ele>547.6</ele><time>2026-04-19T14:15:35Z</time></trkpt><trkpt lat="41.17154697775135" lon="15.384945621333758"><ele>546.4</ele><time>2026-04-19T14:15:36Z</time></trkpt><trkpt lat="41.17153430571992" lon="15.384823003251729"><ele>545.2</ele><time>2026-04-19T14:15:37Z</time></trkpt><trkpt lat="41.17148553444687" lon="15.384678399888388"><ele>544.0</ele><time>2026-04-19T14:15:38Z</time></trkpt><trkpt lat="41.17142989055135" lon="15.384511317241708"><ele>547.25</ele><time>2026-04-19T14:15:39Z</time></trkpt><trkpt lat="41.17138738258659" lon="15.384299529553461"><ele>550.5</ele><time>2026-04-19T14:15:40Z</time></trkpt><trkpt lat="41.171349375218135" lon="15.384107456804307"><ele>553.75</ele><time>2026-04-19T14:15:41Z</time></trkpt><trkpt lat="41.17130088173274" lon="15.38397261925074"><ele>557.0</ele><time>2026-04-19T14:15:42Z</time></trkpt><trkpt lat="41.17124912503261" lon="15.383861179546152"><ele>558.2</ele><time>2026-04-19T14:15:43Z</time></trkpt><trkpt lat="41.17120034386313" lon="15.383763812699241"><ele>559.4000000000001</ele><time>2026-04-19T14:15:44Z</time></trkpt><trkpt lat="41.171139329043235" lon="15.383668590893281"><ele>560.5999999999999</ele><time>2026-04-19T14:15:45Z</time></trkpt><trkpt lat="41.171082207754836" lon="15.38358668316847"><ele>561.8</ele><time>2026-04-19T14:15:46Z</time></trkpt><trkpt lat="41.17106187539485" lon="15.383428608855725"><ele>563.0</ele><time>2026-04-19T14:15:48Z</time></trkpt><trkpt lat="41.17112406852498" lon="15.383263931209838"><ele>563.0</ele><time>2026-04-19T14:15:50Z</time></trkpt><trkpt lat="41.171164187241324" lon="15.383175395246074"><ele>563.0</ele><time>2026-04-19T14:15:51Z</time></trkpt><trkpt lat="41.17120656338844" lon="15.38309342343229"><ele>563.0</ele><time>2026-04-19T14:15:52Z</time></trkpt><trkpt lat="41.171233272116446" lon="15.383016867887477"><ele>563.0</ele><time>2026-04-19T14:15:53Z</time></trkpt><trkpt lat="41.17126443051192" lon="15.382914160283331"><ele>563.0</ele><time>2026-04-19T14:15:54Z</time></trkpt><trkpt lat="41.17128855803087" lon="15.382813498501813"><ele>563.0</ele><time>2026-04-19T14:15:55Z</time></trkpt><trkpt lat="41.17131174656695" lon="15.382707407497804"><ele>563.6666666666666</ele><time>2026-04-19T14:15:56Z</time></trkpt><trkpt lat="41.171323291010005" lon="15.382599780609032"><ele>564.3333333333333</ele><time>2026-04-19T14:15:57Z</time></trkpt><trkpt lat="41.17133799126485" lon="15.382482367621902"><ele>565.0</ele><time>2026-04-19T14:15:58Z</time></trkpt><trkpt lat="41.171349614314714" lon="15.382389182260676"><ele>565.6666666666666</ele><time>2026-04-19T14:15:59Z</time></trkpt><trkpt lat="41.17136783265577" lon="15.382289361284753"><ele>566.3333333333334</ele><time>2026-04-19T14:16:00Z</time></trkpt><trkpt lat="41.17141094163024" lon="15.382127454642113"><ele>567.0</ele><time>2026-04-19T14:16:02Z</time></trkpt><trkpt lat="41.17147570545327" lon="15.38200080270683"><ele>566.0</ele><time>2026-04-19T14:16:04Z</time></trkpt><trkpt lat="41.171536597017294" lon="15.38188628234922"><ele>565.0</ele><time>2026-04-19T14:16:06Z</time></trkpt><trkpt lat="41.17159961806902" lon="15.381775367204236"><ele>564.0</ele><time>2026-04-19T14:16:08Z</time></trkpt><trkpt lat="41.17166130581913" lon="15.381664305074374"><ele>563.0</ele><time>2026-04-19T14:16:10Z</time></trkpt><trkpt lat="41.17169949335287" lon="15.381583335974211"><ele>562.0</ele><time>2026-04-19T14:16:11Z</time></trkpt><trkpt lat="41.17174435914212" lon="15.381487383279017"><ele>562.0</ele><time>2026-04-19T14:16:12Z</time></trkpt><trkpt lat="41.17178448694203" lon="15.381388348213001"><ele>562.0</ele><time>2026-04-19T14:16:13Z</time></trkpt><trkpt lat="41.171838135847224" lon="15.3812723002278"><ele>562.0</ele><time>2026-04-19T14:16:14Z</time></trkpt><trkpt lat="41.171897054366084" lon="15.381160287128996"><ele>562.0</ele><time>2026-04-19T14:16:15Z</time></trkpt><trkpt lat="41.17196377956593" lon="15.381046645387528"><ele>562.0</ele><time>2026-04-19T14:16:16Z</time></trkpt><trkpt lat="41.172041227932944" lon="15.380950329048373"><ele>561.8000000000001</ele><time>2026-04-19T14:16:17Z</time></trkpt><trkpt lat="41.17212325849" lon="15.380864084318967"><ele>561.6</ele><time>2026-04-19T14:16:18Z</time></trkpt><trkpt lat="41.1721990706011" lon="15.380793228231525"><ele>561.4000000000001</ele><time>2026-04-19T14:16:19Z</time></trkpt><trkpt lat="41.17227228238278" lon="15.380734219741571"><ele>561.2</ele><time>2026-04-19T14:16:20Z</time></trkpt><trkpt lat="41.17233016087555" lon="15.380693104763354"><ele>561.0</ele><time>2026-04-19T14:16:21Z</time></trkpt><trkpt lat="41.172439871361874" lon="15.380626829697032"><ele>560.6666666666666</ele><time>2026-04-19T14:16:23Z</time></trkpt><trkpt lat="41.17250860730069" lon="15.38055087840467"><ele>560.3333333333334</ele><time>2026-04-19T14:16:25Z</time></trkpt><trkpt lat="41.172504507393754" lon="15.3804556331034"><ele>560.0</ele><time>2026-04-19T14:16:27Z</time></trkpt><trkpt lat="41.17248380257651" lon="15.380366106488434"><ele>559.6666666666667</ele><time>2026-04-19T14:16:31Z</time></trkpt><trkpt lat="41.17245882767972" lon="15.380266563939452"><ele>559.3333333333334</ele><time>2026-04-19T14:28:58Z</time></trkpt><trkpt lat="41.172441189846296" lon="15.380164948307975"><ele>559.0</ele><time>2026-04-19T14:28:59Z</time></trkpt><trkpt lat="41.17241673330676" lon="15.3800630082353"><ele>559.0</ele><time>2026-04-19T14:29:00Z</time></trkpt><trkpt lat="41.17238671365567" lon="15.379965112248268"><ele>559.0</ele><time>2026-04-19T14:29:01Z</time></trkpt><trkpt lat="41.17236152732674" lon="15.379882280096718"><ele>559.0</ele><time>2026-04-19T14:29:02Z</time></trkpt><trkpt lat="41.17231785637864" lon="15.379756069888703"><ele>559.0</ele><time>2026-04-19T14:29:04Z</time></trkpt><trkpt lat="41.17220487681015" lon="15.379759314321555"><ele>559.0</ele><time>2026-04-19T14:29:06Z</time></trkpt><trkpt lat="41.17212882596654" lon="15.37981159766153"><ele>558.25</ele><time>2026-04-19T14:29:07Z</time></trkpt><trkpt lat="41.172060869488796" lon="15.379902733642167"><ele>557.5</ele><time>2026-04-19T14:29:08Z</time></trkpt><trkpt lat="41.17197567762582" lon="15.380044312157212"><ele>556.75</ele><time>2026-04-19T14:29:09Z</time></trkpt><trkpt lat="41.17188094907646" lon="15.380148087952039"><ele>556.0</ele><time>2026-04-19T14:29:10Z</time></trkpt><trkpt lat="41.17179494329947" lon="15.38021715322427"><ele>556.0</ele><time>2026-04-19T14:29:11Z</time></trkpt><trkpt lat="41.17170642958808" lon="15.380299616180992"><ele>556.0</ele><time>2026-04-19T14:29:12Z</time></trkpt><trkpt lat="41.17162588476043" lon="15.380394419796177"><ele>556.0</ele><time>2026-04-19T14:29:13Z</time></trkpt><trkpt lat="41.17154967022227" lon="15.380487860014386"><ele>556.0</ele><time>2026-04-19T14:29:14Z</time></trkpt><trkpt lat="41.17147268301444" lon="15.380543792694578"><ele>556.0</ele><time>2026-04-19T14:29:15Z</time></trkpt><trkpt lat="41.171380219857745" lon="15.380550916137208"><ele>557.8</ele><time>2026-04-19T14:29:16Z</time></trkpt><trkpt lat="41.17130112504694" lon="15.380556349166254"><ele>559.6</ele><time>2026-04-19T14:29:17Z</time></trkpt><trkpt lat="41.171206592658145" lon="15.380579333472987"><ele>561.4</ele><time>2026-04-19T14:29:18Z</time></trkpt><trkpt lat="41.17111765496346" lon="15.380595759491802"><ele>563.2</ele><time>2026-04-19T14:29:19Z</time></trkpt><trkpt lat="41.171023028005" lon="15.380591750101056"><ele>565.0</ele><time>2026-04-19T14:29:20Z</time></trkpt><trkpt lat="41.17092755600839" lon="15.380614125637086"><ele>565.0</ele><time>2026-04-19T14:29:21Z</time></trkpt><trkpt lat="41.170818387956686" lon="15.380646845009629"><ele>565.0</ele><time>2026-04-19T14:29:22Z</time></trkpt><trkpt lat="41.17072233541004" lon="15.3806700701228"><ele>565.0</ele><time>2026-04-19T14:29:23Z</time></trkpt><trkpt lat="41.17063414138476" lon="15.380698848938763"><ele>565.0</ele><time>2026-04-19T14:29:24Z</time></trkpt><trkpt lat="41.17054460995893" lon="15.380747517875648"><ele>565.0</ele><time>2026-04-19T14:29:25Z</time></trkpt><trkpt lat="41.17045202175917" lon="15.380798145354111"><ele>564.0</ele><time>2026-04-19T14:29:26Z</time></trkpt><trkpt lat="41.17036302487076" lon="15.380854768285728"><ele>563.0</ele><time>2026-04-19T14:29:27Z</time></trkpt><trkpt lat="41.17027799448715" lon="15.380886354174612"><ele>562.0</ele><time>2026-04-19T14:29:28Z</time></trkpt><trkpt lat="41.170180050354936" lon="15.380893853618923"><ele>561.0</ele><time>2026-04-19T14:29:29Z</time></trkpt><trkpt lat="41.17008020448228" lon="15.38089063978707"><ele>560.0</ele><time>2026-04-19T14:29:30Z</time></trkpt><trkpt lat="41.1700014651336" lon="15.38087988523525"><ele>560.0</ele><time>2026-04-19T14:29:31Z</time></trkpt><trkpt lat="41.16993674404484" lon="15.380885707397232"><ele>560.0</ele><time>2026-04-19T14:29:32Z</time></trkpt><trkpt lat="41.16982140395637" lon="15.380883172438534"><ele>560.0</ele><time>2026-04-19T14:29:33Z</time></trkpt><trkpt lat="41.16972615208689" lon="15.380860250774356"><ele>560.0</ele><time>2026-04-19T14:29:34Z</time></trkpt><trkpt lat="41.16963322782266" lon="15.380826672198378"><ele>560.0</ele><time>2026-04-19T14:29:35Z</time></trkpt><trkpt lat="41.169541134946016" lon="15.380773141884815"><ele>560.0</ele><time>2026-04-19T14:29:36Z</time></trkpt><trkpt lat="41.16945400943419" lon="15.380725170532372"><ele>560.0</ele><time>2026-04-19T14:29:37Z</time></trkpt><trkpt lat="41.169373781963145" lon="15.380674200623933"><ele>560.0</ele><time>2026-04-19T14:29:38Z</time></trkpt><trkpt lat="41.16931504118612" lon="15.3806003502067"><ele>560.0</ele><time>2026-04-19T14:29:39Z</time></trkpt><trkpt lat="41.16926121723029" lon="15.38049442468178"><ele>560.0</ele><time>2026-04-19T14:29:40Z</time></trkpt><trkpt lat="41.16920785317014" lon="15.380403347757333"><ele>560.0</ele><time>2026-04-19T14:29:41Z</time></trkpt><trkpt lat="41.16915515693602" lon="15.38032137595877"><ele>558.5</ele><time>2026-04-19T14:29:42Z</time></trkpt><trkpt lat="41.16909727352166" lon="15.380288232881096"><ele>557.0</ele><time>2026-04-19T14:29:43Z</time></trkpt><trkpt lat="41.168967527167325" lon="15.38029166531249"><ele>555.5</ele><time>2026-04-19T14:29:45Z</time></trkpt><trkpt lat="41.16888175097607" lon="15.380302078296193"><ele>554.0</ele><time>2026-04-19T14:29:46Z</time></trkpt><trkpt lat="41.168796816703114" lon="15.380294931388308"><ele>552.5</ele><time>2026-04-19T14:29:47Z</time></trkpt><trkpt lat="41.16871865571391" lon="15.380275820574068"><ele>551.0</ele><time>2026-04-19T14:29:48Z</time></trkpt><trkpt lat="41.16865301937092" lon="15.38024611319683"><ele>551.2</ele><time>2026-04-19T14:29:49Z</time></trkpt><trkpt lat="41.1685722899781" lon="15.380219311953754"><ele>551.4000000000001</ele><time>2026-04-19T14:29:51Z</time></trkpt><trkpt lat="41.16847856804337" lon="15.380321299784057"><ele>551.6</ele><time>2026-04-19T14:29:54Z</time></trkpt><trkpt lat="41.16842857651782" lon="15.380419220321425"><ele>551.8000000000001</ele><time>2026-04-19T14:29:55Z</time></trkpt><trkpt lat="41.16837653406431" lon="15.380519664187007"><ele>552.0</ele><time>2026-04-19T14:29:56Z</time></trkpt><trkpt lat="41.168333669155494" lon="15.38064497338254"><ele>552.0</ele><time>2026-04-19T14:29:57Z</time></trkpt><trkpt lat="41.168293210920694" lon="15.380782609842472"><ele>552.0</ele><time>2026-04-19T14:29:58Z</time></trkpt><trkpt lat="41.168264462951704" lon="15.380907017293547"><ele>552.0</ele><time>2026-04-19T14:29:59Z</time></trkpt><trkpt lat="41.16823896431252" lon="15.381019365598377"><ele>552.0</ele><time>2026-04-19T14:30:00Z</time></trkpt><trkpt lat="41.16823020799528" lon="15.381117366950118"><ele>552.0</ele><time>2026-04-19T14:30:01Z</time></trkpt><trkpt lat="41.168234798434376" lon="15.381237059788633"><ele>552.0</ele><time>2026-04-19T14:30:02Z</time></trkpt><trkpt lat="41.16824965851069" lon="15.381321390285109"><ele>552.0</ele><time>2026-04-19T14:30:03Z</time></trkpt><trkpt lat="41.16827620444901" lon="15.38139837633422"><ele>552.0</ele><time>2026-04-19T14:30:04Z</time></trkpt><trkpt lat="41.1683371730548" lon="15.381524798705398"><ele>552.0</ele><time>2026-04-19T14:30:06Z</time></trkpt><trkpt lat="41.16827838403899" lon="15.381590858435821"><ele>552.0</ele><time>2026-04-19T14:30:08Z</time></trkpt><trkpt lat="41.16821654488995" lon="15.381620324191086"><ele>552.0</ele><time>2026-04-19T14:30:09Z</time></trkpt><trkpt lat="41.16814294386226" lon="15.381648751908978"><ele>550.1428571428571</ele><time>2026-04-19T14:30:10Z</time></trkpt><trkpt lat="41.16806629523898" lon="15.381684323980643"><ele>548.2857142857143</ele><time>2026-04-19T14:30:11Z</time></trkpt><trkpt lat="41.168004362188626" lon="15.38170853702513"><ele>546.4285714285714</ele><time>2026-04-19T14:30:12Z</time></trkpt><trkpt lat="41.16794312131545" lon="15.381739084926217"><ele>544.5714285714286</ele><time>2026-04-19T14:30:13Z</time></trkpt><trkpt lat="41.16786017144435" lon="15.381778654170652"><ele>542.7142857142858</ele><time>2026-04-19T14:30:14Z</time></trkpt><trkpt lat="41.16779876072099" lon="15.381815003238904"><ele>540.8571428571429</ele><time>2026-04-19T14:30:15Z</time></trkpt><trkpt lat="41.16775326720831" lon="15.38187809135054"><ele>539.0</ele><time>2026-04-19T14:30:16.001Z</time></trkpt><trkpt lat="41.1676826151859" lon="15.382003706412627"><ele>539.0</ele><time>2026-04-19T14:30:18.001Z</time></trkpt><trkpt lat="41.1676046133871" lon="15.382047728724526"><ele>539.0</ele><time>2026-04-19T14:30:19.001Z</time></trkpt><trkpt lat="41.16751266408911" lon="15.382091681761"><ele>539.0</ele><time>2026-04-19T14:30:20.001Z</time></trkpt><trkpt lat="41.16743103306183" lon="15.382131026113713"><ele>539.0</ele><time>2026-04-19T14:30:21.001Z</time></trkpt><trkpt lat="41.167343699365574" lon="15.382174434469595"><ele>539.0</ele><time>2026-04-19T14:30:22.001Z</time></trkpt><trkpt lat="41.1672575064101" lon="15.382218400787139"><ele>535.8333333333333</ele><time>2026-04-19T14:30:23.001Z</time></trkpt><trkpt lat="41.167179180716076" lon="15.382268861719078"><ele>532.6666666666666</ele><time>2026-04-19T14:30:24.001Z</time></trkpt><trkpt lat="41.16710068748811" lon="15.382323829864427"><ele>529.5</ele><time>2026-04-19T14:30:25.001Z</time></trkpt><trkpt lat="41.16703721456404" lon="15.382388852060723"><ele>526.3333333333334</ele><time>2026-04-19T14:30:26.001Z</time></trkpt><trkpt lat="41.16697021759929" lon="15.38244598223875"><ele>523.1666666666667</ele><time>2026-04-19T14:30:27.001Z</time></trkpt><trkpt lat="41.16689621310326" lon="15.382500726731504"><ele>520.0</ele><time>2026-04-19T14:30:28.001Z</time></trkpt><trkpt lat="41.1668028332484" lon="15.382555353445753"><ele>520.0</ele><time>2026-04-19T14:30:29.001Z</time></trkpt><trkpt lat="41.16673487243952" lon="15.382629549072991"><ele>520.0</ele><time>2026-04-19T14:30:30.001Z</time></trkpt><trkpt lat="41.16665350495471" lon="15.382718945602306"><ele>520.0</ele><time>2026-04-19T14:30:31.001Z</time></trkpt><trkpt lat="41.16658231980266" lon="15.382784796807394"><ele>520.0</ele><time>2026-04-19T14:30:32.001Z</time></trkpt><trkpt lat="41.166516104493624" lon="15.382852801844844"><ele>520.0</ele><time>2026-04-19T14:30:33.001Z</time></trkpt><trkpt lat="41.16645963931589" lon="15.382931503542364"><ele>520.0</ele><time>2026-04-19T14:30:34.001Z</time></trkpt><trkpt lat="41.16640295237446" lon="15.383000839028544"><ele>516.8</ele><time>2026-04-19T14:30:36.001Z</time></trkpt><trkpt lat="41.16640939771792" lon="15.382904601652516"><ele>513.6</ele><time>2026-04-19T14:30:40Z</time></trkpt><trkpt lat="41.16641356458515" lon="15.382773469159476"><ele>510.4</ele><time>2026-04-19T14:30:42Z</time></trkpt><trkpt lat="41.16636144936623" lon="15.382712539547247"><ele>507.2</ele><time>2026-04-19T14:30:43Z</time></trkpt><trkpt lat="41.16626530456906" lon="15.382795050763812"><ele>504.0</ele><time>2026-04-19T14:30:45Z</time></trkpt><trkpt lat="41.16622261882217" lon="15.382924127460043"><ele>502.79999999999995</ele><time>2026-04-19T14:30:46Z</time></trkpt><trkpt lat="41.166170867707564" lon="15.383023970874527"><ele>501.59999999999997</ele><time>2026-04-19T14:30:47Z</time></trkpt><trkpt lat="41.166098789805126" lon="15.3830685638308"><ele>500.4</ele><time>2026-04-19T14:30:48Z</time></trkpt><trkpt lat="41.166038239885495" lon="15.383134135266028"><ele>499.2</ele><time>2026-04-19T14:30:49Z</time></trkpt><trkpt lat="41.165987872425966" lon="15.383214745863024"><ele>498.0</ele><time>2026-04-19T14:30:50Z</time></trkpt><trkpt lat="41.16590551347852" lon="15.383338273362746"><ele>498.0</ele><time>2026-04-19T14:30:52Z</time></trkpt><trkpt lat="41.165834913646776" lon="15.383378339194556"><ele>498.0</ele><time>2026-04-19T14:30:53Z</time></trkpt><trkpt lat="41.1657703865558" lon="15.383412967193273"><ele>498.0</ele><time>2026-04-19T14:30:54Z</time></trkpt><trkpt lat="41.16571925541391" lon="15.38349132643539"><ele>498.0</ele><time>2026-04-19T14:30:55Z</time></trkpt><trkpt lat="41.165684084458384" lon="15.383575814083446"><ele>498.0</ele><time>2026-04-19T14:30:56Z</time></trkpt><trkpt lat="41.16563280220342" lon="15.383663471524343"><ele>498.0</ele><time>2026-04-19T14:30:57Z</time></trkpt><trkpt lat="41.165583697716784" lon="15.383755121858847"><ele>491.79999999999995</ele><time>2026-04-19T14:30:58Z</time></trkpt><trkpt lat="41.16554263416633" lon="15.383852994323178"><ele>485.59999999999997</ele><time>2026-04-19T14:30:59Z</time></trkpt><trkpt lat="41.16551680837361" lon="15.383934706127562"><ele>479.40000000000003</ele><time>2026-04-19T14:31:00Z</time></trkpt><trkpt lat="41.1654471737358" lon="15.384056539373633"><ele>473.20000000000005</ele><time>2026-04-19T14:31:02Z</time></trkpt><trkpt lat="41.16539737728009" lon="15.384165753745945"><ele>467.0</ele><time>2026-04-19T14:31:03Z</time></trkpt><trkpt lat="41.165361224830946" lon="15.384284258542802"><ele>467.0</ele><time>2026-04-19T14:31:04Z</time></trkpt><trkpt lat="41.165321493596196" lon="15.384384393513713"><ele>467.00000000000006</ele><time>2026-04-19T14:31:05Z</time></trkpt><trkpt lat="41.16525892850248" lon="15.384482654726428"><ele>467.00000000000006</ele><time>2026-04-19T14:31:06Z</time></trkpt><trkpt lat="41.16518107287463" lon="15.384551051305671"><ele>467.0</ele><time>2026-04-19T14:31:07Z</time></trkpt><trkpt lat="41.1651208879229" lon="15.384616310107367"><ele>467.0</ele><time>2026-04-19T14:31:08Z</time></trkpt><trkpt lat="41.16500963680503" lon="15.38465607204563"><ele>466.49999999999994</ele><time>2026-04-19T14:31:10Z</time></trkpt><trkpt lat="41.16493747716615" lon="15.384683402934789"><ele>466.0</ele><time>2026-04-19T14:31:11Z</time></trkpt><trkpt lat="41.16487597059143" lon="15.384750083702567"><ele>465.5</ele><time>2026-04-19T14:31:12Z</time></trkpt><trkpt lat="41.164820182225135" lon="15.384809115915992"><ele>465.0</ele><time>2026-04-19T14:31:13Z</time></trkpt><trkpt lat="41.16473553709161" lon="15.384794780391648"><ele>464.49999999999994</ele><time>2026-04-19T14:31:15Z</time></trkpt><trkpt lat="41.16471442578523" lon="15.384710969220897"><ele>464.0</ele><time>2026-04-19T14:31:16Z</time></trkpt><trkpt lat="41.16470561295432" lon="15.384550561630894"><ele>452.3333333333333</ele><time>2026-04-19T14:31:17Z</time></trkpt><trkpt lat="41.16471233822003" lon="15.384355812158494"><ele>440.66666666666663</ele><time>2026-04-19T14:31:18Z</time></trkpt><trkpt lat="41.16471832952764" lon="15.384128298934785"><ele>429.0</ele><time>2026-04-19T14:31:19Z</time></trkpt><trkpt lat="41.16471927916792" lon="15.38395299611164"><ele>429.0</ele><time>2026-04-19T14:31:20Z</time></trkpt><trkpt lat="41.164709686513966" lon="15.383848181905858"><ele>429.0</ele><time>2026-04-19T14:31:21Z</time></trkpt><trkpt lat="41.164659021061965" lon="15.383675119754079"><ele>429.0</ele><time>2026-04-19T14:31:23Z</time></trkpt><trkpt lat="41.16461905781102" lon="15.383554979780415"><ele>429.0</ele><time>2026-04-19T14:31:24Z</time></trkpt><trkpt lat="41.164608376549836" lon="15.383441729876754"><ele>429.0</ele><time>2026-04-19T14:31:25Z</time></trkpt><trkpt lat="41.16460911225444" lon="15.383322710088253"><ele>428.0</ele><time>2026-04-19T14:31:26Z</time></trkpt><trkpt lat="41.16461231247048" lon="15.383189061723384"><ele>427.0</ele><time>2026-04-19T14:31:27Z</time></trkpt><trkpt lat="41.16461500242673" lon="15.383063575902248"><ele>426.0</ele><time>2026-04-19T14:31:28Z</time></trkpt><trkpt lat="41.16461914786233" lon="15.382973314081848"><ele>425.0</ele><time>2026-04-19T14:31:29Z</time></trkpt><trkpt lat="41.164569574694944" lon="15.382776445987282"><ele>424.0</ele><time>2026-04-19T14:31:31Z</time></trkpt><trkpt lat="41.16452933823313" lon="15.38261736654884"><ele>424.0</ele><time>2026-04-19T14:31:32Z</time></trkpt><trkpt lat="41.164493461894615" lon="15.382453669846178"><ele>424.0</ele><time>2026-04-19T14:31:33Z</time></trkpt><trkpt lat="41.164457472388584" lon="15.382340228449197"><ele>424.0</ele><time>2026-04-19T14:31:34Z</time></trkpt><trkpt lat="41.16438283899914" lon="15.38220907983719"><ele>424.0</ele><time>2026-04-19T14:31:36Z</time></trkpt><trkpt lat="41.1643119475068" lon="15.382152203295211"><ele>424.0</ele><time>2026-04-19T14:31:37Z</time></trkpt><trkpt lat="41.16423487517993" lon="15.38208469986623"><ele>426.0</ele><time>2026-04-19T14:31:38Z</time></trkpt><trkpt lat="41.16416660256776" lon="15.381982721806658"><ele>428.0</ele><time>2026-04-19T14:31:39Z</time></trkpt><trkpt lat="41.16412566641527" lon="15.381882639655778"><ele>430.0</ele><time>2026-04-19T14:31:40Z</time></trkpt><trkpt lat="41.164093404085975" lon="15.381770903454052"><ele>432.0</ele><time>2026-04-19T14:31:41Z</time></trkpt><trkpt lat="41.16405241252471" lon="15.381648983325046"><ele>434.0</ele><time>2026-04-19T14:31:42Z</time></trkpt><trkpt lat="41.16402151715461" lon="15.381561639903117"><ele>430.16666666666663</ele><time>2026-04-19T14:31:43Z</time></trkpt><trkpt lat="41.16398410110136" lon="15.38147675137643"><ele>426.3333333333333</ele><time>2026-04-19T14:31:44Z</time></trkpt><trkpt lat="41.163947238521665" lon="15.381400814385408"><ele>422.5</ele><time>2026-04-19T14:31:45Z</time></trkpt><trkpt lat="41.16389771161146" lon="15.38133478516587"><ele>418.66666666666663</ele><time>2026-04-19T14:31:46Z</time></trkpt><trkpt lat="41.1638321447878" lon="15.381265786568948"><ele>414.8333333333333</ele><time>2026-04-19T14:31:47Z</time></trkpt><trkpt lat="41.16376914823602" lon="15.381186767212139"><ele>411.0</ele><time>2026-04-19T14:31:48Z</time></trkpt><trkpt lat="41.163715183017395" lon="15.38110943374053"><ele>411.0</ele><time>2026-04-19T14:31:49Z</time></trkpt><trkpt lat="41.163650835731936" lon="15.381011058568559"><ele>411.0</ele><time>2026-04-19T14:31:51Z</time></trkpt><trkpt lat="41.16356536147219" lon="15.380905239295117"><ele>411.0</ele><time>2026-04-19T14:31:53Z</time></trkpt><trkpt lat="41.163476704224486" lon="15.380834971002855"><ele>411.0</ele><time>2026-04-19T14:31:55Z</time></trkpt><trkpt lat="41.16343548899309" lon="15.380754591370696"><ele>411.0</ele><time>2026-04-19T14:31:58Z</time></trkpt><trkpt lat="41.16342579347449" lon="15.380618965612987"><ele>410.4</ele><time>2026-04-19T14:32:01Z</time></trkpt><trkpt lat="41.16345867755948" lon="15.38048119330882"><ele>409.8</ele><time>2026-04-19T14:32:03Z</time></trkpt><trkpt lat="41.16346629590115" lon="15.380392969360491"><ele>409.2</ele><time>2026-04-19T14:32:04Z</time></trkpt><trkpt lat="41.163472756334954" lon="15.380280400749655"><ele>408.59999999999997</ele><time>2026-04-19T14:32:05Z</time></trkpt><trkpt lat="41.16347169809366" lon="15.38016194146612"><ele>408.0</ele><time>2026-04-19T14:32:06Z</time></trkpt><trkpt lat="41.16346195255577" lon="15.380012982779279"><ele>408.0</ele><time>2026-04-19T14:32:07Z</time></trkpt><trkpt lat="41.16346307602514" lon="15.379849864834835"><ele>408.0</ele><time>2026-04-19T14:32:08Z</time></trkpt><trkpt lat="41.163460001027126" lon="15.37965976424453"><ele>408.0</ele><time>2026-04-19T14:32:09Z</time></trkpt><trkpt lat="41.163457627108414" lon="15.379459568885325"><ele>408.0</ele><time>2026-04-19T14:32:10Z</time></trkpt><trkpt lat="41.16345119957551" lon="15.379250406678116"><ele>408.66666666666663</ele><time>2026-04-19T14:32:11Z</time></trkpt><trkpt lat="41.16344851528518" lon="15.379021347099616"><ele>409.3333333333333</ele><time>2026-04-19T14:32:12Z</time></trkpt><trkpt lat="41.16344358674002" lon="15.378780252313417"><ele>410.0</ele><time>2026-04-19T14:32:13Z</time></trkpt><trkpt lat="41.16344040913097" lon="15.37853614023662"><ele>410.0</ele><time>2026-04-19T14:32:14Z</time></trkpt><trkpt lat="41.163435877282204" lon="15.378280176607051"><ele>410.0</ele><time>2026-04-19T14:32:15Z</time></trkpt><trkpt lat="41.16343095188305" lon="15.378018157490827"><ele>410.0</ele><time>2026-04-19T14:32:16Z</time></trkpt><trkpt lat="41.16342623815727" lon="15.377760871312693"><ele>410.0</ele><time>2026-04-19T14:32:17Z</time></trkpt><trkpt lat="41.16342079596042" lon="15.377500509601562"><ele>410.0</ele><time>2026-04-19T14:32:18Z</time></trkpt><trkpt lat="41.16341611404277" lon="15.377238227961787"><ele>410.0</ele><time>2026-04-19T14:32:19Z</time></trkpt><trkpt lat="41.163412843862325" lon="15.37698384602124"><ele>410.66666666666663</ele><time>2026-04-19T14:32:20Z</time></trkpt><trkpt lat="41.1634123866286" lon="15.376726094280807"><ele>411.33333333333337</ele><time>2026-04-19T14:32:21Z</time></trkpt><trkpt lat="41.163410249023244" lon="15.376486394439535"><ele>412.0</ele><time>2026-04-19T14:32:22.001Z</time></trkpt><trkpt lat="41.16340770031371" lon="15.376238235972703"><ele>412.6666666666667</ele><time>2026-04-19T14:32:23.001Z</time></trkpt><trkpt lat="41.16340379646078" lon="15.375992025411056"><ele>413.33333333333337</ele><time>2026-04-19T14:32:24.001Z</time></trkpt><trkpt lat="41.16340646077426" lon="15.375741455250363"><ele>414.0</ele><time>2026-04-19T14:32:25.001Z</time></trkpt><trkpt lat="41.16342911643862" lon="15.375491468415598"><ele>415.0</ele><time>2026-04-19T14:32:26.001Z</time></trkpt><trkpt lat="41.163461397131805" lon="15.37523553101797"><ele>416.0</ele><time>2026-04-19T14:32:27.001Z</time></trkpt><trkpt lat="41.16349511709041" lon="15.374995975152933"><ele>417.0</ele><time>2026-04-19T14:32:28.001Z</time></trkpt><trkpt lat="41.16353235210849" lon="15.374803474189013"><ele>416.66666666666663</ele><time>2026-04-19T14:32:29.001Z</time></trkpt><trkpt lat="41.16358208862305" lon="15.374602159053921"><ele>416.3333333333333</ele><time>2026-04-19T14:32:30.001Z</time></trkpt><trkpt lat="41.16363963056334" lon="15.374385469470337"><ele>416.0</ele><time>2026-04-19T14:32:31.001Z</time></trkpt><trkpt lat="41.16370693197143" lon="15.374150052936566"><ele>416.0</ele><time>2026-04-19T14:32:32.001Z</time></trkpt><trkpt lat="41.16377716163624" lon="15.373915493790076"><ele>416.0</ele><time>2026-04-19T14:32:33.001Z</time></trkpt><trkpt lat="41.16385932483504" lon="15.373691649570675"><ele>416.0</ele><time>2026-04-19T14:32:34.001Z</time></trkpt><trkpt lat="41.163945759151616" lon="15.373495252448889"><ele>418.0</ele><time>2026-04-19T14:32:35.001Z</time></trkpt><trkpt lat="41.164034470439404" lon="15.373293273535824"><ele>420.0</ele><time>2026-04-19T14:32:36.001Z</time></trkpt><trkpt lat="41.16412079325516" lon="15.373087153812836"><ele>422.0</ele><time>2026-04-19T14:32:37.001Z</time></trkpt><trkpt lat="41.16420037313276" lon="15.372880440335445"><ele>422.0</ele><time>2026-04-19T14:32:38.001Z</time></trkpt><trkpt lat="41.164279349250236" lon="15.372684672493234"><ele>422.0</ele><time>2026-04-19T14:32:39.001Z</time></trkpt><trkpt lat="41.16434299412144" lon="15.372523585564263"><ele>422.0</ele><time>2026-04-19T14:32:40.001Z</time></trkpt><trkpt lat="41.16439290238867" lon="15.37239056298371"><ele>422.0</ele><time>2026-04-19T14:32:41.001Z</time></trkpt><trkpt lat="41.16443836803756" lon="15.372285268553433"><ele>422.0</ele><time>2026-04-19T14:32:42Z</time></trkpt><trkpt lat="41.164476763416516" lon="15.372215917298966"><ele>422.0</ele><time>2026-04-19T14:32:43Z</time></trkpt><trkpt lat="41.164511737781346" lon="15.372124172542524"><ele>422.0</ele><time>2026-04-19T14:32:46Z</time></trkpt><trkpt lat="41.16454422760979" lon="15.372049108719077"><ele>422.0</ele><time>2026-04-19T14:32:55Z</time></trkpt><trkpt lat="41.16448452572984" lon="15.372104232684935"><ele>422.0</ele><time>2026-04-19T14:32:58Z</time></trkpt><trkpt lat="41.164753256850716" lon="15.372505497535457"><ele>422.0</ele><time>2026-04-19T14:32:59Z</time></trkpt><trkpt lat="41.16469206865143" lon="15.372589058293407"><ele>422.0</ele><time>2026-04-19T14:33:00Z</time></trkpt><trkpt lat="41.164615873454224" lon="15.372700970827575"><ele>422.0</ele><time>2026-04-19T14:33:02Z</time></trkpt><trkpt lat="41.1645164954684" lon="15.372609425931733"><ele>422.0</ele><time>2026-04-19T14:33:05Z</time></trkpt><trkpt lat="41.16436430976773" lon="15.372675115514912"><ele>422.0</ele><time>2026-04-19T14:33:06Z</time></trkpt><trkpt lat="41.164434063949166" lon="15.372766251549866"><ele>422.0</ele><time>2026-04-19T14:33:07Z</time></trkpt><trkpt lat="41.16454012096335" lon="15.372785672161886"><ele>422.0</ele><time>2026-04-19T14:33:08Z</time></trkpt><trkpt lat="41.164607292173" lon="15.372810391473296"><ele>422.0</ele><time>2026-04-19T14:33:09Z</time></trkpt><trkpt lat="41.164630388818196" lon="15.37292262982628"><ele>422.0</ele><time>2026-04-19T14:33:11Z</time></trkpt><trkpt lat="41.164519751827775" lon="15.373024914044644"><ele>423.5</ele><time>2026-04-19T14:33:12Z</time></trkpt><trkpt lat="41.16447346089802" lon="15.373110403916042"><ele>425.0</ele><time>2026-04-19T14:33:13Z</time></trkpt><trkpt lat="41.164564347794915" lon="15.373378605636242"><ele>426.5</ele><time>2026-04-19T14:33:16Z</time></trkpt><trkpt lat="41.16467605006118" lon="15.373374712482086"><ele>428.0</ele><time>2026-04-19T14:33:18Z</time></trkpt><trkpt lat="41.16497125886152" lon="15.373083070075365"><ele>430.4</ele><time>2026-04-19T14:33:21Z</time></trkpt><trkpt lat="41.165070520539544" lon="15.373072580990621"><ele>432.79999999999995</ele><time>2026-04-19T14:33:22Z</time></trkpt><trkpt lat="41.16520041324165" lon="15.372994883528227"><ele>435.2</ele><time>2026-04-19T14:33:24Z</time></trkpt><trkpt lat="41.16528507055804" lon="15.372947689160215"><ele>437.6</ele><time>2026-04-19T14:33:25Z</time></trkpt><trkpt lat="41.165354960861706" lon="15.372917263906222"><ele>440.0</ele><time>2026-04-19T14:33:26Z</time></trkpt><trkpt lat="41.16540217354452" lon="15.372978014032332"><ele>442.16666666666663</ele><time>2026-04-19T14:33:29Z</time></trkpt><trkpt lat="41.16534541919147" lon="15.37306082883486"><ele>444.3333333333333</ele><time>2026-04-19T14:33:31Z</time></trkpt><trkpt lat="41.16526904501297" lon="15.373178484041722"><ele>446.5</ele><time>2026-04-19T14:33:33Z</time></trkpt><trkpt lat="41.165226242824424" lon="15.373270534195976"><ele>448.66666666666663</ele><time>2026-04-19T14:33:34Z</time></trkpt><trkpt lat="41.16521402947394" lon="15.373395950618757"><ele>450.8333333333333</ele><time>2026-04-19T14:33:36Z</time></trkpt><trkpt lat="41.16521635654472" lon="15.373490023392424"><ele>453.0</ele><time>2026-04-19T14:33:38Z</time></trkpt><trkpt lat="41.16524885693368" lon="15.373595966478407"><ele>453.0</ele><time>2026-04-19T14:33:40Z</time></trkpt><trkpt lat="41.16527675233418" lon="15.3736786505658"><ele>452.99999999999994</ele><time>2026-04-19T14:33:41Z</time></trkpt><trkpt lat="41.16535930400516" lon="15.37373635880069"><ele>452.99999999999994</ele><time>2026-04-19T14:33:43Z</time></trkpt><trkpt lat="41.165406938611255" lon="15.373617319177438"><ele>453.0</ele><time>2026-04-19T14:33:45Z</time></trkpt><trkpt lat="41.165451773088215" lon="15.37348517002649"><ele>453.0</ele><time>2026-04-19T14:33:47Z</time></trkpt><trkpt lat="41.165552055095986" lon="15.373430015047644"><ele>453.0</ele><time>2026-04-19T14:33:49Z</time></trkpt><trkpt lat="41.16561757300887" lon="15.37343167338176"><ele>452.99999999999994</ele><time>2026-04-19T14:33:50Z</time></trkpt><trkpt lat="41.1657493974631" lon="15.373429321152047"><ele>452.99999999999994</ele><time>2026-04-19T14:33:52Z</time></trkpt><trkpt lat="41.16581503149152" lon="15.373413208406731"><ele>453.0</ele><time>2026-04-19T14:33:53Z</time></trkpt><trkpt lat="41.16594049778846" lon="15.373365105748945"><ele>453.0</ele><time>2026-04-19T14:33:55Z</time></trkpt><trkpt lat="41.16601538781165" lon="15.373343924370921"><ele>457.3333333333333</ele><time>2026-04-19T14:33:56Z</time></trkpt><trkpt lat="41.16607964626424" lon="15.373340524349135"><ele>461.66666666666663</ele><time>2026-04-19T14:33:57Z</time></trkpt><trkpt lat="41.16615446723135" lon="15.373339933282388"><ele>466.0</ele><time>2026-04-19T14:33:58Z</time></trkpt><trkpt lat="41.16622395177167" lon="15.373352217700964"><ele>470.3333333333333</ele><time>2026-04-19T14:33:59Z</time></trkpt><trkpt lat="41.16630571543172" lon="15.373394459876938"><ele>474.66666666666663</ele><time>2026-04-19T14:34:00Z</time></trkpt><trkpt lat="41.166393152255594" lon="15.37342961410828"><ele>479.0</ele><time>2026-04-19T14:34:01Z</time></trkpt><trkpt lat="41.16651335545867" lon="15.373501015515076"><ele>482.49999999999994</ele><time>2026-04-19T14:34:03Z</time></trkpt><trkpt lat="41.1665826949979" lon="15.373558936853925"><ele>486.0</ele><time>2026-04-19T14:34:04Z</time></trkpt><trkpt lat="41.166657526235376" lon="15.373580916007219"><ele>489.5</ele><time>2026-04-19T14:34:05Z</time></trkpt><trkpt lat="41.16674183283072" lon="15.373625713034404"><ele>493.0</ele><time>2026-04-19T14:34:06Z</time></trkpt><trkpt lat="41.16682081647117" lon="15.373665316982615"><ele>496.49999999999994</ele><time>2026-04-19T14:34:07Z</time></trkpt><trkpt lat="41.16690215132391" lon="15.373691465097194"><ele>500.0</ele><time>2026-04-19T14:34:08Z</time></trkpt><trkpt lat="41.16700666741038" lon="15.373721278260716"><ele>499.99999999999994</ele><time>2026-04-19T14:34:09Z</time></trkpt><trkpt lat="41.167121162424735" lon="15.373766996559672"><ele>500.0</ele><time>2026-04-19T14:34:10Z</time></trkpt><trkpt lat="41.16720670471946" lon="15.373798671644344"><ele>500.0</ele><time>2026-04-19T14:34:11Z</time></trkpt><trkpt lat="41.1672797053821" lon="15.373814282975635"><ele>500.0</ele><time>2026-04-19T14:34:12Z</time></trkpt><trkpt lat="41.16735823019366" lon="15.373812612016035"><ele>499.99999999999994</ele><time>2026-04-19T14:34:13Z</time></trkpt><trkpt lat="41.167427538081874" lon="15.373824440517636"><ele>500.0</ele><time>2026-04-19T14:34:14Z</time></trkpt><trkpt lat="41.167502766633376" lon="15.373839717833574"><ele>500.2</ele><time>2026-04-19T14:34:15Z</time></trkpt><trkpt lat="41.16756606506147" lon="15.373833844880178"><ele>500.4</ele><time>2026-04-19T14:34:16Z</time></trkpt><trkpt lat="41.16767897514099" lon="15.3738895492462"><ele>500.6</ele><time>2026-04-19T14:34:18Z</time></trkpt><trkpt lat="41.16776221118426" lon="15.373947265711564"><ele>500.8</ele><time>2026-04-19T14:34:19Z</time></trkpt><trkpt lat="41.1678783939293" lon="15.374017278807974"><ele>501.0</ele><time>2026-04-19T14:34:20Z</time></trkpt><trkpt lat="41.16801506821349" lon="15.374119845748671"><ele>501.0</ele><time>2026-04-19T14:34:21Z</time></trkpt><trkpt lat="41.16816158018885" lon="15.37423121663246"><ele>501.0</ele><time>2026-04-19T14:34:22Z</time></trkpt><trkpt lat="41.16827176082534" lon="15.374330388125681"><ele>501.0</ele><time>2026-04-19T14:34:23Z</time></trkpt><trkpt lat="41.16838435296429" lon="15.374418270021614"><ele>501.0</ele><time>2026-04-19T14:34:24Z</time></trkpt><trkpt lat="41.168476809430395" lon="15.374508265147067"><ele>502.25</ele><time>2026-04-19T14:34:25Z</time></trkpt><trkpt lat="41.16858758629641" lon="15.374624630068286"><ele>503.5</ele><time>2026-04-19T14:34:26Z</time></trkpt><trkpt lat="41.168717346575406" lon="15.374740182842052"><ele>504.75</ele><time>2026-04-19T14:34:27Z</time></trkpt><trkpt lat="41.1688260954017" lon="15.374845898024839"><ele>506.0</ele><time>2026-04-19T14:34:28Z</time></trkpt><trkpt lat="41.1689005543789" lon="15.374917322862782"><ele>506.0</ele><time>2026-04-19T14:34:29.001Z</time></trkpt><trkpt lat="41.16898370467823" lon="15.37496207831234"><ele>506.0</ele><time>2026-04-19T14:34:30.001Z</time></trkpt><trkpt lat="41.169074078595614" lon="15.374993669261212"><ele>506.0</ele><time>2026-04-19T14:34:31.001Z</time></trkpt><trkpt lat="41.16920063671375" lon="15.375000198820647"><ele>506.0</ele><time>2026-04-19T14:34:32.001Z</time></trkpt><trkpt lat="41.16936431136283" lon="15.37500223941257"><ele>508.75</ele><time>2026-04-19T14:34:33.001Z</time></trkpt><trkpt lat="41.16952027063975" lon="15.375015839108732"><ele>511.5</ele><time>2026-04-19T14:34:34.001Z</time></trkpt><trkpt lat="41.169652717756755" lon="15.375049820367785"><ele>514.25</ele><time>2026-04-19T14:34:35.001Z</time></trkpt><trkpt lat="41.16977217800625" lon="15.375106721836795"><ele>517.0</ele><time>2026-04-19T14:34:36.001Z</time></trkpt><trkpt lat="41.16988104142219" lon="15.375165276599995"><ele>519.6</ele><time>2026-04-19T14:34:37.001Z</time></trkpt><trkpt lat="41.16996261430512" lon="15.37522352061466"><ele>522.2</ele><time>2026-04-19T14:34:38.001Z</time></trkpt><trkpt lat="41.17004484585214" lon="15.375276050426463"><ele>524.8</ele><time>2026-04-19T14:34:39Z</time></trkpt><trkpt lat="41.17013178180766" lon="15.375324408646046"><ele>527.4</ele><time>2026-04-19T14:34:40Z</time></trkpt><trkpt lat="41.17024502417547" lon="15.375373827210506"><ele>530.0</ele><time>2026-04-19T14:34:41Z</time></trkpt><trkpt lat="41.170394008430264" lon="15.375402444932744"><ele>530.0</ele><time>2026-04-19T14:34:42Z</time></trkpt><trkpt lat="41.170531933788304" lon="15.375400479975273"><ele>530.0</ele><time>2026-04-19T14:34:43Z</time></trkpt><trkpt lat="41.170657040827194" lon="15.375400430860317"><ele>530.0</ele><time>2026-04-19T14:34:44Z</time></trkpt><trkpt lat="41.17078856070571" lon="15.375409149591372"><ele>530.0</ele><time>2026-04-19T14:34:45Z</time></trkpt><trkpt lat="41.170923372828625" lon="15.375417764572687"><ele>531.1666666666666</ele><time>2026-04-19T14:34:46Z</time></trkpt><trkpt lat="41.17103864380655" lon="15.37542547816353"><ele>532.3333333333333</ele><time>2026-04-19T14:34:47Z</time></trkpt><trkpt lat="41.17113574862023" lon="15.375423380002252"><ele>533.5</ele><time>2026-04-19T14:34:48Z</time></trkpt><trkpt lat="41.17121575305878" lon="15.37540452773393"><ele>534.6666666666666</ele><time>2026-04-19T14:34:49Z</time></trkpt><trkpt lat="41.17127607116868" lon="15.37537093733755"><ele>535.8333333333334</ele><time>2026-04-19T14:34:50Z</time></trkpt><trkpt lat="41.171346065165075" lon="15.375306868542376"><ele>537.0</ele><time>2026-04-19T14:34:52Z</time></trkpt><trkpt lat="41.17140583300461" lon="15.375264650020865"><ele>537.0</ele><time>2026-04-19T14:34:53Z</time></trkpt><trkpt lat="41.17149157516041" lon="15.375211157281678"><ele>537.0</ele><time>2026-04-19T14:34:54Z</time></trkpt><trkpt lat="41.17159622906143" lon="15.375138567722404"><ele>537.0</ele><time>2026-04-19T14:34:55Z</time></trkpt><trkpt lat="41.171714531545604" lon="15.375049807073324"><ele>537.0</ele><time>2026-04-19T14:34:56Z</time></trkpt><trkpt lat="41.1718452503791" lon="15.374954260702571"><ele>538.75</ele><time>2026-04-19T14:34:57Z</time></trkpt><trkpt lat="41.17199027555671" lon="15.374858536288714"><ele>540.5</ele><time>2026-04-19T14:34:58Z</time></trkpt><trkpt lat="41.17211179186559" lon="15.374775917993786"><ele>542.25</ele><time>2026-04-19T14:34:59Z</time></trkpt><trkpt lat="41.1722095846701" lon="15.374709176173374"><ele>544.0</ele><time>2026-04-19T14:35:00Z</time></trkpt><trkpt lat="41.17228710728735" lon="15.374657343795295"><ele>546.8</ele><time>2026-04-19T14:35:01Z</time></trkpt><trkpt lat="41.172358598781315" lon="15.374625240543082"><ele>549.5999999999999</ele><time>2026-04-19T14:35:02Z</time></trkpt><trkpt lat="41.17248850364024" lon="15.374696277608136"><ele>552.4</ele><time>2026-04-19T14:35:04Z</time></trkpt><trkpt lat="41.17254787305643" lon="15.374771130380715"><ele>555.1999999999999</ele><time>2026-04-19T14:35:05Z</time></trkpt><trkpt lat="41.17260932330653" lon="15.374845555563697"><ele>558.0</ele><time>2026-04-19T14:35:06Z</time></trkpt><trkpt lat="41.17267702006069" lon="15.374923753147717"><ele>558.1999999999999</ele><time>2026-04-19T14:35:07Z</time></trkpt><trkpt lat="41.17276558973405" lon="15.375009295438904"><ele>558.4</ele><time>2026-04-19T14:35:08Z</time></trkpt><trkpt lat="41.17286479035602" lon="15.375105867036254"><ele>558.5999999999999</ele><time>2026-04-19T14:35:09Z</time></trkpt><trkpt lat="41.17294594532303" lon="15.375173406468976"><ele>558.8</ele><time>2026-04-19T14:35:10Z</time></trkpt><trkpt lat="41.173023725984315" lon="15.375234296644013"><ele>559.0</ele><time>2026-04-19T14:35:11Z</time></trkpt><trkpt lat="41.17309947251786" lon="15.37524197245938"><ele>559.0</ele><time>2026-04-19T14:35:14Z</time></trkpt><trkpt lat="41.173141921583465" lon="15.375305416935177"><ele>559.0</ele><time>2026-04-19T14:35:39Z</time></trkpt><trkpt lat="41.173212346178005" lon="15.375359912729994"><ele>559.0</ele><time>2026-04-19T14:35:42Z</time></trkpt><trkpt lat="41.173271206194734" lon="15.375402504819"><ele>559.0</ele><time>2026-04-19T14:35:44Z</time></trkpt><trkpt lat="41.17334402030542" lon="15.375400880151114"><ele>559.0</ele><time>2026-04-19T14:35:46Z</time></trkpt><trkpt lat="41.173417897423434" lon="15.375435318998948"><ele>559.0</ele><time>2026-04-19T14:35:48Z</time></trkpt><trkpt lat="41.173462530209854" lon="15.37552618727757"><ele>559.0</ele><time>2026-04-19T14:35:50Z</time></trkpt><trkpt lat="41.173504675417696" lon="15.375590558190005"><ele>560.1666666666667</ele><time>2026-04-19T14:35:51Z</time></trkpt><trkpt lat="41.1735614999077" lon="15.375640546446306"><ele>561.3333333333334</ele><time>2026-04-19T14:35:52Z</time></trkpt><trkpt lat="41.17361958020495" lon="15.375689087080257"><ele>562.5</ele><time>2026-04-19T14:35:53Z</time></trkpt><trkpt lat="41.173682422096434" lon="15.37575547609843"><ele>563.6666666666666</ele><time>2026-04-19T14:35:54Z</time></trkpt><trkpt lat="41.17375969335389" lon="15.375822878507826"><ele>564.8333333333333</ele><time>2026-04-19T14:35:56Z</time></trkpt><trkpt lat="41.173821722616914" lon="15.37592208774586"><ele>566.0</ele><time>2026-04-19T14:35:58Z</time></trkpt><trkpt lat="41.173865662336134" lon="15.376045569154165"><ele>566.0</ele><time>2026-04-19T14:36:00Z</time></trkpt><trkpt lat="41.17384440304542" lon="15.376156603537224"><ele>566.0</ele><time>2026-04-19T14:36:02Z</time></trkpt><trkpt lat="41.173940337735345" lon="15.376173169416862"><ele>566.0</ele><time>2026-04-19T14:36:05Z</time></trkpt><trkpt lat="41.1739925470873" lon="15.376077876081236"><ele>566.0</ele><time>2026-04-19T14:36:07Z</time></trkpt><trkpt lat="41.17408214495853" lon="15.37603576079078"><ele>566.0</ele><time>2026-04-19T14:36:09Z</time></trkpt><trkpt lat="41.17425864084984" lon="15.375876452161627"><ele>569.4</ele><time>2026-04-19T14:36:11Z</time></trkpt><trkpt lat="41.17433840253968" lon="15.375814367760313"><ele>572.8</ele><time>2026-04-19T14:36:12Z</time></trkpt><trkpt lat="41.17446638066088" lon="15.375824723542879"><ele>576.1999999999999</ele><time>2026-04-19T14:36:14Z</time></trkpt><trkpt lat="41.17453762700107" lon="15.375846951223236"><ele>579.6</ele><time>2026-04-19T14:36:16Z</time></trkpt><trkpt lat="41.174440859957386" lon="15.375828753752385"><ele>583.0</ele><time>2026-04-19T14:36:41Z</time></trkpt><trkpt lat="41.17437072676403" lon="15.375819375205431"><ele>583.0</ele><time>2026-04-19T14:36:43Z</time></trkpt><trkpt lat="41.174290526733785" lon="15.375797968438143"><ele>583.0</ele><time>2026-04-19T14:36:46Z</time></trkpt><trkpt lat="41.17424034336223" lon="15.375868067106833"><ele>583.0</ele><time>2026-04-19T14:36:49Z</time></trkpt><trkpt lat="41.174181676181554" lon="15.375952093376931"><ele>583.0</ele><time>2026-04-19T14:36:52Z</time></trkpt><trkpt lat="41.17410044407168" lon="15.37601201940621"><ele>583.0</ele><time>2026-04-19T14:36:55Z</time></trkpt><trkpt lat="41.17402659349615" lon="15.376074505361712"><ele>583.0</ele><time>2026-04-19T14:36:58Z</time></trkpt><trkpt lat="41.17408985379382" lon="15.376056418137576"><ele>583.0</ele><time>2026-04-19T14:37:59Z</time></trkpt><trkpt lat="41.174159556179525" lon="15.375962494774406"><ele>583.0</ele><time>2026-04-19T14:38:01Z</time></trkpt><trkpt lat="41.17425487357792" lon="15.375882565637086"><ele>583.0</ele><time>2026-04-19T14:38:03Z</time></trkpt><trkpt lat="41.17432745507839" lon="15.375827130724259"><ele>583.0</ele><time>2026-04-19T14:38:04Z</time></trkpt><trkpt lat="41.17440888594375" lon="15.375811817866554"><ele>583.0</ele><time>2026-04-19T14:38:05Z</time></trkpt><trkpt lat="41.17450274112688" lon="15.375813967493762"><ele>583.0</ele><time>2026-04-19T14:38:06Z</time></trkpt><trkpt lat="41.17460734897015" lon="15.375818407315636"><ele>583.0</ele><time>2026-04-19T14:38:07Z</time></trkpt><trkpt lat="41.17472730945652" lon="15.375812574300417"><ele>583.0</ele><time>2026-04-19T14:38:08Z</time></trkpt><trkpt lat="41.174838818245576" lon="15.375805262012744"><ele>583.0</ele><time>2026-04-19T14:38:09Z</time></trkpt><trkpt lat="41.17496802701957" lon="15.375818306406703"><ele>586.1999999999999</ele><time>2026-04-19T14:38:10Z</time></trkpt><trkpt lat="41.175086356836644" lon="15.375827803274417"><ele>589.4</ele><time>2026-04-19T14:38:11Z</time></trkpt><trkpt lat="41.175162975401356" lon="15.375839841673724"><ele>592.5999999999999</ele><time>2026-04-19T14:38:12Z</time></trkpt><trkpt lat="41.17527349417311" lon="15.375818847971495"><ele>595.8</ele><time>2026-04-19T14:38:13Z</time></trkpt><trkpt lat="41.17541082076593" lon="15.375800196402762"><ele>599.0</ele><time>2026-04-19T14:38:14Z</time></trkpt><trkpt lat="41.17554290923914" lon="15.375776279601716"><ele>599.0</ele><time>2026-04-19T14:38:15Z</time></trkpt><trkpt lat="41.1756564788382" lon="15.375765319233773"><ele>599.0</ele><time>2026-04-19T14:38:16Z</time></trkpt><trkpt lat="41.17577631662081" lon="15.375762882796222"><ele>599.0</ele><time>2026-04-19T14:38:17Z</time></trkpt><trkpt lat="41.175922178496954" lon="15.375754975023685"><ele>599.0</ele><time>2026-04-19T14:38:18Z</time></trkpt><trkpt lat="41.17607530460006" lon="15.37573771708609"><ele>604.3333333333333</ele><time>2026-04-19T14:38:19Z</time></trkpt><trkpt lat="41.17623557455525" lon="15.375718891256282"><ele>609.6666666666666</ele><time>2026-04-19T14:38:20Z</time></trkpt><trkpt lat="41.176411472932585" lon="15.375685921194545"><ele>615.0</ele><time>2026-04-19T14:38:21Z</time></trkpt><trkpt lat="41.176592802910285" lon="15.375640425891646"><ele>619.25</ele><time>2026-04-19T14:38:22Z</time></trkpt><trkpt lat="41.1767541210472" lon="15.375604484975286"><ele>623.5</ele><time>2026-04-19T14:38:23Z</time></trkpt><trkpt lat="41.17688835233745" lon="15.375587424144515"><ele>627.75</ele><time>2026-04-19T14:38:24Z</time></trkpt><trkpt lat="41.17700040009334" lon="15.375564009689002"><ele>632.0</ele><time>2026-04-19T14:38:25Z</time></trkpt><trkpt lat="41.17710926487144" lon="15.375541488967908"><ele>632.2</ele><time>2026-04-19T14:38:26Z</time></trkpt><trkpt lat="41.177182484467735" lon="15.375507965661061"><ele>632.4000000000001</ele><time>2026-04-19T14:38:27Z</time></trkpt><trkpt lat="41.17725978301878" lon="15.37543330688239"><ele>632.5999999999999</ele><time>2026-04-19T14:38:28Z</time></trkpt><trkpt lat="41.177329163171486" lon="15.375355423803796"><ele>632.8</ele><time>2026-04-19T14:38:29Z</time></trkpt><trkpt lat="41.17743888877879" lon="15.37528561627351"><ele>633.0</ele><time>2026-04-19T14:38:31Z</time></trkpt><trkpt lat="41.17753239457251" lon="15.37528044106306"><ele>636.1666666666666</ele><time>2026-04-19T14:38:32Z</time></trkpt><trkpt lat="41.17760507314122" lon="15.375289818881198"><ele>639.3333333333334</ele><time>2026-04-19T14:38:33Z</time></trkpt><trkpt lat="41.177697666674206" lon="15.375322238106698"><ele>642.5</ele><time>2026-04-19T14:38:34Z</time></trkpt><trkpt lat="41.17779556498941" lon="15.375336817557669"><ele>645.6666666666667</ele><time>2026-04-19T14:38:35Z</time></trkpt><trkpt lat="41.17786845760089" lon="15.375321885342366"><ele>648.8333333333334</ele><time>2026-04-19T14:38:36Z</time></trkpt><trkpt lat="41.177945520356936" lon="15.375285684782977"><ele>652.0</ele><time>2026-04-19T14:38:37Z</time></trkpt><trkpt lat="41.178036642549664" lon="15.375248925013805"><ele>652.0</ele><time>2026-04-19T14:38:38Z</time></trkpt><trkpt lat="41.17813255890089" lon="15.375218032386854"><ele>652.0</ele><time>2026-04-19T14:38:39Z</time></trkpt><trkpt lat="41.17821574421922" lon="15.375196077609557"><ele>652.0</ele><time>2026-04-19T14:38:40Z</time></trkpt><trkpt lat="41.178308383357574" lon="15.375193056166033"><ele>652.0</ele><time>2026-04-19T14:38:41Z</time></trkpt><trkpt lat="41.17842276490326" lon="15.375196831400151"><ele>652.0</ele><time>2026-04-19T14:38:42Z</time></trkpt><trkpt lat="41.178541595989834" lon="15.375205978616474"><ele>654.8</ele><time>2026-04-19T14:38:43Z</time></trkpt><trkpt lat="41.17863045401759" lon="15.375227816205703"><ele>657.6</ele><time>2026-04-19T14:38:44Z</time></trkpt><trkpt lat="41.17869889204623" lon="15.375253428101136"><ele>660.4</ele><time>2026-04-19T14:38:45Z</time></trkpt><trkpt lat="41.17877910708093" lon="15.375338509629744"><ele>663.1999999999999</ele><time>2026-04-19T14:38:47Z</time></trkpt><trkpt lat="41.17882321899114" lon="15.375430442057283"><ele>666.0</ele><time>2026-04-19T14:38:48Z</time></trkpt><trkpt lat="41.17891605616453" lon="15.37553496272166"><ele>667.1999999999999</ele><time>2026-04-19T14:38:49Z</time></trkpt><trkpt lat="41.179018048091415" lon="15.37558765226823"><ele>668.4</ele><time>2026-04-19T14:38:50Z</time></trkpt><trkpt lat="41.179110912254394" lon="15.375593438135363"><ele>669.6</ele><time>2026-04-19T14:38:51Z</time></trkpt><trkpt lat="41.17922291525531" lon="15.375586990057526"><ele>670.8</ele><time>2026-04-19T14:38:52Z</time></trkpt><trkpt lat="41.17935126388394" lon="15.375596316166957"><ele>672.0</ele><time>2026-04-19T14:38:53Z</time></trkpt><trkpt lat="41.17948578527304" lon="15.375638701996014"><ele>672.0</ele><time>2026-04-19T14:38:54Z</time></trkpt><trkpt lat="41.17961423269901" lon="15.37568284609653"><ele>672.0</ele><time>2026-04-19T14:38:55Z</time></trkpt><trkpt lat="41.17972141893302" lon="15.375701815572537"><ele>672.0</ele><time>2026-04-19T14:38:56Z</time></trkpt><trkpt lat="41.179824473830934" lon="15.375695458519326"><ele>672.0</ele><time>2026-04-19T14:38:57Z</time></trkpt><trkpt lat="41.17992051291352" lon="15.375689332514613"><ele>672.0</ele><time>2026-04-19T14:38:58Z</time></trkpt><trkpt lat="41.18001801672391" lon="15.37570400087058"><ele>672.6666666666666</ele><time>2026-04-19T14:38:59Z</time></trkpt><trkpt lat="41.180123676374805" lon="15.37573938056463"><ele>673.3333333333334</ele><time>2026-04-19T14:39:00Z</time></trkpt><trkpt lat="41.18021360599637" lon="15.375786059751047"><ele>674.0</ele><time>2026-04-19T14:39:01Z</time></trkpt><trkpt lat="41.18028379236842" lon="15.37584782759527"><ele>674.6666666666667</ele><time>2026-04-19T14:39:02Z</time></trkpt><trkpt lat="41.180334477749426" lon="15.375912397606994"><ele>675.3333333333334</ele><time>2026-04-19T14:39:03Z</time></trkpt><trkpt lat="41.18038008698854" lon="15.375977059355717"><ele>676.0</ele><time>2026-04-19T14:39:04Z</time></trkpt><trkpt lat="41.18042210567075" lon="15.37605240852782"><ele>676.0</ele><time>2026-04-19T14:39:05Z</time></trkpt><trkpt lat="41.180482303480076" lon="15.376195633182977"><ele>676.0</ele><time>2026-04-19T14:39:07Z</time></trkpt><trkpt lat="41.18054162628697" lon="15.376313548813606"><ele>676.0</ele><time>2026-04-19T14:39:09Z</time></trkpt><trkpt lat="41.18053440918984" lon="15.376454116794372"><ele>676.0</ele><time>2026-04-19T14:39:11Z</time></trkpt><trkpt lat="41.18048541173426" lon="15.376595662883142"><ele>675.3333333333334</ele><time>2026-04-19T14:39:13Z</time></trkpt><trkpt lat="41.180457151026296" lon="15.376682113089135"><ele>674.6666666666667</ele><time>2026-04-19T14:39:14Z</time></trkpt><trkpt lat="41.18042647109296" lon="15.376784350933795"><ele>674.0</ele><time>2026-04-19T14:39:15Z</time></trkpt><trkpt lat="41.18040106117684" lon="15.376894114970598"><ele>673.3333333333334</ele><time>2026-04-19T14:39:16Z</time></trkpt><trkpt lat="41.18037969188353" lon="15.37701749694782"><ele>672.6666666666666</ele><time>2026-04-19T14:39:17Z</time></trkpt><trkpt lat="41.180365687968" lon="15.377130806593993"><ele>672.0</ele><time>2026-04-19T14:39:18Z</time></trkpt><trkpt lat="41.18033623852749" lon="15.377267159215679"><ele>669.25</ele><time>2026-04-19T14:39:19Z</time></trkpt><trkpt lat="41.18029606210169" lon="15.377416793173179"><ele>666.5</ele><time>2026-04-19T14:39:20Z</time></trkpt><trkpt lat="41.18025529509072" lon="15.377565209414362"><ele>663.75</ele><time>2026-04-19T14:39:21Z</time></trkpt><trkpt lat="41.18021596044244" lon="15.377707114488546"><ele>661.0</ele><time>2026-04-19T14:39:22Z</time></trkpt><trkpt lat="41.18018352068403" lon="15.377833161618687"><ele>661.0</ele><time>2026-04-19T14:39:23Z</time></trkpt><trkpt lat="41.18010827575035" lon="15.377945409604918"><ele>661.0</ele><time>2026-04-19T14:39:24Z</time></trkpt><trkpt lat="41.18007508880141" lon="15.378066820807042"><ele>661.0</ele><time>2026-04-19T14:39:25Z</time></trkpt><trkpt lat="41.18004668380182" lon="15.378183445392793"><ele>661.0</ele><time>2026-04-19T14:39:26Z</time></trkpt><trkpt lat="41.18002108086166" lon="15.37830929720987"><ele>661.0</ele><time>2026-04-19T14:39:27Z</time></trkpt><trkpt lat="41.18000056273338" lon="15.378431894767909"><ele>658.4</ele><time>2026-04-19T14:39:28Z</time></trkpt><trkpt lat="41.179979833670416" lon="15.378575850694666"><ele>655.8</ele><time>2026-04-19T14:39:29Z</time></trkpt><trkpt lat="41.17996502255657" lon="15.378705953130885"><ele>653.1999999999999</ele><time>2026-04-19T14:39:30Z</time></trkpt><trkpt lat="41.17994403678587" lon="15.378838357637376"><ele>650.5999999999999</ele><time>2026-04-19T14:39:31Z</time></trkpt><trkpt lat="41.17991992555831" lon="15.378978540107713"><ele>648.0</ele><time>2026-04-19T14:39:32Z</time></trkpt><trkpt lat="41.17989625442866" lon="15.379116163902415"><ele>645.4</ele><time>2026-04-19T14:39:33Z</time></trkpt><trkpt lat="41.17987786848803" lon="15.379239242244573"><ele>642.8</ele><time>2026-04-19T14:39:34Z</time></trkpt><trkpt lat="41.1798853491" lon="15.379366497868121"><ele>640.2</ele><time>2026-04-19T14:39:35Z</time></trkpt><trkpt lat="41.17986779629755" lon="15.379465773390743"><ele>637.6</ele><time>2026-04-19T14:39:36Z</time></trkpt><trkpt lat="41.17986951833625" lon="15.379567190537895"><ele>635.0</ele><time>2026-04-19T14:39:37Z</time></trkpt><trkpt lat="41.17986767424502" lon="15.37975682687405"><ele>632.8</ele><time>2026-04-19T14:39:39Z</time></trkpt><trkpt lat="41.179843601721764" lon="15.379874399654922"><ele>630.6</ele><time>2026-04-19T14:39:40Z</time></trkpt><trkpt lat="41.17980946341203" lon="15.379996647752977"><ele>628.4</ele><time>2026-04-19T14:39:41Z</time></trkpt><trkpt lat="41.17976954808244" lon="15.380118964783502"><ele>626.2</ele><time>2026-04-19T14:39:42Z</time></trkpt><trkpt lat="41.1797196622541" lon="15.380243704957477"><ele>624.0</ele><time>2026-04-19T14:39:43Z</time></trkpt><trkpt lat="41.17966592978656" lon="15.380370908303359"><ele>624.0</ele><time>2026-04-19T14:39:44Z</time></trkpt><trkpt lat="41.17961083677622" lon="15.380496118421325"><ele>624.0</ele><time>2026-04-19T14:39:45Z</time></trkpt><trkpt lat="41.17955838296601" lon="15.380631582712407"><ele>624.0</ele><time>2026-04-19T14:39:46Z</time></trkpt><trkpt lat="41.17951519572213" lon="15.380753959258316"><ele>624.0</ele><time>2026-04-19T14:39:47Z</time></trkpt><trkpt lat="41.179468295758504" lon="15.38086539351023"><ele>624.0</ele><time>2026-04-19T14:39:48Z</time></trkpt><trkpt lat="41.1794201251832" lon="15.380955689189852"><ele>621.0</ele><time>2026-04-19T14:39:49Z</time></trkpt><trkpt lat="41.179371150146864" lon="15.381037613877107"><ele>618.0</ele><time>2026-04-19T14:39:50Z</time></trkpt><trkpt lat="41.17931567573258" lon="15.381132031820457"><ele>615.0</ele><time>2026-04-19T14:39:51Z</time></trkpt><trkpt lat="41.17924876166215" lon="15.381259636482294"><ele>612.0</ele><time>2026-04-19T14:39:53Z</time></trkpt><trkpt lat="41.179208246025446" lon="15.381330152846786"><ele>609.0</ele><time>2026-04-19T14:39:55Z</time></trkpt><trkpt lat="41.179311221399814" lon="15.381431295188627"><ele>607.4</ele><time>2026-04-19T14:39:57Z</time></trkpt><trkpt lat="41.179385992368594" lon="15.381467277717341"><ele>605.8</ele><time>2026-04-19T14:40:00Z</time></trkpt><trkpt lat="41.17946502979271" lon="15.381504852951432"><ele>604.2</ele><time>2026-04-19T14:40:28Z</time></trkpt><trkpt lat="41.17955891627177" lon="15.381570657074361"><ele>602.6</ele><time>2026-04-19T14:40:30Z</time></trkpt><trkpt lat="41.17965198737516" lon="15.381665942219705"><ele>601.0</ele><time>2026-04-19T14:40:32Z</time></trkpt><trkpt lat="41.17971067836567" lon="15.381732678802136"><ele>601.0</ele><time>2026-04-19T14:40:33Z</time></trkpt><trkpt lat="41.179784746490704" lon="15.381794876906666"><ele>601.0</ele><time>2026-04-19T14:40:34Z</time></trkpt><trkpt lat="41.1798651754351" lon="15.381889643868508"><ele>601.0</ele><time>2026-04-19T14:40:35Z</time></trkpt><trkpt lat="41.179956328240394" lon="15.38196027661444"><ele>601.0</ele><time>2026-04-19T14:40:36Z</time></trkpt><trkpt lat="41.18005677544277" lon="15.382021738353886"><ele>601.0</ele><time>2026-04-19T14:40:37Z</time></trkpt><trkpt lat="41.18015330942436" lon="15.382065810788133"><ele>602.0</ele><time>2026-04-19T14:40:38Z</time></trkpt><trkpt lat="41.18023168082783" lon="15.38209355089912"><ele>603.0</ele><time>2026-04-19T14:40:39Z</time></trkpt><trkpt lat="41.180295326130086" lon="15.38211516087183"><ele>604.0</ele><time>2026-04-19T14:40:40Z</time></trkpt><trkpt lat="41.18037238157762" lon="15.382140098352727"><ele>605.0</ele><time>2026-04-19T14:40:41Z</time></trkpt><trkpt lat="41.18045122586635" lon="15.382163039121021"><ele>606.0</ele><time>2026-04-19T14:40:42Z</time></trkpt><trkpt lat="41.180528887389045" lon="15.382181293807232"><ele>607.0</ele><time>2026-04-19T14:40:43Z</time></trkpt><trkpt lat="41.18059801538163" lon="15.38218155824094"><ele>607.0</ele><time>2026-04-19T14:40:44Z</time></trkpt><trkpt lat="41.180678160165655" lon="15.38216667488409"><ele>607.0</ele><time>2026-04-19T14:40:45Z</time></trkpt><trkpt lat="41.18076925032631" lon="15.382132358052234"><ele>607.0</ele><time>2026-04-19T14:40:46Z</time></trkpt><trkpt lat="41.18085770837705" lon="15.382066149519284"><ele>607.0</ele><time>2026-04-19T14:40:47Z</time></trkpt><trkpt lat="41.18094865941633" lon="15.381978425047185"><ele>607.0</ele><time>2026-04-19T14:40:48Z</time></trkpt><trkpt lat="41.18103812765259" lon="15.381910855669794"><ele>607.4</ele><time>2026-04-19T14:40:49Z</time></trkpt><trkpt lat="41.18113141715491" lon="15.381877924530244"><ele>607.8000000000001</ele><time>2026-04-19T14:40:50Z</time></trkpt><trkpt lat="41.181236613360234" lon="15.381867870080239"><ele>608.2</ele><time>2026-04-19T14:40:51Z</time></trkpt><trkpt lat="41.18135066500526" lon="15.381882848548875"><ele>608.6</ele><time>2026-04-19T14:40:52Z</time></trkpt><trkpt lat="41.18146631210009" lon="15.381901467972668"><ele>609.0</ele><time>2026-04-19T14:40:53Z</time></trkpt><trkpt lat="41.18158403932024" lon="15.381921970046172"><ele>607.25</ele><time>2026-04-19T14:40:54Z</time></trkpt><trkpt lat="41.18171375717985" lon="15.381948339403904"><ele>605.5</ele><time>2026-04-19T14:40:55Z</time></trkpt><trkpt lat="41.181836517459885" lon="15.381980996370455"><ele>603.75</ele><time>2026-04-19T14:40:56Z</time></trkpt><trkpt lat="41.181947886037804" lon="15.382078417865522"><ele>602.0</ele><time>2026-04-19T14:40:57Z</time></trkpt><trkpt lat="41.18208520262226" lon="15.382178366049782"><ele>600.0</ele><time>2026-04-19T14:40:58Z</time></trkpt><trkpt lat="41.18222222267412" lon="15.382293701681588"><ele>598.0</ele><time>2026-04-19T14:40:59Z</time></trkpt><trkpt lat="41.18234061928614" lon="15.38241550519435"><ele>596.0</ele><time>2026-04-19T14:41:00Z</time></trkpt><trkpt lat="41.18245699151692" lon="15.382543311066218"><ele>596.0</ele><time>2026-04-19T14:41:01Z</time></trkpt><trkpt lat="41.18256720910328" lon="15.382661339597114"><ele>596.0</ele><time>2026-04-19T14:41:02Z</time></trkpt><trkpt lat="41.182717095829226" lon="15.382745806726644"><ele>596.0</ele><time>2026-04-19T14:41:03Z</time></trkpt><trkpt lat="41.182833657574214" lon="15.382857955696558"><ele>596.0</ele><time>2026-04-19T14:41:04Z</time></trkpt><trkpt lat="41.182947543445884" lon="15.382961453929143"><ele>596.25</ele><time>2026-04-19T14:41:05Z</time></trkpt><trkpt lat="41.18305266763542" lon="15.38308676263457"><ele>596.5</ele><time>2026-04-19T14:41:06Z</time></trkpt><trkpt lat="41.183160190275636" lon="15.383227041985053"><ele>596.75</ele><time>2026-04-19T14:41:07Z</time></trkpt><trkpt lat="41.183265666006754" lon="15.383382068827883"><ele>597.0</ele><time>2026-04-19T14:41:08Z</time></trkpt><trkpt lat="41.183358827335155" lon="15.383520833866443"><ele>597.0</ele><time>2026-04-19T14:41:09Z</time></trkpt><trkpt lat="41.183469296667255" lon="15.383672455478456"><ele>597.0</ele><time>2026-04-19T14:41:10Z</time></trkpt><trkpt lat="41.1835759332855" lon="15.383814158426512"><ele>597.0</ele><time>2026-04-19T14:41:11Z</time></trkpt><trkpt lat="41.18367130567511" lon="15.383920234844824"><ele>597.0</ele><time>2026-04-19T14:41:12Z</time></trkpt><trkpt lat="41.1837305845308" lon="15.384040007910862"><ele>597.2</ele><time>2026-04-19T14:41:13Z</time></trkpt><trkpt lat="41.18379465373895" lon="15.384127053673303"><ele>597.4000000000001</ele><time>2026-04-19T14:41:14Z</time></trkpt><trkpt lat="41.183879633364896" lon="15.384196416229237"><ele>597.5999999999999</ele><time>2026-04-19T14:41:15Z</time></trkpt><trkpt lat="41.1839770747434" lon="15.384261248000204"><ele>597.8</ele><time>2026-04-19T14:41:16Z</time></trkpt><trkpt lat="41.18407581884365" lon="15.384330681346242"><ele>598.0</ele><time>2026-04-19T14:41:17Z</time></trkpt><trkpt lat="41.18416304913199" lon="15.384376677815741"><ele>598.0</ele><time>2026-04-19T14:41:18Z</time></trkpt><trkpt lat="41.18426646992395" lon="15.384408959721906"><ele>598.0</ele><time>2026-04-19T14:41:19Z</time></trkpt><trkpt lat="41.18437514924357" lon="15.38441878611324"><ele>598.0</ele><time>2026-04-19T14:41:20Z</time></trkpt><trkpt lat="41.18449666298765" lon="15.384393283824336"><ele>598.0</ele><time>2026-04-19T14:41:21Z</time></trkpt><trkpt lat="41.18462589500611" lon="15.38436468104299"><ele>598.0</ele><time>2026-04-19T14:41:22Z</time></trkpt><trkpt lat="41.18477802936142" lon="15.384327821569324"><ele>598.0</ele><time>2026-04-19T14:41:23Z</time></trkpt><trkpt lat="41.18492597857504" lon="15.384289329006402"><ele>598.0</ele><time>2026-04-19T14:41:24Z</time></trkpt><trkpt lat="41.18504512004929" lon="15.384265331067846"><ele>598.0</ele><time>2026-04-19T14:41:25Z</time></trkpt><trkpt lat="41.185148876799644" lon="15.384242695759252"><ele>597.25</ele><time>2026-04-19T14:41:26Z</time></trkpt><trkpt lat="41.18524261318863" lon="15.384194766908614"><ele>596.5</ele><time>2026-04-19T14:41:27Z</time></trkpt><trkpt lat="41.18533444018173" lon="15.384109496554045"><ele>595.75</ele><time>2026-04-19T14:41:28Z</time></trkpt><trkpt lat="41.18543901326349" lon="15.38397639533073"><ele>595.0</ele><time>2026-04-19T14:41:29Z</time></trkpt><trkpt lat="41.18555147020594" lon="15.383861713590864"><ele>596.25</ele><time>2026-04-19T14:41:30Z</time></trkpt><trkpt lat="41.18567531932507" lon="15.383788241533896"><ele>597.5</ele><time>2026-04-19T14:41:31Z</time></trkpt><trkpt lat="41.18581867039578" lon="15.38373818567506"><ele>598.75</ele><time>2026-04-19T14:41:32Z</time></trkpt><trkpt lat="41.18595472853521" lon="15.383691424653081"><ele>600.0</ele><time>2026-04-19T14:41:33Z</time></trkpt><trkpt lat="41.18607868656169" lon="15.383661395747929"><ele>600.0</ele><time>2026-04-19T14:41:34Z</time></trkpt><trkpt lat="41.18620119091135" lon="15.383639109788737"><ele>600.0</ele><time>2026-04-19T14:41:35Z</time></trkpt><trkpt lat="41.186323883509225" lon="15.383628489590432"><ele>600.0</ele><time>2026-04-19T14:41:36Z</time></trkpt><trkpt lat="41.18643926229415" lon="15.383644609540447"><ele>600.0</ele><time>2026-04-19T14:41:37Z</time></trkpt><trkpt lat="41.18655209455046" lon="15.383702135718936"><ele>598.4</ele><time>2026-04-19T14:41:38Z</time></trkpt><trkpt lat="41.1866708767107" lon="15.383712176559214"><ele>596.8</ele><time>2026-04-19T14:41:39Z</time></trkpt><trkpt lat="41.18677046070733" lon="15.383731763744832"><ele>595.2</ele><time>2026-04-19T14:41:40Z</time></trkpt><trkpt lat="41.18686866317346" lon="15.38378401024358"><ele>593.6</ele><time>2026-04-19T14:41:41Z</time></trkpt><trkpt lat="41.18695915215642" lon="15.383843119570006"><ele>592.0</ele><time>2026-04-19T14:41:42Z</time></trkpt><trkpt lat="41.187044419936946" lon="15.383898602583193"><ele>591.8000000000001</ele><time>2026-04-19T14:41:43Z</time></trkpt><trkpt lat="41.18711911629253" lon="15.384010181928748"><ele>591.6</ele><time>2026-04-19T14:41:44Z</time></trkpt><trkpt lat="41.18717695951778" lon="15.384136843556691"><ele>591.4000000000001</ele><time>2026-04-19T14:41:45Z</time></trkpt><trkpt lat="41.187231190693225" lon="15.384256014246132"><ele>591.2</ele><time>2026-04-19T14:41:46Z</time></trkpt><trkpt lat="41.18727773650073" lon="15.38435101154011"><ele>591.0</ele><time>2026-04-19T14:41:47Z</time></trkpt><trkpt lat="41.18737119490002" lon="15.38442208178362"><ele>591.0</ele><time>2026-04-19T14:41:48Z</time></trkpt><trkpt lat="41.187478006734686" lon="15.384473094283962"><ele>591.0</ele><time>2026-04-19T14:41:49Z</time></trkpt><trkpt lat="41.187604150215165" lon="15.384517103297739"><ele>591.0</ele><time>2026-04-19T14:41:50Z</time></trkpt><trkpt lat="41.187736718618254" lon="15.384560867442204"><ele>591.0</ele><time>2026-04-19T14:41:51Z</time></trkpt><trkpt lat="41.18788399256585" lon="15.384614552084155"><ele>591.0</ele><time>2026-04-19T14:41:52Z</time></trkpt><trkpt lat="41.188016435865414" lon="15.384654908597245"><ele>591.0</ele><time>2026-04-19T14:41:53Z</time></trkpt><trkpt lat="41.18815268686394" lon="15.384689407660897"><ele>591.0</ele><time>2026-04-19T14:41:54Z</time></trkpt><trkpt lat="41.18830254212053" lon="15.384699202370234"><ele>591.0</ele><time>2026-04-19T14:41:55Z</time></trkpt><trkpt lat="41.18845668180251" lon="15.384698920499545"><ele>591.0</ele><time>2026-04-19T14:41:56Z</time></trkpt><trkpt lat="41.18858756626689" lon="15.38469710170637"><ele>591.0</ele><time>2026-04-19T14:41:57Z</time></trkpt><trkpt lat="41.1887141811504" lon="15.384703559433179"><ele>591.0</ele><time>2026-04-19T14:41:58Z</time></trkpt><trkpt lat="41.188845477102895" lon="15.384730199357591"><ele>591.0</ele><time>2026-04-19T14:41:59Z</time></trkpt><trkpt lat="41.18898378639842" lon="15.38477377948005"><ele>591.5</ele><time>2026-04-19T14:42:00Z</time></trkpt><trkpt lat="41.18912617009181" lon="15.384824709125938"><ele>592.0</ele><time>2026-04-19T14:42:01Z</time></trkpt><trkpt lat="41.18925793366215" lon="15.384876465098717"><ele>592.5</ele><time>2026-04-19T14:42:02Z</time></trkpt><trkpt lat="41.189376683958194" lon="15.384950423763682"><ele>593.0</ele><time>2026-04-19T14:42:03Z</time></trkpt><trkpt lat="41.189490369816696" lon="15.384979331252143"><ele>593.0</ele><time>2026-04-19T14:42:04Z</time></trkpt><trkpt lat="41.189586300854096" lon="15.38501872848297"><ele>593.0</ele><time>2026-04-19T14:42:05Z</time></trkpt><trkpt lat="41.18967893325969" lon="15.385061821100784"><ele>593.0</ele><time>2026-04-19T14:42:06Z</time></trkpt><trkpt lat="41.18977069630696" lon="15.385056749689564"><ele>593.0</ele><time>2026-04-19T14:42:07Z</time></trkpt><trkpt lat="41.189858936469456" lon="15.38501311242291"><ele>593.0</ele><time>2026-04-19T14:42:08Z</time></trkpt><trkpt lat="41.189968277527676" lon="15.384969917178188"><ele>593.5</ele><time>2026-04-19T14:42:09Z</time></trkpt><trkpt lat="41.1900956917435" lon="15.384928782356962"><ele>594.0</ele><time>2026-04-19T14:42:10Z</time></trkpt><trkpt lat="41.190231485808496" lon="15.384893620888777"><ele>594.5</ele><time>2026-04-19T14:42:11Z</time></trkpt><trkpt lat="41.19038869549915" lon="15.3848483135478"><ele>595.0</ele><time>2026-04-19T14:42:12Z</time></trkpt><trkpt lat="41.19054833067858" lon="15.384810185227929"><ele>593.5</ele><time>2026-04-19T14:42:13Z</time></trkpt><trkpt lat="41.19070086918099" lon="15.384789902155747"><ele>592.0</ele><time>2026-04-19T14:42:14Z</time></trkpt><trkpt lat="41.190839541438585" lon="15.384781407153822"><ele>590.5</ele><time>2026-04-19T14:42:15Z</time></trkpt><trkpt lat="41.190960001661956" lon="15.38479093564155"><ele>589.0</ele><time>2026-04-19T14:42:16Z</time></trkpt><trkpt lat="41.1910666865072" lon="15.38484375629235"><ele>589.0</ele><time>2026-04-19T14:42:17Z</time></trkpt><trkpt lat="41.19119681499457" lon="15.384877429871148"><ele>589.0</ele><time>2026-04-19T14:42:18Z</time></trkpt><trkpt lat="41.191328408400764" lon="15.384939229357213"><ele>589.0</ele><time>2026-04-19T14:42:19Z</time></trkpt><trkpt lat="41.19145846582608" lon="15.384988925753962"><ele>589.0</ele><time>2026-04-19T14:42:20Z</time></trkpt><trkpt lat="41.19159313461368" lon="15.385053294925683"><ele>590.5</ele><time>2026-04-19T14:42:21Z</time></trkpt><trkpt lat="41.19174943494805" lon="15.385089015174907"><ele>592.0</ele><time>2026-04-19T14:42:22Z</time></trkpt><trkpt lat="41.19188700320666" lon="15.385125526315461"><ele>593.5</ele><time>2026-04-19T14:42:23Z</time></trkpt><trkpt lat="41.19202336528892" lon="15.385205738497977"><ele>595.0</ele><time>2026-04-19T14:42:24Z</time></trkpt><trkpt lat="41.192182420993014" lon="15.385304686801847"><ele>598.3333333333334</ele><time>2026-04-19T14:42:25Z</time></trkpt><trkpt lat="41.192341638469735" lon="15.385366221980139"><ele>601.6666666666666</ele><time>2026-04-19T14:42:26Z</time></trkpt><trkpt lat="41.192480542375385" lon="15.385451883001826"><ele>605.0</ele><time>2026-04-19T14:42:27Z</time></trkpt><trkpt lat="41.19262704077448" lon="15.38549752337447"><ele>602.75</ele><time>2026-04-19T14:42:28Z</time></trkpt><trkpt lat="41.19275830793382" lon="15.385575394163059"><ele>600.5</ele><time>2026-04-19T14:42:29Z</time></trkpt><trkpt lat="41.19289265266744" lon="15.3856523656513"><ele>598.25</ele><time>2026-04-19T14:42:30Z</time></trkpt><trkpt lat="41.193033700037226" lon="15.38572083057777"><ele>596.0</ele><time>2026-04-19T14:42:31Z</time></trkpt><trkpt lat="41.193167810258956" lon="15.385781012049058"><ele>599.25</ele><time>2026-04-19T14:42:32Z</time></trkpt><trkpt lat="41.193296670912495" lon="15.385828287348357"><ele>602.5</ele><time>2026-04-19T14:42:33Z</time></trkpt><trkpt lat="41.193444955077894" lon="15.385894248692203"><ele>605.75</ele><time>2026-04-19T14:42:34Z</time></trkpt><trkpt lat="41.19357266207512" lon="15.385960625019141"><ele>609.0</ele><time>2026-04-19T14:42:35Z</time></trkpt><trkpt lat="41.193718345319176" lon="15.386041206871804"><ele>609.0</ele><time>2026-04-19T14:42:36Z</time></trkpt><trkpt lat="41.19388267439415" lon="15.386113281974762"><ele>609.0</ele><time>2026-04-19T14:42:37Z</time></trkpt><trkpt lat="41.19400455313243" lon="15.38619378390742"><ele>609.0</ele><time>2026-04-19T14:42:38Z</time></trkpt><trkpt lat="41.19409242860075" lon="15.386280374605754"><ele>609.0</ele><time>2026-04-19T14:42:39Z</time></trkpt><trkpt lat="41.19417583560782" lon="15.386324523353279"><ele>611.2</ele><time>2026-04-19T14:42:40Z</time></trkpt><trkpt lat="41.194234321289684" lon="15.386387447299784"><ele>613.4</ele><time>2026-04-19T14:42:41Z</time></trkpt><trkpt lat="41.19432144052797" lon="15.386473952620674"><ele>615.6</ele><time>2026-04-19T14:42:43Z</time></trkpt><trkpt lat="41.19438554344484" lon="15.386319387454934"><ele>617.8</ele><time>2026-04-19T14:42:47Z</time></trkpt><trkpt lat="41.194403328377" lon="15.38623681914659"><ele>620.0</ele><time>2026-04-19T14:42:49Z</time></trkpt><trkpt lat="41.19439418397007" lon="15.386134016984757"><ele>620.3333333333333</ele><time>2026-04-19T14:42:52Z</time></trkpt><trkpt lat="41.194391011264514" lon="15.386041804044654"><ele>620.6666666666666</ele><time>2026-04-19T14:42:54Z</time></trkpt><trkpt lat="41.19440130943787" lon="15.385936671227137"><ele>621.0</ele><time>2026-04-19T14:42:56Z</time></trkpt><trkpt lat="41.19440959907041" lon="15.385827565044204"><ele>621.3333333333334</ele><time>2026-04-19T14:42:58Z</time></trkpt><trkpt lat="41.19442206248579" lon="15.385699721928592"><ele>621.6666666666667</ele><time>2026-04-19T14:43:00Z</time></trkpt><trkpt lat="41.19445357124074" lon="15.38555412789538"><ele>622.0</ele><time>2026-04-19T14:43:02Z</time></trkpt><trkpt lat="41.19446273546316" lon="15.385419198938187"><ele>623.4</ele><time>2026-04-19T14:43:04Z</time></trkpt><trkpt lat="41.194484928697705" lon="15.385315818793947"><ele>624.8000000000001</ele><time>2026-04-19T14:43:06Z</time></trkpt><trkpt lat="41.194508108489536" lon="15.385195362217894"><ele>626.2</ele><time>2026-04-19T14:43:08Z</time></trkpt><trkpt lat="41.19453130626293" lon="15.385041927896333"><ele>627.6</ele><time>2026-04-19T14:43:10Z</time></trkpt><trkpt lat="41.194542779018654" lon="15.384857773566042"><ele>629.0</ele><time>2026-04-19T14:43:12Z</time></trkpt><trkpt lat="41.19456168148318" lon="15.384742550275922"><ele>630.2</ele><time>2026-04-19T14:43:14Z</time></trkpt><trkpt lat="41.19458369093702" lon="15.38460875346987"><ele>631.4</ele><time>2026-04-19T14:43:15Z</time></trkpt><trkpt lat="41.19460032101148" lon="15.384450485557432"><ele>632.6</ele><time>2026-04-19T14:43:16Z</time></trkpt><trkpt lat="41.19462686999726" lon="15.384324848709072"><ele>633.8</ele><time>2026-04-19T14:43:17Z</time></trkpt><trkpt lat="41.194644020262025" lon="15.384225344555093"><ele>635.0</ele><time>2026-04-19T14:43:18Z</time></trkpt><trkpt lat="41.1946593073744" lon="15.384143535665789"><ele>635.0</ele><time>2026-04-19T14:43:19Z</time></trkpt><trkpt lat="41.194688169893375" lon="15.383997060227655"><ele>635.0</ele><time>2026-04-19T14:43:21Z</time></trkpt><trkpt lat="41.19470839593575" lon="15.383897692152326"><ele>635.0</ele><time>2026-04-19T14:43:22Z</time></trkpt><trkpt lat="41.19473053748056" lon="15.383709115246308"><ele>635.0</ele><time>2026-04-19T14:43:23Z</time></trkpt><trkpt lat="41.194761433445926" lon="15.38358187061345"><ele>635.0</ele><time>2026-04-19T14:43:24Z</time></trkpt><trkpt lat="41.194780326916366" lon="15.383493519823002"><ele>636.5</ele><time>2026-04-19T14:43:25Z</time></trkpt><trkpt lat="41.194803208192745" lon="15.383415353087225"><ele>638.0</ele><time>2026-04-19T14:43:26Z</time></trkpt><trkpt lat="41.194832951828246" lon="15.38326743579449"><ele>639.5</ele><time>2026-04-19T14:43:28Z</time></trkpt><trkpt lat="41.194860611332636" lon="15.383168862127231"><ele>641.0</ele><time>2026-04-19T14:43:29Z</time></trkpt><trkpt lat="41.19487450678501" lon="15.383067879172799"><ele>642.5</ele><time>2026-04-19T14:43:30Z</time></trkpt><trkpt lat="41.194880690208095" lon="15.382982999958394"><ele>644.0</ele><time>2026-04-19T14:43:31Z</time></trkpt><trkpt lat="41.19489098367545" lon="15.382865310900833"><ele>647.5</ele><time>2026-04-19T14:43:32Z</time></trkpt><trkpt lat="41.19492630983926" lon="15.382662585847319"><ele>651.0</ele><time>2026-04-19T14:43:33Z</time></trkpt><trkpt lat="41.19492546995359" lon="15.382510012121337"><ele>654.5</ele><time>2026-04-19T14:43:34Z</time></trkpt><trkpt lat="41.19494310440265" lon="15.382382676087431"><ele>658.0</ele><time>2026-04-19T14:43:35Z</time></trkpt><trkpt lat="41.19493655144378" lon="15.382270384419103"><ele>659.0</ele><time>2026-04-19T14:43:36Z</time></trkpt><trkpt lat="41.19493856828743" lon="15.382145408997962"><ele>660.0</ele><time>2026-04-19T14:43:37Z</time></trkpt><trkpt lat="41.194933461681266" lon="15.382052760735641"><ele>661.0</ele><time>2026-04-19T14:43:38Z</time></trkpt><trkpt lat="41.19491892502923" lon="15.381934740913916"><ele>662.0</ele><time>2026-04-19T14:43:39Z</time></trkpt><trkpt lat="41.1949027164729" lon="15.381805519519187"><ele>663.0</ele><time>2026-04-19T14:43:40Z</time></trkpt><trkpt lat="41.19487981574162" lon="15.381670187939921"><ele>663.0</ele><time>2026-04-19T14:43:41Z</time></trkpt><trkpt lat="41.194882112966106" lon="15.381540657385242"><ele>663.0</ele><time>2026-04-19T14:43:42Z</time></trkpt><trkpt lat="41.19487144391179" lon="15.381417758268856"><ele>663.0</ele><time>2026-04-19T14:43:43Z</time></trkpt><trkpt lat="41.19485970268543" lon="15.381282507906482"><ele>663.0</ele><time>2026-04-19T14:43:44Z</time></trkpt><trkpt lat="41.19484375090256" lon="15.381149532488008"><ele>663.0</ele><time>2026-04-19T14:43:45Z</time></trkpt><trkpt lat="41.19480850842276" lon="15.381029506584088"><ele>663.8333333333334</ele><time>2026-04-19T14:43:46Z</time></trkpt><trkpt lat="41.19479933813636" lon="15.380920835395564"><ele>664.6666666666666</ele><time>2026-04-19T14:43:47Z</time></trkpt><trkpt lat="41.194787032136745" lon="15.38081784199006"><ele>665.5</ele><time>2026-04-19T14:43:48Z</time></trkpt><trkpt lat="41.19476846743046" lon="15.380697657443234"><ele>666.3333333333333</ele><time>2026-04-19T14:43:49Z</time></trkpt><trkpt lat="41.19474515921977" lon="15.38057413389133"><ele>667.1666666666666</ele><time>2026-04-19T14:43:50Z</time></trkpt><trkpt lat="41.19470387370225" lon="15.380454096474152"><ele>668.0</ele><time>2026-04-19T14:43:51Z</time></trkpt><trkpt lat="41.19464810269419" lon="15.3803281926827"><ele>669.2</ele><time>2026-04-19T14:43:52Z</time></trkpt><trkpt lat="41.19460958420911" lon="15.380200226480522"><ele>670.4</ele><time>2026-04-19T14:43:53Z</time></trkpt><trkpt lat="41.19456174889871" lon="15.380086462586666"><ele>671.6</ele><time>2026-04-19T14:43:54Z</time></trkpt><trkpt lat="41.194508413001415" lon="15.379966171495342"><ele>672.8000000000001</ele><time>2026-04-19T14:43:55Z</time></trkpt><trkpt lat="41.1944441476037" lon="15.379833451512857"><ele>674.0</ele><time>2026-04-19T14:43:56Z</time></trkpt><trkpt lat="41.1943752111055" lon="15.379700677251277"><ele>674.3333333333333</ele><time>2026-04-19T14:43:57Z</time></trkpt><trkpt lat="41.19430179416274" lon="15.37956469725743"><ele>674.6666666666666</ele><time>2026-04-19T14:43:58Z</time></trkpt><trkpt lat="41.19421096529088" lon="15.379394249643092"><ele>675.0</ele><time>2026-04-19T14:43:59Z</time></trkpt><trkpt lat="41.19411271830846" lon="15.379207179017092"><ele>675.0</ele><time>2026-04-19T14:44:00Z</time></trkpt><trkpt lat="41.19403444901" lon="15.379064662397987"><ele>675.0</ele><time>2026-04-19T14:44:01Z</time></trkpt><trkpt lat="41.19395426674689" lon="15.378924848993273"><ele>675.0</ele><time>2026-04-19T14:44:02Z</time></trkpt><trkpt lat="41.19388291517959" lon="15.378804837670044"><ele>675.0</ele><time>2026-04-19T14:44:03Z</time></trkpt><trkpt lat="41.19381587819403" lon="15.378692083568932"><ele>675.2</ele><time>2026-04-19T14:44:04Z</time></trkpt><trkpt lat="41.19374673087827" lon="15.378599136283809"><ele>675.4</ele><time>2026-04-19T14:44:05Z</time></trkpt><trkpt lat="41.19369629109952" lon="15.378499990079485"><ele>675.5999999999999</ele><time>2026-04-19T14:44:06Z</time></trkpt><trkpt lat="41.19363922020944" lon="15.37839319767545"><ele>675.8</ele><time>2026-04-19T14:44:07Z</time></trkpt><trkpt lat="41.19358416237082" lon="15.378285519828855"><ele>676.0</ele><time>2026-04-19T14:44:08Z</time></trkpt><trkpt lat="41.19355043089521" lon="15.378193480598828"><ele>676.0</ele><time>2026-04-19T14:44:09Z</time></trkpt><trkpt lat="41.19352881276743" lon="15.378059937850907"><ele>676.0</ele><time>2026-04-19T14:44:11Z</time></trkpt><trkpt lat="41.193509562854786" lon="15.377935327583193"><ele>676.0</ele><time>2026-04-19T14:44:14Z</time></trkpt><trkpt lat="41.19345110915069" lon="15.377894876800855"><ele>676.0</ele><time>2026-04-19T14:44:15Z</time></trkpt><trkpt lat="41.19334252146258" lon="15.37779469803944"><ele>676.0</ele><time>2026-04-19T14:44:17Z</time></trkpt><trkpt lat="41.193283727663555" lon="15.37774406585491"><ele>677.25</ele><time>2026-04-19T14:44:18Z</time></trkpt><trkpt lat="41.19319566372206" lon="15.377663261213163"><ele>678.5</ele><time>2026-04-19T14:44:19Z</time></trkpt><trkpt lat="41.19307538211394" lon="15.377553886096981"><ele>679.75</ele><time>2026-04-19T14:44:20Z</time></trkpt><trkpt lat="41.19297406784319" lon="15.377450311362326"><ele>681.0</ele><time>2026-04-19T14:44:21Z</time></trkpt><trkpt lat="41.19290480384192" lon="15.377384511078612"><ele>681.0</ele><time>2026-04-19T14:44:22Z</time></trkpt><trkpt lat="41.192844826631635" lon="15.377334364409924"><ele>681.0</ele><time>2026-04-19T14:44:23Z</time></trkpt><trkpt lat="41.19276654395432" lon="15.377247136258651"><ele>681.0</ele><time>2026-04-19T14:44:25Z</time></trkpt><trkpt lat="41.192703714936805" lon="15.377121808534294"><ele>681.0</ele><time>2026-04-19T14:44:28Z</time></trkpt><trkpt lat="41.19259001677872" lon="15.37699788473582"><ele>681.0</ele><time>2026-04-19T14:44:29Z</time></trkpt><trkpt lat="41.192515909785136" lon="15.37676960498995"><ele>683.25</ele><time>2026-04-19T14:44:30Z</time></trkpt><trkpt lat="41.192489911793984" lon="15.376556211902274"><ele>685.5</ele><time>2026-04-19T14:44:31Z</time></trkpt><trkpt lat="41.19247569470629" lon="15.376369694363536"><ele>687.75</ele><time>2026-04-19T14:44:32Z</time></trkpt><trkpt lat="41.19247930038054" lon="15.376181776840177"><ele>690.0</ele><time>2026-04-19T14:44:33Z</time></trkpt><trkpt lat="41.192485955239825" lon="15.375993411013926"><ele>692.5</ele><time>2026-04-19T14:44:34Z</time></trkpt><trkpt lat="41.19249651772147" lon="15.375805229748693"><ele>695.0</ele><time>2026-04-19T14:44:35Z</time></trkpt><trkpt lat="41.19299259253918" lon="15.375454966238784"><ele>696.75</ele><time>2026-04-19T14:44:36Z</time></trkpt><trkpt lat="41.19299724760635" lon="15.375283300441048"><ele>698.5</ele><time>2026-04-19T14:44:37Z</time></trkpt><trkpt lat="41.192999003673116" lon="15.375110192162708"><ele>700.25</ele><time>2026-04-19T14:44:38Z</time></trkpt><trkpt lat="41.193003720927955" lon="15.3749536612302"><ele>702.0</ele><time>2026-04-19T14:44:39Z</time></trkpt><trkpt lat="41.19302135259434" lon="15.374738389366264"><ele>704.25</ele><time>2026-04-19T14:44:40Z</time></trkpt><trkpt lat="41.19304806078248" lon="15.374549661642469"><ele>706.5</ele><time>2026-04-19T14:44:41Z</time></trkpt><trkpt lat="41.19307909182129" lon="15.37438554334974"><ele>708.75</ele><time>2026-04-19T14:44:42Z</time></trkpt><trkpt lat="41.193104714932886" lon="15.374154001616274"><ele>711.0</ele><time>2026-04-19T14:44:43Z</time></trkpt><trkpt lat="41.19312719468386" lon="15.373948955975823"><ele>713.25</ele><time>2026-04-19T14:44:44Z</time></trkpt><trkpt lat="41.19314451683461" lon="15.37378656452665"><ele>715.5</ele><time>2026-04-19T14:44:45Z</time></trkpt><trkpt lat="41.19316143643932" lon="15.37363478407586"><ele>717.75</ele><time>2026-04-19T14:44:46Z</time></trkpt><trkpt lat="41.19318226929468" lon="15.373473627123811"><ele>720.0</ele><time>2026-04-19T14:44:47Z</time></trkpt><trkpt lat="41.19319429166597" lon="15.37328355685089"><ele>721.6</ele><time>2026-04-19T14:44:48Z</time></trkpt><trkpt lat="41.19321424247345" lon="15.373144079696287"><ele>723.2</ele><time>2026-04-19T14:44:49Z</time></trkpt><trkpt lat="41.19322121690874" lon="15.373048624606755"><ele>724.8</ele><time>2026-04-19T14:44:50Z</time></trkpt><trkpt lat="41.193231764666756" lon="15.372926923244565"><ele>726.4</ele><time>2026-04-19T14:44:51Z</time></trkpt><trkpt lat="41.19322223777376" lon="15.372736805069609"><ele>728.0</ele><time>2026-04-19T14:44:52.999Z</time></trkpt><trkpt lat="41.19323977959103" lon="15.372590494156446"><ele>730.4</ele><time>2026-04-19T14:44:53.999Z</time></trkpt><trkpt lat="41.193255331883776" lon="15.372443886193894"><ele>732.8</ele><time>2026-04-19T14:44:54.999Z</time></trkpt><trkpt lat="41.19327043722699" lon="15.372303835667037"><ele>735.2</ele><time>2026-04-19T14:44:55.999Z</time></trkpt><trkpt lat="41.193275114985916" lon="15.372183612165507"><ele>737.6</ele><time>2026-04-19T14:44:56.999Z</time></trkpt><trkpt lat="41.19325063627518" lon="15.37206264854163"><ele>740.0</ele><time>2026-04-19T14:44:58Z</time></trkpt><trkpt lat="41.193216573011554" lon="15.371915479174163"><ele>742.25</ele><time>2026-04-19T14:44:59Z</time></trkpt><trkpt lat="41.19316262940307" lon="15.371764762756047"><ele>744.5</ele><time>2026-04-19T14:45:00Z</time></trkpt><trkpt lat="41.19313749791892" lon="15.37159022044853"><ele>746.75</ele><time>2026-04-19T14:45:01Z</time></trkpt><trkpt lat="41.19312332757496" lon="15.371401411344566"><ele>749.0</ele><time>2026-04-19T14:45:02Z</time></trkpt><trkpt lat="41.19311227449745" lon="15.371242004256672"><ele>753.2</ele><time>2026-04-19T14:45:03Z</time></trkpt><trkpt lat="41.19313360933914" lon="15.37111037421009"><ele>757.4000000000001</ele><time>2026-04-19T14:45:04Z</time></trkpt><trkpt lat="41.19318766650541" lon="15.370970974241182"><ele>761.6</ele><time>2026-04-19T14:45:05Z</time></trkpt><trkpt lat="41.193244516267576" lon="15.370838875069703"><ele>765.8</ele><time>2026-04-19T14:45:06Z</time></trkpt><trkpt lat="41.193307397296515" lon="15.370759026125821"><ele>770.0</ele><time>2026-04-19T14:45:07Z</time></trkpt><trkpt lat="41.19337697880868" lon="15.370738524134108"><ele>770.6</ele><time>2026-04-19T14:45:08Z</time></trkpt><trkpt lat="41.19347420931247" lon="15.370725997959546"><ele>771.2</ele><time>2026-04-19T14:45:09Z</time></trkpt><trkpt lat="41.19357626870856" lon="15.370686035862109"><ele>771.8</ele><time>2026-04-19T14:45:10Z</time></trkpt><trkpt lat="41.193642106692124" lon="15.37053763365352"><ele>772.4</ele><time>2026-04-19T14:45:12Z</time></trkpt><trkpt lat="41.193635345873055" lon="15.370413141231563"><ele>773.0</ele><time>2026-04-19T14:45:13Z</time></trkpt><trkpt lat="41.19359238147374" lon="15.37032093567504"><ele>777.0</ele><time>2026-04-19T14:45:14Z</time></trkpt><trkpt lat="41.19353968046236" lon="15.370201694450207"><ele>781.0</ele><time>2026-04-19T14:45:15Z</time></trkpt><trkpt lat="41.19360525044888" lon="15.370048527126457"><ele>785.0</ele><time>2026-04-19T14:45:17Z</time></trkpt><trkpt lat="41.19367962825613" lon="15.369933483666124"><ele>789.0</ele><time>2026-04-19T14:45:18Z</time></trkpt><trkpt lat="41.193767790256416" lon="15.36980099792641"><ele>789.5</ele><time>2026-04-19T14:45:19Z</time></trkpt><trkpt lat="41.19384821687011" lon="15.369659060128795"><ele>790.0</ele><time>2026-04-19T14:45:20Z</time></trkpt><trkpt lat="41.193960119056364" lon="15.36952395313776"><ele>790.5</ele><time>2026-04-19T14:45:21Z</time></trkpt><trkpt lat="41.19406114057678" lon="15.369369572653753"><ele>791.0</ele><time>2026-04-19T14:45:22Z</time></trkpt><trkpt lat="41.19415764503601" lon="15.369252034264111"><ele>791.0</ele><time>2026-04-19T14:45:23Z</time></trkpt><trkpt lat="41.19423931875533" lon="15.36912680077089"><ele>791.0</ele><time>2026-04-19T14:45:24Z</time></trkpt><trkpt lat="41.1942986669891" lon="15.369010440283516"><ele>791.0</ele><time>2026-04-19T14:45:25Z</time></trkpt><trkpt lat="41.19434665717443" lon="15.368919668574494"><ele>791.0</ele><time>2026-04-19T14:45:26Z</time></trkpt><trkpt lat="41.19445308219985" lon="15.368851822361133"><ele>791.0</ele><time>2026-04-19T14:45:28Z</time></trkpt><trkpt lat="41.194524729169935" lon="15.368856165608944"><ele>791.0</ele><time>2026-04-19T14:45:29Z</time></trkpt><trkpt lat="41.194617726123404" lon="15.368869412332387"><ele>791.0</ele><time>2026-04-19T14:45:30Z</time></trkpt><trkpt lat="41.19474083524726" lon="15.368888681107226"><ele>791.0</ele><time>2026-04-19T14:45:31Z</time></trkpt><trkpt lat="41.194841189082204" lon="15.368869440603524"><ele>791.0</ele><time>2026-04-19T14:45:32Z</time></trkpt><trkpt lat="41.194916531597414" lon="15.368819180967217"><ele>791.0</ele><time>2026-04-19T14:45:33Z</time></trkpt><trkpt lat="41.1950110922066" lon="15.368752030985357"><ele>794.4</ele><time>2026-04-19T14:45:34Z</time></trkpt><trkpt lat="41.19511751208259" lon="15.368694936509948"><ele>797.8</ele><time>2026-04-19T14:45:35Z</time></trkpt><trkpt lat="41.19521420755846" lon="15.36864698952311"><ele>801.1999999999999</ele><time>2026-04-19T14:45:36Z</time></trkpt><trkpt lat="41.195315810396195" lon="15.368608867349147"><ele>804.5999999999999</ele><time>2026-04-19T14:45:37Z</time></trkpt><trkpt lat="41.19542538771004" lon="15.36858790902692"><ele>808.0</ele><time>2026-04-19T14:45:38Z</time></trkpt><trkpt lat="41.1955269433518" lon="15.368573582205732"><ele>807.9999999999999</ele><time>2026-04-19T14:45:39Z</time></trkpt><trkpt lat="41.19561309740058" lon="15.36856603112536"><ele>808.0</ele><time>2026-04-19T14:45:40Z</time></trkpt><trkpt lat="41.19568176084363" lon="15.368550891768402"><ele>808.0</ele><time>2026-04-19T14:45:41Z</time></trkpt><trkpt lat="41.19567395215134" lon="15.368431688371555"><ele>808.0</ele><time>2026-04-19T14:45:43Z</time></trkpt><trkpt lat="41.195628399408214" lon="15.368359023350253"><ele>807.9999999999999</ele><time>2026-04-19T14:45:44Z</time></trkpt><trkpt lat="41.19554872873175" lon="15.368279967053414"><ele>808.0</ele><time>2026-04-19T14:45:46Z</time></trkpt><trkpt lat="41.19549216242915" lon="15.368239033586054"><ele>807.9999999999999</ele><time>2026-04-19T14:45:47Z</time></trkpt><trkpt lat="41.19543435409697" lon="15.368185101981961"><ele>808.0</ele><time>2026-04-19T14:45:48Z</time></trkpt><trkpt lat="41.19537849985328" lon="15.368112802750202"><ele>808.0</ele><time>2026-04-19T14:45:49Z</time></trkpt><trkpt lat="41.19533521861886" lon="15.368043318978584"><ele>808.0</ele><time>2026-04-19T14:45:50Z</time></trkpt><trkpt lat="41.19532441258667" lon="15.367936219159448"><ele>807.9999999999999</ele><time>2026-04-19T14:45:51Z</time></trkpt><trkpt lat="41.19523404628464" lon="15.367933716842977"><ele>808.0</ele><time>2026-04-19T14:45:54Z</time></trkpt><trkpt lat="41.19514675244559" lon="15.368026708570156"><ele>808.0</ele><time>2026-04-19T14:45:56Z</time></trkpt><trkpt lat="41.195094124249245" lon="15.368084524504498"><ele>808.0</ele><time>2026-04-19T14:45:57Z</time></trkpt><trkpt lat="41.19503578048278" lon="15.368129944121998"><ele>808.0</ele><time>2026-04-19T14:45:58Z</time></trkpt><trkpt lat="41.19496274155367" lon="15.368158142958432"><ele>808.0</ele><time>2026-04-19T14:45:59Z</time></trkpt><trkpt lat="41.19489310196882" lon="15.368190431629383"><ele>808.0</ele><time>2026-04-19T14:46:00Z</time></trkpt><trkpt lat="41.19483227768834" lon="15.368222582955713"><ele>808.0</ele><time>2026-04-19T14:46:01Z</time></trkpt><trkpt lat="41.19476373975172" lon="15.368236399816965"><ele>808.0</ele><time>2026-04-19T14:46:02Z</time></trkpt><trkpt lat="41.19463945449783" lon="15.368240455581292"><ele>808.8333333333333</ele><time>2026-04-19T14:46:04Z</time></trkpt><trkpt lat="41.19456147969135" lon="15.36822525261983"><ele>809.6666666666666</ele><time>2026-04-19T14:46:05Z</time></trkpt><trkpt lat="41.19447280734798" lon="15.368224135748607"><ele>810.5</ele><time>2026-04-19T14:46:06Z</time></trkpt><trkpt lat="41.19439362754337" lon="15.368202712156677"><ele>811.3333333333333</ele><time>2026-04-19T14:46:07Z</time></trkpt><trkpt lat="41.1942991850281" lon="15.368157781403779"><ele>812.1666666666666</ele><time>2026-04-19T14:46:08Z</time></trkpt><trkpt lat="41.19420159320873" lon="15.368131501988733"><ele>813.0</ele><time>2026-04-19T14:46:09Z</time></trkpt><trkpt lat="41.194128649432756" lon="15.368108854224008"><ele>813.0</ele><time>2026-04-19T14:46:10Z</time></trkpt><trkpt lat="41.19403534301098" lon="15.368078600099828"><ele>813.0</ele><time>2026-04-19T14:46:11Z</time></trkpt><trkpt lat="41.193941384441885" lon="15.368047327930398"><ele>813.0</ele><time>2026-04-19T14:46:12Z</time></trkpt><trkpt lat="41.193856587743376" lon="15.368021658370488"><ele>813.0</ele><time>2026-04-19T14:46:13Z</time></trkpt><trkpt lat="41.19377406411028" lon="15.368006360209456"><ele>813.0</ele><time>2026-04-19T14:46:14Z</time></trkpt><trkpt lat="41.19370784120395" lon="15.367982858084584"><ele>813.0</ele><time>2026-04-19T14:46:15Z</time></trkpt><trkpt lat="41.19363885516477" lon="15.367960095283802"><ele>818.0</ele><time>2026-04-19T14:46:16Z</time></trkpt><trkpt lat="41.193572410187606" lon="15.367940160610363"><ele>823.0</ele><time>2026-04-19T14:46:17Z</time></trkpt><trkpt lat="41.193511475820756" lon="15.367910949925307"><ele>828.0</ele><time>2026-04-19T14:46:18Z</time></trkpt><trkpt lat="41.193381597131385" lon="15.367860319236884"><ele>833.0</ele><time>2026-04-19T14:46:20Z</time></trkpt><trkpt lat="41.19330367282064" lon="15.367842491332684"><ele>838.0</ele><time>2026-04-19T14:46:21Z</time></trkpt><trkpt lat="41.19317836654956" lon="15.367800852388738"><ele>835.5999999999999</ele><time>2026-04-19T14:46:23Z</time></trkpt><trkpt lat="41.193110648886766" lon="15.367777546905321"><ele>833.1999999999999</ele><time>2026-04-19T14:46:24Z</time></trkpt><trkpt lat="41.19305228955649" lon="15.367717867436156"><ele>830.8</ele><time>2026-04-19T14:46:27Z</time></trkpt><trkpt lat="41.192906609663915" lon="15.367638616194185"><ele>828.4</ele><time>2026-04-19T14:47:02.999Z</time></trkpt><trkpt lat="41.192834646686066" lon="15.367602633308175"><ele>826.0</ele><time>2026-04-19T14:47:04Z</time></trkpt><trkpt lat="41.19276330330564" lon="15.367576970700654"><ele>825.9999999999999</ele><time>2026-04-19T14:47:05Z</time></trkpt><trkpt lat="41.19268545425056" lon="15.367561168850067"><ele>826.0</ele><time>2026-04-19T14:47:06Z</time></trkpt><trkpt lat="41.19259597118383" lon="15.36751646138953"><ele>826.0</ele><time>2026-04-19T14:47:07Z</time></trkpt><trkpt lat="41.19251237911922" lon="15.367508178111944"><ele>826.0</ele><time>2026-04-19T14:47:08Z</time></trkpt><trkpt lat="41.192436030503565" lon="15.367506639455716"><ele>825.9999999999999</ele><time>2026-04-19T14:47:09Z</time></trkpt><trkpt lat="41.19234126229683" lon="15.36748579829646"><ele>826.0</ele><time>2026-04-19T14:47:10Z</time></trkpt><trkpt lat="41.19225247973146" lon="15.36744752130077"><ele>826.6666666666666</ele><time>2026-04-19T14:47:11Z</time></trkpt><trkpt lat="41.19214556842997" lon="15.36739201164751"><ele>827.3333333333333</ele><time>2026-04-19T14:47:12Z</time></trkpt><trkpt lat="41.19206270483396" lon="15.367336042207578"><ele>828.0</ele><time>2026-04-19T14:47:13Z</time></trkpt><trkpt lat="41.19199720061007" lon="15.367297315932268"><ele>828.6666666666667</ele><time>2026-04-19T14:47:14Z</time></trkpt><trkpt lat="41.19194091657065" lon="15.36723678613168"><ele>829.3333333333334</ele><time>2026-04-19T14:47:17Z</time></trkpt><trkpt lat="41.19187720247281" lon="15.367218898611233"><ele>830.0</ele><time>2026-04-19T14:47:20Z</time></trkpt><trkpt lat="41.191800996626405" lon="15.36718533985167"><ele>830.0</ele><time>2026-04-19T14:47:23Z</time></trkpt><trkpt lat="41.191710177017406" lon="15.367163200807973"><ele>830.0</ele><time>2026-04-19T14:47:25Z</time></trkpt><trkpt lat="41.19162347544092" lon="15.367155740366181"><ele>830.0</ele><time>2026-04-19T14:47:27Z</time></trkpt><trkpt lat="41.19156126999241" lon="15.367126906055987"><ele>830.0</ele><time>2026-04-19T14:47:29Z</time></trkpt><trkpt lat="41.191471477619146" lon="15.367110251446029"><ele>830.0</ele><time>2026-04-19T14:47:31Z</time></trkpt><trkpt lat="41.19135576838166" lon="15.367046580914945"><ele>832.4</ele><time>2026-04-19T14:47:33Z</time></trkpt><trkpt lat="41.19125376072916" lon="15.367017310470672"><ele>834.8</ele><time>2026-04-19T14:47:35Z</time></trkpt><trkpt lat="41.19113810196651" lon="15.366977262144687"><ele>837.2</ele><time>2026-04-19T14:47:37Z</time></trkpt><trkpt lat="41.19106140222583" lon="15.366944361815015"><ele>839.6</ele><time>2026-04-19T14:47:38Z</time></trkpt><trkpt lat="41.19098737637841" lon="15.366926551516835"><ele>842.0</ele><time>2026-04-19T14:47:39Z</time></trkpt><trkpt lat="41.19087924590492" lon="15.366881343956054"><ele>842.0</ele><time>2026-04-19T14:47:41Z</time></trkpt><trkpt lat="41.19076078911303" lon="15.36683099606495"><ele>842.0</ele><time>2026-04-19T14:47:43Z</time></trkpt><trkpt lat="41.19066430814824" lon="15.366785145005116"><ele>842.0</ele><time>2026-04-19T14:47:45Z</time></trkpt><trkpt lat="41.19056732203926" lon="15.366705141807719"><ele>842.0</ele><time>2026-04-19T14:47:47Z</time></trkpt><trkpt lat="41.19051952595434" lon="15.36664759466889"><ele>842.0</ele><time>2026-04-19T14:47:48Z</time></trkpt><trkpt lat="41.19044197134022" lon="15.366568591529703"><ele>840.6666666666667</ele><time>2026-04-19T14:47:50Z</time></trkpt><trkpt lat="41.19036005300082" lon="15.366546520057891"><ele>839.3333333333334</ele><time>2026-04-19T14:47:52Z</time></trkpt><trkpt lat="41.19030507107735" lon="15.366503022379241"><ele>838.0</ele><time>2026-04-19T14:47:54Z</time></trkpt><trkpt lat="41.19024515151365" lon="15.366459109284063"><ele>836.6666666666667</ele><time>2026-04-19T14:47:56Z</time></trkpt><trkpt lat="41.19016375616135" lon="15.366416536059903"><ele>835.3333333333334</ele><time>2026-04-19T14:47:58Z</time></trkpt><trkpt lat="41.19004963921965" lon="15.366341037123455"><ele>834.0</ele><time>2026-04-19T14:48:00Z</time></trkpt><trkpt lat="41.18998706566208" lon="15.36629935791539"><ele>835.1666666666666</ele><time>2026-04-19T14:48:01Z</time></trkpt><trkpt lat="41.189929888122776" lon="15.366255999716858"><ele>836.3333333333333</ele><time>2026-04-19T14:48:02Z</time></trkpt><trkpt lat="41.189794781801545" lon="15.366234607789476"><ele>837.5</ele><time>2026-04-19T14:48:04Z</time></trkpt><trkpt lat="41.18972729807115" lon="15.36623685451081"><ele>838.6666666666666</ele><time>2026-04-19T14:48:05Z</time></trkpt><trkpt lat="41.18966327574944" lon="15.36623306943189"><ele>839.8333333333333</ele><time>2026-04-19T14:48:06Z</time></trkpt><trkpt lat="41.189549916106756" lon="15.366203161865451"><ele>841.0</ele><time>2026-04-19T14:48:08Z</time></trkpt><trkpt lat="41.189480905374644" lon="15.366188722506749"><ele>841.0</ele><time>2026-04-19T14:48:10Z</time></trkpt><trkpt lat="41.18937019382199" lon="15.366131963391515"><ele>841.0</ele><time>2026-04-19T14:48:12Z</time></trkpt><trkpt lat="41.18927584958496" lon="15.366142365902142"><ele>841.0</ele><time>2026-04-19T14:48:13Z</time></trkpt><trkpt lat="41.18912548680495" lon="15.366135389625756"><ele>841.0</ele><time>2026-04-19T14:48:14Z</time></trkpt><trkpt lat="41.18897090566797" lon="15.366153216106563"><ele>839.8</ele><time>2026-04-19T14:48:15Z</time></trkpt><trkpt lat="41.18886087766172" lon="15.366149958243819"><ele>838.5999999999999</ele><time>2026-04-19T14:48:16Z</time></trkpt><trkpt lat="41.18871016449293" lon="15.366127139492248"><ele>837.4</ele><time>2026-04-19T14:48:17Z</time></trkpt><trkpt lat="41.18859509275033" lon="15.36609924429918"><ele>836.2</ele><time>2026-04-19T14:48:18Z</time></trkpt><trkpt lat="41.18853038808247" lon="15.366067478667478"><ele>835.0</ele><time>2026-04-19T14:48:19Z</time></trkpt><trkpt lat="41.18845126593673" lon="15.36607414601524"><ele>835.0</ele><time>2026-04-19T14:48:21Z</time></trkpt><trkpt lat="41.18833547577781" lon="15.366083644523405"><ele>835.0</ele><time>2026-04-19T14:48:23Z</time></trkpt><trkpt lat="41.18826334035313" lon="15.366065060516155"><ele>835.0</ele><time>2026-04-19T14:48:24Z</time></trkpt><trkpt lat="41.18819712537063" lon="15.366044529270397"><ele>835.0</ele><time>2026-04-19T14:48:25Z</time></trkpt><trkpt lat="41.18809944313347" lon="15.366039386701065"><ele>835.0</ele><time>2026-04-19T14:48:27Z</time></trkpt><trkpt lat="41.18799914191013" lon="15.366048889901215"><ele>836.2</ele><time>2026-04-19T14:48:29Z</time></trkpt><trkpt lat="41.187930966611425" lon="15.366030211907516"><ele>837.4</ele><time>2026-04-19T14:48:30Z</time></trkpt><trkpt lat="41.18785218365566" lon="15.366002669282812"><ele>838.5999999999999</ele><time>2026-04-19T14:48:31Z</time></trkpt><trkpt lat="41.187754475773886" lon="15.365986797693324"><ele>839.8</ele><time>2026-04-19T14:48:32Z</time></trkpt><trkpt lat="41.187626916160276" lon="15.365989982705786"><ele>841.0</ele><time>2026-04-19T14:48:33Z</time></trkpt><trkpt lat="41.18753171404034" lon="15.365969471574104"><ele>840.9999999999999</ele><time>2026-04-19T14:48:34Z</time></trkpt><trkpt lat="41.18744877314147" lon="15.365951624439528"><ele>841.0</ele><time>2026-04-19T14:48:35Z</time></trkpt><trkpt lat="41.18737529534009" lon="15.36595129293954"><ele>841.0</ele><time>2026-04-19T14:48:36Z</time></trkpt><trkpt lat="41.18729714339567" lon="15.365922886328107"><ele>841.0</ele><time>2026-04-19T14:48:37Z</time></trkpt><trkpt lat="41.18723819778492" lon="15.36588556251582"><ele>840.9999999999999</ele><time>2026-04-19T14:48:38Z</time></trkpt><trkpt lat="41.18713915145856" lon="15.365865872418608"><ele>841.0</ele><time>2026-04-19T14:48:40Z</time></trkpt><trkpt lat="41.187052029843585" lon="15.365780797284037"><ele>840.9999999999999</ele><time>2026-04-19T14:48:43Z</time></trkpt><trkpt lat="41.186988334079736" lon="15.365712790444642"><ele>841.0</ele><time>2026-04-19T14:48:45Z</time></trkpt><trkpt lat="41.18692737766688" lon="15.365643167035467"><ele>841.0</ele><time>2026-04-19T14:48:47Z</time></trkpt><trkpt lat="41.186861658794925" lon="15.365563129038641"><ele>841.0</ele><time>2026-04-19T14:48:49Z</time></trkpt><trkpt lat="41.18679891048818" lon="15.365477665607768"><ele>840.9999999999999</ele><time>2026-04-19T14:48:51Z</time></trkpt><trkpt lat="41.18673567567557" lon="15.365387026263118"><ele>841.0</ele><time>2026-04-19T14:48:53Z</time></trkpt><trkpt lat="41.186655303703596" lon="15.365286075927804"><ele>842.5999999999999</ele><time>2026-04-19T14:48:55Z</time></trkpt><trkpt lat="41.186585893468255" lon="15.365188574272016"><ele>844.2</ele><time>2026-04-19T14:48:57Z</time></trkpt><trkpt lat="41.18649911836963" lon="15.365096816463208"><ele>845.8</ele><time>2026-04-19T14:48:59Z</time></trkpt><trkpt lat="41.18644807471282" lon="15.3650372778279"><ele>847.4000000000001</ele><time>2026-04-19T14:49:00Z</time></trkpt><trkpt lat="41.18634422920588" lon="15.364919729933037"><ele>849.0</ele><time>2026-04-19T14:49:02Z</time></trkpt><trkpt lat="41.1862920526309" lon="15.364850649334254"><ele>846.6666666666666</ele><time>2026-04-19T14:49:03Z</time></trkpt><trkpt lat="41.18619590590535" lon="15.364754626822988"><ele>844.3333333333333</ele><time>2026-04-19T14:49:05Z</time></trkpt><trkpt lat="41.1861435136447" lon="15.364700286583588"><ele>842.0</ele><time>2026-04-19T14:49:06Z</time></trkpt><trkpt lat="41.18608813924375" lon="15.364651541444994"><ele>839.6666666666666</ele><time>2026-04-19T14:49:07Z</time></trkpt><trkpt lat="41.18602804576092" lon="15.364588221163109"><ele>837.3333333333333</ele><time>2026-04-19T14:49:08Z</time></trkpt><trkpt lat="41.18598474019986" lon="15.364517501225794"><ele>835.0</ele><time>2026-04-19T14:49:09Z</time></trkpt><trkpt lat="41.18593861628755" lon="15.36445311556393"><ele>834.9999999999999</ele><time>2026-04-19T14:49:10Z</time></trkpt><trkpt lat="41.18584820748787" lon="15.364360811775995"><ele>835.0</ele><time>2026-04-19T14:49:12Z</time></trkpt><trkpt lat="41.1857974115388" lon="15.364309985924766"><ele>835.0</ele><time>2026-04-19T14:49:13Z</time></trkpt><trkpt lat="41.18573836125909" lon="15.364235465798405"><ele>835.0</ele><time>2026-04-19T14:49:14Z</time></trkpt><trkpt lat="41.18569482246013" lon="15.364168649044908"><ele>834.9999999999999</ele><time>2026-04-19T14:49:15Z</time></trkpt><trkpt lat="41.185648702945386" lon="15.364099204887705"><ele>835.0</ele><time>2026-04-19T14:49:16Z</time></trkpt><trkpt lat="41.18559873879631" lon="15.364031055140916"><ele>832.4999999999999</ele><time>2026-04-19T14:49:17Z</time></trkpt><trkpt lat="41.18555257654419" lon="15.363967057970887"><ele>830.0</ele><time>2026-04-19T14:49:18Z</time></trkpt><trkpt lat="41.18549173897998" lon="15.363891165260158"><ele>827.5</ele><time>2026-04-19T14:49:19Z</time></trkpt><trkpt lat="41.18543990044562" lon="15.363838238127938"><ele>825.0</ele><time>2026-04-19T14:49:20Z</time></trkpt><trkpt lat="41.185390638260266" lon="15.363782497778796"><ele>822.4999999999999</ele><time>2026-04-19T14:49:21Z</time></trkpt><trkpt lat="41.185340154247896" lon="15.36372270188048"><ele>820.0</ele><time>2026-04-19T14:49:22Z</time></trkpt><trkpt lat="41.18526608246996" lon="15.363612121241323"><ele>820.0</ele><time>2026-04-19T14:49:24Z</time></trkpt><trkpt lat="41.18518623823218" lon="15.363524676221097"><ele>820.0</ele><time>2026-04-19T14:49:26Z</time></trkpt><trkpt lat="41.185125879335466" lon="15.363454962826077"><ele>820.0</ele><time>2026-04-19T14:49:28Z</time></trkpt><trkpt lat="41.18511227523884" lon="15.363725103815371"><ele>820.0</ele><time>2026-04-19T15:01:43.999Z</time></trkpt><trkpt lat="41.185132809817446" lon="15.363804993838846"><ele>819.2</ele><time>2026-04-19T15:01:44.999Z</time></trkpt><trkpt lat="41.18516088520287" lon="15.36395898894843"><ele>818.4</ele><time>2026-04-19T15:01:46.999Z</time></trkpt><trkpt lat="41.18519281812755" lon="15.364094560190079"><ele>817.5999999999999</ele><time>2026-04-19T15:01:47.999Z</time></trkpt><trkpt lat="41.18521301198321" lon="15.364230220253791"><ele>816.8</ele><time>2026-04-19T15:01:48.999Z</time></trkpt><trkpt lat="41.185225556101486" lon="15.364364832674093"><ele>816.0</ele><time>2026-04-19T15:01:49.999Z</time></trkpt><trkpt lat="41.185215866905594" lon="15.36451356386994"><ele>816.0</ele><time>2026-04-19T15:01:50.999Z</time></trkpt><trkpt lat="41.18519535642574" lon="15.364631421071756"><ele>816.0</ele><time>2026-04-19T15:01:51.999Z</time></trkpt><trkpt lat="41.18518146498212" lon="15.364752155704627"><ele>816.0</ele><time>2026-04-19T15:01:52.999Z</time></trkpt><trkpt lat="41.185181478692336" lon="15.36490144157218"><ele>816.0</ele><time>2026-04-19T15:01:53.999Z</time></trkpt><trkpt lat="41.185189748324554" lon="15.365055038936328"><ele>816.0</ele><time>2026-04-19T15:01:55Z</time></trkpt><trkpt lat="41.18519923308487" lon="15.365220681509333"><ele>814.75</ele><time>2026-04-19T15:01:56Z</time></trkpt><trkpt lat="41.1852544917395" lon="15.365394004966456"><ele>813.5</ele><time>2026-04-19T15:01:57Z</time></trkpt><trkpt lat="41.18531575244087" lon="15.365549028470493"><ele>812.25</ele><time>2026-04-19T15:01:58Z</time></trkpt><trkpt lat="41.18538039301253" lon="15.365693883884362"><ele>811.0</ele><time>2026-04-19T15:01:59Z</time></trkpt><trkpt lat="41.185450320477635" lon="15.365839904764819"><ele>809.6666666666666</ele><time>2026-04-19T15:02:00Z</time></trkpt><trkpt lat="41.18551408484832" lon="15.36596461276444"><ele>808.3333333333333</ele><time>2026-04-19T15:02:01Z</time></trkpt><trkpt lat="41.1855652678635" lon="15.366079539305684"><ele>807.0</ele><time>2026-04-19T15:02:02Z</time></trkpt><trkpt lat="41.1856024395565" lon="15.366171033919334"><ele>805.6666666666667</ele><time>2026-04-19T15:02:03Z</time></trkpt><trkpt lat="41.185616656811995" lon="15.366260248939929"><ele>804.3333333333334</ele><time>2026-04-19T15:02:04Z</time></trkpt><trkpt lat="41.185641522451526" lon="15.36634677279407"><ele>803.0</ele><time>2026-04-19T15:02:05Z</time></trkpt><trkpt lat="41.18567787672536" lon="15.366451320786679"><ele>804.1666666666667</ele><time>2026-04-19T15:02:06Z</time></trkpt><trkpt lat="41.18570861640603" lon="15.366553025159227"><ele>805.3333333333334</ele><time>2026-04-19T15:02:07Z</time></trkpt><trkpt lat="41.18574930885206" lon="15.366637488195519"><ele>806.5</ele><time>2026-04-19T15:02:08Z</time></trkpt><trkpt lat="41.185763838778975" lon="15.36674262458475"><ele>807.6666666666667</ele><time>2026-04-19T15:02:10Z</time></trkpt><trkpt lat="41.185802881779736" lon="15.366833621267816"><ele>808.8333333333334</ele><time>2026-04-19T15:02:11Z</time></trkpt><trkpt lat="41.18587211494201" lon="15.366938057874838"><ele>810.0</ele><time>2026-04-19T15:02:12Z</time></trkpt><trkpt lat="41.18595200971388" lon="15.367019848986967"><ele>810.0</ele><time>2026-04-19T15:02:13Z</time></trkpt><trkpt lat="41.18602290653059" lon="15.367098933781033"><ele>810.0</ele><time>2026-04-19T15:02:14Z</time></trkpt><trkpt lat="41.186064982632296" lon="15.36718302763407"><ele>810.0</ele><time>2026-04-19T15:02:15Z</time></trkpt><trkpt lat="41.18607991454832" lon="15.367305559631868"><ele>810.0</ele><time>2026-04-19T15:02:16Z</time></trkpt><trkpt lat="41.186112923147405" lon="15.367430414053096"><ele>810.0</ele><time>2026-04-19T15:02:17Z</time></trkpt><trkpt lat="41.18613734306569" lon="15.367548767919741"><ele>806.5</ele><time>2026-04-19T15:02:18Z</time></trkpt><trkpt lat="41.18616455570108" lon="15.367690118080684"><ele>803.0</ele><time>2026-04-19T15:02:19Z</time></trkpt><trkpt lat="41.18620011774951" lon="15.367859762762773"><ele>799.5</ele><time>2026-04-19T15:02:20Z</time></trkpt><trkpt lat="41.1862340275029" lon="15.36799340394284"><ele>796.0</ele><time>2026-04-19T15:02:21Z</time></trkpt><trkpt lat="41.18628328517502" lon="15.368125846633577"><ele>793.4</ele><time>2026-04-19T15:02:22Z</time></trkpt><trkpt lat="41.186327467733875" lon="15.368276867831911"><ele>790.8</ele><time>2026-04-19T15:02:23Z</time></trkpt><trkpt lat="41.18636406463418" lon="15.368415114586503"><ele>788.1999999999999</ele><time>2026-04-19T15:02:24Z</time></trkpt><trkpt lat="41.186364403642585" lon="15.368558125165647"><ele>785.5999999999999</ele><time>2026-04-19T15:02:25Z</time></trkpt><trkpt lat="41.18636740876157" lon="15.368698936783463"><ele>783.0</ele><time>2026-04-19T15:02:26Z</time></trkpt><trkpt lat="41.186394566438516" lon="15.368813304560874"><ele>783.8333333333334</ele><time>2026-04-19T15:02:27Z</time></trkpt><trkpt lat="41.1864312348851" lon="15.368927576930844"><ele>784.6666666666667</ele><time>2026-04-19T15:02:28Z</time></trkpt><trkpt lat="41.1864808201169" lon="15.36904633874507"><ele>785.5</ele><time>2026-04-19T15:02:29Z</time></trkpt><trkpt lat="41.186531942388605" lon="15.369122022835827"><ele>786.3333333333334</ele><time>2026-04-19T15:02:30Z</time></trkpt><trkpt lat="41.186584768109725" lon="15.369178494487501"><ele>787.1666666666667</ele><time>2026-04-19T15:02:31Z</time></trkpt><trkpt lat="41.18663080355193" lon="15.369263654031998"><ele>788.0</ele><time>2026-04-19T15:02:33Z</time></trkpt><trkpt lat="41.18665431148983" lon="15.369364326988611"><ele>788.0000000000001</ele><time>2026-04-19T15:02:34Z</time></trkpt><trkpt lat="41.18668598270758" lon="15.36944064635448"><ele>788.0</ele><time>2026-04-19T15:02:35Z</time></trkpt><trkpt lat="41.18672039671209" lon="15.369521180959364"><ele>788.0</ele><time>2026-04-19T15:02:36Z</time></trkpt><trkpt lat="41.186741670356206" lon="15.36963856897918"><ele>788.0</ele><time>2026-04-19T15:02:38Z</time></trkpt><trkpt lat="41.18670028774091" lon="15.3697237335801"><ele>788.0000000000001</ele><time>2026-04-19T15:02:40Z</time></trkpt><trkpt lat="41.186558273421234" lon="15.369692796157652"><ele>788.0</ele><time>2026-04-19T15:02:42Z</time></trkpt><trkpt lat="41.186448476354535" lon="15.369658429312311"><ele>785.6666666666667</ele><time>2026-04-19T15:02:43Z</time></trkpt><trkpt lat="41.18637022951665" lon="15.369635205975687"><ele>783.3333333333334</ele><time>2026-04-19T15:02:44Z</time></trkpt><trkpt lat="41.186297725222076" lon="15.36960837755089"><ele>781.0</ele><time>2026-04-19T15:02:45Z</time></trkpt><trkpt lat="41.18621604788233" lon="15.36957106729618"><ele>778.6666666666667</ele><time>2026-04-19T15:02:46Z</time></trkpt><trkpt lat="41.18613295643397" lon="15.369540784703577"><ele>776.3333333333334</ele><time>2026-04-19T15:02:47Z</time></trkpt><trkpt lat="41.18606107124544" lon="15.369531820010344"><ele>774.0</ele><time>2026-04-19T15:02:48Z</time></trkpt><trkpt lat="41.18598930088005" lon="15.369507808987724"><ele>774.0</ele><time>2026-04-19T15:02:49Z</time></trkpt><trkpt lat="41.18589840555124" lon="15.369443057088944"><ele>774.0</ele><time>2026-04-19T15:02:51Z</time></trkpt><trkpt lat="41.18579373612583" lon="15.369364233329609"><ele>774.0</ele><time>2026-04-19T15:02:53Z</time></trkpt><trkpt lat="41.185734386786386" lon="15.369318053588605"><ele>774.0</ele><time>2026-04-19T15:02:54Z</time></trkpt><trkpt lat="41.185618835286974" lon="15.369210633302139"><ele>774.0</ele><time>2026-04-19T15:02:56Z</time></trkpt><trkpt lat="41.185561583809346" lon="15.36913966928374"><ele>772.3333333333334</ele><time>2026-04-19T15:02:57Z</time></trkpt><trkpt lat="41.185513439246975" lon="15.369066103086384"><ele>770.6666666666666</ele><time>2026-04-19T15:02:58Z</time></trkpt><trkpt lat="41.18546657674049" lon="15.368997528924966"><ele>769.0</ele><time>2026-04-19T15:02:59Z</time></trkpt><trkpt lat="41.18539934637154" lon="15.36895898972297"><ele>767.3333333333333</ele><time>2026-04-19T15:03:00Z</time></trkpt><trkpt lat="41.18533869176373" lon="15.368924993487951"><ele>765.6666666666666</ele><time>2026-04-19T15:03:01Z</time></trkpt><trkpt lat="41.185268308328965" lon="15.368853163757253"><ele>764.0</ele><time>2026-04-19T15:03:02Z</time></trkpt><trkpt lat="41.18516720340952" lon="15.368754739317927"><ele>764.0</ele><time>2026-04-19T15:03:04Z</time></trkpt><trkpt lat="41.185108453804965" lon="15.368690789404027"><ele>764.0</ele><time>2026-04-19T15:03:05Z</time></trkpt><trkpt lat="41.18504760920768" lon="15.368632608466763"><ele>764.0</ele><time>2026-04-19T15:03:07Z</time></trkpt><trkpt lat="41.184954291207724" lon="15.368530838282044"><ele>764.0</ele><time>2026-04-19T15:03:09Z</time></trkpt><trkpt lat="41.184898094318825" lon="15.368435391283258"><ele>764.0</ele><time>2026-04-19T15:03:11Z</time></trkpt><trkpt lat="41.184840129744146" lon="15.368351454379393"><ele>764.0</ele><time>2026-04-19T15:03:14Z</time></trkpt><trkpt lat="41.18484125533517" lon="15.368187176161998"><ele>763.2</ele><time>2026-04-19T15:03:16Z</time></trkpt><trkpt lat="41.18482182859609" lon="15.368102257717585"><ele>762.4000000000001</ele><time>2026-04-19T15:03:17Z</time></trkpt><trkpt lat="41.18475577516851" lon="15.368001058659674"><ele>761.6</ele><time>2026-04-19T15:03:19Z</time></trkpt><trkpt lat="41.184676619038804" lon="15.367904614512371"><ele>760.8</ele><time>2026-04-19T15:03:21Z</time></trkpt><trkpt lat="41.18458497411163" lon="15.367814842950358"><ele>760.0</ele><time>2026-04-19T15:03:23Z</time></trkpt><trkpt lat="41.18452313880279" lon="15.367776323936328"><ele>760.0</ele><time>2026-04-19T15:03:24Z</time></trkpt><trkpt lat="41.18445363992085" lon="15.367725841629005"><ele>760.0</ele><time>2026-04-19T15:03:25Z</time></trkpt><trkpt lat="41.18437070522203" lon="15.367652164016054"><ele>760.0</ele><time>2026-04-19T15:03:26Z</time></trkpt><trkpt lat="41.18427698765922" lon="15.367574131392933"><ele>760.0</ele><time>2026-04-19T15:03:27Z</time></trkpt><trkpt lat="41.184165887034254" lon="15.367482919245008"><ele>760.0</ele><time>2026-04-19T15:03:28Z</time></trkpt><trkpt lat="41.18406969943807" lon="15.367400224870922"><ele>758.2</ele><time>2026-04-19T15:03:29Z</time></trkpt><trkpt lat="41.183985838852905" lon="15.367333550808135"><ele>756.4</ele><time>2026-04-19T15:03:30Z</time></trkpt><trkpt lat="41.183905175404625" lon="15.367267149145725"><ele>754.5999999999999</ele><time>2026-04-19T15:03:31Z</time></trkpt><trkpt lat="41.1838309436306" lon="15.367201051074911"><ele>752.8</ele><time>2026-04-19T15:03:32Z</time></trkpt><trkpt lat="41.18376240158738" lon="15.367130521115302"><ele>751.0</ele><time>2026-04-19T15:03:33Z</time></trkpt><trkpt lat="41.18369926395674" lon="15.3670428344118"><ele>751.0</ele><time>2026-04-19T15:03:34Z</time></trkpt><trkpt lat="41.18364906465331" lon="15.366937483280038"><ele>751.0</ele><time>2026-04-19T15:03:35Z</time></trkpt><trkpt lat="41.183615600130175" lon="15.3668152051838"><ele>751.0</ele><time>2026-04-19T15:03:36Z</time></trkpt><trkpt lat="41.18357548173276" lon="15.366670849552241"><ele>751.0</ele><time>2026-04-19T15:03:37Z</time></trkpt><trkpt lat="41.183499491193686" lon="15.366498953197295"><ele>749.0</ele><time>2026-04-19T15:03:38Z</time></trkpt><trkpt lat="41.18342060721666" lon="15.366349543482766"><ele>747.0</ele><time>2026-04-19T15:03:39Z</time></trkpt><trkpt lat="41.183340630258186" lon="15.366231752896956"><ele>745.0</ele><time>2026-04-19T15:03:40Z</time></trkpt><trkpt lat="41.183248254222775" lon="15.366105890850989"><ele>743.0</ele><time>2026-04-19T15:03:41Z</time></trkpt><trkpt lat="41.1831414062568" lon="15.365984132267599"><ele>743.0</ele><time>2026-04-19T15:03:42Z</time></trkpt><trkpt lat="41.183049041139554" lon="15.365866928349645"><ele>743.0</ele><time>2026-04-19T15:03:43Z</time></trkpt><trkpt lat="41.182971301597625" lon="15.365736569725799"><ele>743.0</ele><time>2026-04-19T15:03:44Z</time></trkpt><trkpt lat="41.18291412735303" lon="15.365608114148445"><ele>743.0</ele><time>2026-04-19T15:03:45Z</time></trkpt><trkpt lat="41.18286086660857" lon="15.365482499054076"><ele>747.5</ele><time>2026-04-19T15:03:46Z</time></trkpt><trkpt lat="41.18279535047786" lon="15.365358908454075"><ele>752.0</ele><time>2026-04-19T15:03:46.999Z</time></trkpt><trkpt lat="41.18270236820605" lon="15.365256490261098"><ele>756.5</ele><time>2026-04-19T15:03:47.999Z</time></trkpt><trkpt lat="41.18258403202574" lon="15.365185309263602"><ele>761.0</ele><time>2026-04-19T15:03:48.999Z</time></trkpt><trkpt lat="41.182435588939086" lon="15.365132582851485"><ele>757.3333333333333</ele><time>2026-04-19T15:03:49.999Z</time></trkpt><trkpt lat="41.18230080213002" lon="15.365075147300297"><ele>753.6666666666666</ele><time>2026-04-19T15:03:50.999Z</time></trkpt><trkpt lat="41.182124180935816" lon="15.36502301586081"><ele>750.0</ele><time>2026-04-19T15:03:52Z</time></trkpt><trkpt lat="41.18196402142531" lon="15.364965798161823"><ele>750.0</ele><time>2026-04-19T15:03:53Z</time></trkpt><trkpt lat="41.181829647100265" lon="15.364961544463364"><ele>750.0</ele><time>2026-04-19T15:03:54Z</time></trkpt><trkpt lat="41.181684651209785" lon="15.364920921235349"><ele>750.0</ele><time>2026-04-19T15:03:55Z</time></trkpt><trkpt lat="41.181578774948846" lon="15.364880676917085"><ele>750.0</ele><time>2026-04-19T15:03:56Z</time></trkpt><trkpt lat="41.181491801049894" lon="15.364798145823809"><ele>748.2</ele><time>2026-04-19T15:03:57Z</time></trkpt><trkpt lat="41.18142957954576" lon="15.364719681460258"><ele>746.4</ele><time>2026-04-19T15:03:58Z</time></trkpt><trkpt lat="41.181367100396365" lon="15.36462044969583"><ele>744.5999999999999</ele><time>2026-04-19T15:03:59Z</time></trkpt><trkpt lat="41.18130750662492" lon="15.364504680393848"><ele>742.8</ele><time>2026-04-19T15:04:00Z</time></trkpt><trkpt lat="41.18121373907926" lon="15.364343620328585"><ele>741.0</ele><time>2026-04-19T15:04:01Z</time></trkpt><trkpt lat="41.18112528678297" lon="15.364148993915677"><ele>741.0</ele><time>2026-04-19T15:04:02Z</time></trkpt><trkpt lat="41.18105416553639" lon="15.363982399323566"><ele>741.0</ele><time>2026-04-19T15:04:03Z</time></trkpt><trkpt lat="41.18098128127631" lon="15.36381046949756"><ele>741.0</ele><time>2026-04-19T15:04:04Z</time></trkpt><trkpt lat="41.18091027825394" lon="15.36366002791026"><ele>741.0</ele><time>2026-04-19T15:04:05Z</time></trkpt><trkpt lat="41.18083677410762" lon="15.363560764920718"><ele>740.5</ele><time>2026-04-19T15:04:06Z</time></trkpt><trkpt lat="41.180729826668134" lon="15.363474122299966"><ele>740.0</ele><time>2026-04-19T15:04:07Z</time></trkpt><trkpt lat="41.180602903764104" lon="15.363420819788985"><ele>739.5</ele><time>2026-04-19T15:04:08Z</time></trkpt><trkpt lat="41.180465878685446" lon="15.36337533094692"><ele>739.0</ele><time>2026-04-19T15:04:09Z</time></trkpt><trkpt lat="41.1803483553295" lon="15.363330231977265"><ele>739.0</ele><time>2026-04-19T15:04:10Z</time></trkpt><trkpt lat="41.18027278878493" lon="15.363284778301027"><ele>739.0</ele><time>2026-04-19T15:04:11Z</time></trkpt><trkpt lat="41.180190091658666" lon="15.36322127439508"><ele>739.0</ele><time>2026-04-19T15:04:12Z</time></trkpt><trkpt lat="41.180130012853986" lon="15.363169259017116"><ele>739.0</ele><time>2026-04-19T15:04:13Z</time></trkpt><trkpt lat="41.180077317976284" lon="15.363095168078187"><ele>739.0</ele><time>2026-04-19T15:04:14Z</time></trkpt><trkpt lat="41.18003942407692" lon="15.363024205397215"><ele>739.0</ele><time>2026-04-19T15:04:15Z</time></trkpt><trkpt lat="41.17999247036066" lon="15.362914408777145"><ele>740.75</ele><time>2026-04-19T15:04:17Z</time></trkpt><trkpt lat="41.179932527238314" lon="15.362857674477826"><ele>742.5</ele><time>2026-04-19T15:04:24Z</time></trkpt><trkpt lat="41.17988125463369" lon="15.362789925922455"><ele>744.25</ele><time>2026-04-19T15:04:26Z</time></trkpt><trkpt lat="41.179645376080344" lon="15.362888399754338"><ele>746.0</ele><time>2026-04-19T15:04:27Z</time></trkpt><trkpt lat="41.17956361732925" lon="15.362857006516414"><ele>743.3333333333333</ele><time>2026-04-19T15:04:28Z</time></trkpt><trkpt lat="41.179435144375304" lon="15.362851282724263"><ele>740.6666666666666</ele><time>2026-04-19T15:04:30Z</time></trkpt><trkpt lat="41.17936004545819" lon="15.362841301243812"><ele>738.0</ele><time>2026-04-19T15:04:31Z</time></trkpt><trkpt lat="41.17928324927608" lon="15.362831934966074"><ele>735.3333333333334</ele><time>2026-04-19T15:04:32Z</time></trkpt><trkpt lat="41.179200778805175" lon="15.362835245665265"><ele>732.6666666666667</ele><time>2026-04-19T15:04:33Z</time></trkpt><trkpt lat="41.179126888327154" lon="15.362822892310417"><ele>730.0</ele><time>2026-04-19T15:04:34Z</time></trkpt><trkpt lat="41.17905781989097" lon="15.362826199448376"><ele>726.8333333333334</ele><time>2026-04-19T15:04:35Z</time></trkpt><trkpt lat="41.17899048130182" lon="15.362848482889028"><ele>723.6666666666667</ele><time>2026-04-19T15:04:36Z</time></trkpt><trkpt lat="41.178905979074194" lon="15.362844768662576"><ele>720.5</ele><time>2026-04-19T15:04:37Z</time></trkpt><trkpt lat="41.17882161300668" lon="15.362843698993718"><ele>717.3333333333334</ele><time>2026-04-19T15:04:38Z</time></trkpt><trkpt lat="41.178744762314686" lon="15.362844440346771"><ele>714.1666666666666</ele><time>2026-04-19T15:04:39Z</time></trkpt><trkpt lat="41.1786720780979" lon="15.362835787346967"><ele>711.0</ele><time>2026-04-19T15:04:40Z</time></trkpt><trkpt lat="41.178561301091555" lon="15.362829838470008"><ele>711.0</ele><time>2026-04-19T15:04:42Z</time></trkpt><trkpt lat="41.17845351799172" lon="15.36283313108546"><ele>711.0</ele><time>2026-04-19T15:04:44Z</time></trkpt><trkpt lat="41.17845325839444" lon="15.362976791928661"><ele>711.0</ele><time>2026-04-19T15:04:46Z</time></trkpt><trkpt lat="41.17838296792139" lon="15.363043746130087"><ele>711.0</ele><time>2026-04-19T15:04:48Z</time></trkpt><trkpt lat="41.178319430284766" lon="15.363090694883752"><ele>711.0</ele><time>2026-04-19T15:04:51Z</time></trkpt><trkpt lat="41.17824005736211" lon="15.363145849955997"><ele>706.5</ele><time>2026-04-19T15:04:54Z</time></trkpt><trkpt lat="41.17817720485454" lon="15.363202033975567"><ele>702.0</ele><time>2026-04-19T15:04:56Z</time></trkpt><trkpt lat="41.17808603476742" lon="15.363250022469435"><ele>697.5</ele><time>2026-04-19T15:04:58Z</time></trkpt><trkpt lat="41.1780072094443" lon="15.363276076596842"><ele>693.0</ele><time>2026-04-19T15:05:00Z</time></trkpt><trkpt lat="41.17791661117049" lon="15.36318578006723"><ele>688.5</ele><time>2026-04-19T15:05:03Z</time></trkpt><trkpt lat="41.17786327765327" lon="15.363112374705821"><ele>684.0</ele><time>2026-04-19T15:05:04Z</time></trkpt><trkpt lat="41.17780136417687" lon="15.363050677506633"><ele>687.0</ele><time>2026-04-19T15:05:05Z</time></trkpt><trkpt lat="41.17773911927312" lon="15.363017086615665"><ele>690.0</ele><time>2026-04-19T15:05:06Z</time></trkpt><trkpt lat="41.177654455302005" lon="15.362934930428112"><ele>693.0</ele><time>2026-04-19T15:05:08Z</time></trkpt><trkpt lat="41.177579838003616" lon="15.362835628751046"><ele>696.0</ele><time>2026-04-19T15:05:10Z</time></trkpt><trkpt lat="41.17748523558683" lon="15.362745682270871"><ele>699.0</ele><time>2026-04-19T15:05:12Z</time></trkpt><trkpt lat="41.17742664599215" lon="15.362671081114717"><ele>699.0</ele><time>2026-04-19T15:05:14Z</time></trkpt><trkpt lat="41.17737501632845" lon="15.362598702165476"><ele>699.0</ele><time>2026-04-19T15:05:16Z</time></trkpt><trkpt lat="41.17729317748965" lon="15.36254145983312"><ele>699.0</ele><time>2026-04-19T15:05:18Z</time></trkpt><trkpt lat="41.17723238122212" lon="15.362519505356037"><ele>699.0</ele><time>2026-04-19T15:05:19Z</time></trkpt><trkpt lat="41.17713894519055" lon="15.36251927294268"><ele>699.0</ele><time>2026-04-19T15:05:21Z</time></trkpt><trkpt lat="41.17704195987458" lon="15.362491425492045"><ele>699.0</ele><time>2026-04-19T15:05:23Z</time></trkpt><trkpt lat="41.17694503275326" lon="15.362415202393521"><ele>698.4000000000001</ele><time>2026-04-19T15:05:25Z</time></trkpt><trkpt lat="41.1768868535284" lon="15.362366460156185"><ele>697.8</ele><time>2026-04-19T15:05:26Z</time></trkpt><trkpt lat="41.176759907452045" lon="15.362341447328413"><ele>697.2</ele><time>2026-04-19T15:05:28Z</time></trkpt><trkpt lat="41.17669556671082" lon="15.362349923723496"><ele>696.5999999999999</ele><time>2026-04-19T15:05:29Z</time></trkpt><trkpt lat="41.17656564433869" lon="15.362376378998615"><ele>696.0</ele><time>2026-04-19T15:05:31Z</time></trkpt><trkpt lat="41.17648603414014" lon="15.362400317286353"><ele>694.6666666666666</ele><time>2026-04-19T15:05:32Z</time></trkpt><trkpt lat="41.17641636165428" lon="15.362439612097106"><ele>693.3333333333334</ele><time>2026-04-19T15:05:33Z</time></trkpt><trkpt lat="41.176344702220426" lon="15.362491467096353"><ele>692.0</ele><time>2026-04-19T15:05:34Z</time></trkpt><trkpt lat="41.176265955081114" lon="15.362521904608979"><ele>690.6666666666667</ele><time>2026-04-19T15:05:35Z</time></trkpt><trkpt lat="41.17617683701086" lon="15.362534986467223"><ele>689.3333333333334</ele><time>2026-04-19T15:05:36Z</time></trkpt><trkpt lat="41.17608939286487" lon="15.362553653942454"><ele>688.0</ele><time>2026-04-19T15:05:37Z</time></trkpt><trkpt lat="41.17601007967019" lon="15.362545513545458"><ele>688.0</ele><time>2026-04-19T15:05:38Z</time></trkpt><trkpt lat="41.17595476243343" lon="15.362491485629182"><ele>688.0</ele><time>2026-04-19T15:05:39Z</time></trkpt><trkpt lat="41.175875534530164" lon="15.362436013537035"><ele>688.0</ele><time>2026-04-19T15:05:40Z</time></trkpt><trkpt lat="41.175807371164964" lon="15.362376386717827"><ele>688.0</ele><time>2026-04-19T15:05:41Z</time></trkpt><trkpt lat="41.17573673020533" lon="15.3623189945927"><ele>688.0</ele><time>2026-04-19T15:05:42Z</time></trkpt><trkpt lat="41.175679464271425" lon="15.36225207877975"><ele>688.0</ele><time>2026-04-19T15:05:43Z</time></trkpt><trkpt lat="41.17561483628965" lon="15.362163752441536"><ele>688.8333333333334</ele><time>2026-04-19T15:05:44Z</time></trkpt><trkpt lat="41.175547033741694" lon="15.362105473915491"><ele>689.6666666666667</ele><time>2026-04-19T15:05:45Z</time></trkpt><trkpt lat="41.17547884882386" lon="15.362081403680163"><ele>690.5</ele><time>2026-04-19T15:05:46Z</time></trkpt><trkpt lat="41.17538554300275" lon="15.362068177933278"><ele>691.3333333333334</ele><time>2026-04-19T15:05:47Z</time></trkpt><trkpt lat="41.17530949273717" lon="15.362100493423474"><ele>692.1666666666666</ele><time>2026-04-19T15:05:48Z</time></trkpt><trkpt lat="41.175239066664865" lon="15.362146398981434"><ele>693.0</ele><time>2026-04-19T15:05:49Z</time></trkpt><trkpt lat="41.17514315815768" lon="15.36220154758691"><ele>690.0</ele><time>2026-04-19T15:05:51Z</time></trkpt><trkpt lat="41.17503484019911" lon="15.362238701882452"><ele>687.0</ele><time>2026-04-19T15:05:53Z</time></trkpt><trkpt lat="41.174970732219705" lon="15.362229803530658"><ele>684.0</ele><time>2026-04-19T15:05:54Z</time></trkpt><trkpt lat="41.17489993586387" lon="15.36223492747822"><ele>681.0</ele><time>2026-04-19T15:05:55Z</time></trkpt><trkpt lat="41.174824128719926" lon="15.362286602328851"><ele>678.0</ele><time>2026-04-19T15:05:57Z</time></trkpt><trkpt lat="41.174733654560306" lon="15.362421169674665"><ele>676.2</ele><time>2026-04-19T15:05:59Z</time></trkpt><trkpt lat="41.17461071868125" lon="15.362477992565553"><ele>674.4</ele><time>2026-04-19T15:06:01Z</time></trkpt><trkpt lat="41.174526882418085" lon="15.362523310243333"><ele>672.6</ele><time>2026-04-19T15:06:02Z</time></trkpt><trkpt lat="41.174438067429904" lon="15.362601113689886"><ele>670.8000000000001</ele><time>2026-04-19T15:06:04Z</time></trkpt><trkpt lat="41.17433376154656" lon="15.362671750658718"><ele>669.0</ele><time>2026-04-19T15:06:06Z</time></trkpt><trkpt lat="41.17424393091135" lon="15.362766167697835"><ele>669.0</ele><time>2026-04-19T15:06:08Z</time></trkpt><trkpt lat="41.174187850230936" lon="15.36280946146941"><ele>669.0</ele><time>2026-04-19T15:06:09Z</time></trkpt><trkpt lat="41.174118259464684" lon="15.362909858721682"><ele>669.0</ele><time>2026-04-19T15:06:11Z</time></trkpt><trkpt lat="41.17405804855505" lon="15.362994669348069"><ele>669.0</ele><time>2026-04-19T15:06:14Z</time></trkpt><trkpt lat="41.173990277577914" lon="15.363063232356913"><ele>669.0</ele><time>2026-04-19T15:06:16Z</time></trkpt><trkpt lat="41.17393997703676" lon="15.363142185567936"><ele>669.0</ele><time>2026-04-19T15:06:18Z</time></trkpt><trkpt lat="41.17388667918422" lon="15.363252398486987"><ele>664.5</ele><time>2026-04-19T15:06:20Z</time></trkpt><trkpt lat="41.17389243322389" lon="15.363358826400393"><ele>660.0</ele><time>2026-04-19T15:06:22Z</time></trkpt><trkpt lat="41.1739051513398" lon="15.363481827154978"><ele>655.5</ele><time>2026-04-19T15:06:24Z</time></trkpt><trkpt lat="41.1739038634769" lon="15.36359426917475"><ele>651.0</ele><time>2026-04-19T15:06:26Z</time></trkpt><trkpt lat="41.17391231611718" lon="15.363677502603572"><ele>646.5</ele><time>2026-04-19T15:06:27Z</time></trkpt><trkpt lat="41.173926989874225" lon="15.363816644476989"><ele>642.0</ele><time>2026-04-19T15:06:29Z</time></trkpt><trkpt lat="41.173940416801706" lon="15.363926922074032"><ele>640.8333333333334</ele><time>2026-04-19T15:06:30Z</time></trkpt><trkpt lat="41.17394049788289" lon="15.364040413772235"><ele>639.6666666666666</ele><time>2026-04-19T15:06:31Z</time></trkpt><trkpt lat="41.17395614541007" lon="15.364128177063847"><ele>638.5</ele><time>2026-04-19T15:06:32Z</time></trkpt><trkpt lat="41.174019979237976" lon="15.364242293481778"><ele>637.3333333333333</ele><time>2026-04-19T15:06:34Z</time></trkpt><trkpt lat="41.17402793924127" lon="15.3643412452349"><ele>636.1666666666666</ele><time>2026-04-19T15:06:37Z</time></trkpt><trkpt lat="41.173969629412476" lon="15.364410127422229"><ele>635.0</ele><time>2026-04-19T15:06:39Z</time></trkpt><trkpt lat="41.17392943642176" lon="15.364492539941704"><ele>632.6</ele><time>2026-04-19T15:06:42Z</time></trkpt><trkpt lat="41.173860203853145" lon="15.364613874821298"><ele>630.2</ele><time>2026-04-19T15:06:44Z</time></trkpt><trkpt lat="41.17376626046916" lon="15.364713061146036"><ele>627.8</ele><time>2026-04-19T15:06:46Z</time></trkpt><trkpt lat="41.173705425673184" lon="15.364750934663089"><ele>625.4</ele><time>2026-04-19T15:06:47Z</time></trkpt><trkpt lat="41.17358742809157" lon="15.364780320877546"><ele>623.0</ele><time>2026-04-19T15:06:49Z</time></trkpt><trkpt lat="41.17351117884529" lon="15.36477257464943"><ele>619.8333333333333</ele><time>2026-04-19T15:06:50Z</time></trkpt><trkpt lat="41.173442257477596" lon="15.364757070932232"><ele>616.6666666666666</ele><time>2026-04-19T15:06:51Z</time></trkpt><trkpt lat="41.173364054587495" lon="15.3647618293348"><ele>613.5</ele><time>2026-04-19T15:06:52Z</time></trkpt><trkpt lat="41.17328973132995" lon="15.364771198252296"><ele>610.3333333333334</ele><time>2026-04-19T15:06:53Z</time></trkpt><trkpt lat="41.17322336328383" lon="15.364778022195734"><ele>607.1666666666667</ele><time>2026-04-19T15:06:54Z</time></trkpt><trkpt lat="41.173114824886326" lon="15.36482449484944"><ele>604.0</ele><time>2026-04-19T15:06:56Z</time></trkpt><trkpt lat="41.17305172330604" lon="15.36484985271946"><ele>603.6666666666667</ele><time>2026-04-19T15:06:58Z</time></trkpt><trkpt lat="41.1729919480677" lon="15.364782927381123"><ele>603.3333333333334</ele><time>2026-04-19T15:07:00Z</time></trkpt><trkpt lat="41.172946288827745" lon="15.364717676625414"><ele>603.0</ele><time>2026-04-19T15:07:03Z</time></trkpt><trkpt lat="41.17287846566816" lon="15.36468101897349"><ele>602.6666666666666</ele><time>2026-04-19T15:07:05Z</time></trkpt><trkpt lat="41.17280705731592" lon="15.364634540095517"><ele>602.3333333333333</ele><time>2026-04-19T15:07:08Z</time></trkpt><trkpt lat="41.17273363742156" lon="15.364599934101907"><ele>602.0</ele><time>2026-04-19T15:07:12Z</time></trkpt><trkpt lat="41.17265782633137" lon="15.364592474440004"><ele>602.0</ele><time>2026-04-19T15:07:17Z</time></trkpt><trkpt lat="41.17255387455462" lon="15.364589982753607"><ele>602.0</ele><time>2026-04-19T15:07:20Z</time></trkpt><trkpt lat="41.17247996117687" lon="15.364578853265682"><ele>602.0</ele><time>2026-04-19T15:07:22Z</time></trkpt><trkpt lat="41.17241201890259" lon="15.36451506883999"><ele>602.0</ele><time>2026-04-19T15:07:25Z</time></trkpt><trkpt lat="41.172343004689566" lon="15.364418281078441"><ele>602.0</ele><time>2026-04-19T15:07:27Z</time></trkpt><trkpt lat="41.172294572260824" lon="15.36431997750543"><ele>598.2</ele><time>2026-04-19T15:07:30Z</time></trkpt><trkpt lat="41.17224225595424" lon="15.364221765473468"><ele>594.4000000000001</ele><time>2026-04-19T15:07:32Z</time></trkpt><trkpt lat="41.17217442846381" lon="15.364162088897872"><ele>590.5999999999999</ele><time>2026-04-19T15:07:34Z</time></trkpt><trkpt lat="41.17208146993559" lon="15.364094594581802"><ele>586.8</ele><time>2026-04-19T15:07:36Z</time></trkpt><trkpt lat="41.17197678719917" lon="15.364041290398804"><ele>583.0</ele><time>2026-04-19T15:07:38Z</time></trkpt><trkpt lat="41.171892687738236" lon="15.363983336243356"><ele>583.0</ele><time>2026-04-19T15:07:40Z</time></trkpt><trkpt lat="41.17182526539217" lon="15.363932207246634"><ele>583.0</ele><time>2026-04-19T15:07:42Z</time></trkpt><trkpt lat="41.17175981243331" lon="15.363891284044518"><ele>583.0</ele><time>2026-04-19T15:07:44Z</time></trkpt><trkpt lat="41.171654925945" lon="15.363883896699637"><ele>583.0</ele><time>2026-04-19T15:07:46Z</time></trkpt><trkpt lat="41.17157341723681" lon="15.363926409114587"><ele>583.0</ele><time>2026-04-19T15:07:49Z</time></trkpt><trkpt lat="41.171487157677895" lon="15.363937494632527"><ele>583.0</ele><time>2026-04-19T15:07:51Z</time></trkpt><trkpt lat="41.17138999791857" lon="15.363933871783818"><ele>580.6</ele><time>2026-04-19T15:07:53Z</time></trkpt><trkpt lat="41.17129099004899" lon="15.363920458193395"><ele>578.1999999999999</ele><time>2026-04-19T15:07:55Z</time></trkpt><trkpt lat="41.171184342468806" lon="15.363912435282984"><ele>575.8</ele><time>2026-04-19T15:07:57Z</time></trkpt><trkpt lat="41.17108932761126" lon="15.363934913596138"><ele>573.4</ele><time>2026-04-19T15:07:59Z</time></trkpt><trkpt lat="41.17100043928911" lon="15.363986870524863"><ele>571.0</ele><time>2026-04-19T15:08:01Z</time></trkpt><trkpt lat="41.17093685706998" lon="15.364073110676223"><ele>571.0</ele><time>2026-04-19T15:08:04Z</time></trkpt><trkpt lat="41.170874439040375" lon="15.364155576321641"><ele>571.0</ele><time>2026-04-19T15:08:06Z</time></trkpt><trkpt lat="41.17082427573781" lon="15.36422602605807"><ele>571.0</ele><time>2026-04-19T15:08:08Z</time></trkpt><trkpt lat="41.17079387504237" lon="15.364300656689753"><ele>571.0</ele><time>2026-04-19T15:08:11Z</time></trkpt><trkpt lat="41.170726957540204" lon="15.364398450759762"><ele>571.0</ele><time>2026-04-19T15:08:14Z</time></trkpt><trkpt lat="41.17068101414007" lon="15.36448822385871"><ele>571.0</ele><time>2026-04-19T15:08:16Z</time></trkpt><trkpt lat="41.17063376569377" lon="15.364565375901035"><ele>568.2</ele><time>2026-04-19T15:08:19Z</time></trkpt><trkpt lat="41.17058036803092" lon="15.364658939644343"><ele>565.4000000000001</ele><time>2026-04-19T15:08:20Z</time></trkpt><trkpt lat="41.17052059594877" lon="15.364737670153378"><ele>562.6</ele><time>2026-04-19T15:08:22Z</time></trkpt><trkpt lat="41.17044657432375" lon="15.364820259637147"><ele>559.8000000000001</ele><time>2026-04-19T15:08:24Z</time></trkpt><trkpt lat="41.1703700971387" lon="15.364922238278858"><ele>557.0</ele><time>2026-04-19T15:08:26Z</time></trkpt><trkpt lat="41.17030838641421" lon="15.365040075286739"><ele>554.2</ele><time>2026-04-19T15:08:28Z</time></trkpt><trkpt lat="41.17023603220778" lon="15.365147925367841"><ele>551.4000000000001</ele><time>2026-04-19T15:08:30Z</time></trkpt><trkpt lat="41.17019890792362" lon="15.365219517546501"><ele>548.5999999999999</ele><time>2026-04-19T15:08:31Z</time></trkpt><trkpt lat="41.17012979916666" lon="15.365341108227716"><ele>545.8</ele><time>2026-04-19T15:08:33Z</time></trkpt><trkpt lat="41.170062565675806" lon="15.365439607919871"><ele>543.0</ele><time>2026-04-19T15:08:35Z</time></trkpt><trkpt lat="41.169988341401286" lon="15.365520965548773"><ele>541.3333333333334</ele><time>2026-04-19T15:08:37Z</time></trkpt><trkpt lat="41.169941780243654" lon="15.365582285413064"><ele>539.6666666666666</ele><time>2026-04-19T15:08:39Z</time></trkpt><trkpt lat="41.169894298966845" lon="15.365668119638645"><ele>538.0</ele><time>2026-04-19T15:08:41Z</time></trkpt><trkpt lat="41.16984400023119" lon="15.365773197569949"><ele>536.3333333333333</ele><time>2026-04-19T15:08:43Z</time></trkpt><trkpt lat="41.16978568653777" lon="15.36588591014091"><ele>534.6666666666666</ele><time>2026-04-19T15:08:45Z</time></trkpt><trkpt lat="41.169729763653066" lon="15.365979672412632"><ele>533.0</ele><time>2026-04-19T15:08:47Z</time></trkpt><trkpt lat="41.169656101318516" lon="15.36609597926596"><ele>531.5</ele><time>2026-04-19T15:08:49Z</time></trkpt><trkpt lat="41.16960655716648" lon="15.366156658193516"><ele>530.0</ele><time>2026-04-19T15:08:50Z</time></trkpt><trkpt lat="41.1695387817912" lon="15.36623505492762"><ele>528.5</ele><time>2026-04-19T15:08:52Z</time></trkpt><trkpt lat="41.169490629675344" lon="15.366291800252005"><ele>527.0</ele><time>2026-04-19T15:08:53Z</time></trkpt><trkpt lat="41.16943887330851" lon="15.36637042039725"><ele>525.5</ele><time>2026-04-19T15:08:54Z</time></trkpt><trkpt lat="41.16939803481001" lon="15.366455086027866"><ele>524.0</ele><time>2026-04-19T15:08:55Z</time></trkpt><trkpt lat="41.16935019546384" lon="15.366581701152846"><ele>522.6666666666666</ele><time>2026-04-19T15:08:57Z</time></trkpt><trkpt lat="41.16934036707613" lon="15.36668968277856"><ele>521.3333333333333</ele><time>2026-04-19T15:08:59Z</time></trkpt><trkpt lat="41.169310935130845" lon="15.366813757761156"><ele>520.0</ele><time>2026-04-19T15:09:01Z</time></trkpt><trkpt lat="41.16927764636629" lon="15.366885305681276"><ele>518.6666666666666</ele><time>2026-04-19T15:09:02Z</time></trkpt><trkpt lat="41.16923469820655" lon="15.36695729917888"><ele>517.3333333333334</ele><time>2026-04-19T15:09:03Z</time></trkpt><trkpt lat="41.16917468786387" lon="15.367087498985978"><ele>516.0</ele><time>2026-04-19T15:09:05Z</time></trkpt><trkpt lat="41.16910677209018" lon="15.367231854806402"><ele>514.6</ele><time>2026-04-19T15:09:07Z</time></trkpt><trkpt lat="41.16906326975969" lon="15.367298036056267"><ele>513.2</ele><time>2026-04-19T15:09:08Z</time></trkpt><trkpt lat="41.16899608964023" lon="15.367422878560832"><ele>511.79999999999995</ele><time>2026-04-19T15:09:10Z</time></trkpt><trkpt lat="41.168956110915396" lon="15.367614734762618"><ele>510.4</ele><time>2026-04-19T15:09:12Z</time></trkpt><trkpt lat="41.168919317735245" lon="15.367759863869974"><ele>509.0</ele><time>2026-04-19T15:09:13Z</time></trkpt><trkpt lat="41.16888687386091" lon="15.367870468965162"><ele>506.8333333333333</ele><time>2026-04-19T15:09:14Z</time></trkpt><trkpt lat="41.16885218457696" lon="15.367987168927264"><ele>504.66666666666663</ele><time>2026-04-19T15:09:15Z</time></trkpt><trkpt lat="41.16881023938795" lon="15.368085566015099"><ele>502.5</ele><time>2026-04-19T15:09:16Z</time></trkpt><trkpt lat="41.16874679203129" lon="15.368150361012487"><ele>500.33333333333337</ele><time>2026-04-19T15:09:17Z</time></trkpt><trkpt lat="41.168688783352835" lon="15.368204515186084"><ele>498.1666666666667</ele><time>2026-04-19T15:09:18Z</time></trkpt><trkpt lat="41.168592547242945" lon="15.368218837113679"><ele>496.0</ele><time>2026-04-19T15:09:20Z</time></trkpt><trkpt lat="41.16852721428506" lon="15.368256038207345"><ele>494.6666666666667</ele><time>2026-04-19T15:09:21Z</time></trkpt><trkpt lat="41.16847023543817" lon="15.368307360280616"><ele>493.33333333333337</ele><time>2026-04-19T15:09:22Z</time></trkpt><trkpt lat="41.168392296780645" lon="15.36837356160414"><ele>492.0</ele><time>2026-04-19T15:09:23Z</time></trkpt><trkpt lat="41.16832202025503" lon="15.368437368749618"><ele>490.66666666666663</ele><time>2026-04-19T15:09:24Z</time></trkpt><trkpt lat="41.16823015238949" lon="15.368492190089498"><ele>489.3333333333333</ele><time>2026-04-19T15:09:25Z</time></trkpt><trkpt lat="41.168142249836926" lon="15.368523420333815"><ele>488.0</ele><time>2026-04-19T15:09:26Z</time></trkpt><trkpt lat="41.168066247256114" lon="15.368561446999937"><ele>486.16666666666663</ele><time>2026-04-19T15:09:27Z</time></trkpt><trkpt lat="41.16800015606668" lon="15.368585965712983"><ele>484.3333333333333</ele><time>2026-04-19T15:09:28Z</time></trkpt><trkpt lat="41.16792790183816" lon="15.36861388233552"><ele>482.5</ele><time>2026-04-19T15:09:29Z</time></trkpt><trkpt lat="41.16786060458046" lon="15.36864154113686"><ele>480.66666666666663</ele><time>2026-04-19T15:09:30Z</time></trkpt><trkpt lat="41.16779278708273" lon="15.368663593354485"><ele>478.8333333333333</ele><time>2026-04-19T15:09:31Z</time></trkpt><trkpt lat="41.16771577793857" lon="15.368686585299262"><ele>477.0</ele><time>2026-04-19T15:09:32Z</time></trkpt><trkpt lat="41.16761829165082" lon="15.368766226154968"><ele>475.0</ele><time>2026-04-19T15:09:34Z</time></trkpt><trkpt lat="41.16749912448814" lon="15.36886854153064"><ele>473.00000000000006</ele><time>2026-04-19T15:09:36Z</time></trkpt><trkpt lat="41.16742592103535" lon="15.368903270188529"><ele>471.00000000000006</ele><time>2026-04-19T15:09:37Z</time></trkpt><trkpt lat="41.16735531581404" lon="15.368942229930632"><ele>469.0</ele><time>2026-04-19T15:09:38Z</time></trkpt><trkpt lat="41.167294840547925" lon="15.369017097624372"><ele>467.0</ele><time>2026-04-19T15:09:40Z</time></trkpt><trkpt lat="41.16721618520354" lon="15.369108844057715"><ele>465.8333333333333</ele><time>2026-04-19T15:09:42Z</time></trkpt><trkpt lat="41.16713091597138" lon="15.369201192593005"><ele>464.66666666666663</ele><time>2026-04-19T15:09:44Z</time></trkpt><trkpt lat="41.167053778508624" lon="15.369300181851733"><ele>463.5</ele><time>2026-04-19T15:09:46Z</time></trkpt><trkpt lat="41.167033513479424" lon="15.369425446619108"><ele>462.33333333333337</ele><time>2026-04-19T15:09:48Z</time></trkpt><trkpt lat="41.16706170874049" lon="15.36950932854334"><ele>461.1666666666667</ele><time>2026-04-19T15:09:49Z</time></trkpt><trkpt lat="41.16710621924918" lon="15.369575044991423"><ele>460.0</ele><time>2026-04-19T15:09:50Z</time></trkpt><trkpt lat="41.16719705385002" lon="15.369616268820634"><ele>460.00000000000006</ele><time>2026-04-19T15:09:52Z</time></trkpt><trkpt lat="41.1672674470196" lon="15.369580381787364"><ele>460.0</ele><time>2026-04-19T15:09:54Z</time></trkpt><trkpt lat="41.16734443777577" lon="15.369585810912449"><ele>460.0</ele><time>2026-04-19T15:09:56Z</time></trkpt><trkpt lat="41.1672820592539" lon="15.369680585629865"><ele>460.0</ele><time>2026-04-19T15:09:59Z</time></trkpt><trkpt lat="41.16722219793729" lon="15.369722129990567"><ele>460.00000000000006</ele><time>2026-04-19T15:10:00Z</time></trkpt><trkpt lat="41.16716036758607" lon="15.369778845083545"><ele>460.0</ele><time>2026-04-19T15:10:01Z</time></trkpt><trkpt lat="41.16709466495648" lon="15.36979780060459"><ele>458.1666666666667</ele><time>2026-04-19T15:10:02Z</time></trkpt><trkpt lat="41.16704055779264" lon="15.369840577924762"><ele>456.33333333333337</ele><time>2026-04-19T15:10:03Z</time></trkpt><trkpt lat="41.16691860316482" lon="15.369916310194835"><ele>454.5</ele><time>2026-04-19T15:10:05Z</time></trkpt><trkpt lat="41.16685302115174" lon="15.369934482713777"><ele>452.66666666666663</ele><time>2026-04-19T15:10:06Z</time></trkpt><trkpt lat="41.166788177461804" lon="15.369931777193315"><ele>450.8333333333333</ele><time>2026-04-19T15:10:07Z</time></trkpt><trkpt lat="41.16670124995655" lon="15.369923360667745"><ele>449.0</ele><time>2026-04-19T15:10:08Z</time></trkpt><trkpt lat="41.16660346444707" lon="15.369912952883494"><ele>447.5</ele><time>2026-04-19T15:10:09Z</time></trkpt><trkpt lat="41.16649027596221" lon="15.369918272663687"><ele>446.0</ele><time>2026-04-19T15:10:10Z</time></trkpt><trkpt lat="41.16637060590685" lon="15.369896134114406"><ele>444.5</ele><time>2026-04-19T15:10:11Z</time></trkpt><trkpt lat="41.16625246909108" lon="15.369887467113031"><ele>443.0</ele><time>2026-04-19T15:10:12Z</time></trkpt><trkpt lat="41.16614443288745" lon="15.369881854944474"><ele>443.0</ele><time>2026-04-19T15:10:13Z</time></trkpt><trkpt lat="41.16603500714729" lon="15.369880065806345"><ele>442.99999999999994</ele><time>2026-04-19T15:10:14Z</time></trkpt><trkpt lat="41.16591980207267" lon="15.369879657148159"><ele>442.99999999999994</ele><time>2026-04-19T15:10:15Z</time></trkpt><trkpt lat="41.165827187986025" lon="15.369853567132855"><ele>443.0</ele><time>2026-04-19T15:10:16Z</time></trkpt><trkpt lat="41.16574868496963" lon="15.36983767120819"><ele>443.0</ele><time>2026-04-19T15:10:17Z</time></trkpt><trkpt lat="41.165666502341146" lon="15.369832311016825"><ele>441.8333333333333</ele><time>2026-04-19T15:10:18Z</time></trkpt><trkpt lat="41.1655824431495" lon="15.369818842360605"><ele>440.66666666666663</ele><time>2026-04-19T15:10:19Z</time></trkpt><trkpt lat="41.165501431001964" lon="15.369818987766946"><ele>439.5</ele><time>2026-04-19T15:10:20Z</time></trkpt><trkpt lat="41.16541880358985" lon="15.369806713627652"><ele>438.33333333333337</ele><time>2026-04-19T15:10:21Z</time></trkpt><trkpt lat="41.16534974319586" lon="15.36974006580333"><ele>437.1666666666667</ele><time>2026-04-19T15:10:22Z</time></trkpt><trkpt lat="41.16529766838102" lon="15.369636245516169"><ele>436.0</ele><time>2026-04-19T15:10:23Z</time></trkpt><trkpt lat="41.165247207993076" lon="15.369521924796882"><ele>436.00000000000006</ele><time>2026-04-19T15:10:24Z</time></trkpt><trkpt lat="41.16519770596988" lon="15.369437418438988"><ele>436.0</ele><time>2026-04-19T15:10:25Z</time></trkpt><trkpt lat="41.16514636423686" lon="15.369351758656997"><ele>436.0</ele><time>2026-04-19T15:10:26Z</time></trkpt><trkpt lat="41.165094379783646" lon="15.369275202260102"><ele>436.0</ele><time>2026-04-19T15:10:27Z</time></trkpt><trkpt lat="41.16504119000559" lon="15.369197969807422"><ele>436.00000000000006</ele><time>2026-04-19T15:10:28Z</time></trkpt><trkpt lat="41.16499494246572" lon="15.3691244344119"><ele>436.0</ele><time>2026-04-19T15:10:29Z</time></trkpt><trkpt lat="41.16495066457686" lon="15.36902211557375"><ele>436.00000000000006</ele><time>2026-04-19T15:10:31Z</time></trkpt><trkpt lat="41.16499264317913" lon="15.368871497137716"><ele>436.0</ele><time>2026-04-19T15:10:32Z</time></trkpt><trkpt lat="41.16500797860649" lon="15.368763580112416"><ele>436.0</ele><time>2026-04-19T15:10:34Z</time></trkpt><trkpt lat="41.16496545568816" lon="15.368674730146344"><ele>436.0</ele><time>2026-04-19T15:10:37Z</time></trkpt><trkpt lat="41.164966695357904" lon="15.36858651515738"><ele>436.00000000000006</ele><time>2026-04-19T15:10:40Z</time></trkpt><trkpt lat="41.164904240865425" lon="15.368603004787657"><ele>436.0</ele><time>2026-04-19T15:13:17Z</time></trkpt><trkpt lat="41.16488033538637" lon="15.368701454039272"><ele>436.0</ele><time>2026-04-19T15:13:19Z</time></trkpt><trkpt lat="41.16487391275739" lon="15.368830391736996"><ele>436.0</ele><time>2026-04-19T15:13:20Z</time></trkpt><trkpt lat="41.164864819114705" lon="15.36898441014302"><ele>436.0</ele><time>2026-04-19T15:13:21Z</time></trkpt><trkpt lat="41.164852368137865" lon="15.369078971277904"><ele>436.0</ele><time>2026-04-19T15:13:22Z</time></trkpt><trkpt lat="41.16478577455704" lon="15.36913451614381"><ele>436.0</ele><time>2026-04-19T15:13:24Z</time></trkpt><trkpt lat="41.16468844085953" lon="15.369181530738304"><ele>433.5</ele><time>2026-04-19T15:13:25Z</time></trkpt><trkpt lat="41.16456715604124" lon="15.369253358301775"><ele>431.0</ele><time>2026-04-19T15:13:26Z</time></trkpt><trkpt lat="41.16444001335242" lon="15.369329337170555"><ele>428.5</ele><time>2026-04-19T15:13:27Z</time></trkpt><trkpt lat="41.16431538932841" lon="15.36938044930424"><ele>426.0</ele><time>2026-04-19T15:13:28Z</time></trkpt><trkpt lat="41.16421587595481" lon="15.369469244054162"><ele>426.0</ele><time>2026-04-19T15:13:29Z</time></trkpt><trkpt lat="41.16412511652283" lon="15.369524201059962"><ele>426.0</ele><time>2026-04-19T15:13:30Z</time></trkpt><trkpt lat="41.1640467701833" lon="15.369536710405391"><ele>426.0</ele><time>2026-04-19T15:13:31Z</time></trkpt><trkpt lat="41.163917870631686" lon="15.369551981457713"><ele>426.0</ele><time>2026-04-19T15:13:32Z</time></trkpt><trkpt lat="41.163812773902016" lon="15.369589810008629"><ele>426.0</ele><time>2026-04-19T15:13:33Z</time></trkpt><trkpt lat="41.16372634461724" lon="15.369618216838148"><ele>427.0</ele><time>2026-04-19T15:13:34Z</time></trkpt><trkpt lat="41.163632425381365" lon="15.36965261599501"><ele>428.0</ele><time>2026-04-19T15:13:35Z</time></trkpt><trkpt lat="41.16354399124589" lon="15.369691028361473"><ele>429.0</ele><time>2026-04-19T15:13:36Z</time></trkpt><trkpt lat="41.16345956593627" lon="15.369728420665023"><ele>430.0</ele><time>2026-04-19T15:13:37Z</time></trkpt><trkpt lat="41.16336451934224" lon="15.369773258347768"><ele>431.0</ele><time>2026-04-19T15:13:38Z</time></trkpt><trkpt lat="41.16323666274311" lon="15.369826921196665"><ele>435.25</ele><time>2026-04-19T15:13:39Z</time></trkpt><trkpt lat="41.16310618305511" lon="15.369848508696565"><ele>439.5</ele><time>2026-04-19T15:13:40Z</time></trkpt><trkpt lat="41.162989762050756" lon="15.369858259361584"><ele>443.75</ele><time>2026-04-19T15:13:41Z</time></trkpt><trkpt lat="41.16283112883425" lon="15.36987584891308"><ele>448.0</ele><time>2026-04-19T15:13:43Z</time></trkpt><trkpt lat="41.16273942749832" lon="15.369888216593917"><ele>448.0</ele><time>2026-04-19T15:13:44Z</time></trkpt><trkpt lat="41.16262414978461" lon="15.369930735286573"><ele>447.99999999999994</ele><time>2026-04-19T15:13:45Z</time></trkpt><trkpt lat="41.16250810775843" lon="15.369926598328613"><ele>447.99999999999994</ele><time>2026-04-19T15:13:46Z</time></trkpt><trkpt lat="41.16239339042092" lon="15.369929103789888"><ele>448.0</ele><time>2026-04-19T15:13:47Z</time></trkpt><trkpt lat="41.162304499803184" lon="15.369916762200685"><ele>448.0</ele><time>2026-04-19T15:13:48Z</time></trkpt><trkpt lat="41.16229977057324" lon="15.370069953698149"><ele>450.59999999999997</ele><time>2026-04-19T15:13:51Z</time></trkpt><trkpt lat="41.16231410031185" lon="15.370190710598116"><ele>453.19999999999993</ele><time>2026-04-19T15:13:52.999Z</time></trkpt><trkpt lat="41.162295204890235" lon="15.370307497645374"><ele>455.8</ele><time>2026-04-19T15:13:54.999Z</time></trkpt><trkpt lat="41.16219393538195" lon="15.370353769681438"><ele>458.4</ele><time>2026-04-19T15:13:57.999Z</time></trkpt><trkpt lat="41.1620993555486" lon="15.370375843392173"><ele>461.0</ele><time>2026-04-19T15:13:58.999Z</time></trkpt><trkpt lat="41.16215711350209" lon="15.37060118693202"><ele>461.0</ele><time>2026-04-19T15:13:59.999Z</time></trkpt><trkpt lat="41.16220054202777" lon="15.370752106434482"><ele>461.0</ele><time>2026-04-19T15:14:01.999Z</time></trkpt><trkpt lat="41.16223453601507" lon="15.370891147270301"><ele>461.0</ele><time>2026-04-19T15:14:03.999Z</time></trkpt><trkpt lat="41.16223622777882" lon="15.370995439062405"><ele>461.0</ele><time>2026-04-19T15:14:04.999Z</time></trkpt><trkpt lat="41.1622753774538" lon="15.371109518774059"><ele>461.0</ele><time>2026-04-19T15:14:05.999Z</time></trkpt><trkpt lat="41.16230078107582" lon="15.371242498260862"><ele>461.0</ele><time>2026-04-19T15:14:06.999Z</time></trkpt><trkpt lat="41.16232019066769" lon="15.37134471875962"><ele>461.0</ele><time>2026-04-19T15:14:07.999Z</time></trkpt><trkpt lat="41.16232081447048" lon="15.371438421921226"><ele>461.0</ele><time>2026-04-19T15:14:08.999Z</time></trkpt><trkpt lat="41.1623051802078" lon="15.371633506439762"><ele>461.0</ele><time>2026-04-19T15:14:10.999Z</time></trkpt><trkpt lat="41.16230022075731" lon="15.371756070082657"><ele>461.0</ele><time>2026-04-19T15:14:11.999Z</time></trkpt><trkpt lat="41.16229254058224" lon="15.371866002282065"><ele>461.75</ele><time>2026-04-19T15:14:13.999Z</time></trkpt><trkpt lat="41.1622880853708" lon="15.371963871626136"><ele>462.5</ele><time>2026-04-19T15:14:15.999Z</time></trkpt><trkpt lat="41.162111354745825" lon="15.372078555756003"><ele>463.25</ele><time>2026-04-19T15:14:16.999Z</time></trkpt><trkpt lat="41.162044121344906" lon="15.372247291995217"><ele>464.0</ele><time>2026-04-19T15:14:17.999Z</time></trkpt><trkpt lat="41.161991957215164" lon="15.37238657931094"><ele>464.3333333333333</ele><time>2026-04-19T15:14:18.999Z</time></trkpt><trkpt lat="41.161970524006094" lon="15.372529599249155"><ele>464.66666666666663</ele><time>2026-04-19T15:14:19.999Z</time></trkpt><trkpt lat="41.16192018330997" lon="15.372647311862355"><ele>465.0</ele><time>2026-04-19T15:14:22Z</time></trkpt><trkpt lat="41.16187141962772" lon="15.372703280660115"><ele>465.33333333333337</ele><time>2026-04-19T15:14:23Z</time></trkpt><trkpt lat="41.161841482127116" lon="15.372781914852629"><ele>465.6666666666667</ele><time>2026-04-19T15:14:24Z</time></trkpt><trkpt lat="41.16181945164993" lon="15.372900131479245"><ele>466.0</ele><time>2026-04-19T15:14:25Z</time></trkpt><trkpt lat="41.161821158490824" lon="15.373005140851577"><ele>467.25</ele><time>2026-04-19T15:14:26Z</time></trkpt><trkpt lat="41.16182500675476" lon="15.373127963789946"><ele>468.5</ele><time>2026-04-19T15:14:28Z</time></trkpt><trkpt lat="41.16194095150715" lon="15.373131782330182"><ele>469.75</ele><time>2026-04-19T15:14:52Z</time></trkpt><trkpt lat="41.162125958289" lon="15.373131272908607"><ele>471.0</ele><time>2026-04-19T15:14:58Z</time></trkpt><trkpt lat="41.162273406739196" lon="15.373304129154794"><ele>471.0</ele><time>2026-04-19T15:15:06Z</time></trkpt><trkpt lat="41.16225587162947" lon="15.373454444744926"><ele>471.0</ele><time>2026-04-19T15:15:07Z</time></trkpt><trkpt lat="41.16224524562991" lon="15.37356431650319"><ele>471.0</ele><time>2026-04-19T15:15:08Z</time></trkpt><trkpt lat="41.1622442200414" lon="15.373655438369774"><ele>471.0</ele><time>2026-04-19T15:15:09Z</time></trkpt><trkpt lat="41.162230074240924" lon="15.37374900955385"><ele>471.0</ele><time>2026-04-19T15:15:10Z</time></trkpt><trkpt lat="41.16220928321864" lon="15.373835895819399"><ele>471.0</ele><time>2026-04-19T15:15:11Z</time></trkpt><trkpt lat="41.16215315307237" lon="15.37393551233124"><ele>471.57142857142867</ele><time>2026-04-19T15:15:13Z</time></trkpt><trkpt lat="41.16211190332771" lon="15.374009698253904"><ele>472.14285714285717</ele><time>2026-04-19T15:15:15Z</time></trkpt><trkpt lat="41.16217671757665" lon="15.374033555735508"><ele>472.7142857142858</ele><time>2026-04-19T15:15:17Z</time></trkpt><trkpt lat="41.16216004408246" lon="15.374142186710918"><ele>473.28571428571433</ele><time>2026-04-19T15:15:20Z</time></trkpt><trkpt lat="41.16213292821541" lon="15.37424243324164"><ele>473.8571428571429</ele><time>2026-04-19T15:15:22Z</time></trkpt><trkpt lat="41.16213493762208" lon="15.374333320706151"><ele>474.42857142857144</ele><time>2026-04-19T15:15:25Z</time></trkpt><trkpt lat="41.16214837555451" lon="15.374434697481611"><ele>475.0</ele><time>2026-04-19T15:15:26.999Z</time></trkpt><trkpt lat="41.16212833286035" lon="15.374524591271134"><ele>475.0</ele><time>2026-04-19T15:15:48.999Z</time></trkpt><trkpt lat="41.162119540015574" lon="15.374622973382115"><ele>475.00000000000006</ele><time>2026-04-19T15:15:54.999Z</time></trkpt><trkpt lat="41.1621052102064" lon="15.374718656466467"><ele>475.0</ele><time>2026-04-19T15:15:57.999Z</time></trkpt><trkpt lat="41.162114885000264" lon="15.374810953406351"><ele>475.0</ele><time>2026-04-19T15:15:59.999Z</time></trkpt><trkpt lat="41.16210953176205" lon="15.374905335447806"><ele>475.00000000000006</ele><time>2026-04-19T15:16:04.999Z</time></trkpt><trkpt lat="41.16207595617899" lon="15.37498571488636"><ele>475.0</ele><time>2026-04-19T15:16:31Z</time></trkpt><trkpt lat="41.16208730389436" lon="15.37507914655486"><ele>475.0</ele><time>2026-04-19T15:16:34.999Z</time></trkpt><trkpt lat="41.16207766159935" lon="15.37516713508669"><ele>474.1666666666667</ele><time>2026-04-19T15:16:38Z</time></trkpt><trkpt lat="41.1620701690377" lon="15.375268704500916"><ele>473.33333333333337</ele><time>2026-04-19T15:16:41Z</time></trkpt><trkpt lat="41.16204448012466" lon="15.375399513860787"><ele>472.5</ele><time>2026-04-19T15:16:43Z</time></trkpt><trkpt lat="41.162055353868716" lon="15.375494344430738"><ele>471.66666666666663</ele><time>2026-04-19T15:16:46Z</time></trkpt><trkpt lat="41.16216761981311" lon="15.37544146851292"><ele>470.8333333333333</ele><time>2026-04-19T15:16:52Z</time></trkpt><trkpt lat="41.16224443182361" lon="15.375430952461665"><ele>470.0</ele><time>2026-04-19T15:17:04Z</time></trkpt><trkpt lat="41.16230111268508" lon="15.375470221473172"><ele>469.16666666666663</ele><time>2026-04-19T15:17:21Z</time></trkpt><trkpt lat="41.16231018886624" lon="15.375584577369331"><ele>468.3333333333333</ele><time>2026-04-19T15:17:23.999Z</time></trkpt><trkpt lat="41.1622798555563" lon="15.375672456557739"><ele>467.5</ele><time>2026-04-19T15:17:25.999Z</time></trkpt><trkpt lat="41.16223272373904" lon="15.375815441839748"><ele>466.66666666666663</ele><time>2026-04-19T15:17:27.999Z</time></trkpt><trkpt lat="41.16221095575372" lon="15.375895503892215"><ele>465.8333333333333</ele><time>2026-04-19T15:17:28.999Z</time></trkpt><trkpt lat="41.162183494959024" lon="15.376019187278693"><ele>465.0</ele><time>2026-04-19T15:17:30.999Z</time></trkpt><trkpt lat="41.16214865585039" lon="15.376123975408682"><ele>465.0</ele><time>2026-04-19T15:17:32.999Z</time></trkpt><trkpt lat="41.16209473915632" lon="15.376270524019395"><ele>465.0</ele><time>2026-04-19T15:17:34.999Z</time></trkpt><trkpt lat="41.16205543456422" lon="15.376384770949333"><ele>465.0</ele><time>2026-04-19T15:17:36.999Z</time></trkpt><trkpt lat="41.161992190629256" lon="15.376517294185867"><ele>465.0</ele><time>2026-04-19T15:17:38.999Z</time></trkpt><trkpt lat="41.16194647791346" lon="15.376591097785026"><ele>465.0</ele><time>2026-04-19T15:17:39.999Z</time></trkpt><trkpt lat="41.161927674677855" lon="15.376675366301876"><ele>461.3333333333333</ele><time>2026-04-19T15:17:42.999Z</time></trkpt><trkpt lat="41.161911407954825" lon="15.376815470818654"><ele>457.66666666666663</ele><time>2026-04-19T15:18:35Z</time></trkpt><trkpt lat="41.16189179684741" lon="15.376898719725514"><ele>454.0</ele><time>2026-04-19T15:19:10Z</time></trkpt><trkpt lat="41.161823278315545" lon="15.376979193991481"><ele>450.3333333333333</ele><time>2026-04-19T15:19:12.999Z</time></trkpt><trkpt lat="41.16173266255552" lon="15.377030432577198"><ele>446.66666666666663</ele><time>2026-04-19T15:19:15.999Z</time></trkpt><trkpt lat="41.16169082412556" lon="15.37712547830632"><ele>443.0</ele><time>2026-04-19T15:19:17.999Z</time></trkpt><trkpt lat="41.16162810754105" lon="15.377167818169083"><ele>441.16666666666663</ele><time>2026-04-19T15:19:20.999Z</time></trkpt><trkpt lat="41.161571401781586" lon="15.377236532837852"><ele>439.3333333333333</ele><time>2026-04-19T15:20:03.999Z</time></trkpt><trkpt lat="41.16151664847528" lon="15.377301490152858"><ele>437.5</ele><time>2026-04-19T15:20:12.999Z</time></trkpt><trkpt lat="41.16147695478634" lon="15.37739688542741"><ele>435.66666666666663</ele><time>2026-04-19T15:20:15.999Z</time></trkpt><trkpt lat="41.16141889300723" lon="15.377503398088797"><ele>433.8333333333333</ele><time>2026-04-19T15:20:17.999Z</time></trkpt><trkpt lat="41.16137803761189" lon="15.377634711683182"><ele>432.0</ele><time>2026-04-19T15:20:19.999Z</time></trkpt><trkpt lat="41.16134637750914" lon="15.377744473688455"><ele>438.6666666666667</ele><time>2026-04-19T15:20:21.999Z</time></trkpt><trkpt lat="41.1612807601161" lon="15.377703804422435"><ele>445.33333333333337</ele><time>2026-04-19T15:20:24.999Z</time></trkpt><trkpt lat="41.161216028225205" lon="15.37771236252729"><ele>452.0</ele><time>2026-04-19T15:20:28.999Z</time></trkpt><trkpt lat="41.161123610120455" lon="15.377681921265253"><ele>458.6666666666667</ele><time>2026-04-19T15:20:58Z</time></trkpt><trkpt lat="41.16106159818585" lon="15.377647866002897"><ele>465.33333333333337</ele><time>2026-04-19T15:21:02Z</time></trkpt><trkpt lat="41.160984169549884" lon="15.377729095716509"><ele>472.0</ele><time>2026-04-19T15:21:19.999Z</time></trkpt><trkpt lat="41.160939346382754" lon="15.377794609650081"><ele>472.0</ele><time>2026-04-19T15:21:21.999Z</time></trkpt><trkpt lat="41.16088880705141" lon="15.377872790159914"><ele>472.0</ele><time>2026-04-19T15:21:26.999Z</time></trkpt><trkpt lat="41.160921667673534" lon="15.377965442974585"><ele>472.0</ele><time>2026-04-19T15:21:37.999Z</time></trkpt><trkpt lat="41.16090568416301" lon="15.378050872045936"><ele>472.0</ele><time>2026-04-19T15:21:39.999Z</time></trkpt><trkpt lat="41.16089916695786" lon="15.378135683963032"><ele>472.0</ele><time>2026-04-19T15:21:50.999Z</time></trkpt><trkpt lat="41.16083965188204" lon="15.378173403696763"><ele>472.0</ele><time>2026-04-19T15:22:17.999Z</time></trkpt><trkpt lat="41.16076254050005" lon="15.378140369778546"><ele>472.0</ele><time>2026-04-19T15:22:27.999Z</time></trkpt><trkpt lat="41.16067440618002" lon="15.37811794736161"><ele>476.85714285714283</ele><time>2026-04-19T15:22:30.999Z</time></trkpt><trkpt lat="41.160601853414896" lon="15.378155962086618"><ele>481.7142857142858</ele><time>2026-04-19T15:22:36.999Z</time></trkpt><trkpt lat="41.1605391795554" lon="15.378127682509446"><ele>486.5714285714286</ele><time>2026-04-19T15:22:47Z</time></trkpt><trkpt lat="41.160487113925114" lon="15.378221708273621"><ele>491.42857142857144</ele><time>2026-04-19T15:22:57Z</time></trkpt><trkpt lat="41.16040717723965" lon="15.378265274443182"><ele>496.28571428571433</ele><time>2026-04-19T15:23:11Z</time></trkpt><trkpt lat="41.160344192788564" lon="15.378257168299717"><ele>501.1428571428572</ele><time>2026-04-19T15:23:42.999Z</time></trkpt><trkpt lat="41.16030451948195" lon="15.378322789750372"><ele>506.00000000000006</ele><time>2026-04-19T15:23:49.999Z</time></trkpt><trkpt lat="41.16023081302654" lon="15.378355654691747"><ele>506.00000000000006</ele><time>2026-04-19T15:23:59.999Z</time></trkpt><trkpt lat="41.16016668414713" lon="15.378361282111763"><ele>506.0</ele><time>2026-04-19T15:25:05Z</time></trkpt><trkpt lat="41.16009721846839" lon="15.378378016946549"><ele>506.00000000000006</ele><time>2026-04-19T15:25:16Z</time></trkpt><trkpt lat="41.16002688997368" lon="15.378351643369946"><ele>506.00000000000006</ele><time>2026-04-19T15:25:21.999Z</time></trkpt><trkpt lat="41.159971318647145" lon="15.37839118958537"><ele>506.0</ele><time>2026-04-19T15:25:56.999Z</time></trkpt><trkpt lat="41.159896714040315" lon="15.37841542010742"><ele>506.00000000000006</ele><time>2026-04-19T15:26:01.999Z</time></trkpt><trkpt lat="41.1598529381236" lon="15.378492209061864"><ele>506.00000000000006</ele><time>2026-04-19T15:26:10.999Z</time></trkpt><trkpt lat="41.15977962194132" lon="15.3785571259496"><ele>511.57142857142867</ele><time>2026-04-19T15:26:18.999Z</time></trkpt><trkpt lat="41.15970850940857" lon="15.378528204912245"><ele>517.1428571428571</ele><time>2026-04-19T15:26:42.999Z</time></trkpt><trkpt lat="41.1596489945847" lon="15.378558242536288"><ele>522.7142857142858</ele><time>2026-04-19T15:27:05Z</time></trkpt><trkpt lat="41.15958310197618" lon="15.378575161260295"><ele>528.2857142857143</ele><time>2026-04-19T15:27:26.999Z</time></trkpt><trkpt lat="41.159498647169464" lon="15.378592384598944"><ele>533.8571428571429</ele><time>2026-04-19T15:27:31.999Z</time></trkpt><trkpt lat="41.159433288938885" lon="15.378620964975932"><ele>539.4285714285714</ele><time>2026-04-19T15:27:34.999Z</time></trkpt><trkpt lat="41.159364403690276" lon="15.37867950238378"><ele>545.0</ele><time>2026-04-19T15:27:36.999Z</time></trkpt><trkpt lat="41.159331398391664" lon="15.37876926835065"><ele>545.1428571428571</ele><time>2026-04-19T15:27:38.999Z</time></trkpt><trkpt lat="41.15929149942557" lon="15.378873526457532"><ele>545.2857142857143</ele><time>2026-04-19T15:27:41.999Z</time></trkpt><trkpt lat="41.159251251150316" lon="15.378939959041496"><ele>545.4285714285714</ele><time>2026-04-19T15:27:43.999Z</time></trkpt><trkpt lat="41.15919592980883" lon="15.378986909171271"><ele>545.5714285714286</ele><time>2026-04-19T15:27:55.999Z</time></trkpt><trkpt lat="41.1592215983839" lon="15.379084533129472"><ele>545.7142857142858</ele><time>2026-04-19T15:27:59.999Z</time></trkpt><trkpt lat="41.15923643939962" lon="15.379174367109187"><ele>545.8571428571429</ele><time>2026-04-19T15:28:01.999Z</time></trkpt><trkpt lat="41.159250977148865" lon="15.379280401239829"><ele>546.0</ele><time>2026-04-19T15:28:04.999Z</time></trkpt><trkpt lat="41.15925876506395" lon="15.379390164051502"><ele>546.0</ele><time>2026-04-19T15:28:08.999Z</time></trkpt><trkpt lat="41.15927760510944" lon="15.379507632072903"><ele>546.0</ele><time>2026-04-19T15:28:11.999Z</time></trkpt><trkpt lat="41.15925870485008" lon="15.379593212351999"><ele>546.0</ele><time>2026-04-19T15:28:14.999Z</time></trkpt><trkpt lat="41.15924244987944" lon="15.379698941981305"><ele>546.0</ele><time>2026-04-19T15:28:17.999Z</time></trkpt><trkpt lat="41.15922670451559" lon="15.379852269862257"><ele>546.0</ele><time>2026-04-19T15:28:19.999Z</time></trkpt><trkpt lat="41.15921157686485" lon="15.379950865965291"><ele>546.0</ele><time>2026-04-19T15:28:20.999Z</time></trkpt><trkpt lat="41.15919749733613" lon="15.380039156398967"><ele>543.8333333333334</ele><time>2026-04-19T15:28:21.999Z</time></trkpt><trkpt lat="41.15918524087907" lon="15.380128056312733"><ele>541.6666666666666</ele><time>2026-04-19T15:28:22.999Z</time></trkpt><trkpt lat="41.159181252489745" lon="15.380213587800283"><ele>539.5</ele><time>2026-04-19T15:28:23.999Z</time></trkpt><trkpt lat="41.15916580133208" lon="15.380364676441387"><ele>537.3333333333333</ele><time>2026-04-19T15:28:25.999Z</time></trkpt><trkpt lat="41.15916603050369" lon="15.380484548679227"><ele>535.1666666666666</ele><time>2026-04-19T15:28:27.999Z</time></trkpt><trkpt lat="41.159141681276836" lon="15.380561697344476"><ele>533.0</ele><time>2026-04-19T15:28:29.999Z</time></trkpt><trkpt lat="41.159128880133586" lon="15.380658936069"><ele>529.5</ele><time>2026-04-19T15:28:32Z</time></trkpt><trkpt lat="41.159104964864504" lon="15.380749403876186"><ele>526.0</ele><time>2026-04-19T15:28:34Z</time></trkpt><trkpt lat="41.159118582090436" lon="15.380845334080316"><ele>522.5</ele><time>2026-04-19T15:28:36Z</time></trkpt><trkpt lat="41.1591651989669" lon="15.380961146853982"><ele>519.0</ele><time>2026-04-19T15:28:38Z</time></trkpt><trkpt lat="41.159214239839386" lon="15.38103801097765"><ele>515.5</ele><time>2026-04-19T15:28:40Z</time></trkpt><trkpt lat="41.159278517362786" lon="15.381106109506085"><ele>512.0</ele><time>2026-04-19T15:28:42Z</time></trkpt><trkpt lat="41.15933146293149" lon="15.381178991598931"><ele>511.99999999999994</ele><time>2026-04-19T15:28:44Z</time></trkpt><trkpt lat="41.15948721322923" lon="15.381159094652967"><ele>512.0</ele><time>2026-04-19T15:28:48Z</time></trkpt><trkpt lat="41.159551151068555" lon="15.381169813223716"><ele>512.0</ele><time>2026-04-19T15:28:50Z</time></trkpt><trkpt lat="41.15961322413642" lon="15.381189399947468"><ele>512.0</ele><time>2026-04-19T15:28:52Z</time></trkpt><trkpt lat="41.15967862337851" lon="15.381204585149458"><ele>511.99999999999994</ele><time>2026-04-19T15:28:54Z</time></trkpt><trkpt lat="41.15977499321925" lon="15.3811856996898"><ele>512.0</ele><time>2026-04-19T15:28:56Z</time></trkpt><trkpt lat="41.15987295844729" lon="15.381099534204939"><ele>507.99999999999994</ele><time>2026-04-19T15:29:04.001Z</time></trkpt><trkpt lat="41.159934945284206" lon="15.381115691592884"><ele>504.0</ele><time>2026-04-19T15:29:15.001Z</time></trkpt><trkpt lat="41.15997651963554" lon="15.381197821298642"><ele>500.0</ele><time>2026-04-19T15:29:22Z</time></trkpt><trkpt lat="41.16004734388324" lon="15.381249938853964"><ele>496.0</ele><time>2026-04-19T15:29:25Z</time></trkpt><trkpt lat="41.16009357984513" lon="15.381338454247485"><ele>491.99999999999994</ele><time>2026-04-19T15:29:29Z</time></trkpt><trkpt lat="41.16014594001026" lon="15.38141514580283"><ele>488.0</ele><time>2026-04-19T15:29:33Z</time></trkpt><trkpt lat="41.16017106867863" lon="15.381516884623617"><ele>486.66666666666663</ele><time>2026-04-19T15:29:36Z</time></trkpt><trkpt lat="41.16018205571735" lon="15.381617730604116"><ele>485.3333333333333</ele><time>2026-04-19T15:29:39Z</time></trkpt><trkpt lat="41.16024644916295" lon="15.381656967165007"><ele>484.0</ele><time>2026-04-19T15:29:41Z</time></trkpt><trkpt lat="41.16031165789126" lon="15.381693298874172"><ele>482.66666666666663</ele><time>2026-04-19T15:29:43Z</time></trkpt><trkpt lat="41.16037977959349" lon="15.381754832288557"><ele>481.3333333333333</ele><time>2026-04-19T15:29:45Z</time></trkpt><trkpt lat="41.16037997693609" lon="15.381875887164467"><ele>480.0</ele><time>2026-04-19T15:29:49Z</time></trkpt><trkpt lat="41.160403418211686" lon="15.381980254896797"><ele>480.0</ele><time>2026-04-19T15:29:52Z</time></trkpt><trkpt lat="41.16034975092928" lon="15.382032100502705"><ele>480.0</ele><time>2026-04-19T15:29:55Z</time></trkpt><trkpt lat="41.1602915999419" lon="15.382143098283674"><ele>480.0</ele><time>2026-04-19T15:29:58Z</time></trkpt><trkpt lat="41.16023862489796" lon="15.3822012730957"><ele>480.0</ele><time>2026-04-19T15:30:01Z</time></trkpt><trkpt lat="41.16019869702691" lon="15.382286563844527"><ele>480.0</ele><time>2026-04-19T15:30:19Z</time></trkpt><trkpt lat="41.160131879382035" lon="15.382393368262592"><ele>480.0</ele><time>2026-04-19T15:30:22Z</time></trkpt><trkpt lat="41.1600488900816" lon="15.382477718207944"><ele>477.8571428571429</ele><time>2026-04-19T15:30:24Z</time></trkpt><trkpt lat="41.159997367186484" lon="15.382532460684303"><ele>475.71428571428567</ele><time>2026-04-19T15:30:28Z</time></trkpt><trkpt lat="41.16003749333832" lon="15.38261563588304"><ele>473.57142857142856</ele><time>2026-04-19T15:30:31Z</time></trkpt><trkpt lat="41.1600417195535" lon="15.382705050509864"><ele>471.42857142857144</ele><time>2026-04-19T15:30:33Z</time></trkpt><trkpt lat="41.16008066476003" lon="15.38277967233012"><ele>469.28571428571433</ele><time>2026-04-19T15:30:36Z</time></trkpt><trkpt lat="41.16003362228835" lon="15.3828724807947"><ele>467.1428571428571</ele><time>2026-04-19T15:30:39Z</time></trkpt><trkpt lat="41.16006696845333" lon="15.382958147801924"><ele>465.0</ele><time>2026-04-19T15:30:43Z</time></trkpt><trkpt lat="41.160085869597516" lon="15.383074252154902"><ele>464.5</ele><time>2026-04-19T15:30:45Z</time></trkpt><trkpt lat="41.16009011249718" lon="15.383168678295538"><ele>464.0</ele><time>2026-04-19T15:30:49Z</time></trkpt><trkpt lat="41.160158326222366" lon="15.383209532484726"><ele>463.5</ele><time>2026-04-19T15:30:52Z</time></trkpt><trkpt lat="41.160228669864864" lon="15.383171776270075"><ele>463.0</ele><time>2026-04-19T15:30:54Z</time></trkpt><trkpt lat="41.160325358004314" lon="15.383193661806322"><ele>462.5</ele><time>2026-04-19T15:30:57Z</time></trkpt><trkpt lat="41.16037051428123" lon="15.383309367881706"><ele>462.0</ele><time>2026-04-19T15:31:02Z</time></trkpt><trkpt lat="41.16040330837696" lon="15.38339727611348"><ele>462.0</ele><time>2026-04-19T15:31:05Z</time></trkpt><trkpt lat="41.16049095490138" lon="15.38340383252698"><ele>462.0</ele><time>2026-04-19T15:31:07Z</time></trkpt><trkpt lat="41.16056296891443" lon="15.383397389017983"><ele>462.0</ele><time>2026-04-19T15:31:09Z</time></trkpt><trkpt lat="41.16063856576322" lon="15.383366277295758"><ele>462.0</ele><time>2026-04-19T15:31:11Z</time></trkpt><trkpt lat="41.16071321357352" lon="15.38329256847805"><ele>462.0</ele><time>2026-04-19T15:31:13Z</time></trkpt><trkpt lat="41.16080979077104" lon="15.383225899106504"><ele>462.0</ele><time>2026-04-19T15:31:15Z</time></trkpt><trkpt lat="41.16086832125448" lon="15.383191874523643"><ele>458.6</ele><time>2026-04-19T15:31:17Z</time></trkpt><trkpt lat="41.16087594639413" lon="15.383292849478748"><ele>455.20000000000005</ele><time>2026-04-19T15:31:26Z</time></trkpt><trkpt lat="41.16087089811262" lon="15.383407588252744"><ele>451.8</ele><time>2026-04-19T15:31:28Z</time></trkpt><trkpt lat="41.16087323105875" lon="15.38350452385805"><ele>448.4</ele><time>2026-04-19T15:31:30Z</time></trkpt><trkpt lat="41.16089763287542" lon="15.38367263353621"><ele>445.0</ele><time>2026-04-19T15:31:32Z</time></trkpt><trkpt lat="41.1609011128284" lon="15.383824184920414"><ele>444.4</ele><time>2026-04-19T15:31:34Z</time></trkpt><trkpt lat="41.16093307696918" lon="15.383951447071144"><ele>443.8</ele><time>2026-04-19T15:31:36Z</time></trkpt><trkpt lat="41.160931502107964" lon="15.38407957115377"><ele>443.20000000000005</ele><time>2026-04-19T15:31:39Z</time></trkpt><trkpt lat="41.16095948802046" lon="15.38422591166349"><ele>442.6</ele><time>2026-04-19T15:31:41Z</time></trkpt><trkpt lat="41.16100846852027" lon="15.384348293938386"><ele>442.0</ele><time>2026-04-19T15:31:43Z</time></trkpt><trkpt lat="41.161019169501834" lon="15.384446709264312"><ele>442.00000000000006</ele><time>2026-04-19T15:31:45Z</time></trkpt><trkpt lat="41.16096621665103" lon="15.384545393207693"><ele>442.0</ele><time>2026-04-19T15:31:47Z</time></trkpt><trkpt lat="41.16092822307791" lon="15.384679634929395"><ele>442.0</ele><time>2026-04-19T15:31:49Z</time></trkpt><trkpt lat="41.16090785881854" lon="15.384774285344742"><ele>442.0</ele><time>2026-04-19T15:31:50Z</time></trkpt><trkpt lat="41.160881398383346" lon="15.384850694369852"><ele>442.00000000000006</ele><time>2026-04-19T15:31:51Z</time></trkpt><trkpt lat="41.16088058574394" lon="15.384990598624281"><ele>442.0</ele><time>2026-04-19T15:31:53Z</time></trkpt><trkpt lat="41.16088932940542" lon="15.385085895266068"><ele>441.40000000000003</ele><time>2026-04-19T15:31:55Z</time></trkpt><trkpt lat="41.160861517044275" lon="15.385226548149488"><ele>440.80000000000007</ele><time>2026-04-19T15:31:57Z</time></trkpt><trkpt lat="41.16085419387952" lon="15.385343124048893"><ele>440.2</ele><time>2026-04-19T15:31:59Z</time></trkpt><trkpt lat="41.16084536003054" lon="15.385430400902317"><ele>439.6</ele><time>2026-04-19T15:32:03Z</time></trkpt><trkpt lat="41.16081691482738" lon="15.385525718454742"><ele>439.0</ele><time>2026-04-19T15:32:05Z</time></trkpt><trkpt lat="41.16076039790621" lon="15.385653573957319"><ele>437.85714285714283</ele><time>2026-04-19T15:32:08Z</time></trkpt><trkpt lat="41.16070926087973" lon="15.385729095524201"><ele>436.71428571428567</ele><time>2026-04-19T15:32:11Z</time></trkpt><trkpt lat="41.16066642746676" lon="15.38579079181488"><ele>435.57142857142856</ele><time>2026-04-19T15:32:13Z</time></trkpt><trkpt lat="41.160689119393375" lon="15.385880306151728"><ele>434.42857142857144</ele><time>2026-04-19T15:33:01Z</time></trkpt><trkpt lat="41.16071970298468" lon="15.385953461831981"><ele>433.2857142857143</ele><time>2026-04-19T15:33:03Z</time></trkpt><trkpt lat="41.1607738059523" lon="15.386015702600934"><ele>432.14285714285717</ele><time>2026-04-19T15:33:05Z</time></trkpt><trkpt lat="41.16082466903901" lon="15.386082970572033"><ele>431.0</ele><time>2026-04-19T15:33:08Z</time></trkpt><trkpt lat="41.16086853980065" lon="15.386177326452115"><ele>431.0</ele><time>2026-04-19T15:33:11Z</time></trkpt><trkpt lat="41.16089352945471" lon="15.386276088223159"><ele>431.0</ele><time>2026-04-19T15:33:13Z</time></trkpt><trkpt lat="41.16092952319735" lon="15.386359932721364"><ele>431.0</ele><time>2026-04-19T15:33:16Z</time></trkpt><trkpt lat="41.16091033596967" lon="15.386452103563755"><ele>431.0</ele><time>2026-04-19T15:33:19Z</time></trkpt><trkpt lat="41.160921711726786" lon="15.386544871356309"><ele>431.0</ele><time>2026-04-19T15:33:23Z</time></trkpt><trkpt lat="41.16091562291183" lon="15.386630177223202"><ele>431.0</ele><time>2026-04-19T15:33:25Z</time></trkpt><trkpt lat="41.16092085887595" lon="15.386745928783713"><ele>431.0</ele><time>2026-04-19T15:33:29Z</time></trkpt><trkpt lat="41.1609417940927" lon="15.386865941500286"><ele>428.16666666666663</ele><time>2026-04-19T15:33:32Z</time></trkpt><trkpt lat="41.16096371964069" lon="15.386997417175516"><ele>425.3333333333333</ele><time>2026-04-19T15:33:35Z</time></trkpt><trkpt lat="41.16097000231309" lon="15.38708331056671"><ele>422.5</ele><time>2026-04-19T15:33:36Z</time></trkpt><trkpt lat="41.16095808340293" lon="15.387172809261056"><ele>419.66666666666663</ele><time>2026-04-19T15:33:39Z</time></trkpt><trkpt lat="41.16095498385336" lon="15.387278908134485"><ele>416.8333333333333</ele><time>2026-04-19T15:33:41Z</time></trkpt><trkpt lat="41.16096493091408" lon="15.387398538510201"><ele>414.0</ele><time>2026-04-19T15:33:43Z</time></trkpt><trkpt lat="41.16093281468861" lon="15.387504024546459"><ele>414.0</ele><time>2026-04-19T15:33:46Z</time></trkpt><trkpt lat="41.16098243520216" lon="15.387419388104915"><ele>414.0</ele><time>2026-04-19T15:33:49Z</time></trkpt><trkpt lat="41.16096958982325" lon="15.387322971635651"><ele>414.0</ele><time>2026-04-19T15:33:51Z</time></trkpt><trkpt lat="41.16095188447163" lon="15.387229274078054"><ele>414.0</ele><time>2026-04-19T15:33:53Z</time></trkpt><trkpt lat="41.16091421227583" lon="15.387126137406476"><ele>414.0</ele><time>2026-04-19T15:33:55Z</time></trkpt><trkpt lat="41.160890300729726" lon="15.387005930115924"><ele>414.0</ele><time>2026-04-19T15:33:59Z</time></trkpt><trkpt lat="41.16084491770944" lon="15.386943031291205"><ele>414.0</ele><time>2026-04-19T15:34:01Z</time></trkpt><trkpt lat="41.16082002541808" lon="15.386862429421432"><ele>414.0</ele><time>2026-04-19T15:34:03Z</time></trkpt><trkpt lat="41.16080577759535" lon="15.386769506983343"><ele>414.0</ele><time>2026-04-19T15:34:07Z</time></trkpt><trkpt lat="41.16078359711901" lon="15.386662703188422"><ele>414.0</ele><time>2026-04-19T15:38:48Z</time></trkpt><trkpt lat="41.16083562939336" lon="15.386751591078127"><ele>414.0</ele><time>2026-04-19T15:40:34Z</time></trkpt><trkpt lat="41.160848524975975" lon="15.386847844390442"><ele>414.0</ele><time>2026-04-19T15:40:40Z</time></trkpt><trkpt lat="41.16089102609991" lon="15.386937315401187"><ele>414.00000000000006</ele><time>2026-04-19T15:40:43Z</time></trkpt><trkpt lat="41.1609170576687" lon="15.387020448956703"><ele>414.0</ele><time>2026-04-19T15:40:46Z</time></trkpt><trkpt lat="41.16093152917741" lon="15.387120959231398"><ele>414.0</ele><time>2026-04-19T15:40:49Z</time></trkpt><trkpt lat="41.16096188095814" lon="15.387217892980665"><ele>414.0</ele><time>2026-04-19T15:40:51Z</time></trkpt><trkpt lat="41.160966149457664" lon="15.387311315051292"><ele>414.0</ele><time>2026-04-19T15:40:54Z</time></trkpt><trkpt lat="41.16097092890291" lon="15.387403375135966"><ele>414.00000000000006</ele><time>2026-04-19T15:40:57Z</time></trkpt><trkpt lat="41.16095739327952" lon="15.387497663921081"><ele>414.0</ele><time>2026-04-19T15:41:00Z</time></trkpt><trkpt lat="41.16098570471771" lon="15.387392197163821"><ele>414.00000000000006</ele><time>2026-04-19T15:41:03Z</time></trkpt><trkpt lat="41.16095990788308" lon="15.387277704040638"><ele>414.0</ele><time>2026-04-19T15:41:05Z</time></trkpt><trkpt lat="41.16094271795219" lon="15.387193519508092"><ele>414.0</ele><time>2026-04-19T15:41:08Z</time></trkpt><trkpt lat="41.160909423007375" lon="15.387099037455839"><ele>414.0</ele><time>2026-04-19T15:43:15Z</time></trkpt><trkpt lat="41.160887809061556" lon="15.386997875862349"><ele>414.0</ele><time>2026-04-19T15:43:18Z</time></trkpt><trkpt lat="41.16084552998986" lon="15.38693476611993"><ele>414.00000000000006</ele><time>2026-04-19T15:43:20Z</time></trkpt><trkpt lat="41.160813600369245" lon="15.386849846095128"><ele>414.0</ele><time>2026-04-19T15:43:23Z</time></trkpt><trkpt lat="41.160806569143645" lon="15.386762656058712"><ele>414.00000000000006</ele><time>2026-04-19T15:43:27Z</time></trkpt><trkpt lat="41.1607706315517" lon="15.386669288379153"><ele>414.0</ele><time>2026-04-19T15:43:31Z</time></trkpt><trkpt lat="41.160714072562314" lon="15.386628689936128"><ele>414.0</ele><time>2026-04-19T15:58:48Z</time></trkpt><trkpt lat="41.160644474790786" lon="15.386644225503337"><ele>414.0</ele><time>2026-04-19T15:58:59Z</time></trkpt><trkpt lat="41.16057782867995" lon="15.386654768242098"><ele>414.0</ele><time>2026-04-19T15:59:08Z</time></trkpt><trkpt lat="41.160511163644195" lon="15.386667536148684"><ele>414.00000000000006</ele><time>2026-04-19T15:59:15Z</time></trkpt><trkpt lat="41.1604784681448" lon="15.386751032299461"><ele>414.0</ele><time>2026-04-19T15:59:19Z</time></trkpt><trkpt lat="41.16046609083947" lon="15.386843486164446"><ele>420.0</ele><time>2026-04-19T15:59:24Z</time></trkpt><trkpt lat="41.16040105745751" lon="15.386824823493505"><ele>426.0</ele><time>2026-04-19T15:59:49Z</time></trkpt><trkpt lat="41.16034886909224" lon="15.386749546157743"><ele>432.0</ele><time>2026-04-19T15:59:55Z</time></trkpt><trkpt lat="41.16031674654888" lon="15.386646108647842"><ele>438.0</ele><time>2026-04-19T15:59:58Z</time></trkpt><trkpt lat="41.16034964898253" lon="15.386572235818383"><ele>444.0</ele><time>2026-04-19T16:00:01.999Z</time></trkpt><trkpt lat="41.1603551388802" lon="15.386469558498105"><ele>450.0</ele><time>2026-04-19T16:00:04.999Z</time></trkpt><trkpt lat="41.16033735668872" lon="15.386363542189574"><ele>451.1666666666667</ele><time>2026-04-19T16:00:08.999Z</time></trkpt><trkpt lat="41.16035379425833" lon="15.386267560359611"><ele>452.33333333333337</ele><time>2026-04-19T16:00:15.999Z</time></trkpt><trkpt lat="41.16035524769549" lon="15.386170409145105"><ele>453.5</ele><time>2026-04-19T16:00:19.999Z</time></trkpt><trkpt lat="41.16032061047356" lon="15.386039566396835"><ele>454.6666666666667</ele><time>2026-04-19T16:00:23.999Z</time></trkpt><trkpt lat="41.16030662093102" lon="15.385942496483988"><ele>455.83333333333337</ele><time>2026-04-19T16:00:48Z</time></trkpt><trkpt lat="41.160236137069546" lon="15.385959890958972"><ele>457.0</ele><time>2026-04-19T16:00:53Z</time></trkpt><trkpt lat="41.160169836681895" lon="15.386032250850809"><ele>457.00000000000006</ele><time>2026-04-19T16:00:57Z</time></trkpt><trkpt lat="41.16005785343807" lon="15.386026368234496"><ele>457.0</ele><time>2026-04-19T16:00:59Z</time></trkpt><trkpt lat="41.15999329055468" lon="15.386022477086877"><ele>457.0</ele><time>2026-04-19T16:01:00Z</time></trkpt><trkpt lat="41.1599332755587" lon="15.385993009546345"><ele>457.0</ele><time>2026-04-19T16:01:01Z</time></trkpt><trkpt lat="41.159865880811566" lon="15.385985928384455"><ele>457.00000000000006</ele><time>2026-04-19T16:01:03Z</time></trkpt><trkpt lat="41.159776148018" lon="15.38603434620497"><ele>457.0</ele><time>2026-04-19T16:01:05Z</time></trkpt><trkpt lat="41.15972245065268" lon="15.385990448293034"><ele>460.8571428571429</ele><time>2026-04-19T16:01:08Z</time></trkpt><trkpt lat="41.15966384535548" lon="15.386039047069941"><ele>464.7142857142857</ele><time>2026-04-19T16:01:10Z</time></trkpt><trkpt lat="41.15960148719599" lon="15.386103968880876"><ele>468.57142857142856</ele><time>2026-04-19T16:01:13Z</time></trkpt><trkpt lat="41.159539577776876" lon="15.386084968638949"><ele>472.42857142857144</ele><time>2026-04-19T16:01:15Z</time></trkpt><trkpt lat="41.15945706916458" lon="15.386039647697178"><ele>476.2857142857142</ele><time>2026-04-19T16:01:18Z</time></trkpt><trkpt lat="41.159398742710515" lon="15.385990234664288"><ele>480.1428571428571</ele><time>2026-04-19T16:01:39Z</time></trkpt><trkpt lat="41.159324907932664" lon="15.385980673453732"><ele>484.0</ele><time>2026-04-19T16:01:46Z</time></trkpt><trkpt lat="41.15926050514347" lon="15.385979103722045"><ele>484.0</ele><time>2026-04-19T16:10:18.999Z</time></trkpt><trkpt lat="41.159188598637975" lon="15.385923269832151"><ele>483.99999999999994</ele><time>2026-04-19T16:10:20.999Z</time></trkpt><trkpt lat="41.159129146484226" lon="15.38585453603752"><ele>484.0</ele><time>2026-04-19T16:10:22.999Z</time></trkpt><trkpt lat="41.15906749104406" lon="15.385810573398219"><ele>484.0</ele><time>2026-04-19T16:10:26.999Z</time></trkpt><trkpt lat="41.15899921740657" lon="15.385816879749445"><ele>483.99999999999994</ele><time>2026-04-19T16:10:30.999Z</time></trkpt><trkpt lat="41.15893412007049" lon="15.385796155495981"><ele>484.0</ele><time>2026-04-19T16:10:38.999Z</time></trkpt><trkpt lat="41.15886857599593" lon="15.385789792978546"><ele>484.0</ele><time>2026-04-19T16:12:58.999Z</time></trkpt><trkpt lat="41.15879918328678" lon="15.38577574094445"><ele>488.4</ele><time>2026-04-19T16:13:29Z</time></trkpt><trkpt lat="41.15871199143804" lon="15.385749765274992"><ele>492.79999999999995</ele><time>2026-04-19T16:13:34Z</time></trkpt><trkpt lat="41.158632478348004" lon="15.385719052137201"><ele>497.20000000000005</ele><time>2026-04-19T16:13:38Z</time></trkpt><trkpt lat="41.158502515755224" lon="15.385647387832288"><ele>501.6</ele><time>2026-04-19T16:14:34.999Z</time></trkpt><trkpt lat="41.15843472066501" lon="15.385625959522933"><ele>506.0</ele><time>2026-04-19T16:15:01.999Z</time></trkpt><trkpt lat="41.1583672343663" lon="15.385605374336905"><ele>505.99999999999994</ele><time>2026-04-19T16:15:03.999Z</time></trkpt><trkpt lat="41.15835277391076" lon="15.38569512748274"><ele>506.0</ele><time>2026-04-19T16:15:48Z</time></trkpt><trkpt lat="41.15838357081507" lon="15.385808358540299"><ele>506.0</ele><time>2026-04-19T16:15:50Z</time></trkpt><trkpt lat="41.158410059933544" lon="15.385928137460242"><ele>506.0</ele><time>2026-04-19T16:15:51Z</time></trkpt><trkpt lat="41.1584149014156" lon="15.386041423885278"><ele>505.99999999999994</ele><time>2026-04-19T16:15:52Z</time></trkpt><trkpt lat="41.15838850267739" lon="15.386145884479738"><ele>506.0</ele><time>2026-04-19T16:15:53Z</time></trkpt><trkpt lat="41.15831365620425" lon="15.386225329344123"><ele>506.0</ele><time>2026-04-19T16:15:54Z</time></trkpt><trkpt lat="41.158233746544475" lon="15.38630444028301"><ele>506.0</ele><time>2026-04-19T16:15:55Z</time></trkpt><trkpt lat="41.15814542201344" lon="15.38641167026171"><ele>506.0</ele><time>2026-04-19T16:15:56Z</time></trkpt><trkpt lat="41.1580442002475" lon="15.386538573967107"><ele>506.0</ele><time>2026-04-19T16:15:57Z</time></trkpt><trkpt lat="41.157939781432" lon="15.386686321116043"><ele>509.25</ele><time>2026-04-19T16:15:57.999Z</time></trkpt><trkpt lat="41.15784380784851" lon="15.386813964293227"><ele>512.5</ele><time>2026-04-19T16:15:58.999Z</time></trkpt><trkpt lat="41.15775804608143" lon="15.386928538569645"><ele>515.75</ele><time>2026-04-19T16:15:59.999Z</time></trkpt><trkpt lat="41.157677981681005" lon="15.38703632588188"><ele>519.0</ele><time>2026-04-19T16:16:00.999Z</time></trkpt><trkpt lat="41.157600845430544" lon="15.387144614497483"><ele>514.0</ele><time>2026-04-19T16:16:01.999Z</time></trkpt><trkpt lat="41.15753614896113" lon="15.38726895608132"><ele>509.0</ele><time>2026-04-19T16:16:02.999Z</time></trkpt><trkpt lat="41.15749327078309" lon="15.387403400447628"><ele>504.0</ele><time>2026-04-19T16:16:03.999Z</time></trkpt><trkpt lat="41.1575068984862" lon="15.3875989987695"><ele>499.0</ele><time>2026-04-19T16:16:04.999Z</time></trkpt><trkpt lat="41.157564094912935" lon="15.387763481229573"><ele>499.0</ele><time>2026-04-19T16:16:05.999Z</time></trkpt><trkpt lat="41.157627641943016" lon="15.387895734277048"><ele>499.0</ele><time>2026-04-19T16:16:06.999Z</time></trkpt><trkpt lat="41.15772696392687" lon="15.388024998274332"><ele>499.0</ele><time>2026-04-19T16:16:07.999Z</time></trkpt><trkpt lat="41.15783206677148" lon="15.388121527119257"><ele>499.0</ele><time>2026-04-19T16:16:08.999Z</time></trkpt><trkpt lat="41.157931059434944" lon="15.388205964809764"><ele>498.0</ele><time>2026-04-19T16:16:09.999Z</time></trkpt><trkpt lat="41.15802794061024" lon="15.38828732694824"><ele>497.0</ele><time>2026-04-19T16:16:10.999Z</time></trkpt><trkpt lat="41.15812140388276" lon="15.388371353921086"><ele>496.0</ele><time>2026-04-19T16:16:11.999Z</time></trkpt><trkpt lat="41.1581932125793" lon="15.38846097487143"><ele>495.0</ele><time>2026-04-19T16:16:12.999Z</time></trkpt><trkpt lat="41.158232047779535" lon="15.388561732467448"><ele>494.0</ele><time>2026-04-19T16:16:13.999Z</time></trkpt><trkpt lat="41.158254097420404" lon="15.388687568311259"><ele>493.79999999999995</ele><time>2026-04-19T16:16:14.999Z</time></trkpt><trkpt lat="41.1582495964096" lon="15.388814625150957"><ele>493.59999999999997</ele><time>2026-04-19T16:16:15.999Z</time></trkpt><trkpt lat="41.15822196134972" lon="15.388935573544876"><ele>493.4</ele><time>2026-04-19T16:16:16.999Z</time></trkpt><trkpt lat="41.15817441719204" lon="15.38905413840184"><ele>493.2</ele><time>2026-04-19T16:16:17.999Z</time></trkpt><trkpt lat="41.1581193466637" lon="15.389201366840048"><ele>493.0</ele><time>2026-04-19T16:16:18.999Z</time></trkpt><trkpt lat="41.158071950125624" lon="15.389375272458171"><ele>493.0</ele><time>2026-04-19T16:16:19.999Z</time></trkpt><trkpt lat="41.15798973406945" lon="15.389554017345258"><ele>493.0</ele><time>2026-04-19T16:16:20.999Z</time></trkpt><trkpt lat="41.157927036895245" lon="15.38974617934628"><ele>493.0</ele><time>2026-04-19T16:16:21.999Z</time></trkpt><trkpt lat="41.15787660005553" lon="15.389921807658327"><ele>489.5</ele><time>2026-04-19T16:16:22.999Z</time></trkpt><trkpt lat="41.15783379399958" lon="15.390094672230576"><ele>486.0</ele><time>2026-04-19T16:16:23.999Z</time></trkpt><trkpt lat="41.15780818291517" lon="15.39027412294789"><ele>482.5</ele><time>2026-04-19T16:16:24.999Z</time></trkpt><trkpt lat="41.15780525459812" lon="15.390465614862"><ele>479.0</ele><time>2026-04-19T16:16:25.999Z</time></trkpt><trkpt lat="41.15783010402837" lon="15.390671649617437"><ele>475.66666666666663</ele><time>2026-04-19T16:16:26.999Z</time></trkpt><trkpt lat="41.157879437735225" lon="15.39088217367574"><ele>472.33333333333337</ele><time>2026-04-19T16:16:27.999Z</time></trkpt><trkpt lat="41.157968174484175" lon="15.391099326325003"><ele>469.0</ele><time>2026-04-19T16:16:28.999Z</time></trkpt><trkpt lat="41.1580655034533" lon="15.391346791172438"><ele>465.0</ele><time>2026-04-19T16:16:29.999Z</time></trkpt><trkpt lat="41.158166914918226" lon="15.391597139147379"><ele>461.0</ele><time>2026-04-19T16:16:30.999Z</time></trkpt><trkpt lat="41.15825637898619" lon="15.39181736589039"><ele>457.0</ele><time>2026-04-19T16:16:31.999Z</time></trkpt><trkpt lat="41.1583378307735" lon="15.392013111007289"><ele>448.6666666666667</ele><time>2026-04-19T16:16:32.999Z</time></trkpt><trkpt lat="41.158405455680445" lon="15.392203043265878"><ele>440.33333333333337</ele><time>2026-04-19T16:16:33.999Z</time></trkpt><trkpt lat="41.158458719608525" lon="15.392388710474176"><ele>432.0</ele><time>2026-04-19T16:16:34.999Z</time></trkpt><trkpt lat="41.158490161501184" lon="15.39258809533669"><ele>432.0</ele><time>2026-04-19T16:16:35.999Z</time></trkpt><trkpt lat="41.158500390086196" lon="15.392774619800774"><ele>432.0</ele><time>2026-04-19T16:16:36.999Z</time></trkpt><trkpt lat="41.15849680611332" lon="15.392975587008655"><ele>432.0</ele><time>2026-04-19T16:16:37.999Z</time></trkpt><trkpt lat="41.15847772357271" lon="15.393163996148553"><ele>432.0</ele><time>2026-04-19T16:16:38.999Z</time></trkpt><trkpt lat="41.15845681673842" lon="15.39334533892777"><ele>430.75</ele><time>2026-04-19T16:16:39.999Z</time></trkpt><trkpt lat="41.15845640535421" lon="15.393508306689872"><ele>429.5</ele><time>2026-04-19T16:16:40.999Z</time></trkpt><trkpt lat="41.1585042835915" lon="15.393653391958402"><ele>428.25</ele><time>2026-04-19T16:16:41.999Z</time></trkpt><trkpt lat="41.158568876455" lon="15.393780114553854"><ele>427.0</ele><time>2026-04-19T16:16:42.999Z</time></trkpt><trkpt lat="41.15866795264261" lon="15.393863359278967"><ele>424.75</ele><time>2026-04-19T16:16:43.999Z</time></trkpt><trkpt lat="41.15879617989577" lon="15.393911156531235"><ele>422.5</ele><time>2026-04-19T16:16:44.999Z</time></trkpt><trkpt lat="41.158923983831244" lon="15.393906997286068"><ele>420.25</ele><time>2026-04-19T16:16:45.999Z</time></trkpt><trkpt lat="41.15903594011262" lon="15.393833642554005"><ele>418.0</ele><time>2026-04-19T16:16:46.999Z</time></trkpt><trkpt lat="41.15912693644815" lon="15.393721991950523"><ele>416.0</ele><time>2026-04-19T16:16:47.999Z</time></trkpt><trkpt lat="41.15919819382077" lon="15.393573440326966"><ele>414.0</ele><time>2026-04-19T16:16:48.999Z</time></trkpt><trkpt lat="41.15924608691915" lon="15.393382206797472"><ele>412.0</ele><time>2026-04-19T16:16:49.999Z</time></trkpt><trkpt lat="41.15927808868664" lon="15.393163054852197"><ele>412.33333333333337</ele><time>2026-04-19T16:16:50.999Z</time></trkpt><trkpt lat="41.15930849506785" lon="15.392933996964986"><ele>412.66666666666663</ele><time>2026-04-19T16:16:51.999Z</time></trkpt><trkpt lat="41.15934285361748" lon="15.39273537128535"><ele>413.0</ele><time>2026-04-19T16:16:52.999Z</time></trkpt><trkpt lat="41.15938173192864" lon="15.392553455949555"><ele>413.0</ele><time>2026-04-19T16:16:53.999Z</time></trkpt><trkpt lat="41.15943391328311" lon="15.392394608415412"><ele>413.0</ele><time>2026-04-19T16:16:54.999Z</time></trkpt><trkpt lat="41.15951027104595" lon="15.392236758520676"><ele>413.0</ele><time>2026-04-19T16:16:55.999Z</time></trkpt><trkpt lat="41.159597125808475" lon="15.392114600310393"><ele>413.0</ele><time>2026-04-19T16:16:56.999Z</time></trkpt><trkpt lat="41.15969190211383" lon="15.392020855818648"><ele>413.59999999999997</ele><time>2026-04-19T16:16:57.999Z</time></trkpt><trkpt lat="41.15978929662777" lon="15.391941364775152"><ele>414.2</ele><time>2026-04-19T16:16:58.999Z</time></trkpt><trkpt lat="41.15987547713581" lon="15.391890637185782"><ele>414.8</ele><time>2026-04-19T16:16:59.999Z</time></trkpt><trkpt lat="41.1599423863573" lon="15.39188183677269"><ele>415.4</ele><time>2026-04-19T16:17:00.999Z</time></trkpt><trkpt lat="41.16002850287448" lon="15.39195299688551"><ele>416.0</ele><time>2026-04-19T16:17:02.999Z</time></trkpt><trkpt lat="41.15998985269107" lon="15.392122832486997"><ele>412.0</ele><time>2026-04-19T16:17:04.999Z</time></trkpt><trkpt lat="41.15996848944175" lon="15.39223450139408"><ele>408.0</ele><time>2026-04-19T16:17:05.999Z</time></trkpt><trkpt lat="41.15994611891191" lon="15.392371882989494"><ele>404.0</ele><time>2026-04-19T16:17:06.999Z</time></trkpt><trkpt lat="41.15992832705426" lon="15.392515483006592"><ele>400.0</ele><time>2026-04-19T16:17:07.999Z</time></trkpt><trkpt lat="41.15991098011756" lon="15.39267498405191"><ele>396.0</ele><time>2026-04-19T16:17:08.999Z</time></trkpt><trkpt lat="41.15989770749822" lon="15.392851157903493"><ele>395.75</ele><time>2026-04-19T16:17:09.999Z</time></trkpt><trkpt lat="41.15989507116355" lon="15.393025338989236"><ele>395.5</ele><time>2026-04-19T16:17:10.999Z</time></trkpt><trkpt lat="41.159896850560955" lon="15.393196956693995"><ele>395.25</ele><time>2026-04-19T16:17:11.999Z</time></trkpt><trkpt lat="41.15990079790825" lon="15.393377909840448"><ele>395.0</ele><time>2026-04-19T16:17:12.999Z</time></trkpt><trkpt lat="41.15990697438203" lon="15.393560137452274"><ele>395.0</ele><time>2026-04-19T16:17:13.999Z</time></trkpt><trkpt lat="41.15990693702938" lon="15.393750447422581"><ele>395.0</ele><time>2026-04-19T16:17:14.999Z</time></trkpt><trkpt lat="41.159915525341425" lon="15.39394946330435"><ele>395.0</ele><time>2026-04-19T16:17:15.999Z</time></trkpt><trkpt lat="41.159876294185324" lon="15.394151472508886"><ele>397.3333333333333</ele><time>2026-04-19T16:17:16.999Z</time></trkpt><trkpt lat="41.159841954907854" lon="15.394360649119298"><ele>399.66666666666663</ele><time>2026-04-19T16:17:17.999Z</time></trkpt><trkpt lat="41.159792893616824" lon="15.39459312923421"><ele>402.0</ele><time>2026-04-19T16:17:19Z</time></trkpt><trkpt lat="41.159736686476144" lon="15.394831747375727"><ele>402.0</ele><time>2026-04-19T16:17:20Z</time></trkpt><trkpt lat="41.159676005684126" lon="15.395085264256132"><ele>402.0</ele><time>2026-04-19T16:17:21Z</time></trkpt><trkpt lat="41.15961970378361" lon="15.395330566564636"><ele>402.0</ele><time>2026-04-19T16:17:22Z</time></trkpt><trkpt lat="41.15956606862937" lon="15.395564250272006"><ele>401.66666666666663</ele><time>2026-04-19T16:17:23Z</time></trkpt><trkpt lat="41.15951520103234" lon="15.395785875431105"><ele>401.3333333333333</ele><time>2026-04-19T16:17:24Z</time></trkpt><trkpt lat="41.15946602134578" lon="15.395997106869059"><ele>401.0</ele><time>2026-04-19T16:17:25Z</time></trkpt><trkpt lat="41.159414171344565" lon="15.396219333801024"><ele>398.66666666666663</ele><time>2026-04-19T16:17:26Z</time></trkpt><trkpt lat="41.159362465469165" lon="15.39644796673734"><ele>396.33333333333337</ele><time>2026-04-19T16:17:27Z</time></trkpt><trkpt lat="41.1593135382921" lon="15.396695099232973"><ele>394.0</ele><time>2026-04-19T16:17:28Z</time></trkpt><trkpt lat="41.15927322790428" lon="15.39695057901947"><ele>393.0</ele><time>2026-04-19T16:17:29Z</time></trkpt><trkpt lat="41.15923722492361" lon="15.397178733427047"><ele>392.0</ele><time>2026-04-19T16:17:30Z</time></trkpt><trkpt lat="41.15919734806399" lon="15.397401652869831"><ele>391.0</ele><time>2026-04-19T16:17:31Z</time></trkpt><trkpt lat="41.159147597673034" lon="15.397631807368976"><ele>391.0</ele><time>2026-04-19T16:17:32Z</time></trkpt><trkpt lat="41.159089616297024" lon="15.397858274445172"><ele>391.0</ele><time>2026-04-19T16:17:33Z</time></trkpt><trkpt lat="41.15902842236078" lon="15.398093439896233"><ele>391.0</ele><time>2026-04-19T16:17:34Z</time></trkpt><trkpt lat="41.15897078422951" lon="15.398314755617855"><ele>394.0</ele><time>2026-04-19T16:17:35Z</time></trkpt><trkpt lat="41.15892908162958" lon="15.398532594962614"><ele>397.0</ele><time>2026-04-19T16:17:36Z</time></trkpt><trkpt lat="41.158884179229204" lon="15.398716227059865"><ele>400.0</ele><time>2026-04-19T16:17:37Z</time></trkpt><trkpt lat="41.15884185611806" lon="15.398916734740265"><ele>400.6666666666667</ele><time>2026-04-19T16:17:38Z</time></trkpt><trkpt lat="41.1588150511784" lon="15.399128760236321"><ele>401.33333333333337</ele><time>2026-04-19T16:17:39Z</time></trkpt><trkpt lat="41.15881336994368" lon="15.399335283971347"><ele>402.0</ele><time>2026-04-19T16:17:40Z</time></trkpt><trkpt lat="41.158813725936724" lon="15.399559061429164"><ele>401.33333333333337</ele><time>2026-04-19T16:17:41Z</time></trkpt><trkpt lat="41.158834938195845" lon="15.399793225415868"><ele>400.6666666666667</ele><time>2026-04-19T16:17:42Z</time></trkpt><trkpt lat="41.158859808810995" lon="15.400049697538396"><ele>400.0</ele><time>2026-04-19T16:17:43Z</time></trkpt><trkpt lat="41.15888755563469" lon="15.400312840493111"><ele>397.6666666666667</ele><time>2026-04-19T16:17:44Z</time></trkpt><trkpt lat="41.15890969796148" lon="15.40054458589437"><ele>395.33333333333337</ele><time>2026-04-19T16:17:45Z</time></trkpt><trkpt lat="41.158929008681795" lon="15.400753652329545"><ele>393.0</ele><time>2026-04-19T16:17:46Z</time></trkpt><trkpt lat="41.15894563940896" lon="15.400956649943733"><ele>393.0</ele><time>2026-04-19T16:17:47Z</time></trkpt><trkpt lat="41.15894898162666" lon="15.401165826563265"><ele>393.0</ele><time>2026-04-19T16:17:48Z</time></trkpt><trkpt lat="41.15893731529204" lon="15.401356697549746"><ele>393.0</ele><time>2026-04-19T16:17:49Z</time></trkpt><trkpt lat="41.158916344894884" lon="15.401551573949448"><ele>393.0</ele><time>2026-04-19T16:17:50Z</time></trkpt><trkpt lat="41.158885512866476" lon="15.401772212886728"><ele>393.0</ele><time>2026-04-19T16:17:51Z</time></trkpt><trkpt lat="41.15885212522606" lon="15.402011139893485"><ele>393.0</ele><time>2026-04-19T16:17:52Z</time></trkpt><trkpt lat="41.158820724206294" lon="15.4022385478519"><ele>392.0</ele><time>2026-04-19T16:17:53Z</time></trkpt><trkpt lat="41.15879272419866" lon="15.40246354857024"><ele>391.0</ele><time>2026-04-19T16:17:54Z</time></trkpt><trkpt lat="41.15876652743767" lon="15.402674057420377"><ele>390.0</ele><time>2026-04-19T16:17:55Z</time></trkpt><trkpt lat="41.15873549625472" lon="15.402883111075177"><ele>390.0</ele><time>2026-04-19T16:17:56Z</time></trkpt><trkpt lat="41.158700903073616" lon="15.403084120216814"><ele>390.0</ele><time>2026-04-19T16:17:57Z</time></trkpt><trkpt lat="41.158681758665765" lon="15.40329224596718"><ele>390.0</ele><time>2026-04-19T16:17:58Z</time></trkpt><trkpt lat="41.15867776159498" lon="15.403501221292105"><ele>390.0</ele><time>2026-04-19T16:17:59Z</time></trkpt><trkpt lat="41.15871228803055" lon="15.403746665066492"><ele>390.0</ele><time>2026-04-19T16:18:00Z</time></trkpt><trkpt lat="41.158744671557926" lon="15.404016857411445"><ele>390.0</ele><time>2026-04-19T16:18:01Z</time></trkpt><trkpt lat="41.15876248979359" lon="15.404301096976864"><ele>389.0</ele><time>2026-04-19T16:18:01.999Z</time></trkpt><trkpt lat="41.15879540001796" lon="15.404561486308555"><ele>388.0</ele><time>2026-04-19T16:18:02.999Z</time></trkpt><trkpt lat="41.15882369403108" lon="15.404795099879385"><ele>387.0</ele><time>2026-04-19T16:18:03.999Z</time></trkpt><trkpt lat="41.15884419235011" lon="15.405007587910731"><ele>385.3333333333333</ele><time>2026-04-19T16:18:04.999Z</time></trkpt><trkpt lat="41.15885995133462" lon="15.405249506166555"><ele>383.66666666666663</ele><time>2026-04-19T16:18:05.999Z</time></trkpt><trkpt lat="41.15886608643887" lon="15.405479533134303"><ele>382.0</ele><time>2026-04-19T16:18:06.999Z</time></trkpt><trkpt lat="41.158853024132505" lon="15.405706974090053"><ele>379.3333333333333</ele><time>2026-04-19T16:18:07.999Z</time></trkpt><trkpt lat="41.15882242783937" lon="15.405925490134122"><ele>376.6666666666667</ele><time>2026-04-19T16:18:08.999Z</time></trkpt><trkpt lat="41.15878146995826" lon="15.406157242819582"><ele>374.0</ele><time>2026-04-19T16:18:09.999Z</time></trkpt><trkpt lat="41.1587357030315" lon="15.406409854703881"><ele>372.0</ele><time>2026-04-19T16:18:10.999Z</time></trkpt><trkpt lat="41.15867869870613" lon="15.406706115541777"><ele>370.0</ele><time>2026-04-19T16:18:11.999Z</time></trkpt><trkpt lat="41.15861832457524" lon="15.407016863877153"><ele>369.0</ele><time>2026-04-19T16:18:12.999Z</time></trkpt><trkpt lat="41.158561155737175" lon="15.407311114559137"><ele>368.0</ele><time>2026-04-19T16:18:13.999Z</time></trkpt><trkpt lat="41.15850980795127" lon="15.40757540393872"><ele>367.0</ele><time>2026-04-19T16:18:14.999Z</time></trkpt><trkpt lat="41.158458724914205" lon="15.407846191520632"><ele>365.0</ele><time>2026-04-19T16:18:15.999Z</time></trkpt><trkpt lat="41.15841046563529" lon="15.40810526935974"><ele>363.0</ele><time>2026-04-19T16:18:16.999Z</time></trkpt><trkpt lat="41.158368891153174" lon="15.408350026925477"><ele>361.0</ele><time>2026-04-19T16:18:17.999Z</time></trkpt><trkpt lat="41.158338023048934" lon="15.408589976743258"><ele>361.0</ele><time>2026-04-19T16:18:18.999Z</time></trkpt><trkpt lat="41.158315044070726" lon="15.408797939963295"><ele>361.0</ele><time>2026-04-19T16:18:19.999Z</time></trkpt><trkpt lat="41.158292414827564" lon="15.409006664586412"><ele>361.0</ele><time>2026-04-19T16:18:20.999Z</time></trkpt><trkpt lat="41.158272550249826" lon="15.409192910450507"><ele>359.75</ele><time>2026-04-19T16:18:21.999Z</time></trkpt><trkpt lat="41.15825401669662" lon="15.409370387039978"><ele>358.5</ele><time>2026-04-19T16:18:22.999Z</time></trkpt><trkpt lat="41.158238598480985" lon="15.409525993705513"><ele>357.25</ele><time>2026-04-19T16:18:23.999Z</time></trkpt><trkpt lat="41.158225199669545" lon="15.40966554219741"><ele>356.0</ele><time>2026-04-19T16:18:24.999Z</time></trkpt><trkpt lat="41.15821416477239" lon="15.409789904976776"><ele>355.20000000000005</ele><time>2026-04-19T16:18:25.999Z</time></trkpt><trkpt lat="41.15827210494215" lon="15.409909603607645"><ele>354.40000000000003</ele><time>2026-04-19T16:18:26.999Z</time></trkpt><trkpt lat="41.15831095721085" lon="15.410011819925039"><ele>353.6</ele><time>2026-04-19T16:18:27.999Z</time></trkpt><trkpt lat="41.1583511251002" lon="15.410155883515955"><ele>352.8</ele><time>2026-04-19T16:18:29.999Z</time></trkpt><trkpt lat="41.15832915778818" lon="15.410317246912474"><ele>352.0</ele><time>2026-04-19T16:18:31.999Z</time></trkpt><trkpt lat="41.158328805708756" lon="15.410436551927788"><ele>352.0</ele><time>2026-04-19T16:18:33.999Z</time></trkpt><trkpt lat="41.15833955877984" lon="15.410533747751785"><ele>351.0</ele><time>2026-04-19T16:18:35.999Z</time></trkpt><trkpt lat="41.15842051868527" lon="15.410683274423791"><ele>351.0</ele><time>2026-04-19T16:18:39.999Z</time></trkpt><trkpt lat="41.15842913009863" lon="15.410499533505119"><ele>351.0</ele><time>2026-04-19T16:18:41.999Z</time></trkpt></trkseg></trk></gpx>